<?xml version="1.0" encoding="UTF-8" standalone="no" ?>
<gpx xmlns="http://www.topografix.com/GPX/1/1" xmlns:xsi="http://www.w3.org/2001/XMLSchema-instance" xsi:schemaLocation="http://www.topografix.com/GPX/1/1 http://www.topografix.com/GPX/1/1/gpx.xsd" version="1.1" creator="VisuGPX - https://www.visugpx.com">
  <metadata>
    <name>SE-NO-St Aignan Le Bignon MaisdonSevre Clisson Gorges Monnières St Fiacre Vertou Basse Goulaine Pirmil</name>
    <desc><![CDATA[SE-NO-St Aignan Le Bignon MaisdonSevre Clisson Gorges Monnières St Fiacre Vertou Basse Goulaine Pirmil]]></desc>
  </metadata>
  <trk>
    <name><![CDATA[2020-06-27 14:39]]></name>
    <desc><![CDATA[<p>Heure de départ: 06/27/2020 14:40<br/>Heure d'arrivée: 06/27/2020 17:52<br/>Distance: 80,8 km (03:12)<br/>Temps déplacement: 03:08<br/>Vitesse moyenne: 25,19 km/h<br/>Vitesse moyenne mouv.: 25,77 km/h<br/>Vitesse Max.: 44,69 km/h<br/>Altitude minimale: -15 m<br/>Altitude maximale: 64 m<br/>Vitesse de montée: 416,2 m/h<br/>Vitesse de descente: -441,7 m/h<br/>Gain d'altitude: 483 m<br/>Perte d'altitude: -479 m<br/>Temps de montée: 01:09<br/>Temps de descente: 01:05<br/></p><hr align="center" width="480" style="height: 2px; width: 517px"/>]]></desc>
    <trkseg>
      <trkpt lat="47.16714" lon="-1.62449">
        <ele>10.29</ele>
        <time>2020-06-27T12:40:10Z</time>
      </trkpt>
      <trkpt lat="47.16718" lon="-1.62428">
        <ele>12.55</ele>
        <time>2020-06-27T12:40:12Z</time>
      </trkpt>
      <trkpt lat="47.16724" lon="-1.62412">
        <ele>12.57</ele>
        <time>2020-06-27T12:40:14Z</time>
      </trkpt>
      <trkpt lat="47.16716" lon="-1.62399">
        <ele>11.93</ele>
        <time>2020-06-27T12:40:16Z</time>
      </trkpt>
      <trkpt lat="47.16706" lon="-1.62387">
        <ele>15.3</ele>
        <time>2020-06-27T12:40:18Z</time>
      </trkpt>
      <trkpt lat="47.16696" lon="-1.62373">
        <ele>15.77</ele>
        <time>2020-06-27T12:40:20Z</time>
      </trkpt>
      <trkpt lat="47.16685" lon="-1.62364">
        <ele>15.27</ele>
        <time>2020-06-27T12:40:22Z</time>
      </trkpt>
      <trkpt lat="47.16674" lon="-1.62359">
        <ele>18.43</ele>
        <time>2020-06-27T12:40:24Z</time>
      </trkpt>
      <trkpt lat="47.16663" lon="-1.62362">
        <ele>23.52</ele>
        <time>2020-06-27T12:40:26Z</time>
      </trkpt>
      <trkpt lat="47.16652" lon="-1.62369">
        <ele>24.62</ele>
        <time>2020-06-27T12:40:28Z</time>
      </trkpt>
      <trkpt lat="47.16642" lon="-1.62378">
        <ele>23.83</ele>
        <time>2020-06-27T12:40:30Z</time>
      </trkpt>
      <trkpt lat="47.16634" lon="-1.62388">
        <ele>22.87</ele>
        <time>2020-06-27T12:40:32Z</time>
      </trkpt>
      <trkpt lat="47.16621" lon="-1.62401">
        <ele>21.72</ele>
        <time>2020-06-27T12:40:34Z</time>
      </trkpt>
      <trkpt lat="47.16615" lon="-1.62415">
        <ele>20.3</ele>
        <time>2020-06-27T12:40:36Z</time>
      </trkpt>
      <trkpt lat="47.16607" lon="-1.62424">
        <ele>20.04</ele>
        <time>2020-06-27T12:40:38Z</time>
      </trkpt>
      <trkpt lat="47.166" lon="-1.62437">
        <ele>20.79</ele>
        <time>2020-06-27T12:40:40Z</time>
      </trkpt>
      <trkpt lat="47.16594" lon="-1.62452">
        <ele>20.97</ele>
        <time>2020-06-27T12:40:42Z</time>
      </trkpt>
      <trkpt lat="47.16588" lon="-1.62467">
        <ele>20.74</ele>
        <time>2020-06-27T12:40:44Z</time>
      </trkpt>
      <trkpt lat="47.16583" lon="-1.6248">
        <ele>21.43</ele>
        <time>2020-06-27T12:40:46Z</time>
      </trkpt>
      <trkpt lat="47.16577" lon="-1.62495">
        <ele>22.03</ele>
        <time>2020-06-27T12:40:48Z</time>
      </trkpt>
      <trkpt lat="47.16571" lon="-1.62509">
        <ele>22.83</ele>
        <time>2020-06-27T12:40:50Z</time>
      </trkpt>
      <trkpt lat="47.16566" lon="-1.62521">
        <ele>22.45</ele>
        <time>2020-06-27T12:40:52Z</time>
      </trkpt>
      <trkpt lat="47.16559" lon="-1.62535">
        <ele>22.59</ele>
        <time>2020-06-27T12:40:54Z</time>
      </trkpt>
      <trkpt lat="47.16551" lon="-1.6255">
        <ele>22.7</ele>
        <time>2020-06-27T12:40:56Z</time>
      </trkpt>
      <trkpt lat="47.16542" lon="-1.62564">
        <ele>22.51</ele>
        <time>2020-06-27T12:40:58Z</time>
      </trkpt>
      <trkpt lat="47.16531" lon="-1.62571">
        <ele>22.33</ele>
        <time>2020-06-27T12:41:00Z</time>
      </trkpt>
      <trkpt lat="47.16517" lon="-1.6257">
        <ele>22.39</ele>
        <time>2020-06-27T12:41:02Z</time>
      </trkpt>
      <trkpt lat="47.16504" lon="-1.62564">
        <ele>22.59</ele>
        <time>2020-06-27T12:41:04Z</time>
      </trkpt>
      <trkpt lat="47.16494" lon="-1.62559">
        <ele>23.07</ele>
        <time>2020-06-27T12:41:06Z</time>
      </trkpt>
      <trkpt lat="47.16484" lon="-1.62555">
        <ele>23.43</ele>
        <time>2020-06-27T12:41:08Z</time>
      </trkpt>
      <trkpt lat="47.16472" lon="-1.62552">
        <ele>22.64</ele>
        <time>2020-06-27T12:41:10Z</time>
      </trkpt>
      <trkpt lat="47.16462" lon="-1.62548">
        <ele>23.26</ele>
        <time>2020-06-27T12:41:12Z</time>
      </trkpt>
      <trkpt lat="47.16452" lon="-1.62544">
        <ele>24.25</ele>
        <time>2020-06-27T12:41:14Z</time>
      </trkpt>
      <trkpt lat="47.16441" lon="-1.62541">
        <ele>24.83</ele>
        <time>2020-06-27T12:41:16Z</time>
      </trkpt>
      <trkpt lat="47.16428" lon="-1.62543">
        <ele>25.73</ele>
        <time>2020-06-27T12:41:18Z</time>
      </trkpt>
      <trkpt lat="47.16418" lon="-1.62549">
        <ele>26.01</ele>
        <time>2020-06-27T12:41:20Z</time>
      </trkpt>
      <trkpt lat="47.16408" lon="-1.62559">
        <ele>27</ele>
        <time>2020-06-27T12:41:22Z</time>
      </trkpt>
      <trkpt lat="47.164" lon="-1.62568">
        <ele>28.01</ele>
        <time>2020-06-27T12:41:24Z</time>
      </trkpt>
      <trkpt lat="47.16391" lon="-1.62576">
        <ele>28.73</ele>
        <time>2020-06-27T12:41:26Z</time>
      </trkpt>
      <trkpt lat="47.1638" lon="-1.62582">
        <ele>28.81</ele>
        <time>2020-06-27T12:41:28Z</time>
      </trkpt>
      <trkpt lat="47.16368" lon="-1.62582">
        <ele>28.05</ele>
        <time>2020-06-27T12:41:30Z</time>
      </trkpt>
      <trkpt lat="47.16355" lon="-1.62581">
        <ele>27.28</ele>
        <time>2020-06-27T12:41:32Z</time>
      </trkpt>
      <trkpt lat="47.16344" lon="-1.62578">
        <ele>26.39</ele>
        <time>2020-06-27T12:41:34Z</time>
      </trkpt>
      <trkpt lat="47.16331" lon="-1.62573">
        <ele>26.2</ele>
        <time>2020-06-27T12:41:36Z</time>
      </trkpt>
      <trkpt lat="47.16318" lon="-1.6257">
        <ele>25.81</ele>
        <time>2020-06-27T12:41:38Z</time>
      </trkpt>
      <trkpt lat="47.16305" lon="-1.62572">
        <ele>24.47</ele>
        <time>2020-06-27T12:41:40Z</time>
      </trkpt>
      <trkpt lat="47.16294" lon="-1.62582">
        <ele>23.8</ele>
        <time>2020-06-27T12:41:42Z</time>
      </trkpt>
      <trkpt lat="47.16289" lon="-1.62596">
        <ele>24.05</ele>
        <time>2020-06-27T12:41:44Z</time>
      </trkpt>
      <trkpt lat="47.16284" lon="-1.62613">
        <ele>24.51</ele>
        <time>2020-06-27T12:41:46Z</time>
      </trkpt>
      <trkpt lat="47.16279" lon="-1.62632">
        <ele>24.6</ele>
        <time>2020-06-27T12:41:48Z</time>
      </trkpt>
      <trkpt lat="47.16275" lon="-1.62651">
        <ele>24.88</ele>
        <time>2020-06-27T12:41:50Z</time>
      </trkpt>
      <trkpt lat="47.16274" lon="-1.62667">
        <ele>25.14</ele>
        <time>2020-06-27T12:41:52Z</time>
      </trkpt>
      <trkpt lat="47.16274" lon="-1.62688">
        <ele>25.66</ele>
        <time>2020-06-27T12:41:55Z</time>
      </trkpt>
      <trkpt lat="47.16276" lon="-1.62702">
        <ele>25.85</ele>
        <time>2020-06-27T12:42:00Z</time>
      </trkpt>
      <trkpt lat="47.16279" lon="-1.62716">
        <ele>26.37</ele>
        <time>2020-06-27T12:42:03Z</time>
      </trkpt>
      <trkpt lat="47.1628" lon="-1.62729">
        <ele>26.64</ele>
        <time>2020-06-27T12:42:05Z</time>
      </trkpt>
      <trkpt lat="47.16266" lon="-1.62739">
        <ele>26.14</ele>
        <time>2020-06-27T12:42:08Z</time>
      </trkpt>
      <trkpt lat="47.16254" lon="-1.62743">
        <ele>24.88</ele>
        <time>2020-06-27T12:42:10Z</time>
      </trkpt>
      <trkpt lat="47.16242" lon="-1.62749">
        <ele>24.19</ele>
        <time>2020-06-27T12:42:12Z</time>
      </trkpt>
      <trkpt lat="47.16227" lon="-1.62756">
        <ele>23.77</ele>
        <time>2020-06-27T12:42:14Z</time>
      </trkpt>
      <trkpt lat="47.16214" lon="-1.62762">
        <ele>23.22</ele>
        <time>2020-06-27T12:42:16Z</time>
      </trkpt>
      <trkpt lat="47.162" lon="-1.6277">
        <ele>22.35</ele>
        <time>2020-06-27T12:42:18Z</time>
      </trkpt>
      <trkpt lat="47.16186" lon="-1.62782">
        <ele>21.57</ele>
        <time>2020-06-27T12:42:20Z</time>
      </trkpt>
      <trkpt lat="47.16172" lon="-1.62794">
        <ele>20.93</ele>
        <time>2020-06-27T12:42:22Z</time>
      </trkpt>
      <trkpt lat="47.16158" lon="-1.62808">
        <ele>20.29</ele>
        <time>2020-06-27T12:42:24Z</time>
      </trkpt>
      <trkpt lat="47.16145" lon="-1.6282">
        <ele>19.7</ele>
        <time>2020-06-27T12:42:26Z</time>
      </trkpt>
      <trkpt lat="47.1613" lon="-1.62834">
        <ele>18.58</ele>
        <time>2020-06-27T12:42:28Z</time>
      </trkpt>
      <trkpt lat="47.16118" lon="-1.62844">
        <ele>17.89</ele>
        <time>2020-06-27T12:42:30Z</time>
      </trkpt>
      <trkpt lat="47.16105" lon="-1.62856">
        <ele>18.01</ele>
        <time>2020-06-27T12:42:32Z</time>
      </trkpt>
      <trkpt lat="47.16091" lon="-1.62868">
        <ele>17.85</ele>
        <time>2020-06-27T12:42:34Z</time>
      </trkpt>
      <trkpt lat="47.16077" lon="-1.6288">
        <ele>17.49</ele>
        <time>2020-06-27T12:42:36Z</time>
      </trkpt>
      <trkpt lat="47.16064" lon="-1.62892">
        <ele>17.12</ele>
        <time>2020-06-27T12:42:38Z</time>
      </trkpt>
      <trkpt lat="47.1605" lon="-1.62905">
        <ele>16.33</ele>
        <time>2020-06-27T12:42:40Z</time>
      </trkpt>
      <trkpt lat="47.16036" lon="-1.62917">
        <ele>15.92</ele>
        <time>2020-06-27T12:42:42Z</time>
      </trkpt>
      <trkpt lat="47.1602" lon="-1.62931">
        <ele>15.64</ele>
        <time>2020-06-27T12:42:44Z</time>
      </trkpt>
      <trkpt lat="47.16006" lon="-1.62943">
        <ele>16.42</ele>
        <time>2020-06-27T12:42:46Z</time>
      </trkpt>
      <trkpt lat="47.15993" lon="-1.62955">
        <ele>16.77</ele>
        <time>2020-06-27T12:42:48Z</time>
      </trkpt>
      <trkpt lat="47.15978" lon="-1.62967">
        <ele>16.08</ele>
        <time>2020-06-27T12:42:50Z</time>
      </trkpt>
      <trkpt lat="47.15963" lon="-1.6298">
        <ele>15.82</ele>
        <time>2020-06-27T12:42:52Z</time>
      </trkpt>
      <trkpt lat="47.15955" lon="-1.62987">
        <ele>15.59</ele>
        <time>2020-06-27T12:42:53Z</time>
      </trkpt>
      <trkpt lat="47.15947" lon="-1.62994">
        <ele>15.14</ele>
        <time>2020-06-27T12:42:54Z</time>
      </trkpt>
      <trkpt lat="47.1594" lon="-1.63001">
        <ele>14.85</ele>
        <time>2020-06-27T12:42:55Z</time>
      </trkpt>
      <trkpt lat="47.15925" lon="-1.63013">
        <ele>13.43</ele>
        <time>2020-06-27T12:42:57Z</time>
      </trkpt>
      <trkpt lat="47.15912" lon="-1.63024">
        <ele>11.88</ele>
        <time>2020-06-27T12:42:59Z</time>
      </trkpt>
      <trkpt lat="47.15903" lon="-1.63032">
        <ele>11.21</ele>
        <time>2020-06-27T12:43:00Z</time>
      </trkpt>
      <trkpt lat="47.15891" lon="-1.63043">
        <ele>10.11</ele>
        <time>2020-06-27T12:43:02Z</time>
      </trkpt>
      <trkpt lat="47.15879" lon="-1.63054">
        <ele>9.47</ele>
        <time>2020-06-27T12:43:04Z</time>
      </trkpt>
      <trkpt lat="47.15867" lon="-1.63066">
        <ele>9.15</ele>
        <time>2020-06-27T12:43:06Z</time>
      </trkpt>
      <trkpt lat="47.15856" lon="-1.63076">
        <ele>10.02</ele>
        <time>2020-06-27T12:43:08Z</time>
      </trkpt>
      <trkpt lat="47.15847" lon="-1.63085">
        <ele>11.58</ele>
        <time>2020-06-27T12:43:10Z</time>
      </trkpt>
      <trkpt lat="47.15833" lon="-1.63097">
        <ele>12.03</ele>
        <time>2020-06-27T12:43:12Z</time>
      </trkpt>
      <trkpt lat="47.1582" lon="-1.63108">
        <ele>11.25</ele>
        <time>2020-06-27T12:43:14Z</time>
      </trkpt>
      <trkpt lat="47.15809" lon="-1.63118">
        <ele>11.22</ele>
        <time>2020-06-27T12:43:16Z</time>
      </trkpt>
      <trkpt lat="47.15798" lon="-1.63128">
        <ele>11.86</ele>
        <time>2020-06-27T12:43:18Z</time>
      </trkpt>
      <trkpt lat="47.15787" lon="-1.63138">
        <ele>12.81</ele>
        <time>2020-06-27T12:43:20Z</time>
      </trkpt>
      <trkpt lat="47.15776" lon="-1.63148">
        <ele>13.98</ele>
        <time>2020-06-27T12:43:22Z</time>
      </trkpt>
      <trkpt lat="47.15764" lon="-1.63159">
        <ele>15.28</ele>
        <time>2020-06-27T12:43:24Z</time>
      </trkpt>
      <trkpt lat="47.15753" lon="-1.63169">
        <ele>16.16</ele>
        <time>2020-06-27T12:43:26Z</time>
      </trkpt>
      <trkpt lat="47.15742" lon="-1.63177">
        <ele>16.66</ele>
        <time>2020-06-27T12:43:28Z</time>
      </trkpt>
      <trkpt lat="47.1573" lon="-1.63187">
        <ele>17.8</ele>
        <time>2020-06-27T12:43:30Z</time>
      </trkpt>
      <trkpt lat="47.15719" lon="-1.63197">
        <ele>18.63</ele>
        <time>2020-06-27T12:43:32Z</time>
      </trkpt>
      <trkpt lat="47.15709" lon="-1.63206">
        <ele>19.51</ele>
        <time>2020-06-27T12:43:34Z</time>
      </trkpt>
      <trkpt lat="47.15698" lon="-1.63216">
        <ele>20.7</ele>
        <time>2020-06-27T12:43:36Z</time>
      </trkpt>
      <trkpt lat="47.15686" lon="-1.63227">
        <ele>22.12</ele>
        <time>2020-06-27T12:43:38Z</time>
      </trkpt>
      <trkpt lat="47.15675" lon="-1.63237">
        <ele>22.33</ele>
        <time>2020-06-27T12:43:40Z</time>
      </trkpt>
      <trkpt lat="47.15665" lon="-1.63246">
        <ele>22.83</ele>
        <time>2020-06-27T12:43:42Z</time>
      </trkpt>
      <trkpt lat="47.15653" lon="-1.63257">
        <ele>22.4</ele>
        <time>2020-06-27T12:43:44Z</time>
      </trkpt>
      <trkpt lat="47.15641" lon="-1.63266">
        <ele>22.04</ele>
        <time>2020-06-27T12:43:46Z</time>
      </trkpt>
      <trkpt lat="47.1563" lon="-1.63276">
        <ele>22.63</ele>
        <time>2020-06-27T12:43:48Z</time>
      </trkpt>
      <trkpt lat="47.15619" lon="-1.63285">
        <ele>22.38</ele>
        <time>2020-06-27T12:43:50Z</time>
      </trkpt>
      <trkpt lat="47.15608" lon="-1.63294">
        <ele>20.95</ele>
        <time>2020-06-27T12:43:52Z</time>
      </trkpt>
      <trkpt lat="47.15597" lon="-1.63304">
        <ele>20.32</ele>
        <time>2020-06-27T12:43:54Z</time>
      </trkpt>
      <trkpt lat="47.15587" lon="-1.63314">
        <ele>20.54</ele>
        <time>2020-06-27T12:43:56Z</time>
      </trkpt>
      <trkpt lat="47.15576" lon="-1.63325">
        <ele>20.95</ele>
        <time>2020-06-27T12:43:58Z</time>
      </trkpt>
      <trkpt lat="47.15564" lon="-1.63335">
        <ele>21.15</ele>
        <time>2020-06-27T12:44:00Z</time>
      </trkpt>
      <trkpt lat="47.15554" lon="-1.63344">
        <ele>21.29</ele>
        <time>2020-06-27T12:44:02Z</time>
      </trkpt>
      <trkpt lat="47.15542" lon="-1.63355">
        <ele>21.55</ele>
        <time>2020-06-27T12:44:04Z</time>
      </trkpt>
      <trkpt lat="47.15532" lon="-1.63364">
        <ele>20.43</ele>
        <time>2020-06-27T12:44:06Z</time>
      </trkpt>
      <trkpt lat="47.15521" lon="-1.63372">
        <ele>19.26</ele>
        <time>2020-06-27T12:44:08Z</time>
      </trkpt>
      <trkpt lat="47.1551" lon="-1.63381">
        <ele>18.86</ele>
        <time>2020-06-27T12:44:10Z</time>
      </trkpt>
      <trkpt lat="47.15499" lon="-1.63392">
        <ele>18.09</ele>
        <time>2020-06-27T12:44:12Z</time>
      </trkpt>
      <trkpt lat="47.15488" lon="-1.63403">
        <ele>17.89</ele>
        <time>2020-06-27T12:44:14Z</time>
      </trkpt>
      <trkpt lat="47.15478" lon="-1.63412">
        <ele>17.68</ele>
        <time>2020-06-27T12:44:16Z</time>
      </trkpt>
      <trkpt lat="47.15468" lon="-1.63421">
        <ele>18.38</ele>
        <time>2020-06-27T12:44:18Z</time>
      </trkpt>
      <trkpt lat="47.15457" lon="-1.63432">
        <ele>19.1</ele>
        <time>2020-06-27T12:44:20Z</time>
      </trkpt>
      <trkpt lat="47.15448" lon="-1.63441">
        <ele>19.51</ele>
        <time>2020-06-27T12:44:22Z</time>
      </trkpt>
      <trkpt lat="47.15439" lon="-1.6345">
        <ele>18.77</ele>
        <time>2020-06-27T12:44:24Z</time>
      </trkpt>
      <trkpt lat="47.1543" lon="-1.63459">
        <ele>17.34</ele>
        <time>2020-06-27T12:44:26Z</time>
      </trkpt>
      <trkpt lat="47.15421" lon="-1.63467">
        <ele>16.49</ele>
        <time>2020-06-27T12:44:28Z</time>
      </trkpt>
      <trkpt lat="47.15411" lon="-1.63477">
        <ele>16.35</ele>
        <time>2020-06-27T12:44:30Z</time>
      </trkpt>
      <trkpt lat="47.15403" lon="-1.63487">
        <ele>16.16</ele>
        <time>2020-06-27T12:44:32Z</time>
      </trkpt>
      <trkpt lat="47.15395" lon="-1.63498">
        <ele>15.54</ele>
        <time>2020-06-27T12:44:34Z</time>
      </trkpt>
      <trkpt lat="47.15387" lon="-1.63508">
        <ele>16.93</ele>
        <time>2020-06-27T12:44:36Z</time>
      </trkpt>
      <trkpt lat="47.15377" lon="-1.63515">
        <ele>19.19</ele>
        <time>2020-06-27T12:44:38Z</time>
      </trkpt>
      <trkpt lat="47.15368" lon="-1.6352">
        <ele>19.57</ele>
        <time>2020-06-27T12:44:40Z</time>
      </trkpt>
      <trkpt lat="47.15357" lon="-1.6353">
        <ele>19.31</ele>
        <time>2020-06-27T12:44:42Z</time>
      </trkpt>
      <trkpt lat="47.15345" lon="-1.63541">
        <ele>19.03</ele>
        <time>2020-06-27T12:44:44Z</time>
      </trkpt>
      <trkpt lat="47.15335" lon="-1.6355">
        <ele>19.37</ele>
        <time>2020-06-27T12:44:46Z</time>
      </trkpt>
      <trkpt lat="47.15323" lon="-1.63559">
        <ele>20.91</ele>
        <time>2020-06-27T12:44:48Z</time>
      </trkpt>
      <trkpt lat="47.15312" lon="-1.63568">
        <ele>21.47</ele>
        <time>2020-06-27T12:44:50Z</time>
      </trkpt>
      <trkpt lat="47.153" lon="-1.63575">
        <ele>21.21</ele>
        <time>2020-06-27T12:44:52Z</time>
      </trkpt>
      <trkpt lat="47.15288" lon="-1.63584">
        <ele>20.99</ele>
        <time>2020-06-27T12:44:54Z</time>
      </trkpt>
      <trkpt lat="47.15278" lon="-1.63591">
        <ele>20.96</ele>
        <time>2020-06-27T12:44:56Z</time>
      </trkpt>
      <trkpt lat="47.15268" lon="-1.63601">
        <ele>22.53</ele>
        <time>2020-06-27T12:44:58Z</time>
      </trkpt>
      <trkpt lat="47.15256" lon="-1.6361">
        <ele>24.62</ele>
        <time>2020-06-27T12:45:00Z</time>
      </trkpt>
      <trkpt lat="47.15244" lon="-1.63622">
        <ele>25.41</ele>
        <time>2020-06-27T12:45:02Z</time>
      </trkpt>
      <trkpt lat="47.15233" lon="-1.6363">
        <ele>26</ele>
        <time>2020-06-27T12:45:04Z</time>
      </trkpt>
      <trkpt lat="47.1522" lon="-1.63639">
        <ele>26.05</ele>
        <time>2020-06-27T12:45:06Z</time>
      </trkpt>
      <trkpt lat="47.15208" lon="-1.63649">
        <ele>26.59</ele>
        <time>2020-06-27T12:45:08Z</time>
      </trkpt>
      <trkpt lat="47.15197" lon="-1.63658">
        <ele>27.56</ele>
        <time>2020-06-27T12:45:10Z</time>
      </trkpt>
      <trkpt lat="47.15185" lon="-1.63669">
        <ele>27.4</ele>
        <time>2020-06-27T12:45:12Z</time>
      </trkpt>
      <trkpt lat="47.15174" lon="-1.63679">
        <ele>26.27</ele>
        <time>2020-06-27T12:45:14Z</time>
      </trkpt>
      <trkpt lat="47.15162" lon="-1.63691">
        <ele>25.68</ele>
        <time>2020-06-27T12:45:16Z</time>
      </trkpt>
      <trkpt lat="47.1515" lon="-1.63702">
        <ele>25.55</ele>
        <time>2020-06-27T12:45:18Z</time>
      </trkpt>
      <trkpt lat="47.15141" lon="-1.63712">
        <ele>24.5</ele>
        <time>2020-06-27T12:45:20Z</time>
      </trkpt>
      <trkpt lat="47.15131" lon="-1.63721">
        <ele>23.55</ele>
        <time>2020-06-27T12:45:22Z</time>
      </trkpt>
      <trkpt lat="47.15119" lon="-1.63733">
        <ele>23.12</ele>
        <time>2020-06-27T12:45:24Z</time>
      </trkpt>
      <trkpt lat="47.15108" lon="-1.63745">
        <ele>22.71</ele>
        <time>2020-06-27T12:45:26Z</time>
      </trkpt>
      <trkpt lat="47.15097" lon="-1.63758">
        <ele>22.35</ele>
        <time>2020-06-27T12:45:28Z</time>
      </trkpt>
      <trkpt lat="47.15085" lon="-1.6377">
        <ele>23.07</ele>
        <time>2020-06-27T12:45:30Z</time>
      </trkpt>
      <trkpt lat="47.15076" lon="-1.63782">
        <ele>23.69</ele>
        <time>2020-06-27T12:45:32Z</time>
      </trkpt>
      <trkpt lat="47.15066" lon="-1.63794">
        <ele>24.44</ele>
        <time>2020-06-27T12:45:34Z</time>
      </trkpt>
      <trkpt lat="47.15056" lon="-1.63806">
        <ele>24.62</ele>
        <time>2020-06-27T12:45:36Z</time>
      </trkpt>
      <trkpt lat="47.15046" lon="-1.63818">
        <ele>25.74</ele>
        <time>2020-06-27T12:45:38Z</time>
      </trkpt>
      <trkpt lat="47.15035" lon="-1.63833">
        <ele>26.09</ele>
        <time>2020-06-27T12:45:40Z</time>
      </trkpt>
      <trkpt lat="47.15026" lon="-1.63846">
        <ele>25.62</ele>
        <time>2020-06-27T12:45:42Z</time>
      </trkpt>
      <trkpt lat="47.15017" lon="-1.63861">
        <ele>25.66</ele>
        <time>2020-06-27T12:45:44Z</time>
      </trkpt>
      <trkpt lat="47.1501" lon="-1.63872">
        <ele>24.43</ele>
        <time>2020-06-27T12:45:46Z</time>
      </trkpt>
      <trkpt lat="47.15001" lon="-1.63886">
        <ele>22.71</ele>
        <time>2020-06-27T12:45:48Z</time>
      </trkpt>
      <trkpt lat="47.14991" lon="-1.639">
        <ele>22.2</ele>
        <time>2020-06-27T12:45:50Z</time>
      </trkpt>
      <trkpt lat="47.14983" lon="-1.63913">
        <ele>21.6</ele>
        <time>2020-06-27T12:45:52Z</time>
      </trkpt>
      <trkpt lat="47.14974" lon="-1.63924">
        <ele>20.03</ele>
        <time>2020-06-27T12:45:54Z</time>
      </trkpt>
      <trkpt lat="47.14966" lon="-1.63939">
        <ele>18.72</ele>
        <time>2020-06-27T12:45:56Z</time>
      </trkpt>
      <trkpt lat="47.14955" lon="-1.63955">
        <ele>18.77</ele>
        <time>2020-06-27T12:45:58Z</time>
      </trkpt>
      <trkpt lat="47.14945" lon="-1.63969">
        <ele>19.84</ele>
        <time>2020-06-27T12:46:00Z</time>
      </trkpt>
      <trkpt lat="47.14937" lon="-1.63983">
        <ele>21.41</ele>
        <time>2020-06-27T12:46:02Z</time>
      </trkpt>
      <trkpt lat="47.14928" lon="-1.63998">
        <ele>22.33</ele>
        <time>2020-06-27T12:46:04Z</time>
      </trkpt>
      <trkpt lat="47.14919" lon="-1.64015">
        <ele>23.19</ele>
        <time>2020-06-27T12:46:06Z</time>
      </trkpt>
      <trkpt lat="47.14911" lon="-1.64029">
        <ele>24.49</ele>
        <time>2020-06-27T12:46:08Z</time>
      </trkpt>
      <trkpt lat="47.14904" lon="-1.64041">
        <ele>26.16</ele>
        <time>2020-06-27T12:46:10Z</time>
      </trkpt>
      <trkpt lat="47.14892" lon="-1.64046">
        <ele>26.66</ele>
        <time>2020-06-27T12:46:12Z</time>
      </trkpt>
      <trkpt lat="47.14881" lon="-1.64033">
        <ele>25.94</ele>
        <time>2020-06-27T12:46:14Z</time>
      </trkpt>
      <trkpt lat="47.14871" lon="-1.64016">
        <ele>26.24</ele>
        <time>2020-06-27T12:46:16Z</time>
      </trkpt>
      <trkpt lat="47.14862" lon="-1.64">
        <ele>26.29</ele>
        <time>2020-06-27T12:46:18Z</time>
      </trkpt>
      <trkpt lat="47.14852" lon="-1.63988">
        <ele>26.48</ele>
        <time>2020-06-27T12:46:20Z</time>
      </trkpt>
      <trkpt lat="47.14839" lon="-1.63982">
        <ele>27.04</ele>
        <time>2020-06-27T12:46:22Z</time>
      </trkpt>
      <trkpt lat="47.14825" lon="-1.63985">
        <ele>27.35</ele>
        <time>2020-06-27T12:46:24Z</time>
      </trkpt>
      <trkpt lat="47.14812" lon="-1.63995">
        <ele>25.96</ele>
        <time>2020-06-27T12:46:26Z</time>
      </trkpt>
      <trkpt lat="47.14801" lon="-1.64007">
        <ele>25.43</ele>
        <time>2020-06-27T12:46:28Z</time>
      </trkpt>
      <trkpt lat="47.14791" lon="-1.64019">
        <ele>25.27</ele>
        <time>2020-06-27T12:46:30Z</time>
      </trkpt>
      <trkpt lat="47.14779" lon="-1.6403">
        <ele>24.92</ele>
        <time>2020-06-27T12:46:32Z</time>
      </trkpt>
      <trkpt lat="47.14767" lon="-1.6404">
        <ele>24.01</ele>
        <time>2020-06-27T12:46:34Z</time>
      </trkpt>
      <trkpt lat="47.14754" lon="-1.64046">
        <ele>22.66</ele>
        <time>2020-06-27T12:46:36Z</time>
      </trkpt>
      <trkpt lat="47.1474" lon="-1.64054">
        <ele>22.32</ele>
        <time>2020-06-27T12:46:38Z</time>
      </trkpt>
      <trkpt lat="47.14726" lon="-1.6406">
        <ele>22.87</ele>
        <time>2020-06-27T12:46:40Z</time>
      </trkpt>
      <trkpt lat="47.14712" lon="-1.64066">
        <ele>23.48</ele>
        <time>2020-06-27T12:46:42Z</time>
      </trkpt>
      <trkpt lat="47.14701" lon="-1.64071">
        <ele>24.94</ele>
        <time>2020-06-27T12:46:44Z</time>
      </trkpt>
      <trkpt lat="47.14688" lon="-1.64077">
        <ele>25.47</ele>
        <time>2020-06-27T12:46:46Z</time>
      </trkpt>
      <trkpt lat="47.14677" lon="-1.64081">
        <ele>25.02</ele>
        <time>2020-06-27T12:46:48Z</time>
      </trkpt>
      <trkpt lat="47.14663" lon="-1.64089">
        <ele>24.32</ele>
        <time>2020-06-27T12:46:50Z</time>
      </trkpt>
      <trkpt lat="47.1465" lon="-1.64096">
        <ele>24.03</ele>
        <time>2020-06-27T12:46:52Z</time>
      </trkpt>
      <trkpt lat="47.14637" lon="-1.64103">
        <ele>23.5</ele>
        <time>2020-06-27T12:46:54Z</time>
      </trkpt>
      <trkpt lat="47.14621" lon="-1.6411">
        <ele>23.38</ele>
        <time>2020-06-27T12:46:56Z</time>
      </trkpt>
      <trkpt lat="47.14608" lon="-1.64117">
        <ele>22.78</ele>
        <time>2020-06-27T12:46:58Z</time>
      </trkpt>
      <trkpt lat="47.14595" lon="-1.64125">
        <ele>22.92</ele>
        <time>2020-06-27T12:47:00Z</time>
      </trkpt>
      <trkpt lat="47.1458" lon="-1.64134">
        <ele>22.48</ele>
        <time>2020-06-27T12:47:02Z</time>
      </trkpt>
      <trkpt lat="47.14567" lon="-1.64141">
        <ele>21.16</ele>
        <time>2020-06-27T12:47:04Z</time>
      </trkpt>
      <trkpt lat="47.14555" lon="-1.64148">
        <ele>20.21</ele>
        <time>2020-06-27T12:47:06Z</time>
      </trkpt>
      <trkpt lat="47.14541" lon="-1.64157">
        <ele>19.29</ele>
        <time>2020-06-27T12:47:08Z</time>
      </trkpt>
      <trkpt lat="47.14527" lon="-1.64166">
        <ele>18.01</ele>
        <time>2020-06-27T12:47:10Z</time>
      </trkpt>
      <trkpt lat="47.14512" lon="-1.64175">
        <ele>18.45</ele>
        <time>2020-06-27T12:47:12Z</time>
      </trkpt>
      <trkpt lat="47.14501" lon="-1.64183">
        <ele>19.89</ele>
        <time>2020-06-27T12:47:14Z</time>
      </trkpt>
      <trkpt lat="47.14486" lon="-1.64192">
        <ele>20.13</ele>
        <time>2020-06-27T12:47:16Z</time>
      </trkpt>
      <trkpt lat="47.14473" lon="-1.642">
        <ele>19.8</ele>
        <time>2020-06-27T12:47:18Z</time>
      </trkpt>
      <trkpt lat="47.14458" lon="-1.64208">
        <ele>19.21</ele>
        <time>2020-06-27T12:47:20Z</time>
      </trkpt>
      <trkpt lat="47.14443" lon="-1.64214">
        <ele>18.32</ele>
        <time>2020-06-27T12:47:22Z</time>
      </trkpt>
      <trkpt lat="47.14428" lon="-1.64218">
        <ele>16.56</ele>
        <time>2020-06-27T12:47:25Z</time>
      </trkpt>
      <trkpt lat="47.14413" lon="-1.6422">
        <ele>14.12</ele>
        <time>2020-06-27T12:47:27Z</time>
      </trkpt>
      <trkpt lat="47.14399" lon="-1.64222">
        <ele>11.91</ele>
        <time>2020-06-27T12:47:29Z</time>
      </trkpt>
      <trkpt lat="47.14384" lon="-1.64224">
        <ele>11.36</ele>
        <time>2020-06-27T12:47:31Z</time>
      </trkpt>
      <trkpt lat="47.1437" lon="-1.64228">
        <ele>11.72</ele>
        <time>2020-06-27T12:47:33Z</time>
      </trkpt>
      <trkpt lat="47.14355" lon="-1.64229">
        <ele>12.73</ele>
        <time>2020-06-27T12:47:35Z</time>
      </trkpt>
      <trkpt lat="47.14339" lon="-1.64231">
        <ele>13.37</ele>
        <time>2020-06-27T12:47:37Z</time>
      </trkpt>
      <trkpt lat="47.14325" lon="-1.64233">
        <ele>14.41</ele>
        <time>2020-06-27T12:47:39Z</time>
      </trkpt>
      <trkpt lat="47.14309" lon="-1.64236">
        <ele>15.7</ele>
        <time>2020-06-27T12:47:41Z</time>
      </trkpt>
      <trkpt lat="47.14294" lon="-1.64239">
        <ele>16.26</ele>
        <time>2020-06-27T12:47:43Z</time>
      </trkpt>
      <trkpt lat="47.14279" lon="-1.64245">
        <ele>17.04</ele>
        <time>2020-06-27T12:47:45Z</time>
      </trkpt>
      <trkpt lat="47.14266" lon="-1.64251">
        <ele>16.24</ele>
        <time>2020-06-27T12:47:47Z</time>
      </trkpt>
      <trkpt lat="47.14254" lon="-1.64259">
        <ele>13.86</ele>
        <time>2020-06-27T12:47:49Z</time>
      </trkpt>
      <trkpt lat="47.14242" lon="-1.64269">
        <ele>11.94</ele>
        <time>2020-06-27T12:47:51Z</time>
      </trkpt>
      <trkpt lat="47.1423" lon="-1.6428">
        <ele>11.65</ele>
        <time>2020-06-27T12:47:53Z</time>
      </trkpt>
      <trkpt lat="47.14218" lon="-1.64291">
        <ele>11.22</ele>
        <time>2020-06-27T12:47:55Z</time>
      </trkpt>
      <trkpt lat="47.14211" lon="-1.64298">
        <ele>11.15</ele>
        <time>2020-06-27T12:47:56Z</time>
      </trkpt>
      <trkpt lat="47.14198" lon="-1.64311">
        <ele>10.95</ele>
        <time>2020-06-27T12:47:58Z</time>
      </trkpt>
      <trkpt lat="47.14187" lon="-1.64324">
        <ele>11.92</ele>
        <time>2020-06-27T12:48:00Z</time>
      </trkpt>
      <trkpt lat="47.14177" lon="-1.64338">
        <ele>13.13</ele>
        <time>2020-06-27T12:48:02Z</time>
      </trkpt>
      <trkpt lat="47.14165" lon="-1.64354">
        <ele>13.58</ele>
        <time>2020-06-27T12:48:04Z</time>
      </trkpt>
      <trkpt lat="47.14153" lon="-1.64365">
        <ele>14.04</ele>
        <time>2020-06-27T12:48:06Z</time>
      </trkpt>
      <trkpt lat="47.1414" lon="-1.64377">
        <ele>14.43</ele>
        <time>2020-06-27T12:48:08Z</time>
      </trkpt>
      <trkpt lat="47.14129" lon="-1.64385">
        <ele>15.4</ele>
        <time>2020-06-27T12:48:10Z</time>
      </trkpt>
      <trkpt lat="47.14116" lon="-1.64395">
        <ele>15.7</ele>
        <time>2020-06-27T12:48:12Z</time>
      </trkpt>
      <trkpt lat="47.14103" lon="-1.64405">
        <ele>15.54</ele>
        <time>2020-06-27T12:48:14Z</time>
      </trkpt>
      <trkpt lat="47.14089" lon="-1.64416">
        <ele>15.87</ele>
        <time>2020-06-27T12:48:16Z</time>
      </trkpt>
      <trkpt lat="47.14078" lon="-1.64425">
        <ele>16.43</ele>
        <time>2020-06-27T12:48:18Z</time>
      </trkpt>
      <trkpt lat="47.14066" lon="-1.64435">
        <ele>17.94</ele>
        <time>2020-06-27T12:48:20Z</time>
      </trkpt>
      <trkpt lat="47.14052" lon="-1.64444">
        <ele>18.34</ele>
        <time>2020-06-27T12:48:22Z</time>
      </trkpt>
      <trkpt lat="47.14041" lon="-1.64453">
        <ele>17.82</ele>
        <time>2020-06-27T12:48:24Z</time>
      </trkpt>
      <trkpt lat="47.14029" lon="-1.64463">
        <ele>17.63</ele>
        <time>2020-06-27T12:48:26Z</time>
      </trkpt>
      <trkpt lat="47.14015" lon="-1.64475">
        <ele>17.02</ele>
        <time>2020-06-27T12:48:28Z</time>
      </trkpt>
      <trkpt lat="47.14001" lon="-1.64486">
        <ele>16.43</ele>
        <time>2020-06-27T12:48:30Z</time>
      </trkpt>
      <trkpt lat="47.13988" lon="-1.64495">
        <ele>15.38</ele>
        <time>2020-06-27T12:48:32Z</time>
      </trkpt>
      <trkpt lat="47.13974" lon="-1.64507">
        <ele>14.54</ele>
        <time>2020-06-27T12:48:34Z</time>
      </trkpt>
      <trkpt lat="47.13961" lon="-1.64519">
        <ele>14.92</ele>
        <time>2020-06-27T12:48:36Z</time>
      </trkpt>
      <trkpt lat="47.13951" lon="-1.6453">
        <ele>15.51</ele>
        <time>2020-06-27T12:48:38Z</time>
      </trkpt>
      <trkpt lat="47.13939" lon="-1.64543">
        <ele>16.35</ele>
        <time>2020-06-27T12:48:40Z</time>
      </trkpt>
      <trkpt lat="47.13928" lon="-1.64554">
        <ele>16.78</ele>
        <time>2020-06-27T12:48:42Z</time>
      </trkpt>
      <trkpt lat="47.13915" lon="-1.64564">
        <ele>17.09</ele>
        <time>2020-06-27T12:48:44Z</time>
      </trkpt>
      <trkpt lat="47.13903" lon="-1.64574">
        <ele>18.2</ele>
        <time>2020-06-27T12:48:46Z</time>
      </trkpt>
      <trkpt lat="47.1389" lon="-1.64582">
        <ele>18.41</ele>
        <time>2020-06-27T12:48:48Z</time>
      </trkpt>
      <trkpt lat="47.13878" lon="-1.64589">
        <ele>18.09</ele>
        <time>2020-06-27T12:48:50Z</time>
      </trkpt>
      <trkpt lat="47.13865" lon="-1.64596">
        <ele>16.95</ele>
        <time>2020-06-27T12:48:52Z</time>
      </trkpt>
      <trkpt lat="47.13853" lon="-1.646">
        <ele>16.37</ele>
        <time>2020-06-27T12:48:54Z</time>
      </trkpt>
      <trkpt lat="47.13839" lon="-1.64603">
        <ele>15.66</ele>
        <time>2020-06-27T12:48:56Z</time>
      </trkpt>
      <trkpt lat="47.13824" lon="-1.64605">
        <ele>14.44</ele>
        <time>2020-06-27T12:48:58Z</time>
      </trkpt>
      <trkpt lat="47.13812" lon="-1.64605">
        <ele>13.1</ele>
        <time>2020-06-27T12:49:00Z</time>
      </trkpt>
      <trkpt lat="47.138" lon="-1.64604">
        <ele>11.97</ele>
        <time>2020-06-27T12:49:02Z</time>
      </trkpt>
      <trkpt lat="47.13787" lon="-1.64603">
        <ele>10.51</ele>
        <time>2020-06-27T12:49:04Z</time>
      </trkpt>
      <trkpt lat="47.13775" lon="-1.64601">
        <ele>10.28</ele>
        <time>2020-06-27T12:49:06Z</time>
      </trkpt>
      <trkpt lat="47.13761" lon="-1.64597">
        <ele>11.36</ele>
        <time>2020-06-27T12:49:08Z</time>
      </trkpt>
      <trkpt lat="47.13749" lon="-1.64593">
        <ele>12.52</ele>
        <time>2020-06-27T12:49:10Z</time>
      </trkpt>
      <trkpt lat="47.13736" lon="-1.6459">
        <ele>12.62</ele>
        <time>2020-06-27T12:49:12Z</time>
      </trkpt>
      <trkpt lat="47.13723" lon="-1.64587">
        <ele>12.86</ele>
        <time>2020-06-27T12:49:14Z</time>
      </trkpt>
      <trkpt lat="47.13711" lon="-1.64583">
        <ele>13.57</ele>
        <time>2020-06-27T12:49:16Z</time>
      </trkpt>
      <trkpt lat="47.13698" lon="-1.6458">
        <ele>15.07</ele>
        <time>2020-06-27T12:49:18Z</time>
      </trkpt>
      <trkpt lat="47.13686" lon="-1.64576">
        <ele>15.89</ele>
        <time>2020-06-27T12:49:20Z</time>
      </trkpt>
      <trkpt lat="47.13675" lon="-1.64573">
        <ele>17.45</ele>
        <time>2020-06-27T12:49:22Z</time>
      </trkpt>
      <trkpt lat="47.13663" lon="-1.64569">
        <ele>18.13</ele>
        <time>2020-06-27T12:49:24Z</time>
      </trkpt>
      <trkpt lat="47.13651" lon="-1.64566">
        <ele>18.68</ele>
        <time>2020-06-27T12:49:26Z</time>
      </trkpt>
      <trkpt lat="47.13639" lon="-1.64563">
        <ele>19.41</ele>
        <time>2020-06-27T12:49:28Z</time>
      </trkpt>
      <trkpt lat="47.13627" lon="-1.64561">
        <ele>20.3</ele>
        <time>2020-06-27T12:49:30Z</time>
      </trkpt>
      <trkpt lat="47.13617" lon="-1.64559">
        <ele>19.95</ele>
        <time>2020-06-27T12:49:32Z</time>
      </trkpt>
      <trkpt lat="47.13604" lon="-1.64558">
        <ele>19.33</ele>
        <time>2020-06-27T12:49:34Z</time>
      </trkpt>
      <trkpt lat="47.1359" lon="-1.64556">
        <ele>19.12</ele>
        <time>2020-06-27T12:49:36Z</time>
      </trkpt>
      <trkpt lat="47.13578" lon="-1.6456">
        <ele>19.11</ele>
        <time>2020-06-27T12:49:38Z</time>
      </trkpt>
      <trkpt lat="47.13566" lon="-1.64567">
        <ele>19.76</ele>
        <time>2020-06-27T12:49:40Z</time>
      </trkpt>
      <trkpt lat="47.13554" lon="-1.64574">
        <ele>20.57</ele>
        <time>2020-06-27T12:49:42Z</time>
      </trkpt>
      <trkpt lat="47.13544" lon="-1.64584">
        <ele>21.43</ele>
        <time>2020-06-27T12:49:44Z</time>
      </trkpt>
      <trkpt lat="47.13534" lon="-1.64595">
        <ele>21.96</ele>
        <time>2020-06-27T12:49:46Z</time>
      </trkpt>
      <trkpt lat="47.13523" lon="-1.64606">
        <ele>22.36</ele>
        <time>2020-06-27T12:49:48Z</time>
      </trkpt>
      <trkpt lat="47.13514" lon="-1.64616">
        <ele>22.38</ele>
        <time>2020-06-27T12:49:50Z</time>
      </trkpt>
      <trkpt lat="47.13502" lon="-1.64627">
        <ele>21.85</ele>
        <time>2020-06-27T12:49:52Z</time>
      </trkpt>
      <trkpt lat="47.13491" lon="-1.64636">
        <ele>21.27</ele>
        <time>2020-06-27T12:49:54Z</time>
      </trkpt>
      <trkpt lat="47.1348" lon="-1.64641">
        <ele>20.82</ele>
        <time>2020-06-27T12:49:56Z</time>
      </trkpt>
      <trkpt lat="47.13468" lon="-1.64644">
        <ele>20.79</ele>
        <time>2020-06-27T12:49:58Z</time>
      </trkpt>
      <trkpt lat="47.13455" lon="-1.64646">
        <ele>20.65</ele>
        <time>2020-06-27T12:50:00Z</time>
      </trkpt>
      <trkpt lat="47.13443" lon="-1.64646">
        <ele>19.63</ele>
        <time>2020-06-27T12:50:02Z</time>
      </trkpt>
      <trkpt lat="47.13431" lon="-1.64646">
        <ele>18.98</ele>
        <time>2020-06-27T12:50:04Z</time>
      </trkpt>
      <trkpt lat="47.13422" lon="-1.64646">
        <ele>18.29</ele>
        <time>2020-06-27T12:50:06Z</time>
      </trkpt>
      <trkpt lat="47.13412" lon="-1.64646">
        <ele>17.69</ele>
        <time>2020-06-27T12:50:08Z</time>
      </trkpt>
      <trkpt lat="47.13402" lon="-1.64645">
        <ele>17.54</ele>
        <time>2020-06-27T12:50:11Z</time>
      </trkpt>
      <trkpt lat="47.13397" lon="-1.64633">
        <ele>18.11</ele>
        <time>2020-06-27T12:50:13Z</time>
      </trkpt>
      <trkpt lat="47.13393" lon="-1.64615">
        <ele>20</ele>
        <time>2020-06-27T12:50:15Z</time>
      </trkpt>
      <trkpt lat="47.1339" lon="-1.64596">
        <ele>21.52</ele>
        <time>2020-06-27T12:50:17Z</time>
      </trkpt>
      <trkpt lat="47.13386" lon="-1.64577">
        <ele>22.66</ele>
        <time>2020-06-27T12:50:19Z</time>
      </trkpt>
      <trkpt lat="47.13383" lon="-1.64558">
        <ele>23.7</ele>
        <time>2020-06-27T12:50:21Z</time>
      </trkpt>
      <trkpt lat="47.13379" lon="-1.64539">
        <ele>23.17</ele>
        <time>2020-06-27T12:50:23Z</time>
      </trkpt>
      <trkpt lat="47.13374" lon="-1.64522">
        <ele>21.82</ele>
        <time>2020-06-27T12:50:25Z</time>
      </trkpt>
      <trkpt lat="47.13368" lon="-1.64503">
        <ele>20.55</ele>
        <time>2020-06-27T12:50:27Z</time>
      </trkpt>
      <trkpt lat="47.13362" lon="-1.64487">
        <ele>19.55</ele>
        <time>2020-06-27T12:50:29Z</time>
      </trkpt>
      <trkpt lat="47.13354" lon="-1.6447">
        <ele>18.7</ele>
        <time>2020-06-27T12:50:31Z</time>
      </trkpt>
      <trkpt lat="47.13346" lon="-1.6445">
        <ele>19.24</ele>
        <time>2020-06-27T12:50:33Z</time>
      </trkpt>
      <trkpt lat="47.13337" lon="-1.6443">
        <ele>19.16</ele>
        <time>2020-06-27T12:50:35Z</time>
      </trkpt>
      <trkpt lat="47.13328" lon="-1.64412">
        <ele>19</ele>
        <time>2020-06-27T12:50:37Z</time>
      </trkpt>
      <trkpt lat="47.13319" lon="-1.64393">
        <ele>19.19</ele>
        <time>2020-06-27T12:50:39Z</time>
      </trkpt>
      <trkpt lat="47.1331" lon="-1.64375">
        <ele>19.47</ele>
        <time>2020-06-27T12:50:41Z</time>
      </trkpt>
      <trkpt lat="47.13301" lon="-1.64355">
        <ele>19.54</ele>
        <time>2020-06-27T12:50:43Z</time>
      </trkpt>
      <trkpt lat="47.13291" lon="-1.64335">
        <ele>18.88</ele>
        <time>2020-06-27T12:50:45Z</time>
      </trkpt>
      <trkpt lat="47.13282" lon="-1.64315">
        <ele>18.23</ele>
        <time>2020-06-27T12:50:47Z</time>
      </trkpt>
      <trkpt lat="47.13272" lon="-1.64295">
        <ele>17.74</ele>
        <time>2020-06-27T12:50:49Z</time>
      </trkpt>
      <trkpt lat="47.13262" lon="-1.64275">
        <ele>17.09</ele>
        <time>2020-06-27T12:50:51Z</time>
      </trkpt>
      <trkpt lat="47.13254" lon="-1.64257">
        <ele>16.67</ele>
        <time>2020-06-27T12:50:53Z</time>
      </trkpt>
      <trkpt lat="47.13245" lon="-1.64238">
        <ele>15.32</ele>
        <time>2020-06-27T12:50:55Z</time>
      </trkpt>
      <trkpt lat="47.13235" lon="-1.64217">
        <ele>12.86</ele>
        <time>2020-06-27T12:50:57Z</time>
      </trkpt>
      <trkpt lat="47.1323" lon="-1.64206">
        <ele>11.88</ele>
        <time>2020-06-27T12:50:58Z</time>
      </trkpt>
      <trkpt lat="47.13225" lon="-1.64196">
        <ele>11.27</ele>
        <time>2020-06-27T12:50:59Z</time>
      </trkpt>
      <trkpt lat="47.13215" lon="-1.64178">
        <ele>10.38</ele>
        <time>2020-06-27T12:51:01Z</time>
      </trkpt>
      <trkpt lat="47.1321" lon="-1.64167">
        <ele>10.18</ele>
        <time>2020-06-27T12:51:02Z</time>
      </trkpt>
      <trkpt lat="47.132" lon="-1.64147">
        <ele>9.98</ele>
        <time>2020-06-27T12:51:04Z</time>
      </trkpt>
      <trkpt lat="47.13192" lon="-1.64128">
        <ele>9.86</ele>
        <time>2020-06-27T12:51:06Z</time>
      </trkpt>
      <trkpt lat="47.13184" lon="-1.6411">
        <ele>9.92</ele>
        <time>2020-06-27T12:51:08Z</time>
      </trkpt>
      <trkpt lat="47.13175" lon="-1.64089">
        <ele>8.99</ele>
        <time>2020-06-27T12:51:10Z</time>
      </trkpt>
      <trkpt lat="47.13167" lon="-1.6407">
        <ele>9.48</ele>
        <time>2020-06-27T12:51:12Z</time>
      </trkpt>
      <trkpt lat="47.13159" lon="-1.64051">
        <ele>10.56</ele>
        <time>2020-06-27T12:51:14Z</time>
      </trkpt>
      <trkpt lat="47.1315" lon="-1.64031">
        <ele>11.08</ele>
        <time>2020-06-27T12:51:16Z</time>
      </trkpt>
      <trkpt lat="47.13142" lon="-1.6401">
        <ele>11.46</ele>
        <time>2020-06-27T12:51:18Z</time>
      </trkpt>
      <trkpt lat="47.13134" lon="-1.63989">
        <ele>11.84</ele>
        <time>2020-06-27T12:51:20Z</time>
      </trkpt>
      <trkpt lat="47.13126" lon="-1.63969">
        <ele>11.4</ele>
        <time>2020-06-27T12:51:22Z</time>
      </trkpt>
      <trkpt lat="47.13118" lon="-1.63947">
        <ele>11.13</ele>
        <time>2020-06-27T12:51:24Z</time>
      </trkpt>
      <trkpt lat="47.13111" lon="-1.63927">
        <ele>11.49</ele>
        <time>2020-06-27T12:51:26Z</time>
      </trkpt>
      <trkpt lat="47.13103" lon="-1.63906">
        <ele>11.07</ele>
        <time>2020-06-27T12:51:28Z</time>
      </trkpt>
      <trkpt lat="47.13097" lon="-1.63886">
        <ele>10.14</ele>
        <time>2020-06-27T12:51:30Z</time>
      </trkpt>
      <trkpt lat="47.13089" lon="-1.63865">
        <ele>9.72</ele>
        <time>2020-06-27T12:51:32Z</time>
      </trkpt>
      <trkpt lat="47.1308" lon="-1.63845">
        <ele>10.57</ele>
        <time>2020-06-27T12:51:34Z</time>
      </trkpt>
      <trkpt lat="47.13073" lon="-1.63825">
        <ele>11.1</ele>
        <time>2020-06-27T12:51:36Z</time>
      </trkpt>
      <trkpt lat="47.13065" lon="-1.63808">
        <ele>11.51</ele>
        <time>2020-06-27T12:51:38Z</time>
      </trkpt>
      <trkpt lat="47.13056" lon="-1.63789">
        <ele>10.84</ele>
        <time>2020-06-27T12:51:40Z</time>
      </trkpt>
      <trkpt lat="47.13048" lon="-1.63771">
        <ele>9.79</ele>
        <time>2020-06-27T12:51:42Z</time>
      </trkpt>
      <trkpt lat="47.13039" lon="-1.63751">
        <ele>8.63</ele>
        <time>2020-06-27T12:51:44Z</time>
      </trkpt>
      <trkpt lat="47.1303" lon="-1.63733">
        <ele>8.01</ele>
        <time>2020-06-27T12:51:46Z</time>
      </trkpt>
      <trkpt lat="47.1302" lon="-1.63715">
        <ele>7.4</ele>
        <time>2020-06-27T12:51:48Z</time>
      </trkpt>
      <trkpt lat="47.13012" lon="-1.63697">
        <ele>7.57</ele>
        <time>2020-06-27T12:51:50Z</time>
      </trkpt>
      <trkpt lat="47.13002" lon="-1.63677">
        <ele>7.99</ele>
        <time>2020-06-27T12:51:52Z</time>
      </trkpt>
      <trkpt lat="47.12992" lon="-1.63658">
        <ele>7.3</ele>
        <time>2020-06-27T12:51:54Z</time>
      </trkpt>
      <trkpt lat="47.12984" lon="-1.63638">
        <ele>6.92</ele>
        <time>2020-06-27T12:51:56Z</time>
      </trkpt>
      <trkpt lat="47.12977" lon="-1.63616">
        <ele>7.07</ele>
        <time>2020-06-27T12:51:58Z</time>
      </trkpt>
      <trkpt lat="47.1297" lon="-1.63594">
        <ele>7.2</ele>
        <time>2020-06-27T12:52:00Z</time>
      </trkpt>
      <trkpt lat="47.12963" lon="-1.63574">
        <ele>7.59</ele>
        <time>2020-06-27T12:52:02Z</time>
      </trkpt>
      <trkpt lat="47.12956" lon="-1.63553">
        <ele>7.75</ele>
        <time>2020-06-27T12:52:04Z</time>
      </trkpt>
      <trkpt lat="47.12948" lon="-1.63532">
        <ele>7</ele>
        <time>2020-06-27T12:52:06Z</time>
      </trkpt>
      <trkpt lat="47.1294" lon="-1.63512">
        <ele>7.39</ele>
        <time>2020-06-27T12:52:08Z</time>
      </trkpt>
      <trkpt lat="47.12931" lon="-1.63491">
        <ele>8.92</ele>
        <time>2020-06-27T12:52:10Z</time>
      </trkpt>
      <trkpt lat="47.12924" lon="-1.6347">
        <ele>10.28</ele>
        <time>2020-06-27T12:52:12Z</time>
      </trkpt>
      <trkpt lat="47.12916" lon="-1.63449">
        <ele>11.39</ele>
        <time>2020-06-27T12:52:14Z</time>
      </trkpt>
      <trkpt lat="47.12908" lon="-1.63428">
        <ele>11.28</ele>
        <time>2020-06-27T12:52:16Z</time>
      </trkpt>
      <trkpt lat="47.129" lon="-1.63409">
        <ele>11.33</ele>
        <time>2020-06-27T12:52:18Z</time>
      </trkpt>
      <trkpt lat="47.12893" lon="-1.63389">
        <ele>11.36</ele>
        <time>2020-06-27T12:52:20Z</time>
      </trkpt>
      <trkpt lat="47.12886" lon="-1.63371">
        <ele>10.82</ele>
        <time>2020-06-27T12:52:22Z</time>
      </trkpt>
      <trkpt lat="47.12878" lon="-1.6335">
        <ele>10.91</ele>
        <time>2020-06-27T12:52:24Z</time>
      </trkpt>
      <trkpt lat="47.12871" lon="-1.6333">
        <ele>10.28</ele>
        <time>2020-06-27T12:52:26Z</time>
      </trkpt>
      <trkpt lat="47.12864" lon="-1.63312">
        <ele>9.15</ele>
        <time>2020-06-27T12:52:28Z</time>
      </trkpt>
      <trkpt lat="47.12857" lon="-1.63294">
        <ele>8.8</ele>
        <time>2020-06-27T12:52:30Z</time>
      </trkpt>
      <trkpt lat="47.12849" lon="-1.63273">
        <ele>8.27</ele>
        <time>2020-06-27T12:52:32Z</time>
      </trkpt>
      <trkpt lat="47.1284" lon="-1.63253">
        <ele>7.46</ele>
        <time>2020-06-27T12:52:34Z</time>
      </trkpt>
      <trkpt lat="47.12832" lon="-1.63233">
        <ele>7.34</ele>
        <time>2020-06-27T12:52:36Z</time>
      </trkpt>
      <trkpt lat="47.12824" lon="-1.63214">
        <ele>7.89</ele>
        <time>2020-06-27T12:52:38Z</time>
      </trkpt>
      <trkpt lat="47.12816" lon="-1.63195">
        <ele>8.12</ele>
        <time>2020-06-27T12:52:40Z</time>
      </trkpt>
      <trkpt lat="47.12808" lon="-1.63173">
        <ele>7.93</ele>
        <time>2020-06-27T12:52:42Z</time>
      </trkpt>
      <trkpt lat="47.128" lon="-1.63152">
        <ele>8.44</ele>
        <time>2020-06-27T12:52:44Z</time>
      </trkpt>
      <trkpt lat="47.12793" lon="-1.63134">
        <ele>9.79</ele>
        <time>2020-06-27T12:52:46Z</time>
      </trkpt>
      <trkpt lat="47.12785" lon="-1.63114">
        <ele>10.81</ele>
        <time>2020-06-27T12:52:48Z</time>
      </trkpt>
      <trkpt lat="47.12778" lon="-1.63094">
        <ele>11.56</ele>
        <time>2020-06-27T12:52:50Z</time>
      </trkpt>
      <trkpt lat="47.12771" lon="-1.63075">
        <ele>11.85</ele>
        <time>2020-06-27T12:52:52Z</time>
      </trkpt>
      <trkpt lat="47.12765" lon="-1.63059">
        <ele>11.08</ele>
        <time>2020-06-27T12:52:54Z</time>
      </trkpt>
      <trkpt lat="47.12757" lon="-1.63037">
        <ele>10.06</ele>
        <time>2020-06-27T12:52:56Z</time>
      </trkpt>
      <trkpt lat="47.1275" lon="-1.63021">
        <ele>8.97</ele>
        <time>2020-06-27T12:52:58Z</time>
      </trkpt>
      <trkpt lat="47.12743" lon="-1.63005">
        <ele>8.44</ele>
        <time>2020-06-27T12:53:00Z</time>
      </trkpt>
      <trkpt lat="47.12735" lon="-1.62986">
        <ele>7.41</ele>
        <time>2020-06-27T12:53:02Z</time>
      </trkpt>
      <trkpt lat="47.12727" lon="-1.62965">
        <ele>6.95</ele>
        <time>2020-06-27T12:53:04Z</time>
      </trkpt>
      <trkpt lat="47.12719" lon="-1.62944">
        <ele>7.33</ele>
        <time>2020-06-27T12:53:06Z</time>
      </trkpt>
      <trkpt lat="47.12712" lon="-1.62925">
        <ele>8.01</ele>
        <time>2020-06-27T12:53:08Z</time>
      </trkpt>
      <trkpt lat="47.12705" lon="-1.62907">
        <ele>8.49</ele>
        <time>2020-06-27T12:53:10Z</time>
      </trkpt>
      <trkpt lat="47.12698" lon="-1.62889">
        <ele>8.51</ele>
        <time>2020-06-27T12:53:12Z</time>
      </trkpt>
      <trkpt lat="47.12692" lon="-1.6287">
        <ele>10.21</ele>
        <time>2020-06-27T12:53:14Z</time>
      </trkpt>
      <trkpt lat="47.12685" lon="-1.62853">
        <ele>11.93</ele>
        <time>2020-06-27T12:53:16Z</time>
      </trkpt>
      <trkpt lat="47.12676" lon="-1.62835">
        <ele>12.77</ele>
        <time>2020-06-27T12:53:18Z</time>
      </trkpt>
      <trkpt lat="47.12667" lon="-1.62818">
        <ele>12.88</ele>
        <time>2020-06-27T12:53:20Z</time>
      </trkpt>
      <trkpt lat="47.1266" lon="-1.62799">
        <ele>13.82</ele>
        <time>2020-06-27T12:53:22Z</time>
      </trkpt>
      <trkpt lat="47.12655" lon="-1.62778">
        <ele>14.26</ele>
        <time>2020-06-27T12:53:24Z</time>
      </trkpt>
      <trkpt lat="47.12646" lon="-1.62757">
        <ele>14.14</ele>
        <time>2020-06-27T12:53:26Z</time>
      </trkpt>
      <trkpt lat="47.12638" lon="-1.62741">
        <ele>14.21</ele>
        <time>2020-06-27T12:53:28Z</time>
      </trkpt>
      <trkpt lat="47.12629" lon="-1.62723">
        <ele>14.32</ele>
        <time>2020-06-27T12:53:30Z</time>
      </trkpt>
      <trkpt lat="47.1262" lon="-1.62707">
        <ele>14.45</ele>
        <time>2020-06-27T12:53:32Z</time>
      </trkpt>
      <trkpt lat="47.12612" lon="-1.6269">
        <ele>13.67</ele>
        <time>2020-06-27T12:53:34Z</time>
      </trkpt>
      <trkpt lat="47.12603" lon="-1.62673">
        <ele>12.35</ele>
        <time>2020-06-27T12:53:36Z</time>
      </trkpt>
      <trkpt lat="47.12594" lon="-1.62656">
        <ele>11.16</ele>
        <time>2020-06-27T12:53:38Z</time>
      </trkpt>
      <trkpt lat="47.12585" lon="-1.62638">
        <ele>10.03</ele>
        <time>2020-06-27T12:53:40Z</time>
      </trkpt>
      <trkpt lat="47.12577" lon="-1.62621">
        <ele>9.52</ele>
        <time>2020-06-27T12:53:42Z</time>
      </trkpt>
      <trkpt lat="47.12571" lon="-1.62602">
        <ele>9.09</ele>
        <time>2020-06-27T12:53:44Z</time>
      </trkpt>
      <trkpt lat="47.12566" lon="-1.6258">
        <ele>9.11</ele>
        <time>2020-06-27T12:53:46Z</time>
      </trkpt>
      <trkpt lat="47.12562" lon="-1.62559">
        <ele>9.53</ele>
        <time>2020-06-27T12:53:48Z</time>
      </trkpt>
      <trkpt lat="47.12557" lon="-1.62536">
        <ele>9.32</ele>
        <time>2020-06-27T12:53:50Z</time>
      </trkpt>
      <trkpt lat="47.12553" lon="-1.62514">
        <ele>7.96</ele>
        <time>2020-06-27T12:53:52Z</time>
      </trkpt>
      <trkpt lat="47.12549" lon="-1.6249">
        <ele>6.06</ele>
        <time>2020-06-27T12:53:54Z</time>
      </trkpt>
      <trkpt lat="47.12544" lon="-1.62467">
        <ele>5.47</ele>
        <time>2020-06-27T12:53:56Z</time>
      </trkpt>
      <trkpt lat="47.1254" lon="-1.62447">
        <ele>6.23</ele>
        <time>2020-06-27T12:53:58Z</time>
      </trkpt>
      <trkpt lat="47.12535" lon="-1.62426">
        <ele>6.66</ele>
        <time>2020-06-27T12:54:00Z</time>
      </trkpt>
      <trkpt lat="47.12529" lon="-1.62404">
        <ele>7.16</ele>
        <time>2020-06-27T12:54:02Z</time>
      </trkpt>
      <trkpt lat="47.12521" lon="-1.62382">
        <ele>7.14</ele>
        <time>2020-06-27T12:54:04Z</time>
      </trkpt>
      <trkpt lat="47.12514" lon="-1.62362">
        <ele>6.75</ele>
        <time>2020-06-27T12:54:06Z</time>
      </trkpt>
      <trkpt lat="47.12506" lon="-1.62344">
        <ele>6.41</ele>
        <time>2020-06-27T12:54:08Z</time>
      </trkpt>
      <trkpt lat="47.12497" lon="-1.62327">
        <ele>5.76</ele>
        <time>2020-06-27T12:54:10Z</time>
      </trkpt>
      <trkpt lat="47.12488" lon="-1.62312">
        <ele>4.58</ele>
        <time>2020-06-27T12:54:12Z</time>
      </trkpt>
      <trkpt lat="47.12476" lon="-1.62295">
        <ele>3.92</ele>
        <time>2020-06-27T12:54:14Z</time>
      </trkpt>
      <trkpt lat="47.12466" lon="-1.62279">
        <ele>3.68</ele>
        <time>2020-06-27T12:54:16Z</time>
      </trkpt>
      <trkpt lat="47.12455" lon="-1.62264">
        <ele>3.63</ele>
        <time>2020-06-27T12:54:18Z</time>
      </trkpt>
      <trkpt lat="47.12444" lon="-1.62248">
        <ele>4.4</ele>
        <time>2020-06-27T12:54:20Z</time>
      </trkpt>
      <trkpt lat="47.12435" lon="-1.62234">
        <ele>5.21</ele>
        <time>2020-06-27T12:54:22Z</time>
      </trkpt>
      <trkpt lat="47.12425" lon="-1.6222">
        <ele>6.01</ele>
        <time>2020-06-27T12:54:24Z</time>
      </trkpt>
      <trkpt lat="47.12414" lon="-1.62202">
        <ele>6.94</ele>
        <time>2020-06-27T12:54:26Z</time>
      </trkpt>
      <trkpt lat="47.12404" lon="-1.62184">
        <ele>7.39</ele>
        <time>2020-06-27T12:54:28Z</time>
      </trkpt>
      <trkpt lat="47.12396" lon="-1.62166">
        <ele>8.37</ele>
        <time>2020-06-27T12:54:30Z</time>
      </trkpt>
      <trkpt lat="47.1239" lon="-1.62149">
        <ele>10.16</ele>
        <time>2020-06-27T12:54:32Z</time>
      </trkpt>
      <trkpt lat="47.12385" lon="-1.62128">
        <ele>11.51</ele>
        <time>2020-06-27T12:54:34Z</time>
      </trkpt>
      <trkpt lat="47.12381" lon="-1.62105">
        <ele>12.35</ele>
        <time>2020-06-27T12:54:36Z</time>
      </trkpt>
      <trkpt lat="47.12378" lon="-1.62083">
        <ele>12.5</ele>
        <time>2020-06-27T12:54:38Z</time>
      </trkpt>
      <trkpt lat="47.12379" lon="-1.62063">
        <ele>12.05</ele>
        <time>2020-06-27T12:54:40Z</time>
      </trkpt>
      <trkpt lat="47.1238" lon="-1.6204">
        <ele>11.05</ele>
        <time>2020-06-27T12:54:42Z</time>
      </trkpt>
      <trkpt lat="47.12382" lon="-1.62021">
        <ele>9.4</ele>
        <time>2020-06-27T12:54:44Z</time>
      </trkpt>
      <trkpt lat="47.12386" lon="-1.61999">
        <ele>8.61</ele>
        <time>2020-06-27T12:54:46Z</time>
      </trkpt>
      <trkpt lat="47.12392" lon="-1.61978">
        <ele>7.62</ele>
        <time>2020-06-27T12:54:48Z</time>
      </trkpt>
      <trkpt lat="47.12398" lon="-1.61957">
        <ele>6.52</ele>
        <time>2020-06-27T12:54:50Z</time>
      </trkpt>
      <trkpt lat="47.12404" lon="-1.61937">
        <ele>5.48</ele>
        <time>2020-06-27T12:54:52Z</time>
      </trkpt>
      <trkpt lat="47.1241" lon="-1.61918">
        <ele>5.93</ele>
        <time>2020-06-27T12:54:54Z</time>
      </trkpt>
      <trkpt lat="47.12416" lon="-1.61896">
        <ele>6.86</ele>
        <time>2020-06-27T12:54:56Z</time>
      </trkpt>
      <trkpt lat="47.12422" lon="-1.61877">
        <ele>8.75</ele>
        <time>2020-06-27T12:54:58Z</time>
      </trkpt>
      <trkpt lat="47.12428" lon="-1.6186">
        <ele>10.25</ele>
        <time>2020-06-27T12:55:00Z</time>
      </trkpt>
      <trkpt lat="47.12433" lon="-1.6184">
        <ele>10.66</ele>
        <time>2020-06-27T12:55:02Z</time>
      </trkpt>
      <trkpt lat="47.12437" lon="-1.61821">
        <ele>10.62</ele>
        <time>2020-06-27T12:55:04Z</time>
      </trkpt>
      <trkpt lat="47.12442" lon="-1.618">
        <ele>9.3</ele>
        <time>2020-06-27T12:55:06Z</time>
      </trkpt>
      <trkpt lat="47.12448" lon="-1.61779">
        <ele>7.82</ele>
        <time>2020-06-27T12:55:08Z</time>
      </trkpt>
      <trkpt lat="47.12453" lon="-1.61759">
        <ele>7.74</ele>
        <time>2020-06-27T12:55:10Z</time>
      </trkpt>
      <trkpt lat="47.12459" lon="-1.61737">
        <ele>7.58</ele>
        <time>2020-06-27T12:55:12Z</time>
      </trkpt>
      <trkpt lat="47.12464" lon="-1.61717">
        <ele>7.54</ele>
        <time>2020-06-27T12:55:14Z</time>
      </trkpt>
      <trkpt lat="47.12468" lon="-1.61699">
        <ele>7.43</ele>
        <time>2020-06-27T12:55:16Z</time>
      </trkpt>
      <trkpt lat="47.12472" lon="-1.61678">
        <ele>6.87</ele>
        <time>2020-06-27T12:55:18Z</time>
      </trkpt>
      <trkpt lat="47.12476" lon="-1.61658">
        <ele>5.94</ele>
        <time>2020-06-27T12:55:20Z</time>
      </trkpt>
      <trkpt lat="47.1248" lon="-1.61636">
        <ele>4.92</ele>
        <time>2020-06-27T12:55:22Z</time>
      </trkpt>
      <trkpt lat="47.12479" lon="-1.61611">
        <ele>4.84</ele>
        <time>2020-06-27T12:55:24Z</time>
      </trkpt>
      <trkpt lat="47.12477" lon="-1.61588">
        <ele>5.78</ele>
        <time>2020-06-27T12:55:26Z</time>
      </trkpt>
      <trkpt lat="47.12475" lon="-1.61568">
        <ele>7.63</ele>
        <time>2020-06-27T12:55:28Z</time>
      </trkpt>
      <trkpt lat="47.12472" lon="-1.61546">
        <ele>8.87</ele>
        <time>2020-06-27T12:55:30Z</time>
      </trkpt>
      <trkpt lat="47.12469" lon="-1.61524">
        <ele>9.5</ele>
        <time>2020-06-27T12:55:32Z</time>
      </trkpt>
      <trkpt lat="47.12466" lon="-1.61501">
        <ele>9.82</ele>
        <time>2020-06-27T12:55:34Z</time>
      </trkpt>
      <trkpt lat="47.12463" lon="-1.61481">
        <ele>9.72</ele>
        <time>2020-06-27T12:55:36Z</time>
      </trkpt>
      <trkpt lat="47.12461" lon="-1.61461">
        <ele>9.54</ele>
        <time>2020-06-27T12:55:38Z</time>
      </trkpt>
      <trkpt lat="47.12459" lon="-1.61439">
        <ele>9.4</ele>
        <time>2020-06-27T12:55:40Z</time>
      </trkpt>
      <trkpt lat="47.12456" lon="-1.61418">
        <ele>8.39</ele>
        <time>2020-06-27T12:55:42Z</time>
      </trkpt>
      <trkpt lat="47.12454" lon="-1.61395">
        <ele>7.54</ele>
        <time>2020-06-27T12:55:44Z</time>
      </trkpt>
      <trkpt lat="47.12452" lon="-1.61374">
        <ele>7.59</ele>
        <time>2020-06-27T12:55:46Z</time>
      </trkpt>
      <trkpt lat="47.12454" lon="-1.61355">
        <ele>7.99</ele>
        <time>2020-06-27T12:55:48Z</time>
      </trkpt>
      <trkpt lat="47.12458" lon="-1.61336">
        <ele>7.85</ele>
        <time>2020-06-27T12:55:50Z</time>
      </trkpt>
      <trkpt lat="47.12463" lon="-1.61316">
        <ele>8.39</ele>
        <time>2020-06-27T12:55:52Z</time>
      </trkpt>
      <trkpt lat="47.12469" lon="-1.61297">
        <ele>9</ele>
        <time>2020-06-27T12:55:54Z</time>
      </trkpt>
      <trkpt lat="47.12477" lon="-1.61274">
        <ele>9.94</ele>
        <time>2020-06-27T12:55:56Z</time>
      </trkpt>
      <trkpt lat="47.12484" lon="-1.61254">
        <ele>10.88</ele>
        <time>2020-06-27T12:55:58Z</time>
      </trkpt>
      <trkpt lat="47.12489" lon="-1.61237">
        <ele>11.29</ele>
        <time>2020-06-27T12:56:00Z</time>
      </trkpt>
      <trkpt lat="47.12494" lon="-1.61217">
        <ele>10.99</ele>
        <time>2020-06-27T12:56:02Z</time>
      </trkpt>
      <trkpt lat="47.12499" lon="-1.61197">
        <ele>10.75</ele>
        <time>2020-06-27T12:56:04Z</time>
      </trkpt>
      <trkpt lat="47.12502" lon="-1.61175">
        <ele>10.67</ele>
        <time>2020-06-27T12:56:06Z</time>
      </trkpt>
      <trkpt lat="47.12503" lon="-1.61153">
        <ele>10.68</ele>
        <time>2020-06-27T12:56:08Z</time>
      </trkpt>
      <trkpt lat="47.12506" lon="-1.61128">
        <ele>10.5</ele>
        <time>2020-06-27T12:56:10Z</time>
      </trkpt>
      <trkpt lat="47.12507" lon="-1.61109">
        <ele>10.32</ele>
        <time>2020-06-27T12:56:12Z</time>
      </trkpt>
      <trkpt lat="47.12509" lon="-1.61087">
        <ele>10.91</ele>
        <time>2020-06-27T12:56:14Z</time>
      </trkpt>
      <trkpt lat="47.12512" lon="-1.61065">
        <ele>11.62</ele>
        <time>2020-06-27T12:56:16Z</time>
      </trkpt>
      <trkpt lat="47.12514" lon="-1.61045">
        <ele>11.45</ele>
        <time>2020-06-27T12:56:18Z</time>
      </trkpt>
      <trkpt lat="47.12516" lon="-1.6102">
        <ele>10.65</ele>
        <time>2020-06-27T12:56:20Z</time>
      </trkpt>
      <trkpt lat="47.12518" lon="-1.60996">
        <ele>9.98</ele>
        <time>2020-06-27T12:56:22Z</time>
      </trkpt>
      <trkpt lat="47.1252" lon="-1.60973">
        <ele>10.47</ele>
        <time>2020-06-27T12:56:24Z</time>
      </trkpt>
      <trkpt lat="47.12522" lon="-1.60951">
        <ele>10.79</ele>
        <time>2020-06-27T12:56:26Z</time>
      </trkpt>
      <trkpt lat="47.12524" lon="-1.6093">
        <ele>10.59</ele>
        <time>2020-06-27T12:56:28Z</time>
      </trkpt>
      <trkpt lat="47.12526" lon="-1.60907">
        <ele>10.1</ele>
        <time>2020-06-27T12:56:30Z</time>
      </trkpt>
      <trkpt lat="47.12528" lon="-1.60886">
        <ele>9.61</ele>
        <time>2020-06-27T12:56:32Z</time>
      </trkpt>
      <trkpt lat="47.1253" lon="-1.60862">
        <ele>9.91</ele>
        <time>2020-06-27T12:56:34Z</time>
      </trkpt>
      <trkpt lat="47.12531" lon="-1.6084">
        <ele>9.76</ele>
        <time>2020-06-27T12:56:36Z</time>
      </trkpt>
      <trkpt lat="47.12533" lon="-1.60819">
        <ele>9.75</ele>
        <time>2020-06-27T12:56:38Z</time>
      </trkpt>
      <trkpt lat="47.12536" lon="-1.60795">
        <ele>9.04</ele>
        <time>2020-06-27T12:56:40Z</time>
      </trkpt>
      <trkpt lat="47.12538" lon="-1.60771">
        <ele>7.89</ele>
        <time>2020-06-27T12:56:42Z</time>
      </trkpt>
      <trkpt lat="47.1254" lon="-1.6075">
        <ele>6.62</ele>
        <time>2020-06-27T12:56:44Z</time>
      </trkpt>
      <trkpt lat="47.12541" lon="-1.60726">
        <ele>6.34</ele>
        <time>2020-06-27T12:56:46Z</time>
      </trkpt>
      <trkpt lat="47.12542" lon="-1.60701">
        <ele>6.88</ele>
        <time>2020-06-27T12:56:48Z</time>
      </trkpt>
      <trkpt lat="47.12543" lon="-1.6068">
        <ele>7.59</ele>
        <time>2020-06-27T12:56:50Z</time>
      </trkpt>
      <trkpt lat="47.12542" lon="-1.60656">
        <ele>7.95</ele>
        <time>2020-06-27T12:56:52Z</time>
      </trkpt>
      <trkpt lat="47.12542" lon="-1.60633">
        <ele>9.49</ele>
        <time>2020-06-27T12:56:54Z</time>
      </trkpt>
      <trkpt lat="47.12541" lon="-1.60611">
        <ele>10.27</ele>
        <time>2020-06-27T12:56:56Z</time>
      </trkpt>
      <trkpt lat="47.12541" lon="-1.60589">
        <ele>9.9</ele>
        <time>2020-06-27T12:56:58Z</time>
      </trkpt>
      <trkpt lat="47.1254" lon="-1.60566">
        <ele>9.58</ele>
        <time>2020-06-27T12:57:00Z</time>
      </trkpt>
      <trkpt lat="47.12539" lon="-1.60547">
        <ele>10.28</ele>
        <time>2020-06-27T12:57:02Z</time>
      </trkpt>
      <trkpt lat="47.12538" lon="-1.60524">
        <ele>10.22</ele>
        <time>2020-06-27T12:57:04Z</time>
      </trkpt>
      <trkpt lat="47.12536" lon="-1.605">
        <ele>10.24</ele>
        <time>2020-06-27T12:57:06Z</time>
      </trkpt>
      <trkpt lat="47.12534" lon="-1.60477">
        <ele>10.6</ele>
        <time>2020-06-27T12:57:08Z</time>
      </trkpt>
      <trkpt lat="47.1253" lon="-1.60454">
        <ele>11.17</ele>
        <time>2020-06-27T12:57:10Z</time>
      </trkpt>
      <trkpt lat="47.12527" lon="-1.60432">
        <ele>11.73</ele>
        <time>2020-06-27T12:57:12Z</time>
      </trkpt>
      <trkpt lat="47.12522" lon="-1.60409">
        <ele>11.92</ele>
        <time>2020-06-27T12:57:14Z</time>
      </trkpt>
      <trkpt lat="47.12517" lon="-1.60386">
        <ele>11.92</ele>
        <time>2020-06-27T12:57:16Z</time>
      </trkpt>
      <trkpt lat="47.12512" lon="-1.60363">
        <ele>11.77</ele>
        <time>2020-06-27T12:57:18Z</time>
      </trkpt>
      <trkpt lat="47.12508" lon="-1.60342">
        <ele>10.4</ele>
        <time>2020-06-27T12:57:20Z</time>
      </trkpt>
      <trkpt lat="47.12503" lon="-1.6032">
        <ele>8.8</ele>
        <time>2020-06-27T12:57:22Z</time>
      </trkpt>
      <trkpt lat="47.12499" lon="-1.603">
        <ele>7.22</ele>
        <time>2020-06-27T12:57:24Z</time>
      </trkpt>
      <trkpt lat="47.12494" lon="-1.60276">
        <ele>6.61</ele>
        <time>2020-06-27T12:57:26Z</time>
      </trkpt>
      <trkpt lat="47.12489" lon="-1.60251">
        <ele>6.33</ele>
        <time>2020-06-27T12:57:28Z</time>
      </trkpt>
      <trkpt lat="47.12485" lon="-1.60231">
        <ele>5.99</ele>
        <time>2020-06-27T12:57:30Z</time>
      </trkpt>
      <trkpt lat="47.12481" lon="-1.6021">
        <ele>5.17</ele>
        <time>2020-06-27T12:57:32Z</time>
      </trkpt>
      <trkpt lat="47.12478" lon="-1.60187">
        <ele>4.8</ele>
        <time>2020-06-27T12:57:34Z</time>
      </trkpt>
      <trkpt lat="47.12476" lon="-1.60165">
        <ele>4.89</ele>
        <time>2020-06-27T12:57:36Z</time>
      </trkpt>
      <trkpt lat="47.12475" lon="-1.60144">
        <ele>4.66</ele>
        <time>2020-06-27T12:57:38Z</time>
      </trkpt>
      <trkpt lat="47.12473" lon="-1.6012">
        <ele>4.76</ele>
        <time>2020-06-27T12:57:40Z</time>
      </trkpt>
      <trkpt lat="47.12471" lon="-1.60097">
        <ele>5.25</ele>
        <time>2020-06-27T12:57:41Z</time>
      </trkpt>
      <trkpt lat="47.1247" lon="-1.60076">
        <ele>5.61</ele>
        <time>2020-06-27T12:57:43Z</time>
      </trkpt>
      <trkpt lat="47.12469" lon="-1.60053">
        <ele>5.93</ele>
        <time>2020-06-27T12:57:45Z</time>
      </trkpt>
      <trkpt lat="47.12469" lon="-1.60034">
        <ele>6.58</ele>
        <time>2020-06-27T12:57:47Z</time>
      </trkpt>
      <trkpt lat="47.12468" lon="-1.60013">
        <ele>7.36</ele>
        <time>2020-06-27T12:57:49Z</time>
      </trkpt>
      <trkpt lat="47.12467" lon="-1.59988">
        <ele>7.63</ele>
        <time>2020-06-27T12:57:51Z</time>
      </trkpt>
      <trkpt lat="47.12466" lon="-1.59968">
        <ele>7.65</ele>
        <time>2020-06-27T12:57:53Z</time>
      </trkpt>
      <trkpt lat="47.12465" lon="-1.59948">
        <ele>8.83</ele>
        <time>2020-06-27T12:57:55Z</time>
      </trkpt>
      <trkpt lat="47.12464" lon="-1.59928">
        <ele>9.35</ele>
        <time>2020-06-27T12:57:57Z</time>
      </trkpt>
      <trkpt lat="47.12463" lon="-1.59908">
        <ele>9.62</ele>
        <time>2020-06-27T12:57:59Z</time>
      </trkpt>
      <trkpt lat="47.12462" lon="-1.59887">
        <ele>9.59</ele>
        <time>2020-06-27T12:58:01Z</time>
      </trkpt>
      <trkpt lat="47.12462" lon="-1.59864">
        <ele>9.7</ele>
        <time>2020-06-27T12:58:03Z</time>
      </trkpt>
      <trkpt lat="47.12461" lon="-1.59841">
        <ele>10.03</ele>
        <time>2020-06-27T12:58:05Z</time>
      </trkpt>
      <trkpt lat="47.12459" lon="-1.59818">
        <ele>10.28</ele>
        <time>2020-06-27T12:58:07Z</time>
      </trkpt>
      <trkpt lat="47.12458" lon="-1.59798">
        <ele>9.87</ele>
        <time>2020-06-27T12:58:09Z</time>
      </trkpt>
      <trkpt lat="47.12457" lon="-1.59779">
        <ele>9.2</ele>
        <time>2020-06-27T12:58:11Z</time>
      </trkpt>
      <trkpt lat="47.12456" lon="-1.59758">
        <ele>8.54</ele>
        <time>2020-06-27T12:58:13Z</time>
      </trkpt>
      <trkpt lat="47.12454" lon="-1.59735">
        <ele>8.81</ele>
        <time>2020-06-27T12:58:15Z</time>
      </trkpt>
      <trkpt lat="47.12454" lon="-1.59713">
        <ele>8.94</ele>
        <time>2020-06-27T12:58:17Z</time>
      </trkpt>
      <trkpt lat="47.12453" lon="-1.59691">
        <ele>8.93</ele>
        <time>2020-06-27T12:58:19Z</time>
      </trkpt>
      <trkpt lat="47.12453" lon="-1.59672">
        <ele>8.83</ele>
        <time>2020-06-27T12:58:21Z</time>
      </trkpt>
      <trkpt lat="47.12452" lon="-1.59648">
        <ele>9.51</ele>
        <time>2020-06-27T12:58:23Z</time>
      </trkpt>
      <trkpt lat="47.12452" lon="-1.59628">
        <ele>10.16</ele>
        <time>2020-06-27T12:58:25Z</time>
      </trkpt>
      <trkpt lat="47.12451" lon="-1.59607">
        <ele>10.46</ele>
        <time>2020-06-27T12:58:27Z</time>
      </trkpt>
      <trkpt lat="47.1245" lon="-1.59586">
        <ele>10.48</ele>
        <time>2020-06-27T12:58:29Z</time>
      </trkpt>
      <trkpt lat="47.12449" lon="-1.59563">
        <ele>9.85</ele>
        <time>2020-06-27T12:58:31Z</time>
      </trkpt>
      <trkpt lat="47.12448" lon="-1.59541">
        <ele>9.19</ele>
        <time>2020-06-27T12:58:33Z</time>
      </trkpt>
      <trkpt lat="47.12447" lon="-1.59519">
        <ele>9.4</ele>
        <time>2020-06-27T12:58:35Z</time>
      </trkpt>
      <trkpt lat="47.12445" lon="-1.59496">
        <ele>10.08</ele>
        <time>2020-06-27T12:58:37Z</time>
      </trkpt>
      <trkpt lat="47.12444" lon="-1.59474">
        <ele>10.35</ele>
        <time>2020-06-27T12:58:39Z</time>
      </trkpt>
      <trkpt lat="47.12443" lon="-1.59452">
        <ele>10.11</ele>
        <time>2020-06-27T12:58:41Z</time>
      </trkpt>
      <trkpt lat="47.12442" lon="-1.5943">
        <ele>9.37</ele>
        <time>2020-06-27T12:58:43Z</time>
      </trkpt>
      <trkpt lat="47.12441" lon="-1.59409">
        <ele>8.6</ele>
        <time>2020-06-27T12:58:45Z</time>
      </trkpt>
      <trkpt lat="47.12439" lon="-1.59386">
        <ele>8.13</ele>
        <time>2020-06-27T12:58:47Z</time>
      </trkpt>
      <trkpt lat="47.12438" lon="-1.59363">
        <ele>8.18</ele>
        <time>2020-06-27T12:58:49Z</time>
      </trkpt>
      <trkpt lat="47.12436" lon="-1.59342">
        <ele>8.41</ele>
        <time>2020-06-27T12:58:51Z</time>
      </trkpt>
      <trkpt lat="47.12435" lon="-1.59319">
        <ele>7.87</ele>
        <time>2020-06-27T12:58:53Z</time>
      </trkpt>
      <trkpt lat="47.12434" lon="-1.59297">
        <ele>6.74</ele>
        <time>2020-06-27T12:58:55Z</time>
      </trkpt>
      <trkpt lat="47.12432" lon="-1.59274">
        <ele>6.27</ele>
        <time>2020-06-27T12:58:57Z</time>
      </trkpt>
      <trkpt lat="47.12431" lon="-1.59252">
        <ele>6.15</ele>
        <time>2020-06-27T12:58:59Z</time>
      </trkpt>
      <trkpt lat="47.1243" lon="-1.5923">
        <ele>5.4</ele>
        <time>2020-06-27T12:59:01Z</time>
      </trkpt>
      <trkpt lat="47.12427" lon="-1.59207">
        <ele>5.04</ele>
        <time>2020-06-27T12:59:03Z</time>
      </trkpt>
      <trkpt lat="47.12424" lon="-1.59184">
        <ele>5.24</ele>
        <time>2020-06-27T12:59:05Z</time>
      </trkpt>
      <trkpt lat="47.12428" lon="-1.59164">
        <ele>5.36</ele>
        <time>2020-06-27T12:59:07Z</time>
      </trkpt>
      <trkpt lat="47.1243" lon="-1.59142">
        <ele>4.86</ele>
        <time>2020-06-27T12:59:09Z</time>
      </trkpt>
      <trkpt lat="47.12431" lon="-1.59118">
        <ele>4.87</ele>
        <time>2020-06-27T12:59:11Z</time>
      </trkpt>
      <trkpt lat="47.1243" lon="-1.59095">
        <ele>5.47</ele>
        <time>2020-06-27T12:59:13Z</time>
      </trkpt>
      <trkpt lat="47.12429" lon="-1.59072">
        <ele>5.64</ele>
        <time>2020-06-27T12:59:15Z</time>
      </trkpt>
      <trkpt lat="47.12428" lon="-1.59058">
        <ele>5.35</ele>
        <time>2020-06-27T12:59:16Z</time>
      </trkpt>
      <trkpt lat="47.12426" lon="-1.5904">
        <ele>4.83</ele>
        <time>2020-06-27T12:59:18Z</time>
      </trkpt>
      <trkpt lat="47.12425" lon="-1.59017">
        <ele>4.41</ele>
        <time>2020-06-27T12:59:20Z</time>
      </trkpt>
      <trkpt lat="47.12423" lon="-1.58998">
        <ele>4.43</ele>
        <time>2020-06-27T12:59:22Z</time>
      </trkpt>
      <trkpt lat="47.12421" lon="-1.58977">
        <ele>4.65</ele>
        <time>2020-06-27T12:59:24Z</time>
      </trkpt>
      <trkpt lat="47.12419" lon="-1.58956">
        <ele>5.5</ele>
        <time>2020-06-27T12:59:26Z</time>
      </trkpt>
      <trkpt lat="47.12419" lon="-1.58937">
        <ele>6.41</ele>
        <time>2020-06-27T12:59:28Z</time>
      </trkpt>
      <trkpt lat="47.12417" lon="-1.58917">
        <ele>7.13</ele>
        <time>2020-06-27T12:59:30Z</time>
      </trkpt>
      <trkpt lat="47.12415" lon="-1.58898">
        <ele>6.85</ele>
        <time>2020-06-27T12:59:32Z</time>
      </trkpt>
      <trkpt lat="47.12414" lon="-1.58878">
        <ele>6.55</ele>
        <time>2020-06-27T12:59:34Z</time>
      </trkpt>
      <trkpt lat="47.12412" lon="-1.58856">
        <ele>6.43</ele>
        <time>2020-06-27T12:59:36Z</time>
      </trkpt>
      <trkpt lat="47.1241" lon="-1.58835">
        <ele>6.33</ele>
        <time>2020-06-27T12:59:38Z</time>
      </trkpt>
      <trkpt lat="47.12407" lon="-1.58816">
        <ele>7.05</ele>
        <time>2020-06-27T12:59:40Z</time>
      </trkpt>
      <trkpt lat="47.12404" lon="-1.58796">
        <ele>7.41</ele>
        <time>2020-06-27T12:59:42Z</time>
      </trkpt>
      <trkpt lat="47.124" lon="-1.58774">
        <ele>8.26</ele>
        <time>2020-06-27T12:59:44Z</time>
      </trkpt>
      <trkpt lat="47.12397" lon="-1.58754">
        <ele>9.28</ele>
        <time>2020-06-27T12:59:46Z</time>
      </trkpt>
      <trkpt lat="47.12393" lon="-1.58732">
        <ele>10.36</ele>
        <time>2020-06-27T12:59:48Z</time>
      </trkpt>
      <trkpt lat="47.12388" lon="-1.58713">
        <ele>10.76</ele>
        <time>2020-06-27T12:59:50Z</time>
      </trkpt>
      <trkpt lat="47.12384" lon="-1.58695">
        <ele>10.64</ele>
        <time>2020-06-27T12:59:52Z</time>
      </trkpt>
      <trkpt lat="47.12379" lon="-1.58676">
        <ele>9.64</ele>
        <time>2020-06-27T12:59:54Z</time>
      </trkpt>
      <trkpt lat="47.12374" lon="-1.58654">
        <ele>8.74</ele>
        <time>2020-06-27T12:59:56Z</time>
      </trkpt>
      <trkpt lat="47.12369" lon="-1.58633">
        <ele>8.26</ele>
        <time>2020-06-27T12:59:58Z</time>
      </trkpt>
      <trkpt lat="47.12364" lon="-1.5861">
        <ele>7.63</ele>
        <time>2020-06-27T13:00:00Z</time>
      </trkpt>
      <trkpt lat="47.12359" lon="-1.58589">
        <ele>6.97</ele>
        <time>2020-06-27T13:00:02Z</time>
      </trkpt>
      <trkpt lat="47.12354" lon="-1.58566">
        <ele>7.27</ele>
        <time>2020-06-27T13:00:04Z</time>
      </trkpt>
      <trkpt lat="47.1235" lon="-1.58546">
        <ele>7.67</ele>
        <time>2020-06-27T13:00:06Z</time>
      </trkpt>
      <trkpt lat="47.12344" lon="-1.58524">
        <ele>7.21</ele>
        <time>2020-06-27T13:00:08Z</time>
      </trkpt>
      <trkpt lat="47.12339" lon="-1.58502">
        <ele>6.81</ele>
        <time>2020-06-27T13:00:10Z</time>
      </trkpt>
      <trkpt lat="47.12334" lon="-1.58479">
        <ele>7</ele>
        <time>2020-06-27T13:00:12Z</time>
      </trkpt>
      <trkpt lat="47.12329" lon="-1.5846">
        <ele>7.23</ele>
        <time>2020-06-27T13:00:14Z</time>
      </trkpt>
      <trkpt lat="47.12321" lon="-1.58445">
        <ele>7.61</ele>
        <time>2020-06-27T13:00:16Z</time>
      </trkpt>
      <trkpt lat="47.12312" lon="-1.58427">
        <ele>7.51</ele>
        <time>2020-06-27T13:00:18Z</time>
      </trkpt>
      <trkpt lat="47.12304" lon="-1.58408">
        <ele>7.96</ele>
        <time>2020-06-27T13:00:20Z</time>
      </trkpt>
      <trkpt lat="47.12296" lon="-1.5839">
        <ele>9.27</ele>
        <time>2020-06-27T13:00:22Z</time>
      </trkpt>
      <trkpt lat="47.12294" lon="-1.58367">
        <ele>9.73</ele>
        <time>2020-06-27T13:00:24Z</time>
      </trkpt>
      <trkpt lat="47.1229" lon="-1.58344">
        <ele>8.96</ele>
        <time>2020-06-27T13:00:26Z</time>
      </trkpt>
      <trkpt lat="47.12283" lon="-1.58328">
        <ele>8.73</ele>
        <time>2020-06-27T13:00:28Z</time>
      </trkpt>
      <trkpt lat="47.12268" lon="-1.58315">
        <ele>8.13</ele>
        <time>2020-06-27T13:00:30Z</time>
      </trkpt>
      <trkpt lat="47.12254" lon="-1.58303">
        <ele>7.62</ele>
        <time>2020-06-27T13:00:32Z</time>
      </trkpt>
      <trkpt lat="47.12241" lon="-1.58291">
        <ele>7.02</ele>
        <time>2020-06-27T13:00:34Z</time>
      </trkpt>
      <trkpt lat="47.12228" lon="-1.58279">
        <ele>6.59</ele>
        <time>2020-06-27T13:00:36Z</time>
      </trkpt>
      <trkpt lat="47.12219" lon="-1.58272">
        <ele>5.44</ele>
        <time>2020-06-27T13:00:38Z</time>
      </trkpt>
      <trkpt lat="47.1221" lon="-1.58263">
        <ele>3.74</ele>
        <time>2020-06-27T13:00:40Z</time>
      </trkpt>
      <trkpt lat="47.122" lon="-1.58255">
        <ele>3.03</ele>
        <time>2020-06-27T13:00:42Z</time>
      </trkpt>
      <trkpt lat="47.12194" lon="-1.58244">
        <ele>2.11</ele>
        <time>2020-06-27T13:00:44Z</time>
      </trkpt>
      <trkpt lat="47.12195" lon="-1.58222">
        <ele>1.42</ele>
        <time>2020-06-27T13:00:46Z</time>
      </trkpt>
      <trkpt lat="47.12197" lon="-1.58201">
        <ele>1.97</ele>
        <time>2020-06-27T13:00:48Z</time>
      </trkpt>
      <trkpt lat="47.12198" lon="-1.58177">
        <ele>3.09</ele>
        <time>2020-06-27T13:00:50Z</time>
      </trkpt>
      <trkpt lat="47.12203" lon="-1.58157">
        <ele>4.56</ele>
        <time>2020-06-27T13:00:52Z</time>
      </trkpt>
      <trkpt lat="47.1221" lon="-1.58138">
        <ele>4.86</ele>
        <time>2020-06-27T13:00:54Z</time>
      </trkpt>
      <trkpt lat="47.12216" lon="-1.58127">
        <ele>4.68</ele>
        <time>2020-06-27T13:00:55Z</time>
      </trkpt>
      <trkpt lat="47.12225" lon="-1.58108">
        <ele>4.76</ele>
        <time>2020-06-27T13:00:57Z</time>
      </trkpt>
      <trkpt lat="47.12232" lon="-1.5809">
        <ele>4.2</ele>
        <time>2020-06-27T13:00:59Z</time>
      </trkpt>
      <trkpt lat="47.12239" lon="-1.58073">
        <ele>3.47</ele>
        <time>2020-06-27T13:01:01Z</time>
      </trkpt>
      <trkpt lat="47.12243" lon="-1.58053">
        <ele>3.37</ele>
        <time>2020-06-27T13:01:03Z</time>
      </trkpt>
      <trkpt lat="47.1224" lon="-1.58032">
        <ele>3.56</ele>
        <time>2020-06-27T13:01:05Z</time>
      </trkpt>
      <trkpt lat="47.12233" lon="-1.58011">
        <ele>3.99</ele>
        <time>2020-06-27T13:01:07Z</time>
      </trkpt>
      <trkpt lat="47.12223" lon="-1.57992">
        <ele>4.82</ele>
        <time>2020-06-27T13:01:09Z</time>
      </trkpt>
      <trkpt lat="47.12215" lon="-1.57978">
        <ele>6.67</ele>
        <time>2020-06-27T13:01:11Z</time>
      </trkpt>
      <trkpt lat="47.12206" lon="-1.57963">
        <ele>7.31</ele>
        <time>2020-06-27T13:01:13Z</time>
      </trkpt>
      <trkpt lat="47.12198" lon="-1.57949">
        <ele>7.05</ele>
        <time>2020-06-27T13:01:15Z</time>
      </trkpt>
      <trkpt lat="47.12191" lon="-1.57935">
        <ele>7.44</ele>
        <time>2020-06-27T13:01:17Z</time>
      </trkpt>
      <trkpt lat="47.12187" lon="-1.57921">
        <ele>7.76</ele>
        <time>2020-06-27T13:01:19Z</time>
      </trkpt>
      <trkpt lat="47.12184" lon="-1.57904">
        <ele>8.1</ele>
        <time>2020-06-27T13:01:21Z</time>
      </trkpt>
      <trkpt lat="47.12181" lon="-1.57884">
        <ele>9.28</ele>
        <time>2020-06-27T13:01:23Z</time>
      </trkpt>
      <trkpt lat="47.1218" lon="-1.57866">
        <ele>10.14</ele>
        <time>2020-06-27T13:01:25Z</time>
      </trkpt>
      <trkpt lat="47.12179" lon="-1.57846">
        <ele>10.97</ele>
        <time>2020-06-27T13:01:27Z</time>
      </trkpt>
      <trkpt lat="47.12179" lon="-1.57829">
        <ele>11.08</ele>
        <time>2020-06-27T13:01:29Z</time>
      </trkpt>
      <trkpt lat="47.12179" lon="-1.57809">
        <ele>11.58</ele>
        <time>2020-06-27T13:01:31Z</time>
      </trkpt>
      <trkpt lat="47.12179" lon="-1.57789">
        <ele>12.59</ele>
        <time>2020-06-27T13:01:33Z</time>
      </trkpt>
      <trkpt lat="47.12179" lon="-1.5777">
        <ele>13.42</ele>
        <time>2020-06-27T13:01:35Z</time>
      </trkpt>
      <trkpt lat="47.12179" lon="-1.5775">
        <ele>13.77</ele>
        <time>2020-06-27T13:01:37Z</time>
      </trkpt>
      <trkpt lat="47.12179" lon="-1.57733">
        <ele>13.78</ele>
        <time>2020-06-27T13:01:39Z</time>
      </trkpt>
      <trkpt lat="47.12178" lon="-1.57713">
        <ele>13.43</ele>
        <time>2020-06-27T13:01:41Z</time>
      </trkpt>
      <trkpt lat="47.12178" lon="-1.57695">
        <ele>13.78</ele>
        <time>2020-06-27T13:01:43Z</time>
      </trkpt>
      <trkpt lat="47.12178" lon="-1.57677">
        <ele>13.61</ele>
        <time>2020-06-27T13:01:45Z</time>
      </trkpt>
      <trkpt lat="47.12178" lon="-1.57657">
        <ele>13.45</ele>
        <time>2020-06-27T13:01:47Z</time>
      </trkpt>
      <trkpt lat="47.12177" lon="-1.57636">
        <ele>13.36</ele>
        <time>2020-06-27T13:01:49Z</time>
      </trkpt>
      <trkpt lat="47.12178" lon="-1.57615">
        <ele>13.52</ele>
        <time>2020-06-27T13:01:51Z</time>
      </trkpt>
      <trkpt lat="47.12178" lon="-1.57594">
        <ele>12.84</ele>
        <time>2020-06-27T13:01:53Z</time>
      </trkpt>
      <trkpt lat="47.12177" lon="-1.57576">
        <ele>12.66</ele>
        <time>2020-06-27T13:01:55Z</time>
      </trkpt>
      <trkpt lat="47.12176" lon="-1.57554">
        <ele>12.1</ele>
        <time>2020-06-27T13:01:57Z</time>
      </trkpt>
      <trkpt lat="47.12175" lon="-1.57533">
        <ele>11.59</ele>
        <time>2020-06-27T13:01:59Z</time>
      </trkpt>
      <trkpt lat="47.12174" lon="-1.57513">
        <ele>11.48</ele>
        <time>2020-06-27T13:02:01Z</time>
      </trkpt>
      <trkpt lat="47.12172" lon="-1.57492">
        <ele>11.54</ele>
        <time>2020-06-27T13:02:03Z</time>
      </trkpt>
      <trkpt lat="47.12168" lon="-1.57469">
        <ele>11.33</ele>
        <time>2020-06-27T13:02:05Z</time>
      </trkpt>
      <trkpt lat="47.12163" lon="-1.57447">
        <ele>10.9</ele>
        <time>2020-06-27T13:02:07Z</time>
      </trkpt>
      <trkpt lat="47.1216" lon="-1.57428">
        <ele>10.74</ele>
        <time>2020-06-27T13:02:09Z</time>
      </trkpt>
      <trkpt lat="47.12156" lon="-1.57408">
        <ele>11.85</ele>
        <time>2020-06-27T13:02:11Z</time>
      </trkpt>
      <trkpt lat="47.12152" lon="-1.57386">
        <ele>13.35</ele>
        <time>2020-06-27T13:02:13Z</time>
      </trkpt>
      <trkpt lat="47.12148" lon="-1.57366">
        <ele>14.45</ele>
        <time>2020-06-27T13:02:15Z</time>
      </trkpt>
      <trkpt lat="47.12143" lon="-1.57345">
        <ele>15.44</ele>
        <time>2020-06-27T13:02:17Z</time>
      </trkpt>
      <trkpt lat="47.1214" lon="-1.57326">
        <ele>15.14</ele>
        <time>2020-06-27T13:02:19Z</time>
      </trkpt>
      <trkpt lat="47.12136" lon="-1.57304">
        <ele>14.22</ele>
        <time>2020-06-27T13:02:21Z</time>
      </trkpt>
      <trkpt lat="47.12131" lon="-1.57283">
        <ele>13.23</ele>
        <time>2020-06-27T13:02:23Z</time>
      </trkpt>
      <trkpt lat="47.12126" lon="-1.5726">
        <ele>11.95</ele>
        <time>2020-06-27T13:02:25Z</time>
      </trkpt>
      <trkpt lat="47.12121" lon="-1.57239">
        <ele>10.77</ele>
        <time>2020-06-27T13:02:27Z</time>
      </trkpt>
      <trkpt lat="47.12117" lon="-1.57217">
        <ele>9.29</ele>
        <time>2020-06-27T13:02:29Z</time>
      </trkpt>
      <trkpt lat="47.12113" lon="-1.57196">
        <ele>8.94</ele>
        <time>2020-06-27T13:02:31Z</time>
      </trkpt>
      <trkpt lat="47.12108" lon="-1.57173">
        <ele>8.77</ele>
        <time>2020-06-27T13:02:33Z</time>
      </trkpt>
      <trkpt lat="47.12104" lon="-1.5715">
        <ele>8.45</ele>
        <time>2020-06-27T13:02:35Z</time>
      </trkpt>
      <trkpt lat="47.12099" lon="-1.57127">
        <ele>8.01</ele>
        <time>2020-06-27T13:02:37Z</time>
      </trkpt>
      <trkpt lat="47.12094" lon="-1.57106">
        <ele>7.96</ele>
        <time>2020-06-27T13:02:39Z</time>
      </trkpt>
      <trkpt lat="47.12091" lon="-1.57093">
        <ele>8.09</ele>
        <time>2020-06-27T13:02:40Z</time>
      </trkpt>
      <trkpt lat="47.12087" lon="-1.5707">
        <ele>8.23</ele>
        <time>2020-06-27T13:02:42Z</time>
      </trkpt>
      <trkpt lat="47.12083" lon="-1.57047">
        <ele>7.5</ele>
        <time>2020-06-27T13:02:44Z</time>
      </trkpt>
      <trkpt lat="47.12079" lon="-1.57025">
        <ele>6.9</ele>
        <time>2020-06-27T13:02:46Z</time>
      </trkpt>
      <trkpt lat="47.12075" lon="-1.57002">
        <ele>5.72</ele>
        <time>2020-06-27T13:02:48Z</time>
      </trkpt>
      <trkpt lat="47.12071" lon="-1.5698">
        <ele>4.76</ele>
        <time>2020-06-27T13:02:50Z</time>
      </trkpt>
      <trkpt lat="47.12067" lon="-1.56956">
        <ele>4.77</ele>
        <time>2020-06-27T13:02:52Z</time>
      </trkpt>
      <trkpt lat="47.12063" lon="-1.56935">
        <ele>4.95</ele>
        <time>2020-06-27T13:02:54Z</time>
      </trkpt>
      <trkpt lat="47.1206" lon="-1.56915">
        <ele>5.25</ele>
        <time>2020-06-27T13:02:56Z</time>
      </trkpt>
      <trkpt lat="47.12057" lon="-1.56895">
        <ele>5.69</ele>
        <time>2020-06-27T13:02:58Z</time>
      </trkpt>
      <trkpt lat="47.12053" lon="-1.56876">
        <ele>6.08</ele>
        <time>2020-06-27T13:03:00Z</time>
      </trkpt>
      <trkpt lat="47.1205" lon="-1.56859">
        <ele>6.71</ele>
        <time>2020-06-27T13:03:02Z</time>
      </trkpt>
      <trkpt lat="47.12046" lon="-1.56841">
        <ele>7.76</ele>
        <time>2020-06-27T13:03:04Z</time>
      </trkpt>
      <trkpt lat="47.12043" lon="-1.56824">
        <ele>8.21</ele>
        <time>2020-06-27T13:03:06Z</time>
      </trkpt>
      <trkpt lat="47.12039" lon="-1.56805">
        <ele>8.83</ele>
        <time>2020-06-27T13:03:08Z</time>
      </trkpt>
      <trkpt lat="47.12035" lon="-1.56788">
        <ele>10.23</ele>
        <time>2020-06-27T13:03:10Z</time>
      </trkpt>
      <trkpt lat="47.12032" lon="-1.5677">
        <ele>11.48</ele>
        <time>2020-06-27T13:03:12Z</time>
      </trkpt>
      <trkpt lat="47.12028" lon="-1.5675">
        <ele>12.29</ele>
        <time>2020-06-27T13:03:14Z</time>
      </trkpt>
      <trkpt lat="47.12024" lon="-1.56733">
        <ele>13.38</ele>
        <time>2020-06-27T13:03:16Z</time>
      </trkpt>
      <trkpt lat="47.12021" lon="-1.56718">
        <ele>13.11</ele>
        <time>2020-06-27T13:03:18Z</time>
      </trkpt>
      <trkpt lat="47.12017" lon="-1.56702">
        <ele>12.23</ele>
        <time>2020-06-27T13:03:20Z</time>
      </trkpt>
      <trkpt lat="47.12014" lon="-1.56684">
        <ele>11.58</ele>
        <time>2020-06-27T13:03:22Z</time>
      </trkpt>
      <trkpt lat="47.1201" lon="-1.56666">
        <ele>11.74</ele>
        <time>2020-06-27T13:03:24Z</time>
      </trkpt>
      <trkpt lat="47.12007" lon="-1.56648">
        <ele>11.81</ele>
        <time>2020-06-27T13:03:26Z</time>
      </trkpt>
      <trkpt lat="47.12004" lon="-1.56629">
        <ele>12.14</ele>
        <time>2020-06-27T13:03:28Z</time>
      </trkpt>
      <trkpt lat="47.11999" lon="-1.56611">
        <ele>11.91</ele>
        <time>2020-06-27T13:03:30Z</time>
      </trkpt>
      <trkpt lat="47.11996" lon="-1.56594">
        <ele>12.27</ele>
        <time>2020-06-27T13:03:32Z</time>
      </trkpt>
      <trkpt lat="47.11993" lon="-1.56575">
        <ele>12.5</ele>
        <time>2020-06-27T13:03:34Z</time>
      </trkpt>
      <trkpt lat="47.11989" lon="-1.56558">
        <ele>13.47</ele>
        <time>2020-06-27T13:03:36Z</time>
      </trkpt>
      <trkpt lat="47.11985" lon="-1.56539">
        <ele>13.51</ele>
        <time>2020-06-27T13:03:38Z</time>
      </trkpt>
      <trkpt lat="47.11982" lon="-1.56521">
        <ele>13.79</ele>
        <time>2020-06-27T13:03:40Z</time>
      </trkpt>
      <trkpt lat="47.11977" lon="-1.56501">
        <ele>13.83</ele>
        <time>2020-06-27T13:03:42Z</time>
      </trkpt>
      <trkpt lat="47.11972" lon="-1.56481">
        <ele>13.84</ele>
        <time>2020-06-27T13:03:44Z</time>
      </trkpt>
      <trkpt lat="47.11967" lon="-1.56462">
        <ele>13.56</ele>
        <time>2020-06-27T13:03:46Z</time>
      </trkpt>
      <trkpt lat="47.11962" lon="-1.56442">
        <ele>14.04</ele>
        <time>2020-06-27T13:03:48Z</time>
      </trkpt>
      <trkpt lat="47.11957" lon="-1.56422">
        <ele>14.04</ele>
        <time>2020-06-27T13:03:50Z</time>
      </trkpt>
      <trkpt lat="47.11953" lon="-1.56403">
        <ele>13.32</ele>
        <time>2020-06-27T13:03:52Z</time>
      </trkpt>
      <trkpt lat="47.11948" lon="-1.56382">
        <ele>13.22</ele>
        <time>2020-06-27T13:03:54Z</time>
      </trkpt>
      <trkpt lat="47.11942" lon="-1.5636">
        <ele>13.2</ele>
        <time>2020-06-27T13:03:56Z</time>
      </trkpt>
      <trkpt lat="47.11937" lon="-1.56339">
        <ele>13.32</ele>
        <time>2020-06-27T13:03:58Z</time>
      </trkpt>
      <trkpt lat="47.11931" lon="-1.56316">
        <ele>13.81</ele>
        <time>2020-06-27T13:04:00Z</time>
      </trkpt>
      <trkpt lat="47.11925" lon="-1.56294">
        <ele>13.76</ele>
        <time>2020-06-27T13:04:02Z</time>
      </trkpt>
      <trkpt lat="47.11919" lon="-1.56273">
        <ele>14.3</ele>
        <time>2020-06-27T13:04:04Z</time>
      </trkpt>
      <trkpt lat="47.11914" lon="-1.56254">
        <ele>15.02</ele>
        <time>2020-06-27T13:04:06Z</time>
      </trkpt>
      <trkpt lat="47.11908" lon="-1.56231">
        <ele>14.92</ele>
        <time>2020-06-27T13:04:08Z</time>
      </trkpt>
      <trkpt lat="47.11902" lon="-1.5621">
        <ele>14.63</ele>
        <time>2020-06-27T13:04:10Z</time>
      </trkpt>
      <trkpt lat="47.11896" lon="-1.56188">
        <ele>14.76</ele>
        <time>2020-06-27T13:04:12Z</time>
      </trkpt>
      <trkpt lat="47.11891" lon="-1.56166">
        <ele>15.65</ele>
        <time>2020-06-27T13:04:14Z</time>
      </trkpt>
      <trkpt lat="47.11885" lon="-1.56145">
        <ele>16.02</ele>
        <time>2020-06-27T13:04:16Z</time>
      </trkpt>
      <trkpt lat="47.1188" lon="-1.56127">
        <ele>16.39</ele>
        <time>2020-06-27T13:04:18Z</time>
      </trkpt>
      <trkpt lat="47.11875" lon="-1.56106">
        <ele>16.8</ele>
        <time>2020-06-27T13:04:20Z</time>
      </trkpt>
      <trkpt lat="47.1187" lon="-1.56084">
        <ele>16.49</ele>
        <time>2020-06-27T13:04:22Z</time>
      </trkpt>
      <trkpt lat="47.11866" lon="-1.56064">
        <ele>15.66</ele>
        <time>2020-06-27T13:04:24Z</time>
      </trkpt>
      <trkpt lat="47.11863" lon="-1.56041">
        <ele>15.25</ele>
        <time>2020-06-27T13:04:26Z</time>
      </trkpt>
      <trkpt lat="47.1186" lon="-1.56021">
        <ele>14.34</ele>
        <time>2020-06-27T13:04:28Z</time>
      </trkpt>
      <trkpt lat="47.11858" lon="-1.55998">
        <ele>13.34</ele>
        <time>2020-06-27T13:04:30Z</time>
      </trkpt>
      <trkpt lat="47.11856" lon="-1.55974">
        <ele>12.98</ele>
        <time>2020-06-27T13:04:32Z</time>
      </trkpt>
      <trkpt lat="47.11854" lon="-1.55953">
        <ele>13.02</ele>
        <time>2020-06-27T13:04:34Z</time>
      </trkpt>
      <trkpt lat="47.11853" lon="-1.55932">
        <ele>13.2</ele>
        <time>2020-06-27T13:04:36Z</time>
      </trkpt>
      <trkpt lat="47.11851" lon="-1.55911">
        <ele>13.41</ele>
        <time>2020-06-27T13:04:38Z</time>
      </trkpt>
      <trkpt lat="47.1185" lon="-1.5589">
        <ele>13.58</ele>
        <time>2020-06-27T13:04:40Z</time>
      </trkpt>
      <trkpt lat="47.11849" lon="-1.55869">
        <ele>14.12</ele>
        <time>2020-06-27T13:04:42Z</time>
      </trkpt>
      <trkpt lat="47.11847" lon="-1.55846">
        <ele>14.81</ele>
        <time>2020-06-27T13:04:44Z</time>
      </trkpt>
      <trkpt lat="47.11845" lon="-1.55824">
        <ele>15.62</ele>
        <time>2020-06-27T13:04:46Z</time>
      </trkpt>
      <trkpt lat="47.11844" lon="-1.55803">
        <ele>16.35</ele>
        <time>2020-06-27T13:04:48Z</time>
      </trkpt>
      <trkpt lat="47.11843" lon="-1.55781">
        <ele>16.97</ele>
        <time>2020-06-27T13:04:50Z</time>
      </trkpt>
      <trkpt lat="47.11841" lon="-1.55759">
        <ele>17.73</ele>
        <time>2020-06-27T13:04:52Z</time>
      </trkpt>
      <trkpt lat="47.11839" lon="-1.5574">
        <ele>18.13</ele>
        <time>2020-06-27T13:04:54Z</time>
      </trkpt>
      <trkpt lat="47.11838" lon="-1.55719">
        <ele>18.24</ele>
        <time>2020-06-27T13:04:56Z</time>
      </trkpt>
      <trkpt lat="47.11836" lon="-1.55699">
        <ele>18.75</ele>
        <time>2020-06-27T13:04:59Z</time>
      </trkpt>
      <trkpt lat="47.11835" lon="-1.55675">
        <ele>18.54</ele>
        <time>2020-06-27T13:05:01Z</time>
      </trkpt>
      <trkpt lat="47.11833" lon="-1.55653">
        <ele>18.29</ele>
        <time>2020-06-27T13:05:03Z</time>
      </trkpt>
      <trkpt lat="47.11832" lon="-1.55632">
        <ele>18.35</ele>
        <time>2020-06-27T13:05:05Z</time>
      </trkpt>
      <trkpt lat="47.1183" lon="-1.5561">
        <ele>18.31</ele>
        <time>2020-06-27T13:05:07Z</time>
      </trkpt>
      <trkpt lat="47.11828" lon="-1.55585">
        <ele>18.51</ele>
        <time>2020-06-27T13:05:09Z</time>
      </trkpt>
      <trkpt lat="47.11827" lon="-1.55565">
        <ele>18.03</ele>
        <time>2020-06-27T13:05:11Z</time>
      </trkpt>
      <trkpt lat="47.11825" lon="-1.55541">
        <ele>17.32</ele>
        <time>2020-06-27T13:05:13Z</time>
      </trkpt>
      <trkpt lat="47.11824" lon="-1.55518">
        <ele>17.81</ele>
        <time>2020-06-27T13:05:15Z</time>
      </trkpt>
      <trkpt lat="47.11822" lon="-1.55495">
        <ele>18.58</ele>
        <time>2020-06-27T13:05:17Z</time>
      </trkpt>
      <trkpt lat="47.1182" lon="-1.55473">
        <ele>18.55</ele>
        <time>2020-06-27T13:05:19Z</time>
      </trkpt>
      <trkpt lat="47.11819" lon="-1.55451">
        <ele>19.59</ele>
        <time>2020-06-27T13:05:21Z</time>
      </trkpt>
      <trkpt lat="47.11819" lon="-1.55429">
        <ele>20.7</ele>
        <time>2020-06-27T13:05:23Z</time>
      </trkpt>
      <trkpt lat="47.11818" lon="-1.55407">
        <ele>20.53</ele>
        <time>2020-06-27T13:05:25Z</time>
      </trkpt>
      <trkpt lat="47.11817" lon="-1.55385">
        <ele>20.65</ele>
        <time>2020-06-27T13:05:27Z</time>
      </trkpt>
      <trkpt lat="47.11817" lon="-1.55363">
        <ele>20.24</ele>
        <time>2020-06-27T13:05:29Z</time>
      </trkpt>
      <trkpt lat="47.11817" lon="-1.5534">
        <ele>20.34</ele>
        <time>2020-06-27T13:05:31Z</time>
      </trkpt>
      <trkpt lat="47.11816" lon="-1.55319">
        <ele>20.31</ele>
        <time>2020-06-27T13:05:33Z</time>
      </trkpt>
      <trkpt lat="47.11816" lon="-1.55297">
        <ele>19.93</ele>
        <time>2020-06-27T13:05:35Z</time>
      </trkpt>
      <trkpt lat="47.11815" lon="-1.55276">
        <ele>19.27</ele>
        <time>2020-06-27T13:05:37Z</time>
      </trkpt>
      <trkpt lat="47.11814" lon="-1.55254">
        <ele>19.3</ele>
        <time>2020-06-27T13:05:39Z</time>
      </trkpt>
      <trkpt lat="47.11813" lon="-1.55232">
        <ele>18.77</ele>
        <time>2020-06-27T13:05:41Z</time>
      </trkpt>
      <trkpt lat="47.11812" lon="-1.55219">
        <ele>18.42</ele>
        <time>2020-06-27T13:05:42Z</time>
      </trkpt>
      <trkpt lat="47.11812" lon="-1.55195">
        <ele>17.47</ele>
        <time>2020-06-27T13:05:44Z</time>
      </trkpt>
      <trkpt lat="47.11811" lon="-1.55173">
        <ele>16.82</ele>
        <time>2020-06-27T13:05:46Z</time>
      </trkpt>
      <trkpt lat="47.1181" lon="-1.55151">
        <ele>16.55</ele>
        <time>2020-06-27T13:05:48Z</time>
      </trkpt>
      <trkpt lat="47.11809" lon="-1.55128">
        <ele>16.35</ele>
        <time>2020-06-27T13:05:50Z</time>
      </trkpt>
      <trkpt lat="47.11807" lon="-1.55107">
        <ele>16.68</ele>
        <time>2020-06-27T13:05:52Z</time>
      </trkpt>
      <trkpt lat="47.11805" lon="-1.55087">
        <ele>17.04</ele>
        <time>2020-06-27T13:05:54Z</time>
      </trkpt>
      <trkpt lat="47.11802" lon="-1.55064">
        <ele>16.59</ele>
        <time>2020-06-27T13:05:56Z</time>
      </trkpt>
      <trkpt lat="47.11799" lon="-1.5504">
        <ele>15.86</ele>
        <time>2020-06-27T13:05:58Z</time>
      </trkpt>
      <trkpt lat="47.11796" lon="-1.55018">
        <ele>15.61</ele>
        <time>2020-06-27T13:06:00Z</time>
      </trkpt>
      <trkpt lat="47.11792" lon="-1.54997">
        <ele>16.17</ele>
        <time>2020-06-27T13:06:02Z</time>
      </trkpt>
      <trkpt lat="47.11787" lon="-1.54979">
        <ele>16.79</ele>
        <time>2020-06-27T13:06:04Z</time>
      </trkpt>
      <trkpt lat="47.11782" lon="-1.54957">
        <ele>17.79</ele>
        <time>2020-06-27T13:06:06Z</time>
      </trkpt>
      <trkpt lat="47.11777" lon="-1.54935">
        <ele>18.78</ele>
        <time>2020-06-27T13:06:08Z</time>
      </trkpt>
      <trkpt lat="47.11771" lon="-1.54914">
        <ele>18.88</ele>
        <time>2020-06-27T13:06:10Z</time>
      </trkpt>
      <trkpt lat="47.11764" lon="-1.54892">
        <ele>18.61</ele>
        <time>2020-06-27T13:06:12Z</time>
      </trkpt>
      <trkpt lat="47.11758" lon="-1.54871">
        <ele>18.56</ele>
        <time>2020-06-27T13:06:14Z</time>
      </trkpt>
      <trkpt lat="47.11752" lon="-1.54851">
        <ele>18.83</ele>
        <time>2020-06-27T13:06:16Z</time>
      </trkpt>
      <trkpt lat="47.11745" lon="-1.54831">
        <ele>18.89</ele>
        <time>2020-06-27T13:06:18Z</time>
      </trkpt>
      <trkpt lat="47.11738" lon="-1.54809">
        <ele>18.74</ele>
        <time>2020-06-27T13:06:20Z</time>
      </trkpt>
      <trkpt lat="47.11732" lon="-1.5479">
        <ele>18.43</ele>
        <time>2020-06-27T13:06:22Z</time>
      </trkpt>
      <trkpt lat="47.11727" lon="-1.54771">
        <ele>18.32</ele>
        <time>2020-06-27T13:06:24Z</time>
      </trkpt>
      <trkpt lat="47.11721" lon="-1.54752">
        <ele>18.22</ele>
        <time>2020-06-27T13:06:26Z</time>
      </trkpt>
      <trkpt lat="47.11715" lon="-1.54734">
        <ele>18.76</ele>
        <time>2020-06-27T13:06:28Z</time>
      </trkpt>
      <trkpt lat="47.1171" lon="-1.54717">
        <ele>18.97</ele>
        <time>2020-06-27T13:06:30Z</time>
      </trkpt>
      <trkpt lat="47.11704" lon="-1.54696">
        <ele>18.97</ele>
        <time>2020-06-27T13:06:32Z</time>
      </trkpt>
      <trkpt lat="47.11698" lon="-1.54677">
        <ele>19</ele>
        <time>2020-06-27T13:06:34Z</time>
      </trkpt>
      <trkpt lat="47.11692" lon="-1.54656">
        <ele>18.67</ele>
        <time>2020-06-27T13:06:36Z</time>
      </trkpt>
      <trkpt lat="47.11686" lon="-1.54637">
        <ele>18.33</ele>
        <time>2020-06-27T13:06:38Z</time>
      </trkpt>
      <trkpt lat="47.1168" lon="-1.54616">
        <ele>17.08</ele>
        <time>2020-06-27T13:06:40Z</time>
      </trkpt>
      <trkpt lat="47.11674" lon="-1.54597">
        <ele>17.49</ele>
        <time>2020-06-27T13:06:42Z</time>
      </trkpt>
      <trkpt lat="47.11668" lon="-1.54578">
        <ele>18.34</ele>
        <time>2020-06-27T13:06:44Z</time>
      </trkpt>
      <trkpt lat="47.11662" lon="-1.5456">
        <ele>20.39</ele>
        <time>2020-06-27T13:06:46Z</time>
      </trkpt>
      <trkpt lat="47.11656" lon="-1.54541">
        <ele>22</ele>
        <time>2020-06-27T13:06:48Z</time>
      </trkpt>
      <trkpt lat="47.11648" lon="-1.5452">
        <ele>22.32</ele>
        <time>2020-06-27T13:06:50Z</time>
      </trkpt>
      <trkpt lat="47.11641" lon="-1.545">
        <ele>22.65</ele>
        <time>2020-06-27T13:06:52Z</time>
      </trkpt>
      <trkpt lat="47.11635" lon="-1.5448">
        <ele>23.07</ele>
        <time>2020-06-27T13:06:54Z</time>
      </trkpt>
      <trkpt lat="47.11628" lon="-1.54459">
        <ele>22.87</ele>
        <time>2020-06-27T13:06:56Z</time>
      </trkpt>
      <trkpt lat="47.11621" lon="-1.54437">
        <ele>22.5</ele>
        <time>2020-06-27T13:06:58Z</time>
      </trkpt>
      <trkpt lat="47.11614" lon="-1.54417">
        <ele>22.22</ele>
        <time>2020-06-27T13:07:00Z</time>
      </trkpt>
      <trkpt lat="47.11608" lon="-1.54397">
        <ele>22.24</ele>
        <time>2020-06-27T13:07:02Z</time>
      </trkpt>
      <trkpt lat="47.11601" lon="-1.54376">
        <ele>22.79</ele>
        <time>2020-06-27T13:07:04Z</time>
      </trkpt>
      <trkpt lat="47.11593" lon="-1.54354">
        <ele>22.71</ele>
        <time>2020-06-27T13:07:06Z</time>
      </trkpt>
      <trkpt lat="47.11586" lon="-1.54334">
        <ele>22.04</ele>
        <time>2020-06-27T13:07:08Z</time>
      </trkpt>
      <trkpt lat="47.11579" lon="-1.54316">
        <ele>21.86</ele>
        <time>2020-06-27T13:07:10Z</time>
      </trkpt>
      <trkpt lat="47.11573" lon="-1.54297">
        <ele>21.55</ele>
        <time>2020-06-27T13:07:12Z</time>
      </trkpt>
      <trkpt lat="47.11567" lon="-1.54281">
        <ele>22.04</ele>
        <time>2020-06-27T13:07:14Z</time>
      </trkpt>
      <trkpt lat="47.11564" lon="-1.54267">
        <ele>21.78</ele>
        <time>2020-06-27T13:07:16Z</time>
      </trkpt>
      <trkpt lat="47.11571" lon="-1.54255">
        <ele>21.86</ele>
        <time>2020-06-27T13:07:18Z</time>
      </trkpt>
      <trkpt lat="47.11578" lon="-1.54248">
        <ele>22.22</ele>
        <time>2020-06-27T13:07:19Z</time>
      </trkpt>
      <trkpt lat="47.11586" lon="-1.54241">
        <ele>22.52</ele>
        <time>2020-06-27T13:07:20Z</time>
      </trkpt>
      <trkpt lat="47.116" lon="-1.54231">
        <ele>23.61</ele>
        <time>2020-06-27T13:07:22Z</time>
      </trkpt>
      <trkpt lat="47.11612" lon="-1.54222">
        <ele>24.17</ele>
        <time>2020-06-27T13:07:24Z</time>
      </trkpt>
      <trkpt lat="47.11626" lon="-1.54212">
        <ele>24.4</ele>
        <time>2020-06-27T13:07:26Z</time>
      </trkpt>
      <trkpt lat="47.11637" lon="-1.54201">
        <ele>24.87</ele>
        <time>2020-06-27T13:07:28Z</time>
      </trkpt>
      <trkpt lat="47.11645" lon="-1.54184">
        <ele>24.46</ele>
        <time>2020-06-27T13:07:30Z</time>
      </trkpt>
      <trkpt lat="47.11649" lon="-1.54164">
        <ele>24.17</ele>
        <time>2020-06-27T13:07:32Z</time>
      </trkpt>
      <trkpt lat="47.11657" lon="-1.54152">
        <ele>23.57</ele>
        <time>2020-06-27T13:07:34Z</time>
      </trkpt>
      <trkpt lat="47.11671" lon="-1.54142">
        <ele>23.03</ele>
        <time>2020-06-27T13:07:36Z</time>
      </trkpt>
      <trkpt lat="47.11684" lon="-1.54132">
        <ele>23.89</ele>
        <time>2020-06-27T13:07:38Z</time>
      </trkpt>
      <trkpt lat="47.11696" lon="-1.5412">
        <ele>25.04</ele>
        <time>2020-06-27T13:07:40Z</time>
      </trkpt>
      <trkpt lat="47.11704" lon="-1.54102">
        <ele>24.99</ele>
        <time>2020-06-27T13:07:42Z</time>
      </trkpt>
      <trkpt lat="47.11712" lon="-1.54083">
        <ele>24.91</ele>
        <time>2020-06-27T13:07:44Z</time>
      </trkpt>
      <trkpt lat="47.1172" lon="-1.54065">
        <ele>25.76</ele>
        <time>2020-06-27T13:07:46Z</time>
      </trkpt>
      <trkpt lat="47.11727" lon="-1.54046">
        <ele>26.37</ele>
        <time>2020-06-27T13:07:48Z</time>
      </trkpt>
      <trkpt lat="47.11735" lon="-1.54026">
        <ele>25.21</ele>
        <time>2020-06-27T13:07:50Z</time>
      </trkpt>
      <trkpt lat="47.11742" lon="-1.54009">
        <ele>24.97</ele>
        <time>2020-06-27T13:07:52Z</time>
      </trkpt>
      <trkpt lat="47.1175" lon="-1.53988">
        <ele>25.73</ele>
        <time>2020-06-27T13:07:54Z</time>
      </trkpt>
      <trkpt lat="47.11759" lon="-1.53965">
        <ele>26.28</ele>
        <time>2020-06-27T13:07:56Z</time>
      </trkpt>
      <trkpt lat="47.11764" lon="-1.53953">
        <ele>26.63</ele>
        <time>2020-06-27T13:07:57Z</time>
      </trkpt>
      <trkpt lat="47.11769" lon="-1.53941">
        <ele>26.81</ele>
        <time>2020-06-27T13:07:58Z</time>
      </trkpt>
      <trkpt lat="47.11778" lon="-1.53919">
        <ele>27.06</ele>
        <time>2020-06-27T13:08:00Z</time>
      </trkpt>
      <trkpt lat="47.11782" lon="-1.53907">
        <ele>27</ele>
        <time>2020-06-27T13:08:01Z</time>
      </trkpt>
      <trkpt lat="47.11788" lon="-1.53895">
        <ele>26.58</ele>
        <time>2020-06-27T13:08:02Z</time>
      </trkpt>
      <trkpt lat="47.11794" lon="-1.53882">
        <ele>26.4</ele>
        <time>2020-06-27T13:08:03Z</time>
      </trkpt>
      <trkpt lat="47.118" lon="-1.5387">
        <ele>25.78</ele>
        <time>2020-06-27T13:08:04Z</time>
      </trkpt>
      <trkpt lat="47.11807" lon="-1.53859">
        <ele>25.55</ele>
        <time>2020-06-27T13:08:05Z</time>
      </trkpt>
      <trkpt lat="47.11814" lon="-1.53847">
        <ele>25.31</ele>
        <time>2020-06-27T13:08:06Z</time>
      </trkpt>
      <trkpt lat="47.11821" lon="-1.53835">
        <ele>25.34</ele>
        <time>2020-06-27T13:08:07Z</time>
      </trkpt>
      <trkpt lat="47.11828" lon="-1.53823">
        <ele>25.08</ele>
        <time>2020-06-27T13:08:08Z</time>
      </trkpt>
      <trkpt lat="47.11835" lon="-1.5381">
        <ele>24.85</ele>
        <time>2020-06-27T13:08:09Z</time>
      </trkpt>
      <trkpt lat="47.11842" lon="-1.53798">
        <ele>24.31</ele>
        <time>2020-06-27T13:08:10Z</time>
      </trkpt>
      <trkpt lat="47.11848" lon="-1.53785">
        <ele>24.14</ele>
        <time>2020-06-27T13:08:11Z</time>
      </trkpt>
      <trkpt lat="47.11853" lon="-1.53773">
        <ele>24.09</ele>
        <time>2020-06-27T13:08:12Z</time>
      </trkpt>
      <trkpt lat="47.11858" lon="-1.53761">
        <ele>23.86</ele>
        <time>2020-06-27T13:08:13Z</time>
      </trkpt>
      <trkpt lat="47.11863" lon="-1.53748">
        <ele>23.51</ele>
        <time>2020-06-27T13:08:14Z</time>
      </trkpt>
      <trkpt lat="47.11869" lon="-1.53734">
        <ele>23.05</ele>
        <time>2020-06-27T13:08:15Z</time>
      </trkpt>
      <trkpt lat="47.11874" lon="-1.5372">
        <ele>22.74</ele>
        <time>2020-06-27T13:08:16Z</time>
      </trkpt>
      <trkpt lat="47.11879" lon="-1.53707">
        <ele>22.4</ele>
        <time>2020-06-27T13:08:17Z</time>
      </trkpt>
      <trkpt lat="47.11884" lon="-1.53694">
        <ele>22.05</ele>
        <time>2020-06-27T13:08:18Z</time>
      </trkpt>
      <trkpt lat="47.11889" lon="-1.53681">
        <ele>21.79</ele>
        <time>2020-06-27T13:08:19Z</time>
      </trkpt>
      <trkpt lat="47.11895" lon="-1.53669">
        <ele>21.38</ele>
        <time>2020-06-27T13:08:20Z</time>
      </trkpt>
      <trkpt lat="47.11902" lon="-1.53657">
        <ele>20.81</ele>
        <time>2020-06-27T13:08:21Z</time>
      </trkpt>
      <trkpt lat="47.11908" lon="-1.53646">
        <ele>20.39</ele>
        <time>2020-06-27T13:08:22Z</time>
      </trkpt>
      <trkpt lat="47.11914" lon="-1.53635">
        <ele>19.75</ele>
        <time>2020-06-27T13:08:23Z</time>
      </trkpt>
      <trkpt lat="47.1192" lon="-1.53623">
        <ele>19.14</ele>
        <time>2020-06-27T13:08:24Z</time>
      </trkpt>
      <trkpt lat="47.11926" lon="-1.53612">
        <ele>18.47</ele>
        <time>2020-06-27T13:08:25Z</time>
      </trkpt>
      <trkpt lat="47.11933" lon="-1.53601">
        <ele>17.69</ele>
        <time>2020-06-27T13:08:26Z</time>
      </trkpt>
      <trkpt lat="47.11945" lon="-1.53578">
        <ele>16.13</ele>
        <time>2020-06-27T13:08:28Z</time>
      </trkpt>
      <trkpt lat="47.11951" lon="-1.53566">
        <ele>15.61</ele>
        <time>2020-06-27T13:08:29Z</time>
      </trkpt>
      <trkpt lat="47.11958" lon="-1.53555">
        <ele>15.39</ele>
        <time>2020-06-27T13:08:30Z</time>
      </trkpt>
      <trkpt lat="47.11964" lon="-1.53543">
        <ele>15.2</ele>
        <time>2020-06-27T13:08:31Z</time>
      </trkpt>
      <trkpt lat="47.11971" lon="-1.53531">
        <ele>14.88</ele>
        <time>2020-06-27T13:08:32Z</time>
      </trkpt>
      <trkpt lat="47.11978" lon="-1.53518">
        <ele>14.63</ele>
        <time>2020-06-27T13:08:33Z</time>
      </trkpt>
      <trkpt lat="47.11984" lon="-1.53507">
        <ele>14.51</ele>
        <time>2020-06-27T13:08:34Z</time>
      </trkpt>
      <trkpt lat="47.1199" lon="-1.53497">
        <ele>14.44</ele>
        <time>2020-06-27T13:08:35Z</time>
      </trkpt>
      <trkpt lat="47.11996" lon="-1.53486">
        <ele>14.63</ele>
        <time>2020-06-27T13:08:36Z</time>
      </trkpt>
      <trkpt lat="47.12002" lon="-1.53475">
        <ele>13.94</ele>
        <time>2020-06-27T13:08:37Z</time>
      </trkpt>
      <trkpt lat="47.12008" lon="-1.53464">
        <ele>13.49</ele>
        <time>2020-06-27T13:08:38Z</time>
      </trkpt>
      <trkpt lat="47.12014" lon="-1.53452">
        <ele>12.9</ele>
        <time>2020-06-27T13:08:39Z</time>
      </trkpt>
      <trkpt lat="47.12025" lon="-1.53432">
        <ele>13.02</ele>
        <time>2020-06-27T13:08:41Z</time>
      </trkpt>
      <trkpt lat="47.12032" lon="-1.5342">
        <ele>13.48</ele>
        <time>2020-06-27T13:08:42Z</time>
      </trkpt>
      <trkpt lat="47.12037" lon="-1.53409">
        <ele>13.9</ele>
        <time>2020-06-27T13:08:43Z</time>
      </trkpt>
      <trkpt lat="47.12043" lon="-1.53397">
        <ele>14.35</ele>
        <time>2020-06-27T13:08:44Z</time>
      </trkpt>
      <trkpt lat="47.1205" lon="-1.53384">
        <ele>14.27</ele>
        <time>2020-06-27T13:08:45Z</time>
      </trkpt>
      <trkpt lat="47.12057" lon="-1.53372">
        <ele>14.35</ele>
        <time>2020-06-27T13:08:46Z</time>
      </trkpt>
      <trkpt lat="47.12064" lon="-1.53359">
        <ele>14.35</ele>
        <time>2020-06-27T13:08:47Z</time>
      </trkpt>
      <trkpt lat="47.1207" lon="-1.53347">
        <ele>14.14</ele>
        <time>2020-06-27T13:08:48Z</time>
      </trkpt>
      <trkpt lat="47.12075" lon="-1.53336">
        <ele>13.84</ele>
        <time>2020-06-27T13:08:49Z</time>
      </trkpt>
      <trkpt lat="47.12082" lon="-1.53324">
        <ele>13.56</ele>
        <time>2020-06-27T13:08:50Z</time>
      </trkpt>
      <trkpt lat="47.12089" lon="-1.53311">
        <ele>13.07</ele>
        <time>2020-06-27T13:08:51Z</time>
      </trkpt>
      <trkpt lat="47.12096" lon="-1.53299">
        <ele>12.61</ele>
        <time>2020-06-27T13:08:52Z</time>
      </trkpt>
      <trkpt lat="47.12102" lon="-1.53287">
        <ele>12.23</ele>
        <time>2020-06-27T13:08:53Z</time>
      </trkpt>
      <trkpt lat="47.12108" lon="-1.53275">
        <ele>11.76</ele>
        <time>2020-06-27T13:08:54Z</time>
      </trkpt>
      <trkpt lat="47.12114" lon="-1.53264">
        <ele>11.46</ele>
        <time>2020-06-27T13:08:55Z</time>
      </trkpt>
      <trkpt lat="47.12121" lon="-1.53251">
        <ele>10.99</ele>
        <time>2020-06-27T13:08:56Z</time>
      </trkpt>
      <trkpt lat="47.12127" lon="-1.53239">
        <ele>10.41</ele>
        <time>2020-06-27T13:08:57Z</time>
      </trkpt>
      <trkpt lat="47.12133" lon="-1.53227">
        <ele>10.03</ele>
        <time>2020-06-27T13:08:58Z</time>
      </trkpt>
      <trkpt lat="47.12139" lon="-1.53215">
        <ele>10.04</ele>
        <time>2020-06-27T13:08:59Z</time>
      </trkpt>
      <trkpt lat="47.12145" lon="-1.53204">
        <ele>10.23</ele>
        <time>2020-06-27T13:09:00Z</time>
      </trkpt>
      <trkpt lat="47.12151" lon="-1.53193">
        <ele>10.38</ele>
        <time>2020-06-27T13:09:01Z</time>
      </trkpt>
      <trkpt lat="47.12157" lon="-1.53182">
        <ele>10.9</ele>
        <time>2020-06-27T13:09:02Z</time>
      </trkpt>
      <trkpt lat="47.12163" lon="-1.53169">
        <ele>11.05</ele>
        <time>2020-06-27T13:09:03Z</time>
      </trkpt>
      <trkpt lat="47.1217" lon="-1.53158">
        <ele>11.19</ele>
        <time>2020-06-27T13:09:04Z</time>
      </trkpt>
      <trkpt lat="47.12176" lon="-1.53145">
        <ele>11.02</ele>
        <time>2020-06-27T13:09:05Z</time>
      </trkpt>
      <trkpt lat="47.12182" lon="-1.53135">
        <ele>10.77</ele>
        <time>2020-06-27T13:09:06Z</time>
      </trkpt>
      <trkpt lat="47.12187" lon="-1.53124">
        <ele>10.94</ele>
        <time>2020-06-27T13:09:07Z</time>
      </trkpt>
      <trkpt lat="47.12197" lon="-1.53105">
        <ele>10.78</ele>
        <time>2020-06-27T13:09:09Z</time>
      </trkpt>
      <trkpt lat="47.12207" lon="-1.53085">
        <ele>10.93</ele>
        <time>2020-06-27T13:09:11Z</time>
      </trkpt>
      <trkpt lat="47.12218" lon="-1.53064">
        <ele>10.97</ele>
        <time>2020-06-27T13:09:13Z</time>
      </trkpt>
      <trkpt lat="47.12229" lon="-1.53045">
        <ele>10.37</ele>
        <time>2020-06-27T13:09:15Z</time>
      </trkpt>
      <trkpt lat="47.1224" lon="-1.53026">
        <ele>10.97</ele>
        <time>2020-06-27T13:09:17Z</time>
      </trkpt>
      <trkpt lat="47.1225" lon="-1.53005">
        <ele>11.56</ele>
        <time>2020-06-27T13:09:19Z</time>
      </trkpt>
      <trkpt lat="47.12258" lon="-1.52988">
        <ele>11.6</ele>
        <time>2020-06-27T13:09:21Z</time>
      </trkpt>
      <trkpt lat="47.12267" lon="-1.52969">
        <ele>12.27</ele>
        <time>2020-06-27T13:09:23Z</time>
      </trkpt>
      <trkpt lat="47.12277" lon="-1.5295">
        <ele>13.05</ele>
        <time>2020-06-27T13:09:25Z</time>
      </trkpt>
      <trkpt lat="47.12288" lon="-1.52931">
        <ele>13.32</ele>
        <time>2020-06-27T13:09:27Z</time>
      </trkpt>
      <trkpt lat="47.12299" lon="-1.52911">
        <ele>14.16</ele>
        <time>2020-06-27T13:09:29Z</time>
      </trkpt>
      <trkpt lat="47.12308" lon="-1.52895">
        <ele>14.59</ele>
        <time>2020-06-27T13:09:31Z</time>
      </trkpt>
      <trkpt lat="47.12318" lon="-1.52878">
        <ele>14.48</ele>
        <time>2020-06-27T13:09:33Z</time>
      </trkpt>
      <trkpt lat="47.12328" lon="-1.52861">
        <ele>14.38</ele>
        <time>2020-06-27T13:09:35Z</time>
      </trkpt>
      <trkpt lat="47.12339" lon="-1.52847">
        <ele>15.27</ele>
        <time>2020-06-27T13:09:37Z</time>
      </trkpt>
      <trkpt lat="47.1235" lon="-1.52832">
        <ele>15.63</ele>
        <time>2020-06-27T13:09:39Z</time>
      </trkpt>
      <trkpt lat="47.12363" lon="-1.52819">
        <ele>14.57</ele>
        <time>2020-06-27T13:09:41Z</time>
      </trkpt>
      <trkpt lat="47.12376" lon="-1.52807">
        <ele>14.14</ele>
        <time>2020-06-27T13:09:43Z</time>
      </trkpt>
      <trkpt lat="47.12389" lon="-1.52795">
        <ele>14.79</ele>
        <time>2020-06-27T13:09:45Z</time>
      </trkpt>
      <trkpt lat="47.12403" lon="-1.52783">
        <ele>15.64</ele>
        <time>2020-06-27T13:09:47Z</time>
      </trkpt>
      <trkpt lat="47.12415" lon="-1.52771">
        <ele>16.72</ele>
        <time>2020-06-27T13:09:49Z</time>
      </trkpt>
      <trkpt lat="47.12428" lon="-1.52759">
        <ele>17.57</ele>
        <time>2020-06-27T13:09:51Z</time>
      </trkpt>
      <trkpt lat="47.1244" lon="-1.52748">
        <ele>17.14</ele>
        <time>2020-06-27T13:09:53Z</time>
      </trkpt>
      <trkpt lat="47.12452" lon="-1.52739">
        <ele>17.38</ele>
        <time>2020-06-27T13:09:55Z</time>
      </trkpt>
      <trkpt lat="47.12465" lon="-1.52733">
        <ele>17.6</ele>
        <time>2020-06-27T13:09:57Z</time>
      </trkpt>
      <trkpt lat="47.12479" lon="-1.52731">
        <ele>17.63</ele>
        <time>2020-06-27T13:09:59Z</time>
      </trkpt>
      <trkpt lat="47.12493" lon="-1.5273">
        <ele>18.34</ele>
        <time>2020-06-27T13:10:01Z</time>
      </trkpt>
      <trkpt lat="47.12505" lon="-1.52728">
        <ele>20.14</ele>
        <time>2020-06-27T13:10:03Z</time>
      </trkpt>
      <trkpt lat="47.12506" lon="-1.52708">
        <ele>22.15</ele>
        <time>2020-06-27T13:10:06Z</time>
      </trkpt>
      <trkpt lat="47.12495" lon="-1.52701">
        <ele>22.65</ele>
        <time>2020-06-27T13:10:08Z</time>
      </trkpt>
      <trkpt lat="47.12484" lon="-1.52696">
        <ele>22.92</ele>
        <time>2020-06-27T13:10:10Z</time>
      </trkpt>
      <trkpt lat="47.12473" lon="-1.52694">
        <ele>23.36</ele>
        <time>2020-06-27T13:10:12Z</time>
      </trkpt>
      <trkpt lat="47.12461" lon="-1.52693">
        <ele>23.91</ele>
        <time>2020-06-27T13:10:14Z</time>
      </trkpt>
      <trkpt lat="47.12451" lon="-1.52691">
        <ele>23.39</ele>
        <time>2020-06-27T13:10:16Z</time>
      </trkpt>
      <trkpt lat="47.12439" lon="-1.52689">
        <ele>23.41</ele>
        <time>2020-06-27T13:10:18Z</time>
      </trkpt>
      <trkpt lat="47.12426" lon="-1.52687">
        <ele>24.42</ele>
        <time>2020-06-27T13:10:20Z</time>
      </trkpt>
      <trkpt lat="47.12414" lon="-1.52685">
        <ele>25.68</ele>
        <time>2020-06-27T13:10:22Z</time>
      </trkpt>
      <trkpt lat="47.12402" lon="-1.52681">
        <ele>25.88</ele>
        <time>2020-06-27T13:10:24Z</time>
      </trkpt>
      <trkpt lat="47.12389" lon="-1.52677">
        <ele>25.85</ele>
        <time>2020-06-27T13:10:26Z</time>
      </trkpt>
      <trkpt lat="47.12373" lon="-1.52673">
        <ele>24.52</ele>
        <time>2020-06-27T13:10:28Z</time>
      </trkpt>
      <trkpt lat="47.12358" lon="-1.5267">
        <ele>23.56</ele>
        <time>2020-06-27T13:10:30Z</time>
      </trkpt>
      <trkpt lat="47.12343" lon="-1.52665">
        <ele>22.91</ele>
        <time>2020-06-27T13:10:32Z</time>
      </trkpt>
      <trkpt lat="47.12334" lon="-1.52662">
        <ele>22.46</ele>
        <time>2020-06-27T13:10:33Z</time>
      </trkpt>
      <trkpt lat="47.12325" lon="-1.52658">
        <ele>21.69</ele>
        <time>2020-06-27T13:10:34Z</time>
      </trkpt>
      <trkpt lat="47.12308" lon="-1.52652">
        <ele>20.82</ele>
        <time>2020-06-27T13:10:36Z</time>
      </trkpt>
      <trkpt lat="47.12293" lon="-1.52647">
        <ele>20.04</ele>
        <time>2020-06-27T13:10:38Z</time>
      </trkpt>
      <trkpt lat="47.12278" lon="-1.5264">
        <ele>19.2</ele>
        <time>2020-06-27T13:10:40Z</time>
      </trkpt>
      <trkpt lat="47.12263" lon="-1.52631">
        <ele>17.96</ele>
        <time>2020-06-27T13:10:42Z</time>
      </trkpt>
      <trkpt lat="47.12248" lon="-1.52622">
        <ele>17.78</ele>
        <time>2020-06-27T13:10:44Z</time>
      </trkpt>
      <trkpt lat="47.12231" lon="-1.52614">
        <ele>17.34</ele>
        <time>2020-06-27T13:10:46Z</time>
      </trkpt>
      <trkpt lat="47.12216" lon="-1.52607">
        <ele>16.64</ele>
        <time>2020-06-27T13:10:48Z</time>
      </trkpt>
      <trkpt lat="47.12201" lon="-1.526">
        <ele>16.62</ele>
        <time>2020-06-27T13:10:50Z</time>
      </trkpt>
      <trkpt lat="47.12187" lon="-1.52595">
        <ele>16.57</ele>
        <time>2020-06-27T13:10:52Z</time>
      </trkpt>
      <trkpt lat="47.12172" lon="-1.52591">
        <ele>16.58</ele>
        <time>2020-06-27T13:10:54Z</time>
      </trkpt>
      <trkpt lat="47.12158" lon="-1.52589">
        <ele>16.88</ele>
        <time>2020-06-27T13:10:56Z</time>
      </trkpt>
      <trkpt lat="47.12142" lon="-1.52588">
        <ele>16.82</ele>
        <time>2020-06-27T13:10:58Z</time>
      </trkpt>
      <trkpt lat="47.12128" lon="-1.52588">
        <ele>17.15</ele>
        <time>2020-06-27T13:11:00Z</time>
      </trkpt>
      <trkpt lat="47.12114" lon="-1.52588">
        <ele>17.71</ele>
        <time>2020-06-27T13:11:02Z</time>
      </trkpt>
      <trkpt lat="47.12099" lon="-1.52588">
        <ele>17.59</ele>
        <time>2020-06-27T13:11:04Z</time>
      </trkpt>
      <trkpt lat="47.12084" lon="-1.52588">
        <ele>17.46</ele>
        <time>2020-06-27T13:11:06Z</time>
      </trkpt>
      <trkpt lat="47.12069" lon="-1.52589">
        <ele>17.83</ele>
        <time>2020-06-27T13:11:08Z</time>
      </trkpt>
      <trkpt lat="47.12054" lon="-1.52589">
        <ele>18.34</ele>
        <time>2020-06-27T13:11:10Z</time>
      </trkpt>
      <trkpt lat="47.12039" lon="-1.5259">
        <ele>18.68</ele>
        <time>2020-06-27T13:11:12Z</time>
      </trkpt>
      <trkpt lat="47.12025" lon="-1.52589">
        <ele>18.29</ele>
        <time>2020-06-27T13:11:14Z</time>
      </trkpt>
      <trkpt lat="47.12011" lon="-1.52587">
        <ele>18.38</ele>
        <time>2020-06-27T13:11:16Z</time>
      </trkpt>
      <trkpt lat="47.11997" lon="-1.52583">
        <ele>17.51</ele>
        <time>2020-06-27T13:11:18Z</time>
      </trkpt>
      <trkpt lat="47.11982" lon="-1.52579">
        <ele>16.71</ele>
        <time>2020-06-27T13:11:20Z</time>
      </trkpt>
      <trkpt lat="47.11968" lon="-1.52573">
        <ele>15.6</ele>
        <time>2020-06-27T13:11:22Z</time>
      </trkpt>
      <trkpt lat="47.11954" lon="-1.52565">
        <ele>14.7</ele>
        <time>2020-06-27T13:11:24Z</time>
      </trkpt>
      <trkpt lat="47.1194" lon="-1.52556">
        <ele>14.29</ele>
        <time>2020-06-27T13:11:26Z</time>
      </trkpt>
      <trkpt lat="47.11925" lon="-1.52545">
        <ele>13.88</ele>
        <time>2020-06-27T13:11:28Z</time>
      </trkpt>
      <trkpt lat="47.11916" lon="-1.52539">
        <ele>13.68</ele>
        <time>2020-06-27T13:11:29Z</time>
      </trkpt>
      <trkpt lat="47.11908" lon="-1.52532">
        <ele>13.27</ele>
        <time>2020-06-27T13:11:30Z</time>
      </trkpt>
      <trkpt lat="47.11895" lon="-1.52519">
        <ele>13.3</ele>
        <time>2020-06-27T13:11:32Z</time>
      </trkpt>
      <trkpt lat="47.11883" lon="-1.52506">
        <ele>13.5</ele>
        <time>2020-06-27T13:11:34Z</time>
      </trkpt>
      <trkpt lat="47.11872" lon="-1.52494">
        <ele>13.57</ele>
        <time>2020-06-27T13:11:36Z</time>
      </trkpt>
      <trkpt lat="47.11861" lon="-1.52482">
        <ele>14.2</ele>
        <time>2020-06-27T13:11:38Z</time>
      </trkpt>
      <trkpt lat="47.11852" lon="-1.52469">
        <ele>14.33</ele>
        <time>2020-06-27T13:11:40Z</time>
      </trkpt>
      <trkpt lat="47.11843" lon="-1.52456">
        <ele>14.08</ele>
        <time>2020-06-27T13:11:42Z</time>
      </trkpt>
      <trkpt lat="47.11833" lon="-1.52443">
        <ele>13.32</ele>
        <time>2020-06-27T13:11:44Z</time>
      </trkpt>
      <trkpt lat="47.11823" lon="-1.52431">
        <ele>14.03</ele>
        <time>2020-06-27T13:11:46Z</time>
      </trkpt>
      <trkpt lat="47.11814" lon="-1.52417">
        <ele>14.96</ele>
        <time>2020-06-27T13:11:48Z</time>
      </trkpt>
      <trkpt lat="47.11806" lon="-1.52406">
        <ele>15.93</ele>
        <time>2020-06-27T13:11:50Z</time>
      </trkpt>
      <trkpt lat="47.11796" lon="-1.52392">
        <ele>16.41</ele>
        <time>2020-06-27T13:11:52Z</time>
      </trkpt>
      <trkpt lat="47.11787" lon="-1.52379">
        <ele>16.63</ele>
        <time>2020-06-27T13:11:54Z</time>
      </trkpt>
      <trkpt lat="47.11778" lon="-1.52368">
        <ele>17.08</ele>
        <time>2020-06-27T13:11:56Z</time>
      </trkpt>
      <trkpt lat="47.11769" lon="-1.52356">
        <ele>17.65</ele>
        <time>2020-06-27T13:11:58Z</time>
      </trkpt>
      <trkpt lat="47.11759" lon="-1.52343">
        <ele>17.06</ele>
        <time>2020-06-27T13:12:00Z</time>
      </trkpt>
      <trkpt lat="47.11751" lon="-1.52331">
        <ele>16.96</ele>
        <time>2020-06-27T13:12:02Z</time>
      </trkpt>
      <trkpt lat="47.11742" lon="-1.52319">
        <ele>17.1</ele>
        <time>2020-06-27T13:12:04Z</time>
      </trkpt>
      <trkpt lat="47.11734" lon="-1.52309">
        <ele>18.1</ele>
        <time>2020-06-27T13:12:06Z</time>
      </trkpt>
      <trkpt lat="47.11725" lon="-1.52298">
        <ele>19.11</ele>
        <time>2020-06-27T13:12:08Z</time>
      </trkpt>
      <trkpt lat="47.11715" lon="-1.52288">
        <ele>20.55</ele>
        <time>2020-06-27T13:12:10Z</time>
      </trkpt>
      <trkpt lat="47.11703" lon="-1.52279">
        <ele>21.16</ele>
        <time>2020-06-27T13:12:12Z</time>
      </trkpt>
      <trkpt lat="47.11691" lon="-1.52272">
        <ele>21.56</ele>
        <time>2020-06-27T13:12:14Z</time>
      </trkpt>
      <trkpt lat="47.11678" lon="-1.52266">
        <ele>20.61</ele>
        <time>2020-06-27T13:12:16Z</time>
      </trkpt>
      <trkpt lat="47.11663" lon="-1.52257">
        <ele>19.01</ele>
        <time>2020-06-27T13:12:18Z</time>
      </trkpt>
      <trkpt lat="47.11647" lon="-1.52249">
        <ele>17.45</ele>
        <time>2020-06-27T13:12:20Z</time>
      </trkpt>
      <trkpt lat="47.11631" lon="-1.52241">
        <ele>15.87</ele>
        <time>2020-06-27T13:12:22Z</time>
      </trkpt>
      <trkpt lat="47.11616" lon="-1.52232">
        <ele>15.35</ele>
        <time>2020-06-27T13:12:24Z</time>
      </trkpt>
      <trkpt lat="47.11602" lon="-1.52223">
        <ele>15.13</ele>
        <time>2020-06-27T13:12:26Z</time>
      </trkpt>
      <trkpt lat="47.11587" lon="-1.52211">
        <ele>14.99</ele>
        <time>2020-06-27T13:12:28Z</time>
      </trkpt>
      <trkpt lat="47.11573" lon="-1.52194">
        <ele>14.68</ele>
        <time>2020-06-27T13:12:30Z</time>
      </trkpt>
      <trkpt lat="47.11561" lon="-1.52178">
        <ele>14.91</ele>
        <time>2020-06-27T13:12:32Z</time>
      </trkpt>
      <trkpt lat="47.11549" lon="-1.52159">
        <ele>15.32</ele>
        <time>2020-06-27T13:12:34Z</time>
      </trkpt>
      <trkpt lat="47.1154" lon="-1.52141">
        <ele>15.56</ele>
        <time>2020-06-27T13:12:36Z</time>
      </trkpt>
      <trkpt lat="47.11529" lon="-1.52121">
        <ele>14.63</ele>
        <time>2020-06-27T13:12:38Z</time>
      </trkpt>
      <trkpt lat="47.11519" lon="-1.52103">
        <ele>12.9</ele>
        <time>2020-06-27T13:12:40Z</time>
      </trkpt>
      <trkpt lat="47.11508" lon="-1.52084">
        <ele>11.5</ele>
        <time>2020-06-27T13:12:42Z</time>
      </trkpt>
      <trkpt lat="47.11498" lon="-1.52067">
        <ele>10.5</ele>
        <time>2020-06-27T13:12:44Z</time>
      </trkpt>
      <trkpt lat="47.11488" lon="-1.52048">
        <ele>9.62</ele>
        <time>2020-06-27T13:12:46Z</time>
      </trkpt>
      <trkpt lat="47.11478" lon="-1.5203">
        <ele>9.32</ele>
        <time>2020-06-27T13:12:48Z</time>
      </trkpt>
      <trkpt lat="47.11469" lon="-1.52012">
        <ele>9.57</ele>
        <time>2020-06-27T13:12:50Z</time>
      </trkpt>
      <trkpt lat="47.1146" lon="-1.51994">
        <ele>10.24</ele>
        <time>2020-06-27T13:12:52Z</time>
      </trkpt>
      <trkpt lat="47.11451" lon="-1.51977">
        <ele>11.08</ele>
        <time>2020-06-27T13:12:54Z</time>
      </trkpt>
      <trkpt lat="47.11441" lon="-1.51959">
        <ele>12.59</ele>
        <time>2020-06-27T13:12:56Z</time>
      </trkpt>
      <trkpt lat="47.11431" lon="-1.51941">
        <ele>13.78</ele>
        <time>2020-06-27T13:12:58Z</time>
      </trkpt>
      <trkpt lat="47.11421" lon="-1.51923">
        <ele>13.11</ele>
        <time>2020-06-27T13:13:00Z</time>
      </trkpt>
      <trkpt lat="47.11412" lon="-1.51906">
        <ele>12.55</ele>
        <time>2020-06-27T13:13:02Z</time>
      </trkpt>
      <trkpt lat="47.11403" lon="-1.51888">
        <ele>12.65</ele>
        <time>2020-06-27T13:13:04Z</time>
      </trkpt>
      <trkpt lat="47.11393" lon="-1.51871">
        <ele>13.79</ele>
        <time>2020-06-27T13:13:06Z</time>
      </trkpt>
      <trkpt lat="47.11384" lon="-1.51855">
        <ele>14.6</ele>
        <time>2020-06-27T13:13:08Z</time>
      </trkpt>
      <trkpt lat="47.11374" lon="-1.51838">
        <ele>14.05</ele>
        <time>2020-06-27T13:13:10Z</time>
      </trkpt>
      <trkpt lat="47.11365" lon="-1.51822">
        <ele>12.97</ele>
        <time>2020-06-27T13:13:12Z</time>
      </trkpt>
      <trkpt lat="47.11356" lon="-1.51807">
        <ele>12.57</ele>
        <time>2020-06-27T13:13:14Z</time>
      </trkpt>
      <trkpt lat="47.11345" lon="-1.51792">
        <ele>13.09</ele>
        <time>2020-06-27T13:13:16Z</time>
      </trkpt>
      <trkpt lat="47.11333" lon="-1.51779">
        <ele>13.42</ele>
        <time>2020-06-27T13:13:18Z</time>
      </trkpt>
      <trkpt lat="47.1132" lon="-1.51767">
        <ele>12.98</ele>
        <time>2020-06-27T13:13:20Z</time>
      </trkpt>
      <trkpt lat="47.11308" lon="-1.51757">
        <ele>12.48</ele>
        <time>2020-06-27T13:13:22Z</time>
      </trkpt>
      <trkpt lat="47.11296" lon="-1.51746">
        <ele>12.69</ele>
        <time>2020-06-27T13:13:24Z</time>
      </trkpt>
      <trkpt lat="47.11284" lon="-1.51737">
        <ele>13.17</ele>
        <time>2020-06-27T13:13:26Z</time>
      </trkpt>
      <trkpt lat="47.11271" lon="-1.51726">
        <ele>13.61</ele>
        <time>2020-06-27T13:13:28Z</time>
      </trkpt>
      <trkpt lat="47.11259" lon="-1.51716">
        <ele>13.58</ele>
        <time>2020-06-27T13:13:30Z</time>
      </trkpt>
      <trkpt lat="47.11246" lon="-1.51704">
        <ele>13.46</ele>
        <time>2020-06-27T13:13:32Z</time>
      </trkpt>
      <trkpt lat="47.11233" lon="-1.51693">
        <ele>13.83</ele>
        <time>2020-06-27T13:13:34Z</time>
      </trkpt>
      <trkpt lat="47.11221" lon="-1.51684">
        <ele>15.28</ele>
        <time>2020-06-27T13:13:36Z</time>
      </trkpt>
      <trkpt lat="47.11208" lon="-1.51673">
        <ele>15.43</ele>
        <time>2020-06-27T13:13:38Z</time>
      </trkpt>
      <trkpt lat="47.11198" lon="-1.51662">
        <ele>15.96</ele>
        <time>2020-06-27T13:13:40Z</time>
      </trkpt>
      <trkpt lat="47.11187" lon="-1.51652">
        <ele>16.19</ele>
        <time>2020-06-27T13:13:42Z</time>
      </trkpt>
      <trkpt lat="47.11177" lon="-1.51639">
        <ele>17.15</ele>
        <time>2020-06-27T13:13:44Z</time>
      </trkpt>
      <trkpt lat="47.11169" lon="-1.51627">
        <ele>17.26</ele>
        <time>2020-06-27T13:13:46Z</time>
      </trkpt>
      <trkpt lat="47.11161" lon="-1.51613">
        <ele>17.08</ele>
        <time>2020-06-27T13:13:48Z</time>
      </trkpt>
      <trkpt lat="47.11151" lon="-1.51598">
        <ele>16.68</ele>
        <time>2020-06-27T13:13:50Z</time>
      </trkpt>
      <trkpt lat="47.11142" lon="-1.51583">
        <ele>15.98</ele>
        <time>2020-06-27T13:13:52Z</time>
      </trkpt>
      <trkpt lat="47.11135" lon="-1.51571">
        <ele>15.76</ele>
        <time>2020-06-27T13:13:54Z</time>
      </trkpt>
      <trkpt lat="47.11128" lon="-1.51559">
        <ele>16.07</ele>
        <time>2020-06-27T13:13:56Z</time>
      </trkpt>
      <trkpt lat="47.1112" lon="-1.51545">
        <ele>17.57</ele>
        <time>2020-06-27T13:13:58Z</time>
      </trkpt>
      <trkpt lat="47.11111" lon="-1.5153">
        <ele>18.47</ele>
        <time>2020-06-27T13:14:00Z</time>
      </trkpt>
      <trkpt lat="47.11103" lon="-1.51518">
        <ele>19.07</ele>
        <time>2020-06-27T13:14:02Z</time>
      </trkpt>
      <trkpt lat="47.11095" lon="-1.51504">
        <ele>19.52</ele>
        <time>2020-06-27T13:14:03Z</time>
      </trkpt>
      <trkpt lat="47.11086" lon="-1.51492">
        <ele>20.31</ele>
        <time>2020-06-27T13:14:05Z</time>
      </trkpt>
      <trkpt lat="47.11077" lon="-1.51481">
        <ele>21.18</ele>
        <time>2020-06-27T13:14:07Z</time>
      </trkpt>
      <trkpt lat="47.11065" lon="-1.51469">
        <ele>21.65</ele>
        <time>2020-06-27T13:14:09Z</time>
      </trkpt>
      <trkpt lat="47.11053" lon="-1.51457">
        <ele>21.48</ele>
        <time>2020-06-27T13:14:11Z</time>
      </trkpt>
      <trkpt lat="47.11043" lon="-1.51449">
        <ele>21.97</ele>
        <time>2020-06-27T13:14:13Z</time>
      </trkpt>
      <trkpt lat="47.11031" lon="-1.51438">
        <ele>22.46</ele>
        <time>2020-06-27T13:14:15Z</time>
      </trkpt>
      <trkpt lat="47.11021" lon="-1.51429">
        <ele>23.07</ele>
        <time>2020-06-27T13:14:17Z</time>
      </trkpt>
      <trkpt lat="47.1101" lon="-1.51418">
        <ele>22.06</ele>
        <time>2020-06-27T13:14:19Z</time>
      </trkpt>
      <trkpt lat="47.10998" lon="-1.51408">
        <ele>21.67</ele>
        <time>2020-06-27T13:14:21Z</time>
      </trkpt>
      <trkpt lat="47.10986" lon="-1.51397">
        <ele>21.79</ele>
        <time>2020-06-27T13:14:23Z</time>
      </trkpt>
      <trkpt lat="47.10975" lon="-1.51387">
        <ele>20.57</ele>
        <time>2020-06-27T13:14:25Z</time>
      </trkpt>
      <trkpt lat="47.10965" lon="-1.51376">
        <ele>20.49</ele>
        <time>2020-06-27T13:14:27Z</time>
      </trkpt>
      <trkpt lat="47.10954" lon="-1.51366">
        <ele>21.51</ele>
        <time>2020-06-27T13:14:29Z</time>
      </trkpt>
      <trkpt lat="47.10942" lon="-1.51354">
        <ele>21.78</ele>
        <time>2020-06-27T13:14:31Z</time>
      </trkpt>
      <trkpt lat="47.1093" lon="-1.51343">
        <ele>22.43</ele>
        <time>2020-06-27T13:14:33Z</time>
      </trkpt>
      <trkpt lat="47.10919" lon="-1.51331">
        <ele>22.34</ele>
        <time>2020-06-27T13:14:35Z</time>
      </trkpt>
      <trkpt lat="47.10907" lon="-1.5132">
        <ele>23.06</ele>
        <time>2020-06-27T13:14:37Z</time>
      </trkpt>
      <trkpt lat="47.10896" lon="-1.5131">
        <ele>24.23</ele>
        <time>2020-06-27T13:14:39Z</time>
      </trkpt>
      <trkpt lat="47.10886" lon="-1.51299">
        <ele>24.57</ele>
        <time>2020-06-27T13:14:41Z</time>
      </trkpt>
      <trkpt lat="47.10874" lon="-1.51288">
        <ele>24.87</ele>
        <time>2020-06-27T13:14:43Z</time>
      </trkpt>
      <trkpt lat="47.10862" lon="-1.51277">
        <ele>25.93</ele>
        <time>2020-06-27T13:14:45Z</time>
      </trkpt>
      <trkpt lat="47.10851" lon="-1.51266">
        <ele>26.65</ele>
        <time>2020-06-27T13:14:47Z</time>
      </trkpt>
      <trkpt lat="47.10839" lon="-1.51255">
        <ele>27.33</ele>
        <time>2020-06-27T13:14:49Z</time>
      </trkpt>
      <trkpt lat="47.10829" lon="-1.51244">
        <ele>27.29</ele>
        <time>2020-06-27T13:14:51Z</time>
      </trkpt>
      <trkpt lat="47.10817" lon="-1.51234">
        <ele>26.66</ele>
        <time>2020-06-27T13:14:53Z</time>
      </trkpt>
      <trkpt lat="47.10806" lon="-1.51225">
        <ele>25.47</ele>
        <time>2020-06-27T13:14:55Z</time>
      </trkpt>
      <trkpt lat="47.10795" lon="-1.51215">
        <ele>24.29</ele>
        <time>2020-06-27T13:14:57Z</time>
      </trkpt>
      <trkpt lat="47.10784" lon="-1.51204">
        <ele>23.02</ele>
        <time>2020-06-27T13:14:59Z</time>
      </trkpt>
      <trkpt lat="47.10773" lon="-1.51194">
        <ele>22.22</ele>
        <time>2020-06-27T13:15:01Z</time>
      </trkpt>
      <trkpt lat="47.10761" lon="-1.51183">
        <ele>21.87</ele>
        <time>2020-06-27T13:15:03Z</time>
      </trkpt>
      <trkpt lat="47.10749" lon="-1.51172">
        <ele>21.27</ele>
        <time>2020-06-27T13:15:05Z</time>
      </trkpt>
      <trkpt lat="47.10738" lon="-1.51162">
        <ele>20.86</ele>
        <time>2020-06-27T13:15:07Z</time>
      </trkpt>
      <trkpt lat="47.10727" lon="-1.51152">
        <ele>20.93</ele>
        <time>2020-06-27T13:15:09Z</time>
      </trkpt>
      <trkpt lat="47.10716" lon="-1.51141">
        <ele>20.49</ele>
        <time>2020-06-27T13:15:11Z</time>
      </trkpt>
      <trkpt lat="47.10705" lon="-1.51128">
        <ele>19.98</ele>
        <time>2020-06-27T13:15:13Z</time>
      </trkpt>
      <trkpt lat="47.10693" lon="-1.51116">
        <ele>19.12</ele>
        <time>2020-06-27T13:15:15Z</time>
      </trkpt>
      <trkpt lat="47.10684" lon="-1.51103">
        <ele>18.38</ele>
        <time>2020-06-27T13:15:17Z</time>
      </trkpt>
      <trkpt lat="47.10676" lon="-1.51082">
        <ele>17.59</ele>
        <time>2020-06-27T13:15:19Z</time>
      </trkpt>
      <trkpt lat="47.10668" lon="-1.51059">
        <ele>16.51</ele>
        <time>2020-06-27T13:15:21Z</time>
      </trkpt>
      <trkpt lat="47.10664" lon="-1.51047">
        <ele>16.57</ele>
        <time>2020-06-27T13:15:22Z</time>
      </trkpt>
      <trkpt lat="47.10657" lon="-1.51027">
        <ele>16.97</ele>
        <time>2020-06-27T13:15:24Z</time>
      </trkpt>
      <trkpt lat="47.10649" lon="-1.51006">
        <ele>16.74</ele>
        <time>2020-06-27T13:15:26Z</time>
      </trkpt>
      <trkpt lat="47.10638" lon="-1.50987">
        <ele>16.88</ele>
        <time>2020-06-27T13:15:28Z</time>
      </trkpt>
      <trkpt lat="47.10626" lon="-1.50972">
        <ele>16.32</ele>
        <time>2020-06-27T13:15:30Z</time>
      </trkpt>
      <trkpt lat="47.10615" lon="-1.5096">
        <ele>15.88</ele>
        <time>2020-06-27T13:15:32Z</time>
      </trkpt>
      <trkpt lat="47.10601" lon="-1.50944">
        <ele>15.5</ele>
        <time>2020-06-27T13:15:34Z</time>
      </trkpt>
      <trkpt lat="47.10588" lon="-1.50929">
        <ele>15.59</ele>
        <time>2020-06-27T13:15:36Z</time>
      </trkpt>
      <trkpt lat="47.10574" lon="-1.50916">
        <ele>15.8</ele>
        <time>2020-06-27T13:15:38Z</time>
      </trkpt>
      <trkpt lat="47.1056" lon="-1.50901">
        <ele>15.57</ele>
        <time>2020-06-27T13:15:40Z</time>
      </trkpt>
      <trkpt lat="47.10546" lon="-1.50887">
        <ele>15.41</ele>
        <time>2020-06-27T13:15:42Z</time>
      </trkpt>
      <trkpt lat="47.10534" lon="-1.50872">
        <ele>15.2</ele>
        <time>2020-06-27T13:15:44Z</time>
      </trkpt>
      <trkpt lat="47.10521" lon="-1.50856">
        <ele>15.56</ele>
        <time>2020-06-27T13:15:46Z</time>
      </trkpt>
      <trkpt lat="47.1051" lon="-1.50838">
        <ele>15.39</ele>
        <time>2020-06-27T13:15:48Z</time>
      </trkpt>
      <trkpt lat="47.10499" lon="-1.50818">
        <ele>15.5</ele>
        <time>2020-06-27T13:15:50Z</time>
      </trkpt>
      <trkpt lat="47.1049" lon="-1.508">
        <ele>16.3</ele>
        <time>2020-06-27T13:15:52Z</time>
      </trkpt>
      <trkpt lat="47.10479" lon="-1.5078">
        <ele>15.67</ele>
        <time>2020-06-27T13:15:54Z</time>
      </trkpt>
      <trkpt lat="47.10473" lon="-1.50769">
        <ele>15.13</ele>
        <time>2020-06-27T13:15:55Z</time>
      </trkpt>
      <trkpt lat="47.10464" lon="-1.50748">
        <ele>14</ele>
        <time>2020-06-27T13:15:57Z</time>
      </trkpt>
      <trkpt lat="47.10457" lon="-1.50726">
        <ele>13.96</ele>
        <time>2020-06-27T13:15:59Z</time>
      </trkpt>
      <trkpt lat="47.10452" lon="-1.50704">
        <ele>13.64</ele>
        <time>2020-06-27T13:16:01Z</time>
      </trkpt>
      <trkpt lat="47.10448" lon="-1.50692">
        <ele>13.85</ele>
        <time>2020-06-27T13:16:02Z</time>
      </trkpt>
      <trkpt lat="47.10444" lon="-1.50669">
        <ele>14.1</ele>
        <time>2020-06-27T13:16:04Z</time>
      </trkpt>
      <trkpt lat="47.10438" lon="-1.5065">
        <ele>14.25</ele>
        <time>2020-06-27T13:16:06Z</time>
      </trkpt>
      <trkpt lat="47.10426" lon="-1.50635">
        <ele>14.38</ele>
        <time>2020-06-27T13:16:08Z</time>
      </trkpt>
      <trkpt lat="47.10415" lon="-1.50622">
        <ele>13.31</ele>
        <time>2020-06-27T13:16:10Z</time>
      </trkpt>
      <trkpt lat="47.10401" lon="-1.50611">
        <ele>12.67</ele>
        <time>2020-06-27T13:16:12Z</time>
      </trkpt>
      <trkpt lat="47.1039" lon="-1.50602">
        <ele>12.03</ele>
        <time>2020-06-27T13:16:14Z</time>
      </trkpt>
      <trkpt lat="47.10378" lon="-1.50587">
        <ele>12.56</ele>
        <time>2020-06-27T13:16:16Z</time>
      </trkpt>
      <trkpt lat="47.10368" lon="-1.50571">
        <ele>12.68</ele>
        <time>2020-06-27T13:16:18Z</time>
      </trkpt>
      <trkpt lat="47.10356" lon="-1.50554">
        <ele>13.18</ele>
        <time>2020-06-27T13:16:20Z</time>
      </trkpt>
      <trkpt lat="47.10347" lon="-1.5054">
        <ele>14.28</ele>
        <time>2020-06-27T13:16:22Z</time>
      </trkpt>
      <trkpt lat="47.10337" lon="-1.50524">
        <ele>15.58</ele>
        <time>2020-06-27T13:16:24Z</time>
      </trkpt>
      <trkpt lat="47.10327" lon="-1.50509">
        <ele>15.99</ele>
        <time>2020-06-27T13:16:26Z</time>
      </trkpt>
      <trkpt lat="47.10318" lon="-1.50493">
        <ele>15.79</ele>
        <time>2020-06-27T13:16:28Z</time>
      </trkpt>
      <trkpt lat="47.10307" lon="-1.50474">
        <ele>15.28</ele>
        <time>2020-06-27T13:16:30Z</time>
      </trkpt>
      <trkpt lat="47.10299" lon="-1.5046">
        <ele>14.17</ele>
        <time>2020-06-27T13:16:32Z</time>
      </trkpt>
      <trkpt lat="47.1029" lon="-1.50444">
        <ele>13.45</ele>
        <time>2020-06-27T13:16:34Z</time>
      </trkpt>
      <trkpt lat="47.1028" lon="-1.50429">
        <ele>13.44</ele>
        <time>2020-06-27T13:16:36Z</time>
      </trkpt>
      <trkpt lat="47.1027" lon="-1.50412">
        <ele>13.92</ele>
        <time>2020-06-27T13:16:38Z</time>
      </trkpt>
      <trkpt lat="47.10262" lon="-1.50398">
        <ele>14.5</ele>
        <time>2020-06-27T13:16:40Z</time>
      </trkpt>
      <trkpt lat="47.10253" lon="-1.50383">
        <ele>14.96</ele>
        <time>2020-06-27T13:16:42Z</time>
      </trkpt>
      <trkpt lat="47.10243" lon="-1.50369">
        <ele>15.51</ele>
        <time>2020-06-27T13:16:44Z</time>
      </trkpt>
      <trkpt lat="47.10234" lon="-1.50353">
        <ele>15.5</ele>
        <time>2020-06-27T13:16:46Z</time>
      </trkpt>
      <trkpt lat="47.10226" lon="-1.50339">
        <ele>15.06</ele>
        <time>2020-06-27T13:16:48Z</time>
      </trkpt>
      <trkpt lat="47.10218" lon="-1.50327">
        <ele>15.48</ele>
        <time>2020-06-27T13:16:50Z</time>
      </trkpt>
      <trkpt lat="47.10211" lon="-1.50316">
        <ele>16.5</ele>
        <time>2020-06-27T13:16:52Z</time>
      </trkpt>
      <trkpt lat="47.102" lon="-1.50303">
        <ele>16.36</ele>
        <time>2020-06-27T13:16:54Z</time>
      </trkpt>
      <trkpt lat="47.10191" lon="-1.50293">
        <ele>16.28</ele>
        <time>2020-06-27T13:16:56Z</time>
      </trkpt>
      <trkpt lat="47.10181" lon="-1.50285">
        <ele>16.43</ele>
        <time>2020-06-27T13:16:58Z</time>
      </trkpt>
      <trkpt lat="47.10172" lon="-1.50279">
        <ele>16.63</ele>
        <time>2020-06-27T13:17:00Z</time>
      </trkpt>
      <trkpt lat="47.10161" lon="-1.50271">
        <ele>15.82</ele>
        <time>2020-06-27T13:17:02Z</time>
      </trkpt>
      <trkpt lat="47.10151" lon="-1.50264">
        <ele>15.87</ele>
        <time>2020-06-27T13:17:04Z</time>
      </trkpt>
      <trkpt lat="47.1014" lon="-1.50257">
        <ele>15.7</ele>
        <time>2020-06-27T13:17:06Z</time>
      </trkpt>
      <trkpt lat="47.10129" lon="-1.50248">
        <ele>16.49</ele>
        <time>2020-06-27T13:17:08Z</time>
      </trkpt>
      <trkpt lat="47.10119" lon="-1.50241">
        <ele>18.32</ele>
        <time>2020-06-27T13:17:10Z</time>
      </trkpt>
      <trkpt lat="47.10107" lon="-1.50233">
        <ele>19.13</ele>
        <time>2020-06-27T13:17:12Z</time>
      </trkpt>
      <trkpt lat="47.10098" lon="-1.50222">
        <ele>19.34</ele>
        <time>2020-06-27T13:17:14Z</time>
      </trkpt>
      <trkpt lat="47.10091" lon="-1.50209">
        <ele>19.98</ele>
        <time>2020-06-27T13:17:16Z</time>
      </trkpt>
      <trkpt lat="47.10085" lon="-1.50192">
        <ele>20.63</ele>
        <time>2020-06-27T13:17:18Z</time>
      </trkpt>
      <trkpt lat="47.10081" lon="-1.50174">
        <ele>20.78</ele>
        <time>2020-06-27T13:17:20Z</time>
      </trkpt>
      <trkpt lat="47.10079" lon="-1.50156">
        <ele>20.28</ele>
        <time>2020-06-27T13:17:22Z</time>
      </trkpt>
      <trkpt lat="47.10078" lon="-1.50135">
        <ele>19.56</ele>
        <time>2020-06-27T13:17:24Z</time>
      </trkpt>
      <trkpt lat="47.10077" lon="-1.50113">
        <ele>19.74</ele>
        <time>2020-06-27T13:17:26Z</time>
      </trkpt>
      <trkpt lat="47.10077" lon="-1.50095">
        <ele>20.22</ele>
        <time>2020-06-27T13:17:28Z</time>
      </trkpt>
      <trkpt lat="47.10076" lon="-1.50075">
        <ele>21.78</ele>
        <time>2020-06-27T13:17:30Z</time>
      </trkpt>
      <trkpt lat="47.10075" lon="-1.50053">
        <ele>22.74</ele>
        <time>2020-06-27T13:17:32Z</time>
      </trkpt>
      <trkpt lat="47.10076" lon="-1.50032">
        <ele>23.1</ele>
        <time>2020-06-27T13:17:34Z</time>
      </trkpt>
      <trkpt lat="47.10075" lon="-1.50011">
        <ele>23.58</ele>
        <time>2020-06-27T13:17:36Z</time>
      </trkpt>
      <trkpt lat="47.10074" lon="-1.4999">
        <ele>23.66</ele>
        <time>2020-06-27T13:17:38Z</time>
      </trkpt>
      <trkpt lat="47.10073" lon="-1.49971">
        <ele>23.97</ele>
        <time>2020-06-27T13:17:40Z</time>
      </trkpt>
      <trkpt lat="47.10072" lon="-1.49949">
        <ele>24.55</ele>
        <time>2020-06-27T13:17:42Z</time>
      </trkpt>
      <trkpt lat="47.10071" lon="-1.49928">
        <ele>24.19</ele>
        <time>2020-06-27T13:17:44Z</time>
      </trkpt>
      <trkpt lat="47.10069" lon="-1.49907">
        <ele>24.21</ele>
        <time>2020-06-27T13:17:46Z</time>
      </trkpt>
      <trkpt lat="47.10066" lon="-1.49887">
        <ele>24.96</ele>
        <time>2020-06-27T13:17:48Z</time>
      </trkpt>
      <trkpt lat="47.10059" lon="-1.49864">
        <ele>25.09</ele>
        <time>2020-06-27T13:17:50Z</time>
      </trkpt>
      <trkpt lat="47.10052" lon="-1.49842">
        <ele>24.75</ele>
        <time>2020-06-27T13:17:52Z</time>
      </trkpt>
      <trkpt lat="47.10043" lon="-1.49823">
        <ele>25.17</ele>
        <time>2020-06-27T13:17:54Z</time>
      </trkpt>
      <trkpt lat="47.10035" lon="-1.49803">
        <ele>25.24</ele>
        <time>2020-06-27T13:17:56Z</time>
      </trkpt>
      <trkpt lat="47.10026" lon="-1.49782">
        <ele>25.62</ele>
        <time>2020-06-27T13:17:58Z</time>
      </trkpt>
      <trkpt lat="47.10017" lon="-1.49764">
        <ele>24.94</ele>
        <time>2020-06-27T13:18:00Z</time>
      </trkpt>
      <trkpt lat="47.10008" lon="-1.49745">
        <ele>23.41</ele>
        <time>2020-06-27T13:18:02Z</time>
      </trkpt>
      <trkpt lat="47.09997" lon="-1.49722">
        <ele>22.46</ele>
        <time>2020-06-27T13:18:04Z</time>
      </trkpt>
      <trkpt lat="47.0999" lon="-1.49705">
        <ele>21.72</ele>
        <time>2020-06-27T13:18:06Z</time>
      </trkpt>
      <trkpt lat="47.09983" lon="-1.49687">
        <ele>21.88</ele>
        <time>2020-06-27T13:18:08Z</time>
      </trkpt>
      <trkpt lat="47.09974" lon="-1.4967">
        <ele>22.03</ele>
        <time>2020-06-27T13:18:10Z</time>
      </trkpt>
      <trkpt lat="47.09966" lon="-1.49652">
        <ele>22.52</ele>
        <time>2020-06-27T13:18:12Z</time>
      </trkpt>
      <trkpt lat="47.09958" lon="-1.49633">
        <ele>21.5</ele>
        <time>2020-06-27T13:18:14Z</time>
      </trkpt>
      <trkpt lat="47.0995" lon="-1.49615">
        <ele>21.92</ele>
        <time>2020-06-27T13:18:16Z</time>
      </trkpt>
      <trkpt lat="47.09942" lon="-1.49595">
        <ele>22.79</ele>
        <time>2020-06-27T13:18:18Z</time>
      </trkpt>
      <trkpt lat="47.09934" lon="-1.49579">
        <ele>23.29</ele>
        <time>2020-06-27T13:18:20Z</time>
      </trkpt>
      <trkpt lat="47.09926" lon="-1.49563">
        <ele>23.22</ele>
        <time>2020-06-27T13:18:22Z</time>
      </trkpt>
      <trkpt lat="47.09918" lon="-1.49544">
        <ele>22.83</ele>
        <time>2020-06-27T13:18:24Z</time>
      </trkpt>
      <trkpt lat="47.0991" lon="-1.49528">
        <ele>22.92</ele>
        <time>2020-06-27T13:18:26Z</time>
      </trkpt>
      <trkpt lat="47.09902" lon="-1.49512">
        <ele>23.83</ele>
        <time>2020-06-27T13:18:28Z</time>
      </trkpt>
      <trkpt lat="47.09895" lon="-1.49495">
        <ele>24.48</ele>
        <time>2020-06-27T13:18:30Z</time>
      </trkpt>
      <trkpt lat="47.09888" lon="-1.49476">
        <ele>24.07</ele>
        <time>2020-06-27T13:18:32Z</time>
      </trkpt>
      <trkpt lat="47.09883" lon="-1.4946">
        <ele>24.18</ele>
        <time>2020-06-27T13:18:34Z</time>
      </trkpt>
      <trkpt lat="47.09877" lon="-1.49442">
        <ele>22.74</ele>
        <time>2020-06-27T13:18:36Z</time>
      </trkpt>
      <trkpt lat="47.09874" lon="-1.49423">
        <ele>22.04</ele>
        <time>2020-06-27T13:18:38Z</time>
      </trkpt>
      <trkpt lat="47.09871" lon="-1.49399">
        <ele>21.27</ele>
        <time>2020-06-27T13:18:40Z</time>
      </trkpt>
      <trkpt lat="47.09868" lon="-1.49377">
        <ele>21.82</ele>
        <time>2020-06-27T13:18:42Z</time>
      </trkpt>
      <trkpt lat="47.09865" lon="-1.49356">
        <ele>21.78</ele>
        <time>2020-06-27T13:18:44Z</time>
      </trkpt>
      <trkpt lat="47.09862" lon="-1.49334">
        <ele>22.35</ele>
        <time>2020-06-27T13:18:46Z</time>
      </trkpt>
      <trkpt lat="47.0986" lon="-1.49314">
        <ele>23.79</ele>
        <time>2020-06-27T13:18:48Z</time>
      </trkpt>
      <trkpt lat="47.09857" lon="-1.49294">
        <ele>24.41</ele>
        <time>2020-06-27T13:18:50Z</time>
      </trkpt>
      <trkpt lat="47.09855" lon="-1.49275">
        <ele>25.38</ele>
        <time>2020-06-27T13:18:52Z</time>
      </trkpt>
      <trkpt lat="47.09855" lon="-1.49257">
        <ele>26.16</ele>
        <time>2020-06-27T13:18:54Z</time>
      </trkpt>
      <trkpt lat="47.09854" lon="-1.49236">
        <ele>26.73</ele>
        <time>2020-06-27T13:18:56Z</time>
      </trkpt>
      <trkpt lat="47.09853" lon="-1.49213">
        <ele>26.25</ele>
        <time>2020-06-27T13:18:58Z</time>
      </trkpt>
      <trkpt lat="47.09852" lon="-1.4919">
        <ele>26.06</ele>
        <time>2020-06-27T13:19:00Z</time>
      </trkpt>
      <trkpt lat="47.09851" lon="-1.49167">
        <ele>25.71</ele>
        <time>2020-06-27T13:19:02Z</time>
      </trkpt>
      <trkpt lat="47.09851" lon="-1.49146">
        <ele>24.59</ele>
        <time>2020-06-27T13:19:04Z</time>
      </trkpt>
      <trkpt lat="47.09851" lon="-1.49126">
        <ele>23.46</ele>
        <time>2020-06-27T13:19:06Z</time>
      </trkpt>
      <trkpt lat="47.09852" lon="-1.49103">
        <ele>22.37</ele>
        <time>2020-06-27T13:19:08Z</time>
      </trkpt>
      <trkpt lat="47.09854" lon="-1.4908">
        <ele>20</ele>
        <time>2020-06-27T13:19:10Z</time>
      </trkpt>
      <trkpt lat="47.09853" lon="-1.49059">
        <ele>18.96</ele>
        <time>2020-06-27T13:19:12Z</time>
      </trkpt>
      <trkpt lat="47.09846" lon="-1.49038">
        <ele>19.15</ele>
        <time>2020-06-27T13:19:14Z</time>
      </trkpt>
      <trkpt lat="47.09838" lon="-1.4902">
        <ele>18.73</ele>
        <time>2020-06-27T13:19:16Z</time>
      </trkpt>
      <trkpt lat="47.0983" lon="-1.49004">
        <ele>18.52</ele>
        <time>2020-06-27T13:19:18Z</time>
      </trkpt>
      <trkpt lat="47.09825" lon="-1.48986">
        <ele>19.12</ele>
        <time>2020-06-27T13:19:20Z</time>
      </trkpt>
      <trkpt lat="47.09819" lon="-1.48968">
        <ele>19.01</ele>
        <time>2020-06-27T13:19:22Z</time>
      </trkpt>
      <trkpt lat="47.09808" lon="-1.48958">
        <ele>18.29</ele>
        <time>2020-06-27T13:19:24Z</time>
      </trkpt>
      <trkpt lat="47.09798" lon="-1.48957">
        <ele>17.31</ele>
        <time>2020-06-27T13:19:26Z</time>
      </trkpt>
      <trkpt lat="47.09796" lon="-1.4894">
        <ele>16.69</ele>
        <time>2020-06-27T13:19:29Z</time>
      </trkpt>
      <trkpt lat="47.09799" lon="-1.48922">
        <ele>15.91</ele>
        <time>2020-06-27T13:19:31Z</time>
      </trkpt>
      <trkpt lat="47.09797" lon="-1.489">
        <ele>15.3</ele>
        <time>2020-06-27T13:19:33Z</time>
      </trkpt>
      <trkpt lat="47.09793" lon="-1.48887">
        <ele>15.27</ele>
        <time>2020-06-27T13:19:34Z</time>
      </trkpt>
      <trkpt lat="47.09787" lon="-1.48868">
        <ele>15.72</ele>
        <time>2020-06-27T13:19:36Z</time>
      </trkpt>
      <trkpt lat="47.0978" lon="-1.48848">
        <ele>16.48</ele>
        <time>2020-06-27T13:19:38Z</time>
      </trkpt>
      <trkpt lat="47.09773" lon="-1.48828">
        <ele>17.18</ele>
        <time>2020-06-27T13:19:40Z</time>
      </trkpt>
      <trkpt lat="47.09767" lon="-1.48806">
        <ele>17.81</ele>
        <time>2020-06-27T13:19:42Z</time>
      </trkpt>
      <trkpt lat="47.09764" lon="-1.48785">
        <ele>18.68</ele>
        <time>2020-06-27T13:19:44Z</time>
      </trkpt>
      <trkpt lat="47.09763" lon="-1.48762">
        <ele>19.21</ele>
        <time>2020-06-27T13:19:46Z</time>
      </trkpt>
      <trkpt lat="47.09769" lon="-1.48746">
        <ele>19.34</ele>
        <time>2020-06-27T13:19:48Z</time>
      </trkpt>
      <trkpt lat="47.09781" lon="-1.48734">
        <ele>20.1</ele>
        <time>2020-06-27T13:19:50Z</time>
      </trkpt>
      <trkpt lat="47.09792" lon="-1.48716">
        <ele>20.29</ele>
        <time>2020-06-27T13:19:52Z</time>
      </trkpt>
      <trkpt lat="47.09802" lon="-1.487">
        <ele>20.55</ele>
        <time>2020-06-27T13:19:54Z</time>
      </trkpt>
      <trkpt lat="47.09811" lon="-1.48683">
        <ele>19.73</ele>
        <time>2020-06-27T13:19:56Z</time>
      </trkpt>
      <trkpt lat="47.09817" lon="-1.48673">
        <ele>19.39</ele>
        <time>2020-06-27T13:19:57Z</time>
      </trkpt>
      <trkpt lat="47.09828" lon="-1.48655">
        <ele>18.59</ele>
        <time>2020-06-27T13:19:59Z</time>
      </trkpt>
      <trkpt lat="47.09838" lon="-1.48637">
        <ele>17.99</ele>
        <time>2020-06-27T13:20:01Z</time>
      </trkpt>
      <trkpt lat="47.09846" lon="-1.48622">
        <ele>18.29</ele>
        <time>2020-06-27T13:20:03Z</time>
      </trkpt>
      <trkpt lat="47.09856" lon="-1.48602">
        <ele>17.12</ele>
        <time>2020-06-27T13:20:05Z</time>
      </trkpt>
      <trkpt lat="47.09862" lon="-1.48583">
        <ele>15.56</ele>
        <time>2020-06-27T13:20:07Z</time>
      </trkpt>
      <trkpt lat="47.09866" lon="-1.48562">
        <ele>15.62</ele>
        <time>2020-06-27T13:20:09Z</time>
      </trkpt>
      <trkpt lat="47.09867" lon="-1.48548">
        <ele>14.96</ele>
        <time>2020-06-27T13:20:10Z</time>
      </trkpt>
      <trkpt lat="47.09868" lon="-1.48526">
        <ele>14.42</ele>
        <time>2020-06-27T13:20:12Z</time>
      </trkpt>
      <trkpt lat="47.09869" lon="-1.48501">
        <ele>15.55</ele>
        <time>2020-06-27T13:20:14Z</time>
      </trkpt>
      <trkpt lat="47.09867" lon="-1.48477">
        <ele>18.44</ele>
        <time>2020-06-27T13:20:16Z</time>
      </trkpt>
      <trkpt lat="47.09865" lon="-1.48455">
        <ele>19.85</ele>
        <time>2020-06-27T13:20:18Z</time>
      </trkpt>
      <trkpt lat="47.09861" lon="-1.48431">
        <ele>20.97</ele>
        <time>2020-06-27T13:20:20Z</time>
      </trkpt>
      <trkpt lat="47.09858" lon="-1.48409">
        <ele>22.07</ele>
        <time>2020-06-27T13:20:22Z</time>
      </trkpt>
      <trkpt lat="47.09855" lon="-1.48387">
        <ele>22.52</ele>
        <time>2020-06-27T13:20:24Z</time>
      </trkpt>
      <trkpt lat="47.09853" lon="-1.48366">
        <ele>22.87</ele>
        <time>2020-06-27T13:20:26Z</time>
      </trkpt>
      <trkpt lat="47.09851" lon="-1.48342">
        <ele>23</ele>
        <time>2020-06-27T13:20:28Z</time>
      </trkpt>
      <trkpt lat="47.09849" lon="-1.4832">
        <ele>22.72</ele>
        <time>2020-06-27T13:20:30Z</time>
      </trkpt>
      <trkpt lat="47.09849" lon="-1.48297">
        <ele>22.68</ele>
        <time>2020-06-27T13:20:32Z</time>
      </trkpt>
      <trkpt lat="47.09847" lon="-1.48275">
        <ele>22.4</ele>
        <time>2020-06-27T13:20:34Z</time>
      </trkpt>
      <trkpt lat="47.09844" lon="-1.48252">
        <ele>21.8</ele>
        <time>2020-06-27T13:20:36Z</time>
      </trkpt>
      <trkpt lat="47.09841" lon="-1.4823">
        <ele>20.24</ele>
        <time>2020-06-27T13:20:38Z</time>
      </trkpt>
      <trkpt lat="47.09839" lon="-1.48207">
        <ele>20.29</ele>
        <time>2020-06-27T13:20:40Z</time>
      </trkpt>
      <trkpt lat="47.09837" lon="-1.48184">
        <ele>20.39</ele>
        <time>2020-06-27T13:20:42Z</time>
      </trkpt>
      <trkpt lat="47.09838" lon="-1.48162">
        <ele>20.52</ele>
        <time>2020-06-27T13:20:44Z</time>
      </trkpt>
      <trkpt lat="47.09839" lon="-1.48142">
        <ele>20.2</ele>
        <time>2020-06-27T13:20:46Z</time>
      </trkpt>
      <trkpt lat="47.0984" lon="-1.48121">
        <ele>18.82</ele>
        <time>2020-06-27T13:20:48Z</time>
      </trkpt>
      <trkpt lat="47.09841" lon="-1.48097">
        <ele>17.64</ele>
        <time>2020-06-27T13:20:50Z</time>
      </trkpt>
      <trkpt lat="47.0984" lon="-1.48074">
        <ele>18.13</ele>
        <time>2020-06-27T13:20:52Z</time>
      </trkpt>
      <trkpt lat="47.09839" lon="-1.48051">
        <ele>18.83</ele>
        <time>2020-06-27T13:20:54Z</time>
      </trkpt>
      <trkpt lat="47.09837" lon="-1.4803">
        <ele>19.87</ele>
        <time>2020-06-27T13:20:56Z</time>
      </trkpt>
      <trkpt lat="47.09834" lon="-1.48009">
        <ele>19.76</ele>
        <time>2020-06-27T13:20:58Z</time>
      </trkpt>
      <trkpt lat="47.09832" lon="-1.47987">
        <ele>19.71</ele>
        <time>2020-06-27T13:21:00Z</time>
      </trkpt>
      <trkpt lat="47.0983" lon="-1.47965">
        <ele>19.66</ele>
        <time>2020-06-27T13:21:02Z</time>
      </trkpt>
      <trkpt lat="47.09829" lon="-1.47941">
        <ele>19.54</ele>
        <time>2020-06-27T13:21:04Z</time>
      </trkpt>
      <trkpt lat="47.09828" lon="-1.47922">
        <ele>19.58</ele>
        <time>2020-06-27T13:21:06Z</time>
      </trkpt>
      <trkpt lat="47.09827" lon="-1.47901">
        <ele>18.91</ele>
        <time>2020-06-27T13:21:08Z</time>
      </trkpt>
      <trkpt lat="47.09825" lon="-1.4788">
        <ele>18.57</ele>
        <time>2020-06-27T13:21:10Z</time>
      </trkpt>
      <trkpt lat="47.09823" lon="-1.47861">
        <ele>18.98</ele>
        <time>2020-06-27T13:21:12Z</time>
      </trkpt>
      <trkpt lat="47.09822" lon="-1.47839">
        <ele>18.89</ele>
        <time>2020-06-27T13:21:14Z</time>
      </trkpt>
      <trkpt lat="47.09821" lon="-1.4782">
        <ele>19.91</ele>
        <time>2020-06-27T13:21:16Z</time>
      </trkpt>
      <trkpt lat="47.09818" lon="-1.47802">
        <ele>21.01</ele>
        <time>2020-06-27T13:21:18Z</time>
      </trkpt>
      <trkpt lat="47.09817" lon="-1.47783">
        <ele>21.84</ele>
        <time>2020-06-27T13:21:20Z</time>
      </trkpt>
      <trkpt lat="47.09815" lon="-1.47761">
        <ele>21.88</ele>
        <time>2020-06-27T13:21:22Z</time>
      </trkpt>
      <trkpt lat="47.09815" lon="-1.47741">
        <ele>22.42</ele>
        <time>2020-06-27T13:21:24Z</time>
      </trkpt>
      <trkpt lat="47.09814" lon="-1.47719">
        <ele>23.11</ele>
        <time>2020-06-27T13:21:26Z</time>
      </trkpt>
      <trkpt lat="47.09815" lon="-1.47699">
        <ele>23.73</ele>
        <time>2020-06-27T13:21:28Z</time>
      </trkpt>
      <trkpt lat="47.09816" lon="-1.47679">
        <ele>23.71</ele>
        <time>2020-06-27T13:21:30Z</time>
      </trkpt>
      <trkpt lat="47.09818" lon="-1.47657">
        <ele>23.73</ele>
        <time>2020-06-27T13:21:32Z</time>
      </trkpt>
      <trkpt lat="47.0982" lon="-1.47639">
        <ele>23.74</ele>
        <time>2020-06-27T13:21:34Z</time>
      </trkpt>
      <trkpt lat="47.09823" lon="-1.47619">
        <ele>23.55</ele>
        <time>2020-06-27T13:21:36Z</time>
      </trkpt>
      <trkpt lat="47.09828" lon="-1.47601">
        <ele>22.93</ele>
        <time>2020-06-27T13:21:38Z</time>
      </trkpt>
      <trkpt lat="47.09833" lon="-1.47584">
        <ele>23.19</ele>
        <time>2020-06-27T13:21:40Z</time>
      </trkpt>
      <trkpt lat="47.09839" lon="-1.47566">
        <ele>23.93</ele>
        <time>2020-06-27T13:21:42Z</time>
      </trkpt>
      <trkpt lat="47.09845" lon="-1.47548">
        <ele>23.88</ele>
        <time>2020-06-27T13:21:44Z</time>
      </trkpt>
      <trkpt lat="47.09852" lon="-1.47534">
        <ele>23.67</ele>
        <time>2020-06-27T13:21:46Z</time>
      </trkpt>
      <trkpt lat="47.09859" lon="-1.47518">
        <ele>23.85</ele>
        <time>2020-06-27T13:21:48Z</time>
      </trkpt>
      <trkpt lat="47.09866" lon="-1.47506">
        <ele>24.38</ele>
        <time>2020-06-27T13:21:50Z</time>
      </trkpt>
      <trkpt lat="47.09874" lon="-1.47491">
        <ele>24.62</ele>
        <time>2020-06-27T13:21:52Z</time>
      </trkpt>
      <trkpt lat="47.09882" lon="-1.47477">
        <ele>25.03</ele>
        <time>2020-06-27T13:21:54Z</time>
      </trkpt>
      <trkpt lat="47.09891" lon="-1.47461">
        <ele>25.9</ele>
        <time>2020-06-27T13:21:56Z</time>
      </trkpt>
      <trkpt lat="47.09899" lon="-1.47448">
        <ele>26.14</ele>
        <time>2020-06-27T13:21:58Z</time>
      </trkpt>
      <trkpt lat="47.09906" lon="-1.47435">
        <ele>26.71</ele>
        <time>2020-06-27T13:22:00Z</time>
      </trkpt>
      <trkpt lat="47.09913" lon="-1.47422">
        <ele>26.29</ele>
        <time>2020-06-27T13:22:02Z</time>
      </trkpt>
      <trkpt lat="47.09921" lon="-1.47407">
        <ele>27.5</ele>
        <time>2020-06-27T13:22:04Z</time>
      </trkpt>
      <trkpt lat="47.09928" lon="-1.47393">
        <ele>27.95</ele>
        <time>2020-06-27T13:22:06Z</time>
      </trkpt>
      <trkpt lat="47.09936" lon="-1.47379">
        <ele>28</ele>
        <time>2020-06-27T13:22:08Z</time>
      </trkpt>
      <trkpt lat="47.09944" lon="-1.47364">
        <ele>28.37</ele>
        <time>2020-06-27T13:22:10Z</time>
      </trkpt>
      <trkpt lat="47.09952" lon="-1.47351">
        <ele>28.2</ele>
        <time>2020-06-27T13:22:12Z</time>
      </trkpt>
      <trkpt lat="47.0996" lon="-1.47336">
        <ele>29.49</ele>
        <time>2020-06-27T13:22:14Z</time>
      </trkpt>
      <trkpt lat="47.09967" lon="-1.47322">
        <ele>30.17</ele>
        <time>2020-06-27T13:22:16Z</time>
      </trkpt>
      <trkpt lat="47.09975" lon="-1.47308">
        <ele>30.81</ele>
        <time>2020-06-27T13:22:18Z</time>
      </trkpt>
      <trkpt lat="47.09982" lon="-1.47296">
        <ele>30.65</ele>
        <time>2020-06-27T13:22:20Z</time>
      </trkpt>
      <trkpt lat="47.0999" lon="-1.4728">
        <ele>31.12</ele>
        <time>2020-06-27T13:22:22Z</time>
      </trkpt>
      <trkpt lat="47.09998" lon="-1.47267">
        <ele>32.21</ele>
        <time>2020-06-27T13:22:24Z</time>
      </trkpt>
      <trkpt lat="47.10006" lon="-1.47253">
        <ele>32.61</ele>
        <time>2020-06-27T13:22:26Z</time>
      </trkpt>
      <trkpt lat="47.10012" lon="-1.47239">
        <ele>33.89</ele>
        <time>2020-06-27T13:22:28Z</time>
      </trkpt>
      <trkpt lat="47.1002" lon="-1.47223">
        <ele>33.86</ele>
        <time>2020-06-27T13:22:30Z</time>
      </trkpt>
      <trkpt lat="47.10029" lon="-1.47206">
        <ele>34.21</ele>
        <time>2020-06-27T13:22:32Z</time>
      </trkpt>
      <trkpt lat="47.10037" lon="-1.4719">
        <ele>34.83</ele>
        <time>2020-06-27T13:22:35Z</time>
      </trkpt>
      <trkpt lat="47.10046" lon="-1.47175">
        <ele>34.92</ele>
        <time>2020-06-27T13:22:36Z</time>
      </trkpt>
      <trkpt lat="47.10055" lon="-1.47157">
        <ele>34.02</ele>
        <time>2020-06-27T13:22:38Z</time>
      </trkpt>
      <trkpt lat="47.10063" lon="-1.47141">
        <ele>33.78</ele>
        <time>2020-06-27T13:22:40Z</time>
      </trkpt>
      <trkpt lat="47.10069" lon="-1.47124">
        <ele>33.08</ele>
        <time>2020-06-27T13:22:42Z</time>
      </trkpt>
      <trkpt lat="47.10077" lon="-1.47103">
        <ele>32.67</ele>
        <time>2020-06-27T13:22:44Z</time>
      </trkpt>
      <trkpt lat="47.10085" lon="-1.47081">
        <ele>33.1</ele>
        <time>2020-06-27T13:22:46Z</time>
      </trkpt>
      <trkpt lat="47.10089" lon="-1.47062">
        <ele>33.1</ele>
        <time>2020-06-27T13:22:48Z</time>
      </trkpt>
      <trkpt lat="47.10094" lon="-1.47041">
        <ele>32.98</ele>
        <time>2020-06-27T13:22:50Z</time>
      </trkpt>
      <trkpt lat="47.101" lon="-1.4702">
        <ele>32.9</ele>
        <time>2020-06-27T13:22:52Z</time>
      </trkpt>
      <trkpt lat="47.10105" lon="-1.46998">
        <ele>32.86</ele>
        <time>2020-06-27T13:22:55Z</time>
      </trkpt>
      <trkpt lat="47.1011" lon="-1.46978">
        <ele>33.17</ele>
        <time>2020-06-27T13:22:57Z</time>
      </trkpt>
      <trkpt lat="47.10114" lon="-1.46961">
        <ele>33.34</ele>
        <time>2020-06-27T13:22:59Z</time>
      </trkpt>
      <trkpt lat="47.10119" lon="-1.46941">
        <ele>33.87</ele>
        <time>2020-06-27T13:23:01Z</time>
      </trkpt>
      <trkpt lat="47.10125" lon="-1.46922">
        <ele>33.49</ele>
        <time>2020-06-27T13:23:03Z</time>
      </trkpt>
      <trkpt lat="47.1013" lon="-1.46903">
        <ele>34.12</ele>
        <time>2020-06-27T13:23:05Z</time>
      </trkpt>
      <trkpt lat="47.10135" lon="-1.46883">
        <ele>34.54</ele>
        <time>2020-06-27T13:23:07Z</time>
      </trkpt>
      <trkpt lat="47.10141" lon="-1.46862">
        <ele>34.78</ele>
        <time>2020-06-27T13:23:09Z</time>
      </trkpt>
      <trkpt lat="47.10145" lon="-1.46844">
        <ele>35.79</ele>
        <time>2020-06-27T13:23:11Z</time>
      </trkpt>
      <trkpt lat="47.10148" lon="-1.46826">
        <ele>35.99</ele>
        <time>2020-06-27T13:23:13Z</time>
      </trkpt>
      <trkpt lat="47.10152" lon="-1.46808">
        <ele>35.97</ele>
        <time>2020-06-27T13:23:15Z</time>
      </trkpt>
      <trkpt lat="47.10156" lon="-1.46789">
        <ele>36.56</ele>
        <time>2020-06-27T13:23:17Z</time>
      </trkpt>
      <trkpt lat="47.1016" lon="-1.46771">
        <ele>36.46</ele>
        <time>2020-06-27T13:23:19Z</time>
      </trkpt>
      <trkpt lat="47.10164" lon="-1.46752">
        <ele>36.51</ele>
        <time>2020-06-27T13:23:21Z</time>
      </trkpt>
      <trkpt lat="47.10166" lon="-1.46733">
        <ele>36.49</ele>
        <time>2020-06-27T13:23:23Z</time>
      </trkpt>
      <trkpt lat="47.10168" lon="-1.46716">
        <ele>35.62</ele>
        <time>2020-06-27T13:23:25Z</time>
      </trkpt>
      <trkpt lat="47.10171" lon="-1.46695">
        <ele>36.23</ele>
        <time>2020-06-27T13:23:27Z</time>
      </trkpt>
      <trkpt lat="47.10173" lon="-1.46679">
        <ele>36.38</ele>
        <time>2020-06-27T13:23:29Z</time>
      </trkpt>
      <trkpt lat="47.10177" lon="-1.46662">
        <ele>36.28</ele>
        <time>2020-06-27T13:23:31Z</time>
      </trkpt>
      <trkpt lat="47.1018" lon="-1.46645">
        <ele>35.95</ele>
        <time>2020-06-27T13:23:33Z</time>
      </trkpt>
      <trkpt lat="47.10183" lon="-1.46626">
        <ele>35.72</ele>
        <time>2020-06-27T13:23:35Z</time>
      </trkpt>
      <trkpt lat="47.10184" lon="-1.46611">
        <ele>35.92</ele>
        <time>2020-06-27T13:23:37Z</time>
      </trkpt>
      <trkpt lat="47.10186" lon="-1.46594">
        <ele>36.67</ele>
        <time>2020-06-27T13:23:39Z</time>
      </trkpt>
      <trkpt lat="47.10187" lon="-1.46575">
        <ele>38.25</ele>
        <time>2020-06-27T13:23:41Z</time>
      </trkpt>
      <trkpt lat="47.10189" lon="-1.46557">
        <ele>39.24</ele>
        <time>2020-06-27T13:23:43Z</time>
      </trkpt>
      <trkpt lat="47.1019" lon="-1.46537">
        <ele>39.55</ele>
        <time>2020-06-27T13:23:45Z</time>
      </trkpt>
      <trkpt lat="47.10192" lon="-1.46518">
        <ele>40.18</ele>
        <time>2020-06-27T13:23:47Z</time>
      </trkpt>
      <trkpt lat="47.10192" lon="-1.46498">
        <ele>41.81</ele>
        <time>2020-06-27T13:23:49Z</time>
      </trkpt>
      <trkpt lat="47.10193" lon="-1.46481">
        <ele>43.53</ele>
        <time>2020-06-27T13:23:51Z</time>
      </trkpt>
      <trkpt lat="47.10195" lon="-1.46463">
        <ele>44.64</ele>
        <time>2020-06-27T13:23:53Z</time>
      </trkpt>
      <trkpt lat="47.10196" lon="-1.46445">
        <ele>45.46</ele>
        <time>2020-06-27T13:23:55Z</time>
      </trkpt>
      <trkpt lat="47.10198" lon="-1.46426">
        <ele>46.03</ele>
        <time>2020-06-27T13:23:57Z</time>
      </trkpt>
      <trkpt lat="47.10199" lon="-1.4641">
        <ele>45.99</ele>
        <time>2020-06-27T13:23:59Z</time>
      </trkpt>
      <trkpt lat="47.10201" lon="-1.46393">
        <ele>45.87</ele>
        <time>2020-06-27T13:24:01Z</time>
      </trkpt>
      <trkpt lat="47.10203" lon="-1.46376">
        <ele>46.18</ele>
        <time>2020-06-27T13:24:03Z</time>
      </trkpt>
      <trkpt lat="47.10206" lon="-1.46357">
        <ele>46.99</ele>
        <time>2020-06-27T13:24:05Z</time>
      </trkpt>
      <trkpt lat="47.10212" lon="-1.46342">
        <ele>47.24</ele>
        <time>2020-06-27T13:24:07Z</time>
      </trkpt>
      <trkpt lat="47.10222" lon="-1.46328">
        <ele>47.54</ele>
        <time>2020-06-27T13:24:09Z</time>
      </trkpt>
      <trkpt lat="47.10231" lon="-1.46314">
        <ele>47.55</ele>
        <time>2020-06-27T13:24:11Z</time>
      </trkpt>
      <trkpt lat="47.10241" lon="-1.46301">
        <ele>47.02</ele>
        <time>2020-06-27T13:24:13Z</time>
      </trkpt>
      <trkpt lat="47.10249" lon="-1.46289">
        <ele>46.73</ele>
        <time>2020-06-27T13:24:15Z</time>
      </trkpt>
      <trkpt lat="47.10257" lon="-1.46278">
        <ele>46.33</ele>
        <time>2020-06-27T13:24:17Z</time>
      </trkpt>
      <trkpt lat="47.10266" lon="-1.46266">
        <ele>46.54</ele>
        <time>2020-06-27T13:24:19Z</time>
      </trkpt>
      <trkpt lat="47.10275" lon="-1.4625">
        <ele>47.07</ele>
        <time>2020-06-27T13:24:21Z</time>
      </trkpt>
      <trkpt lat="47.10285" lon="-1.46236">
        <ele>48.21</ele>
        <time>2020-06-27T13:24:24Z</time>
      </trkpt>
      <trkpt lat="47.10292" lon="-1.46223">
        <ele>47.64</ele>
        <time>2020-06-27T13:24:26Z</time>
      </trkpt>
      <trkpt lat="47.10291" lon="-1.46207">
        <ele>46.74</ele>
        <time>2020-06-27T13:24:28Z</time>
      </trkpt>
      <trkpt lat="47.10283" lon="-1.46194">
        <ele>48.07</ele>
        <time>2020-06-27T13:24:30Z</time>
      </trkpt>
      <trkpt lat="47.10272" lon="-1.46179">
        <ele>49.33</ele>
        <time>2020-06-27T13:24:32Z</time>
      </trkpt>
      <trkpt lat="47.10263" lon="-1.46165">
        <ele>50.66</ele>
        <time>2020-06-27T13:24:34Z</time>
      </trkpt>
      <trkpt lat="47.10255" lon="-1.46151">
        <ele>51.87</ele>
        <time>2020-06-27T13:24:36Z</time>
      </trkpt>
      <trkpt lat="47.10246" lon="-1.46136">
        <ele>52.72</ele>
        <time>2020-06-27T13:24:38Z</time>
      </trkpt>
      <trkpt lat="47.10237" lon="-1.46121">
        <ele>53.19</ele>
        <time>2020-06-27T13:24:40Z</time>
      </trkpt>
      <trkpt lat="47.10229" lon="-1.46106">
        <ele>53.45</ele>
        <time>2020-06-27T13:24:42Z</time>
      </trkpt>
      <trkpt lat="47.10222" lon="-1.46092">
        <ele>53.8</ele>
        <time>2020-06-27T13:24:44Z</time>
      </trkpt>
      <trkpt lat="47.10213" lon="-1.46077">
        <ele>53.43</ele>
        <time>2020-06-27T13:24:46Z</time>
      </trkpt>
      <trkpt lat="47.10205" lon="-1.46063">
        <ele>53.33</ele>
        <time>2020-06-27T13:24:48Z</time>
      </trkpt>
      <trkpt lat="47.10196" lon="-1.46047">
        <ele>53.6</ele>
        <time>2020-06-27T13:24:50Z</time>
      </trkpt>
      <trkpt lat="47.10187" lon="-1.46031">
        <ele>53.45</ele>
        <time>2020-06-27T13:24:52Z</time>
      </trkpt>
      <trkpt lat="47.10179" lon="-1.46017">
        <ele>53.07</ele>
        <time>2020-06-27T13:24:54Z</time>
      </trkpt>
      <trkpt lat="47.10171" lon="-1.46002">
        <ele>52.68</ele>
        <time>2020-06-27T13:24:56Z</time>
      </trkpt>
      <trkpt lat="47.10164" lon="-1.45989">
        <ele>52.49</ele>
        <time>2020-06-27T13:24:58Z</time>
      </trkpt>
      <trkpt lat="47.10156" lon="-1.45973">
        <ele>51.96</ele>
        <time>2020-06-27T13:25:00Z</time>
      </trkpt>
      <trkpt lat="47.10148" lon="-1.45958">
        <ele>51.75</ele>
        <time>2020-06-27T13:25:02Z</time>
      </trkpt>
      <trkpt lat="47.1014" lon="-1.45944">
        <ele>52.1</ele>
        <time>2020-06-27T13:25:04Z</time>
      </trkpt>
      <trkpt lat="47.10131" lon="-1.45928">
        <ele>51.99</ele>
        <time>2020-06-27T13:25:06Z</time>
      </trkpt>
      <trkpt lat="47.10123" lon="-1.45913">
        <ele>52.11</ele>
        <time>2020-06-27T13:25:08Z</time>
      </trkpt>
      <trkpt lat="47.10115" lon="-1.45898">
        <ele>52.56</ele>
        <time>2020-06-27T13:25:10Z</time>
      </trkpt>
      <trkpt lat="47.10105" lon="-1.45881">
        <ele>52.34</ele>
        <time>2020-06-27T13:25:12Z</time>
      </trkpt>
      <trkpt lat="47.10096" lon="-1.45865">
        <ele>52.82</ele>
        <time>2020-06-27T13:25:14Z</time>
      </trkpt>
      <trkpt lat="47.10085" lon="-1.45847">
        <ele>53.66</ele>
        <time>2020-06-27T13:25:16Z</time>
      </trkpt>
      <trkpt lat="47.10076" lon="-1.45831">
        <ele>53.97</ele>
        <time>2020-06-27T13:25:18Z</time>
      </trkpt>
      <trkpt lat="47.10067" lon="-1.45813">
        <ele>53.5</ele>
        <time>2020-06-27T13:25:20Z</time>
      </trkpt>
      <trkpt lat="47.10057" lon="-1.45794">
        <ele>52.88</ele>
        <time>2020-06-27T13:25:22Z</time>
      </trkpt>
      <trkpt lat="47.10049" lon="-1.45779">
        <ele>53.12</ele>
        <time>2020-06-27T13:25:24Z</time>
      </trkpt>
      <trkpt lat="47.10041" lon="-1.45762">
        <ele>53.74</ele>
        <time>2020-06-27T13:25:26Z</time>
      </trkpt>
      <trkpt lat="47.10031" lon="-1.45744">
        <ele>53.39</ele>
        <time>2020-06-27T13:25:28Z</time>
      </trkpt>
      <trkpt lat="47.10021" lon="-1.45727">
        <ele>52.87</ele>
        <time>2020-06-27T13:25:30Z</time>
      </trkpt>
      <trkpt lat="47.10011" lon="-1.45708">
        <ele>52.1</ele>
        <time>2020-06-27T13:25:32Z</time>
      </trkpt>
      <trkpt lat="47.10002" lon="-1.45691">
        <ele>51.02</ele>
        <time>2020-06-27T13:25:34Z</time>
      </trkpt>
      <trkpt lat="47.09991" lon="-1.45671">
        <ele>51.17</ele>
        <time>2020-06-27T13:25:36Z</time>
      </trkpt>
      <trkpt lat="47.09983" lon="-1.45654">
        <ele>51.77</ele>
        <time>2020-06-27T13:25:38Z</time>
      </trkpt>
      <trkpt lat="47.09975" lon="-1.45636">
        <ele>52.48</ele>
        <time>2020-06-27T13:25:40Z</time>
      </trkpt>
      <trkpt lat="47.09965" lon="-1.45617">
        <ele>52.72</ele>
        <time>2020-06-27T13:25:42Z</time>
      </trkpt>
      <trkpt lat="47.09957" lon="-1.45599">
        <ele>52.75</ele>
        <time>2020-06-27T13:25:44Z</time>
      </trkpt>
      <trkpt lat="47.09948" lon="-1.45582">
        <ele>52.44</ele>
        <time>2020-06-27T13:25:46Z</time>
      </trkpt>
      <trkpt lat="47.0994" lon="-1.45566">
        <ele>52.21</ele>
        <time>2020-06-27T13:25:48Z</time>
      </trkpt>
      <trkpt lat="47.0993" lon="-1.45548">
        <ele>52.11</ele>
        <time>2020-06-27T13:25:50Z</time>
      </trkpt>
      <trkpt lat="47.09921" lon="-1.45529">
        <ele>51.88</ele>
        <time>2020-06-27T13:25:52Z</time>
      </trkpt>
      <trkpt lat="47.09914" lon="-1.45511">
        <ele>52.05</ele>
        <time>2020-06-27T13:25:54Z</time>
      </trkpt>
      <trkpt lat="47.09906" lon="-1.45491">
        <ele>52.22</ele>
        <time>2020-06-27T13:25:56Z</time>
      </trkpt>
      <trkpt lat="47.09899" lon="-1.45474">
        <ele>51.97</ele>
        <time>2020-06-27T13:25:58Z</time>
      </trkpt>
      <trkpt lat="47.0989" lon="-1.45454">
        <ele>51.76</ele>
        <time>2020-06-27T13:26:00Z</time>
      </trkpt>
      <trkpt lat="47.09883" lon="-1.45436">
        <ele>52.58</ele>
        <time>2020-06-27T13:26:02Z</time>
      </trkpt>
      <trkpt lat="47.09874" lon="-1.45416">
        <ele>52.8</ele>
        <time>2020-06-27T13:26:04Z</time>
      </trkpt>
      <trkpt lat="47.09866" lon="-1.45396">
        <ele>52.23</ele>
        <time>2020-06-27T13:26:06Z</time>
      </trkpt>
      <trkpt lat="47.09857" lon="-1.45375">
        <ele>50.79</ele>
        <time>2020-06-27T13:26:08Z</time>
      </trkpt>
      <trkpt lat="47.09849" lon="-1.45355">
        <ele>50.42</ele>
        <time>2020-06-27T13:26:10Z</time>
      </trkpt>
      <trkpt lat="47.0984" lon="-1.45334">
        <ele>50.33</ele>
        <time>2020-06-27T13:26:12Z</time>
      </trkpt>
      <trkpt lat="47.09831" lon="-1.45315">
        <ele>50.5</ele>
        <time>2020-06-27T13:26:14Z</time>
      </trkpt>
      <trkpt lat="47.09822" lon="-1.45296">
        <ele>50.33</ele>
        <time>2020-06-27T13:26:16Z</time>
      </trkpt>
      <trkpt lat="47.09812" lon="-1.45276">
        <ele>49.84</ele>
        <time>2020-06-27T13:26:18Z</time>
      </trkpt>
      <trkpt lat="47.09803" lon="-1.45256">
        <ele>49.41</ele>
        <time>2020-06-27T13:26:20Z</time>
      </trkpt>
      <trkpt lat="47.09794" lon="-1.45235">
        <ele>49.49</ele>
        <time>2020-06-27T13:26:22Z</time>
      </trkpt>
      <trkpt lat="47.09786" lon="-1.45215">
        <ele>49.71</ele>
        <time>2020-06-27T13:26:24Z</time>
      </trkpt>
      <trkpt lat="47.09777" lon="-1.45196">
        <ele>48.78</ele>
        <time>2020-06-27T13:26:26Z</time>
      </trkpt>
      <trkpt lat="47.09768" lon="-1.45177">
        <ele>48.1</ele>
        <time>2020-06-27T13:26:28Z</time>
      </trkpt>
      <trkpt lat="47.0976" lon="-1.45159">
        <ele>47.5</ele>
        <time>2020-06-27T13:26:30Z</time>
      </trkpt>
      <trkpt lat="47.09751" lon="-1.45141">
        <ele>47.83</ele>
        <time>2020-06-27T13:26:32Z</time>
      </trkpt>
      <trkpt lat="47.09741" lon="-1.45122">
        <ele>48.03</ele>
        <time>2020-06-27T13:26:34Z</time>
      </trkpt>
      <trkpt lat="47.09733" lon="-1.45105">
        <ele>48.15</ele>
        <time>2020-06-27T13:26:36Z</time>
      </trkpt>
      <trkpt lat="47.09725" lon="-1.45088">
        <ele>47.52</ele>
        <time>2020-06-27T13:26:38Z</time>
      </trkpt>
      <trkpt lat="47.09716" lon="-1.4507">
        <ele>46.63</ele>
        <time>2020-06-27T13:26:40Z</time>
      </trkpt>
      <trkpt lat="47.09707" lon="-1.45051">
        <ele>46.52</ele>
        <time>2020-06-27T13:26:42Z</time>
      </trkpt>
      <trkpt lat="47.09698" lon="-1.45034">
        <ele>46.31</ele>
        <time>2020-06-27T13:26:44Z</time>
      </trkpt>
      <trkpt lat="47.09689" lon="-1.45017">
        <ele>46.08</ele>
        <time>2020-06-27T13:26:46Z</time>
      </trkpt>
      <trkpt lat="47.09681" lon="-1.45">
        <ele>46.38</ele>
        <time>2020-06-27T13:26:48Z</time>
      </trkpt>
      <trkpt lat="47.09673" lon="-1.44986">
        <ele>46.56</ele>
        <time>2020-06-27T13:26:50Z</time>
      </trkpt>
      <trkpt lat="47.09663" lon="-1.44972">
        <ele>46.54</ele>
        <time>2020-06-27T13:26:52Z</time>
      </trkpt>
      <trkpt lat="47.0965" lon="-1.44965">
        <ele>46.77</ele>
        <time>2020-06-27T13:26:54Z</time>
      </trkpt>
      <trkpt lat="47.09639" lon="-1.44956">
        <ele>47.58</ele>
        <time>2020-06-27T13:26:56Z</time>
      </trkpt>
      <trkpt lat="47.09632" lon="-1.44942">
        <ele>48.43</ele>
        <time>2020-06-27T13:26:58Z</time>
      </trkpt>
      <trkpt lat="47.0963" lon="-1.44922">
        <ele>49.03</ele>
        <time>2020-06-27T13:27:00Z</time>
      </trkpt>
      <trkpt lat="47.09635" lon="-1.44903">
        <ele>49.21</ele>
        <time>2020-06-27T13:27:02Z</time>
      </trkpt>
      <trkpt lat="47.09646" lon="-1.44888">
        <ele>49.1</ele>
        <time>2020-06-27T13:27:04Z</time>
      </trkpt>
      <trkpt lat="47.09662" lon="-1.4488">
        <ele>49.33</ele>
        <time>2020-06-27T13:27:06Z</time>
      </trkpt>
      <trkpt lat="47.09675" lon="-1.44861">
        <ele>49.13</ele>
        <time>2020-06-27T13:27:08Z</time>
      </trkpt>
      <trkpt lat="47.0968" lon="-1.4485">
        <ele>48.57</ele>
        <time>2020-06-27T13:27:09Z</time>
      </trkpt>
      <trkpt lat="47.09685" lon="-1.44838">
        <ele>47.89</ele>
        <time>2020-06-27T13:27:10Z</time>
      </trkpt>
      <trkpt lat="47.09689" lon="-1.44814">
        <ele>47.22</ele>
        <time>2020-06-27T13:27:12Z</time>
      </trkpt>
      <trkpt lat="47.09686" lon="-1.44788">
        <ele>46.89</ele>
        <time>2020-06-27T13:27:14Z</time>
      </trkpt>
      <trkpt lat="47.09679" lon="-1.44767">
        <ele>46.81</ele>
        <time>2020-06-27T13:27:16Z</time>
      </trkpt>
      <trkpt lat="47.09667" lon="-1.44749">
        <ele>47.47</ele>
        <time>2020-06-27T13:27:18Z</time>
      </trkpt>
      <trkpt lat="47.09661" lon="-1.44739">
        <ele>47.76</ele>
        <time>2020-06-27T13:27:19Z</time>
      </trkpt>
      <trkpt lat="47.09653" lon="-1.44721">
        <ele>47.81</ele>
        <time>2020-06-27T13:27:21Z</time>
      </trkpt>
      <trkpt lat="47.09648" lon="-1.44702">
        <ele>49.64</ele>
        <time>2020-06-27T13:27:23Z</time>
      </trkpt>
      <trkpt lat="47.09646" lon="-1.44681">
        <ele>51.85</ele>
        <time>2020-06-27T13:27:25Z</time>
      </trkpt>
      <trkpt lat="47.09648" lon="-1.44659">
        <ele>52.79</ele>
        <time>2020-06-27T13:27:27Z</time>
      </trkpt>
      <trkpt lat="47.09653" lon="-1.4464">
        <ele>52.9</ele>
        <time>2020-06-27T13:27:29Z</time>
      </trkpt>
      <trkpt lat="47.09663" lon="-1.44623">
        <ele>52</ele>
        <time>2020-06-27T13:27:31Z</time>
      </trkpt>
      <trkpt lat="47.09675" lon="-1.44609">
        <ele>50.81</ele>
        <time>2020-06-27T13:27:33Z</time>
      </trkpt>
      <trkpt lat="47.09688" lon="-1.44598">
        <ele>49.4</ele>
        <time>2020-06-27T13:27:35Z</time>
      </trkpt>
      <trkpt lat="47.09703" lon="-1.44587">
        <ele>48.6</ele>
        <time>2020-06-27T13:27:37Z</time>
      </trkpt>
      <trkpt lat="47.09718" lon="-1.44577">
        <ele>47.83</ele>
        <time>2020-06-27T13:27:39Z</time>
      </trkpt>
      <trkpt lat="47.09727" lon="-1.44571">
        <ele>47.59</ele>
        <time>2020-06-27T13:27:40Z</time>
      </trkpt>
      <trkpt lat="47.09742" lon="-1.44563">
        <ele>46.68</ele>
        <time>2020-06-27T13:27:42Z</time>
      </trkpt>
      <trkpt lat="47.09758" lon="-1.44556">
        <ele>46.67</ele>
        <time>2020-06-27T13:27:44Z</time>
      </trkpt>
      <trkpt lat="47.09775" lon="-1.44549">
        <ele>46.45</ele>
        <time>2020-06-27T13:27:46Z</time>
      </trkpt>
      <trkpt lat="47.09784" lon="-1.44546">
        <ele>46.14</ele>
        <time>2020-06-27T13:27:47Z</time>
      </trkpt>
      <trkpt lat="47.09801" lon="-1.4454">
        <ele>45.42</ele>
        <time>2020-06-27T13:27:49Z</time>
      </trkpt>
      <trkpt lat="47.0981" lon="-1.44536">
        <ele>44.89</ele>
        <time>2020-06-27T13:27:50Z</time>
      </trkpt>
      <trkpt lat="47.09826" lon="-1.4453">
        <ele>43.86</ele>
        <time>2020-06-27T13:27:52Z</time>
      </trkpt>
      <trkpt lat="47.09836" lon="-1.44526">
        <ele>43.37</ele>
        <time>2020-06-27T13:27:53Z</time>
      </trkpt>
      <trkpt lat="47.09845" lon="-1.44523">
        <ele>42.76</ele>
        <time>2020-06-27T13:27:54Z</time>
      </trkpt>
      <trkpt lat="47.09855" lon="-1.4452">
        <ele>42</ele>
        <time>2020-06-27T13:27:55Z</time>
      </trkpt>
      <trkpt lat="47.09864" lon="-1.44517">
        <ele>40.95</ele>
        <time>2020-06-27T13:27:56Z</time>
      </trkpt>
      <trkpt lat="47.09874" lon="-1.44513">
        <ele>39.93</ele>
        <time>2020-06-27T13:27:57Z</time>
      </trkpt>
      <trkpt lat="47.09883" lon="-1.4451">
        <ele>39.15</ele>
        <time>2020-06-27T13:27:58Z</time>
      </trkpt>
      <trkpt lat="47.09893" lon="-1.44506">
        <ele>38.52</ele>
        <time>2020-06-27T13:27:59Z</time>
      </trkpt>
      <trkpt lat="47.09904" lon="-1.44503">
        <ele>37.86</ele>
        <time>2020-06-27T13:28:00Z</time>
      </trkpt>
      <trkpt lat="47.09915" lon="-1.44499">
        <ele>37.45</ele>
        <time>2020-06-27T13:28:01Z</time>
      </trkpt>
      <trkpt lat="47.09926" lon="-1.44495">
        <ele>37.24</ele>
        <time>2020-06-27T13:28:02Z</time>
      </trkpt>
      <trkpt lat="47.09937" lon="-1.44491">
        <ele>37.06</ele>
        <time>2020-06-27T13:28:03Z</time>
      </trkpt>
      <trkpt lat="47.09949" lon="-1.44487">
        <ele>36.89</ele>
        <time>2020-06-27T13:28:04Z</time>
      </trkpt>
      <trkpt lat="47.0996" lon="-1.44483">
        <ele>37.08</ele>
        <time>2020-06-27T13:28:05Z</time>
      </trkpt>
      <trkpt lat="47.09971" lon="-1.44479">
        <ele>36.89</ele>
        <time>2020-06-27T13:28:06Z</time>
      </trkpt>
      <trkpt lat="47.09981" lon="-1.44475">
        <ele>36.76</ele>
        <time>2020-06-27T13:28:07Z</time>
      </trkpt>
      <trkpt lat="47.09991" lon="-1.44472">
        <ele>36.42</ele>
        <time>2020-06-27T13:28:08Z</time>
      </trkpt>
      <trkpt lat="47.10002" lon="-1.44468">
        <ele>36.28</ele>
        <time>2020-06-27T13:28:09Z</time>
      </trkpt>
      <trkpt lat="47.10013" lon="-1.44464">
        <ele>35.88</ele>
        <time>2020-06-27T13:28:10Z</time>
      </trkpt>
      <trkpt lat="47.10024" lon="-1.44459">
        <ele>35.66</ele>
        <time>2020-06-27T13:28:11Z</time>
      </trkpt>
      <trkpt lat="47.10035" lon="-1.44455">
        <ele>34.99</ele>
        <time>2020-06-27T13:28:12Z</time>
      </trkpt>
      <trkpt lat="47.10045" lon="-1.4445">
        <ele>34.42</ele>
        <time>2020-06-27T13:28:13Z</time>
      </trkpt>
      <trkpt lat="47.10055" lon="-1.44447">
        <ele>33.9</ele>
        <time>2020-06-27T13:28:14Z</time>
      </trkpt>
      <trkpt lat="47.10067" lon="-1.44442">
        <ele>33.98</ele>
        <time>2020-06-27T13:28:15Z</time>
      </trkpt>
      <trkpt lat="47.10078" lon="-1.44438">
        <ele>34.02</ele>
        <time>2020-06-27T13:28:16Z</time>
      </trkpt>
      <trkpt lat="47.10088" lon="-1.44435">
        <ele>33.83</ele>
        <time>2020-06-27T13:28:17Z</time>
      </trkpt>
      <trkpt lat="47.10098" lon="-1.44431">
        <ele>33.46</ele>
        <time>2020-06-27T13:28:18Z</time>
      </trkpt>
      <trkpt lat="47.10108" lon="-1.44427">
        <ele>33.25</ele>
        <time>2020-06-27T13:28:19Z</time>
      </trkpt>
      <trkpt lat="47.10117" lon="-1.44423">
        <ele>32.85</ele>
        <time>2020-06-27T13:28:20Z</time>
      </trkpt>
      <trkpt lat="47.10126" lon="-1.44418">
        <ele>32.73</ele>
        <time>2020-06-27T13:28:21Z</time>
      </trkpt>
      <trkpt lat="47.10143" lon="-1.44403">
        <ele>31.6</ele>
        <time>2020-06-27T13:28:23Z</time>
      </trkpt>
      <trkpt lat="47.10152" lon="-1.44395">
        <ele>30.6</ele>
        <time>2020-06-27T13:28:24Z</time>
      </trkpt>
      <trkpt lat="47.10165" lon="-1.4438">
        <ele>28.74</ele>
        <time>2020-06-27T13:28:26Z</time>
      </trkpt>
      <trkpt lat="47.10178" lon="-1.44364">
        <ele>27.28</ele>
        <time>2020-06-27T13:28:28Z</time>
      </trkpt>
      <trkpt lat="47.10185" lon="-1.44355">
        <ele>26.99</ele>
        <time>2020-06-27T13:28:29Z</time>
      </trkpt>
      <trkpt lat="47.10199" lon="-1.44339">
        <ele>25.7</ele>
        <time>2020-06-27T13:28:31Z</time>
      </trkpt>
      <trkpt lat="47.10212" lon="-1.44323">
        <ele>24.99</ele>
        <time>2020-06-27T13:28:33Z</time>
      </trkpt>
      <trkpt lat="47.10225" lon="-1.44306">
        <ele>24.89</ele>
        <time>2020-06-27T13:28:35Z</time>
      </trkpt>
      <trkpt lat="47.10238" lon="-1.4429">
        <ele>24.86</ele>
        <time>2020-06-27T13:28:37Z</time>
      </trkpt>
      <trkpt lat="47.10246" lon="-1.44282">
        <ele>25.05</ele>
        <time>2020-06-27T13:28:38Z</time>
      </trkpt>
      <trkpt lat="47.10254" lon="-1.44273">
        <ele>25.09</ele>
        <time>2020-06-27T13:28:39Z</time>
      </trkpt>
      <trkpt lat="47.10261" lon="-1.44266">
        <ele>25.24</ele>
        <time>2020-06-27T13:28:40Z</time>
      </trkpt>
      <trkpt lat="47.10274" lon="-1.44253">
        <ele>25.55</ele>
        <time>2020-06-27T13:28:42Z</time>
      </trkpt>
      <trkpt lat="47.10289" lon="-1.44238">
        <ele>25.53</ele>
        <time>2020-06-27T13:28:44Z</time>
      </trkpt>
      <trkpt lat="47.10303" lon="-1.44227">
        <ele>24.55</ele>
        <time>2020-06-27T13:28:46Z</time>
      </trkpt>
      <trkpt lat="47.1032" lon="-1.4422">
        <ele>23.83</ele>
        <time>2020-06-27T13:28:48Z</time>
      </trkpt>
      <trkpt lat="47.10334" lon="-1.44214">
        <ele>23.98</ele>
        <time>2020-06-27T13:28:50Z</time>
      </trkpt>
      <trkpt lat="47.10349" lon="-1.44207">
        <ele>24.3</ele>
        <time>2020-06-27T13:28:52Z</time>
      </trkpt>
      <trkpt lat="47.10363" lon="-1.44199">
        <ele>26.01</ele>
        <time>2020-06-27T13:28:54Z</time>
      </trkpt>
      <trkpt lat="47.10377" lon="-1.44192">
        <ele>27.5</ele>
        <time>2020-06-27T13:28:56Z</time>
      </trkpt>
      <trkpt lat="47.10392" lon="-1.44185">
        <ele>28.58</ele>
        <time>2020-06-27T13:28:58Z</time>
      </trkpt>
      <trkpt lat="47.10407" lon="-1.44178">
        <ele>27.84</ele>
        <time>2020-06-27T13:29:00Z</time>
      </trkpt>
      <trkpt lat="47.10421" lon="-1.44172">
        <ele>26.64</ele>
        <time>2020-06-27T13:29:02Z</time>
      </trkpt>
      <trkpt lat="47.10433" lon="-1.44166">
        <ele>25.88</ele>
        <time>2020-06-27T13:29:04Z</time>
      </trkpt>
      <trkpt lat="47.10445" lon="-1.44161">
        <ele>26.12</ele>
        <time>2020-06-27T13:29:06Z</time>
      </trkpt>
      <trkpt lat="47.1046" lon="-1.44154">
        <ele>26.14</ele>
        <time>2020-06-27T13:29:08Z</time>
      </trkpt>
      <trkpt lat="47.10476" lon="-1.44145">
        <ele>25.89</ele>
        <time>2020-06-27T13:29:10Z</time>
      </trkpt>
      <trkpt lat="47.1049" lon="-1.44138">
        <ele>26.28</ele>
        <time>2020-06-27T13:29:12Z</time>
      </trkpt>
      <trkpt lat="47.10503" lon="-1.44131">
        <ele>26.33</ele>
        <time>2020-06-27T13:29:14Z</time>
      </trkpt>
      <trkpt lat="47.10515" lon="-1.44123">
        <ele>26.17</ele>
        <time>2020-06-27T13:29:16Z</time>
      </trkpt>
      <trkpt lat="47.10528" lon="-1.44113">
        <ele>25.42</ele>
        <time>2020-06-27T13:29:18Z</time>
      </trkpt>
      <trkpt lat="47.10541" lon="-1.44101">
        <ele>25.3</ele>
        <time>2020-06-27T13:29:20Z</time>
      </trkpt>
      <trkpt lat="47.10553" lon="-1.4409">
        <ele>27.29</ele>
        <time>2020-06-27T13:29:22Z</time>
      </trkpt>
      <trkpt lat="47.10565" lon="-1.4408">
        <ele>28.64</ele>
        <time>2020-06-27T13:29:24Z</time>
      </trkpt>
      <trkpt lat="47.10576" lon="-1.4407">
        <ele>29.49</ele>
        <time>2020-06-27T13:29:26Z</time>
      </trkpt>
      <trkpt lat="47.10587" lon="-1.44058">
        <ele>30.02</ele>
        <time>2020-06-27T13:29:28Z</time>
      </trkpt>
      <trkpt lat="47.10598" lon="-1.44047">
        <ele>29.87</ele>
        <time>2020-06-27T13:29:30Z</time>
      </trkpt>
      <trkpt lat="47.10611" lon="-1.44037">
        <ele>29.35</ele>
        <time>2020-06-27T13:29:32Z</time>
      </trkpt>
      <trkpt lat="47.10624" lon="-1.44029">
        <ele>30</ele>
        <time>2020-06-27T13:29:34Z</time>
      </trkpt>
      <trkpt lat="47.10637" lon="-1.44022">
        <ele>31.07</ele>
        <time>2020-06-27T13:29:36Z</time>
      </trkpt>
      <trkpt lat="47.1065" lon="-1.44014">
        <ele>32.45</ele>
        <time>2020-06-27T13:29:38Z</time>
      </trkpt>
      <trkpt lat="47.10664" lon="-1.44006">
        <ele>33.69</ele>
        <time>2020-06-27T13:29:40Z</time>
      </trkpt>
      <trkpt lat="47.10678" lon="-1.43998">
        <ele>34.19</ele>
        <time>2020-06-27T13:29:42Z</time>
      </trkpt>
      <trkpt lat="47.10691" lon="-1.43992">
        <ele>34.25</ele>
        <time>2020-06-27T13:29:44Z</time>
      </trkpt>
      <trkpt lat="47.10703" lon="-1.43985">
        <ele>33.9</ele>
        <time>2020-06-27T13:29:46Z</time>
      </trkpt>
      <trkpt lat="47.10714" lon="-1.43976">
        <ele>34.14</ele>
        <time>2020-06-27T13:29:48Z</time>
      </trkpt>
      <trkpt lat="47.10725" lon="-1.43968">
        <ele>34.42</ele>
        <time>2020-06-27T13:29:50Z</time>
      </trkpt>
      <trkpt lat="47.10736" lon="-1.43955">
        <ele>35.25</ele>
        <time>2020-06-27T13:29:52Z</time>
      </trkpt>
      <trkpt lat="47.10749" lon="-1.43942">
        <ele>35.09</ele>
        <time>2020-06-27T13:29:54Z</time>
      </trkpt>
      <trkpt lat="47.10758" lon="-1.43932">
        <ele>34.31</ele>
        <time>2020-06-27T13:29:56Z</time>
      </trkpt>
      <trkpt lat="47.1077" lon="-1.43921">
        <ele>34.21</ele>
        <time>2020-06-27T13:29:58Z</time>
      </trkpt>
      <trkpt lat="47.10781" lon="-1.43911">
        <ele>34.74</ele>
        <time>2020-06-27T13:30:00Z</time>
      </trkpt>
      <trkpt lat="47.10794" lon="-1.439">
        <ele>34.92</ele>
        <time>2020-06-27T13:30:02Z</time>
      </trkpt>
      <trkpt lat="47.10806" lon="-1.4389">
        <ele>35.26</ele>
        <time>2020-06-27T13:30:04Z</time>
      </trkpt>
      <trkpt lat="47.10817" lon="-1.43881">
        <ele>34.77</ele>
        <time>2020-06-27T13:30:06Z</time>
      </trkpt>
      <trkpt lat="47.10828" lon="-1.43871">
        <ele>33.72</ele>
        <time>2020-06-27T13:30:08Z</time>
      </trkpt>
      <trkpt lat="47.10839" lon="-1.43861">
        <ele>34.5</ele>
        <time>2020-06-27T13:30:10Z</time>
      </trkpt>
      <trkpt lat="47.10852" lon="-1.43848">
        <ele>35.58</ele>
        <time>2020-06-27T13:30:12Z</time>
      </trkpt>
      <trkpt lat="47.10863" lon="-1.43837">
        <ele>36.37</ele>
        <time>2020-06-27T13:30:14Z</time>
      </trkpt>
      <trkpt lat="47.10874" lon="-1.43827">
        <ele>37.42</ele>
        <time>2020-06-27T13:30:16Z</time>
      </trkpt>
      <trkpt lat="47.10885" lon="-1.43817">
        <ele>38.58</ele>
        <time>2020-06-27T13:30:18Z</time>
      </trkpt>
      <trkpt lat="47.10897" lon="-1.43806">
        <ele>39.6</ele>
        <time>2020-06-27T13:30:20Z</time>
      </trkpt>
      <trkpt lat="47.10908" lon="-1.43795">
        <ele>39.46</ele>
        <time>2020-06-27T13:30:22Z</time>
      </trkpt>
      <trkpt lat="47.10919" lon="-1.43784">
        <ele>38.63</ele>
        <time>2020-06-27T13:30:24Z</time>
      </trkpt>
      <trkpt lat="47.10932" lon="-1.43771">
        <ele>37.54</ele>
        <time>2020-06-27T13:30:26Z</time>
      </trkpt>
      <trkpt lat="47.10944" lon="-1.43758">
        <ele>37.03</ele>
        <time>2020-06-27T13:30:28Z</time>
      </trkpt>
      <trkpt lat="47.10954" lon="-1.43749">
        <ele>37.48</ele>
        <time>2020-06-27T13:30:30Z</time>
      </trkpt>
      <trkpt lat="47.10965" lon="-1.43738">
        <ele>38.26</ele>
        <time>2020-06-27T13:30:32Z</time>
      </trkpt>
      <trkpt lat="47.10977" lon="-1.43727">
        <ele>38.95</ele>
        <time>2020-06-27T13:30:34Z</time>
      </trkpt>
      <trkpt lat="47.10989" lon="-1.43716">
        <ele>38.94</ele>
        <time>2020-06-27T13:30:36Z</time>
      </trkpt>
      <trkpt lat="47.11" lon="-1.43705">
        <ele>39.65</ele>
        <time>2020-06-27T13:30:38Z</time>
      </trkpt>
      <trkpt lat="47.1101" lon="-1.43693">
        <ele>39.46</ele>
        <time>2020-06-27T13:30:40Z</time>
      </trkpt>
      <trkpt lat="47.11022" lon="-1.43678">
        <ele>38.71</ele>
        <time>2020-06-27T13:30:42Z</time>
      </trkpt>
      <trkpt lat="47.11032" lon="-1.43666">
        <ele>37.51</ele>
        <time>2020-06-27T13:30:44Z</time>
      </trkpt>
      <trkpt lat="47.11039" lon="-1.43655">
        <ele>38.25</ele>
        <time>2020-06-27T13:30:46Z</time>
      </trkpt>
      <trkpt lat="47.1105" lon="-1.43639">
        <ele>38.57</ele>
        <time>2020-06-27T13:30:48Z</time>
      </trkpt>
      <trkpt lat="47.1106" lon="-1.43625">
        <ele>39.37</ele>
        <time>2020-06-27T13:30:50Z</time>
      </trkpt>
      <trkpt lat="47.11073" lon="-1.4361">
        <ele>40.77</ele>
        <time>2020-06-27T13:30:52Z</time>
      </trkpt>
      <trkpt lat="47.11082" lon="-1.436">
        <ele>41.8</ele>
        <time>2020-06-27T13:30:54Z</time>
      </trkpt>
      <trkpt lat="47.11094" lon="-1.43588">
        <ele>43.63</ele>
        <time>2020-06-27T13:30:56Z</time>
      </trkpt>
      <trkpt lat="47.11104" lon="-1.43576">
        <ele>45.31</ele>
        <time>2020-06-27T13:30:58Z</time>
      </trkpt>
      <trkpt lat="47.11113" lon="-1.43562">
        <ele>46.26</ele>
        <time>2020-06-27T13:31:00Z</time>
      </trkpt>
      <trkpt lat="47.11123" lon="-1.43546">
        <ele>46.05</ele>
        <time>2020-06-27T13:31:02Z</time>
      </trkpt>
      <trkpt lat="47.11133" lon="-1.4353">
        <ele>45.64</ele>
        <time>2020-06-27T13:31:04Z</time>
      </trkpt>
      <trkpt lat="47.11142" lon="-1.43514">
        <ele>44.97</ele>
        <time>2020-06-27T13:31:06Z</time>
      </trkpt>
      <trkpt lat="47.11151" lon="-1.43498">
        <ele>45.06</ele>
        <time>2020-06-27T13:31:08Z</time>
      </trkpt>
      <trkpt lat="47.1116" lon="-1.43482">
        <ele>45.28</ele>
        <time>2020-06-27T13:31:10Z</time>
      </trkpt>
      <trkpt lat="47.1117" lon="-1.43466">
        <ele>45.39</ele>
        <time>2020-06-27T13:31:12Z</time>
      </trkpt>
      <trkpt lat="47.11179" lon="-1.43452">
        <ele>45.09</ele>
        <time>2020-06-27T13:31:14Z</time>
      </trkpt>
      <trkpt lat="47.11188" lon="-1.43435">
        <ele>45.68</ele>
        <time>2020-06-27T13:31:16Z</time>
      </trkpt>
      <trkpt lat="47.11197" lon="-1.43421">
        <ele>45.7</ele>
        <time>2020-06-27T13:31:18Z</time>
      </trkpt>
      <trkpt lat="47.11208" lon="-1.43402">
        <ele>45.6</ele>
        <time>2020-06-27T13:31:20Z</time>
      </trkpt>
      <trkpt lat="47.11216" lon="-1.43387">
        <ele>45.18</ele>
        <time>2020-06-27T13:31:22Z</time>
      </trkpt>
      <trkpt lat="47.11227" lon="-1.43368">
        <ele>44.8</ele>
        <time>2020-06-27T13:31:24Z</time>
      </trkpt>
      <trkpt lat="47.11236" lon="-1.43352">
        <ele>44.84</ele>
        <time>2020-06-27T13:31:26Z</time>
      </trkpt>
      <trkpt lat="47.11245" lon="-1.43336">
        <ele>44.95</ele>
        <time>2020-06-27T13:31:28Z</time>
      </trkpt>
      <trkpt lat="47.11256" lon="-1.43321">
        <ele>45.22</ele>
        <time>2020-06-27T13:31:30Z</time>
      </trkpt>
      <trkpt lat="47.11267" lon="-1.43305">
        <ele>44.98</ele>
        <time>2020-06-27T13:31:31Z</time>
      </trkpt>
      <trkpt lat="47.11279" lon="-1.43291">
        <ele>44.78</ele>
        <time>2020-06-27T13:31:33Z</time>
      </trkpt>
      <trkpt lat="47.1129" lon="-1.43277">
        <ele>44.4</ele>
        <time>2020-06-27T13:31:35Z</time>
      </trkpt>
      <trkpt lat="47.11304" lon="-1.43261">
        <ele>44.02</ele>
        <time>2020-06-27T13:31:37Z</time>
      </trkpt>
      <trkpt lat="47.11315" lon="-1.43246">
        <ele>43.42</ele>
        <time>2020-06-27T13:31:39Z</time>
      </trkpt>
      <trkpt lat="47.11327" lon="-1.43232">
        <ele>43.16</ele>
        <time>2020-06-27T13:31:41Z</time>
      </trkpt>
      <trkpt lat="47.11334" lon="-1.43223">
        <ele>43.02</ele>
        <time>2020-06-27T13:31:42Z</time>
      </trkpt>
      <trkpt lat="47.11348" lon="-1.43208">
        <ele>43.55</ele>
        <time>2020-06-27T13:31:44Z</time>
      </trkpt>
      <trkpt lat="47.11355" lon="-1.432">
        <ele>43.85</ele>
        <time>2020-06-27T13:31:45Z</time>
      </trkpt>
      <trkpt lat="47.11368" lon="-1.43185">
        <ele>43.87</ele>
        <time>2020-06-27T13:31:47Z</time>
      </trkpt>
      <trkpt lat="47.11381" lon="-1.4317">
        <ele>44.39</ele>
        <time>2020-06-27T13:31:49Z</time>
      </trkpt>
      <trkpt lat="47.11395" lon="-1.43154">
        <ele>43.99</ele>
        <time>2020-06-27T13:31:51Z</time>
      </trkpt>
      <trkpt lat="47.11406" lon="-1.4314">
        <ele>43.3</ele>
        <time>2020-06-27T13:31:53Z</time>
      </trkpt>
      <trkpt lat="47.11419" lon="-1.43122">
        <ele>42.21</ele>
        <time>2020-06-27T13:31:55Z</time>
      </trkpt>
      <trkpt lat="47.11432" lon="-1.43106">
        <ele>41.75</ele>
        <time>2020-06-27T13:31:57Z</time>
      </trkpt>
      <trkpt lat="47.11444" lon="-1.43091">
        <ele>41.19</ele>
        <time>2020-06-27T13:31:59Z</time>
      </trkpt>
      <trkpt lat="47.11456" lon="-1.43077">
        <ele>40.62</ele>
        <time>2020-06-27T13:32:01Z</time>
      </trkpt>
      <trkpt lat="47.11469" lon="-1.43064">
        <ele>38.99</ele>
        <time>2020-06-27T13:32:03Z</time>
      </trkpt>
      <trkpt lat="47.11484" lon="-1.4305">
        <ele>37.7</ele>
        <time>2020-06-27T13:32:05Z</time>
      </trkpt>
      <trkpt lat="47.11499" lon="-1.43036">
        <ele>37.99</ele>
        <time>2020-06-27T13:32:07Z</time>
      </trkpt>
      <trkpt lat="47.11515" lon="-1.43022">
        <ele>38.09</ele>
        <time>2020-06-27T13:32:09Z</time>
      </trkpt>
      <trkpt lat="47.11529" lon="-1.43011">
        <ele>37.95</ele>
        <time>2020-06-27T13:32:11Z</time>
      </trkpt>
      <trkpt lat="47.11541" lon="-1.42995">
        <ele>36.76</ele>
        <time>2020-06-27T13:32:13Z</time>
      </trkpt>
      <trkpt lat="47.11548" lon="-1.42971">
        <ele>35.8</ele>
        <time>2020-06-27T13:32:15Z</time>
      </trkpt>
      <trkpt lat="47.1154" lon="-1.42949">
        <ele>35.52</ele>
        <time>2020-06-27T13:32:17Z</time>
      </trkpt>
      <trkpt lat="47.11531" lon="-1.4293">
        <ele>36.17</ele>
        <time>2020-06-27T13:32:19Z</time>
      </trkpt>
      <trkpt lat="47.11523" lon="-1.42913">
        <ele>37</ele>
        <time>2020-06-27T13:32:21Z</time>
      </trkpt>
      <trkpt lat="47.11513" lon="-1.42894">
        <ele>37.32</ele>
        <time>2020-06-27T13:32:23Z</time>
      </trkpt>
      <trkpt lat="47.11504" lon="-1.42877">
        <ele>37.05</ele>
        <time>2020-06-27T13:32:25Z</time>
      </trkpt>
      <trkpt lat="47.11496" lon="-1.4286">
        <ele>37.18</ele>
        <time>2020-06-27T13:32:27Z</time>
      </trkpt>
      <trkpt lat="47.11488" lon="-1.42844">
        <ele>38.8</ele>
        <time>2020-06-27T13:32:29Z</time>
      </trkpt>
      <trkpt lat="47.1148" lon="-1.4283">
        <ele>40</ele>
        <time>2020-06-27T13:32:31Z</time>
      </trkpt>
      <trkpt lat="47.11471" lon="-1.42813">
        <ele>40.2</ele>
        <time>2020-06-27T13:32:33Z</time>
      </trkpt>
      <trkpt lat="47.11462" lon="-1.42794">
        <ele>40.72</ele>
        <time>2020-06-27T13:32:35Z</time>
      </trkpt>
      <trkpt lat="47.11453" lon="-1.42775">
        <ele>41.25</ele>
        <time>2020-06-27T13:32:37Z</time>
      </trkpt>
      <trkpt lat="47.11445" lon="-1.4276">
        <ele>40.04</ele>
        <time>2020-06-27T13:32:39Z</time>
      </trkpt>
      <trkpt lat="47.11437" lon="-1.42743">
        <ele>39.5</ele>
        <time>2020-06-27T13:32:41Z</time>
      </trkpt>
      <trkpt lat="47.11429" lon="-1.42727">
        <ele>39.42</ele>
        <time>2020-06-27T13:32:43Z</time>
      </trkpt>
      <trkpt lat="47.11421" lon="-1.4271">
        <ele>39.27</ele>
        <time>2020-06-27T13:32:45Z</time>
      </trkpt>
      <trkpt lat="47.11412" lon="-1.42694">
        <ele>40.17</ele>
        <time>2020-06-27T13:32:47Z</time>
      </trkpt>
      <trkpt lat="47.11404" lon="-1.42678">
        <ele>40.75</ele>
        <time>2020-06-27T13:32:49Z</time>
      </trkpt>
      <trkpt lat="47.11395" lon="-1.42661">
        <ele>40.57</ele>
        <time>2020-06-27T13:32:51Z</time>
      </trkpt>
      <trkpt lat="47.11387" lon="-1.42645">
        <ele>40.75</ele>
        <time>2020-06-27T13:32:53Z</time>
      </trkpt>
      <trkpt lat="47.11378" lon="-1.42627">
        <ele>40.25</ele>
        <time>2020-06-27T13:32:55Z</time>
      </trkpt>
      <trkpt lat="47.11369" lon="-1.42608">
        <ele>39.98</ele>
        <time>2020-06-27T13:32:57Z</time>
      </trkpt>
      <trkpt lat="47.11359" lon="-1.42588">
        <ele>39.59</ele>
        <time>2020-06-27T13:32:59Z</time>
      </trkpt>
      <trkpt lat="47.11349" lon="-1.42568">
        <ele>38.89</ele>
        <time>2020-06-27T13:33:01Z</time>
      </trkpt>
      <trkpt lat="47.1134" lon="-1.42548">
        <ele>38.59</ele>
        <time>2020-06-27T13:33:03Z</time>
      </trkpt>
      <trkpt lat="47.11331" lon="-1.42529">
        <ele>37.78</ele>
        <time>2020-06-27T13:33:05Z</time>
      </trkpt>
      <trkpt lat="47.11325" lon="-1.42517">
        <ele>37.19</ele>
        <time>2020-06-27T13:33:06Z</time>
      </trkpt>
      <trkpt lat="47.1132" lon="-1.42507">
        <ele>36.54</ele>
        <time>2020-06-27T13:33:07Z</time>
      </trkpt>
      <trkpt lat="47.11314" lon="-1.42496">
        <ele>36.15</ele>
        <time>2020-06-27T13:33:08Z</time>
      </trkpt>
      <trkpt lat="47.11308" lon="-1.42483">
        <ele>35.66</ele>
        <time>2020-06-27T13:33:09Z</time>
      </trkpt>
      <trkpt lat="47.11302" lon="-1.42472">
        <ele>35.34</ele>
        <time>2020-06-27T13:33:10Z</time>
      </trkpt>
      <trkpt lat="47.11291" lon="-1.42451">
        <ele>34.86</ele>
        <time>2020-06-27T13:33:12Z</time>
      </trkpt>
      <trkpt lat="47.11285" lon="-1.42439">
        <ele>34.47</ele>
        <time>2020-06-27T13:33:13Z</time>
      </trkpt>
      <trkpt lat="47.11275" lon="-1.42419">
        <ele>34.08</ele>
        <time>2020-06-27T13:33:15Z</time>
      </trkpt>
      <trkpt lat="47.11266" lon="-1.42399">
        <ele>34.48</ele>
        <time>2020-06-27T13:33:17Z</time>
      </trkpt>
      <trkpt lat="47.11256" lon="-1.42378">
        <ele>34.93</ele>
        <time>2020-06-27T13:33:19Z</time>
      </trkpt>
      <trkpt lat="47.11248" lon="-1.42359">
        <ele>34.6</ele>
        <time>2020-06-27T13:33:21Z</time>
      </trkpt>
      <trkpt lat="47.1124" lon="-1.42338">
        <ele>34.68</ele>
        <time>2020-06-27T13:33:23Z</time>
      </trkpt>
      <trkpt lat="47.11232" lon="-1.42315">
        <ele>34.98</ele>
        <time>2020-06-27T13:33:25Z</time>
      </trkpt>
      <trkpt lat="47.11226" lon="-1.42292">
        <ele>34.7</ele>
        <time>2020-06-27T13:33:27Z</time>
      </trkpt>
      <trkpt lat="47.1122" lon="-1.42268">
        <ele>35.24</ele>
        <time>2020-06-27T13:33:29Z</time>
      </trkpt>
      <trkpt lat="47.11215" lon="-1.42245">
        <ele>36.19</ele>
        <time>2020-06-27T13:33:31Z</time>
      </trkpt>
      <trkpt lat="47.11211" lon="-1.42223">
        <ele>37.17</ele>
        <time>2020-06-27T13:33:33Z</time>
      </trkpt>
      <trkpt lat="47.11206" lon="-1.42202">
        <ele>38.44</ele>
        <time>2020-06-27T13:33:35Z</time>
      </trkpt>
      <trkpt lat="47.11201" lon="-1.42181">
        <ele>39.2</ele>
        <time>2020-06-27T13:33:37Z</time>
      </trkpt>
      <trkpt lat="47.11195" lon="-1.42159">
        <ele>38.87</ele>
        <time>2020-06-27T13:33:39Z</time>
      </trkpt>
      <trkpt lat="47.1119" lon="-1.42138">
        <ele>38.72</ele>
        <time>2020-06-27T13:33:41Z</time>
      </trkpt>
      <trkpt lat="47.11185" lon="-1.42116">
        <ele>38.38</ele>
        <time>2020-06-27T13:33:43Z</time>
      </trkpt>
      <trkpt lat="47.11179" lon="-1.42095">
        <ele>37.86</ele>
        <time>2020-06-27T13:33:45Z</time>
      </trkpt>
      <trkpt lat="47.11173" lon="-1.42072">
        <ele>36.95</ele>
        <time>2020-06-27T13:33:47Z</time>
      </trkpt>
      <trkpt lat="47.11168" lon="-1.4205">
        <ele>36.57</ele>
        <time>2020-06-27T13:33:49Z</time>
      </trkpt>
      <trkpt lat="47.11162" lon="-1.42027">
        <ele>36.42</ele>
        <time>2020-06-27T13:33:51Z</time>
      </trkpt>
      <trkpt lat="47.11156" lon="-1.42002">
        <ele>36.08</ele>
        <time>2020-06-27T13:33:53Z</time>
      </trkpt>
      <trkpt lat="47.11152" lon="-1.41989">
        <ele>36.02</ele>
        <time>2020-06-27T13:33:54Z</time>
      </trkpt>
      <trkpt lat="47.11147" lon="-1.41965">
        <ele>35.87</ele>
        <time>2020-06-27T13:33:56Z</time>
      </trkpt>
      <trkpt lat="47.11142" lon="-1.41944">
        <ele>34.58</ele>
        <time>2020-06-27T13:33:58Z</time>
      </trkpt>
      <trkpt lat="47.11136" lon="-1.41919">
        <ele>34.48</ele>
        <time>2020-06-27T13:34:00Z</time>
      </trkpt>
      <trkpt lat="47.11131" lon="-1.41898">
        <ele>33.49</ele>
        <time>2020-06-27T13:34:02Z</time>
      </trkpt>
      <trkpt lat="47.11127" lon="-1.41884">
        <ele>32.82</ele>
        <time>2020-06-27T13:34:03Z</time>
      </trkpt>
      <trkpt lat="47.11124" lon="-1.41871">
        <ele>32.06</ele>
        <time>2020-06-27T13:34:04Z</time>
      </trkpt>
      <trkpt lat="47.1112" lon="-1.41857">
        <ele>31.63</ele>
        <time>2020-06-27T13:34:05Z</time>
      </trkpt>
      <trkpt lat="47.11117" lon="-1.41845">
        <ele>31.18</ele>
        <time>2020-06-27T13:34:06Z</time>
      </trkpt>
      <trkpt lat="47.11114" lon="-1.41832">
        <ele>31.13</ele>
        <time>2020-06-27T13:34:07Z</time>
      </trkpt>
      <trkpt lat="47.11111" lon="-1.41819">
        <ele>30.66</ele>
        <time>2020-06-27T13:34:08Z</time>
      </trkpt>
      <trkpt lat="47.11105" lon="-1.41793">
        <ele>29.72</ele>
        <time>2020-06-27T13:34:10Z</time>
      </trkpt>
      <trkpt lat="47.11102" lon="-1.4178">
        <ele>29.35</ele>
        <time>2020-06-27T13:34:11Z</time>
      </trkpt>
      <trkpt lat="47.11096" lon="-1.41755">
        <ele>29.48</ele>
        <time>2020-06-27T13:34:13Z</time>
      </trkpt>
      <trkpt lat="47.11093" lon="-1.4174">
        <ele>29.38</ele>
        <time>2020-06-27T13:34:14Z</time>
      </trkpt>
      <trkpt lat="47.11089" lon="-1.41725">
        <ele>29.18</ele>
        <time>2020-06-27T13:34:15Z</time>
      </trkpt>
      <trkpt lat="47.11086" lon="-1.41712">
        <ele>28.84</ele>
        <time>2020-06-27T13:34:16Z</time>
      </trkpt>
      <trkpt lat="47.11082" lon="-1.41699">
        <ele>27.95</ele>
        <time>2020-06-27T13:34:17Z</time>
      </trkpt>
      <trkpt lat="47.11078" lon="-1.41682">
        <ele>27.04</ele>
        <time>2020-06-27T13:34:18Z</time>
      </trkpt>
      <trkpt lat="47.11075" lon="-1.4167">
        <ele>26.43</ele>
        <time>2020-06-27T13:34:19Z</time>
      </trkpt>
      <trkpt lat="47.11071" lon="-1.41654">
        <ele>25.65</ele>
        <time>2020-06-27T13:34:20Z</time>
      </trkpt>
      <trkpt lat="47.11066" lon="-1.4164">
        <ele>25.06</ele>
        <time>2020-06-27T13:34:21Z</time>
      </trkpt>
      <trkpt lat="47.11062" lon="-1.41626">
        <ele>24.83</ele>
        <time>2020-06-27T13:34:22Z</time>
      </trkpt>
      <trkpt lat="47.11057" lon="-1.41615">
        <ele>24.58</ele>
        <time>2020-06-27T13:34:23Z</time>
      </trkpt>
      <trkpt lat="47.11052" lon="-1.41604">
        <ele>24.65</ele>
        <time>2020-06-27T13:34:24Z</time>
      </trkpt>
      <trkpt lat="47.11043" lon="-1.41592">
        <ele>24.54</ele>
        <time>2020-06-27T13:34:25Z</time>
      </trkpt>
      <trkpt lat="47.11036" lon="-1.41581">
        <ele>24.39</ele>
        <time>2020-06-27T13:34:26Z</time>
      </trkpt>
      <trkpt lat="47.11028" lon="-1.41571">
        <ele>24.48</ele>
        <time>2020-06-27T13:34:27Z</time>
      </trkpt>
      <trkpt lat="47.11019" lon="-1.41562">
        <ele>24.26</ele>
        <time>2020-06-27T13:34:28Z</time>
      </trkpt>
      <trkpt lat="47.1101" lon="-1.41552">
        <ele>23.89</ele>
        <time>2020-06-27T13:34:29Z</time>
      </trkpt>
      <trkpt lat="47.10999" lon="-1.41543">
        <ele>23.05</ele>
        <time>2020-06-27T13:34:30Z</time>
      </trkpt>
      <trkpt lat="47.1099" lon="-1.41537">
        <ele>22.15</ele>
        <time>2020-06-27T13:34:31Z</time>
      </trkpt>
      <trkpt lat="47.10979" lon="-1.41533">
        <ele>21.49</ele>
        <time>2020-06-27T13:34:32Z</time>
      </trkpt>
      <trkpt lat="47.10968" lon="-1.4153">
        <ele>21.01</ele>
        <time>2020-06-27T13:34:33Z</time>
      </trkpt>
      <trkpt lat="47.1095" lon="-1.41525">
        <ele>19.36</ele>
        <time>2020-06-27T13:34:35Z</time>
      </trkpt>
      <trkpt lat="47.1094" lon="-1.41522">
        <ele>19.11</ele>
        <time>2020-06-27T13:34:36Z</time>
      </trkpt>
      <trkpt lat="47.10928" lon="-1.41523">
        <ele>18.63</ele>
        <time>2020-06-27T13:34:37Z</time>
      </trkpt>
      <trkpt lat="47.10916" lon="-1.41524">
        <ele>18.56</ele>
        <time>2020-06-27T13:34:38Z</time>
      </trkpt>
      <trkpt lat="47.10906" lon="-1.41524">
        <ele>18.41</ele>
        <time>2020-06-27T13:34:39Z</time>
      </trkpt>
      <trkpt lat="47.10887" lon="-1.41525">
        <ele>17.47</ele>
        <time>2020-06-27T13:34:41Z</time>
      </trkpt>
      <trkpt lat="47.10877" lon="-1.41524">
        <ele>16.99</ele>
        <time>2020-06-27T13:34:42Z</time>
      </trkpt>
      <trkpt lat="47.10868" lon="-1.4152">
        <ele>16.64</ele>
        <time>2020-06-27T13:34:43Z</time>
      </trkpt>
      <trkpt lat="47.10858" lon="-1.41513">
        <ele>16.34</ele>
        <time>2020-06-27T13:34:44Z</time>
      </trkpt>
      <trkpt lat="47.1085" lon="-1.41505">
        <ele>16.42</ele>
        <time>2020-06-27T13:34:45Z</time>
      </trkpt>
      <trkpt lat="47.10842" lon="-1.41496">
        <ele>15.99</ele>
        <time>2020-06-27T13:34:46Z</time>
      </trkpt>
      <trkpt lat="47.10828" lon="-1.41477">
        <ele>15.32</ele>
        <time>2020-06-27T13:34:48Z</time>
      </trkpt>
      <trkpt lat="47.10822" lon="-1.41468">
        <ele>14.65</ele>
        <time>2020-06-27T13:34:49Z</time>
      </trkpt>
      <trkpt lat="47.1081" lon="-1.4145">
        <ele>14.36</ele>
        <time>2020-06-27T13:34:51Z</time>
      </trkpt>
      <trkpt lat="47.10798" lon="-1.41431">
        <ele>13.94</ele>
        <time>2020-06-27T13:34:53Z</time>
      </trkpt>
      <trkpt lat="47.10786" lon="-1.41412">
        <ele>13.88</ele>
        <time>2020-06-27T13:34:55Z</time>
      </trkpt>
      <trkpt lat="47.10779" lon="-1.41401">
        <ele>13.74</ele>
        <time>2020-06-27T13:34:56Z</time>
      </trkpt>
      <trkpt lat="47.10769" lon="-1.41383">
        <ele>13.16</ele>
        <time>2020-06-27T13:34:58Z</time>
      </trkpt>
      <trkpt lat="47.10761" lon="-1.41365">
        <ele>12.28</ele>
        <time>2020-06-27T13:35:00Z</time>
      </trkpt>
      <trkpt lat="47.10755" lon="-1.41346">
        <ele>12.13</ele>
        <time>2020-06-27T13:35:02Z</time>
      </trkpt>
      <trkpt lat="47.10748" lon="-1.41328">
        <ele>12.22</ele>
        <time>2020-06-27T13:35:04Z</time>
      </trkpt>
      <trkpt lat="47.10742" lon="-1.41312">
        <ele>12.06</ele>
        <time>2020-06-27T13:35:06Z</time>
      </trkpt>
      <trkpt lat="47.10735" lon="-1.41295">
        <ele>11.87</ele>
        <time>2020-06-27T13:35:08Z</time>
      </trkpt>
      <trkpt lat="47.10729" lon="-1.41281">
        <ele>11.95</ele>
        <time>2020-06-27T13:35:10Z</time>
      </trkpt>
      <trkpt lat="47.10722" lon="-1.41267">
        <ele>11.28</ele>
        <time>2020-06-27T13:35:12Z</time>
      </trkpt>
      <trkpt lat="47.10712" lon="-1.41256">
        <ele>10.49</ele>
        <time>2020-06-27T13:35:14Z</time>
      </trkpt>
      <trkpt lat="47.10703" lon="-1.41246">
        <ele>10.31</ele>
        <time>2020-06-27T13:35:16Z</time>
      </trkpt>
      <trkpt lat="47.10691" lon="-1.41237">
        <ele>11.67</ele>
        <time>2020-06-27T13:35:19Z</time>
      </trkpt>
      <trkpt lat="47.10679" lon="-1.41232">
        <ele>12.5</ele>
        <time>2020-06-27T13:35:21Z</time>
      </trkpt>
      <trkpt lat="47.10667" lon="-1.41227">
        <ele>13.75</ele>
        <time>2020-06-27T13:35:23Z</time>
      </trkpt>
      <trkpt lat="47.10656" lon="-1.41223">
        <ele>15.41</ele>
        <time>2020-06-27T13:35:25Z</time>
      </trkpt>
      <trkpt lat="47.10642" lon="-1.41216">
        <ele>17.23</ele>
        <time>2020-06-27T13:35:27Z</time>
      </trkpt>
      <trkpt lat="47.10631" lon="-1.41207">
        <ele>18.29</ele>
        <time>2020-06-27T13:35:29Z</time>
      </trkpt>
      <trkpt lat="47.10623" lon="-1.41192">
        <ele>17.91</ele>
        <time>2020-06-27T13:35:31Z</time>
      </trkpt>
      <trkpt lat="47.10615" lon="-1.41176">
        <ele>17.25</ele>
        <time>2020-06-27T13:35:33Z</time>
      </trkpt>
      <trkpt lat="47.10608" lon="-1.41161">
        <ele>17.39</ele>
        <time>2020-06-27T13:35:35Z</time>
      </trkpt>
      <trkpt lat="47.10605" lon="-1.41147">
        <ele>18.03</ele>
        <time>2020-06-27T13:35:37Z</time>
      </trkpt>
      <trkpt lat="47.106" lon="-1.41132">
        <ele>19.61</ele>
        <time>2020-06-27T13:35:39Z</time>
      </trkpt>
      <trkpt lat="47.10593" lon="-1.41117">
        <ele>22.09</ele>
        <time>2020-06-27T13:35:41Z</time>
      </trkpt>
      <trkpt lat="47.10587" lon="-1.41103">
        <ele>24.42</ele>
        <time>2020-06-27T13:35:43Z</time>
      </trkpt>
      <trkpt lat="47.10581" lon="-1.41089">
        <ele>25.74</ele>
        <time>2020-06-27T13:35:45Z</time>
      </trkpt>
      <trkpt lat="47.10574" lon="-1.4107">
        <ele>26</ele>
        <time>2020-06-27T13:35:47Z</time>
      </trkpt>
      <trkpt lat="47.10568" lon="-1.41052">
        <ele>26.42</ele>
        <time>2020-06-27T13:35:49Z</time>
      </trkpt>
      <trkpt lat="47.10563" lon="-1.41038">
        <ele>26.79</ele>
        <time>2020-06-27T13:35:51Z</time>
      </trkpt>
      <trkpt lat="47.10559" lon="-1.41023">
        <ele>26.31</ele>
        <time>2020-06-27T13:35:53Z</time>
      </trkpt>
      <trkpt lat="47.10556" lon="-1.41009">
        <ele>26.73</ele>
        <time>2020-06-27T13:35:55Z</time>
      </trkpt>
      <trkpt lat="47.10554" lon="-1.40992">
        <ele>27.19</ele>
        <time>2020-06-27T13:35:57Z</time>
      </trkpt>
      <trkpt lat="47.10554" lon="-1.40976">
        <ele>27.45</ele>
        <time>2020-06-27T13:35:59Z</time>
      </trkpt>
      <trkpt lat="47.10555" lon="-1.4096">
        <ele>27.75</ele>
        <time>2020-06-27T13:36:01Z</time>
      </trkpt>
      <trkpt lat="47.10557" lon="-1.40945">
        <ele>28</ele>
        <time>2020-06-27T13:36:03Z</time>
      </trkpt>
      <trkpt lat="47.10561" lon="-1.4093">
        <ele>28.22</ele>
        <time>2020-06-27T13:36:05Z</time>
      </trkpt>
      <trkpt lat="47.10565" lon="-1.40917">
        <ele>27.76</ele>
        <time>2020-06-27T13:36:07Z</time>
      </trkpt>
      <trkpt lat="47.10568" lon="-1.40904">
        <ele>26.73</ele>
        <time>2020-06-27T13:36:09Z</time>
      </trkpt>
      <trkpt lat="47.10572" lon="-1.40888">
        <ele>27.46</ele>
        <time>2020-06-27T13:36:11Z</time>
      </trkpt>
      <trkpt lat="47.10576" lon="-1.40874">
        <ele>29.41</ele>
        <time>2020-06-27T13:36:13Z</time>
      </trkpt>
      <trkpt lat="47.10579" lon="-1.40859">
        <ele>31.42</ele>
        <time>2020-06-27T13:36:15Z</time>
      </trkpt>
      <trkpt lat="47.1058" lon="-1.40845">
        <ele>32.68</ele>
        <time>2020-06-27T13:36:17Z</time>
      </trkpt>
      <trkpt lat="47.10579" lon="-1.40829">
        <ele>33.17</ele>
        <time>2020-06-27T13:36:19Z</time>
      </trkpt>
      <trkpt lat="47.10579" lon="-1.40812">
        <ele>33.05</ele>
        <time>2020-06-27T13:36:21Z</time>
      </trkpt>
      <trkpt lat="47.10578" lon="-1.40797">
        <ele>31.6</ele>
        <time>2020-06-27T13:36:23Z</time>
      </trkpt>
      <trkpt lat="47.10578" lon="-1.40779">
        <ele>31.41</ele>
        <time>2020-06-27T13:36:25Z</time>
      </trkpt>
      <trkpt lat="47.10576" lon="-1.40764">
        <ele>30.96</ele>
        <time>2020-06-27T13:36:27Z</time>
      </trkpt>
      <trkpt lat="47.10573" lon="-1.40747">
        <ele>31.35</ele>
        <time>2020-06-27T13:36:29Z</time>
      </trkpt>
      <trkpt lat="47.1057" lon="-1.40731">
        <ele>31.24</ele>
        <time>2020-06-27T13:36:31Z</time>
      </trkpt>
      <trkpt lat="47.1057" lon="-1.40713">
        <ele>31.51</ele>
        <time>2020-06-27T13:36:33Z</time>
      </trkpt>
      <trkpt lat="47.10572" lon="-1.40697">
        <ele>31.1</ele>
        <time>2020-06-27T13:36:35Z</time>
      </trkpt>
      <trkpt lat="47.10573" lon="-1.40682">
        <ele>29.4</ele>
        <time>2020-06-27T13:36:37Z</time>
      </trkpt>
      <trkpt lat="47.10574" lon="-1.40665">
        <ele>28.77</ele>
        <time>2020-06-27T13:36:39Z</time>
      </trkpt>
      <trkpt lat="47.10575" lon="-1.40648">
        <ele>30.87</ele>
        <time>2020-06-27T13:36:41Z</time>
      </trkpt>
      <trkpt lat="47.10576" lon="-1.4063">
        <ele>33.03</ele>
        <time>2020-06-27T13:36:43Z</time>
      </trkpt>
      <trkpt lat="47.10575" lon="-1.40616">
        <ele>33.77</ele>
        <time>2020-06-27T13:36:45Z</time>
      </trkpt>
      <trkpt lat="47.10572" lon="-1.40597">
        <ele>35.34</ele>
        <time>2020-06-27T13:36:48Z</time>
      </trkpt>
      <trkpt lat="47.1057" lon="-1.40582">
        <ele>36.6</ele>
        <time>2020-06-27T13:36:50Z</time>
      </trkpt>
      <trkpt lat="47.10567" lon="-1.40566">
        <ele>37.01</ele>
        <time>2020-06-27T13:36:52Z</time>
      </trkpt>
      <trkpt lat="47.10563" lon="-1.4055">
        <ele>36.43</ele>
        <time>2020-06-27T13:36:54Z</time>
      </trkpt>
      <trkpt lat="47.10559" lon="-1.40536">
        <ele>37.2</ele>
        <time>2020-06-27T13:36:56Z</time>
      </trkpt>
      <trkpt lat="47.10556" lon="-1.40522">
        <ele>38.21</ele>
        <time>2020-06-27T13:36:58Z</time>
      </trkpt>
      <trkpt lat="47.10552" lon="-1.40507">
        <ele>40.38</ele>
        <time>2020-06-27T13:37:00Z</time>
      </trkpt>
      <trkpt lat="47.10548" lon="-1.40491">
        <ele>41.98</ele>
        <time>2020-06-27T13:37:02Z</time>
      </trkpt>
      <trkpt lat="47.10544" lon="-1.40474">
        <ele>43.44</ele>
        <time>2020-06-27T13:37:04Z</time>
      </trkpt>
      <trkpt lat="47.10541" lon="-1.40459">
        <ele>45.01</ele>
        <time>2020-06-27T13:37:06Z</time>
      </trkpt>
      <trkpt lat="47.1054" lon="-1.40441">
        <ele>45.78</ele>
        <time>2020-06-27T13:37:08Z</time>
      </trkpt>
      <trkpt lat="47.10539" lon="-1.40423">
        <ele>46.47</ele>
        <time>2020-06-27T13:37:10Z</time>
      </trkpt>
      <trkpt lat="47.10537" lon="-1.40405">
        <ele>46.57</ele>
        <time>2020-06-27T13:37:12Z</time>
      </trkpt>
      <trkpt lat="47.10535" lon="-1.4039">
        <ele>46.01</ele>
        <time>2020-06-27T13:37:14Z</time>
      </trkpt>
      <trkpt lat="47.10533" lon="-1.40373">
        <ele>45.35</ele>
        <time>2020-06-27T13:37:16Z</time>
      </trkpt>
      <trkpt lat="47.1053" lon="-1.40357">
        <ele>43.91</ele>
        <time>2020-06-27T13:37:18Z</time>
      </trkpt>
      <trkpt lat="47.10526" lon="-1.40341">
        <ele>43.05</ele>
        <time>2020-06-27T13:37:20Z</time>
      </trkpt>
      <trkpt lat="47.10524" lon="-1.40327">
        <ele>42.49</ele>
        <time>2020-06-27T13:37:22Z</time>
      </trkpt>
      <trkpt lat="47.1052" lon="-1.40311">
        <ele>42.88</ele>
        <time>2020-06-27T13:37:24Z</time>
      </trkpt>
      <trkpt lat="47.10516" lon="-1.40295">
        <ele>44.05</ele>
        <time>2020-06-27T13:37:26Z</time>
      </trkpt>
      <trkpt lat="47.10512" lon="-1.40279">
        <ele>44.46</ele>
        <time>2020-06-27T13:37:28Z</time>
      </trkpt>
      <trkpt lat="47.10508" lon="-1.40265">
        <ele>45.08</ele>
        <time>2020-06-27T13:37:30Z</time>
      </trkpt>
      <trkpt lat="47.10503" lon="-1.40247">
        <ele>45.85</ele>
        <time>2020-06-27T13:37:32Z</time>
      </trkpt>
      <trkpt lat="47.10497" lon="-1.40231">
        <ele>46.2</ele>
        <time>2020-06-27T13:37:34Z</time>
      </trkpt>
      <trkpt lat="47.10492" lon="-1.40215">
        <ele>45.38</ele>
        <time>2020-06-27T13:37:36Z</time>
      </trkpt>
      <trkpt lat="47.10486" lon="-1.40202">
        <ele>44.44</ele>
        <time>2020-06-27T13:37:38Z</time>
      </trkpt>
      <trkpt lat="47.1048" lon="-1.40188">
        <ele>44.34</ele>
        <time>2020-06-27T13:37:40Z</time>
      </trkpt>
      <trkpt lat="47.10471" lon="-1.40176">
        <ele>43.79</ele>
        <time>2020-06-27T13:37:42Z</time>
      </trkpt>
      <trkpt lat="47.10462" lon="-1.40164">
        <ele>43.99</ele>
        <time>2020-06-27T13:37:44Z</time>
      </trkpt>
      <trkpt lat="47.10453" lon="-1.4015">
        <ele>44.54</ele>
        <time>2020-06-27T13:37:46Z</time>
      </trkpt>
      <trkpt lat="47.10444" lon="-1.40138">
        <ele>43.99</ele>
        <time>2020-06-27T13:37:48Z</time>
      </trkpt>
      <trkpt lat="47.10437" lon="-1.40126">
        <ele>43.18</ele>
        <time>2020-06-27T13:37:50Z</time>
      </trkpt>
      <trkpt lat="47.10429" lon="-1.40114">
        <ele>43.8</ele>
        <time>2020-06-27T13:37:52Z</time>
      </trkpt>
      <trkpt lat="47.10422" lon="-1.40103">
        <ele>45.32</ele>
        <time>2020-06-27T13:37:54Z</time>
      </trkpt>
      <trkpt lat="47.10411" lon="-1.4009">
        <ele>47.6</ele>
        <time>2020-06-27T13:37:57Z</time>
      </trkpt>
      <trkpt lat="47.10403" lon="-1.40079">
        <ele>48.03</ele>
        <time>2020-06-27T13:37:59Z</time>
      </trkpt>
      <trkpt lat="47.10396" lon="-1.40068">
        <ele>47.89</ele>
        <time>2020-06-27T13:38:01Z</time>
      </trkpt>
      <trkpt lat="47.1039" lon="-1.40058">
        <ele>47.64</ele>
        <time>2020-06-27T13:38:03Z</time>
      </trkpt>
      <trkpt lat="47.10382" lon="-1.40048">
        <ele>47.72</ele>
        <time>2020-06-27T13:38:05Z</time>
      </trkpt>
      <trkpt lat="47.10373" lon="-1.40038">
        <ele>47.63</ele>
        <time>2020-06-27T13:38:07Z</time>
      </trkpt>
      <trkpt lat="47.10363" lon="-1.40027">
        <ele>46.72</ele>
        <time>2020-06-27T13:38:09Z</time>
      </trkpt>
      <trkpt lat="47.10355" lon="-1.40015">
        <ele>44.71</ele>
        <time>2020-06-27T13:38:11Z</time>
      </trkpt>
      <trkpt lat="47.10346" lon="-1.40003">
        <ele>43.6</ele>
        <time>2020-06-27T13:38:13Z</time>
      </trkpt>
      <trkpt lat="47.1034" lon="-1.39993">
        <ele>44.4</ele>
        <time>2020-06-27T13:38:15Z</time>
      </trkpt>
      <trkpt lat="47.10332" lon="-1.39981">
        <ele>45.87</ele>
        <time>2020-06-27T13:38:17Z</time>
      </trkpt>
      <trkpt lat="47.10324" lon="-1.39969">
        <ele>46.35</ele>
        <time>2020-06-27T13:38:19Z</time>
      </trkpt>
      <trkpt lat="47.10316" lon="-1.39955">
        <ele>47.68</ele>
        <time>2020-06-27T13:38:21Z</time>
      </trkpt>
      <trkpt lat="47.10309" lon="-1.39939">
        <ele>49.62</ele>
        <time>2020-06-27T13:38:23Z</time>
      </trkpt>
      <trkpt lat="47.10303" lon="-1.39923">
        <ele>50.79</ele>
        <time>2020-06-27T13:38:25Z</time>
      </trkpt>
      <trkpt lat="47.10297" lon="-1.3991">
        <ele>52.2</ele>
        <time>2020-06-27T13:38:27Z</time>
      </trkpt>
      <trkpt lat="47.1029" lon="-1.39893">
        <ele>52.27</ele>
        <time>2020-06-27T13:38:29Z</time>
      </trkpt>
      <trkpt lat="47.10286" lon="-1.39879">
        <ele>52.59</ele>
        <time>2020-06-27T13:38:31Z</time>
      </trkpt>
      <trkpt lat="47.10282" lon="-1.39866">
        <ele>53.89</ele>
        <time>2020-06-27T13:38:33Z</time>
      </trkpt>
      <trkpt lat="47.10278" lon="-1.39853">
        <ele>55.72</ele>
        <time>2020-06-27T13:38:35Z</time>
      </trkpt>
      <trkpt lat="47.10273" lon="-1.39836">
        <ele>56.31</ele>
        <time>2020-06-27T13:38:37Z</time>
      </trkpt>
      <trkpt lat="47.10268" lon="-1.39822">
        <ele>57.13</ele>
        <time>2020-06-27T13:38:39Z</time>
      </trkpt>
      <trkpt lat="47.10262" lon="-1.39807">
        <ele>57.99</ele>
        <time>2020-06-27T13:38:41Z</time>
      </trkpt>
      <trkpt lat="47.10255" lon="-1.39787">
        <ele>59.2</ele>
        <time>2020-06-27T13:38:43Z</time>
      </trkpt>
      <trkpt lat="47.1025" lon="-1.39772">
        <ele>58.35</ele>
        <time>2020-06-27T13:38:45Z</time>
      </trkpt>
      <trkpt lat="47.10245" lon="-1.39757">
        <ele>57.68</ele>
        <time>2020-06-27T13:38:47Z</time>
      </trkpt>
      <trkpt lat="47.1024" lon="-1.39741">
        <ele>56.82</ele>
        <time>2020-06-27T13:38:49Z</time>
      </trkpt>
      <trkpt lat="47.10232" lon="-1.39724">
        <ele>56.55</ele>
        <time>2020-06-27T13:38:51Z</time>
      </trkpt>
      <trkpt lat="47.1022" lon="-1.39709">
        <ele>56.86</ele>
        <time>2020-06-27T13:38:53Z</time>
      </trkpt>
      <trkpt lat="47.10208" lon="-1.39695">
        <ele>56.84</ele>
        <time>2020-06-27T13:38:55Z</time>
      </trkpt>
      <trkpt lat="47.10198" lon="-1.39685">
        <ele>56.84</ele>
        <time>2020-06-27T13:38:57Z</time>
      </trkpt>
      <trkpt lat="47.10185" lon="-1.39675">
        <ele>56.43</ele>
        <time>2020-06-27T13:38:59Z</time>
      </trkpt>
      <trkpt lat="47.10173" lon="-1.39665">
        <ele>55.88</ele>
        <time>2020-06-27T13:39:01Z</time>
      </trkpt>
      <trkpt lat="47.1016" lon="-1.39656">
        <ele>55.52</ele>
        <time>2020-06-27T13:39:03Z</time>
      </trkpt>
      <trkpt lat="47.10149" lon="-1.39646">
        <ele>54.51</ele>
        <time>2020-06-27T13:39:05Z</time>
      </trkpt>
      <trkpt lat="47.10136" lon="-1.39635">
        <ele>53.43</ele>
        <time>2020-06-27T13:39:07Z</time>
      </trkpt>
      <trkpt lat="47.10125" lon="-1.39625">
        <ele>52.91</ele>
        <time>2020-06-27T13:39:09Z</time>
      </trkpt>
      <trkpt lat="47.10113" lon="-1.39616">
        <ele>53.34</ele>
        <time>2020-06-27T13:39:11Z</time>
      </trkpt>
      <trkpt lat="47.101" lon="-1.39604">
        <ele>54.09</ele>
        <time>2020-06-27T13:39:13Z</time>
      </trkpt>
      <trkpt lat="47.10086" lon="-1.39593">
        <ele>54.1</ele>
        <time>2020-06-27T13:39:15Z</time>
      </trkpt>
      <trkpt lat="47.10075" lon="-1.39583">
        <ele>54.03</ele>
        <time>2020-06-27T13:39:17Z</time>
      </trkpt>
      <trkpt lat="47.10063" lon="-1.39571">
        <ele>53.21</ele>
        <time>2020-06-27T13:39:19Z</time>
      </trkpt>
      <trkpt lat="47.10052" lon="-1.39561">
        <ele>52.27</ele>
        <time>2020-06-27T13:39:21Z</time>
      </trkpt>
      <trkpt lat="47.10039" lon="-1.3955">
        <ele>51.46</ele>
        <time>2020-06-27T13:39:23Z</time>
      </trkpt>
      <trkpt lat="47.10028" lon="-1.39539">
        <ele>51.7</ele>
        <time>2020-06-27T13:39:25Z</time>
      </trkpt>
      <trkpt lat="47.10017" lon="-1.3953">
        <ele>52.41</ele>
        <time>2020-06-27T13:39:27Z</time>
      </trkpt>
      <trkpt lat="47.10005" lon="-1.39519">
        <ele>52.65</ele>
        <time>2020-06-27T13:39:29Z</time>
      </trkpt>
      <trkpt lat="47.09992" lon="-1.39508">
        <ele>52.43</ele>
        <time>2020-06-27T13:39:31Z</time>
      </trkpt>
      <trkpt lat="47.09979" lon="-1.39498">
        <ele>51.97</ele>
        <time>2020-06-27T13:39:33Z</time>
      </trkpt>
      <trkpt lat="47.09968" lon="-1.39488">
        <ele>51.83</ele>
        <time>2020-06-27T13:39:35Z</time>
      </trkpt>
      <trkpt lat="47.09956" lon="-1.39477">
        <ele>51.38</ele>
        <time>2020-06-27T13:39:37Z</time>
      </trkpt>
      <trkpt lat="47.09945" lon="-1.39468">
        <ele>52.05</ele>
        <time>2020-06-27T13:39:39Z</time>
      </trkpt>
      <trkpt lat="47.09933" lon="-1.39457">
        <ele>52.55</ele>
        <time>2020-06-27T13:39:41Z</time>
      </trkpt>
      <trkpt lat="47.0992" lon="-1.39445">
        <ele>52.1</ele>
        <time>2020-06-27T13:39:43Z</time>
      </trkpt>
      <trkpt lat="47.09908" lon="-1.39435">
        <ele>51.61</ele>
        <time>2020-06-27T13:39:45Z</time>
      </trkpt>
      <trkpt lat="47.09898" lon="-1.39427">
        <ele>51.82</ele>
        <time>2020-06-27T13:39:47Z</time>
      </trkpt>
      <trkpt lat="47.09886" lon="-1.39416">
        <ele>52.33</ele>
        <time>2020-06-27T13:39:49Z</time>
      </trkpt>
      <trkpt lat="47.09874" lon="-1.39406">
        <ele>52.2</ele>
        <time>2020-06-27T13:39:51Z</time>
      </trkpt>
      <trkpt lat="47.09862" lon="-1.39395">
        <ele>52.26</ele>
        <time>2020-06-27T13:39:53Z</time>
      </trkpt>
      <trkpt lat="47.09848" lon="-1.39383">
        <ele>52.41</ele>
        <time>2020-06-27T13:39:55Z</time>
      </trkpt>
      <trkpt lat="47.09836" lon="-1.39371">
        <ele>51.45</ele>
        <time>2020-06-27T13:39:57Z</time>
      </trkpt>
      <trkpt lat="47.09824" lon="-1.39357">
        <ele>49.83</ele>
        <time>2020-06-27T13:39:59Z</time>
      </trkpt>
      <trkpt lat="47.09812" lon="-1.39339">
        <ele>49.11</ele>
        <time>2020-06-27T13:40:01Z</time>
      </trkpt>
      <trkpt lat="47.09801" lon="-1.3932">
        <ele>49.42</ele>
        <time>2020-06-27T13:40:03Z</time>
      </trkpt>
      <trkpt lat="47.09796" lon="-1.39309">
        <ele>49.54</ele>
        <time>2020-06-27T13:40:04Z</time>
      </trkpt>
      <trkpt lat="47.09791" lon="-1.39297">
        <ele>50.21</ele>
        <time>2020-06-27T13:40:05Z</time>
      </trkpt>
      <trkpt lat="47.09789" lon="-1.39283">
        <ele>50.67</ele>
        <time>2020-06-27T13:40:06Z</time>
      </trkpt>
      <trkpt lat="47.09786" lon="-1.39269">
        <ele>50.93</ele>
        <time>2020-06-27T13:40:07Z</time>
      </trkpt>
      <trkpt lat="47.09783" lon="-1.39255">
        <ele>50.88</ele>
        <time>2020-06-27T13:40:08Z</time>
      </trkpt>
      <trkpt lat="47.09781" lon="-1.39241">
        <ele>50.68</ele>
        <time>2020-06-27T13:40:09Z</time>
      </trkpt>
      <trkpt lat="47.09778" lon="-1.39226">
        <ele>50.21</ele>
        <time>2020-06-27T13:40:10Z</time>
      </trkpt>
      <trkpt lat="47.09775" lon="-1.39211">
        <ele>49.89</ele>
        <time>2020-06-27T13:40:11Z</time>
      </trkpt>
      <trkpt lat="47.09773" lon="-1.39196">
        <ele>49.47</ele>
        <time>2020-06-27T13:40:12Z</time>
      </trkpt>
      <trkpt lat="47.09769" lon="-1.39169">
        <ele>49.02</ele>
        <time>2020-06-27T13:40:14Z</time>
      </trkpt>
      <trkpt lat="47.09768" lon="-1.39152">
        <ele>48.28</ele>
        <time>2020-06-27T13:40:15Z</time>
      </trkpt>
      <trkpt lat="47.09765" lon="-1.39136">
        <ele>47.57</ele>
        <time>2020-06-27T13:40:16Z</time>
      </trkpt>
      <trkpt lat="47.09759" lon="-1.39109">
        <ele>46.1</ele>
        <time>2020-06-27T13:40:18Z</time>
      </trkpt>
      <trkpt lat="47.09755" lon="-1.39095">
        <ele>45.47</ele>
        <time>2020-06-27T13:40:19Z</time>
      </trkpt>
      <trkpt lat="47.0975" lon="-1.39081">
        <ele>45.05</ele>
        <time>2020-06-27T13:40:20Z</time>
      </trkpt>
      <trkpt lat="47.09741" lon="-1.39059">
        <ele>44.44</ele>
        <time>2020-06-27T13:40:22Z</time>
      </trkpt>
      <trkpt lat="47.09732" lon="-1.39038">
        <ele>44.23</ele>
        <time>2020-06-27T13:40:24Z</time>
      </trkpt>
      <trkpt lat="47.09723" lon="-1.39018">
        <ele>44.09</ele>
        <time>2020-06-27T13:40:26Z</time>
      </trkpt>
      <trkpt lat="47.09716" lon="-1.39">
        <ele>44.25</ele>
        <time>2020-06-27T13:40:28Z</time>
      </trkpt>
      <trkpt lat="47.09709" lon="-1.38984">
        <ele>44.88</ele>
        <time>2020-06-27T13:40:30Z</time>
      </trkpt>
      <trkpt lat="47.09701" lon="-1.38964">
        <ele>45.84</ele>
        <time>2020-06-27T13:40:32Z</time>
      </trkpt>
      <trkpt lat="47.09694" lon="-1.38946">
        <ele>46.41</ele>
        <time>2020-06-27T13:40:34Z</time>
      </trkpt>
      <trkpt lat="47.09687" lon="-1.38931">
        <ele>46.57</ele>
        <time>2020-06-27T13:40:36Z</time>
      </trkpt>
      <trkpt lat="47.0968" lon="-1.38916">
        <ele>47.04</ele>
        <time>2020-06-27T13:40:38Z</time>
      </trkpt>
      <trkpt lat="47.09674" lon="-1.38899">
        <ele>47.61</ele>
        <time>2020-06-27T13:40:40Z</time>
      </trkpt>
      <trkpt lat="47.09669" lon="-1.38882">
        <ele>48.14</ele>
        <time>2020-06-27T13:40:43Z</time>
      </trkpt>
      <trkpt lat="47.09664" lon="-1.38866">
        <ele>48.66</ele>
        <time>2020-06-27T13:40:45Z</time>
      </trkpt>
      <trkpt lat="47.09659" lon="-1.38849">
        <ele>48.2</ele>
        <time>2020-06-27T13:40:47Z</time>
      </trkpt>
      <trkpt lat="47.09654" lon="-1.3883">
        <ele>47.49</ele>
        <time>2020-06-27T13:40:49Z</time>
      </trkpt>
      <trkpt lat="47.09651" lon="-1.38808">
        <ele>48.68</ele>
        <time>2020-06-27T13:40:51Z</time>
      </trkpt>
      <trkpt lat="47.0965" lon="-1.3879">
        <ele>49.88</ele>
        <time>2020-06-27T13:40:53Z</time>
      </trkpt>
      <trkpt lat="47.0965" lon="-1.38772">
        <ele>50.62</ele>
        <time>2020-06-27T13:40:55Z</time>
      </trkpt>
      <trkpt lat="47.09651" lon="-1.38752">
        <ele>51.36</ele>
        <time>2020-06-27T13:40:57Z</time>
      </trkpt>
      <trkpt lat="47.09655" lon="-1.38735">
        <ele>52.56</ele>
        <time>2020-06-27T13:40:59Z</time>
      </trkpt>
      <trkpt lat="47.09659" lon="-1.38717">
        <ele>53.33</ele>
        <time>2020-06-27T13:41:01Z</time>
      </trkpt>
      <trkpt lat="47.09664" lon="-1.387">
        <ele>53.76</ele>
        <time>2020-06-27T13:41:03Z</time>
      </trkpt>
      <trkpt lat="47.09668" lon="-1.38687">
        <ele>54.36</ele>
        <time>2020-06-27T13:41:05Z</time>
      </trkpt>
      <trkpt lat="47.09675" lon="-1.38671">
        <ele>54.69</ele>
        <time>2020-06-27T13:41:07Z</time>
      </trkpt>
      <trkpt lat="47.09682" lon="-1.38655">
        <ele>55.31</ele>
        <time>2020-06-27T13:41:09Z</time>
      </trkpt>
      <trkpt lat="47.09688" lon="-1.3864">
        <ele>56.02</ele>
        <time>2020-06-27T13:41:11Z</time>
      </trkpt>
      <trkpt lat="47.09694" lon="-1.38625">
        <ele>56.85</ele>
        <time>2020-06-27T13:41:13Z</time>
      </trkpt>
      <trkpt lat="47.097" lon="-1.38611">
        <ele>57.65</ele>
        <time>2020-06-27T13:41:15Z</time>
      </trkpt>
      <trkpt lat="47.09705" lon="-1.38598">
        <ele>57.6</ele>
        <time>2020-06-27T13:41:17Z</time>
      </trkpt>
      <trkpt lat="47.0971" lon="-1.38582">
        <ele>56.94</ele>
        <time>2020-06-27T13:41:19Z</time>
      </trkpt>
      <trkpt lat="47.09712" lon="-1.38564">
        <ele>56.39</ele>
        <time>2020-06-27T13:41:21Z</time>
      </trkpt>
      <trkpt lat="47.09714" lon="-1.38547">
        <ele>56.48</ele>
        <time>2020-06-27T13:41:23Z</time>
      </trkpt>
      <trkpt lat="47.09715" lon="-1.38532">
        <ele>56.56</ele>
        <time>2020-06-27T13:41:25Z</time>
      </trkpt>
      <trkpt lat="47.09716" lon="-1.38515">
        <ele>56.89</ele>
        <time>2020-06-27T13:41:27Z</time>
      </trkpt>
      <trkpt lat="47.09716" lon="-1.38499">
        <ele>58.29</ele>
        <time>2020-06-27T13:41:29Z</time>
      </trkpt>
      <trkpt lat="47.09716" lon="-1.38484">
        <ele>59.09</ele>
        <time>2020-06-27T13:41:31Z</time>
      </trkpt>
      <trkpt lat="47.09715" lon="-1.38468">
        <ele>60.29</ele>
        <time>2020-06-27T13:41:33Z</time>
      </trkpt>
      <trkpt lat="47.09714" lon="-1.38449">
        <ele>60.94</ele>
        <time>2020-06-27T13:41:35Z</time>
      </trkpt>
      <trkpt lat="47.09714" lon="-1.38432">
        <ele>60.57</ele>
        <time>2020-06-27T13:41:37Z</time>
      </trkpt>
      <trkpt lat="47.09713" lon="-1.38412">
        <ele>60.71</ele>
        <time>2020-06-27T13:41:39Z</time>
      </trkpt>
      <trkpt lat="47.09712" lon="-1.38393">
        <ele>61.09</ele>
        <time>2020-06-27T13:41:41Z</time>
      </trkpt>
      <trkpt lat="47.0971" lon="-1.3837">
        <ele>61.48</ele>
        <time>2020-06-27T13:41:43Z</time>
      </trkpt>
      <trkpt lat="47.09708" lon="-1.38351">
        <ele>62.82</ele>
        <time>2020-06-27T13:41:45Z</time>
      </trkpt>
      <trkpt lat="47.09705" lon="-1.38333">
        <ele>64.01</ele>
        <time>2020-06-27T13:41:47Z</time>
      </trkpt>
      <trkpt lat="47.097" lon="-1.38315">
        <ele>63.99</ele>
        <time>2020-06-27T13:41:49Z</time>
      </trkpt>
      <trkpt lat="47.09693" lon="-1.38295">
        <ele>63.25</ele>
        <time>2020-06-27T13:41:51Z</time>
      </trkpt>
      <trkpt lat="47.09683" lon="-1.38281">
        <ele>63.02</ele>
        <time>2020-06-27T13:41:53Z</time>
      </trkpt>
      <trkpt lat="47.09672" lon="-1.38266">
        <ele>62.08</ele>
        <time>2020-06-27T13:41:55Z</time>
      </trkpt>
      <trkpt lat="47.09666" lon="-1.38256">
        <ele>61.14</ele>
        <time>2020-06-27T13:41:56Z</time>
      </trkpt>
      <trkpt lat="47.09653" lon="-1.38239">
        <ele>59.24</ele>
        <time>2020-06-27T13:41:58Z</time>
      </trkpt>
      <trkpt lat="47.09642" lon="-1.38222">
        <ele>58.47</ele>
        <time>2020-06-27T13:42:00Z</time>
      </trkpt>
      <trkpt lat="47.09631" lon="-1.38205">
        <ele>57.06</ele>
        <time>2020-06-27T13:42:02Z</time>
      </trkpt>
      <trkpt lat="47.09619" lon="-1.38188">
        <ele>55.35</ele>
        <time>2020-06-27T13:42:04Z</time>
      </trkpt>
      <trkpt lat="47.0961" lon="-1.38173">
        <ele>54.28</ele>
        <time>2020-06-27T13:42:06Z</time>
      </trkpt>
      <trkpt lat="47.09602" lon="-1.3816">
        <ele>55.13</ele>
        <time>2020-06-27T13:42:08Z</time>
      </trkpt>
      <trkpt lat="47.0959" lon="-1.38143">
        <ele>55.39</ele>
        <time>2020-06-27T13:42:10Z</time>
      </trkpt>
      <trkpt lat="47.09579" lon="-1.38126">
        <ele>55.41</ele>
        <time>2020-06-27T13:42:12Z</time>
      </trkpt>
      <trkpt lat="47.09569" lon="-1.38109">
        <ele>55.54</ele>
        <time>2020-06-27T13:42:14Z</time>
      </trkpt>
      <trkpt lat="47.09559" lon="-1.38093">
        <ele>55.38</ele>
        <time>2020-06-27T13:42:16Z</time>
      </trkpt>
      <trkpt lat="47.0955" lon="-1.38079">
        <ele>55.3</ele>
        <time>2020-06-27T13:42:18Z</time>
      </trkpt>
      <trkpt lat="47.09541" lon="-1.38066">
        <ele>54.51</ele>
        <time>2020-06-27T13:42:20Z</time>
      </trkpt>
      <trkpt lat="47.09531" lon="-1.38051">
        <ele>53.98</ele>
        <time>2020-06-27T13:42:22Z</time>
      </trkpt>
      <trkpt lat="47.0952" lon="-1.38033">
        <ele>53.79</ele>
        <time>2020-06-27T13:42:24Z</time>
      </trkpt>
      <trkpt lat="47.09512" lon="-1.38019">
        <ele>54.27</ele>
        <time>2020-06-27T13:42:26Z</time>
      </trkpt>
      <trkpt lat="47.09504" lon="-1.38005">
        <ele>54.13</ele>
        <time>2020-06-27T13:42:28Z</time>
      </trkpt>
      <trkpt lat="47.09496" lon="-1.37989">
        <ele>55.32</ele>
        <time>2020-06-27T13:42:30Z</time>
      </trkpt>
      <trkpt lat="47.0949" lon="-1.37974">
        <ele>56.17</ele>
        <time>2020-06-27T13:42:32Z</time>
      </trkpt>
      <trkpt lat="47.09482" lon="-1.37957">
        <ele>55.4</ele>
        <time>2020-06-27T13:42:34Z</time>
      </trkpt>
      <trkpt lat="47.09474" lon="-1.37938">
        <ele>54.78</ele>
        <time>2020-06-27T13:42:36Z</time>
      </trkpt>
      <trkpt lat="47.09466" lon="-1.37919">
        <ele>54.28</ele>
        <time>2020-06-27T13:42:38Z</time>
      </trkpt>
      <trkpt lat="47.09459" lon="-1.37903">
        <ele>54.77</ele>
        <time>2020-06-27T13:42:40Z</time>
      </trkpt>
      <trkpt lat="47.09452" lon="-1.37884">
        <ele>55.67</ele>
        <time>2020-06-27T13:42:42Z</time>
      </trkpt>
      <trkpt lat="47.09446" lon="-1.37864">
        <ele>56.42</ele>
        <time>2020-06-27T13:42:44Z</time>
      </trkpt>
      <trkpt lat="47.09442" lon="-1.37844">
        <ele>57.08</ele>
        <time>2020-06-27T13:42:46Z</time>
      </trkpt>
      <trkpt lat="47.09437" lon="-1.37824">
        <ele>56.95</ele>
        <time>2020-06-27T13:42:48Z</time>
      </trkpt>
      <trkpt lat="47.09433" lon="-1.37804">
        <ele>56.95</ele>
        <time>2020-06-27T13:42:50Z</time>
      </trkpt>
      <trkpt lat="47.09429" lon="-1.37783">
        <ele>56.25</ele>
        <time>2020-06-27T13:42:52Z</time>
      </trkpt>
      <trkpt lat="47.09426" lon="-1.37761">
        <ele>56.9</ele>
        <time>2020-06-27T13:42:54Z</time>
      </trkpt>
      <trkpt lat="47.09422" lon="-1.37741">
        <ele>57.39</ele>
        <time>2020-06-27T13:42:56Z</time>
      </trkpt>
      <trkpt lat="47.09418" lon="-1.3772">
        <ele>55.92</ele>
        <time>2020-06-27T13:42:58Z</time>
      </trkpt>
      <trkpt lat="47.09415" lon="-1.37698">
        <ele>54.84</ele>
        <time>2020-06-27T13:43:00Z</time>
      </trkpt>
      <trkpt lat="47.09411" lon="-1.37678">
        <ele>54.02</ele>
        <time>2020-06-27T13:43:02Z</time>
      </trkpt>
      <trkpt lat="47.09407" lon="-1.37657">
        <ele>54.13</ele>
        <time>2020-06-27T13:43:04Z</time>
      </trkpt>
      <trkpt lat="47.09404" lon="-1.37637">
        <ele>55.17</ele>
        <time>2020-06-27T13:43:06Z</time>
      </trkpt>
      <trkpt lat="47.09401" lon="-1.37618">
        <ele>56.03</ele>
        <time>2020-06-27T13:43:08Z</time>
      </trkpt>
      <trkpt lat="47.09396" lon="-1.37602">
        <ele>57.21</ele>
        <time>2020-06-27T13:43:10Z</time>
      </trkpt>
      <trkpt lat="47.0939" lon="-1.37582">
        <ele>58.17</ele>
        <time>2020-06-27T13:43:12Z</time>
      </trkpt>
      <trkpt lat="47.09385" lon="-1.37563">
        <ele>58.01</ele>
        <time>2020-06-27T13:43:14Z</time>
      </trkpt>
      <trkpt lat="47.0938" lon="-1.37546">
        <ele>58.11</ele>
        <time>2020-06-27T13:43:16Z</time>
      </trkpt>
      <trkpt lat="47.09376" lon="-1.37527">
        <ele>57.86</ele>
        <time>2020-06-27T13:43:18Z</time>
      </trkpt>
      <trkpt lat="47.0937" lon="-1.37505">
        <ele>58.12</ele>
        <time>2020-06-27T13:43:20Z</time>
      </trkpt>
      <trkpt lat="47.09364" lon="-1.37485">
        <ele>58.57</ele>
        <time>2020-06-27T13:43:22Z</time>
      </trkpt>
      <trkpt lat="47.09359" lon="-1.37466">
        <ele>58.48</ele>
        <time>2020-06-27T13:43:24Z</time>
      </trkpt>
      <trkpt lat="47.09353" lon="-1.37445">
        <ele>58.14</ele>
        <time>2020-06-27T13:43:26Z</time>
      </trkpt>
      <trkpt lat="47.09347" lon="-1.37425">
        <ele>57.05</ele>
        <time>2020-06-27T13:43:28Z</time>
      </trkpt>
      <trkpt lat="47.09341" lon="-1.37405">
        <ele>56.19</ele>
        <time>2020-06-27T13:43:30Z</time>
      </trkpt>
      <trkpt lat="47.09336" lon="-1.37387">
        <ele>56.22</ele>
        <time>2020-06-27T13:43:32Z</time>
      </trkpt>
      <trkpt lat="47.09329" lon="-1.37364">
        <ele>55.64</ele>
        <time>2020-06-27T13:43:34Z</time>
      </trkpt>
      <trkpt lat="47.09324" lon="-1.37345">
        <ele>55.14</ele>
        <time>2020-06-27T13:43:36Z</time>
      </trkpt>
      <trkpt lat="47.09319" lon="-1.37325">
        <ele>53.73</ele>
        <time>2020-06-27T13:43:38Z</time>
      </trkpt>
      <trkpt lat="47.09313" lon="-1.37303">
        <ele>52.54</ele>
        <time>2020-06-27T13:43:40Z</time>
      </trkpt>
      <trkpt lat="47.09307" lon="-1.37281">
        <ele>52.21</ele>
        <time>2020-06-27T13:43:42Z</time>
      </trkpt>
      <trkpt lat="47.09301" lon="-1.37259">
        <ele>52.77</ele>
        <time>2020-06-27T13:43:44Z</time>
      </trkpt>
      <trkpt lat="47.09294" lon="-1.37235">
        <ele>54.01</ele>
        <time>2020-06-27T13:43:46Z</time>
      </trkpt>
      <trkpt lat="47.09287" lon="-1.37212">
        <ele>53.97</ele>
        <time>2020-06-27T13:43:48Z</time>
      </trkpt>
      <trkpt lat="47.09283" lon="-1.37196">
        <ele>53.87</ele>
        <time>2020-06-27T13:43:49Z</time>
      </trkpt>
      <trkpt lat="47.09276" lon="-1.37171">
        <ele>54.05</ele>
        <time>2020-06-27T13:43:51Z</time>
      </trkpt>
      <trkpt lat="47.0927" lon="-1.37147">
        <ele>53.97</ele>
        <time>2020-06-27T13:43:53Z</time>
      </trkpt>
      <trkpt lat="47.09263" lon="-1.37124">
        <ele>53.28</ele>
        <time>2020-06-27T13:43:55Z</time>
      </trkpt>
      <trkpt lat="47.09256" lon="-1.371">
        <ele>52.33</ele>
        <time>2020-06-27T13:43:57Z</time>
      </trkpt>
      <trkpt lat="47.09246" lon="-1.37081">
        <ele>51.34</ele>
        <time>2020-06-27T13:43:59Z</time>
      </trkpt>
      <trkpt lat="47.09232" lon="-1.37068">
        <ele>49.4</ele>
        <time>2020-06-27T13:44:01Z</time>
      </trkpt>
      <trkpt lat="47.0922" lon="-1.37065">
        <ele>45.87</ele>
        <time>2020-06-27T13:44:03Z</time>
      </trkpt>
      <trkpt lat="47.09206" lon="-1.37062">
        <ele>43.33</ele>
        <time>2020-06-27T13:44:05Z</time>
      </trkpt>
      <trkpt lat="47.09192" lon="-1.3706">
        <ele>42.22</ele>
        <time>2020-06-27T13:44:07Z</time>
      </trkpt>
      <trkpt lat="47.09179" lon="-1.37056">
        <ele>42.33</ele>
        <time>2020-06-27T13:44:09Z</time>
      </trkpt>
      <trkpt lat="47.09164" lon="-1.37053">
        <ele>43.34</ele>
        <time>2020-06-27T13:44:11Z</time>
      </trkpt>
      <trkpt lat="47.09151" lon="-1.37049">
        <ele>44.02</ele>
        <time>2020-06-27T13:44:13Z</time>
      </trkpt>
      <trkpt lat="47.09138" lon="-1.37044">
        <ele>44.92</ele>
        <time>2020-06-27T13:44:15Z</time>
      </trkpt>
      <trkpt lat="47.09124" lon="-1.37038">
        <ele>45.15</ele>
        <time>2020-06-27T13:44:17Z</time>
      </trkpt>
      <trkpt lat="47.09113" lon="-1.37032">
        <ele>45.58</ele>
        <time>2020-06-27T13:44:19Z</time>
      </trkpt>
      <trkpt lat="47.09102" lon="-1.37024">
        <ele>46.66</ele>
        <time>2020-06-27T13:44:21Z</time>
      </trkpt>
      <trkpt lat="47.09091" lon="-1.37014">
        <ele>47.86</ele>
        <time>2020-06-27T13:44:23Z</time>
      </trkpt>
      <trkpt lat="47.09079" lon="-1.37002">
        <ele>48.18</ele>
        <time>2020-06-27T13:44:25Z</time>
      </trkpt>
      <trkpt lat="47.09068" lon="-1.36989">
        <ele>49.23</ele>
        <time>2020-06-27T13:44:27Z</time>
      </trkpt>
      <trkpt lat="47.09061" lon="-1.36977">
        <ele>50.56</ele>
        <time>2020-06-27T13:44:29Z</time>
      </trkpt>
      <trkpt lat="47.0905" lon="-1.36962">
        <ele>51.17</ele>
        <time>2020-06-27T13:44:31Z</time>
      </trkpt>
      <trkpt lat="47.09041" lon="-1.36948">
        <ele>51.64</ele>
        <time>2020-06-27T13:44:33Z</time>
      </trkpt>
      <trkpt lat="47.09033" lon="-1.36933">
        <ele>51.19</ele>
        <time>2020-06-27T13:44:35Z</time>
      </trkpt>
      <trkpt lat="47.09025" lon="-1.36918">
        <ele>50.75</ele>
        <time>2020-06-27T13:44:37Z</time>
      </trkpt>
      <trkpt lat="47.09019" lon="-1.36904">
        <ele>49.98</ele>
        <time>2020-06-27T13:44:39Z</time>
      </trkpt>
      <trkpt lat="47.09012" lon="-1.36888">
        <ele>49.87</ele>
        <time>2020-06-27T13:44:41Z</time>
      </trkpt>
      <trkpt lat="47.09006" lon="-1.36874">
        <ele>49.99</ele>
        <time>2020-06-27T13:44:43Z</time>
      </trkpt>
      <trkpt lat="47.08999" lon="-1.36857">
        <ele>50.88</ele>
        <time>2020-06-27T13:44:45Z</time>
      </trkpt>
      <trkpt lat="47.08991" lon="-1.3684">
        <ele>51.56</ele>
        <time>2020-06-27T13:44:47Z</time>
      </trkpt>
      <trkpt lat="47.08984" lon="-1.36824">
        <ele>51.43</ele>
        <time>2020-06-27T13:44:49Z</time>
      </trkpt>
      <trkpt lat="47.08977" lon="-1.36809">
        <ele>50.48</ele>
        <time>2020-06-27T13:44:51Z</time>
      </trkpt>
      <trkpt lat="47.08969" lon="-1.36792">
        <ele>50.4</ele>
        <time>2020-06-27T13:44:53Z</time>
      </trkpt>
      <trkpt lat="47.08963" lon="-1.36778">
        <ele>51.29</ele>
        <time>2020-06-27T13:44:55Z</time>
      </trkpt>
      <trkpt lat="47.08955" lon="-1.36762">
        <ele>51.72</ele>
        <time>2020-06-27T13:44:57Z</time>
      </trkpt>
      <trkpt lat="47.08947" lon="-1.36745">
        <ele>52.21</ele>
        <time>2020-06-27T13:44:59Z</time>
      </trkpt>
      <trkpt lat="47.08939" lon="-1.36728">
        <ele>52.27</ele>
        <time>2020-06-27T13:45:01Z</time>
      </trkpt>
      <trkpt lat="47.08932" lon="-1.36712">
        <ele>52.34</ele>
        <time>2020-06-27T13:45:03Z</time>
      </trkpt>
      <trkpt lat="47.08923" lon="-1.36695">
        <ele>52.45</ele>
        <time>2020-06-27T13:45:05Z</time>
      </trkpt>
      <trkpt lat="47.08915" lon="-1.36677">
        <ele>52.09</ele>
        <time>2020-06-27T13:45:07Z</time>
      </trkpt>
      <trkpt lat="47.08907" lon="-1.36661">
        <ele>52.12</ele>
        <time>2020-06-27T13:45:09Z</time>
      </trkpt>
      <trkpt lat="47.08898" lon="-1.36645">
        <ele>51.52</ele>
        <time>2020-06-27T13:45:11Z</time>
      </trkpt>
      <trkpt lat="47.08889" lon="-1.36627">
        <ele>50.97</ele>
        <time>2020-06-27T13:45:13Z</time>
      </trkpt>
      <trkpt lat="47.0888" lon="-1.3661">
        <ele>51.03</ele>
        <time>2020-06-27T13:45:15Z</time>
      </trkpt>
      <trkpt lat="47.0887" lon="-1.36592">
        <ele>50.95</ele>
        <time>2020-06-27T13:45:17Z</time>
      </trkpt>
      <trkpt lat="47.0886" lon="-1.36575">
        <ele>50.26</ele>
        <time>2020-06-27T13:45:19Z</time>
      </trkpt>
      <trkpt lat="47.08851" lon="-1.3656">
        <ele>50.1</ele>
        <time>2020-06-27T13:45:21Z</time>
      </trkpt>
      <trkpt lat="47.08843" lon="-1.36544">
        <ele>50.34</ele>
        <time>2020-06-27T13:45:23Z</time>
      </trkpt>
      <trkpt lat="47.08833" lon="-1.36528">
        <ele>50.01</ele>
        <time>2020-06-27T13:45:25Z</time>
      </trkpt>
      <trkpt lat="47.08824" lon="-1.36512">
        <ele>49.45</ele>
        <time>2020-06-27T13:45:27Z</time>
      </trkpt>
      <trkpt lat="47.08815" lon="-1.36497">
        <ele>48.95</ele>
        <time>2020-06-27T13:45:29Z</time>
      </trkpt>
      <trkpt lat="47.08806" lon="-1.36479">
        <ele>49.36</ele>
        <time>2020-06-27T13:45:31Z</time>
      </trkpt>
      <trkpt lat="47.08796" lon="-1.3646">
        <ele>48.48</ele>
        <time>2020-06-27T13:45:33Z</time>
      </trkpt>
      <trkpt lat="47.08787" lon="-1.36444">
        <ele>48.04</ele>
        <time>2020-06-27T13:45:35Z</time>
      </trkpt>
      <trkpt lat="47.08778" lon="-1.36425">
        <ele>47.21</ele>
        <time>2020-06-27T13:45:37Z</time>
      </trkpt>
      <trkpt lat="47.08771" lon="-1.36405">
        <ele>46.77</ele>
        <time>2020-06-27T13:45:39Z</time>
      </trkpt>
      <trkpt lat="47.08765" lon="-1.36386">
        <ele>46.78</ele>
        <time>2020-06-27T13:45:41Z</time>
      </trkpt>
      <trkpt lat="47.08763" lon="-1.36362">
        <ele>45.78</ele>
        <time>2020-06-27T13:45:43Z</time>
      </trkpt>
      <trkpt lat="47.08761" lon="-1.36348">
        <ele>45.47</ele>
        <time>2020-06-27T13:45:44Z</time>
      </trkpt>
      <trkpt lat="47.08759" lon="-1.36326">
        <ele>45.51</ele>
        <time>2020-06-27T13:45:46Z</time>
      </trkpt>
      <trkpt lat="47.08758" lon="-1.36302">
        <ele>45.81</ele>
        <time>2020-06-27T13:45:48Z</time>
      </trkpt>
      <trkpt lat="47.08759" lon="-1.3628">
        <ele>46.34</ele>
        <time>2020-06-27T13:45:50Z</time>
      </trkpt>
      <trkpt lat="47.08758" lon="-1.36257">
        <ele>46.27</ele>
        <time>2020-06-27T13:45:52Z</time>
      </trkpt>
      <trkpt lat="47.08758" lon="-1.36231">
        <ele>45.99</ele>
        <time>2020-06-27T13:45:54Z</time>
      </trkpt>
      <trkpt lat="47.08758" lon="-1.36207">
        <ele>46.18</ele>
        <time>2020-06-27T13:45:56Z</time>
      </trkpt>
      <trkpt lat="47.08758" lon="-1.36194">
        <ele>46.1</ele>
        <time>2020-06-27T13:45:57Z</time>
      </trkpt>
      <trkpt lat="47.08757" lon="-1.36169">
        <ele>45.96</ele>
        <time>2020-06-27T13:45:59Z</time>
      </trkpt>
      <trkpt lat="47.08758" lon="-1.36146">
        <ele>45.78</ele>
        <time>2020-06-27T13:46:01Z</time>
      </trkpt>
      <trkpt lat="47.08759" lon="-1.36123">
        <ele>44.71</ele>
        <time>2020-06-27T13:46:03Z</time>
      </trkpt>
      <trkpt lat="47.08762" lon="-1.36099">
        <ele>43.05</ele>
        <time>2020-06-27T13:46:05Z</time>
      </trkpt>
      <trkpt lat="47.08766" lon="-1.36075">
        <ele>41.93</ele>
        <time>2020-06-27T13:46:07Z</time>
      </trkpt>
      <trkpt lat="47.0877" lon="-1.36053">
        <ele>42.15</ele>
        <time>2020-06-27T13:46:09Z</time>
      </trkpt>
      <trkpt lat="47.08775" lon="-1.36032">
        <ele>42.81</ele>
        <time>2020-06-27T13:46:11Z</time>
      </trkpt>
      <trkpt lat="47.0878" lon="-1.36008">
        <ele>43.71</ele>
        <time>2020-06-27T13:46:13Z</time>
      </trkpt>
      <trkpt lat="47.08785" lon="-1.35986">
        <ele>44.09</ele>
        <time>2020-06-27T13:46:15Z</time>
      </trkpt>
      <trkpt lat="47.0879" lon="-1.35963">
        <ele>45.31</ele>
        <time>2020-06-27T13:46:17Z</time>
      </trkpt>
      <trkpt lat="47.08793" lon="-1.35942">
        <ele>46.93</ele>
        <time>2020-06-27T13:46:19Z</time>
      </trkpt>
      <trkpt lat="47.08795" lon="-1.35918">
        <ele>47.78</ele>
        <time>2020-06-27T13:46:21Z</time>
      </trkpt>
      <trkpt lat="47.08796" lon="-1.35895">
        <ele>47.85</ele>
        <time>2020-06-27T13:46:23Z</time>
      </trkpt>
      <trkpt lat="47.08797" lon="-1.35871">
        <ele>47.82</ele>
        <time>2020-06-27T13:46:25Z</time>
      </trkpt>
      <trkpt lat="47.08796" lon="-1.35848">
        <ele>48.52</ele>
        <time>2020-06-27T13:46:27Z</time>
      </trkpt>
      <trkpt lat="47.08794" lon="-1.35826">
        <ele>49.27</ele>
        <time>2020-06-27T13:46:29Z</time>
      </trkpt>
      <trkpt lat="47.08792" lon="-1.35813">
        <ele>49.46</ele>
        <time>2020-06-27T13:46:30Z</time>
      </trkpt>
      <trkpt lat="47.0879" lon="-1.35789">
        <ele>49.72</ele>
        <time>2020-06-27T13:46:32Z</time>
      </trkpt>
      <trkpt lat="47.08788" lon="-1.35767">
        <ele>50.05</ele>
        <time>2020-06-27T13:46:34Z</time>
      </trkpt>
      <trkpt lat="47.08785" lon="-1.35742">
        <ele>49.58</ele>
        <time>2020-06-27T13:46:36Z</time>
      </trkpt>
      <trkpt lat="47.08782" lon="-1.35717">
        <ele>48.9</ele>
        <time>2020-06-27T13:46:38Z</time>
      </trkpt>
      <trkpt lat="47.08778" lon="-1.35691">
        <ele>47.27</ele>
        <time>2020-06-27T13:46:40Z</time>
      </trkpt>
      <trkpt lat="47.08775" lon="-1.35666">
        <ele>47.15</ele>
        <time>2020-06-27T13:46:42Z</time>
      </trkpt>
      <trkpt lat="47.08773" lon="-1.35644">
        <ele>47.53</ele>
        <time>2020-06-27T13:46:44Z</time>
      </trkpt>
      <trkpt lat="47.08769" lon="-1.35619">
        <ele>47.15</ele>
        <time>2020-06-27T13:46:46Z</time>
      </trkpt>
      <trkpt lat="47.08767" lon="-1.35597">
        <ele>47.52</ele>
        <time>2020-06-27T13:46:48Z</time>
      </trkpt>
      <trkpt lat="47.08765" lon="-1.35574">
        <ele>48.09</ele>
        <time>2020-06-27T13:46:50Z</time>
      </trkpt>
      <trkpt lat="47.08762" lon="-1.35552">
        <ele>47.89</ele>
        <time>2020-06-27T13:46:52Z</time>
      </trkpt>
      <trkpt lat="47.0876" lon="-1.35531">
        <ele>46.89</ele>
        <time>2020-06-27T13:46:54Z</time>
      </trkpt>
      <trkpt lat="47.08757" lon="-1.35508">
        <ele>45.82</ele>
        <time>2020-06-27T13:46:56Z</time>
      </trkpt>
      <trkpt lat="47.08755" lon="-1.35485">
        <ele>46.16</ele>
        <time>2020-06-27T13:46:58Z</time>
      </trkpt>
      <trkpt lat="47.08752" lon="-1.35461">
        <ele>47.13</ele>
        <time>2020-06-27T13:47:00Z</time>
      </trkpt>
      <trkpt lat="47.08749" lon="-1.35438">
        <ele>48.11</ele>
        <time>2020-06-27T13:47:02Z</time>
      </trkpt>
      <trkpt lat="47.08746" lon="-1.35415">
        <ele>48.51</ele>
        <time>2020-06-27T13:47:04Z</time>
      </trkpt>
      <trkpt lat="47.08744" lon="-1.35391">
        <ele>48.36</ele>
        <time>2020-06-27T13:47:06Z</time>
      </trkpt>
      <trkpt lat="47.08742" lon="-1.35368">
        <ele>47.64</ele>
        <time>2020-06-27T13:47:08Z</time>
      </trkpt>
      <trkpt lat="47.08739" lon="-1.35344">
        <ele>47.35</ele>
        <time>2020-06-27T13:47:10Z</time>
      </trkpt>
      <trkpt lat="47.08737" lon="-1.35331">
        <ele>47.16</ele>
        <time>2020-06-27T13:47:11Z</time>
      </trkpt>
      <trkpt lat="47.08734" lon="-1.35308">
        <ele>46.4</ele>
        <time>2020-06-27T13:47:13Z</time>
      </trkpt>
      <trkpt lat="47.08731" lon="-1.35283">
        <ele>45.64</ele>
        <time>2020-06-27T13:47:15Z</time>
      </trkpt>
      <trkpt lat="47.08728" lon="-1.35258">
        <ele>44.67</ele>
        <time>2020-06-27T13:47:17Z</time>
      </trkpt>
      <trkpt lat="47.08726" lon="-1.35234">
        <ele>43.58</ele>
        <time>2020-06-27T13:47:19Z</time>
      </trkpt>
      <trkpt lat="47.08724" lon="-1.3522">
        <ele>43.6</ele>
        <time>2020-06-27T13:47:20Z</time>
      </trkpt>
      <trkpt lat="47.08723" lon="-1.35196">
        <ele>43.63</ele>
        <time>2020-06-27T13:47:22Z</time>
      </trkpt>
      <trkpt lat="47.08722" lon="-1.35182">
        <ele>43.61</ele>
        <time>2020-06-27T13:47:23Z</time>
      </trkpt>
      <trkpt lat="47.08723" lon="-1.35158">
        <ele>43.98</ele>
        <time>2020-06-27T13:47:25Z</time>
      </trkpt>
      <trkpt lat="47.08727" lon="-1.35131">
        <ele>44.37</ele>
        <time>2020-06-27T13:47:27Z</time>
      </trkpt>
      <trkpt lat="47.08732" lon="-1.35107">
        <ele>44.39</ele>
        <time>2020-06-27T13:47:29Z</time>
      </trkpt>
      <trkpt lat="47.08735" lon="-1.35095">
        <ele>44.46</ele>
        <time>2020-06-27T13:47:30Z</time>
      </trkpt>
      <trkpt lat="47.08739" lon="-1.35082">
        <ele>44.52</ele>
        <time>2020-06-27T13:47:31Z</time>
      </trkpt>
      <trkpt lat="47.08742" lon="-1.3507">
        <ele>44.64</ele>
        <time>2020-06-27T13:47:32Z</time>
      </trkpt>
      <trkpt lat="47.08749" lon="-1.35046">
        <ele>44.75</ele>
        <time>2020-06-27T13:47:34Z</time>
      </trkpt>
      <trkpt lat="47.08753" lon="-1.35033">
        <ele>44.7</ele>
        <time>2020-06-27T13:47:35Z</time>
      </trkpt>
      <trkpt lat="47.0876" lon="-1.3501">
        <ele>44.05</ele>
        <time>2020-06-27T13:47:37Z</time>
      </trkpt>
      <trkpt lat="47.08768" lon="-1.34988">
        <ele>43.75</ele>
        <time>2020-06-27T13:47:39Z</time>
      </trkpt>
      <trkpt lat="47.08772" lon="-1.34975">
        <ele>43.58</ele>
        <time>2020-06-27T13:47:40Z</time>
      </trkpt>
      <trkpt lat="47.08774" lon="-1.34962">
        <ele>43.34</ele>
        <time>2020-06-27T13:47:41Z</time>
      </trkpt>
      <trkpt lat="47.08774" lon="-1.34936">
        <ele>42.77</ele>
        <time>2020-06-27T13:47:43Z</time>
      </trkpt>
      <trkpt lat="47.0877" lon="-1.34925">
        <ele>42.52</ele>
        <time>2020-06-27T13:47:44Z</time>
      </trkpt>
      <trkpt lat="47.0876" lon="-1.34904">
        <ele>41.97</ele>
        <time>2020-06-27T13:47:46Z</time>
      </trkpt>
      <trkpt lat="47.08748" lon="-1.34885">
        <ele>41.94</ele>
        <time>2020-06-27T13:47:48Z</time>
      </trkpt>
      <trkpt lat="47.08736" lon="-1.34866">
        <ele>42.25</ele>
        <time>2020-06-27T13:47:50Z</time>
      </trkpt>
      <trkpt lat="47.08725" lon="-1.34848">
        <ele>41.98</ele>
        <time>2020-06-27T13:47:52Z</time>
      </trkpt>
      <trkpt lat="47.08719" lon="-1.34838">
        <ele>41.71</ele>
        <time>2020-06-27T13:47:53Z</time>
      </trkpt>
      <trkpt lat="47.08706" lon="-1.34818">
        <ele>40.97</ele>
        <time>2020-06-27T13:47:55Z</time>
      </trkpt>
      <trkpt lat="47.08699" lon="-1.34809">
        <ele>40.52</ele>
        <time>2020-06-27T13:47:56Z</time>
      </trkpt>
      <trkpt lat="47.08688" lon="-1.34791">
        <ele>40.43</ele>
        <time>2020-06-27T13:47:58Z</time>
      </trkpt>
      <trkpt lat="47.08676" lon="-1.34774">
        <ele>40.43</ele>
        <time>2020-06-27T13:48:00Z</time>
      </trkpt>
      <trkpt lat="47.0867" lon="-1.34764">
        <ele>40.37</ele>
        <time>2020-06-27T13:48:01Z</time>
      </trkpt>
      <trkpt lat="47.08659" lon="-1.34747">
        <ele>40.13</ele>
        <time>2020-06-27T13:48:03Z</time>
      </trkpt>
      <trkpt lat="47.08646" lon="-1.34728">
        <ele>39.12</ele>
        <time>2020-06-27T13:48:05Z</time>
      </trkpt>
      <trkpt lat="47.0864" lon="-1.34718">
        <ele>38.41</ele>
        <time>2020-06-27T13:48:06Z</time>
      </trkpt>
      <trkpt lat="47.08633" lon="-1.34707">
        <ele>37.88</ele>
        <time>2020-06-27T13:48:07Z</time>
      </trkpt>
      <trkpt lat="47.08626" lon="-1.34697">
        <ele>36.91</ele>
        <time>2020-06-27T13:48:08Z</time>
      </trkpt>
      <trkpt lat="47.08615" lon="-1.34677">
        <ele>35.7</ele>
        <time>2020-06-27T13:48:10Z</time>
      </trkpt>
      <trkpt lat="47.08604" lon="-1.34658">
        <ele>35.75</ele>
        <time>2020-06-27T13:48:12Z</time>
      </trkpt>
      <trkpt lat="47.08591" lon="-1.3464">
        <ele>35.98</ele>
        <time>2020-06-27T13:48:14Z</time>
      </trkpt>
      <trkpt lat="47.08584" lon="-1.34631">
        <ele>35.66</ele>
        <time>2020-06-27T13:48:15Z</time>
      </trkpt>
      <trkpt lat="47.08572" lon="-1.34615">
        <ele>34.98</ele>
        <time>2020-06-27T13:48:17Z</time>
      </trkpt>
      <trkpt lat="47.08559" lon="-1.346">
        <ele>35.57</ele>
        <time>2020-06-27T13:48:19Z</time>
      </trkpt>
      <trkpt lat="47.08547" lon="-1.34585">
        <ele>36.31</ele>
        <time>2020-06-27T13:48:21Z</time>
      </trkpt>
      <trkpt lat="47.08539" lon="-1.34577">
        <ele>36.39</ele>
        <time>2020-06-27T13:48:22Z</time>
      </trkpt>
      <trkpt lat="47.08527" lon="-1.34562">
        <ele>36.33</ele>
        <time>2020-06-27T13:48:24Z</time>
      </trkpt>
      <trkpt lat="47.0852" lon="-1.34554">
        <ele>36.31</ele>
        <time>2020-06-27T13:48:25Z</time>
      </trkpt>
      <trkpt lat="47.08507" lon="-1.3454">
        <ele>36.53</ele>
        <time>2020-06-27T13:48:27Z</time>
      </trkpt>
      <trkpt lat="47.08495" lon="-1.34524">
        <ele>36.52</ele>
        <time>2020-06-27T13:48:29Z</time>
      </trkpt>
      <trkpt lat="47.08483" lon="-1.34507">
        <ele>36.1</ele>
        <time>2020-06-27T13:48:31Z</time>
      </trkpt>
      <trkpt lat="47.08476" lon="-1.34487">
        <ele>36.13</ele>
        <time>2020-06-27T13:48:33Z</time>
      </trkpt>
      <trkpt lat="47.0847" lon="-1.34465">
        <ele>36.67</ele>
        <time>2020-06-27T13:48:35Z</time>
      </trkpt>
      <trkpt lat="47.08463" lon="-1.34443">
        <ele>36.93</ele>
        <time>2020-06-27T13:48:37Z</time>
      </trkpt>
      <trkpt lat="47.08457" lon="-1.34421">
        <ele>36.5</ele>
        <time>2020-06-27T13:48:39Z</time>
      </trkpt>
      <trkpt lat="47.08451" lon="-1.34399">
        <ele>35.77</ele>
        <time>2020-06-27T13:48:41Z</time>
      </trkpt>
      <trkpt lat="47.08446" lon="-1.34376">
        <ele>34.76</ele>
        <time>2020-06-27T13:48:43Z</time>
      </trkpt>
      <trkpt lat="47.0844" lon="-1.34354">
        <ele>34.02</ele>
        <time>2020-06-27T13:48:45Z</time>
      </trkpt>
      <trkpt lat="47.08434" lon="-1.3433">
        <ele>33.25</ele>
        <time>2020-06-27T13:48:47Z</time>
      </trkpt>
      <trkpt lat="47.08428" lon="-1.34308">
        <ele>33.02</ele>
        <time>2020-06-27T13:48:49Z</time>
      </trkpt>
      <trkpt lat="47.08422" lon="-1.34286">
        <ele>33.25</ele>
        <time>2020-06-27T13:48:51Z</time>
      </trkpt>
      <trkpt lat="47.08415" lon="-1.34264">
        <ele>32.39</ele>
        <time>2020-06-27T13:48:53Z</time>
      </trkpt>
      <trkpt lat="47.0841" lon="-1.34243">
        <ele>31.61</ele>
        <time>2020-06-27T13:48:55Z</time>
      </trkpt>
      <trkpt lat="47.08403" lon="-1.34223">
        <ele>32.11</ele>
        <time>2020-06-27T13:48:57Z</time>
      </trkpt>
      <trkpt lat="47.08397" lon="-1.34202">
        <ele>33.15</ele>
        <time>2020-06-27T13:48:59Z</time>
      </trkpt>
      <trkpt lat="47.08389" lon="-1.3418">
        <ele>33.48</ele>
        <time>2020-06-27T13:49:01Z</time>
      </trkpt>
      <trkpt lat="47.08383" lon="-1.34159">
        <ele>33.53</ele>
        <time>2020-06-27T13:49:03Z</time>
      </trkpt>
      <trkpt lat="47.08377" lon="-1.34136">
        <ele>33.3</ele>
        <time>2020-06-27T13:49:05Z</time>
      </trkpt>
      <trkpt lat="47.08372" lon="-1.34114">
        <ele>33.42</ele>
        <time>2020-06-27T13:49:07Z</time>
      </trkpt>
      <trkpt lat="47.08366" lon="-1.34091">
        <ele>33.02</ele>
        <time>2020-06-27T13:49:09Z</time>
      </trkpt>
      <trkpt lat="47.08361" lon="-1.3407">
        <ele>32.83</ele>
        <time>2020-06-27T13:49:11Z</time>
      </trkpt>
      <trkpt lat="47.08356" lon="-1.34049">
        <ele>32.85</ele>
        <time>2020-06-27T13:49:13Z</time>
      </trkpt>
      <trkpt lat="47.0835" lon="-1.34029">
        <ele>32.92</ele>
        <time>2020-06-27T13:49:15Z</time>
      </trkpt>
      <trkpt lat="47.08344" lon="-1.34004">
        <ele>32.78</ele>
        <time>2020-06-27T13:49:17Z</time>
      </trkpt>
      <trkpt lat="47.08339" lon="-1.33983">
        <ele>32.83</ele>
        <time>2020-06-27T13:49:19Z</time>
      </trkpt>
      <trkpt lat="47.08333" lon="-1.3396">
        <ele>33.12</ele>
        <time>2020-06-27T13:49:21Z</time>
      </trkpt>
      <trkpt lat="47.08327" lon="-1.33939">
        <ele>33.39</ele>
        <time>2020-06-27T13:49:23Z</time>
      </trkpt>
      <trkpt lat="47.08321" lon="-1.33919">
        <ele>33.99</ele>
        <time>2020-06-27T13:49:24Z</time>
      </trkpt>
      <trkpt lat="47.08315" lon="-1.33896">
        <ele>33.83</ele>
        <time>2020-06-27T13:49:26Z</time>
      </trkpt>
      <trkpt lat="47.0831" lon="-1.33877">
        <ele>33.63</ele>
        <time>2020-06-27T13:49:28Z</time>
      </trkpt>
      <trkpt lat="47.08305" lon="-1.3386">
        <ele>33.61</ele>
        <time>2020-06-27T13:49:30Z</time>
      </trkpt>
      <trkpt lat="47.08299" lon="-1.33836">
        <ele>33.41</ele>
        <time>2020-06-27T13:49:32Z</time>
      </trkpt>
      <trkpt lat="47.08293" lon="-1.33815">
        <ele>33.57</ele>
        <time>2020-06-27T13:49:34Z</time>
      </trkpt>
      <trkpt lat="47.08288" lon="-1.33795">
        <ele>33.41</ele>
        <time>2020-06-27T13:49:36Z</time>
      </trkpt>
      <trkpt lat="47.08282" lon="-1.33775">
        <ele>32.33</ele>
        <time>2020-06-27T13:49:38Z</time>
      </trkpt>
      <trkpt lat="47.08278" lon="-1.33751">
        <ele>31.32</ele>
        <time>2020-06-27T13:49:40Z</time>
      </trkpt>
      <trkpt lat="47.0827" lon="-1.33732">
        <ele>30.42</ele>
        <time>2020-06-27T13:49:42Z</time>
      </trkpt>
      <trkpt lat="47.08265" lon="-1.33711">
        <ele>30.3</ele>
        <time>2020-06-27T13:49:44Z</time>
      </trkpt>
      <trkpt lat="47.08266" lon="-1.33687">
        <ele>31.04</ele>
        <time>2020-06-27T13:49:46Z</time>
      </trkpt>
      <trkpt lat="47.08268" lon="-1.33667">
        <ele>32.28</ele>
        <time>2020-06-27T13:49:48Z</time>
      </trkpt>
      <trkpt lat="47.08269" lon="-1.33643">
        <ele>33.31</ele>
        <time>2020-06-27T13:49:50Z</time>
      </trkpt>
      <trkpt lat="47.0827" lon="-1.33621">
        <ele>33.65</ele>
        <time>2020-06-27T13:49:52Z</time>
      </trkpt>
      <trkpt lat="47.0827" lon="-1.33599">
        <ele>34.83</ele>
        <time>2020-06-27T13:49:54Z</time>
      </trkpt>
      <trkpt lat="47.0827" lon="-1.33575">
        <ele>34.93</ele>
        <time>2020-06-27T13:49:56Z</time>
      </trkpt>
      <trkpt lat="47.08269" lon="-1.33551">
        <ele>34.26</ele>
        <time>2020-06-27T13:49:58Z</time>
      </trkpt>
      <trkpt lat="47.08266" lon="-1.33537">
        <ele>34.13</ele>
        <time>2020-06-27T13:49:59Z</time>
      </trkpt>
      <trkpt lat="47.08261" lon="-1.33513">
        <ele>33.4</ele>
        <time>2020-06-27T13:50:01Z</time>
      </trkpt>
      <trkpt lat="47.08256" lon="-1.33489">
        <ele>32.15</ele>
        <time>2020-06-27T13:50:03Z</time>
      </trkpt>
      <trkpt lat="47.08251" lon="-1.33465">
        <ele>31.88</ele>
        <time>2020-06-27T13:50:05Z</time>
      </trkpt>
      <trkpt lat="47.08242" lon="-1.33444">
        <ele>31.94</ele>
        <time>2020-06-27T13:50:07Z</time>
      </trkpt>
      <trkpt lat="47.08236" lon="-1.33433">
        <ele>31.48</ele>
        <time>2020-06-27T13:50:08Z</time>
      </trkpt>
      <trkpt lat="47.08226" lon="-1.33415">
        <ele>30.64</ele>
        <time>2020-06-27T13:50:10Z</time>
      </trkpt>
      <trkpt lat="47.08217" lon="-1.33397">
        <ele>30.22</ele>
        <time>2020-06-27T13:50:12Z</time>
      </trkpt>
      <trkpt lat="47.08209" lon="-1.33377">
        <ele>30.18</ele>
        <time>2020-06-27T13:50:14Z</time>
      </trkpt>
      <trkpt lat="47.08199" lon="-1.33357">
        <ele>30.46</ele>
        <time>2020-06-27T13:50:16Z</time>
      </trkpt>
      <trkpt lat="47.0819" lon="-1.33338">
        <ele>29.43</ele>
        <time>2020-06-27T13:50:18Z</time>
      </trkpt>
      <trkpt lat="47.08181" lon="-1.33319">
        <ele>28.72</ele>
        <time>2020-06-27T13:50:20Z</time>
      </trkpt>
      <trkpt lat="47.08171" lon="-1.33298">
        <ele>28.38</ele>
        <time>2020-06-27T13:50:22Z</time>
      </trkpt>
      <trkpt lat="47.08166" lon="-1.33286">
        <ele>28.43</ele>
        <time>2020-06-27T13:50:23Z</time>
      </trkpt>
      <trkpt lat="47.08157" lon="-1.33265">
        <ele>29.21</ele>
        <time>2020-06-27T13:50:25Z</time>
      </trkpt>
      <trkpt lat="47.08148" lon="-1.33245">
        <ele>29.4</ele>
        <time>2020-06-27T13:50:27Z</time>
      </trkpt>
      <trkpt lat="47.0814" lon="-1.33226">
        <ele>28.35</ele>
        <time>2020-06-27T13:50:29Z</time>
      </trkpt>
      <trkpt lat="47.0813" lon="-1.33212">
        <ele>28.7</ele>
        <time>2020-06-27T13:50:31Z</time>
      </trkpt>
      <trkpt lat="47.08119" lon="-1.33197">
        <ele>28.85</ele>
        <time>2020-06-27T13:50:33Z</time>
      </trkpt>
      <trkpt lat="47.0811" lon="-1.33188">
        <ele>29.47</ele>
        <time>2020-06-27T13:50:35Z</time>
      </trkpt>
      <trkpt lat="47.08097" lon="-1.33178">
        <ele>29.63</ele>
        <time>2020-06-27T13:50:37Z</time>
      </trkpt>
      <trkpt lat="47.08084" lon="-1.33168">
        <ele>29.75</ele>
        <time>2020-06-27T13:50:39Z</time>
      </trkpt>
      <trkpt lat="47.08073" lon="-1.33159">
        <ele>29.64</ele>
        <time>2020-06-27T13:50:41Z</time>
      </trkpt>
      <trkpt lat="47.08078" lon="-1.33143">
        <ele>29.72</ele>
        <time>2020-06-27T13:50:44Z</time>
      </trkpt>
      <trkpt lat="47.08089" lon="-1.33137">
        <ele>30.39</ele>
        <time>2020-06-27T13:50:46Z</time>
      </trkpt>
      <trkpt lat="47.08101" lon="-1.33131">
        <ele>30.55</ele>
        <time>2020-06-27T13:50:48Z</time>
      </trkpt>
      <trkpt lat="47.08116" lon="-1.33124">
        <ele>32.2</ele>
        <time>2020-06-27T13:50:50Z</time>
      </trkpt>
      <trkpt lat="47.0813" lon="-1.33117">
        <ele>33.47</ele>
        <time>2020-06-27T13:50:52Z</time>
      </trkpt>
      <trkpt lat="47.08142" lon="-1.33106">
        <ele>34.08</ele>
        <time>2020-06-27T13:50:54Z</time>
      </trkpt>
      <trkpt lat="47.0815" lon="-1.33091">
        <ele>34.29</ele>
        <time>2020-06-27T13:50:56Z</time>
      </trkpt>
      <trkpt lat="47.08152" lon="-1.33069">
        <ele>34</ele>
        <time>2020-06-27T13:50:58Z</time>
      </trkpt>
      <trkpt lat="47.08152" lon="-1.33047">
        <ele>33.04</ele>
        <time>2020-06-27T13:51:00Z</time>
      </trkpt>
      <trkpt lat="47.08152" lon="-1.33025">
        <ele>32.57</ele>
        <time>2020-06-27T13:51:02Z</time>
      </trkpt>
      <trkpt lat="47.0815" lon="-1.33005">
        <ele>31.83</ele>
        <time>2020-06-27T13:51:04Z</time>
      </trkpt>
      <trkpt lat="47.08149" lon="-1.32984">
        <ele>31.99</ele>
        <time>2020-06-27T13:51:06Z</time>
      </trkpt>
      <trkpt lat="47.08148" lon="-1.32963">
        <ele>31.93</ele>
        <time>2020-06-27T13:51:08Z</time>
      </trkpt>
      <trkpt lat="47.08146" lon="-1.3294">
        <ele>32.29</ele>
        <time>2020-06-27T13:51:10Z</time>
      </trkpt>
      <trkpt lat="47.08145" lon="-1.32918">
        <ele>33.1</ele>
        <time>2020-06-27T13:51:12Z</time>
      </trkpt>
      <trkpt lat="47.08144" lon="-1.32897">
        <ele>33.95</ele>
        <time>2020-06-27T13:51:14Z</time>
      </trkpt>
      <trkpt lat="47.08143" lon="-1.32875">
        <ele>34.04</ele>
        <time>2020-06-27T13:51:16Z</time>
      </trkpt>
      <trkpt lat="47.08142" lon="-1.32852">
        <ele>33.98</ele>
        <time>2020-06-27T13:51:18Z</time>
      </trkpt>
      <trkpt lat="47.08141" lon="-1.32831">
        <ele>33.6</ele>
        <time>2020-06-27T13:51:20Z</time>
      </trkpt>
      <trkpt lat="47.0814" lon="-1.3281">
        <ele>33.54</ele>
        <time>2020-06-27T13:51:22Z</time>
      </trkpt>
      <trkpt lat="47.08139" lon="-1.32786">
        <ele>33.06</ele>
        <time>2020-06-27T13:51:24Z</time>
      </trkpt>
      <trkpt lat="47.08138" lon="-1.32764">
        <ele>33.07</ele>
        <time>2020-06-27T13:51:26Z</time>
      </trkpt>
      <trkpt lat="47.08137" lon="-1.32741">
        <ele>32.74</ele>
        <time>2020-06-27T13:51:28Z</time>
      </trkpt>
      <trkpt lat="47.08137" lon="-1.32721">
        <ele>32.67</ele>
        <time>2020-06-27T13:51:30Z</time>
      </trkpt>
      <trkpt lat="47.08137" lon="-1.32707">
        <ele>32.45</ele>
        <time>2020-06-27T13:51:32Z</time>
      </trkpt>
      <trkpt lat="47.08136" lon="-1.32693">
        <ele>32.34</ele>
        <time>2020-06-27T13:51:37Z</time>
      </trkpt>
      <trkpt lat="47.08131" lon="-1.32703">
        <ele>25.36</ele>
        <time>2020-06-27T13:52:44Z</time>
      </trkpt>
      <trkpt lat="47.08139" lon="-1.32695">
        <ele>24.5</ele>
        <time>2020-06-27T13:53:02Z</time>
      </trkpt>
      <trkpt lat="47.08142" lon="-1.32678">
        <ele>24.55</ele>
        <time>2020-06-27T13:53:05Z</time>
      </trkpt>
      <trkpt lat="47.08145" lon="-1.3266">
        <ele>25.3</ele>
        <time>2020-06-27T13:53:07Z</time>
      </trkpt>
      <trkpt lat="47.08149" lon="-1.32643">
        <ele>26.33</ele>
        <time>2020-06-27T13:53:09Z</time>
      </trkpt>
      <trkpt lat="47.08154" lon="-1.32624">
        <ele>26.45</ele>
        <time>2020-06-27T13:53:11Z</time>
      </trkpt>
      <trkpt lat="47.08158" lon="-1.32607">
        <ele>26.71</ele>
        <time>2020-06-27T13:53:13Z</time>
      </trkpt>
      <trkpt lat="47.08162" lon="-1.32588">
        <ele>26.7</ele>
        <time>2020-06-27T13:53:15Z</time>
      </trkpt>
      <trkpt lat="47.08166" lon="-1.32566">
        <ele>25.61</ele>
        <time>2020-06-27T13:53:17Z</time>
      </trkpt>
      <trkpt lat="47.08171" lon="-1.32545">
        <ele>23.87</ele>
        <time>2020-06-27T13:53:19Z</time>
      </trkpt>
      <trkpt lat="47.08175" lon="-1.32523">
        <ele>22.18</ele>
        <time>2020-06-27T13:53:21Z</time>
      </trkpt>
      <trkpt lat="47.0818" lon="-1.32501">
        <ele>21.23</ele>
        <time>2020-06-27T13:53:23Z</time>
      </trkpt>
      <trkpt lat="47.08185" lon="-1.3248">
        <ele>20.33</ele>
        <time>2020-06-27T13:53:25Z</time>
      </trkpt>
      <trkpt lat="47.08189" lon="-1.3246">
        <ele>19.37</ele>
        <time>2020-06-27T13:53:27Z</time>
      </trkpt>
      <trkpt lat="47.08193" lon="-1.32439">
        <ele>18.39</ele>
        <time>2020-06-27T13:53:29Z</time>
      </trkpt>
      <trkpt lat="47.08198" lon="-1.32418">
        <ele>17.94</ele>
        <time>2020-06-27T13:53:31Z</time>
      </trkpt>
      <trkpt lat="47.08203" lon="-1.32397">
        <ele>19.18</ele>
        <time>2020-06-27T13:53:33Z</time>
      </trkpt>
      <trkpt lat="47.08207" lon="-1.32384">
        <ele>18.94</ele>
        <time>2020-06-27T13:53:34Z</time>
      </trkpt>
      <trkpt lat="47.08212" lon="-1.32364">
        <ele>18.76</ele>
        <time>2020-06-27T13:53:36Z</time>
      </trkpt>
      <trkpt lat="47.08216" lon="-1.32342">
        <ele>18.63</ele>
        <time>2020-06-27T13:53:38Z</time>
      </trkpt>
      <trkpt lat="47.08223" lon="-1.32321">
        <ele>18.31</ele>
        <time>2020-06-27T13:53:40Z</time>
      </trkpt>
      <trkpt lat="47.08228" lon="-1.32302">
        <ele>18.67</ele>
        <time>2020-06-27T13:53:42Z</time>
      </trkpt>
      <trkpt lat="47.08232" lon="-1.32281">
        <ele>18.33</ele>
        <time>2020-06-27T13:53:44Z</time>
      </trkpt>
      <trkpt lat="47.08236" lon="-1.3226">
        <ele>17.7</ele>
        <time>2020-06-27T13:53:46Z</time>
      </trkpt>
      <trkpt lat="47.08239" lon="-1.32235">
        <ele>17.69</ele>
        <time>2020-06-27T13:53:48Z</time>
      </trkpt>
      <trkpt lat="47.0824" lon="-1.32212">
        <ele>17.67</ele>
        <time>2020-06-27T13:53:50Z</time>
      </trkpt>
      <trkpt lat="47.0824" lon="-1.32189">
        <ele>17.57</ele>
        <time>2020-06-27T13:53:52Z</time>
      </trkpt>
      <trkpt lat="47.0824" lon="-1.32167">
        <ele>17.62</ele>
        <time>2020-06-27T13:53:54Z</time>
      </trkpt>
      <trkpt lat="47.08239" lon="-1.32147">
        <ele>17.86</ele>
        <time>2020-06-27T13:53:56Z</time>
      </trkpt>
      <trkpt lat="47.08239" lon="-1.32127">
        <ele>19.19</ele>
        <time>2020-06-27T13:53:58Z</time>
      </trkpt>
      <trkpt lat="47.08238" lon="-1.32105">
        <ele>20.71</ele>
        <time>2020-06-27T13:54:00Z</time>
      </trkpt>
      <trkpt lat="47.08238" lon="-1.32085">
        <ele>21.91</ele>
        <time>2020-06-27T13:54:02Z</time>
      </trkpt>
      <trkpt lat="47.08237" lon="-1.32064">
        <ele>22.63</ele>
        <time>2020-06-27T13:54:04Z</time>
      </trkpt>
      <trkpt lat="47.08237" lon="-1.32043">
        <ele>22.4</ele>
        <time>2020-06-27T13:54:06Z</time>
      </trkpt>
      <trkpt lat="47.08237" lon="-1.32021">
        <ele>21.65</ele>
        <time>2020-06-27T13:54:08Z</time>
      </trkpt>
      <trkpt lat="47.08237" lon="-1.32001">
        <ele>21.64</ele>
        <time>2020-06-27T13:54:10Z</time>
      </trkpt>
      <trkpt lat="47.08237" lon="-1.31981">
        <ele>21.72</ele>
        <time>2020-06-27T13:54:12Z</time>
      </trkpt>
      <trkpt lat="47.08237" lon="-1.3196">
        <ele>22</ele>
        <time>2020-06-27T13:54:14Z</time>
      </trkpt>
      <trkpt lat="47.08238" lon="-1.31937">
        <ele>22</ele>
        <time>2020-06-27T13:54:16Z</time>
      </trkpt>
      <trkpt lat="47.08239" lon="-1.31915">
        <ele>21.94</ele>
        <time>2020-06-27T13:54:18Z</time>
      </trkpt>
      <trkpt lat="47.08239" lon="-1.31891">
        <ele>21.03</ele>
        <time>2020-06-27T13:54:20Z</time>
      </trkpt>
      <trkpt lat="47.08239" lon="-1.31869">
        <ele>19.74</ele>
        <time>2020-06-27T13:54:22Z</time>
      </trkpt>
      <trkpt lat="47.08239" lon="-1.3185">
        <ele>20.46</ele>
        <time>2020-06-27T13:54:24Z</time>
      </trkpt>
      <trkpt lat="47.08237" lon="-1.3183">
        <ele>21.2</ele>
        <time>2020-06-27T13:54:26Z</time>
      </trkpt>
      <trkpt lat="47.08233" lon="-1.31817">
        <ele>21.47</ele>
        <time>2020-06-27T13:54:28Z</time>
      </trkpt>
      <trkpt lat="47.08227" lon="-1.31801">
        <ele>21</ele>
        <time>2020-06-27T13:54:30Z</time>
      </trkpt>
      <trkpt lat="47.08221" lon="-1.31783">
        <ele>21.27</ele>
        <time>2020-06-27T13:54:32Z</time>
      </trkpt>
      <trkpt lat="47.08215" lon="-1.31763">
        <ele>22.01</ele>
        <time>2020-06-27T13:54:34Z</time>
      </trkpt>
      <trkpt lat="47.08209" lon="-1.31746">
        <ele>22.79</ele>
        <time>2020-06-27T13:54:36Z</time>
      </trkpt>
      <trkpt lat="47.08204" lon="-1.3173">
        <ele>23.75</ele>
        <time>2020-06-27T13:54:38Z</time>
      </trkpt>
      <trkpt lat="47.08199" lon="-1.31714">
        <ele>24.56</ele>
        <time>2020-06-27T13:54:40Z</time>
      </trkpt>
      <trkpt lat="47.08193" lon="-1.31698">
        <ele>25.57</ele>
        <time>2020-06-27T13:54:42Z</time>
      </trkpt>
      <trkpt lat="47.08188" lon="-1.31682">
        <ele>25.38</ele>
        <time>2020-06-27T13:54:44Z</time>
      </trkpt>
      <trkpt lat="47.08182" lon="-1.31665">
        <ele>25.28</ele>
        <time>2020-06-27T13:54:46Z</time>
      </trkpt>
      <trkpt lat="47.08177" lon="-1.31652">
        <ele>25.15</ele>
        <time>2020-06-27T13:54:48Z</time>
      </trkpt>
      <trkpt lat="47.08173" lon="-1.31636">
        <ele>25.43</ele>
        <time>2020-06-27T13:54:50Z</time>
      </trkpt>
      <trkpt lat="47.08168" lon="-1.31619">
        <ele>25.72</ele>
        <time>2020-06-27T13:54:52Z</time>
      </trkpt>
      <trkpt lat="47.08164" lon="-1.31605">
        <ele>25.69</ele>
        <time>2020-06-27T13:54:54Z</time>
      </trkpt>
      <trkpt lat="47.0816" lon="-1.31589">
        <ele>27.35</ele>
        <time>2020-06-27T13:54:56Z</time>
      </trkpt>
      <trkpt lat="47.0816" lon="-1.31571">
        <ele>27.51</ele>
        <time>2020-06-27T13:54:58Z</time>
      </trkpt>
      <trkpt lat="47.08162" lon="-1.31556">
        <ele>26.34</ele>
        <time>2020-06-27T13:55:00Z</time>
      </trkpt>
      <trkpt lat="47.08166" lon="-1.31538">
        <ele>25.01</ele>
        <time>2020-06-27T13:55:02Z</time>
      </trkpt>
      <trkpt lat="47.08169" lon="-1.31522">
        <ele>24.99</ele>
        <time>2020-06-27T13:55:04Z</time>
      </trkpt>
      <trkpt lat="47.08172" lon="-1.31501">
        <ele>25.1</ele>
        <time>2020-06-27T13:55:06Z</time>
      </trkpt>
      <trkpt lat="47.08175" lon="-1.31482">
        <ele>25.13</ele>
        <time>2020-06-27T13:55:08Z</time>
      </trkpt>
      <trkpt lat="47.08179" lon="-1.31463">
        <ele>26.57</ele>
        <time>2020-06-27T13:55:10Z</time>
      </trkpt>
      <trkpt lat="47.08183" lon="-1.31447">
        <ele>27.13</ele>
        <time>2020-06-27T13:55:12Z</time>
      </trkpt>
      <trkpt lat="47.08187" lon="-1.3143">
        <ele>26.92</ele>
        <time>2020-06-27T13:55:14Z</time>
      </trkpt>
      <trkpt lat="47.08191" lon="-1.31411">
        <ele>27.71</ele>
        <time>2020-06-27T13:55:16Z</time>
      </trkpt>
      <trkpt lat="47.08196" lon="-1.31392">
        <ele>29.28</ele>
        <time>2020-06-27T13:55:18Z</time>
      </trkpt>
      <trkpt lat="47.08205" lon="-1.31373">
        <ele>30.6</ele>
        <time>2020-06-27T13:55:20Z</time>
      </trkpt>
      <trkpt lat="47.08215" lon="-1.31358">
        <ele>30.59</ele>
        <time>2020-06-27T13:55:22Z</time>
      </trkpt>
      <trkpt lat="47.08224" lon="-1.31344">
        <ele>30.64</ele>
        <time>2020-06-27T13:55:24Z</time>
      </trkpt>
      <trkpt lat="47.08235" lon="-1.31329">
        <ele>32.17</ele>
        <time>2020-06-27T13:55:26Z</time>
      </trkpt>
      <trkpt lat="47.08245" lon="-1.31313">
        <ele>33.27</ele>
        <time>2020-06-27T13:55:28Z</time>
      </trkpt>
      <trkpt lat="47.08254" lon="-1.31297">
        <ele>32.8</ele>
        <time>2020-06-27T13:55:30Z</time>
      </trkpt>
      <trkpt lat="47.08263" lon="-1.31278">
        <ele>32.1</ele>
        <time>2020-06-27T13:55:32Z</time>
      </trkpt>
      <trkpt lat="47.0827" lon="-1.3126">
        <ele>32.25</ele>
        <time>2020-06-27T13:55:34Z</time>
      </trkpt>
      <trkpt lat="47.08278" lon="-1.31243">
        <ele>33</ele>
        <time>2020-06-27T13:55:36Z</time>
      </trkpt>
      <trkpt lat="47.08286" lon="-1.31224">
        <ele>32.36</ele>
        <time>2020-06-27T13:55:38Z</time>
      </trkpt>
      <trkpt lat="47.08294" lon="-1.31206">
        <ele>30.38</ele>
        <time>2020-06-27T13:55:40Z</time>
      </trkpt>
      <trkpt lat="47.08301" lon="-1.31186">
        <ele>28.43</ele>
        <time>2020-06-27T13:55:42Z</time>
      </trkpt>
      <trkpt lat="47.08304" lon="-1.31167">
        <ele>27.27</ele>
        <time>2020-06-27T13:55:44Z</time>
      </trkpt>
      <trkpt lat="47.08302" lon="-1.31147">
        <ele>26.37</ele>
        <time>2020-06-27T13:55:46Z</time>
      </trkpt>
      <trkpt lat="47.08298" lon="-1.31126">
        <ele>27.38</ele>
        <time>2020-06-27T13:55:48Z</time>
      </trkpt>
      <trkpt lat="47.08287" lon="-1.31108">
        <ele>28.63</ele>
        <time>2020-06-27T13:55:50Z</time>
      </trkpt>
      <trkpt lat="47.08275" lon="-1.31092">
        <ele>28.79</ele>
        <time>2020-06-27T13:55:52Z</time>
      </trkpt>
      <trkpt lat="47.08263" lon="-1.31078">
        <ele>28.87</ele>
        <time>2020-06-27T13:55:54Z</time>
      </trkpt>
      <trkpt lat="47.08253" lon="-1.31066">
        <ele>29.31</ele>
        <time>2020-06-27T13:55:56Z</time>
      </trkpt>
      <trkpt lat="47.08246" lon="-1.31051">
        <ele>29.3</ele>
        <time>2020-06-27T13:55:58Z</time>
      </trkpt>
      <trkpt lat="47.08241" lon="-1.31033">
        <ele>29.93</ele>
        <time>2020-06-27T13:56:00Z</time>
      </trkpt>
      <trkpt lat="47.08238" lon="-1.31013">
        <ele>29.9</ele>
        <time>2020-06-27T13:56:02Z</time>
      </trkpt>
      <trkpt lat="47.08236" lon="-1.3099">
        <ele>29.75</ele>
        <time>2020-06-27T13:56:04Z</time>
      </trkpt>
      <trkpt lat="47.08235" lon="-1.30968">
        <ele>30.75</ele>
        <time>2020-06-27T13:56:06Z</time>
      </trkpt>
      <trkpt lat="47.08234" lon="-1.30948">
        <ele>31.65</ele>
        <time>2020-06-27T13:56:08Z</time>
      </trkpt>
      <trkpt lat="47.08233" lon="-1.30928">
        <ele>32.86</ele>
        <time>2020-06-27T13:56:10Z</time>
      </trkpt>
      <trkpt lat="47.08229" lon="-1.30911">
        <ele>33.64</ele>
        <time>2020-06-27T13:56:12Z</time>
      </trkpt>
      <trkpt lat="47.08223" lon="-1.30892">
        <ele>33.88</ele>
        <time>2020-06-27T13:56:14Z</time>
      </trkpt>
      <trkpt lat="47.08217" lon="-1.30877">
        <ele>33.76</ele>
        <time>2020-06-27T13:56:16Z</time>
      </trkpt>
      <trkpt lat="47.08205" lon="-1.3086">
        <ele>33.83</ele>
        <time>2020-06-27T13:56:18Z</time>
      </trkpt>
      <trkpt lat="47.08196" lon="-1.30854">
        <ele>33.81</ele>
        <time>2020-06-27T13:56:19Z</time>
      </trkpt>
      <trkpt lat="47.08183" lon="-1.30848">
        <ele>31.98</ele>
        <time>2020-06-27T13:56:21Z</time>
      </trkpt>
      <trkpt lat="47.0817" lon="-1.3084">
        <ele>31.01</ele>
        <time>2020-06-27T13:56:23Z</time>
      </trkpt>
      <trkpt lat="47.08155" lon="-1.30831">
        <ele>31.41</ele>
        <time>2020-06-27T13:56:25Z</time>
      </trkpt>
      <trkpt lat="47.08139" lon="-1.30824">
        <ele>32.11</ele>
        <time>2020-06-27T13:56:27Z</time>
      </trkpt>
      <trkpt lat="47.08124" lon="-1.30822">
        <ele>32.27</ele>
        <time>2020-06-27T13:56:29Z</time>
      </trkpt>
      <trkpt lat="47.08109" lon="-1.30823">
        <ele>32.27</ele>
        <time>2020-06-27T13:56:31Z</time>
      </trkpt>
      <trkpt lat="47.08095" lon="-1.30826">
        <ele>32.65</ele>
        <time>2020-06-27T13:56:33Z</time>
      </trkpt>
      <trkpt lat="47.08081" lon="-1.30829">
        <ele>33.62</ele>
        <time>2020-06-27T13:56:35Z</time>
      </trkpt>
      <trkpt lat="47.08067" lon="-1.30832">
        <ele>34.34</ele>
        <time>2020-06-27T13:56:37Z</time>
      </trkpt>
      <trkpt lat="47.08054" lon="-1.30833">
        <ele>34.14</ele>
        <time>2020-06-27T13:56:39Z</time>
      </trkpt>
      <trkpt lat="47.0804" lon="-1.30833">
        <ele>34.44</ele>
        <time>2020-06-27T13:56:41Z</time>
      </trkpt>
      <trkpt lat="47.08027" lon="-1.30833">
        <ele>34.14</ele>
        <time>2020-06-27T13:56:43Z</time>
      </trkpt>
      <trkpt lat="47.08013" lon="-1.3083">
        <ele>34.53</ele>
        <time>2020-06-27T13:56:45Z</time>
      </trkpt>
      <trkpt lat="47.07998" lon="-1.30827">
        <ele>34.02</ele>
        <time>2020-06-27T13:56:47Z</time>
      </trkpt>
      <trkpt lat="47.0798" lon="-1.30824">
        <ele>33.37</ele>
        <time>2020-06-27T13:56:49Z</time>
      </trkpt>
      <trkpt lat="47.07966" lon="-1.3082">
        <ele>33.74</ele>
        <time>2020-06-27T13:56:51Z</time>
      </trkpt>
      <trkpt lat="47.0795" lon="-1.30817">
        <ele>33.74</ele>
        <time>2020-06-27T13:56:53Z</time>
      </trkpt>
      <trkpt lat="47.07934" lon="-1.30814">
        <ele>33.21</ele>
        <time>2020-06-27T13:56:55Z</time>
      </trkpt>
      <trkpt lat="47.07918" lon="-1.30812">
        <ele>32.53</ele>
        <time>2020-06-27T13:56:57Z</time>
      </trkpt>
      <trkpt lat="47.07903" lon="-1.30809">
        <ele>31.74</ele>
        <time>2020-06-27T13:56:59Z</time>
      </trkpt>
      <trkpt lat="47.07887" lon="-1.30806">
        <ele>30.56</ele>
        <time>2020-06-27T13:57:01Z</time>
      </trkpt>
      <trkpt lat="47.07873" lon="-1.30803">
        <ele>29.61</ele>
        <time>2020-06-27T13:57:03Z</time>
      </trkpt>
      <trkpt lat="47.07858" lon="-1.30801">
        <ele>28.95</ele>
        <time>2020-06-27T13:57:05Z</time>
      </trkpt>
      <trkpt lat="47.07845" lon="-1.30799">
        <ele>28.8</ele>
        <time>2020-06-27T13:57:07Z</time>
      </trkpt>
      <trkpt lat="47.0783" lon="-1.30796">
        <ele>28.01</ele>
        <time>2020-06-27T13:57:09Z</time>
      </trkpt>
      <trkpt lat="47.07814" lon="-1.30793">
        <ele>27.07</ele>
        <time>2020-06-27T13:57:11Z</time>
      </trkpt>
      <trkpt lat="47.07797" lon="-1.3079">
        <ele>26.75</ele>
        <time>2020-06-27T13:57:13Z</time>
      </trkpt>
      <trkpt lat="47.07781" lon="-1.30786">
        <ele>26.75</ele>
        <time>2020-06-27T13:57:15Z</time>
      </trkpt>
      <trkpt lat="47.07766" lon="-1.30783">
        <ele>26.96</ele>
        <time>2020-06-27T13:57:17Z</time>
      </trkpt>
      <trkpt lat="47.07753" lon="-1.3078">
        <ele>26.74</ele>
        <time>2020-06-27T13:57:19Z</time>
      </trkpt>
      <trkpt lat="47.07738" lon="-1.30777">
        <ele>27.11</ele>
        <time>2020-06-27T13:57:21Z</time>
      </trkpt>
      <trkpt lat="47.07725" lon="-1.30773">
        <ele>27.42</ele>
        <time>2020-06-27T13:57:23Z</time>
      </trkpt>
      <trkpt lat="47.07713" lon="-1.30773">
        <ele>28.5</ele>
        <time>2020-06-27T13:57:25Z</time>
      </trkpt>
      <trkpt lat="47.07703" lon="-1.30775">
        <ele>29.34</ele>
        <time>2020-06-27T13:57:27Z</time>
      </trkpt>
      <trkpt lat="47.07694" lon="-1.30769">
        <ele>29.25</ele>
        <time>2020-06-27T13:57:29Z</time>
      </trkpt>
      <trkpt lat="47.07695" lon="-1.30754">
        <ele>29.37</ele>
        <time>2020-06-27T13:57:31Z</time>
      </trkpt>
      <trkpt lat="47.07703" lon="-1.30738">
        <ele>29.6</ele>
        <time>2020-06-27T13:57:33Z</time>
      </trkpt>
      <trkpt lat="47.0771" lon="-1.30722">
        <ele>29.09</ele>
        <time>2020-06-27T13:57:35Z</time>
      </trkpt>
      <trkpt lat="47.07718" lon="-1.30706">
        <ele>28.31</ele>
        <time>2020-06-27T13:57:37Z</time>
      </trkpt>
      <trkpt lat="47.07726" lon="-1.3069">
        <ele>27.47</ele>
        <time>2020-06-27T13:57:39Z</time>
      </trkpt>
      <trkpt lat="47.07737" lon="-1.30672">
        <ele>27.49</ele>
        <time>2020-06-27T13:57:41Z</time>
      </trkpt>
      <trkpt lat="47.07747" lon="-1.30653">
        <ele>27.78</ele>
        <time>2020-06-27T13:57:43Z</time>
      </trkpt>
      <trkpt lat="47.07757" lon="-1.30636">
        <ele>28.76</ele>
        <time>2020-06-27T13:57:45Z</time>
      </trkpt>
      <trkpt lat="47.07764" lon="-1.3062">
        <ele>30</ele>
        <time>2020-06-27T13:57:47Z</time>
      </trkpt>
      <trkpt lat="47.07773" lon="-1.30604">
        <ele>31.4</ele>
        <time>2020-06-27T13:57:49Z</time>
      </trkpt>
      <trkpt lat="47.07782" lon="-1.30589">
        <ele>31.66</ele>
        <time>2020-06-27T13:57:51Z</time>
      </trkpt>
      <trkpt lat="47.07793" lon="-1.30572">
        <ele>31.53</ele>
        <time>2020-06-27T13:57:53Z</time>
      </trkpt>
      <trkpt lat="47.07802" lon="-1.30555">
        <ele>30.69</ele>
        <time>2020-06-27T13:57:55Z</time>
      </trkpt>
      <trkpt lat="47.07808" lon="-1.30536">
        <ele>29.76</ele>
        <time>2020-06-27T13:57:57Z</time>
      </trkpt>
      <trkpt lat="47.07813" lon="-1.30516">
        <ele>30.08</ele>
        <time>2020-06-27T13:57:59Z</time>
      </trkpt>
      <trkpt lat="47.07819" lon="-1.30499">
        <ele>30.58</ele>
        <time>2020-06-27T13:58:01Z</time>
      </trkpt>
      <trkpt lat="47.07823" lon="-1.3048">
        <ele>30.76</ele>
        <time>2020-06-27T13:58:03Z</time>
      </trkpt>
      <trkpt lat="47.07828" lon="-1.30462">
        <ele>30.52</ele>
        <time>2020-06-27T13:58:05Z</time>
      </trkpt>
      <trkpt lat="47.07833" lon="-1.30443">
        <ele>30.86</ele>
        <time>2020-06-27T13:58:07Z</time>
      </trkpt>
      <trkpt lat="47.07838" lon="-1.30425">
        <ele>30.47</ele>
        <time>2020-06-27T13:58:09Z</time>
      </trkpt>
      <trkpt lat="47.07842" lon="-1.30407">
        <ele>31.3</ele>
        <time>2020-06-27T13:58:11Z</time>
      </trkpt>
      <trkpt lat="47.07848" lon="-1.30386">
        <ele>32.05</ele>
        <time>2020-06-27T13:58:13Z</time>
      </trkpt>
      <trkpt lat="47.07851" lon="-1.30369">
        <ele>32.77</ele>
        <time>2020-06-27T13:58:15Z</time>
      </trkpt>
      <trkpt lat="47.07855" lon="-1.30351">
        <ele>33.99</ele>
        <time>2020-06-27T13:58:17Z</time>
      </trkpt>
      <trkpt lat="47.07858" lon="-1.30332">
        <ele>34.3</ele>
        <time>2020-06-27T13:58:19Z</time>
      </trkpt>
      <trkpt lat="47.07861" lon="-1.30314">
        <ele>34.07</ele>
        <time>2020-06-27T13:58:21Z</time>
      </trkpt>
      <trkpt lat="47.07864" lon="-1.30294">
        <ele>34.3</ele>
        <time>2020-06-27T13:58:23Z</time>
      </trkpt>
      <trkpt lat="47.07867" lon="-1.30273">
        <ele>34.77</ele>
        <time>2020-06-27T13:58:25Z</time>
      </trkpt>
      <trkpt lat="47.07869" lon="-1.30254">
        <ele>34.34</ele>
        <time>2020-06-27T13:58:27Z</time>
      </trkpt>
      <trkpt lat="47.07869" lon="-1.30231">
        <ele>33.66</ele>
        <time>2020-06-27T13:58:29Z</time>
      </trkpt>
      <trkpt lat="47.07868" lon="-1.30211">
        <ele>32.43</ele>
        <time>2020-06-27T13:58:31Z</time>
      </trkpt>
      <trkpt lat="47.07867" lon="-1.3019">
        <ele>32.31</ele>
        <time>2020-06-27T13:58:33Z</time>
      </trkpt>
      <trkpt lat="47.07866" lon="-1.30169">
        <ele>31.58</ele>
        <time>2020-06-27T13:58:35Z</time>
      </trkpt>
      <trkpt lat="47.07864" lon="-1.3015">
        <ele>31.04</ele>
        <time>2020-06-27T13:58:37Z</time>
      </trkpt>
      <trkpt lat="47.07864" lon="-1.30128">
        <ele>30.67</ele>
        <time>2020-06-27T13:58:39Z</time>
      </trkpt>
      <trkpt lat="47.07864" lon="-1.30107">
        <ele>31.39</ele>
        <time>2020-06-27T13:58:41Z</time>
      </trkpt>
      <trkpt lat="47.07866" lon="-1.30081">
        <ele>31.31</ele>
        <time>2020-06-27T13:58:43Z</time>
      </trkpt>
      <trkpt lat="47.07868" lon="-1.30061">
        <ele>30.63</ele>
        <time>2020-06-27T13:58:45Z</time>
      </trkpt>
      <trkpt lat="47.07871" lon="-1.3004">
        <ele>30.53</ele>
        <time>2020-06-27T13:58:47Z</time>
      </trkpt>
      <trkpt lat="47.07875" lon="-1.30017">
        <ele>30.76</ele>
        <time>2020-06-27T13:58:49Z</time>
      </trkpt>
      <trkpt lat="47.07879" lon="-1.29993">
        <ele>30.49</ele>
        <time>2020-06-27T13:58:51Z</time>
      </trkpt>
      <trkpt lat="47.07886" lon="-1.29971">
        <ele>30.72</ele>
        <time>2020-06-27T13:58:53Z</time>
      </trkpt>
      <trkpt lat="47.07893" lon="-1.2995">
        <ele>31.02</ele>
        <time>2020-06-27T13:58:55Z</time>
      </trkpt>
      <trkpt lat="47.07901" lon="-1.2993">
        <ele>31</ele>
        <time>2020-06-27T13:58:57Z</time>
      </trkpt>
      <trkpt lat="47.07907" lon="-1.29913">
        <ele>31.42</ele>
        <time>2020-06-27T13:58:59Z</time>
      </trkpt>
      <trkpt lat="47.07913" lon="-1.29893">
        <ele>30.98</ele>
        <time>2020-06-27T13:59:01Z</time>
      </trkpt>
      <trkpt lat="47.0792" lon="-1.29871">
        <ele>30.81</ele>
        <time>2020-06-27T13:59:04Z</time>
      </trkpt>
      <trkpt lat="47.07925" lon="-1.29852">
        <ele>31.18</ele>
        <time>2020-06-27T13:59:06Z</time>
      </trkpt>
      <trkpt lat="47.07929" lon="-1.29831">
        <ele>30.91</ele>
        <time>2020-06-27T13:59:08Z</time>
      </trkpt>
      <trkpt lat="47.07931" lon="-1.29809">
        <ele>30.27</ele>
        <time>2020-06-27T13:59:10Z</time>
      </trkpt>
      <trkpt lat="47.07933" lon="-1.29787">
        <ele>29.36</ele>
        <time>2020-06-27T13:59:12Z</time>
      </trkpt>
      <trkpt lat="47.07936" lon="-1.29765">
        <ele>28.55</ele>
        <time>2020-06-27T13:59:14Z</time>
      </trkpt>
      <trkpt lat="47.0794" lon="-1.29741">
        <ele>28</ele>
        <time>2020-06-27T13:59:16Z</time>
      </trkpt>
      <trkpt lat="47.07943" lon="-1.29721">
        <ele>27.44</ele>
        <time>2020-06-27T13:59:18Z</time>
      </trkpt>
      <trkpt lat="47.07947" lon="-1.29702">
        <ele>27.26</ele>
        <time>2020-06-27T13:59:20Z</time>
      </trkpt>
      <trkpt lat="47.07952" lon="-1.29684">
        <ele>27.57</ele>
        <time>2020-06-27T13:59:22Z</time>
      </trkpt>
      <trkpt lat="47.07956" lon="-1.29665">
        <ele>29.38</ele>
        <time>2020-06-27T13:59:24Z</time>
      </trkpt>
      <trkpt lat="47.0796" lon="-1.29648">
        <ele>30.95</ele>
        <time>2020-06-27T13:59:26Z</time>
      </trkpt>
      <trkpt lat="47.07966" lon="-1.29627">
        <ele>31.96</ele>
        <time>2020-06-27T13:59:28Z</time>
      </trkpt>
      <trkpt lat="47.07972" lon="-1.29607">
        <ele>33.13</ele>
        <time>2020-06-27T13:59:30Z</time>
      </trkpt>
      <trkpt lat="47.07977" lon="-1.29592">
        <ele>34.99</ele>
        <time>2020-06-27T13:59:32Z</time>
      </trkpt>
      <trkpt lat="47.07982" lon="-1.29577">
        <ele>36.32</ele>
        <time>2020-06-27T13:59:34Z</time>
      </trkpt>
      <trkpt lat="47.07989" lon="-1.2956">
        <ele>37.89</ele>
        <time>2020-06-27T13:59:36Z</time>
      </trkpt>
      <trkpt lat="47.07995" lon="-1.29545">
        <ele>39.46</ele>
        <time>2020-06-27T13:59:38Z</time>
      </trkpt>
      <trkpt lat="47.08002" lon="-1.29526">
        <ele>39.91</ele>
        <time>2020-06-27T13:59:40Z</time>
      </trkpt>
      <trkpt lat="47.08008" lon="-1.2951">
        <ele>38.32</ele>
        <time>2020-06-27T13:59:42Z</time>
      </trkpt>
      <trkpt lat="47.08014" lon="-1.29494">
        <ele>36.29</ele>
        <time>2020-06-27T13:59:44Z</time>
      </trkpt>
      <trkpt lat="47.0802" lon="-1.29479">
        <ele>34.94</ele>
        <time>2020-06-27T13:59:46Z</time>
      </trkpt>
      <trkpt lat="47.08025" lon="-1.29465">
        <ele>33.98</ele>
        <time>2020-06-27T13:59:48Z</time>
      </trkpt>
      <trkpt lat="47.08032" lon="-1.29448">
        <ele>32.78</ele>
        <time>2020-06-27T13:59:50Z</time>
      </trkpt>
      <trkpt lat="47.08039" lon="-1.29431">
        <ele>32.2</ele>
        <time>2020-06-27T13:59:52Z</time>
      </trkpt>
      <trkpt lat="47.08045" lon="-1.29417">
        <ele>32.06</ele>
        <time>2020-06-27T13:59:54Z</time>
      </trkpt>
      <trkpt lat="47.08051" lon="-1.29401">
        <ele>33.19</ele>
        <time>2020-06-27T13:59:56Z</time>
      </trkpt>
      <trkpt lat="47.08056" lon="-1.29382">
        <ele>33.45</ele>
        <time>2020-06-27T13:59:58Z</time>
      </trkpt>
      <trkpt lat="47.08053" lon="-1.29363">
        <ele>34.6</ele>
        <time>2020-06-27T14:00:00Z</time>
      </trkpt>
      <trkpt lat="47.08049" lon="-1.29344">
        <ele>35.5</ele>
        <time>2020-06-27T14:00:02Z</time>
      </trkpt>
      <trkpt lat="47.08041" lon="-1.29326">
        <ele>35.56</ele>
        <time>2020-06-27T14:00:04Z</time>
      </trkpt>
      <trkpt lat="47.08033" lon="-1.29312">
        <ele>37.17</ele>
        <time>2020-06-27T14:00:06Z</time>
      </trkpt>
      <trkpt lat="47.08029" lon="-1.29295">
        <ele>38.09</ele>
        <time>2020-06-27T14:00:08Z</time>
      </trkpt>
      <trkpt lat="47.08028" lon="-1.29274">
        <ele>38.32</ele>
        <time>2020-06-27T14:00:10Z</time>
      </trkpt>
      <trkpt lat="47.08031" lon="-1.29256">
        <ele>38.25</ele>
        <time>2020-06-27T14:00:12Z</time>
      </trkpt>
      <trkpt lat="47.08035" lon="-1.29239">
        <ele>37.4</ele>
        <time>2020-06-27T14:00:14Z</time>
      </trkpt>
      <trkpt lat="47.08038" lon="-1.29221">
        <ele>36.42</ele>
        <time>2020-06-27T14:00:16Z</time>
      </trkpt>
      <trkpt lat="47.08039" lon="-1.29206">
        <ele>36.68</ele>
        <time>2020-06-27T14:00:18Z</time>
      </trkpt>
      <trkpt lat="47.08041" lon="-1.29193">
        <ele>37.8</ele>
        <time>2020-06-27T14:00:20Z</time>
      </trkpt>
      <trkpt lat="47.08049" lon="-1.29186">
        <ele>39.51</ele>
        <time>2020-06-27T14:00:22Z</time>
      </trkpt>
      <trkpt lat="47.08061" lon="-1.29178">
        <ele>39.5</ele>
        <time>2020-06-27T14:00:24Z</time>
      </trkpt>
      <trkpt lat="47.08073" lon="-1.29169">
        <ele>39.36</ele>
        <time>2020-06-27T14:00:26Z</time>
      </trkpt>
      <trkpt lat="47.08084" lon="-1.29159">
        <ele>40.24</ele>
        <time>2020-06-27T14:00:28Z</time>
      </trkpt>
      <trkpt lat="47.08094" lon="-1.29151">
        <ele>41.09</ele>
        <time>2020-06-27T14:00:30Z</time>
      </trkpt>
      <trkpt lat="47.08104" lon="-1.29142">
        <ele>41.29</ele>
        <time>2020-06-27T14:00:32Z</time>
      </trkpt>
      <trkpt lat="47.08116" lon="-1.29129">
        <ele>41.43</ele>
        <time>2020-06-27T14:00:34Z</time>
      </trkpt>
      <trkpt lat="47.08126" lon="-1.29118">
        <ele>41.66</ele>
        <time>2020-06-27T14:00:36Z</time>
      </trkpt>
      <trkpt lat="47.08137" lon="-1.29107">
        <ele>41.69</ele>
        <time>2020-06-27T14:00:38Z</time>
      </trkpt>
      <trkpt lat="47.08148" lon="-1.29095">
        <ele>41.45</ele>
        <time>2020-06-27T14:00:40Z</time>
      </trkpt>
      <trkpt lat="47.08159" lon="-1.29084">
        <ele>41.67</ele>
        <time>2020-06-27T14:00:42Z</time>
      </trkpt>
      <trkpt lat="47.08169" lon="-1.29073">
        <ele>42.32</ele>
        <time>2020-06-27T14:00:44Z</time>
      </trkpt>
      <trkpt lat="47.0818" lon="-1.29061">
        <ele>42.94</ele>
        <time>2020-06-27T14:00:46Z</time>
      </trkpt>
      <trkpt lat="47.08191" lon="-1.29049">
        <ele>43.73</ele>
        <time>2020-06-27T14:00:48Z</time>
      </trkpt>
      <trkpt lat="47.08201" lon="-1.29038">
        <ele>43.98</ele>
        <time>2020-06-27T14:00:50Z</time>
      </trkpt>
      <trkpt lat="47.08212" lon="-1.29026">
        <ele>43.97</ele>
        <time>2020-06-27T14:00:52Z</time>
      </trkpt>
      <trkpt lat="47.08221" lon="-1.29015">
        <ele>44.49</ele>
        <time>2020-06-27T14:00:54Z</time>
      </trkpt>
      <trkpt lat="47.08233" lon="-1.29002">
        <ele>45.14</ele>
        <time>2020-06-27T14:00:56Z</time>
      </trkpt>
      <trkpt lat="47.08245" lon="-1.28991">
        <ele>44.99</ele>
        <time>2020-06-27T14:00:58Z</time>
      </trkpt>
      <trkpt lat="47.08254" lon="-1.28981">
        <ele>45.37</ele>
        <time>2020-06-27T14:01:00Z</time>
      </trkpt>
      <trkpt lat="47.08264" lon="-1.28969">
        <ele>45.94</ele>
        <time>2020-06-27T14:01:02Z</time>
      </trkpt>
      <trkpt lat="47.08275" lon="-1.28955">
        <ele>46.55</ele>
        <time>2020-06-27T14:01:04Z</time>
      </trkpt>
      <trkpt lat="47.08284" lon="-1.28942">
        <ele>46.51</ele>
        <time>2020-06-27T14:01:06Z</time>
      </trkpt>
      <trkpt lat="47.08289" lon="-1.28924">
        <ele>46.4</ele>
        <time>2020-06-27T14:01:08Z</time>
      </trkpt>
      <trkpt lat="47.08294" lon="-1.2891">
        <ele>46.63</ele>
        <time>2020-06-27T14:01:10Z</time>
      </trkpt>
      <trkpt lat="47.08301" lon="-1.28894">
        <ele>46.97</ele>
        <time>2020-06-27T14:01:12Z</time>
      </trkpt>
      <trkpt lat="47.08308" lon="-1.28878">
        <ele>48.24</ele>
        <time>2020-06-27T14:01:14Z</time>
      </trkpt>
      <trkpt lat="47.08314" lon="-1.28861">
        <ele>47.64</ele>
        <time>2020-06-27T14:01:16Z</time>
      </trkpt>
      <trkpt lat="47.0832" lon="-1.28843">
        <ele>47.33</ele>
        <time>2020-06-27T14:01:18Z</time>
      </trkpt>
      <trkpt lat="47.08327" lon="-1.28825">
        <ele>46.3</ele>
        <time>2020-06-27T14:01:20Z</time>
      </trkpt>
      <trkpt lat="47.08334" lon="-1.28808">
        <ele>45.98</ele>
        <time>2020-06-27T14:01:22Z</time>
      </trkpt>
      <trkpt lat="47.08342" lon="-1.28788">
        <ele>45.2</ele>
        <time>2020-06-27T14:01:24Z</time>
      </trkpt>
      <trkpt lat="47.08351" lon="-1.28766">
        <ele>44.58</ele>
        <time>2020-06-27T14:01:26Z</time>
      </trkpt>
      <trkpt lat="47.08359" lon="-1.28747">
        <ele>44</ele>
        <time>2020-06-27T14:01:28Z</time>
      </trkpt>
      <trkpt lat="47.08366" lon="-1.28729">
        <ele>42.94</ele>
        <time>2020-06-27T14:01:30Z</time>
      </trkpt>
      <trkpt lat="47.08376" lon="-1.28709">
        <ele>42.24</ele>
        <time>2020-06-27T14:01:32Z</time>
      </trkpt>
      <trkpt lat="47.08386" lon="-1.28691">
        <ele>41.62</ele>
        <time>2020-06-27T14:01:34Z</time>
      </trkpt>
      <trkpt lat="47.08397" lon="-1.28674">
        <ele>41.56</ele>
        <time>2020-06-27T14:01:36Z</time>
      </trkpt>
      <trkpt lat="47.08407" lon="-1.28658">
        <ele>42.29</ele>
        <time>2020-06-27T14:01:38Z</time>
      </trkpt>
      <trkpt lat="47.08419" lon="-1.28641">
        <ele>42.42</ele>
        <time>2020-06-27T14:01:40Z</time>
      </trkpt>
      <trkpt lat="47.08431" lon="-1.28624">
        <ele>42.05</ele>
        <time>2020-06-27T14:01:42Z</time>
      </trkpt>
      <trkpt lat="47.08442" lon="-1.28609">
        <ele>42.07</ele>
        <time>2020-06-27T14:01:44Z</time>
      </trkpt>
      <trkpt lat="47.08453" lon="-1.28592">
        <ele>42.2</ele>
        <time>2020-06-27T14:01:46Z</time>
      </trkpt>
      <trkpt lat="47.08465" lon="-1.28574">
        <ele>42.24</ele>
        <time>2020-06-27T14:01:48Z</time>
      </trkpt>
      <trkpt lat="47.08477" lon="-1.28557">
        <ele>42.34</ele>
        <time>2020-06-27T14:01:50Z</time>
      </trkpt>
      <trkpt lat="47.08488" lon="-1.2854">
        <ele>41.98</ele>
        <time>2020-06-27T14:01:52Z</time>
      </trkpt>
      <trkpt lat="47.08498" lon="-1.28524">
        <ele>42.2</ele>
        <time>2020-06-27T14:01:54Z</time>
      </trkpt>
      <trkpt lat="47.08507" lon="-1.28511">
        <ele>42.41</ele>
        <time>2020-06-27T14:01:56Z</time>
      </trkpt>
      <trkpt lat="47.08517" lon="-1.28496">
        <ele>42.67</ele>
        <time>2020-06-27T14:01:58Z</time>
      </trkpt>
      <trkpt lat="47.08528" lon="-1.28481">
        <ele>42.65</ele>
        <time>2020-06-27T14:02:00Z</time>
      </trkpt>
      <trkpt lat="47.08539" lon="-1.28463">
        <ele>42.07</ele>
        <time>2020-06-27T14:02:02Z</time>
      </trkpt>
      <trkpt lat="47.0855" lon="-1.28449">
        <ele>41.34</ele>
        <time>2020-06-27T14:02:04Z</time>
      </trkpt>
      <trkpt lat="47.08558" lon="-1.28439">
        <ele>41.07</ele>
        <time>2020-06-27T14:02:06Z</time>
      </trkpt>
      <trkpt lat="47.08567" lon="-1.28429">
        <ele>40.86</ele>
        <time>2020-06-27T14:02:12Z</time>
      </trkpt>
      <trkpt lat="47.08572" lon="-1.28416">
        <ele>40.59</ele>
        <time>2020-06-27T14:02:34Z</time>
      </trkpt>
      <trkpt lat="47.08581" lon="-1.28404">
        <ele>39.8</ele>
        <time>2020-06-27T14:02:37Z</time>
      </trkpt>
      <trkpt lat="47.08595" lon="-1.28393">
        <ele>36.74</ele>
        <time>2020-06-27T14:02:40Z</time>
      </trkpt>
      <trkpt lat="47.08607" lon="-1.28387">
        <ele>35.28</ele>
        <time>2020-06-27T14:02:42Z</time>
      </trkpt>
      <trkpt lat="47.08619" lon="-1.28382">
        <ele>34.47</ele>
        <time>2020-06-27T14:02:44Z</time>
      </trkpt>
      <trkpt lat="47.08631" lon="-1.28379">
        <ele>34.59</ele>
        <time>2020-06-27T14:02:46Z</time>
      </trkpt>
      <trkpt lat="47.08645" lon="-1.28374">
        <ele>35.23</ele>
        <time>2020-06-27T14:02:48Z</time>
      </trkpt>
      <trkpt lat="47.08659" lon="-1.28375">
        <ele>35.02</ele>
        <time>2020-06-27T14:02:50Z</time>
      </trkpt>
      <trkpt lat="47.08671" lon="-1.28379">
        <ele>34.54</ele>
        <time>2020-06-27T14:02:52Z</time>
      </trkpt>
      <trkpt lat="47.08685" lon="-1.28386">
        <ele>35.44</ele>
        <time>2020-06-27T14:02:54Z</time>
      </trkpt>
      <trkpt lat="47.08697" lon="-1.28389">
        <ele>36.35</ele>
        <time>2020-06-27T14:02:56Z</time>
      </trkpt>
      <trkpt lat="47.0871" lon="-1.28385">
        <ele>36.74</ele>
        <time>2020-06-27T14:02:58Z</time>
      </trkpt>
      <trkpt lat="47.08719" lon="-1.28383">
        <ele>36.72</ele>
        <time>2020-06-27T14:02:59Z</time>
      </trkpt>
      <trkpt lat="47.08732" lon="-1.28379">
        <ele>36.62</ele>
        <time>2020-06-27T14:03:01Z</time>
      </trkpt>
      <trkpt lat="47.08742" lon="-1.28375">
        <ele>36.18</ele>
        <time>2020-06-27T14:03:03Z</time>
      </trkpt>
      <trkpt lat="47.08755" lon="-1.2837">
        <ele>36.61</ele>
        <time>2020-06-27T14:03:05Z</time>
      </trkpt>
      <trkpt lat="47.08768" lon="-1.28365">
        <ele>36.88</ele>
        <time>2020-06-27T14:03:07Z</time>
      </trkpt>
      <trkpt lat="47.08782" lon="-1.28354">
        <ele>36.49</ele>
        <time>2020-06-27T14:03:09Z</time>
      </trkpt>
      <trkpt lat="47.08793" lon="-1.28339">
        <ele>35.65</ele>
        <time>2020-06-27T14:03:11Z</time>
      </trkpt>
      <trkpt lat="47.08803" lon="-1.28324">
        <ele>34.72</ele>
        <time>2020-06-27T14:03:13Z</time>
      </trkpt>
      <trkpt lat="47.0881" lon="-1.28311">
        <ele>34.53</ele>
        <time>2020-06-27T14:03:15Z</time>
      </trkpt>
      <trkpt lat="47.08822" lon="-1.283">
        <ele>34.15</ele>
        <time>2020-06-27T14:03:17Z</time>
      </trkpt>
      <trkpt lat="47.08836" lon="-1.28293">
        <ele>34.73</ele>
        <time>2020-06-27T14:03:19Z</time>
      </trkpt>
      <trkpt lat="47.08847" lon="-1.28297">
        <ele>34.81</ele>
        <time>2020-06-27T14:03:21Z</time>
      </trkpt>
      <trkpt lat="47.08855" lon="-1.28304">
        <ele>34.55</ele>
        <time>2020-06-27T14:03:23Z</time>
      </trkpt>
      <trkpt lat="47.08864" lon="-1.28319">
        <ele>33.74</ele>
        <time>2020-06-27T14:03:26Z</time>
      </trkpt>
      <trkpt lat="47.08869" lon="-1.2833">
        <ele>33.5</ele>
        <time>2020-06-27T14:03:28Z</time>
      </trkpt>
      <trkpt lat="47.0888" lon="-1.28328">
        <ele>33.59</ele>
        <time>2020-06-27T14:03:32Z</time>
      </trkpt>
      <trkpt lat="47.08872" lon="-1.28337">
        <ele>28.87</ele>
        <time>2020-06-27T14:05:24Z</time>
      </trkpt>
      <trkpt lat="47.08877" lon="-1.28349">
        <ele>28.86</ele>
        <time>2020-06-27T14:05:29Z</time>
      </trkpt>
      <trkpt lat="47.08887" lon="-1.2836">
        <ele>28.67</ele>
        <time>2020-06-27T14:05:32Z</time>
      </trkpt>
      <trkpt lat="47.08894" lon="-1.28372">
        <ele>28.88</ele>
        <time>2020-06-27T14:05:35Z</time>
      </trkpt>
      <trkpt lat="47.08902" lon="-1.28385">
        <ele>29.67</ele>
        <time>2020-06-27T14:05:38Z</time>
      </trkpt>
      <trkpt lat="47.08905" lon="-1.284">
        <ele>29.84</ele>
        <time>2020-06-27T14:05:41Z</time>
      </trkpt>
      <trkpt lat="47.0891" lon="-1.28416">
        <ele>29.73</ele>
        <time>2020-06-27T14:05:44Z</time>
      </trkpt>
      <trkpt lat="47.08912" lon="-1.2843">
        <ele>29.71</ele>
        <time>2020-06-27T14:05:47Z</time>
      </trkpt>
      <trkpt lat="47.08917" lon="-1.28446">
        <ele>30.03</ele>
        <time>2020-06-27T14:05:50Z</time>
      </trkpt>
      <trkpt lat="47.08918" lon="-1.28461">
        <ele>30.15</ele>
        <time>2020-06-27T14:05:52Z</time>
      </trkpt>
      <trkpt lat="47.0892" lon="-1.28475">
        <ele>30.21</ele>
        <time>2020-06-27T14:05:54Z</time>
      </trkpt>
      <trkpt lat="47.08924" lon="-1.2849">
        <ele>30.13</ele>
        <time>2020-06-27T14:05:56Z</time>
      </trkpt>
      <trkpt lat="47.08929" lon="-1.28506">
        <ele>28.97</ele>
        <time>2020-06-27T14:05:58Z</time>
      </trkpt>
      <trkpt lat="47.08933" lon="-1.28523">
        <ele>28.12</ele>
        <time>2020-06-27T14:06:00Z</time>
      </trkpt>
      <trkpt lat="47.08938" lon="-1.28541">
        <ele>27.01</ele>
        <time>2020-06-27T14:06:02Z</time>
      </trkpt>
      <trkpt lat="47.08944" lon="-1.28559">
        <ele>26.06</ele>
        <time>2020-06-27T14:06:04Z</time>
      </trkpt>
      <trkpt lat="47.08948" lon="-1.28574">
        <ele>25.75</ele>
        <time>2020-06-27T14:06:06Z</time>
      </trkpt>
      <trkpt lat="47.08953" lon="-1.28586">
        <ele>25.67</ele>
        <time>2020-06-27T14:06:08Z</time>
      </trkpt>
      <trkpt lat="47.08961" lon="-1.28595">
        <ele>26.74</ele>
        <time>2020-06-27T14:06:12Z</time>
      </trkpt>
      <trkpt lat="47.08968" lon="-1.28608">
        <ele>27.27</ele>
        <time>2020-06-27T14:06:16Z</time>
      </trkpt>
      <trkpt lat="47.08974" lon="-1.28622">
        <ele>28.07</ele>
        <time>2020-06-27T14:06:18Z</time>
      </trkpt>
      <trkpt lat="47.08981" lon="-1.28634">
        <ele>28.57</ele>
        <time>2020-06-27T14:06:20Z</time>
      </trkpt>
      <trkpt lat="47.08988" lon="-1.28648">
        <ele>28.74</ele>
        <time>2020-06-27T14:06:22Z</time>
      </trkpt>
      <trkpt lat="47.08996" lon="-1.28666">
        <ele>28.35</ele>
        <time>2020-06-27T14:06:24Z</time>
      </trkpt>
      <trkpt lat="47.09003" lon="-1.2868">
        <ele>29.16</ele>
        <time>2020-06-27T14:06:26Z</time>
      </trkpt>
      <trkpt lat="47.09009" lon="-1.28692">
        <ele>29.13</ele>
        <time>2020-06-27T14:06:28Z</time>
      </trkpt>
      <trkpt lat="47.09017" lon="-1.28705">
        <ele>28.95</ele>
        <time>2020-06-27T14:06:30Z</time>
      </trkpt>
      <trkpt lat="47.09024" lon="-1.28721">
        <ele>29.57</ele>
        <time>2020-06-27T14:06:32Z</time>
      </trkpt>
      <trkpt lat="47.09032" lon="-1.28735">
        <ele>30.25</ele>
        <time>2020-06-27T14:06:34Z</time>
      </trkpt>
      <trkpt lat="47.09039" lon="-1.28748">
        <ele>29.49</ele>
        <time>2020-06-27T14:06:36Z</time>
      </trkpt>
      <trkpt lat="47.09047" lon="-1.28763">
        <ele>29.74</ele>
        <time>2020-06-27T14:06:38Z</time>
      </trkpt>
      <trkpt lat="47.09054" lon="-1.28777">
        <ele>29.38</ele>
        <time>2020-06-27T14:06:40Z</time>
      </trkpt>
      <trkpt lat="47.09058" lon="-1.28789">
        <ele>29.23</ele>
        <time>2020-06-27T14:06:42Z</time>
      </trkpt>
      <trkpt lat="47.09066" lon="-1.28802">
        <ele>28.85</ele>
        <time>2020-06-27T14:06:44Z</time>
      </trkpt>
      <trkpt lat="47.09072" lon="-1.28812">
        <ele>29.99</ele>
        <time>2020-06-27T14:06:46Z</time>
      </trkpt>
      <trkpt lat="47.09081" lon="-1.28827">
        <ele>30.77</ele>
        <time>2020-06-27T14:06:48Z</time>
      </trkpt>
      <trkpt lat="47.09089" lon="-1.28841">
        <ele>31.39</ele>
        <time>2020-06-27T14:06:50Z</time>
      </trkpt>
      <trkpt lat="47.09095" lon="-1.2885">
        <ele>32.16</ele>
        <time>2020-06-27T14:06:52Z</time>
      </trkpt>
      <trkpt lat="47.09104" lon="-1.28862">
        <ele>32.41</ele>
        <time>2020-06-27T14:06:54Z</time>
      </trkpt>
      <trkpt lat="47.09113" lon="-1.2887">
        <ele>32.62</ele>
        <time>2020-06-27T14:06:56Z</time>
      </trkpt>
      <trkpt lat="47.09123" lon="-1.28881">
        <ele>32.27</ele>
        <time>2020-06-27T14:06:58Z</time>
      </trkpt>
      <trkpt lat="47.09132" lon="-1.28891">
        <ele>32.28</ele>
        <time>2020-06-27T14:07:00Z</time>
      </trkpt>
      <trkpt lat="47.09143" lon="-1.28902">
        <ele>32.52</ele>
        <time>2020-06-27T14:07:02Z</time>
      </trkpt>
      <trkpt lat="47.09154" lon="-1.28912">
        <ele>33.27</ele>
        <time>2020-06-27T14:07:04Z</time>
      </trkpt>
      <trkpt lat="47.09162" lon="-1.2892">
        <ele>34.57</ele>
        <time>2020-06-27T14:07:06Z</time>
      </trkpt>
      <trkpt lat="47.09171" lon="-1.2893">
        <ele>36.12</ele>
        <time>2020-06-27T14:07:08Z</time>
      </trkpt>
      <trkpt lat="47.09181" lon="-1.28939">
        <ele>36.14</ele>
        <time>2020-06-27T14:07:10Z</time>
      </trkpt>
      <trkpt lat="47.09192" lon="-1.28947">
        <ele>35.12</ele>
        <time>2020-06-27T14:07:12Z</time>
      </trkpt>
      <trkpt lat="47.09203" lon="-1.28954">
        <ele>35.1</ele>
        <time>2020-06-27T14:07:14Z</time>
      </trkpt>
      <trkpt lat="47.09214" lon="-1.28959">
        <ele>34.78</ele>
        <time>2020-06-27T14:07:16Z</time>
      </trkpt>
      <trkpt lat="47.09225" lon="-1.28966">
        <ele>34.91</ele>
        <time>2020-06-27T14:07:18Z</time>
      </trkpt>
      <trkpt lat="47.09235" lon="-1.28972">
        <ele>34.71</ele>
        <time>2020-06-27T14:07:20Z</time>
      </trkpt>
      <trkpt lat="47.09248" lon="-1.28978">
        <ele>34.67</ele>
        <time>2020-06-27T14:07:21Z</time>
      </trkpt>
      <trkpt lat="47.09261" lon="-1.28982">
        <ele>34.77</ele>
        <time>2020-06-27T14:07:23Z</time>
      </trkpt>
      <trkpt lat="47.09276" lon="-1.28987">
        <ele>35.79</ele>
        <time>2020-06-27T14:07:25Z</time>
      </trkpt>
      <trkpt lat="47.09289" lon="-1.28993">
        <ele>36.03</ele>
        <time>2020-06-27T14:07:27Z</time>
      </trkpt>
      <trkpt lat="47.09301" lon="-1.28998">
        <ele>35.28</ele>
        <time>2020-06-27T14:07:29Z</time>
      </trkpt>
      <trkpt lat="47.09315" lon="-1.29003">
        <ele>34.85</ele>
        <time>2020-06-27T14:07:31Z</time>
      </trkpt>
      <trkpt lat="47.09329" lon="-1.29008">
        <ele>35.37</ele>
        <time>2020-06-27T14:07:33Z</time>
      </trkpt>
      <trkpt lat="47.09342" lon="-1.29014">
        <ele>36.42</ele>
        <time>2020-06-27T14:07:35Z</time>
      </trkpt>
      <trkpt lat="47.09355" lon="-1.29019">
        <ele>38.02</ele>
        <time>2020-06-27T14:07:37Z</time>
      </trkpt>
      <trkpt lat="47.09368" lon="-1.29024">
        <ele>37.98</ele>
        <time>2020-06-27T14:07:39Z</time>
      </trkpt>
      <trkpt lat="47.0938" lon="-1.2903">
        <ele>36.7</ele>
        <time>2020-06-27T14:07:41Z</time>
      </trkpt>
      <trkpt lat="47.09389" lon="-1.29036">
        <ele>35.32</ele>
        <time>2020-06-27T14:07:43Z</time>
      </trkpt>
      <trkpt lat="47.09398" lon="-1.29042">
        <ele>34.65</ele>
        <time>2020-06-27T14:07:45Z</time>
      </trkpt>
      <trkpt lat="47.09411" lon="-1.29051">
        <ele>34.61</ele>
        <time>2020-06-27T14:07:47Z</time>
      </trkpt>
      <trkpt lat="47.09424" lon="-1.29061">
        <ele>34.46</ele>
        <time>2020-06-27T14:07:49Z</time>
      </trkpt>
      <trkpt lat="47.09436" lon="-1.2907">
        <ele>33.67</ele>
        <time>2020-06-27T14:07:51Z</time>
      </trkpt>
      <trkpt lat="47.09446" lon="-1.29082">
        <ele>32.58</ele>
        <time>2020-06-27T14:07:53Z</time>
      </trkpt>
      <trkpt lat="47.09456" lon="-1.29095">
        <ele>32.52</ele>
        <time>2020-06-27T14:07:55Z</time>
      </trkpt>
      <trkpt lat="47.09466" lon="-1.29108">
        <ele>33.2</ele>
        <time>2020-06-27T14:07:57Z</time>
      </trkpt>
      <trkpt lat="47.09475" lon="-1.29123">
        <ele>33.35</ele>
        <time>2020-06-27T14:07:59Z</time>
      </trkpt>
      <trkpt lat="47.09484" lon="-1.29138">
        <ele>33.59</ele>
        <time>2020-06-27T14:08:01Z</time>
      </trkpt>
      <trkpt lat="47.09494" lon="-1.29153">
        <ele>33.77</ele>
        <time>2020-06-27T14:08:03Z</time>
      </trkpt>
      <trkpt lat="47.09502" lon="-1.29166">
        <ele>34.38</ele>
        <time>2020-06-27T14:08:05Z</time>
      </trkpt>
      <trkpt lat="47.09511" lon="-1.29179">
        <ele>34.99</ele>
        <time>2020-06-27T14:08:07Z</time>
      </trkpt>
      <trkpt lat="47.0952" lon="-1.29194">
        <ele>34.83</ele>
        <time>2020-06-27T14:08:09Z</time>
      </trkpt>
      <trkpt lat="47.09531" lon="-1.2921">
        <ele>34.81</ele>
        <time>2020-06-27T14:08:11Z</time>
      </trkpt>
      <trkpt lat="47.09539" lon="-1.29223">
        <ele>34.63</ele>
        <time>2020-06-27T14:08:13Z</time>
      </trkpt>
      <trkpt lat="47.09549" lon="-1.29238">
        <ele>34.23</ele>
        <time>2020-06-27T14:08:15Z</time>
      </trkpt>
      <trkpt lat="47.09558" lon="-1.29251">
        <ele>34.25</ele>
        <time>2020-06-27T14:08:17Z</time>
      </trkpt>
      <trkpt lat="47.09568" lon="-1.29267">
        <ele>34.6</ele>
        <time>2020-06-27T14:08:19Z</time>
      </trkpt>
      <trkpt lat="47.09578" lon="-1.2928">
        <ele>34.26</ele>
        <time>2020-06-27T14:08:21Z</time>
      </trkpt>
      <trkpt lat="47.09588" lon="-1.29293">
        <ele>33.65</ele>
        <time>2020-06-27T14:08:23Z</time>
      </trkpt>
      <trkpt lat="47.09598" lon="-1.29307">
        <ele>33.01</ele>
        <time>2020-06-27T14:08:25Z</time>
      </trkpt>
      <trkpt lat="47.09607" lon="-1.2932">
        <ele>33.12</ele>
        <time>2020-06-27T14:08:27Z</time>
      </trkpt>
      <trkpt lat="47.09616" lon="-1.29334">
        <ele>33.03</ele>
        <time>2020-06-27T14:08:29Z</time>
      </trkpt>
      <trkpt lat="47.09624" lon="-1.29348">
        <ele>33.51</ele>
        <time>2020-06-27T14:08:31Z</time>
      </trkpt>
      <trkpt lat="47.09634" lon="-1.29364">
        <ele>33.77</ele>
        <time>2020-06-27T14:08:33Z</time>
      </trkpt>
      <trkpt lat="47.09644" lon="-1.29378">
        <ele>33.98</ele>
        <time>2020-06-27T14:08:35Z</time>
      </trkpt>
      <trkpt lat="47.09653" lon="-1.2939">
        <ele>33.41</ele>
        <time>2020-06-27T14:08:37Z</time>
      </trkpt>
      <trkpt lat="47.0966" lon="-1.29402">
        <ele>33.72</ele>
        <time>2020-06-27T14:08:39Z</time>
      </trkpt>
      <trkpt lat="47.09671" lon="-1.29417">
        <ele>34.62</ele>
        <time>2020-06-27T14:08:41Z</time>
      </trkpt>
      <trkpt lat="47.09679" lon="-1.2943">
        <ele>35.77</ele>
        <time>2020-06-27T14:08:43Z</time>
      </trkpt>
      <trkpt lat="47.09688" lon="-1.29444">
        <ele>36.91</ele>
        <time>2020-06-27T14:08:45Z</time>
      </trkpt>
      <trkpt lat="47.09696" lon="-1.29457">
        <ele>37.74</ele>
        <time>2020-06-27T14:08:47Z</time>
      </trkpt>
      <trkpt lat="47.09704" lon="-1.29469">
        <ele>37.46</ele>
        <time>2020-06-27T14:08:49Z</time>
      </trkpt>
      <trkpt lat="47.09713" lon="-1.29482">
        <ele>37.16</ele>
        <time>2020-06-27T14:08:51Z</time>
      </trkpt>
      <trkpt lat="47.09721" lon="-1.29497">
        <ele>37.06</ele>
        <time>2020-06-27T14:08:53Z</time>
      </trkpt>
      <trkpt lat="47.09729" lon="-1.29509">
        <ele>36.68</ele>
        <time>2020-06-27T14:08:55Z</time>
      </trkpt>
      <trkpt lat="47.0974" lon="-1.29525">
        <ele>36.67</ele>
        <time>2020-06-27T14:08:57Z</time>
      </trkpt>
      <trkpt lat="47.09749" lon="-1.29539">
        <ele>35.94</ele>
        <time>2020-06-27T14:08:59Z</time>
      </trkpt>
      <trkpt lat="47.09757" lon="-1.29555">
        <ele>35.69</ele>
        <time>2020-06-27T14:09:01Z</time>
      </trkpt>
      <trkpt lat="47.09766" lon="-1.29568">
        <ele>35.27</ele>
        <time>2020-06-27T14:09:03Z</time>
      </trkpt>
      <trkpt lat="47.09774" lon="-1.29581">
        <ele>35.34</ele>
        <time>2020-06-27T14:09:05Z</time>
      </trkpt>
      <trkpt lat="47.09782" lon="-1.29594">
        <ele>36.14</ele>
        <time>2020-06-27T14:09:07Z</time>
      </trkpt>
      <trkpt lat="47.09792" lon="-1.29608">
        <ele>36.6</ele>
        <time>2020-06-27T14:09:09Z</time>
      </trkpt>
      <trkpt lat="47.098" lon="-1.29621">
        <ele>36.36</ele>
        <time>2020-06-27T14:09:11Z</time>
      </trkpt>
      <trkpt lat="47.09809" lon="-1.29636">
        <ele>36.2</ele>
        <time>2020-06-27T14:09:13Z</time>
      </trkpt>
      <trkpt lat="47.09818" lon="-1.2965">
        <ele>35.52</ele>
        <time>2020-06-27T14:09:15Z</time>
      </trkpt>
      <trkpt lat="47.09827" lon="-1.29665">
        <ele>35.13</ele>
        <time>2020-06-27T14:09:17Z</time>
      </trkpt>
      <trkpt lat="47.09836" lon="-1.29679">
        <ele>35.09</ele>
        <time>2020-06-27T14:09:19Z</time>
      </trkpt>
      <trkpt lat="47.09844" lon="-1.29693">
        <ele>34.28</ele>
        <time>2020-06-27T14:09:21Z</time>
      </trkpt>
      <trkpt lat="47.09853" lon="-1.29707">
        <ele>33.8</ele>
        <time>2020-06-27T14:09:23Z</time>
      </trkpt>
      <trkpt lat="47.09862" lon="-1.29721">
        <ele>34.65</ele>
        <time>2020-06-27T14:09:25Z</time>
      </trkpt>
      <trkpt lat="47.0987" lon="-1.29734">
        <ele>35.98</ele>
        <time>2020-06-27T14:09:27Z</time>
      </trkpt>
      <trkpt lat="47.09878" lon="-1.29747">
        <ele>36.27</ele>
        <time>2020-06-27T14:09:29Z</time>
      </trkpt>
      <trkpt lat="47.09886" lon="-1.2976">
        <ele>37</ele>
        <time>2020-06-27T14:09:31Z</time>
      </trkpt>
      <trkpt lat="47.09896" lon="-1.29774">
        <ele>36.95</ele>
        <time>2020-06-27T14:09:33Z</time>
      </trkpt>
      <trkpt lat="47.09904" lon="-1.29787">
        <ele>36.35</ele>
        <time>2020-06-27T14:09:35Z</time>
      </trkpt>
      <trkpt lat="47.09912" lon="-1.29801">
        <ele>36.71</ele>
        <time>2020-06-27T14:09:37Z</time>
      </trkpt>
      <trkpt lat="47.0992" lon="-1.29813">
        <ele>36.46</ele>
        <time>2020-06-27T14:09:39Z</time>
      </trkpt>
      <trkpt lat="47.09929" lon="-1.29827">
        <ele>34.98</ele>
        <time>2020-06-27T14:09:41Z</time>
      </trkpt>
      <trkpt lat="47.09939" lon="-1.29842">
        <ele>33.48</ele>
        <time>2020-06-27T14:09:43Z</time>
      </trkpt>
      <trkpt lat="47.09948" lon="-1.29857">
        <ele>32.43</ele>
        <time>2020-06-27T14:09:45Z</time>
      </trkpt>
      <trkpt lat="47.09956" lon="-1.29872">
        <ele>31.23</ele>
        <time>2020-06-27T14:09:47Z</time>
      </trkpt>
      <trkpt lat="47.09965" lon="-1.29885">
        <ele>30.12</ele>
        <time>2020-06-27T14:09:49Z</time>
      </trkpt>
      <trkpt lat="47.09976" lon="-1.29902">
        <ele>29.63</ele>
        <time>2020-06-27T14:09:51Z</time>
      </trkpt>
      <trkpt lat="47.09986" lon="-1.29918">
        <ele>29.34</ele>
        <time>2020-06-27T14:09:53Z</time>
      </trkpt>
      <trkpt lat="47.09996" lon="-1.29934">
        <ele>28.71</ele>
        <time>2020-06-27T14:09:55Z</time>
      </trkpt>
      <trkpt lat="47.10006" lon="-1.2995">
        <ele>27.81</ele>
        <time>2020-06-27T14:09:57Z</time>
      </trkpt>
      <trkpt lat="47.10015" lon="-1.29967">
        <ele>27.98</ele>
        <time>2020-06-27T14:09:59Z</time>
      </trkpt>
      <trkpt lat="47.10025" lon="-1.29982">
        <ele>27.45</ele>
        <time>2020-06-27T14:10:01Z</time>
      </trkpt>
      <trkpt lat="47.10037" lon="-1.29996">
        <ele>27.03</ele>
        <time>2020-06-27T14:10:03Z</time>
      </trkpt>
      <trkpt lat="47.10051" lon="-1.3001">
        <ele>26.56</ele>
        <time>2020-06-27T14:10:05Z</time>
      </trkpt>
      <trkpt lat="47.10068" lon="-1.30024">
        <ele>26.12</ele>
        <time>2020-06-27T14:10:07Z</time>
      </trkpt>
      <trkpt lat="47.10083" lon="-1.30037">
        <ele>24.94</ele>
        <time>2020-06-27T14:10:09Z</time>
      </trkpt>
      <trkpt lat="47.1009" lon="-1.30045">
        <ele>24.6</ele>
        <time>2020-06-27T14:10:10Z</time>
      </trkpt>
      <trkpt lat="47.10099" lon="-1.30052">
        <ele>23.91</ele>
        <time>2020-06-27T14:10:11Z</time>
      </trkpt>
      <trkpt lat="47.10112" lon="-1.30064">
        <ele>23.64</ele>
        <time>2020-06-27T14:10:13Z</time>
      </trkpt>
      <trkpt lat="47.10123" lon="-1.30074">
        <ele>25.16</ele>
        <time>2020-06-27T14:10:15Z</time>
      </trkpt>
      <trkpt lat="47.10135" lon="-1.30086">
        <ele>26.53</ele>
        <time>2020-06-27T14:10:17Z</time>
      </trkpt>
      <trkpt lat="47.1014" lon="-1.30098">
        <ele>26.02</ele>
        <time>2020-06-27T14:10:19Z</time>
      </trkpt>
      <trkpt lat="47.10144" lon="-1.30113">
        <ele>25.82</ele>
        <time>2020-06-27T14:10:21Z</time>
      </trkpt>
      <trkpt lat="47.1015" lon="-1.30128">
        <ele>26.15</ele>
        <time>2020-06-27T14:10:23Z</time>
      </trkpt>
      <trkpt lat="47.10155" lon="-1.3014">
        <ele>26.37</ele>
        <time>2020-06-27T14:10:25Z</time>
      </trkpt>
      <trkpt lat="47.10161" lon="-1.30151">
        <ele>27.2</ele>
        <time>2020-06-27T14:10:27Z</time>
      </trkpt>
      <trkpt lat="47.10169" lon="-1.30161">
        <ele>28.28</ele>
        <time>2020-06-27T14:10:29Z</time>
      </trkpt>
      <trkpt lat="47.10179" lon="-1.30172">
        <ele>28.36</ele>
        <time>2020-06-27T14:10:31Z</time>
      </trkpt>
      <trkpt lat="47.10192" lon="-1.30183">
        <ele>28.46</ele>
        <time>2020-06-27T14:10:33Z</time>
      </trkpt>
      <trkpt lat="47.10206" lon="-1.30194">
        <ele>29.01</ele>
        <time>2020-06-27T14:10:35Z</time>
      </trkpt>
      <trkpt lat="47.10219" lon="-1.30205">
        <ele>28.95</ele>
        <time>2020-06-27T14:10:37Z</time>
      </trkpt>
      <trkpt lat="47.10229" lon="-1.30215">
        <ele>28.39</ele>
        <time>2020-06-27T14:10:39Z</time>
      </trkpt>
      <trkpt lat="47.10239" lon="-1.30226">
        <ele>28.16</ele>
        <time>2020-06-27T14:10:41Z</time>
      </trkpt>
      <trkpt lat="47.1025" lon="-1.30236">
        <ele>28.18</ele>
        <time>2020-06-27T14:10:43Z</time>
      </trkpt>
      <trkpt lat="47.10263" lon="-1.30249">
        <ele>27.56</ele>
        <time>2020-06-27T14:10:45Z</time>
      </trkpt>
      <trkpt lat="47.10275" lon="-1.30261">
        <ele>26.5</ele>
        <time>2020-06-27T14:10:47Z</time>
      </trkpt>
      <trkpt lat="47.10286" lon="-1.30272">
        <ele>26.22</ele>
        <time>2020-06-27T14:10:49Z</time>
      </trkpt>
      <trkpt lat="47.10299" lon="-1.30283">
        <ele>25.94</ele>
        <time>2020-06-27T14:10:51Z</time>
      </trkpt>
      <trkpt lat="47.10306" lon="-1.30298">
        <ele>25.39</ele>
        <time>2020-06-27T14:10:53Z</time>
      </trkpt>
      <trkpt lat="47.1031" lon="-1.30316">
        <ele>25.53</ele>
        <time>2020-06-27T14:10:55Z</time>
      </trkpt>
      <trkpt lat="47.10312" lon="-1.30337">
        <ele>25.01</ele>
        <time>2020-06-27T14:10:57Z</time>
      </trkpt>
      <trkpt lat="47.10313" lon="-1.30355">
        <ele>24.07</ele>
        <time>2020-06-27T14:10:59Z</time>
      </trkpt>
      <trkpt lat="47.10315" lon="-1.30373">
        <ele>23.48</ele>
        <time>2020-06-27T14:11:01Z</time>
      </trkpt>
      <trkpt lat="47.10316" lon="-1.30388">
        <ele>23.7</ele>
        <time>2020-06-27T14:11:03Z</time>
      </trkpt>
      <trkpt lat="47.10317" lon="-1.30405">
        <ele>23.9</ele>
        <time>2020-06-27T14:11:05Z</time>
      </trkpt>
      <trkpt lat="47.10318" lon="-1.30422">
        <ele>22.79</ele>
        <time>2020-06-27T14:11:07Z</time>
      </trkpt>
      <trkpt lat="47.10323" lon="-1.30439">
        <ele>23.99</ele>
        <time>2020-06-27T14:11:09Z</time>
      </trkpt>
      <trkpt lat="47.10338" lon="-1.30444">
        <ele>24.64</ele>
        <time>2020-06-27T14:11:11Z</time>
      </trkpt>
      <trkpt lat="47.10354" lon="-1.30446">
        <ele>24.33</ele>
        <time>2020-06-27T14:11:13Z</time>
      </trkpt>
      <trkpt lat="47.10371" lon="-1.30448">
        <ele>24.07</ele>
        <time>2020-06-27T14:11:15Z</time>
      </trkpt>
      <trkpt lat="47.10388" lon="-1.3045">
        <ele>23.13</ele>
        <time>2020-06-27T14:11:17Z</time>
      </trkpt>
      <trkpt lat="47.10404" lon="-1.30454">
        <ele>22.13</ele>
        <time>2020-06-27T14:11:19Z</time>
      </trkpt>
      <trkpt lat="47.10421" lon="-1.30457">
        <ele>19.95</ele>
        <time>2020-06-27T14:11:21Z</time>
      </trkpt>
      <trkpt lat="47.1043" lon="-1.30459">
        <ele>19.1</ele>
        <time>2020-06-27T14:11:22Z</time>
      </trkpt>
      <trkpt lat="47.10448" lon="-1.30463">
        <ele>18.21</ele>
        <time>2020-06-27T14:11:24Z</time>
      </trkpt>
      <trkpt lat="47.10458" lon="-1.30465">
        <ele>18.11</ele>
        <time>2020-06-27T14:11:25Z</time>
      </trkpt>
      <trkpt lat="47.10469" lon="-1.30467">
        <ele>17.92</ele>
        <time>2020-06-27T14:11:26Z</time>
      </trkpt>
      <trkpt lat="47.10479" lon="-1.30469">
        <ele>17.48</ele>
        <time>2020-06-27T14:11:27Z</time>
      </trkpt>
      <trkpt lat="47.10497" lon="-1.30472">
        <ele>17.1</ele>
        <time>2020-06-27T14:11:29Z</time>
      </trkpt>
      <trkpt lat="47.10515" lon="-1.30476">
        <ele>16.45</ele>
        <time>2020-06-27T14:11:31Z</time>
      </trkpt>
      <trkpt lat="47.10524" lon="-1.30478">
        <ele>16.09</ele>
        <time>2020-06-27T14:11:32Z</time>
      </trkpt>
      <trkpt lat="47.10533" lon="-1.30481">
        <ele>15.71</ele>
        <time>2020-06-27T14:11:33Z</time>
      </trkpt>
      <trkpt lat="47.10549" lon="-1.30486">
        <ele>14.45</ele>
        <time>2020-06-27T14:11:35Z</time>
      </trkpt>
      <trkpt lat="47.10557" lon="-1.305">
        <ele>12.65</ele>
        <time>2020-06-27T14:11:37Z</time>
      </trkpt>
      <trkpt lat="47.10563" lon="-1.3052">
        <ele>10.92</ele>
        <time>2020-06-27T14:11:39Z</time>
      </trkpt>
      <trkpt lat="47.1057" lon="-1.30543">
        <ele>10.08</ele>
        <time>2020-06-27T14:11:41Z</time>
      </trkpt>
      <trkpt lat="47.10575" lon="-1.30563">
        <ele>10.35</ele>
        <time>2020-06-27T14:11:43Z</time>
      </trkpt>
      <trkpt lat="47.1058" lon="-1.30582">
        <ele>11.17</ele>
        <time>2020-06-27T14:11:45Z</time>
      </trkpt>
      <trkpt lat="47.10584" lon="-1.30601">
        <ele>12.5</ele>
        <time>2020-06-27T14:11:47Z</time>
      </trkpt>
      <trkpt lat="47.10589" lon="-1.30619">
        <ele>13.44</ele>
        <time>2020-06-27T14:11:49Z</time>
      </trkpt>
      <trkpt lat="47.10593" lon="-1.30638">
        <ele>14.61</ele>
        <time>2020-06-27T14:11:51Z</time>
      </trkpt>
      <trkpt lat="47.10597" lon="-1.30654">
        <ele>14.89</ele>
        <time>2020-06-27T14:11:53Z</time>
      </trkpt>
      <trkpt lat="47.10601" lon="-1.30668">
        <ele>14.3</ele>
        <time>2020-06-27T14:11:55Z</time>
      </trkpt>
      <trkpt lat="47.10604" lon="-1.30682">
        <ele>13.5</ele>
        <time>2020-06-27T14:11:57Z</time>
      </trkpt>
      <trkpt lat="47.10609" lon="-1.30702">
        <ele>14.06</ele>
        <time>2020-06-27T14:12:00Z</time>
      </trkpt>
      <trkpt lat="47.10613" lon="-1.30714">
        <ele>13.96</ele>
        <time>2020-06-27T14:12:02Z</time>
      </trkpt>
      <trkpt lat="47.10618" lon="-1.3073">
        <ele>13.95</ele>
        <time>2020-06-27T14:12:05Z</time>
      </trkpt>
      <trkpt lat="47.10623" lon="-1.30743">
        <ele>13.8</ele>
        <time>2020-06-27T14:12:07Z</time>
      </trkpt>
      <trkpt lat="47.10626" lon="-1.30758">
        <ele>13.82</ele>
        <time>2020-06-27T14:12:10Z</time>
      </trkpt>
      <trkpt lat="47.1063" lon="-1.30773">
        <ele>15.65</ele>
        <time>2020-06-27T14:12:13Z</time>
      </trkpt>
      <trkpt lat="47.10634" lon="-1.30789">
        <ele>18.75</ele>
        <time>2020-06-27T14:12:16Z</time>
      </trkpt>
      <trkpt lat="47.10638" lon="-1.30801">
        <ele>19.25</ele>
        <time>2020-06-27T14:12:18Z</time>
      </trkpt>
      <trkpt lat="47.10644" lon="-1.30816">
        <ele>20.48</ele>
        <time>2020-06-27T14:12:21Z</time>
      </trkpt>
      <trkpt lat="47.10651" lon="-1.30833">
        <ele>20.93</ele>
        <time>2020-06-27T14:12:24Z</time>
      </trkpt>
      <trkpt lat="47.10655" lon="-1.30847">
        <ele>20.77</ele>
        <time>2020-06-27T14:12:27Z</time>
      </trkpt>
      <trkpt lat="47.10661" lon="-1.30863">
        <ele>20.27</ele>
        <time>2020-06-27T14:12:30Z</time>
      </trkpt>
      <trkpt lat="47.10666" lon="-1.30879">
        <ele>20.73</ele>
        <time>2020-06-27T14:12:33Z</time>
      </trkpt>
      <trkpt lat="47.1067" lon="-1.30895">
        <ele>22.91</ele>
        <time>2020-06-27T14:12:36Z</time>
      </trkpt>
      <trkpt lat="47.10675" lon="-1.30909">
        <ele>22.97</ele>
        <time>2020-06-27T14:12:39Z</time>
      </trkpt>
      <trkpt lat="47.10679" lon="-1.30921">
        <ele>21.13</ele>
        <time>2020-06-27T14:12:41Z</time>
      </trkpt>
      <trkpt lat="47.10685" lon="-1.30937">
        <ele>18.07</ele>
        <time>2020-06-27T14:12:44Z</time>
      </trkpt>
      <trkpt lat="47.10689" lon="-1.30953">
        <ele>17.89</ele>
        <time>2020-06-27T14:12:47Z</time>
      </trkpt>
      <trkpt lat="47.10694" lon="-1.3097">
        <ele>20.93</ele>
        <time>2020-06-27T14:12:50Z</time>
      </trkpt>
      <trkpt lat="47.10697" lon="-1.30982">
        <ele>23.8</ele>
        <time>2020-06-27T14:12:52Z</time>
      </trkpt>
      <trkpt lat="47.10703" lon="-1.30999">
        <ele>25.95</ele>
        <time>2020-06-27T14:12:55Z</time>
      </trkpt>
      <trkpt lat="47.10707" lon="-1.31012">
        <ele>26.95</ele>
        <time>2020-06-27T14:12:57Z</time>
      </trkpt>
      <trkpt lat="47.10713" lon="-1.31029">
        <ele>26.81</ele>
        <time>2020-06-27T14:13:00Z</time>
      </trkpt>
      <trkpt lat="47.10718" lon="-1.31043">
        <ele>25.79</ele>
        <time>2020-06-27T14:13:02Z</time>
      </trkpt>
      <trkpt lat="47.10722" lon="-1.31057">
        <ele>25.64</ele>
        <time>2020-06-27T14:13:04Z</time>
      </trkpt>
      <trkpt lat="47.10727" lon="-1.31069">
        <ele>25.4</ele>
        <time>2020-06-27T14:13:06Z</time>
      </trkpt>
      <trkpt lat="47.10731" lon="-1.31082">
        <ele>25.52</ele>
        <time>2020-06-27T14:13:08Z</time>
      </trkpt>
      <trkpt lat="47.10735" lon="-1.31094">
        <ele>25.74</ele>
        <time>2020-06-27T14:13:10Z</time>
      </trkpt>
      <trkpt lat="47.10742" lon="-1.31113">
        <ele>24.22</ele>
        <time>2020-06-27T14:13:13Z</time>
      </trkpt>
      <trkpt lat="47.10748" lon="-1.31129">
        <ele>23.81</ele>
        <time>2020-06-27T14:13:15Z</time>
      </trkpt>
      <trkpt lat="47.10754" lon="-1.31148">
        <ele>23.88</ele>
        <time>2020-06-27T14:13:18Z</time>
      </trkpt>
      <trkpt lat="47.10759" lon="-1.31164">
        <ele>23.7</ele>
        <time>2020-06-27T14:13:20Z</time>
      </trkpt>
      <trkpt lat="47.10763" lon="-1.31177">
        <ele>23.87</ele>
        <time>2020-06-27T14:13:22Z</time>
      </trkpt>
      <trkpt lat="47.10767" lon="-1.31189">
        <ele>24.06</ele>
        <time>2020-06-27T14:13:24Z</time>
      </trkpt>
      <trkpt lat="47.10772" lon="-1.31206">
        <ele>25.11</ele>
        <time>2020-06-27T14:13:27Z</time>
      </trkpt>
      <trkpt lat="47.10777" lon="-1.31219">
        <ele>25.89</ele>
        <time>2020-06-27T14:13:29Z</time>
      </trkpt>
      <trkpt lat="47.10781" lon="-1.31233">
        <ele>26.61</ele>
        <time>2020-06-27T14:13:31Z</time>
      </trkpt>
      <trkpt lat="47.10785" lon="-1.31247">
        <ele>27.49</ele>
        <time>2020-06-27T14:13:33Z</time>
      </trkpt>
      <trkpt lat="47.10791" lon="-1.3126">
        <ele>28.55</ele>
        <time>2020-06-27T14:13:35Z</time>
      </trkpt>
      <trkpt lat="47.10796" lon="-1.31275">
        <ele>29.19</ele>
        <time>2020-06-27T14:13:37Z</time>
      </trkpt>
      <trkpt lat="47.10803" lon="-1.31291">
        <ele>29.06</ele>
        <time>2020-06-27T14:13:40Z</time>
      </trkpt>
      <trkpt lat="47.10809" lon="-1.31302">
        <ele>29.29</ele>
        <time>2020-06-27T14:13:42Z</time>
      </trkpt>
      <trkpt lat="47.10817" lon="-1.31313">
        <ele>28.53</ele>
        <time>2020-06-27T14:13:44Z</time>
      </trkpt>
      <trkpt lat="47.10825" lon="-1.31324">
        <ele>27.24</ele>
        <time>2020-06-27T14:13:46Z</time>
      </trkpt>
      <trkpt lat="47.10833" lon="-1.31336">
        <ele>26.41</ele>
        <time>2020-06-27T14:13:48Z</time>
      </trkpt>
      <trkpt lat="47.10841" lon="-1.31348">
        <ele>27.68</ele>
        <time>2020-06-27T14:13:50Z</time>
      </trkpt>
      <trkpt lat="47.10849" lon="-1.3136">
        <ele>28.56</ele>
        <time>2020-06-27T14:13:52Z</time>
      </trkpt>
      <trkpt lat="47.10857" lon="-1.31372">
        <ele>27.98</ele>
        <time>2020-06-27T14:13:54Z</time>
      </trkpt>
      <trkpt lat="47.10864" lon="-1.31381">
        <ele>28.21</ele>
        <time>2020-06-27T14:13:56Z</time>
      </trkpt>
      <trkpt lat="47.10873" lon="-1.31395">
        <ele>28.66</ele>
        <time>2020-06-27T14:13:58Z</time>
      </trkpt>
      <trkpt lat="47.10882" lon="-1.31408">
        <ele>29.57</ele>
        <time>2020-06-27T14:14:00Z</time>
      </trkpt>
      <trkpt lat="47.10889" lon="-1.31418">
        <ele>30.1</ele>
        <time>2020-06-27T14:14:02Z</time>
      </trkpt>
      <trkpt lat="47.10899" lon="-1.3143">
        <ele>30.52</ele>
        <time>2020-06-27T14:14:04Z</time>
      </trkpt>
      <trkpt lat="47.10909" lon="-1.31444">
        <ele>29.71</ele>
        <time>2020-06-27T14:14:06Z</time>
      </trkpt>
      <trkpt lat="47.10919" lon="-1.31456">
        <ele>28.96</ele>
        <time>2020-06-27T14:14:08Z</time>
      </trkpt>
      <trkpt lat="47.10929" lon="-1.3147">
        <ele>28.32</ele>
        <time>2020-06-27T14:14:10Z</time>
      </trkpt>
      <trkpt lat="47.10937" lon="-1.31481">
        <ele>28.58</ele>
        <time>2020-06-27T14:14:12Z</time>
      </trkpt>
      <trkpt lat="47.10947" lon="-1.31494">
        <ele>28.2</ele>
        <time>2020-06-27T14:14:14Z</time>
      </trkpt>
      <trkpt lat="47.10957" lon="-1.31508">
        <ele>27.79</ele>
        <time>2020-06-27T14:14:16Z</time>
      </trkpt>
      <trkpt lat="47.10967" lon="-1.31523">
        <ele>28.38</ele>
        <time>2020-06-27T14:14:18Z</time>
      </trkpt>
      <trkpt lat="47.10977" lon="-1.31537">
        <ele>28.38</ele>
        <time>2020-06-27T14:14:20Z</time>
      </trkpt>
      <trkpt lat="47.10987" lon="-1.3155">
        <ele>28.57</ele>
        <time>2020-06-27T14:14:22Z</time>
      </trkpt>
      <trkpt lat="47.10994" lon="-1.3156">
        <ele>28.23</ele>
        <time>2020-06-27T14:14:23Z</time>
      </trkpt>
      <trkpt lat="47.11003" lon="-1.31573">
        <ele>27.37</ele>
        <time>2020-06-27T14:14:25Z</time>
      </trkpt>
      <trkpt lat="47.11015" lon="-1.31588">
        <ele>27.23</ele>
        <time>2020-06-27T14:14:27Z</time>
      </trkpt>
      <trkpt lat="47.11026" lon="-1.31604">
        <ele>26.25</ele>
        <time>2020-06-27T14:14:29Z</time>
      </trkpt>
      <trkpt lat="47.11038" lon="-1.3162">
        <ele>25.91</ele>
        <time>2020-06-27T14:14:31Z</time>
      </trkpt>
      <trkpt lat="47.1105" lon="-1.31636">
        <ele>24.98</ele>
        <time>2020-06-27T14:14:33Z</time>
      </trkpt>
      <trkpt lat="47.11062" lon="-1.31653">
        <ele>24.89</ele>
        <time>2020-06-27T14:14:35Z</time>
      </trkpt>
      <trkpt lat="47.11074" lon="-1.31671">
        <ele>25.35</ele>
        <time>2020-06-27T14:14:37Z</time>
      </trkpt>
      <trkpt lat="47.11086" lon="-1.31688">
        <ele>25</ele>
        <time>2020-06-27T14:14:39Z</time>
      </trkpt>
      <trkpt lat="47.11092" lon="-1.31698">
        <ele>24.78</ele>
        <time>2020-06-27T14:14:40Z</time>
      </trkpt>
      <trkpt lat="47.11105" lon="-1.31712">
        <ele>23.39</ele>
        <time>2020-06-27T14:14:42Z</time>
      </trkpt>
      <trkpt lat="47.11115" lon="-1.31727">
        <ele>22.16</ele>
        <time>2020-06-27T14:14:44Z</time>
      </trkpt>
      <trkpt lat="47.11127" lon="-1.31744">
        <ele>21.1</ele>
        <time>2020-06-27T14:14:46Z</time>
      </trkpt>
      <trkpt lat="47.11138" lon="-1.3176">
        <ele>22.22</ele>
        <time>2020-06-27T14:14:48Z</time>
      </trkpt>
      <trkpt lat="47.11149" lon="-1.31776">
        <ele>23.13</ele>
        <time>2020-06-27T14:14:50Z</time>
      </trkpt>
      <trkpt lat="47.1116" lon="-1.31792">
        <ele>23.66</ele>
        <time>2020-06-27T14:14:52Z</time>
      </trkpt>
      <trkpt lat="47.11172" lon="-1.31808">
        <ele>23.09</ele>
        <time>2020-06-27T14:14:54Z</time>
      </trkpt>
      <trkpt lat="47.11184" lon="-1.31822">
        <ele>22.43</ele>
        <time>2020-06-27T14:14:56Z</time>
      </trkpt>
      <trkpt lat="47.11195" lon="-1.31836">
        <ele>21.98</ele>
        <time>2020-06-27T14:14:58Z</time>
      </trkpt>
      <trkpt lat="47.11208" lon="-1.3185">
        <ele>21.14</ele>
        <time>2020-06-27T14:15:00Z</time>
      </trkpt>
      <trkpt lat="47.11221" lon="-1.31864">
        <ele>20.87</ele>
        <time>2020-06-27T14:15:02Z</time>
      </trkpt>
      <trkpt lat="47.11232" lon="-1.31877">
        <ele>20.48</ele>
        <time>2020-06-27T14:15:04Z</time>
      </trkpt>
      <trkpt lat="47.11245" lon="-1.3189">
        <ele>20.21</ele>
        <time>2020-06-27T14:15:06Z</time>
      </trkpt>
      <trkpt lat="47.11256" lon="-1.31902">
        <ele>20.05</ele>
        <time>2020-06-27T14:15:08Z</time>
      </trkpt>
      <trkpt lat="47.11267" lon="-1.31914">
        <ele>20.13</ele>
        <time>2020-06-27T14:15:10Z</time>
      </trkpt>
      <trkpt lat="47.11278" lon="-1.31927">
        <ele>19.99</ele>
        <time>2020-06-27T14:15:12Z</time>
      </trkpt>
      <trkpt lat="47.11288" lon="-1.31938">
        <ele>20.12</ele>
        <time>2020-06-27T14:15:14Z</time>
      </trkpt>
      <trkpt lat="47.11299" lon="-1.3195">
        <ele>20.1</ele>
        <time>2020-06-27T14:15:16Z</time>
      </trkpt>
      <trkpt lat="47.11309" lon="-1.31963">
        <ele>20.65</ele>
        <time>2020-06-27T14:15:18Z</time>
      </trkpt>
      <trkpt lat="47.11319" lon="-1.31977">
        <ele>20.74</ele>
        <time>2020-06-27T14:15:20Z</time>
      </trkpt>
      <trkpt lat="47.11326" lon="-1.31986">
        <ele>20.97</ele>
        <time>2020-06-27T14:15:21Z</time>
      </trkpt>
      <trkpt lat="47.11335" lon="-1.31997">
        <ele>22.15</ele>
        <time>2020-06-27T14:15:23Z</time>
      </trkpt>
      <trkpt lat="47.11344" lon="-1.3201">
        <ele>22.61</ele>
        <time>2020-06-27T14:15:25Z</time>
      </trkpt>
      <trkpt lat="47.11355" lon="-1.32025">
        <ele>22.2</ele>
        <time>2020-06-27T14:15:27Z</time>
      </trkpt>
      <trkpt lat="47.11365" lon="-1.32039">
        <ele>21.91</ele>
        <time>2020-06-27T14:15:29Z</time>
      </trkpt>
      <trkpt lat="47.11375" lon="-1.32052">
        <ele>21.59</ele>
        <time>2020-06-27T14:15:31Z</time>
      </trkpt>
      <trkpt lat="47.11384" lon="-1.32066">
        <ele>21.87</ele>
        <time>2020-06-27T14:15:33Z</time>
      </trkpt>
      <trkpt lat="47.11395" lon="-1.32082">
        <ele>22.18</ele>
        <time>2020-06-27T14:15:35Z</time>
      </trkpt>
      <trkpt lat="47.11405" lon="-1.32095">
        <ele>21.77</ele>
        <time>2020-06-27T14:15:37Z</time>
      </trkpt>
      <trkpt lat="47.11416" lon="-1.3211">
        <ele>21.34</ele>
        <time>2020-06-27T14:15:39Z</time>
      </trkpt>
      <trkpt lat="47.11424" lon="-1.32121">
        <ele>22.01</ele>
        <time>2020-06-27T14:15:41Z</time>
      </trkpt>
      <trkpt lat="47.11434" lon="-1.32134">
        <ele>22.06</ele>
        <time>2020-06-27T14:15:43Z</time>
      </trkpt>
      <trkpt lat="47.11443" lon="-1.32149">
        <ele>21.74</ele>
        <time>2020-06-27T14:15:45Z</time>
      </trkpt>
      <trkpt lat="47.11453" lon="-1.32161">
        <ele>21.9</ele>
        <time>2020-06-27T14:15:47Z</time>
      </trkpt>
      <trkpt lat="47.11462" lon="-1.32173">
        <ele>21.69</ele>
        <time>2020-06-27T14:15:49Z</time>
      </trkpt>
      <trkpt lat="47.11473" lon="-1.32186">
        <ele>20.94</ele>
        <time>2020-06-27T14:15:51Z</time>
      </trkpt>
      <trkpt lat="47.11482" lon="-1.32196">
        <ele>20.98</ele>
        <time>2020-06-27T14:15:53Z</time>
      </trkpt>
      <trkpt lat="47.11492" lon="-1.32206">
        <ele>21.5</ele>
        <time>2020-06-27T14:15:55Z</time>
      </trkpt>
      <trkpt lat="47.11501" lon="-1.32217">
        <ele>21.14</ele>
        <time>2020-06-27T14:15:57Z</time>
      </trkpt>
      <trkpt lat="47.11511" lon="-1.32228">
        <ele>20.69</ele>
        <time>2020-06-27T14:15:59Z</time>
      </trkpt>
      <trkpt lat="47.1152" lon="-1.32239">
        <ele>20.94</ele>
        <time>2020-06-27T14:16:01Z</time>
      </trkpt>
      <trkpt lat="47.1153" lon="-1.32249">
        <ele>21.61</ele>
        <time>2020-06-27T14:16:04Z</time>
      </trkpt>
      <trkpt lat="47.1154" lon="-1.3226">
        <ele>22.88</ele>
        <time>2020-06-27T14:16:05Z</time>
      </trkpt>
      <trkpt lat="47.11549" lon="-1.32271">
        <ele>23.78</ele>
        <time>2020-06-27T14:16:08Z</time>
      </trkpt>
      <trkpt lat="47.11559" lon="-1.32283">
        <ele>23.88</ele>
        <time>2020-06-27T14:16:10Z</time>
      </trkpt>
      <trkpt lat="47.11569" lon="-1.32297">
        <ele>24.39</ele>
        <time>2020-06-27T14:16:12Z</time>
      </trkpt>
      <trkpt lat="47.11576" lon="-1.32313">
        <ele>24.69</ele>
        <time>2020-06-27T14:16:14Z</time>
      </trkpt>
      <trkpt lat="47.11574" lon="-1.32329">
        <ele>25.11</ele>
        <time>2020-06-27T14:16:16Z</time>
      </trkpt>
      <trkpt lat="47.11568" lon="-1.32342">
        <ele>24.74</ele>
        <time>2020-06-27T14:16:18Z</time>
      </trkpt>
      <trkpt lat="47.11561" lon="-1.32358">
        <ele>25.38</ele>
        <time>2020-06-27T14:16:20Z</time>
      </trkpt>
      <trkpt lat="47.11555" lon="-1.32371">
        <ele>23.89</ele>
        <time>2020-06-27T14:16:22Z</time>
      </trkpt>
      <trkpt lat="47.11552" lon="-1.32387">
        <ele>22.76</ele>
        <time>2020-06-27T14:16:25Z</time>
      </trkpt>
      <trkpt lat="47.11562" lon="-1.32401">
        <ele>23.7</ele>
        <time>2020-06-27T14:16:27Z</time>
      </trkpt>
      <trkpt lat="47.11571" lon="-1.32411">
        <ele>25.23</ele>
        <time>2020-06-27T14:16:29Z</time>
      </trkpt>
      <trkpt lat="47.11581" lon="-1.32418">
        <ele>26.09</ele>
        <time>2020-06-27T14:16:31Z</time>
      </trkpt>
      <trkpt lat="47.11592" lon="-1.32428">
        <ele>27.84</ele>
        <time>2020-06-27T14:16:33Z</time>
      </trkpt>
      <trkpt lat="47.11602" lon="-1.32437">
        <ele>29.16</ele>
        <time>2020-06-27T14:16:35Z</time>
      </trkpt>
      <trkpt lat="47.11614" lon="-1.32447">
        <ele>29.72</ele>
        <time>2020-06-27T14:16:37Z</time>
      </trkpt>
      <trkpt lat="47.11623" lon="-1.32454">
        <ele>29.57</ele>
        <time>2020-06-27T14:16:39Z</time>
      </trkpt>
      <trkpt lat="47.11633" lon="-1.32461">
        <ele>29.27</ele>
        <time>2020-06-27T14:16:41Z</time>
      </trkpt>
      <trkpt lat="47.11642" lon="-1.3247">
        <ele>29.78</ele>
        <time>2020-06-27T14:16:43Z</time>
      </trkpt>
      <trkpt lat="47.11653" lon="-1.32482">
        <ele>30.28</ele>
        <time>2020-06-27T14:16:45Z</time>
      </trkpt>
      <trkpt lat="47.11661" lon="-1.32492">
        <ele>29.49</ele>
        <time>2020-06-27T14:16:47Z</time>
      </trkpt>
      <trkpt lat="47.11668" lon="-1.32505">
        <ele>28.98</ele>
        <time>2020-06-27T14:16:49Z</time>
      </trkpt>
      <trkpt lat="47.11676" lon="-1.32523">
        <ele>28.5</ele>
        <time>2020-06-27T14:16:51Z</time>
      </trkpt>
      <trkpt lat="47.11681" lon="-1.32538">
        <ele>28.75</ele>
        <time>2020-06-27T14:16:53Z</time>
      </trkpt>
      <trkpt lat="47.11685" lon="-1.3255">
        <ele>29.67</ele>
        <time>2020-06-27T14:16:55Z</time>
      </trkpt>
      <trkpt lat="47.11691" lon="-1.32566">
        <ele>29.7</ele>
        <time>2020-06-27T14:16:57Z</time>
      </trkpt>
      <trkpt lat="47.11696" lon="-1.32579">
        <ele>29.64</ele>
        <time>2020-06-27T14:16:59Z</time>
      </trkpt>
      <trkpt lat="47.11701" lon="-1.32592">
        <ele>29.33</ele>
        <time>2020-06-27T14:17:01Z</time>
      </trkpt>
      <trkpt lat="47.11706" lon="-1.32606">
        <ele>29.56</ele>
        <time>2020-06-27T14:17:03Z</time>
      </trkpt>
      <trkpt lat="47.11712" lon="-1.32624">
        <ele>29.03</ele>
        <time>2020-06-27T14:17:05Z</time>
      </trkpt>
      <trkpt lat="47.11717" lon="-1.3264">
        <ele>27.6</ele>
        <time>2020-06-27T14:17:07Z</time>
      </trkpt>
      <trkpt lat="47.11723" lon="-1.32658">
        <ele>27.4</ele>
        <time>2020-06-27T14:17:09Z</time>
      </trkpt>
      <trkpt lat="47.11728" lon="-1.32678">
        <ele>28.14</ele>
        <time>2020-06-27T14:17:11Z</time>
      </trkpt>
      <trkpt lat="47.11733" lon="-1.32697">
        <ele>29.33</ele>
        <time>2020-06-27T14:17:13Z</time>
      </trkpt>
      <trkpt lat="47.11738" lon="-1.32718">
        <ele>29.56</ele>
        <time>2020-06-27T14:17:15Z</time>
      </trkpt>
      <trkpt lat="47.11743" lon="-1.32738">
        <ele>29.53</ele>
        <time>2020-06-27T14:17:17Z</time>
      </trkpt>
      <trkpt lat="47.11747" lon="-1.32756">
        <ele>28.94</ele>
        <time>2020-06-27T14:17:19Z</time>
      </trkpt>
      <trkpt lat="47.11753" lon="-1.32775">
        <ele>28.14</ele>
        <time>2020-06-27T14:17:21Z</time>
      </trkpt>
      <trkpt lat="47.11757" lon="-1.32792">
        <ele>29.01</ele>
        <time>2020-06-27T14:17:23Z</time>
      </trkpt>
      <trkpt lat="47.11762" lon="-1.32808">
        <ele>29.24</ele>
        <time>2020-06-27T14:17:25Z</time>
      </trkpt>
      <trkpt lat="47.11766" lon="-1.32821">
        <ele>28.09</ele>
        <time>2020-06-27T14:17:27Z</time>
      </trkpt>
      <trkpt lat="47.11771" lon="-1.32837">
        <ele>26.29</ele>
        <time>2020-06-27T14:17:29Z</time>
      </trkpt>
      <trkpt lat="47.11777" lon="-1.32855">
        <ele>26.47</ele>
        <time>2020-06-27T14:17:31Z</time>
      </trkpt>
      <trkpt lat="47.11781" lon="-1.32867">
        <ele>26.08</ele>
        <time>2020-06-27T14:17:33Z</time>
      </trkpt>
      <trkpt lat="47.11785" lon="-1.32881">
        <ele>25.87</ele>
        <time>2020-06-27T14:17:35Z</time>
      </trkpt>
      <trkpt lat="47.11789" lon="-1.32896">
        <ele>25.98</ele>
        <time>2020-06-27T14:17:37Z</time>
      </trkpt>
      <trkpt lat="47.11792" lon="-1.32912">
        <ele>26.33</ele>
        <time>2020-06-27T14:17:39Z</time>
      </trkpt>
      <trkpt lat="47.11797" lon="-1.32932">
        <ele>28.12</ele>
        <time>2020-06-27T14:17:42Z</time>
      </trkpt>
      <trkpt lat="47.11801" lon="-1.32947">
        <ele>29.01</ele>
        <time>2020-06-27T14:17:44Z</time>
      </trkpt>
      <trkpt lat="47.11805" lon="-1.32962">
        <ele>30.64</ele>
        <time>2020-06-27T14:17:46Z</time>
      </trkpt>
      <trkpt lat="47.11809" lon="-1.32976">
        <ele>31.62</ele>
        <time>2020-06-27T14:17:48Z</time>
      </trkpt>
      <trkpt lat="47.11813" lon="-1.32987">
        <ele>31.73</ele>
        <time>2020-06-27T14:17:50Z</time>
      </trkpt>
      <trkpt lat="47.11817" lon="-1.33004">
        <ele>32.22</ele>
        <time>2020-06-27T14:17:52Z</time>
      </trkpt>
      <trkpt lat="47.11822" lon="-1.33017">
        <ele>32.01</ele>
        <time>2020-06-27T14:17:54Z</time>
      </trkpt>
      <trkpt lat="47.11825" lon="-1.3303">
        <ele>32.33</ele>
        <time>2020-06-27T14:17:56Z</time>
      </trkpt>
      <trkpt lat="47.1183" lon="-1.33052">
        <ele>33.5</ele>
        <time>2020-06-27T14:17:59Z</time>
      </trkpt>
      <trkpt lat="47.11835" lon="-1.33067">
        <ele>33.42</ele>
        <time>2020-06-27T14:18:01Z</time>
      </trkpt>
      <trkpt lat="47.11841" lon="-1.33087">
        <ele>34.54</ele>
        <time>2020-06-27T14:18:04Z</time>
      </trkpt>
      <trkpt lat="47.11844" lon="-1.331">
        <ele>34.91</ele>
        <time>2020-06-27T14:18:06Z</time>
      </trkpt>
      <trkpt lat="47.11849" lon="-1.3312">
        <ele>34.61</ele>
        <time>2020-06-27T14:18:09Z</time>
      </trkpt>
      <trkpt lat="47.11853" lon="-1.33135">
        <ele>35.86</ele>
        <time>2020-06-27T14:18:11Z</time>
      </trkpt>
      <trkpt lat="47.11858" lon="-1.3315">
        <ele>36.07</ele>
        <time>2020-06-27T14:18:13Z</time>
      </trkpt>
      <trkpt lat="47.11862" lon="-1.33164">
        <ele>36.19</ele>
        <time>2020-06-27T14:18:15Z</time>
      </trkpt>
      <trkpt lat="47.11866" lon="-1.33178">
        <ele>34.78</ele>
        <time>2020-06-27T14:18:17Z</time>
      </trkpt>
      <trkpt lat="47.11869" lon="-1.33193">
        <ele>34.15</ele>
        <time>2020-06-27T14:18:19Z</time>
      </trkpt>
      <trkpt lat="47.11874" lon="-1.3321">
        <ele>33.68</ele>
        <time>2020-06-27T14:18:21Z</time>
      </trkpt>
      <trkpt lat="47.11878" lon="-1.33225">
        <ele>32.26</ele>
        <time>2020-06-27T14:18:23Z</time>
      </trkpt>
      <trkpt lat="47.11881" lon="-1.3324">
        <ele>31.06</ele>
        <time>2020-06-27T14:18:25Z</time>
      </trkpt>
      <trkpt lat="47.11885" lon="-1.33253">
        <ele>29.95</ele>
        <time>2020-06-27T14:18:27Z</time>
      </trkpt>
      <trkpt lat="47.1189" lon="-1.33269">
        <ele>28.51</ele>
        <time>2020-06-27T14:18:29Z</time>
      </trkpt>
      <trkpt lat="47.11894" lon="-1.33284">
        <ele>28.58</ele>
        <time>2020-06-27T14:18:31Z</time>
      </trkpt>
      <trkpt lat="47.11899" lon="-1.333">
        <ele>29.51</ele>
        <time>2020-06-27T14:18:33Z</time>
      </trkpt>
      <trkpt lat="47.11906" lon="-1.33317">
        <ele>30.39</ele>
        <time>2020-06-27T14:18:35Z</time>
      </trkpt>
      <trkpt lat="47.11911" lon="-1.3333">
        <ele>30.53</ele>
        <time>2020-06-27T14:18:37Z</time>
      </trkpt>
      <trkpt lat="47.11917" lon="-1.33345">
        <ele>29.4</ele>
        <time>2020-06-27T14:18:39Z</time>
      </trkpt>
      <trkpt lat="47.11923" lon="-1.33357">
        <ele>28.74</ele>
        <time>2020-06-27T14:18:41Z</time>
      </trkpt>
      <trkpt lat="47.11928" lon="-1.3337">
        <ele>29.08</ele>
        <time>2020-06-27T14:18:43Z</time>
      </trkpt>
      <trkpt lat="47.11934" lon="-1.33386">
        <ele>28.77</ele>
        <time>2020-06-27T14:18:45Z</time>
      </trkpt>
      <trkpt lat="47.11939" lon="-1.334">
        <ele>28.64</ele>
        <time>2020-06-27T14:18:47Z</time>
      </trkpt>
      <trkpt lat="47.11946" lon="-1.33414">
        <ele>28.09</ele>
        <time>2020-06-27T14:18:49Z</time>
      </trkpt>
      <trkpt lat="47.11951" lon="-1.33429">
        <ele>27.76</ele>
        <time>2020-06-27T14:18:51Z</time>
      </trkpt>
      <trkpt lat="47.11956" lon="-1.33442">
        <ele>28.71</ele>
        <time>2020-06-27T14:18:53Z</time>
      </trkpt>
      <trkpt lat="47.11962" lon="-1.33456">
        <ele>29.12</ele>
        <time>2020-06-27T14:18:55Z</time>
      </trkpt>
      <trkpt lat="47.11966" lon="-1.33467">
        <ele>29.76</ele>
        <time>2020-06-27T14:18:57Z</time>
      </trkpt>
      <trkpt lat="47.11972" lon="-1.33482">
        <ele>30.31</ele>
        <time>2020-06-27T14:18:59Z</time>
      </trkpt>
      <trkpt lat="47.11977" lon="-1.33495">
        <ele>30.13</ele>
        <time>2020-06-27T14:19:01Z</time>
      </trkpt>
      <trkpt lat="47.11983" lon="-1.33507">
        <ele>30.67</ele>
        <time>2020-06-27T14:19:03Z</time>
      </trkpt>
      <trkpt lat="47.11988" lon="-1.33521">
        <ele>30.73</ele>
        <time>2020-06-27T14:19:05Z</time>
      </trkpt>
      <trkpt lat="47.11994" lon="-1.33534">
        <ele>30.23</ele>
        <time>2020-06-27T14:19:07Z</time>
      </trkpt>
      <trkpt lat="47.11999" lon="-1.33547">
        <ele>29.6</ele>
        <time>2020-06-27T14:19:09Z</time>
      </trkpt>
      <trkpt lat="47.12004" lon="-1.33563">
        <ele>29.8</ele>
        <time>2020-06-27T14:19:11Z</time>
      </trkpt>
      <trkpt lat="47.12009" lon="-1.33577">
        <ele>30.95</ele>
        <time>2020-06-27T14:19:13Z</time>
      </trkpt>
      <trkpt lat="47.12015" lon="-1.33591">
        <ele>31.46</ele>
        <time>2020-06-27T14:19:15Z</time>
      </trkpt>
      <trkpt lat="47.1202" lon="-1.33605">
        <ele>30.85</ele>
        <time>2020-06-27T14:19:17Z</time>
      </trkpt>
      <trkpt lat="47.12025" lon="-1.3362">
        <ele>31.13</ele>
        <time>2020-06-27T14:19:19Z</time>
      </trkpt>
      <trkpt lat="47.12031" lon="-1.33633">
        <ele>31.96</ele>
        <time>2020-06-27T14:19:21Z</time>
      </trkpt>
      <trkpt lat="47.12037" lon="-1.3365">
        <ele>32.69</ele>
        <time>2020-06-27T14:19:23Z</time>
      </trkpt>
      <trkpt lat="47.12041" lon="-1.33662">
        <ele>32.73</ele>
        <time>2020-06-27T14:19:25Z</time>
      </trkpt>
      <trkpt lat="47.12046" lon="-1.33675">
        <ele>32.44</ele>
        <time>2020-06-27T14:19:27Z</time>
      </trkpt>
      <trkpt lat="47.12051" lon="-1.33688">
        <ele>33.09</ele>
        <time>2020-06-27T14:19:29Z</time>
      </trkpt>
      <trkpt lat="47.12057" lon="-1.33703">
        <ele>32.68</ele>
        <time>2020-06-27T14:19:31Z</time>
      </trkpt>
      <trkpt lat="47.12063" lon="-1.33718">
        <ele>31.99</ele>
        <time>2020-06-27T14:19:33Z</time>
      </trkpt>
      <trkpt lat="47.1207" lon="-1.33738">
        <ele>31.96</ele>
        <time>2020-06-27T14:19:36Z</time>
      </trkpt>
      <trkpt lat="47.12077" lon="-1.33752">
        <ele>31.63</ele>
        <time>2020-06-27T14:19:38Z</time>
      </trkpt>
      <trkpt lat="47.12082" lon="-1.33766">
        <ele>32.04</ele>
        <time>2020-06-27T14:19:40Z</time>
      </trkpt>
      <trkpt lat="47.12087" lon="-1.33779">
        <ele>31.41</ele>
        <time>2020-06-27T14:19:42Z</time>
      </trkpt>
      <trkpt lat="47.12093" lon="-1.33793">
        <ele>31.56</ele>
        <time>2020-06-27T14:19:44Z</time>
      </trkpt>
      <trkpt lat="47.12098" lon="-1.33807">
        <ele>32.82</ele>
        <time>2020-06-27T14:19:46Z</time>
      </trkpt>
      <trkpt lat="47.12102" lon="-1.3382">
        <ele>33.38</ele>
        <time>2020-06-27T14:19:48Z</time>
      </trkpt>
      <trkpt lat="47.12108" lon="-1.33836">
        <ele>33.28</ele>
        <time>2020-06-27T14:19:50Z</time>
      </trkpt>
      <trkpt lat="47.12113" lon="-1.33849">
        <ele>32.98</ele>
        <time>2020-06-27T14:19:52Z</time>
      </trkpt>
      <trkpt lat="47.1212" lon="-1.33866">
        <ele>33.39</ele>
        <time>2020-06-27T14:19:55Z</time>
      </trkpt>
      <trkpt lat="47.12126" lon="-1.3388">
        <ele>33.01</ele>
        <time>2020-06-27T14:19:57Z</time>
      </trkpt>
      <trkpt lat="47.12131" lon="-1.33894">
        <ele>32.71</ele>
        <time>2020-06-27T14:19:59Z</time>
      </trkpt>
      <trkpt lat="47.12136" lon="-1.33907">
        <ele>32.83</ele>
        <time>2020-06-27T14:20:01Z</time>
      </trkpt>
      <trkpt lat="47.12142" lon="-1.33924">
        <ele>33.53</ele>
        <time>2020-06-27T14:20:03Z</time>
      </trkpt>
      <trkpt lat="47.12147" lon="-1.33937">
        <ele>34.83</ele>
        <time>2020-06-27T14:20:05Z</time>
      </trkpt>
      <trkpt lat="47.12154" lon="-1.33956">
        <ele>34.42</ele>
        <time>2020-06-27T14:20:07Z</time>
      </trkpt>
      <trkpt lat="47.12159" lon="-1.33969">
        <ele>33.82</ele>
        <time>2020-06-27T14:20:09Z</time>
      </trkpt>
      <trkpt lat="47.12166" lon="-1.33986">
        <ele>33.91</ele>
        <time>2020-06-27T14:20:11Z</time>
      </trkpt>
      <trkpt lat="47.12172" lon="-1.34004">
        <ele>34.08</ele>
        <time>2020-06-27T14:20:13Z</time>
      </trkpt>
      <trkpt lat="47.12178" lon="-1.34018">
        <ele>34.65</ele>
        <time>2020-06-27T14:20:15Z</time>
      </trkpt>
      <trkpt lat="47.12184" lon="-1.34035">
        <ele>35.58</ele>
        <time>2020-06-27T14:20:17Z</time>
      </trkpt>
      <trkpt lat="47.12191" lon="-1.34052">
        <ele>35.77</ele>
        <time>2020-06-27T14:20:19Z</time>
      </trkpt>
      <trkpt lat="47.12197" lon="-1.34071">
        <ele>35.78</ele>
        <time>2020-06-27T14:20:21Z</time>
      </trkpt>
      <trkpt lat="47.12204" lon="-1.34089">
        <ele>35.45</ele>
        <time>2020-06-27T14:20:23Z</time>
      </trkpt>
      <trkpt lat="47.12212" lon="-1.34107">
        <ele>34.62</ele>
        <time>2020-06-27T14:20:25Z</time>
      </trkpt>
      <trkpt lat="47.12219" lon="-1.34124">
        <ele>33.67</ele>
        <time>2020-06-27T14:20:27Z</time>
      </trkpt>
      <trkpt lat="47.12225" lon="-1.3414">
        <ele>32.74</ele>
        <time>2020-06-27T14:20:29Z</time>
      </trkpt>
      <trkpt lat="47.12231" lon="-1.34156">
        <ele>31.31</ele>
        <time>2020-06-27T14:20:31Z</time>
      </trkpt>
      <trkpt lat="47.12236" lon="-1.34168">
        <ele>30</ele>
        <time>2020-06-27T14:20:33Z</time>
      </trkpt>
      <trkpt lat="47.12243" lon="-1.34187">
        <ele>29.29</ele>
        <time>2020-06-27T14:20:35Z</time>
      </trkpt>
      <trkpt lat="47.1225" lon="-1.34202">
        <ele>29.09</ele>
        <time>2020-06-27T14:20:37Z</time>
      </trkpt>
      <trkpt lat="47.12256" lon="-1.3422">
        <ele>28.71</ele>
        <time>2020-06-27T14:20:39Z</time>
      </trkpt>
      <trkpt lat="47.12263" lon="-1.34237">
        <ele>28.1</ele>
        <time>2020-06-27T14:20:41Z</time>
      </trkpt>
      <trkpt lat="47.12271" lon="-1.34258">
        <ele>27.11</ele>
        <time>2020-06-27T14:20:43Z</time>
      </trkpt>
      <trkpt lat="47.12279" lon="-1.34277">
        <ele>28.11</ele>
        <time>2020-06-27T14:20:45Z</time>
      </trkpt>
      <trkpt lat="47.12286" lon="-1.34296">
        <ele>27.81</ele>
        <time>2020-06-27T14:20:47Z</time>
      </trkpt>
      <trkpt lat="47.12295" lon="-1.34315">
        <ele>27.55</ele>
        <time>2020-06-27T14:20:49Z</time>
      </trkpt>
      <trkpt lat="47.12304" lon="-1.34333">
        <ele>27.42</ele>
        <time>2020-06-27T14:20:51Z</time>
      </trkpt>
      <trkpt lat="47.12313" lon="-1.3435">
        <ele>27.13</ele>
        <time>2020-06-27T14:20:53Z</time>
      </trkpt>
      <trkpt lat="47.12322" lon="-1.34367">
        <ele>26.45</ele>
        <time>2020-06-27T14:20:55Z</time>
      </trkpt>
      <trkpt lat="47.12333" lon="-1.34384">
        <ele>25.72</ele>
        <time>2020-06-27T14:20:57Z</time>
      </trkpt>
      <trkpt lat="47.12342" lon="-1.34399">
        <ele>25.02</ele>
        <time>2020-06-27T14:20:59Z</time>
      </trkpt>
      <trkpt lat="47.12352" lon="-1.34415">
        <ele>25.02</ele>
        <time>2020-06-27T14:21:01Z</time>
      </trkpt>
      <trkpt lat="47.12361" lon="-1.34429">
        <ele>26.16</ele>
        <time>2020-06-27T14:21:03Z</time>
      </trkpt>
      <trkpt lat="47.12368" lon="-1.34441">
        <ele>27.72</ele>
        <time>2020-06-27T14:21:05Z</time>
      </trkpt>
      <trkpt lat="47.12376" lon="-1.34456">
        <ele>27.13</ele>
        <time>2020-06-27T14:21:07Z</time>
      </trkpt>
      <trkpt lat="47.12385" lon="-1.3447">
        <ele>25.77</ele>
        <time>2020-06-27T14:21:09Z</time>
      </trkpt>
      <trkpt lat="47.12392" lon="-1.34482">
        <ele>26.21</ele>
        <time>2020-06-27T14:21:11Z</time>
      </trkpt>
      <trkpt lat="47.12398" lon="-1.34494">
        <ele>27.51</ele>
        <time>2020-06-27T14:21:13Z</time>
      </trkpt>
      <trkpt lat="47.12407" lon="-1.34509">
        <ele>29.29</ele>
        <time>2020-06-27T14:21:15Z</time>
      </trkpt>
      <trkpt lat="47.12414" lon="-1.34522">
        <ele>31.17</ele>
        <time>2020-06-27T14:21:17Z</time>
      </trkpt>
      <trkpt lat="47.12421" lon="-1.34533">
        <ele>30.84</ele>
        <time>2020-06-27T14:21:19Z</time>
      </trkpt>
      <trkpt lat="47.1243" lon="-1.34546">
        <ele>29.92</ele>
        <time>2020-06-27T14:21:21Z</time>
      </trkpt>
      <trkpt lat="47.12439" lon="-1.3456">
        <ele>28.88</ele>
        <time>2020-06-27T14:21:23Z</time>
      </trkpt>
      <trkpt lat="47.12446" lon="-1.34572">
        <ele>28.35</ele>
        <time>2020-06-27T14:21:25Z</time>
      </trkpt>
      <trkpt lat="47.12454" lon="-1.34586">
        <ele>28.03</ele>
        <time>2020-06-27T14:21:27Z</time>
      </trkpt>
      <trkpt lat="47.12461" lon="-1.34599">
        <ele>28.61</ele>
        <time>2020-06-27T14:21:29Z</time>
      </trkpt>
      <trkpt lat="47.12467" lon="-1.34611">
        <ele>29.21</ele>
        <time>2020-06-27T14:21:31Z</time>
      </trkpt>
      <trkpt lat="47.12473" lon="-1.34627">
        <ele>29.79</ele>
        <time>2020-06-27T14:21:33Z</time>
      </trkpt>
      <trkpt lat="47.12478" lon="-1.34643">
        <ele>29.87</ele>
        <time>2020-06-27T14:21:35Z</time>
      </trkpt>
      <trkpt lat="47.12483" lon="-1.34659">
        <ele>29.73</ele>
        <time>2020-06-27T14:21:37Z</time>
      </trkpt>
      <trkpt lat="47.12486" lon="-1.34673">
        <ele>30.33</ele>
        <time>2020-06-27T14:21:39Z</time>
      </trkpt>
      <trkpt lat="47.1249" lon="-1.34687">
        <ele>29.86</ele>
        <time>2020-06-27T14:21:41Z</time>
      </trkpt>
      <trkpt lat="47.12494" lon="-1.34701">
        <ele>28.03</ele>
        <time>2020-06-27T14:21:43Z</time>
      </trkpt>
      <trkpt lat="47.12498" lon="-1.34714">
        <ele>27.2</ele>
        <time>2020-06-27T14:21:45Z</time>
      </trkpt>
      <trkpt lat="47.12502" lon="-1.34725">
        <ele>26.97</ele>
        <time>2020-06-27T14:21:47Z</time>
      </trkpt>
      <trkpt lat="47.1251" lon="-1.34741">
        <ele>27.46</ele>
        <time>2020-06-27T14:21:50Z</time>
      </trkpt>
      <trkpt lat="47.12519" lon="-1.34754">
        <ele>28.12</ele>
        <time>2020-06-27T14:21:53Z</time>
      </trkpt>
      <trkpt lat="47.12527" lon="-1.34765">
        <ele>29.5</ele>
        <time>2020-06-27T14:21:55Z</time>
      </trkpt>
      <trkpt lat="47.12534" lon="-1.34776">
        <ele>30.78</ele>
        <time>2020-06-27T14:21:57Z</time>
      </trkpt>
      <trkpt lat="47.12542" lon="-1.34789">
        <ele>33.06</ele>
        <time>2020-06-27T14:22:00Z</time>
      </trkpt>
      <trkpt lat="47.1255" lon="-1.34805">
        <ele>33.94</ele>
        <time>2020-06-27T14:22:03Z</time>
      </trkpt>
      <trkpt lat="47.12562" lon="-1.34821">
        <ele>34.65</ele>
        <time>2020-06-27T14:22:06Z</time>
      </trkpt>
      <trkpt lat="47.12569" lon="-1.34833">
        <ele>36.07</ele>
        <time>2020-06-27T14:22:08Z</time>
      </trkpt>
      <trkpt lat="47.12575" lon="-1.34844">
        <ele>37.3</ele>
        <time>2020-06-27T14:22:10Z</time>
      </trkpt>
      <trkpt lat="47.12586" lon="-1.34856">
        <ele>36.47</ele>
        <time>2020-06-27T14:22:13Z</time>
      </trkpt>
      <trkpt lat="47.12596" lon="-1.34866">
        <ele>34.81</ele>
        <time>2020-06-27T14:22:16Z</time>
      </trkpt>
      <trkpt lat="47.12605" lon="-1.34876">
        <ele>35.4</ele>
        <time>2020-06-27T14:22:18Z</time>
      </trkpt>
      <trkpt lat="47.12614" lon="-1.34886">
        <ele>35.74</ele>
        <time>2020-06-27T14:22:20Z</time>
      </trkpt>
      <trkpt lat="47.12624" lon="-1.34896">
        <ele>35.8</ele>
        <time>2020-06-27T14:22:23Z</time>
      </trkpt>
      <trkpt lat="47.12632" lon="-1.34907">
        <ele>36.79</ele>
        <time>2020-06-27T14:22:26Z</time>
      </trkpt>
      <trkpt lat="47.12641" lon="-1.34916">
        <ele>37.56</ele>
        <time>2020-06-27T14:22:28Z</time>
      </trkpt>
      <trkpt lat="47.1265" lon="-1.34928">
        <ele>38.22</ele>
        <time>2020-06-27T14:22:31Z</time>
      </trkpt>
      <trkpt lat="47.12659" lon="-1.34941">
        <ele>38.04</ele>
        <time>2020-06-27T14:22:34Z</time>
      </trkpt>
      <trkpt lat="47.12666" lon="-1.3495">
        <ele>37.8</ele>
        <time>2020-06-27T14:22:36Z</time>
      </trkpt>
      <trkpt lat="47.12675" lon="-1.3496">
        <ele>37.69</ele>
        <time>2020-06-27T14:22:39Z</time>
      </trkpt>
      <trkpt lat="47.12683" lon="-1.34968">
        <ele>38.88</ele>
        <time>2020-06-27T14:22:41Z</time>
      </trkpt>
      <trkpt lat="47.12691" lon="-1.34976">
        <ele>40.4</ele>
        <time>2020-06-27T14:22:43Z</time>
      </trkpt>
      <trkpt lat="47.12701" lon="-1.34987">
        <ele>41.2</ele>
        <time>2020-06-27T14:22:46Z</time>
      </trkpt>
      <trkpt lat="47.12711" lon="-1.34997">
        <ele>41.05</ele>
        <time>2020-06-27T14:22:49Z</time>
      </trkpt>
      <trkpt lat="47.12721" lon="-1.35005">
        <ele>40.96</ele>
        <time>2020-06-27T14:22:52Z</time>
      </trkpt>
      <trkpt lat="47.1273" lon="-1.35013">
        <ele>41.04</ele>
        <time>2020-06-27T14:22:54Z</time>
      </trkpt>
      <trkpt lat="47.12738" lon="-1.35021">
        <ele>40.73</ele>
        <time>2020-06-27T14:22:56Z</time>
      </trkpt>
      <trkpt lat="47.12749" lon="-1.35031">
        <ele>40.28</ele>
        <time>2020-06-27T14:22:58Z</time>
      </trkpt>
      <trkpt lat="47.12759" lon="-1.35041">
        <ele>39.79</ele>
        <time>2020-06-27T14:23:00Z</time>
      </trkpt>
      <trkpt lat="47.12768" lon="-1.35051">
        <ele>39.21</ele>
        <time>2020-06-27T14:23:02Z</time>
      </trkpt>
      <trkpt lat="47.12777" lon="-1.3506">
        <ele>38.77</ele>
        <time>2020-06-27T14:23:04Z</time>
      </trkpt>
      <trkpt lat="47.12785" lon="-1.35068">
        <ele>39.11</ele>
        <time>2020-06-27T14:23:06Z</time>
      </trkpt>
      <trkpt lat="47.12795" lon="-1.35077">
        <ele>38.48</ele>
        <time>2020-06-27T14:23:08Z</time>
      </trkpt>
      <trkpt lat="47.12807" lon="-1.35088">
        <ele>38.26</ele>
        <time>2020-06-27T14:23:10Z</time>
      </trkpt>
      <trkpt lat="47.12816" lon="-1.35098">
        <ele>38</ele>
        <time>2020-06-27T14:23:12Z</time>
      </trkpt>
      <trkpt lat="47.12826" lon="-1.35108">
        <ele>38.14</ele>
        <time>2020-06-27T14:23:14Z</time>
      </trkpt>
      <trkpt lat="47.12838" lon="-1.35118">
        <ele>38.7</ele>
        <time>2020-06-27T14:23:16Z</time>
      </trkpt>
      <trkpt lat="47.12849" lon="-1.35128">
        <ele>39.44</ele>
        <time>2020-06-27T14:23:18Z</time>
      </trkpt>
      <trkpt lat="47.1286" lon="-1.35138">
        <ele>39.63</ele>
        <time>2020-06-27T14:23:20Z</time>
      </trkpt>
      <trkpt lat="47.12872" lon="-1.35149">
        <ele>40.57</ele>
        <time>2020-06-27T14:23:22Z</time>
      </trkpt>
      <trkpt lat="47.12882" lon="-1.35161">
        <ele>39.98</ele>
        <time>2020-06-27T14:23:24Z</time>
      </trkpt>
      <trkpt lat="47.12895" lon="-1.35172">
        <ele>39.11</ele>
        <time>2020-06-27T14:23:26Z</time>
      </trkpt>
      <trkpt lat="47.12906" lon="-1.35184">
        <ele>39.34</ele>
        <time>2020-06-27T14:23:28Z</time>
      </trkpt>
      <trkpt lat="47.12919" lon="-1.35195">
        <ele>38.75</ele>
        <time>2020-06-27T14:23:30Z</time>
      </trkpt>
      <trkpt lat="47.1293" lon="-1.35206">
        <ele>38.93</ele>
        <time>2020-06-27T14:23:32Z</time>
      </trkpt>
      <trkpt lat="47.12943" lon="-1.35218">
        <ele>39.11</ele>
        <time>2020-06-27T14:23:34Z</time>
      </trkpt>
      <trkpt lat="47.12951" lon="-1.35225">
        <ele>38.91</ele>
        <time>2020-06-27T14:23:35Z</time>
      </trkpt>
      <trkpt lat="47.12964" lon="-1.35238">
        <ele>37.7</ele>
        <time>2020-06-27T14:23:37Z</time>
      </trkpt>
      <trkpt lat="47.12976" lon="-1.35249">
        <ele>36.69</ele>
        <time>2020-06-27T14:23:39Z</time>
      </trkpt>
      <trkpt lat="47.1299" lon="-1.35262">
        <ele>36.71</ele>
        <time>2020-06-27T14:23:41Z</time>
      </trkpt>
      <trkpt lat="47.13002" lon="-1.35274">
        <ele>36.92</ele>
        <time>2020-06-27T14:23:43Z</time>
      </trkpt>
      <trkpt lat="47.1301" lon="-1.3529">
        <ele>36.53</ele>
        <time>2020-06-27T14:23:45Z</time>
      </trkpt>
      <trkpt lat="47.13015" lon="-1.35307">
        <ele>36.01</ele>
        <time>2020-06-27T14:23:47Z</time>
      </trkpt>
      <trkpt lat="47.1302" lon="-1.35327">
        <ele>34.63</ele>
        <time>2020-06-27T14:23:49Z</time>
      </trkpt>
      <trkpt lat="47.13023" lon="-1.35348">
        <ele>33.25</ele>
        <time>2020-06-27T14:23:51Z</time>
      </trkpt>
      <trkpt lat="47.13025" lon="-1.35368">
        <ele>33.31</ele>
        <time>2020-06-27T14:23:53Z</time>
      </trkpt>
      <trkpt lat="47.13029" lon="-1.35385">
        <ele>34.08</ele>
        <time>2020-06-27T14:23:55Z</time>
      </trkpt>
      <trkpt lat="47.13035" lon="-1.35404">
        <ele>33.7</ele>
        <time>2020-06-27T14:23:57Z</time>
      </trkpt>
      <trkpt lat="47.1304" lon="-1.35423">
        <ele>32.41</ele>
        <time>2020-06-27T14:23:59Z</time>
      </trkpt>
      <trkpt lat="47.13046" lon="-1.35441">
        <ele>31.01</ele>
        <time>2020-06-27T14:24:01Z</time>
      </trkpt>
      <trkpt lat="47.13053" lon="-1.35458">
        <ele>30.37</ele>
        <time>2020-06-27T14:24:03Z</time>
      </trkpt>
      <trkpt lat="47.13065" lon="-1.35474">
        <ele>30.18</ele>
        <time>2020-06-27T14:24:05Z</time>
      </trkpt>
      <trkpt lat="47.13077" lon="-1.35489">
        <ele>29.98</ele>
        <time>2020-06-27T14:24:07Z</time>
      </trkpt>
      <trkpt lat="47.13088" lon="-1.355">
        <ele>29.13</ele>
        <time>2020-06-27T14:24:09Z</time>
      </trkpt>
      <trkpt lat="47.13101" lon="-1.35513">
        <ele>28.86</ele>
        <time>2020-06-27T14:24:11Z</time>
      </trkpt>
      <trkpt lat="47.13109" lon="-1.35522">
        <ele>28.7</ele>
        <time>2020-06-27T14:24:12Z</time>
      </trkpt>
      <trkpt lat="47.13121" lon="-1.35536">
        <ele>28.64</ele>
        <time>2020-06-27T14:24:14Z</time>
      </trkpt>
      <trkpt lat="47.13133" lon="-1.3555">
        <ele>29.21</ele>
        <time>2020-06-27T14:24:16Z</time>
      </trkpt>
      <trkpt lat="47.13145" lon="-1.35557">
        <ele>30.15</ele>
        <time>2020-06-27T14:24:18Z</time>
      </trkpt>
      <trkpt lat="47.13156" lon="-1.35558">
        <ele>30.38</ele>
        <time>2020-06-27T14:24:20Z</time>
      </trkpt>
      <trkpt lat="47.13167" lon="-1.35558">
        <ele>30.09</ele>
        <time>2020-06-27T14:24:22Z</time>
      </trkpt>
      <trkpt lat="47.1318" lon="-1.35564">
        <ele>29.02</ele>
        <time>2020-06-27T14:24:25Z</time>
      </trkpt>
      <trkpt lat="47.13194" lon="-1.35566">
        <ele>29.01</ele>
        <time>2020-06-27T14:24:27Z</time>
      </trkpt>
      <trkpt lat="47.13209" lon="-1.35564">
        <ele>28.37</ele>
        <time>2020-06-27T14:24:29Z</time>
      </trkpt>
      <trkpt lat="47.13224" lon="-1.35566">
        <ele>27.78</ele>
        <time>2020-06-27T14:24:31Z</time>
      </trkpt>
      <trkpt lat="47.13235" lon="-1.35573">
        <ele>26.6</ele>
        <time>2020-06-27T14:24:33Z</time>
      </trkpt>
      <trkpt lat="47.13241" lon="-1.35592">
        <ele>25.75</ele>
        <time>2020-06-27T14:24:35Z</time>
      </trkpt>
      <trkpt lat="47.13243" lon="-1.35615">
        <ele>23.49</ele>
        <time>2020-06-27T14:24:37Z</time>
      </trkpt>
      <trkpt lat="47.13245" lon="-1.35636">
        <ele>22.01</ele>
        <time>2020-06-27T14:24:39Z</time>
      </trkpt>
      <trkpt lat="47.13245" lon="-1.35659">
        <ele>19.41</ele>
        <time>2020-06-27T14:24:41Z</time>
      </trkpt>
      <trkpt lat="47.13245" lon="-1.35681">
        <ele>17.59</ele>
        <time>2020-06-27T14:24:43Z</time>
      </trkpt>
      <trkpt lat="47.13244" lon="-1.35703">
        <ele>16.41</ele>
        <time>2020-06-27T14:24:45Z</time>
      </trkpt>
      <trkpt lat="47.13244" lon="-1.35717">
        <ele>16.3</ele>
        <time>2020-06-27T14:24:46Z</time>
      </trkpt>
      <trkpt lat="47.13243" lon="-1.3574">
        <ele>16.07</ele>
        <time>2020-06-27T14:24:48Z</time>
      </trkpt>
      <trkpt lat="47.13244" lon="-1.35762">
        <ele>15.43</ele>
        <time>2020-06-27T14:24:50Z</time>
      </trkpt>
      <trkpt lat="47.13244" lon="-1.35783">
        <ele>15</ele>
        <time>2020-06-27T14:24:52Z</time>
      </trkpt>
      <trkpt lat="47.13244" lon="-1.35805">
        <ele>14.56</ele>
        <time>2020-06-27T14:24:54Z</time>
      </trkpt>
      <trkpt lat="47.13245" lon="-1.35827">
        <ele>15.39</ele>
        <time>2020-06-27T14:24:56Z</time>
      </trkpt>
      <trkpt lat="47.13246" lon="-1.35844">
        <ele>15.61</ele>
        <time>2020-06-27T14:24:57Z</time>
      </trkpt>
      <trkpt lat="47.13247" lon="-1.35862">
        <ele>15.75</ele>
        <time>2020-06-27T14:24:59Z</time>
      </trkpt>
      <trkpt lat="47.1325" lon="-1.35881">
        <ele>16.28</ele>
        <time>2020-06-27T14:25:01Z</time>
      </trkpt>
      <trkpt lat="47.13252" lon="-1.35903">
        <ele>16.44</ele>
        <time>2020-06-27T14:25:03Z</time>
      </trkpt>
      <trkpt lat="47.13254" lon="-1.35922">
        <ele>15.93</ele>
        <time>2020-06-27T14:25:05Z</time>
      </trkpt>
      <trkpt lat="47.13256" lon="-1.35937">
        <ele>15.88</ele>
        <time>2020-06-27T14:25:07Z</time>
      </trkpt>
      <trkpt lat="47.13257" lon="-1.35953">
        <ele>15.92</ele>
        <time>2020-06-27T14:25:09Z</time>
      </trkpt>
      <trkpt lat="47.13259" lon="-1.35969">
        <ele>15.53</ele>
        <time>2020-06-27T14:25:11Z</time>
      </trkpt>
      <trkpt lat="47.13261" lon="-1.35987">
        <ele>14.73</ele>
        <time>2020-06-27T14:25:13Z</time>
      </trkpt>
      <trkpt lat="47.13267" lon="-1.36005">
        <ele>13.23</ele>
        <time>2020-06-27T14:25:15Z</time>
      </trkpt>
      <trkpt lat="47.13274" lon="-1.36023">
        <ele>12.82</ele>
        <time>2020-06-27T14:25:17Z</time>
      </trkpt>
      <trkpt lat="47.13282" lon="-1.36039">
        <ele>13.16</ele>
        <time>2020-06-27T14:25:19Z</time>
      </trkpt>
      <trkpt lat="47.13291" lon="-1.36056">
        <ele>13.92</ele>
        <time>2020-06-27T14:25:21Z</time>
      </trkpt>
      <trkpt lat="47.13299" lon="-1.36069">
        <ele>15.22</ele>
        <time>2020-06-27T14:25:23Z</time>
      </trkpt>
      <trkpt lat="47.13306" lon="-1.36087">
        <ele>16.17</ele>
        <time>2020-06-27T14:25:25Z</time>
      </trkpt>
      <trkpt lat="47.13309" lon="-1.36102">
        <ele>15.3</ele>
        <time>2020-06-27T14:25:27Z</time>
      </trkpt>
      <trkpt lat="47.13311" lon="-1.3612">
        <ele>14.61</ele>
        <time>2020-06-27T14:25:29Z</time>
      </trkpt>
      <trkpt lat="47.13313" lon="-1.36137">
        <ele>14.45</ele>
        <time>2020-06-27T14:25:31Z</time>
      </trkpt>
      <trkpt lat="47.13314" lon="-1.36151">
        <ele>14.18</ele>
        <time>2020-06-27T14:25:33Z</time>
      </trkpt>
      <trkpt lat="47.13317" lon="-1.36169">
        <ele>13.57</ele>
        <time>2020-06-27T14:25:35Z</time>
      </trkpt>
      <trkpt lat="47.13319" lon="-1.36186">
        <ele>13.49</ele>
        <time>2020-06-27T14:25:37Z</time>
      </trkpt>
      <trkpt lat="47.13321" lon="-1.36202">
        <ele>13.74</ele>
        <time>2020-06-27T14:25:39Z</time>
      </trkpt>
      <trkpt lat="47.13325" lon="-1.36217">
        <ele>14.93</ele>
        <time>2020-06-27T14:25:41Z</time>
      </trkpt>
      <trkpt lat="47.13334" lon="-1.36228">
        <ele>15.55</ele>
        <time>2020-06-27T14:25:43Z</time>
      </trkpt>
      <trkpt lat="47.13343" lon="-1.36237">
        <ele>15.77</ele>
        <time>2020-06-27T14:25:45Z</time>
      </trkpt>
      <trkpt lat="47.13353" lon="-1.36247">
        <ele>17.44</ele>
        <time>2020-06-27T14:25:47Z</time>
      </trkpt>
      <trkpt lat="47.13362" lon="-1.36256">
        <ele>18.25</ele>
        <time>2020-06-27T14:25:49Z</time>
      </trkpt>
      <trkpt lat="47.13371" lon="-1.36264">
        <ele>17.95</ele>
        <time>2020-06-27T14:25:51Z</time>
      </trkpt>
      <trkpt lat="47.13379" lon="-1.36272">
        <ele>18.59</ele>
        <time>2020-06-27T14:25:53Z</time>
      </trkpt>
      <trkpt lat="47.13389" lon="-1.36281">
        <ele>20.27</ele>
        <time>2020-06-27T14:25:56Z</time>
      </trkpt>
      <trkpt lat="47.13398" lon="-1.36289">
        <ele>22.34</ele>
        <time>2020-06-27T14:25:58Z</time>
      </trkpt>
      <trkpt lat="47.13405" lon="-1.36296">
        <ele>23.42</ele>
        <time>2020-06-27T14:26:00Z</time>
      </trkpt>
      <trkpt lat="47.13414" lon="-1.36304">
        <ele>23.93</ele>
        <time>2020-06-27T14:26:02Z</time>
      </trkpt>
      <trkpt lat="47.13423" lon="-1.36314">
        <ele>24.08</ele>
        <time>2020-06-27T14:26:04Z</time>
      </trkpt>
      <trkpt lat="47.13431" lon="-1.36323">
        <ele>24.42</ele>
        <time>2020-06-27T14:26:06Z</time>
      </trkpt>
      <trkpt lat="47.13438" lon="-1.36333">
        <ele>24.49</ele>
        <time>2020-06-27T14:26:08Z</time>
      </trkpt>
      <trkpt lat="47.13446" lon="-1.36349">
        <ele>24.31</ele>
        <time>2020-06-27T14:26:11Z</time>
      </trkpt>
      <trkpt lat="47.13451" lon="-1.36362">
        <ele>24.16</ele>
        <time>2020-06-27T14:26:13Z</time>
      </trkpt>
      <trkpt lat="47.13456" lon="-1.36378">
        <ele>24.59</ele>
        <time>2020-06-27T14:26:15Z</time>
      </trkpt>
      <trkpt lat="47.13461" lon="-1.36394">
        <ele>24.9</ele>
        <time>2020-06-27T14:26:17Z</time>
      </trkpt>
      <trkpt lat="47.13464" lon="-1.36407">
        <ele>25.44</ele>
        <time>2020-06-27T14:26:19Z</time>
      </trkpt>
      <trkpt lat="47.13466" lon="-1.36422">
        <ele>25.6</ele>
        <time>2020-06-27T14:26:21Z</time>
      </trkpt>
      <trkpt lat="47.13469" lon="-1.36437">
        <ele>25.47</ele>
        <time>2020-06-27T14:26:23Z</time>
      </trkpt>
      <trkpt lat="47.13471" lon="-1.36454">
        <ele>25.11</ele>
        <time>2020-06-27T14:26:26Z</time>
      </trkpt>
      <trkpt lat="47.13474" lon="-1.36468">
        <ele>24.15</ele>
        <time>2020-06-27T14:26:28Z</time>
      </trkpt>
      <trkpt lat="47.13477" lon="-1.36482">
        <ele>24.1</ele>
        <time>2020-06-27T14:26:30Z</time>
      </trkpt>
      <trkpt lat="47.13481" lon="-1.36498">
        <ele>24.23</ele>
        <time>2020-06-27T14:26:32Z</time>
      </trkpt>
      <trkpt lat="47.13485" lon="-1.36512">
        <ele>24.68</ele>
        <time>2020-06-27T14:26:34Z</time>
      </trkpt>
      <trkpt lat="47.13489" lon="-1.36525">
        <ele>25.19</ele>
        <time>2020-06-27T14:26:36Z</time>
      </trkpt>
      <trkpt lat="47.13494" lon="-1.36542">
        <ele>26.19</ele>
        <time>2020-06-27T14:26:39Z</time>
      </trkpt>
      <trkpt lat="47.13498" lon="-1.36554">
        <ele>27.53</ele>
        <time>2020-06-27T14:26:41Z</time>
      </trkpt>
      <trkpt lat="47.13502" lon="-1.36566">
        <ele>27.51</ele>
        <time>2020-06-27T14:26:43Z</time>
      </trkpt>
      <trkpt lat="47.13507" lon="-1.3658">
        <ele>27.69</ele>
        <time>2020-06-27T14:26:46Z</time>
      </trkpt>
      <trkpt lat="47.13511" lon="-1.36595">
        <ele>28.64</ele>
        <time>2020-06-27T14:26:48Z</time>
      </trkpt>
      <trkpt lat="47.13516" lon="-1.36608">
        <ele>29.87</ele>
        <time>2020-06-27T14:26:51Z</time>
      </trkpt>
      <trkpt lat="47.13521" lon="-1.36623">
        <ele>29.77</ele>
        <time>2020-06-27T14:26:53Z</time>
      </trkpt>
      <trkpt lat="47.13524" lon="-1.36636">
        <ele>28.81</ele>
        <time>2020-06-27T14:26:56Z</time>
      </trkpt>
      <trkpt lat="47.13529" lon="-1.36655">
        <ele>30.06</ele>
        <time>2020-06-27T14:26:59Z</time>
      </trkpt>
      <trkpt lat="47.13535" lon="-1.36671">
        <ele>31.93</ele>
        <time>2020-06-27T14:27:02Z</time>
      </trkpt>
      <trkpt lat="47.13541" lon="-1.36687">
        <ele>31.55</ele>
        <time>2020-06-27T14:27:05Z</time>
      </trkpt>
      <trkpt lat="47.13546" lon="-1.36703">
        <ele>32.56</ele>
        <time>2020-06-27T14:27:08Z</time>
      </trkpt>
      <trkpt lat="47.13549" lon="-1.36716">
        <ele>32.6</ele>
        <time>2020-06-27T14:27:10Z</time>
      </trkpt>
      <trkpt lat="47.13555" lon="-1.36732">
        <ele>32.97</ele>
        <time>2020-06-27T14:27:13Z</time>
      </trkpt>
      <trkpt lat="47.13559" lon="-1.36747">
        <ele>33.14</ele>
        <time>2020-06-27T14:27:16Z</time>
      </trkpt>
      <trkpt lat="47.13566" lon="-1.36766">
        <ele>33.39</ele>
        <time>2020-06-27T14:27:19Z</time>
      </trkpt>
      <trkpt lat="47.1357" lon="-1.36783">
        <ele>34.23</ele>
        <time>2020-06-27T14:27:22Z</time>
      </trkpt>
      <trkpt lat="47.13575" lon="-1.368">
        <ele>34.57</ele>
        <time>2020-06-27T14:27:25Z</time>
      </trkpt>
      <trkpt lat="47.1358" lon="-1.36819">
        <ele>34.67</ele>
        <time>2020-06-27T14:27:28Z</time>
      </trkpt>
      <trkpt lat="47.13584" lon="-1.36838">
        <ele>34.29</ele>
        <time>2020-06-27T14:27:31Z</time>
      </trkpt>
      <trkpt lat="47.13583" lon="-1.36858">
        <ele>34.14</ele>
        <time>2020-06-27T14:27:34Z</time>
      </trkpt>
      <trkpt lat="47.1358" lon="-1.36871">
        <ele>34.77</ele>
        <time>2020-06-27T14:27:36Z</time>
      </trkpt>
      <trkpt lat="47.13576" lon="-1.36884">
        <ele>35.06</ele>
        <time>2020-06-27T14:27:38Z</time>
      </trkpt>
      <trkpt lat="47.1357" lon="-1.36896">
        <ele>34.3</ele>
        <time>2020-06-27T14:27:40Z</time>
      </trkpt>
      <trkpt lat="47.13563" lon="-1.36906">
        <ele>34.26</ele>
        <time>2020-06-27T14:27:42Z</time>
      </trkpt>
      <trkpt lat="47.13553" lon="-1.36921">
        <ele>33.49</ele>
        <time>2020-06-27T14:27:44Z</time>
      </trkpt>
      <trkpt lat="47.13545" lon="-1.36933">
        <ele>34.24</ele>
        <time>2020-06-27T14:27:46Z</time>
      </trkpt>
      <trkpt lat="47.13536" lon="-1.36944">
        <ele>34.56</ele>
        <time>2020-06-27T14:27:48Z</time>
      </trkpt>
      <trkpt lat="47.13526" lon="-1.36962">
        <ele>33.97</ele>
        <time>2020-06-27T14:27:50Z</time>
      </trkpt>
      <trkpt lat="47.13518" lon="-1.3698">
        <ele>32.33</ele>
        <time>2020-06-27T14:27:52Z</time>
      </trkpt>
      <trkpt lat="47.13508" lon="-1.37003">
        <ele>30.61</ele>
        <time>2020-06-27T14:27:54Z</time>
      </trkpt>
      <trkpt lat="47.13502" lon="-1.37023">
        <ele>29.41</ele>
        <time>2020-06-27T14:27:56Z</time>
      </trkpt>
      <trkpt lat="47.13496" lon="-1.37047">
        <ele>28.01</ele>
        <time>2020-06-27T14:27:58Z</time>
      </trkpt>
      <trkpt lat="47.13493" lon="-1.3706">
        <ele>27.27</ele>
        <time>2020-06-27T14:27:59Z</time>
      </trkpt>
      <trkpt lat="47.13489" lon="-1.37085">
        <ele>26.4</ele>
        <time>2020-06-27T14:28:01Z</time>
      </trkpt>
      <trkpt lat="47.13488" lon="-1.37099">
        <ele>26.4</ele>
        <time>2020-06-27T14:28:02Z</time>
      </trkpt>
      <trkpt lat="47.13487" lon="-1.37112">
        <ele>25.69</ele>
        <time>2020-06-27T14:28:03Z</time>
      </trkpt>
      <trkpt lat="47.13486" lon="-1.37128">
        <ele>24.51</ele>
        <time>2020-06-27T14:28:04Z</time>
      </trkpt>
      <trkpt lat="47.1349" lon="-1.37142">
        <ele>23.25</ele>
        <time>2020-06-27T14:28:05Z</time>
      </trkpt>
      <trkpt lat="47.13494" lon="-1.37155">
        <ele>22.26</ele>
        <time>2020-06-27T14:28:06Z</time>
      </trkpt>
      <trkpt lat="47.13503" lon="-1.37168">
        <ele>22.17</ele>
        <time>2020-06-27T14:28:07Z</time>
      </trkpt>
      <trkpt lat="47.13511" lon="-1.37179">
        <ele>22.57</ele>
        <time>2020-06-27T14:28:08Z</time>
      </trkpt>
      <trkpt lat="47.13526" lon="-1.37191">
        <ele>22.44</ele>
        <time>2020-06-27T14:28:10Z</time>
      </trkpt>
      <trkpt lat="47.13543" lon="-1.37201">
        <ele>23.46</ele>
        <time>2020-06-27T14:28:12Z</time>
      </trkpt>
      <trkpt lat="47.13552" lon="-1.37205">
        <ele>23.73</ele>
        <time>2020-06-27T14:28:13Z</time>
      </trkpt>
      <trkpt lat="47.13561" lon="-1.37208">
        <ele>23.9</ele>
        <time>2020-06-27T14:28:14Z</time>
      </trkpt>
      <trkpt lat="47.13579" lon="-1.37213">
        <ele>24.36</ele>
        <time>2020-06-27T14:28:16Z</time>
      </trkpt>
      <trkpt lat="47.13589" lon="-1.37215">
        <ele>24.1</ele>
        <time>2020-06-27T14:28:17Z</time>
      </trkpt>
      <trkpt lat="47.13599" lon="-1.37216">
        <ele>23.85</ele>
        <time>2020-06-27T14:28:18Z</time>
      </trkpt>
      <trkpt lat="47.13608" lon="-1.37217">
        <ele>23.91</ele>
        <time>2020-06-27T14:28:19Z</time>
      </trkpt>
      <trkpt lat="47.13619" lon="-1.37219">
        <ele>23.85</ele>
        <time>2020-06-27T14:28:20Z</time>
      </trkpt>
      <trkpt lat="47.13629" lon="-1.37219">
        <ele>23.67</ele>
        <time>2020-06-27T14:28:21Z</time>
      </trkpt>
      <trkpt lat="47.13639" lon="-1.37219">
        <ele>23.44</ele>
        <time>2020-06-27T14:28:22Z</time>
      </trkpt>
      <trkpt lat="47.13658" lon="-1.37221">
        <ele>22.88</ele>
        <time>2020-06-27T14:28:24Z</time>
      </trkpt>
      <trkpt lat="47.1367" lon="-1.37222">
        <ele>21.81</ele>
        <time>2020-06-27T14:28:25Z</time>
      </trkpt>
      <trkpt lat="47.13683" lon="-1.37222">
        <ele>20.95</ele>
        <time>2020-06-27T14:28:26Z</time>
      </trkpt>
      <trkpt lat="47.13693" lon="-1.37222">
        <ele>19.72</ele>
        <time>2020-06-27T14:28:27Z</time>
      </trkpt>
      <trkpt lat="47.13704" lon="-1.37226">
        <ele>18.67</ele>
        <time>2020-06-27T14:28:28Z</time>
      </trkpt>
      <trkpt lat="47.13716" lon="-1.37232">
        <ele>17.69</ele>
        <time>2020-06-27T14:28:29Z</time>
      </trkpt>
      <trkpt lat="47.13725" lon="-1.3724">
        <ele>16.38</ele>
        <time>2020-06-27T14:28:30Z</time>
      </trkpt>
      <trkpt lat="47.13731" lon="-1.37251">
        <ele>15.21</ele>
        <time>2020-06-27T14:28:31Z</time>
      </trkpt>
      <trkpt lat="47.13738" lon="-1.37265">
        <ele>14.45</ele>
        <time>2020-06-27T14:28:32Z</time>
      </trkpt>
      <trkpt lat="47.13744" lon="-1.37277">
        <ele>13.72</ele>
        <time>2020-06-27T14:28:33Z</time>
      </trkpt>
      <trkpt lat="47.13752" lon="-1.37299">
        <ele>12.18</ele>
        <time>2020-06-27T14:28:35Z</time>
      </trkpt>
      <trkpt lat="47.13757" lon="-1.37311">
        <ele>11.71</ele>
        <time>2020-06-27T14:28:36Z</time>
      </trkpt>
      <trkpt lat="47.13762" lon="-1.37323">
        <ele>11.52</ele>
        <time>2020-06-27T14:28:37Z</time>
      </trkpt>
      <trkpt lat="47.13772" lon="-1.37343">
        <ele>12.13</ele>
        <time>2020-06-27T14:28:39Z</time>
      </trkpt>
      <trkpt lat="47.13783" lon="-1.37356">
        <ele>11.51</ele>
        <time>2020-06-27T14:28:41Z</time>
      </trkpt>
      <trkpt lat="47.13796" lon="-1.37364">
        <ele>11.42</ele>
        <time>2020-06-27T14:28:43Z</time>
      </trkpt>
      <trkpt lat="47.1381" lon="-1.37367">
        <ele>12.69</ele>
        <time>2020-06-27T14:28:45Z</time>
      </trkpt>
      <trkpt lat="47.13821" lon="-1.37365">
        <ele>13.94</ele>
        <time>2020-06-27T14:28:47Z</time>
      </trkpt>
      <trkpt lat="47.13831" lon="-1.37359">
        <ele>14.36</ele>
        <time>2020-06-27T14:28:49Z</time>
      </trkpt>
      <trkpt lat="47.13843" lon="-1.37352">
        <ele>15.29</ele>
        <time>2020-06-27T14:28:51Z</time>
      </trkpt>
      <trkpt lat="47.13853" lon="-1.37347">
        <ele>14.67</ele>
        <time>2020-06-27T14:28:53Z</time>
      </trkpt>
      <trkpt lat="47.13864" lon="-1.37347">
        <ele>12.54</ele>
        <time>2020-06-27T14:28:55Z</time>
      </trkpt>
      <trkpt lat="47.13875" lon="-1.37355">
        <ele>12.16</ele>
        <time>2020-06-27T14:28:57Z</time>
      </trkpt>
      <trkpt lat="47.13883" lon="-1.37368">
        <ele>13.47</ele>
        <time>2020-06-27T14:28:59Z</time>
      </trkpt>
      <trkpt lat="47.1389" lon="-1.37382">
        <ele>15.31</ele>
        <time>2020-06-27T14:29:01Z</time>
      </trkpt>
      <trkpt lat="47.13897" lon="-1.37396">
        <ele>16.37</ele>
        <time>2020-06-27T14:29:03Z</time>
      </trkpt>
      <trkpt lat="47.13904" lon="-1.37409">
        <ele>16.34</ele>
        <time>2020-06-27T14:29:05Z</time>
      </trkpt>
      <trkpt lat="47.13909" lon="-1.37421">
        <ele>15.85</ele>
        <time>2020-06-27T14:29:07Z</time>
      </trkpt>
      <trkpt lat="47.13916" lon="-1.37436">
        <ele>15.53</ele>
        <time>2020-06-27T14:29:09Z</time>
      </trkpt>
      <trkpt lat="47.13922" lon="-1.37449">
        <ele>15.22</ele>
        <time>2020-06-27T14:29:11Z</time>
      </trkpt>
      <trkpt lat="47.13929" lon="-1.37462">
        <ele>15.35</ele>
        <time>2020-06-27T14:29:13Z</time>
      </trkpt>
      <trkpt lat="47.13937" lon="-1.37478">
        <ele>17.23</ele>
        <time>2020-06-27T14:29:15Z</time>
      </trkpt>
      <trkpt lat="47.13943" lon="-1.3749">
        <ele>17.49</ele>
        <time>2020-06-27T14:29:17Z</time>
      </trkpt>
      <trkpt lat="47.1395" lon="-1.37503">
        <ele>17.59</ele>
        <time>2020-06-27T14:29:19Z</time>
      </trkpt>
      <trkpt lat="47.13958" lon="-1.37519">
        <ele>18.68</ele>
        <time>2020-06-27T14:29:21Z</time>
      </trkpt>
      <trkpt lat="47.13967" lon="-1.37538">
        <ele>18.97</ele>
        <time>2020-06-27T14:29:23Z</time>
      </trkpt>
      <trkpt lat="47.13976" lon="-1.37556">
        <ele>18.43</ele>
        <time>2020-06-27T14:29:25Z</time>
      </trkpt>
      <trkpt lat="47.13985" lon="-1.37574">
        <ele>17.93</ele>
        <time>2020-06-27T14:29:27Z</time>
      </trkpt>
      <trkpt lat="47.13995" lon="-1.37592">
        <ele>18.63</ele>
        <time>2020-06-27T14:29:29Z</time>
      </trkpt>
      <trkpt lat="47.14004" lon="-1.37609">
        <ele>19.54</ele>
        <time>2020-06-27T14:29:31Z</time>
      </trkpt>
      <trkpt lat="47.14013" lon="-1.37629">
        <ele>19.26</ele>
        <time>2020-06-27T14:29:33Z</time>
      </trkpt>
      <trkpt lat="47.1402" lon="-1.37644">
        <ele>18.37</ele>
        <time>2020-06-27T14:29:35Z</time>
      </trkpt>
      <trkpt lat="47.14025" lon="-1.37658">
        <ele>17.9</ele>
        <time>2020-06-27T14:29:37Z</time>
      </trkpt>
      <trkpt lat="47.14031" lon="-1.37672">
        <ele>17.87</ele>
        <time>2020-06-27T14:29:39Z</time>
      </trkpt>
      <trkpt lat="47.14037" lon="-1.37687">
        <ele>18.34</ele>
        <time>2020-06-27T14:29:41Z</time>
      </trkpt>
      <trkpt lat="47.14042" lon="-1.37701">
        <ele>19.42</ele>
        <time>2020-06-27T14:29:43Z</time>
      </trkpt>
      <trkpt lat="47.14047" lon="-1.37719">
        <ele>19.91</ele>
        <time>2020-06-27T14:29:46Z</time>
      </trkpt>
      <trkpt lat="47.14052" lon="-1.37739">
        <ele>18.39</ele>
        <time>2020-06-27T14:29:49Z</time>
      </trkpt>
      <trkpt lat="47.14056" lon="-1.37757">
        <ele>18.94</ele>
        <time>2020-06-27T14:29:51Z</time>
      </trkpt>
      <trkpt lat="47.14059" lon="-1.3777">
        <ele>20.54</ele>
        <time>2020-06-27T14:29:53Z</time>
      </trkpt>
      <trkpt lat="47.14062" lon="-1.37785">
        <ele>21.98</ele>
        <time>2020-06-27T14:29:55Z</time>
      </trkpt>
      <trkpt lat="47.14064" lon="-1.37804">
        <ele>23.64</ele>
        <time>2020-06-27T14:29:58Z</time>
      </trkpt>
      <trkpt lat="47.14066" lon="-1.37819">
        <ele>23.75</ele>
        <time>2020-06-27T14:30:00Z</time>
      </trkpt>
      <trkpt lat="47.14068" lon="-1.37837">
        <ele>21.37</ele>
        <time>2020-06-27T14:30:03Z</time>
      </trkpt>
      <trkpt lat="47.1407" lon="-1.37852">
        <ele>20.99</ele>
        <time>2020-06-27T14:30:05Z</time>
      </trkpt>
      <trkpt lat="47.14072" lon="-1.3787">
        <ele>21.59</ele>
        <time>2020-06-27T14:30:07Z</time>
      </trkpt>
      <trkpt lat="47.14076" lon="-1.37888">
        <ele>22.66</ele>
        <time>2020-06-27T14:30:10Z</time>
      </trkpt>
      <trkpt lat="47.14078" lon="-1.37902">
        <ele>22.79</ele>
        <time>2020-06-27T14:30:12Z</time>
      </trkpt>
      <trkpt lat="47.14081" lon="-1.37916">
        <ele>22.08</ele>
        <time>2020-06-27T14:30:14Z</time>
      </trkpt>
      <trkpt lat="47.14083" lon="-1.37932">
        <ele>20.57</ele>
        <time>2020-06-27T14:30:16Z</time>
      </trkpt>
      <trkpt lat="47.14085" lon="-1.37945">
        <ele>20.42</ele>
        <time>2020-06-27T14:30:18Z</time>
      </trkpt>
      <trkpt lat="47.14088" lon="-1.37961">
        <ele>20.06</ele>
        <time>2020-06-27T14:30:20Z</time>
      </trkpt>
      <trkpt lat="47.1409" lon="-1.37974">
        <ele>18.63</ele>
        <time>2020-06-27T14:30:22Z</time>
      </trkpt>
      <trkpt lat="47.14093" lon="-1.3799">
        <ele>18.26</ele>
        <time>2020-06-27T14:30:24Z</time>
      </trkpt>
      <trkpt lat="47.14096" lon="-1.38004">
        <ele>16.73</ele>
        <time>2020-06-27T14:30:26Z</time>
      </trkpt>
      <trkpt lat="47.14098" lon="-1.3802">
        <ele>16.64</ele>
        <time>2020-06-27T14:30:28Z</time>
      </trkpt>
      <trkpt lat="47.141" lon="-1.38033">
        <ele>16.64</ele>
        <time>2020-06-27T14:30:30Z</time>
      </trkpt>
      <trkpt lat="47.14103" lon="-1.38053">
        <ele>17.08</ele>
        <time>2020-06-27T14:30:33Z</time>
      </trkpt>
      <trkpt lat="47.14103" lon="-1.3807">
        <ele>16.66</ele>
        <time>2020-06-27T14:30:35Z</time>
      </trkpt>
      <trkpt lat="47.14102" lon="-1.38087">
        <ele>17.01</ele>
        <time>2020-06-27T14:30:37Z</time>
      </trkpt>
      <trkpt lat="47.14101" lon="-1.38105">
        <ele>17.63</ele>
        <time>2020-06-27T14:30:40Z</time>
      </trkpt>
      <trkpt lat="47.141" lon="-1.38121">
        <ele>17.3</ele>
        <time>2020-06-27T14:30:42Z</time>
      </trkpt>
      <trkpt lat="47.14099" lon="-1.38136">
        <ele>17.22</ele>
        <time>2020-06-27T14:30:44Z</time>
      </trkpt>
      <trkpt lat="47.14098" lon="-1.38153">
        <ele>17.45</ele>
        <time>2020-06-27T14:30:46Z</time>
      </trkpt>
      <trkpt lat="47.14096" lon="-1.38169">
        <ele>18.67</ele>
        <time>2020-06-27T14:30:48Z</time>
      </trkpt>
      <trkpt lat="47.14095" lon="-1.38183">
        <ele>20.35</ele>
        <time>2020-06-27T14:30:50Z</time>
      </trkpt>
      <trkpt lat="47.14094" lon="-1.38198">
        <ele>21.06</ele>
        <time>2020-06-27T14:30:52Z</time>
      </trkpt>
      <trkpt lat="47.14093" lon="-1.38216">
        <ele>21.01</ele>
        <time>2020-06-27T14:30:55Z</time>
      </trkpt>
      <trkpt lat="47.14092" lon="-1.3823">
        <ele>19.55</ele>
        <time>2020-06-27T14:30:57Z</time>
      </trkpt>
      <trkpt lat="47.14091" lon="-1.38244">
        <ele>18.58</ele>
        <time>2020-06-27T14:30:59Z</time>
      </trkpt>
      <trkpt lat="47.14087" lon="-1.38263">
        <ele>17.56</ele>
        <time>2020-06-27T14:31:02Z</time>
      </trkpt>
      <trkpt lat="47.14083" lon="-1.38282">
        <ele>18.34</ele>
        <time>2020-06-27T14:31:05Z</time>
      </trkpt>
      <trkpt lat="47.1408" lon="-1.38296">
        <ele>17.23</ele>
        <time>2020-06-27T14:31:07Z</time>
      </trkpt>
      <trkpt lat="47.14074" lon="-1.38313">
        <ele>17.38</ele>
        <time>2020-06-27T14:31:09Z</time>
      </trkpt>
      <trkpt lat="47.14068" lon="-1.38331">
        <ele>17.69</ele>
        <time>2020-06-27T14:31:11Z</time>
      </trkpt>
      <trkpt lat="47.14062" lon="-1.3835">
        <ele>18.12</ele>
        <time>2020-06-27T14:31:13Z</time>
      </trkpt>
      <trkpt lat="47.14058" lon="-1.38366">
        <ele>19.25</ele>
        <time>2020-06-27T14:31:15Z</time>
      </trkpt>
      <trkpt lat="47.14053" lon="-1.38387">
        <ele>19.48</ele>
        <time>2020-06-27T14:31:17Z</time>
      </trkpt>
      <trkpt lat="47.14047" lon="-1.38408">
        <ele>20.67</ele>
        <time>2020-06-27T14:31:19Z</time>
      </trkpt>
      <trkpt lat="47.14043" lon="-1.38426">
        <ele>21.61</ele>
        <time>2020-06-27T14:31:21Z</time>
      </trkpt>
      <trkpt lat="47.14039" lon="-1.38448">
        <ele>21.16</ele>
        <time>2020-06-27T14:31:23Z</time>
      </trkpt>
      <trkpt lat="47.14038" lon="-1.38468">
        <ele>20.75</ele>
        <time>2020-06-27T14:31:25Z</time>
      </trkpt>
      <trkpt lat="47.14042" lon="-1.3849">
        <ele>19.96</ele>
        <time>2020-06-27T14:31:27Z</time>
      </trkpt>
      <trkpt lat="47.14045" lon="-1.38509">
        <ele>19.22</ele>
        <time>2020-06-27T14:31:29Z</time>
      </trkpt>
      <trkpt lat="47.14047" lon="-1.3853">
        <ele>19.06</ele>
        <time>2020-06-27T14:31:31Z</time>
      </trkpt>
      <trkpt lat="47.14048" lon="-1.38551">
        <ele>18.35</ele>
        <time>2020-06-27T14:31:33Z</time>
      </trkpt>
      <trkpt lat="47.14048" lon="-1.38575">
        <ele>17.19</ele>
        <time>2020-06-27T14:31:35Z</time>
      </trkpt>
      <trkpt lat="47.14047" lon="-1.38596">
        <ele>16.53</ele>
        <time>2020-06-27T14:31:37Z</time>
      </trkpt>
      <trkpt lat="47.14047" lon="-1.38619">
        <ele>16.26</ele>
        <time>2020-06-27T14:31:39Z</time>
      </trkpt>
      <trkpt lat="47.14046" lon="-1.38635">
        <ele>15.76</ele>
        <time>2020-06-27T14:31:41Z</time>
      </trkpt>
      <trkpt lat="47.14045" lon="-1.38655">
        <ele>16.02</ele>
        <time>2020-06-27T14:31:43Z</time>
      </trkpt>
      <trkpt lat="47.14044" lon="-1.38675">
        <ele>16.17</ele>
        <time>2020-06-27T14:31:45Z</time>
      </trkpt>
      <trkpt lat="47.14042" lon="-1.38694">
        <ele>16.2</ele>
        <time>2020-06-27T14:31:47Z</time>
      </trkpt>
      <trkpt lat="47.1404" lon="-1.38714">
        <ele>16.34</ele>
        <time>2020-06-27T14:31:49Z</time>
      </trkpt>
      <trkpt lat="47.14039" lon="-1.38732">
        <ele>16.04</ele>
        <time>2020-06-27T14:31:51Z</time>
      </trkpt>
      <trkpt lat="47.14038" lon="-1.38748">
        <ele>14.71</ele>
        <time>2020-06-27T14:31:53Z</time>
      </trkpt>
      <trkpt lat="47.14037" lon="-1.38765">
        <ele>13.16</ele>
        <time>2020-06-27T14:31:55Z</time>
      </trkpt>
      <trkpt lat="47.14036" lon="-1.3878">
        <ele>12.78</ele>
        <time>2020-06-27T14:31:57Z</time>
      </trkpt>
      <trkpt lat="47.14035" lon="-1.38802">
        <ele>12.14</ele>
        <time>2020-06-27T14:32:00Z</time>
      </trkpt>
      <trkpt lat="47.14034" lon="-1.38816">
        <ele>11.76</ele>
        <time>2020-06-27T14:32:02Z</time>
      </trkpt>
      <trkpt lat="47.14032" lon="-1.38831">
        <ele>12.52</ele>
        <time>2020-06-27T14:32:04Z</time>
      </trkpt>
      <trkpt lat="47.14031" lon="-1.38845">
        <ele>13.23</ele>
        <time>2020-06-27T14:32:06Z</time>
      </trkpt>
      <trkpt lat="47.14029" lon="-1.3886">
        <ele>13.37</ele>
        <time>2020-06-27T14:32:08Z</time>
      </trkpt>
      <trkpt lat="47.14028" lon="-1.38874">
        <ele>13.6</ele>
        <time>2020-06-27T14:32:10Z</time>
      </trkpt>
      <trkpt lat="47.14024" lon="-1.38893">
        <ele>14.65</ele>
        <time>2020-06-27T14:32:13Z</time>
      </trkpt>
      <trkpt lat="47.14021" lon="-1.38906">
        <ele>15.69</ele>
        <time>2020-06-27T14:32:15Z</time>
      </trkpt>
      <trkpt lat="47.14016" lon="-1.38924">
        <ele>15.71</ele>
        <time>2020-06-27T14:32:17Z</time>
      </trkpt>
      <trkpt lat="47.14011" lon="-1.38939">
        <ele>15.83</ele>
        <time>2020-06-27T14:32:19Z</time>
      </trkpt>
      <trkpt lat="47.14002" lon="-1.38958">
        <ele>15</ele>
        <time>2020-06-27T14:32:21Z</time>
      </trkpt>
      <trkpt lat="47.13992" lon="-1.38979">
        <ele>15.47</ele>
        <time>2020-06-27T14:32:23Z</time>
      </trkpt>
      <trkpt lat="47.13986" lon="-1.3899">
        <ele>16.05</ele>
        <time>2020-06-27T14:32:24Z</time>
      </trkpt>
      <trkpt lat="47.13977" lon="-1.3901">
        <ele>16.28</ele>
        <time>2020-06-27T14:32:26Z</time>
      </trkpt>
      <trkpt lat="47.13971" lon="-1.39031">
        <ele>15.79</ele>
        <time>2020-06-27T14:32:28Z</time>
      </trkpt>
      <trkpt lat="47.13968" lon="-1.39058">
        <ele>14.32</ele>
        <time>2020-06-27T14:32:30Z</time>
      </trkpt>
      <trkpt lat="47.13967" lon="-1.39085">
        <ele>13.14</ele>
        <time>2020-06-27T14:32:32Z</time>
      </trkpt>
      <trkpt lat="47.13967" lon="-1.39099">
        <ele>12.49</ele>
        <time>2020-06-27T14:32:33Z</time>
      </trkpt>
      <trkpt lat="47.13968" lon="-1.39112">
        <ele>12.16</ele>
        <time>2020-06-27T14:32:34Z</time>
      </trkpt>
      <trkpt lat="47.13968" lon="-1.39139">
        <ele>11.96</ele>
        <time>2020-06-27T14:32:36Z</time>
      </trkpt>
      <trkpt lat="47.13969" lon="-1.39165">
        <ele>11.95</ele>
        <time>2020-06-27T14:32:38Z</time>
      </trkpt>
      <trkpt lat="47.1397" lon="-1.39188">
        <ele>12.24</ele>
        <time>2020-06-27T14:32:40Z</time>
      </trkpt>
      <trkpt lat="47.13971" lon="-1.39211">
        <ele>12.17</ele>
        <time>2020-06-27T14:32:42Z</time>
      </trkpt>
      <trkpt lat="47.13971" lon="-1.39232">
        <ele>11.15</ele>
        <time>2020-06-27T14:32:44Z</time>
      </trkpt>
      <trkpt lat="47.13971" lon="-1.39256">
        <ele>11.57</ele>
        <time>2020-06-27T14:32:46Z</time>
      </trkpt>
      <trkpt lat="47.13971" lon="-1.39272">
        <ele>11.96</ele>
        <time>2020-06-27T14:32:48Z</time>
      </trkpt>
      <trkpt lat="47.13969" lon="-1.39289">
        <ele>12.33</ele>
        <time>2020-06-27T14:32:50Z</time>
      </trkpt>
      <trkpt lat="47.13966" lon="-1.3931">
        <ele>12.56</ele>
        <time>2020-06-27T14:32:53Z</time>
      </trkpt>
      <trkpt lat="47.13964" lon="-1.39329">
        <ele>12.27</ele>
        <time>2020-06-27T14:32:55Z</time>
      </trkpt>
      <trkpt lat="47.13961" lon="-1.39343">
        <ele>13.07</ele>
        <time>2020-06-27T14:32:57Z</time>
      </trkpt>
      <trkpt lat="47.13959" lon="-1.39359">
        <ele>14.04</ele>
        <time>2020-06-27T14:32:59Z</time>
      </trkpt>
      <trkpt lat="47.13957" lon="-1.39378">
        <ele>14.22</ele>
        <time>2020-06-27T14:33:01Z</time>
      </trkpt>
      <trkpt lat="47.13954" lon="-1.39393">
        <ele>14.66</ele>
        <time>2020-06-27T14:33:03Z</time>
      </trkpt>
      <trkpt lat="47.13952" lon="-1.39407">
        <ele>14.93</ele>
        <time>2020-06-27T14:33:05Z</time>
      </trkpt>
      <trkpt lat="47.13951" lon="-1.39422">
        <ele>15.8</ele>
        <time>2020-06-27T14:33:07Z</time>
      </trkpt>
      <trkpt lat="47.13949" lon="-1.39441">
        <ele>18.18</ele>
        <time>2020-06-27T14:33:10Z</time>
      </trkpt>
      <trkpt lat="47.13948" lon="-1.39457">
        <ele>18.91</ele>
        <time>2020-06-27T14:33:12Z</time>
      </trkpt>
      <trkpt lat="47.13945" lon="-1.39471">
        <ele>18.85</ele>
        <time>2020-06-27T14:33:14Z</time>
      </trkpt>
      <trkpt lat="47.13944" lon="-1.39487">
        <ele>19.04</ele>
        <time>2020-06-27T14:33:16Z</time>
      </trkpt>
      <trkpt lat="47.13941" lon="-1.39502">
        <ele>20.1</ele>
        <time>2020-06-27T14:33:18Z</time>
      </trkpt>
      <trkpt lat="47.13939" lon="-1.39516">
        <ele>20.31</ele>
        <time>2020-06-27T14:33:20Z</time>
      </trkpt>
      <trkpt lat="47.13938" lon="-1.3953">
        <ele>20.12</ele>
        <time>2020-06-27T14:33:22Z</time>
      </trkpt>
      <trkpt lat="47.13938" lon="-1.39543">
        <ele>20.06</ele>
        <time>2020-06-27T14:33:25Z</time>
      </trkpt>
      <trkpt lat="47.13937" lon="-1.39559">
        <ele>21.38</ele>
        <time>2020-06-27T14:33:27Z</time>
      </trkpt>
      <trkpt lat="47.13935" lon="-1.39574">
        <ele>22.79</ele>
        <time>2020-06-27T14:33:29Z</time>
      </trkpt>
      <trkpt lat="47.13931" lon="-1.39594">
        <ele>22.75</ele>
        <time>2020-06-27T14:33:32Z</time>
      </trkpt>
      <trkpt lat="47.13928" lon="-1.39609">
        <ele>21.59</ele>
        <time>2020-06-27T14:33:34Z</time>
      </trkpt>
      <trkpt lat="47.13926" lon="-1.39622">
        <ele>20.79</ele>
        <time>2020-06-27T14:33:36Z</time>
      </trkpt>
      <trkpt lat="47.13922" lon="-1.39636">
        <ele>20.67</ele>
        <time>2020-06-27T14:33:38Z</time>
      </trkpt>
      <trkpt lat="47.13919" lon="-1.3965">
        <ele>20.86</ele>
        <time>2020-06-27T14:33:40Z</time>
      </trkpt>
      <trkpt lat="47.13916" lon="-1.39663">
        <ele>21.42</ele>
        <time>2020-06-27T14:33:42Z</time>
      </trkpt>
      <trkpt lat="47.13913" lon="-1.39676">
        <ele>21.58</ele>
        <time>2020-06-27T14:33:44Z</time>
      </trkpt>
      <trkpt lat="47.13909" lon="-1.39691">
        <ele>20.97</ele>
        <time>2020-06-27T14:33:46Z</time>
      </trkpt>
      <trkpt lat="47.13904" lon="-1.39711">
        <ele>21.98</ele>
        <time>2020-06-27T14:33:49Z</time>
      </trkpt>
      <trkpt lat="47.13901" lon="-1.39725">
        <ele>22.91</ele>
        <time>2020-06-27T14:33:51Z</time>
      </trkpt>
      <trkpt lat="47.13899" lon="-1.39738">
        <ele>22.51</ele>
        <time>2020-06-27T14:33:53Z</time>
      </trkpt>
      <trkpt lat="47.13897" lon="-1.39751">
        <ele>21.78</ele>
        <time>2020-06-27T14:33:55Z</time>
      </trkpt>
      <trkpt lat="47.13895" lon="-1.39767">
        <ele>20.73</ele>
        <time>2020-06-27T14:33:57Z</time>
      </trkpt>
      <trkpt lat="47.13895" lon="-1.39782">
        <ele>20.63</ele>
        <time>2020-06-27T14:33:59Z</time>
      </trkpt>
      <trkpt lat="47.13895" lon="-1.39796">
        <ele>21.89</ele>
        <time>2020-06-27T14:34:01Z</time>
      </trkpt>
      <trkpt lat="47.13896" lon="-1.39812">
        <ele>22.93</ele>
        <time>2020-06-27T14:34:03Z</time>
      </trkpt>
      <trkpt lat="47.13898" lon="-1.39831">
        <ele>23.82</ele>
        <time>2020-06-27T14:34:06Z</time>
      </trkpt>
      <trkpt lat="47.139" lon="-1.39845">
        <ele>24.65</ele>
        <time>2020-06-27T14:34:08Z</time>
      </trkpt>
      <trkpt lat="47.13903" lon="-1.39859">
        <ele>25.23</ele>
        <time>2020-06-27T14:34:10Z</time>
      </trkpt>
      <trkpt lat="47.13905" lon="-1.39874">
        <ele>25.79</ele>
        <time>2020-06-27T14:34:12Z</time>
      </trkpt>
      <trkpt lat="47.13907" lon="-1.39892">
        <ele>25.78</ele>
        <time>2020-06-27T14:34:15Z</time>
      </trkpt>
      <trkpt lat="47.13909" lon="-1.39908">
        <ele>26.04</ele>
        <time>2020-06-27T14:34:17Z</time>
      </trkpt>
      <trkpt lat="47.1391" lon="-1.39922">
        <ele>25.79</ele>
        <time>2020-06-27T14:34:19Z</time>
      </trkpt>
      <trkpt lat="47.13913" lon="-1.39941">
        <ele>27.74</ele>
        <time>2020-06-27T14:34:22Z</time>
      </trkpt>
      <trkpt lat="47.13915" lon="-1.39957">
        <ele>29</ele>
        <time>2020-06-27T14:34:25Z</time>
      </trkpt>
      <trkpt lat="47.13918" lon="-1.39971">
        <ele>29.84</ele>
        <time>2020-06-27T14:34:27Z</time>
      </trkpt>
      <trkpt lat="47.1392" lon="-1.39987">
        <ele>30.2</ele>
        <time>2020-06-27T14:34:29Z</time>
      </trkpt>
      <trkpt lat="47.13923" lon="-1.40001">
        <ele>29.96</ele>
        <time>2020-06-27T14:34:31Z</time>
      </trkpt>
      <trkpt lat="47.13926" lon="-1.40018">
        <ele>30.04</ele>
        <time>2020-06-27T14:34:34Z</time>
      </trkpt>
      <trkpt lat="47.1393" lon="-1.40035">
        <ele>30.11</ele>
        <time>2020-06-27T14:34:37Z</time>
      </trkpt>
      <trkpt lat="47.13935" lon="-1.40049">
        <ele>30.74</ele>
        <time>2020-06-27T14:34:39Z</time>
      </trkpt>
      <trkpt lat="47.13941" lon="-1.40065">
        <ele>30.77</ele>
        <time>2020-06-27T14:34:42Z</time>
      </trkpt>
      <trkpt lat="47.13946" lon="-1.40077">
        <ele>30.8</ele>
        <time>2020-06-27T14:34:44Z</time>
      </trkpt>
      <trkpt lat="47.13954" lon="-1.40094">
        <ele>32.56</ele>
        <time>2020-06-27T14:34:47Z</time>
      </trkpt>
      <trkpt lat="47.1396" lon="-1.40105">
        <ele>32.72</ele>
        <time>2020-06-27T14:34:49Z</time>
      </trkpt>
      <trkpt lat="47.13966" lon="-1.40119">
        <ele>33.71</ele>
        <time>2020-06-27T14:34:51Z</time>
      </trkpt>
      <trkpt lat="47.1397" lon="-1.40131">
        <ele>33.85</ele>
        <time>2020-06-27T14:34:53Z</time>
      </trkpt>
      <trkpt lat="47.13975" lon="-1.40143">
        <ele>33.69</ele>
        <time>2020-06-27T14:34:55Z</time>
      </trkpt>
      <trkpt lat="47.1398" lon="-1.40156">
        <ele>33.91</ele>
        <time>2020-06-27T14:34:57Z</time>
      </trkpt>
      <trkpt lat="47.13984" lon="-1.40168">
        <ele>34.73</ele>
        <time>2020-06-27T14:34:59Z</time>
      </trkpt>
      <trkpt lat="47.13988" lon="-1.40182">
        <ele>34.54</ele>
        <time>2020-06-27T14:35:01Z</time>
      </trkpt>
      <trkpt lat="47.13993" lon="-1.40196">
        <ele>34.62</ele>
        <time>2020-06-27T14:35:03Z</time>
      </trkpt>
      <trkpt lat="47.13998" lon="-1.40209">
        <ele>33.58</ele>
        <time>2020-06-27T14:35:05Z</time>
      </trkpt>
      <trkpt lat="47.14004" lon="-1.40226">
        <ele>34.65</ele>
        <time>2020-06-27T14:35:08Z</time>
      </trkpt>
      <trkpt lat="47.14009" lon="-1.40238">
        <ele>35</ele>
        <time>2020-06-27T14:35:10Z</time>
      </trkpt>
      <trkpt lat="47.14012" lon="-1.4025">
        <ele>35.81</ele>
        <time>2020-06-27T14:35:12Z</time>
      </trkpt>
      <trkpt lat="47.14017" lon="-1.40266">
        <ele>36.87</ele>
        <time>2020-06-27T14:35:14Z</time>
      </trkpt>
      <trkpt lat="47.14021" lon="-1.4028">
        <ele>36.55</ele>
        <time>2020-06-27T14:35:16Z</time>
      </trkpt>
      <trkpt lat="47.14025" lon="-1.40296">
        <ele>35.12</ele>
        <time>2020-06-27T14:35:18Z</time>
      </trkpt>
      <trkpt lat="47.14025" lon="-1.40316">
        <ele>34.11</ele>
        <time>2020-06-27T14:35:21Z</time>
      </trkpt>
      <trkpt lat="47.14026" lon="-1.40332">
        <ele>35.64</ele>
        <time>2020-06-27T14:35:24Z</time>
      </trkpt>
      <trkpt lat="47.14032" lon="-1.40346">
        <ele>36.52</ele>
        <time>2020-06-27T14:35:26Z</time>
      </trkpt>
      <trkpt lat="47.14037" lon="-1.40359">
        <ele>36.8</ele>
        <time>2020-06-27T14:35:28Z</time>
      </trkpt>
      <trkpt lat="47.14042" lon="-1.40373">
        <ele>36.87</ele>
        <time>2020-06-27T14:35:30Z</time>
      </trkpt>
      <trkpt lat="47.14047" lon="-1.40388">
        <ele>36.35</ele>
        <time>2020-06-27T14:35:32Z</time>
      </trkpt>
      <trkpt lat="47.14051" lon="-1.404">
        <ele>36</ele>
        <time>2020-06-27T14:35:34Z</time>
      </trkpt>
      <trkpt lat="47.14056" lon="-1.40414">
        <ele>35.21</ele>
        <time>2020-06-27T14:35:36Z</time>
      </trkpt>
      <trkpt lat="47.1406" lon="-1.40426">
        <ele>34.51</ele>
        <time>2020-06-27T14:35:38Z</time>
      </trkpt>
      <trkpt lat="47.14066" lon="-1.40442">
        <ele>34.1</ele>
        <time>2020-06-27T14:35:40Z</time>
      </trkpt>
      <trkpt lat="47.14071" lon="-1.40456">
        <ele>35.24</ele>
        <time>2020-06-27T14:35:42Z</time>
      </trkpt>
      <trkpt lat="47.14077" lon="-1.40468">
        <ele>35.29</ele>
        <time>2020-06-27T14:35:44Z</time>
      </trkpt>
      <trkpt lat="47.14083" lon="-1.40478">
        <ele>36.71</ele>
        <time>2020-06-27T14:35:46Z</time>
      </trkpt>
      <trkpt lat="47.14091" lon="-1.4049">
        <ele>37.24</ele>
        <time>2020-06-27T14:35:48Z</time>
      </trkpt>
      <trkpt lat="47.14097" lon="-1.40499">
        <ele>37.17</ele>
        <time>2020-06-27T14:35:50Z</time>
      </trkpt>
      <trkpt lat="47.14106" lon="-1.40511">
        <ele>35.99</ele>
        <time>2020-06-27T14:35:52Z</time>
      </trkpt>
      <trkpt lat="47.14113" lon="-1.40522">
        <ele>36.31</ele>
        <time>2020-06-27T14:35:54Z</time>
      </trkpt>
      <trkpt lat="47.14122" lon="-1.40534">
        <ele>35.29</ele>
        <time>2020-06-27T14:35:56Z</time>
      </trkpt>
      <trkpt lat="47.14131" lon="-1.40547">
        <ele>34.27</ele>
        <time>2020-06-27T14:35:58Z</time>
      </trkpt>
      <trkpt lat="47.14139" lon="-1.40559">
        <ele>33.83</ele>
        <time>2020-06-27T14:36:00Z</time>
      </trkpt>
      <trkpt lat="47.14148" lon="-1.40571">
        <ele>32.85</ele>
        <time>2020-06-27T14:36:02Z</time>
      </trkpt>
      <trkpt lat="47.14156" lon="-1.40583">
        <ele>33.77</ele>
        <time>2020-06-27T14:36:04Z</time>
      </trkpt>
      <trkpt lat="47.14163" lon="-1.40592">
        <ele>34.99</ele>
        <time>2020-06-27T14:36:06Z</time>
      </trkpt>
      <trkpt lat="47.14171" lon="-1.40604">
        <ele>36.22</ele>
        <time>2020-06-27T14:36:08Z</time>
      </trkpt>
      <trkpt lat="47.1418" lon="-1.40617">
        <ele>36.25</ele>
        <time>2020-06-27T14:36:10Z</time>
      </trkpt>
      <trkpt lat="47.1419" lon="-1.40629">
        <ele>35.37</ele>
        <time>2020-06-27T14:36:12Z</time>
      </trkpt>
      <trkpt lat="47.142" lon="-1.40643">
        <ele>34.44</ele>
        <time>2020-06-27T14:36:14Z</time>
      </trkpt>
      <trkpt lat="47.14209" lon="-1.40657">
        <ele>34.15</ele>
        <time>2020-06-27T14:36:16Z</time>
      </trkpt>
      <trkpt lat="47.14219" lon="-1.4067">
        <ele>34.13</ele>
        <time>2020-06-27T14:36:18Z</time>
      </trkpt>
      <trkpt lat="47.14228" lon="-1.40683">
        <ele>34.24</ele>
        <time>2020-06-27T14:36:20Z</time>
      </trkpt>
      <trkpt lat="47.14238" lon="-1.40698">
        <ele>34.51</ele>
        <time>2020-06-27T14:36:22Z</time>
      </trkpt>
      <trkpt lat="47.14247" lon="-1.40713">
        <ele>34.14</ele>
        <time>2020-06-27T14:36:24Z</time>
      </trkpt>
      <trkpt lat="47.14256" lon="-1.40729">
        <ele>33.58</ele>
        <time>2020-06-27T14:36:26Z</time>
      </trkpt>
      <trkpt lat="47.14264" lon="-1.40745">
        <ele>33.84</ele>
        <time>2020-06-27T14:36:28Z</time>
      </trkpt>
      <trkpt lat="47.14272" lon="-1.40759">
        <ele>34.4</ele>
        <time>2020-06-27T14:36:30Z</time>
      </trkpt>
      <trkpt lat="47.14281" lon="-1.40776">
        <ele>34.42</ele>
        <time>2020-06-27T14:36:32Z</time>
      </trkpt>
      <trkpt lat="47.14289" lon="-1.40793">
        <ele>34.18</ele>
        <time>2020-06-27T14:36:34Z</time>
      </trkpt>
      <trkpt lat="47.14298" lon="-1.4081">
        <ele>33.95</ele>
        <time>2020-06-27T14:36:36Z</time>
      </trkpt>
      <trkpt lat="47.14306" lon="-1.40825">
        <ele>33.76</ele>
        <time>2020-06-27T14:36:38Z</time>
      </trkpt>
      <trkpt lat="47.14313" lon="-1.40838">
        <ele>33.9</ele>
        <time>2020-06-27T14:36:40Z</time>
      </trkpt>
      <trkpt lat="47.14321" lon="-1.40851">
        <ele>34.97</ele>
        <time>2020-06-27T14:36:42Z</time>
      </trkpt>
      <trkpt lat="47.1433" lon="-1.40866">
        <ele>34.96</ele>
        <time>2020-06-27T14:36:44Z</time>
      </trkpt>
      <trkpt lat="47.14336" lon="-1.40877">
        <ele>33.27</ele>
        <time>2020-06-27T14:36:46Z</time>
      </trkpt>
      <trkpt lat="47.14342" lon="-1.40889">
        <ele>32.35</ele>
        <time>2020-06-27T14:36:48Z</time>
      </trkpt>
      <trkpt lat="47.14348" lon="-1.40901">
        <ele>32.57</ele>
        <time>2020-06-27T14:36:50Z</time>
      </trkpt>
      <trkpt lat="47.14354" lon="-1.40913">
        <ele>32.42</ele>
        <time>2020-06-27T14:36:52Z</time>
      </trkpt>
      <trkpt lat="47.14363" lon="-1.40929">
        <ele>32.15</ele>
        <time>2020-06-27T14:36:55Z</time>
      </trkpt>
      <trkpt lat="47.1437" lon="-1.40941">
        <ele>32.01</ele>
        <time>2020-06-27T14:36:57Z</time>
      </trkpt>
      <trkpt lat="47.14378" lon="-1.40954">
        <ele>32.36</ele>
        <time>2020-06-27T14:37:00Z</time>
      </trkpt>
      <trkpt lat="47.14386" lon="-1.40968">
        <ele>32.55</ele>
        <time>2020-06-27T14:37:02Z</time>
      </trkpt>
      <trkpt lat="47.14392" lon="-1.4098">
        <ele>33.75</ele>
        <time>2020-06-27T14:37:04Z</time>
      </trkpt>
      <trkpt lat="47.14397" lon="-1.40992">
        <ele>34.01</ele>
        <time>2020-06-27T14:37:06Z</time>
      </trkpt>
      <trkpt lat="47.14404" lon="-1.4101">
        <ele>34.75</ele>
        <time>2020-06-27T14:37:09Z</time>
      </trkpt>
      <trkpt lat="47.14408" lon="-1.41024">
        <ele>35.48</ele>
        <time>2020-06-27T14:37:11Z</time>
      </trkpt>
      <trkpt lat="47.14409" lon="-1.41038">
        <ele>35.92</ele>
        <time>2020-06-27T14:37:13Z</time>
      </trkpt>
      <trkpt lat="47.14411" lon="-1.41053">
        <ele>36.12</ele>
        <time>2020-06-27T14:37:15Z</time>
      </trkpt>
      <trkpt lat="47.14409" lon="-1.4107">
        <ele>34.77</ele>
        <time>2020-06-27T14:37:17Z</time>
      </trkpt>
      <trkpt lat="47.14408" lon="-1.41087">
        <ele>32.79</ele>
        <time>2020-06-27T14:37:20Z</time>
      </trkpt>
      <trkpt lat="47.14406" lon="-1.41106">
        <ele>30.94</ele>
        <time>2020-06-27T14:37:23Z</time>
      </trkpt>
      <trkpt lat="47.14405" lon="-1.41122">
        <ele>31.08</ele>
        <time>2020-06-27T14:37:25Z</time>
      </trkpt>
      <trkpt lat="47.14404" lon="-1.41137">
        <ele>31.17</ele>
        <time>2020-06-27T14:37:27Z</time>
      </trkpt>
      <trkpt lat="47.14403" lon="-1.4115">
        <ele>30.73</ele>
        <time>2020-06-27T14:37:29Z</time>
      </trkpt>
      <trkpt lat="47.14402" lon="-1.41165">
        <ele>30.72</ele>
        <time>2020-06-27T14:37:31Z</time>
      </trkpt>
      <trkpt lat="47.14401" lon="-1.4118">
        <ele>30.92</ele>
        <time>2020-06-27T14:37:33Z</time>
      </trkpt>
      <trkpt lat="47.144" lon="-1.41196">
        <ele>30.85</ele>
        <time>2020-06-27T14:37:36Z</time>
      </trkpt>
      <trkpt lat="47.14399" lon="-1.4121">
        <ele>31.75</ele>
        <time>2020-06-27T14:37:38Z</time>
      </trkpt>
      <trkpt lat="47.14398" lon="-1.41226">
        <ele>32.43</ele>
        <time>2020-06-27T14:37:40Z</time>
      </trkpt>
      <trkpt lat="47.14398" lon="-1.41242">
        <ele>32.95</ele>
        <time>2020-06-27T14:37:42Z</time>
      </trkpt>
      <trkpt lat="47.14397" lon="-1.41258">
        <ele>32.99</ele>
        <time>2020-06-27T14:37:44Z</time>
      </trkpt>
      <trkpt lat="47.14396" lon="-1.41274">
        <ele>32.95</ele>
        <time>2020-06-27T14:37:46Z</time>
      </trkpt>
      <trkpt lat="47.14395" lon="-1.41293">
        <ele>32.38</ele>
        <time>2020-06-27T14:37:49Z</time>
      </trkpt>
      <trkpt lat="47.14394" lon="-1.41307">
        <ele>32.86</ele>
        <time>2020-06-27T14:37:51Z</time>
      </trkpt>
      <trkpt lat="47.14393" lon="-1.41324">
        <ele>33.61</ele>
        <time>2020-06-27T14:37:53Z</time>
      </trkpt>
      <trkpt lat="47.14393" lon="-1.41338">
        <ele>34.17</ele>
        <time>2020-06-27T14:37:55Z</time>
      </trkpt>
      <trkpt lat="47.14393" lon="-1.41353">
        <ele>34.3</ele>
        <time>2020-06-27T14:37:57Z</time>
      </trkpt>
      <trkpt lat="47.14394" lon="-1.41367">
        <ele>34.28</ele>
        <time>2020-06-27T14:37:59Z</time>
      </trkpt>
      <trkpt lat="47.14395" lon="-1.41387">
        <ele>33.03</ele>
        <time>2020-06-27T14:38:02Z</time>
      </trkpt>
      <trkpt lat="47.14396" lon="-1.41405">
        <ele>32.18</ele>
        <time>2020-06-27T14:38:04Z</time>
      </trkpt>
      <trkpt lat="47.14396" lon="-1.41426">
        <ele>32.28</ele>
        <time>2020-06-27T14:38:07Z</time>
      </trkpt>
      <trkpt lat="47.14396" lon="-1.41445">
        <ele>32.7</ele>
        <time>2020-06-27T14:38:10Z</time>
      </trkpt>
      <trkpt lat="47.14396" lon="-1.41465">
        <ele>33.17</ele>
        <time>2020-06-27T14:38:13Z</time>
      </trkpt>
      <trkpt lat="47.14396" lon="-1.4148">
        <ele>33.65</ele>
        <time>2020-06-27T14:38:15Z</time>
      </trkpt>
      <trkpt lat="47.14395" lon="-1.41496">
        <ele>34.3</ele>
        <time>2020-06-27T14:38:17Z</time>
      </trkpt>
      <trkpt lat="47.14395" lon="-1.41513">
        <ele>34.91</ele>
        <time>2020-06-27T14:38:19Z</time>
      </trkpt>
      <trkpt lat="47.14396" lon="-1.41527">
        <ele>35.25</ele>
        <time>2020-06-27T14:38:21Z</time>
      </trkpt>
      <trkpt lat="47.14397" lon="-1.41546">
        <ele>36.23</ele>
        <time>2020-06-27T14:38:24Z</time>
      </trkpt>
      <trkpt lat="47.14397" lon="-1.4156">
        <ele>36.83</ele>
        <time>2020-06-27T14:38:26Z</time>
      </trkpt>
      <trkpt lat="47.14397" lon="-1.41574">
        <ele>37.38</ele>
        <time>2020-06-27T14:38:28Z</time>
      </trkpt>
      <trkpt lat="47.14397" lon="-1.41593">
        <ele>37.52</ele>
        <time>2020-06-27T14:38:31Z</time>
      </trkpt>
      <trkpt lat="47.14393" lon="-1.41611">
        <ele>36.82</ele>
        <time>2020-06-27T14:38:34Z</time>
      </trkpt>
      <trkpt lat="47.14389" lon="-1.41626">
        <ele>36.53</ele>
        <time>2020-06-27T14:38:36Z</time>
      </trkpt>
      <trkpt lat="47.14384" lon="-1.41642">
        <ele>35.44</ele>
        <time>2020-06-27T14:38:38Z</time>
      </trkpt>
      <trkpt lat="47.14382" lon="-1.41655">
        <ele>34.79</ele>
        <time>2020-06-27T14:38:40Z</time>
      </trkpt>
      <trkpt lat="47.14383" lon="-1.4167">
        <ele>35.07</ele>
        <time>2020-06-27T14:38:42Z</time>
      </trkpt>
      <trkpt lat="47.14386" lon="-1.41686">
        <ele>34.97</ele>
        <time>2020-06-27T14:38:44Z</time>
      </trkpt>
      <trkpt lat="47.1439" lon="-1.41701">
        <ele>34.7</ele>
        <time>2020-06-27T14:38:46Z</time>
      </trkpt>
      <trkpt lat="47.14395" lon="-1.41717">
        <ele>33.51</ele>
        <time>2020-06-27T14:38:48Z</time>
      </trkpt>
      <trkpt lat="47.144" lon="-1.41734">
        <ele>32.56</ele>
        <time>2020-06-27T14:38:50Z</time>
      </trkpt>
      <trkpt lat="47.14403" lon="-1.4175">
        <ele>32.57</ele>
        <time>2020-06-27T14:38:52Z</time>
      </trkpt>
      <trkpt lat="47.14406" lon="-1.41768">
        <ele>32.08</ele>
        <time>2020-06-27T14:38:54Z</time>
      </trkpt>
      <trkpt lat="47.14408" lon="-1.41789">
        <ele>30.79</ele>
        <time>2020-06-27T14:38:56Z</time>
      </trkpt>
      <trkpt lat="47.14409" lon="-1.41812">
        <ele>29.7</ele>
        <time>2020-06-27T14:38:58Z</time>
      </trkpt>
      <trkpt lat="47.14409" lon="-1.41832">
        <ele>28.67</ele>
        <time>2020-06-27T14:39:00Z</time>
      </trkpt>
      <trkpt lat="47.1441" lon="-1.41851">
        <ele>28.54</ele>
        <time>2020-06-27T14:39:02Z</time>
      </trkpt>
      <trkpt lat="47.14412" lon="-1.41871">
        <ele>27.84</ele>
        <time>2020-06-27T14:39:04Z</time>
      </trkpt>
      <trkpt lat="47.14416" lon="-1.41893">
        <ele>27.79</ele>
        <time>2020-06-27T14:39:06Z</time>
      </trkpt>
      <trkpt lat="47.14421" lon="-1.41917">
        <ele>28.57</ele>
        <time>2020-06-27T14:39:08Z</time>
      </trkpt>
      <trkpt lat="47.14426" lon="-1.41937">
        <ele>29.01</ele>
        <time>2020-06-27T14:39:10Z</time>
      </trkpt>
      <trkpt lat="47.14431" lon="-1.41957">
        <ele>29.76</ele>
        <time>2020-06-27T14:39:12Z</time>
      </trkpt>
      <trkpt lat="47.14437" lon="-1.41978">
        <ele>29.92</ele>
        <time>2020-06-27T14:39:14Z</time>
      </trkpt>
      <trkpt lat="47.14441" lon="-1.41999">
        <ele>28.92</ele>
        <time>2020-06-27T14:39:16Z</time>
      </trkpt>
      <trkpt lat="47.14446" lon="-1.42019">
        <ele>27.97</ele>
        <time>2020-06-27T14:39:18Z</time>
      </trkpt>
      <trkpt lat="47.14452" lon="-1.42038">
        <ele>26.64</ele>
        <time>2020-06-27T14:39:20Z</time>
      </trkpt>
      <trkpt lat="47.14459" lon="-1.4206">
        <ele>25.03</ele>
        <time>2020-06-27T14:39:22Z</time>
      </trkpt>
      <trkpt lat="47.14468" lon="-1.42082">
        <ele>24.39</ele>
        <time>2020-06-27T14:39:24Z</time>
      </trkpt>
      <trkpt lat="47.14476" lon="-1.42102">
        <ele>23.94</ele>
        <time>2020-06-27T14:39:26Z</time>
      </trkpt>
      <trkpt lat="47.14485" lon="-1.42122">
        <ele>23.97</ele>
        <time>2020-06-27T14:39:28Z</time>
      </trkpt>
      <trkpt lat="47.1449" lon="-1.42133">
        <ele>23.86</ele>
        <time>2020-06-27T14:39:29Z</time>
      </trkpt>
      <trkpt lat="47.14499" lon="-1.42154">
        <ele>23.95</ele>
        <time>2020-06-27T14:39:31Z</time>
      </trkpt>
      <trkpt lat="47.14508" lon="-1.42176">
        <ele>23.95</ele>
        <time>2020-06-27T14:39:33Z</time>
      </trkpt>
      <trkpt lat="47.14516" lon="-1.42197">
        <ele>24.14</ele>
        <time>2020-06-27T14:39:35Z</time>
      </trkpt>
      <trkpt lat="47.14524" lon="-1.4222">
        <ele>23.74</ele>
        <time>2020-06-27T14:39:37Z</time>
      </trkpt>
      <trkpt lat="47.14531" lon="-1.42242">
        <ele>22.21</ele>
        <time>2020-06-27T14:39:39Z</time>
      </trkpt>
      <trkpt lat="47.14539" lon="-1.42264">
        <ele>20.95</ele>
        <time>2020-06-27T14:39:41Z</time>
      </trkpt>
      <trkpt lat="47.14547" lon="-1.42286">
        <ele>19.98</ele>
        <time>2020-06-27T14:39:43Z</time>
      </trkpt>
      <trkpt lat="47.14556" lon="-1.42303">
        <ele>20.67</ele>
        <time>2020-06-27T14:39:45Z</time>
      </trkpt>
      <trkpt lat="47.14565" lon="-1.42318">
        <ele>20.41</ele>
        <time>2020-06-27T14:39:47Z</time>
      </trkpt>
      <trkpt lat="47.14574" lon="-1.42331">
        <ele>19.98</ele>
        <time>2020-06-27T14:39:49Z</time>
      </trkpt>
      <trkpt lat="47.14584" lon="-1.42341">
        <ele>20.57</ele>
        <time>2020-06-27T14:39:51Z</time>
      </trkpt>
      <trkpt lat="47.14596" lon="-1.42354">
        <ele>19.75</ele>
        <time>2020-06-27T14:39:53Z</time>
      </trkpt>
      <trkpt lat="47.14605" lon="-1.42363">
        <ele>19.12</ele>
        <time>2020-06-27T14:39:55Z</time>
      </trkpt>
      <trkpt lat="47.14614" lon="-1.42371">
        <ele>19.44</ele>
        <time>2020-06-27T14:39:57Z</time>
      </trkpt>
      <trkpt lat="47.14623" lon="-1.42379">
        <ele>20.8</ele>
        <time>2020-06-27T14:39:59Z</time>
      </trkpt>
      <trkpt lat="47.14632" lon="-1.42387">
        <ele>21.8</ele>
        <time>2020-06-27T14:40:01Z</time>
      </trkpt>
      <trkpt lat="47.14642" lon="-1.42398">
        <ele>22.94</ele>
        <time>2020-06-27T14:40:03Z</time>
      </trkpt>
      <trkpt lat="47.14651" lon="-1.42406">
        <ele>24.07</ele>
        <time>2020-06-27T14:40:05Z</time>
      </trkpt>
      <trkpt lat="47.14658" lon="-1.42412">
        <ele>24.46</ele>
        <time>2020-06-27T14:40:07Z</time>
      </trkpt>
      <trkpt lat="47.14669" lon="-1.42423">
        <ele>24.53</ele>
        <time>2020-06-27T14:40:09Z</time>
      </trkpt>
      <trkpt lat="47.1468" lon="-1.42432">
        <ele>24.68</ele>
        <time>2020-06-27T14:40:11Z</time>
      </trkpt>
      <trkpt lat="47.1469" lon="-1.42442">
        <ele>25.51</ele>
        <time>2020-06-27T14:40:14Z</time>
      </trkpt>
      <trkpt lat="47.14698" lon="-1.4245">
        <ele>24.82</ele>
        <time>2020-06-27T14:40:16Z</time>
      </trkpt>
      <trkpt lat="47.14706" lon="-1.42458">
        <ele>25.29</ele>
        <time>2020-06-27T14:40:18Z</time>
      </trkpt>
      <trkpt lat="47.14714" lon="-1.42467">
        <ele>24.8</ele>
        <time>2020-06-27T14:40:20Z</time>
      </trkpt>
      <trkpt lat="47.14723" lon="-1.42476">
        <ele>24.62</ele>
        <time>2020-06-27T14:40:22Z</time>
      </trkpt>
      <trkpt lat="47.14732" lon="-1.42485">
        <ele>24.03</ele>
        <time>2020-06-27T14:40:24Z</time>
      </trkpt>
      <trkpt lat="47.14739" lon="-1.42493">
        <ele>23.81</ele>
        <time>2020-06-27T14:40:26Z</time>
      </trkpt>
      <trkpt lat="47.14747" lon="-1.42501">
        <ele>24</ele>
        <time>2020-06-27T14:40:28Z</time>
      </trkpt>
      <trkpt lat="47.14756" lon="-1.42509">
        <ele>25.07</ele>
        <time>2020-06-27T14:40:30Z</time>
      </trkpt>
      <trkpt lat="47.14765" lon="-1.42517">
        <ele>26.29</ele>
        <time>2020-06-27T14:40:32Z</time>
      </trkpt>
      <trkpt lat="47.14773" lon="-1.42525">
        <ele>27.41</ele>
        <time>2020-06-27T14:40:34Z</time>
      </trkpt>
      <trkpt lat="47.14782" lon="-1.42536">
        <ele>28.74</ele>
        <time>2020-06-27T14:40:37Z</time>
      </trkpt>
      <trkpt lat="47.1479" lon="-1.42544">
        <ele>29.4</ele>
        <time>2020-06-27T14:40:39Z</time>
      </trkpt>
      <trkpt lat="47.14797" lon="-1.42553">
        <ele>31.13</ele>
        <time>2020-06-27T14:40:41Z</time>
      </trkpt>
      <trkpt lat="47.14806" lon="-1.42561">
        <ele>32.67</ele>
        <time>2020-06-27T14:40:43Z</time>
      </trkpt>
      <trkpt lat="47.14815" lon="-1.42571">
        <ele>33.31</ele>
        <time>2020-06-27T14:40:45Z</time>
      </trkpt>
      <trkpt lat="47.14823" lon="-1.42582">
        <ele>32.76</ele>
        <time>2020-06-27T14:40:47Z</time>
      </trkpt>
      <trkpt lat="47.14832" lon="-1.42594">
        <ele>31.94</ele>
        <time>2020-06-27T14:40:49Z</time>
      </trkpt>
      <trkpt lat="47.14841" lon="-1.42608">
        <ele>31.21</ele>
        <time>2020-06-27T14:40:51Z</time>
      </trkpt>
      <trkpt lat="47.1485" lon="-1.42619">
        <ele>30.76</ele>
        <time>2020-06-27T14:40:53Z</time>
      </trkpt>
      <trkpt lat="47.14859" lon="-1.42632">
        <ele>30.51</ele>
        <time>2020-06-27T14:40:55Z</time>
      </trkpt>
      <trkpt lat="47.14869" lon="-1.42644">
        <ele>30.72</ele>
        <time>2020-06-27T14:40:57Z</time>
      </trkpt>
      <trkpt lat="47.14877" lon="-1.42656">
        <ele>30.48</ele>
        <time>2020-06-27T14:40:59Z</time>
      </trkpt>
      <trkpt lat="47.14886" lon="-1.42669">
        <ele>30.6</ele>
        <time>2020-06-27T14:41:01Z</time>
      </trkpt>
      <trkpt lat="47.14895" lon="-1.42682">
        <ele>29.48</ele>
        <time>2020-06-27T14:41:03Z</time>
      </trkpt>
      <trkpt lat="47.14905" lon="-1.42696">
        <ele>28.54</ele>
        <time>2020-06-27T14:41:05Z</time>
      </trkpt>
      <trkpt lat="47.14915" lon="-1.42712">
        <ele>28.23</ele>
        <time>2020-06-27T14:41:07Z</time>
      </trkpt>
      <trkpt lat="47.14926" lon="-1.42729">
        <ele>28.37</ele>
        <time>2020-06-27T14:41:09Z</time>
      </trkpt>
      <trkpt lat="47.14935" lon="-1.42744">
        <ele>27.31</ele>
        <time>2020-06-27T14:41:11Z</time>
      </trkpt>
      <trkpt lat="47.14942" lon="-1.42754">
        <ele>26.88</ele>
        <time>2020-06-27T14:41:12Z</time>
      </trkpt>
      <trkpt lat="47.14952" lon="-1.4277">
        <ele>25.9</ele>
        <time>2020-06-27T14:41:14Z</time>
      </trkpt>
      <trkpt lat="47.14961" lon="-1.42784">
        <ele>24.94</ele>
        <time>2020-06-27T14:41:16Z</time>
      </trkpt>
      <trkpt lat="47.1497" lon="-1.42799">
        <ele>24.57</ele>
        <time>2020-06-27T14:41:18Z</time>
      </trkpt>
      <trkpt lat="47.14979" lon="-1.42814">
        <ele>24.07</ele>
        <time>2020-06-27T14:41:20Z</time>
      </trkpt>
      <trkpt lat="47.14989" lon="-1.4283">
        <ele>23.65</ele>
        <time>2020-06-27T14:41:22Z</time>
      </trkpt>
      <trkpt lat="47.14999" lon="-1.42846">
        <ele>23.48</ele>
        <time>2020-06-27T14:41:24Z</time>
      </trkpt>
      <trkpt lat="47.15009" lon="-1.42859">
        <ele>23.93</ele>
        <time>2020-06-27T14:41:26Z</time>
      </trkpt>
      <trkpt lat="47.15022" lon="-1.4287">
        <ele>24.59</ele>
        <time>2020-06-27T14:41:28Z</time>
      </trkpt>
      <trkpt lat="47.15034" lon="-1.42878">
        <ele>25.85</ele>
        <time>2020-06-27T14:41:30Z</time>
      </trkpt>
      <trkpt lat="47.15047" lon="-1.42883">
        <ele>26.19</ele>
        <time>2020-06-27T14:41:32Z</time>
      </trkpt>
      <trkpt lat="47.15061" lon="-1.42887">
        <ele>26.64</ele>
        <time>2020-06-27T14:41:34Z</time>
      </trkpt>
      <trkpt lat="47.15076" lon="-1.4289">
        <ele>26.65</ele>
        <time>2020-06-27T14:41:36Z</time>
      </trkpt>
      <trkpt lat="47.15088" lon="-1.42893">
        <ele>25.88</ele>
        <time>2020-06-27T14:41:38Z</time>
      </trkpt>
      <trkpt lat="47.151" lon="-1.42896">
        <ele>24.72</ele>
        <time>2020-06-27T14:41:40Z</time>
      </trkpt>
      <trkpt lat="47.15114" lon="-1.42899">
        <ele>23.14</ele>
        <time>2020-06-27T14:41:42Z</time>
      </trkpt>
      <trkpt lat="47.15127" lon="-1.42903">
        <ele>22.29</ele>
        <time>2020-06-27T14:41:44Z</time>
      </trkpt>
      <trkpt lat="47.1514" lon="-1.42908">
        <ele>22.85</ele>
        <time>2020-06-27T14:41:46Z</time>
      </trkpt>
      <trkpt lat="47.15152" lon="-1.42915">
        <ele>22.92</ele>
        <time>2020-06-27T14:41:48Z</time>
      </trkpt>
      <trkpt lat="47.15165" lon="-1.42923">
        <ele>22.9</ele>
        <time>2020-06-27T14:41:50Z</time>
      </trkpt>
      <trkpt lat="47.15177" lon="-1.4293">
        <ele>22.24</ele>
        <time>2020-06-27T14:41:52Z</time>
      </trkpt>
      <trkpt lat="47.15189" lon="-1.42939">
        <ele>21.35</ele>
        <time>2020-06-27T14:41:54Z</time>
      </trkpt>
      <trkpt lat="47.152" lon="-1.42953">
        <ele>19.69</ele>
        <time>2020-06-27T14:41:56Z</time>
      </trkpt>
      <trkpt lat="47.15211" lon="-1.42968">
        <ele>18.83</ele>
        <time>2020-06-27T14:41:58Z</time>
      </trkpt>
      <trkpt lat="47.15219" lon="-1.42985">
        <ele>18.73</ele>
        <time>2020-06-27T14:42:00Z</time>
      </trkpt>
      <trkpt lat="47.15227" lon="-1.43002">
        <ele>18.56</ele>
        <time>2020-06-27T14:42:02Z</time>
      </trkpt>
      <trkpt lat="47.15235" lon="-1.43021">
        <ele>17.74</ele>
        <time>2020-06-27T14:42:04Z</time>
      </trkpt>
      <trkpt lat="47.15242" lon="-1.43039">
        <ele>16.61</ele>
        <time>2020-06-27T14:42:06Z</time>
      </trkpt>
      <trkpt lat="47.15248" lon="-1.43058">
        <ele>16.19</ele>
        <time>2020-06-27T14:42:08Z</time>
      </trkpt>
      <trkpt lat="47.15253" lon="-1.43082">
        <ele>14.94</ele>
        <time>2020-06-27T14:42:10Z</time>
      </trkpt>
      <trkpt lat="47.15253" lon="-1.43097">
        <ele>14.22</ele>
        <time>2020-06-27T14:42:11Z</time>
      </trkpt>
      <trkpt lat="47.15253" lon="-1.43121">
        <ele>14.21</ele>
        <time>2020-06-27T14:42:13Z</time>
      </trkpt>
      <trkpt lat="47.15253" lon="-1.43144">
        <ele>12.04</ele>
        <time>2020-06-27T14:42:14Z</time>
      </trkpt>
      <trkpt lat="47.15252" lon="-1.43171">
        <ele>10.26</ele>
        <time>2020-06-27T14:42:16Z</time>
      </trkpt>
      <trkpt lat="47.15252" lon="-1.43186">
        <ele>9.16</ele>
        <time>2020-06-27T14:42:17Z</time>
      </trkpt>
      <trkpt lat="47.15251" lon="-1.43211">
        <ele>6.45</ele>
        <time>2020-06-27T14:42:19Z</time>
      </trkpt>
      <trkpt lat="47.1525" lon="-1.43238">
        <ele>4.9</ele>
        <time>2020-06-27T14:42:21Z</time>
      </trkpt>
      <trkpt lat="47.1525" lon="-1.43251">
        <ele>4.4</ele>
        <time>2020-06-27T14:42:22Z</time>
      </trkpt>
      <trkpt lat="47.1525" lon="-1.43265">
        <ele>3.94</ele>
        <time>2020-06-27T14:42:23Z</time>
      </trkpt>
      <trkpt lat="47.15249" lon="-1.43279">
        <ele>3.46</ele>
        <time>2020-06-27T14:42:24Z</time>
      </trkpt>
      <trkpt lat="47.15248" lon="-1.43294">
        <ele>3</ele>
        <time>2020-06-27T14:42:25Z</time>
      </trkpt>
      <trkpt lat="47.15247" lon="-1.43318">
        <ele>1.08</ele>
        <time>2020-06-27T14:42:27Z</time>
      </trkpt>
      <trkpt lat="47.15247" lon="-1.43334">
        <ele>0.22</ele>
        <time>2020-06-27T14:42:28Z</time>
      </trkpt>
      <trkpt lat="47.15246" lon="-1.43348">
        <ele>-0.34</ele>
        <time>2020-06-27T14:42:29Z</time>
      </trkpt>
      <trkpt lat="47.15246" lon="-1.43361">
        <ele>-0.13</ele>
        <time>2020-06-27T14:42:30Z</time>
      </trkpt>
      <trkpt lat="47.15246" lon="-1.43374">
        <ele>0.3</ele>
        <time>2020-06-27T14:42:31Z</time>
      </trkpt>
      <trkpt lat="47.15247" lon="-1.43391">
        <ele>0.24</ele>
        <time>2020-06-27T14:42:32Z</time>
      </trkpt>
      <trkpt lat="47.15248" lon="-1.43405">
        <ele>0.05</ele>
        <time>2020-06-27T14:42:33Z</time>
      </trkpt>
      <trkpt lat="47.15249" lon="-1.43419">
        <ele>0.11</ele>
        <time>2020-06-27T14:42:34Z</time>
      </trkpt>
      <trkpt lat="47.15252" lon="-1.43447">
        <ele>0.07</ele>
        <time>2020-06-27T14:42:36Z</time>
      </trkpt>
      <trkpt lat="47.15254" lon="-1.43461">
        <ele>0.38</ele>
        <time>2020-06-27T14:42:37Z</time>
      </trkpt>
      <trkpt lat="47.15256" lon="-1.43483">
        <ele>1.62</ele>
        <time>2020-06-27T14:42:39Z</time>
      </trkpt>
      <trkpt lat="47.15258" lon="-1.43497">
        <ele>2.7</ele>
        <time>2020-06-27T14:42:40Z</time>
      </trkpt>
      <trkpt lat="47.1526" lon="-1.43522">
        <ele>4.17</ele>
        <time>2020-06-27T14:42:42Z</time>
      </trkpt>
      <trkpt lat="47.15262" lon="-1.43545">
        <ele>4.51</ele>
        <time>2020-06-27T14:42:44Z</time>
      </trkpt>
      <trkpt lat="47.15264" lon="-1.4357">
        <ele>3.39</ele>
        <time>2020-06-27T14:42:46Z</time>
      </trkpt>
      <trkpt lat="47.15266" lon="-1.43594">
        <ele>2.69</ele>
        <time>2020-06-27T14:42:48Z</time>
      </trkpt>
      <trkpt lat="47.15269" lon="-1.43618">
        <ele>1.23</ele>
        <time>2020-06-27T14:42:50Z</time>
      </trkpt>
      <trkpt lat="47.15271" lon="-1.43638">
        <ele>0.09</ele>
        <time>2020-06-27T14:42:52Z</time>
      </trkpt>
      <trkpt lat="47.15273" lon="-1.43661">
        <ele>-0.48</ele>
        <time>2020-06-27T14:42:54Z</time>
      </trkpt>
      <trkpt lat="47.15275" lon="-1.43675">
        <ele>-0.71</ele>
        <time>2020-06-27T14:42:55Z</time>
      </trkpt>
      <trkpt lat="47.15277" lon="-1.43699">
        <ele>-0.69</ele>
        <time>2020-06-27T14:42:57Z</time>
      </trkpt>
      <trkpt lat="47.15278" lon="-1.43722">
        <ele>-1.25</ele>
        <time>2020-06-27T14:42:59Z</time>
      </trkpt>
      <trkpt lat="47.15278" lon="-1.43744">
        <ele>-2.04</ele>
        <time>2020-06-27T14:43:01Z</time>
      </trkpt>
      <trkpt lat="47.15278" lon="-1.43765">
        <ele>-1.95</ele>
        <time>2020-06-27T14:43:03Z</time>
      </trkpt>
      <trkpt lat="47.15277" lon="-1.43785">
        <ele>-0.88</ele>
        <time>2020-06-27T14:43:05Z</time>
      </trkpt>
      <trkpt lat="47.15277" lon="-1.43809">
        <ele>0.19</ele>
        <time>2020-06-27T14:43:07Z</time>
      </trkpt>
      <trkpt lat="47.15275" lon="-1.43831">
        <ele>-0.49</ele>
        <time>2020-06-27T14:43:09Z</time>
      </trkpt>
      <trkpt lat="47.15278" lon="-1.43857">
        <ele>-1.14</ele>
        <time>2020-06-27T14:43:11Z</time>
      </trkpt>
      <trkpt lat="47.1528" lon="-1.4387">
        <ele>-1.5</ele>
        <time>2020-06-27T14:43:12Z</time>
      </trkpt>
      <trkpt lat="47.15285" lon="-1.43891">
        <ele>-1.8</ele>
        <time>2020-06-27T14:43:14Z</time>
      </trkpt>
      <trkpt lat="47.15292" lon="-1.43908">
        <ele>-2.38</ele>
        <time>2020-06-27T14:43:16Z</time>
      </trkpt>
      <trkpt lat="47.15299" lon="-1.43926">
        <ele>-2.44</ele>
        <time>2020-06-27T14:43:18Z</time>
      </trkpt>
      <trkpt lat="47.15307" lon="-1.43942">
        <ele>-1.62</ele>
        <time>2020-06-27T14:43:20Z</time>
      </trkpt>
      <trkpt lat="47.15315" lon="-1.43954">
        <ele>-0.34</ele>
        <time>2020-06-27T14:43:22Z</time>
      </trkpt>
      <trkpt lat="47.15323" lon="-1.43968">
        <ele>-0.14</ele>
        <time>2020-06-27T14:43:24Z</time>
      </trkpt>
      <trkpt lat="47.15332" lon="-1.4398">
        <ele>0.06</ele>
        <time>2020-06-27T14:43:26Z</time>
      </trkpt>
      <trkpt lat="47.15341" lon="-1.43991">
        <ele>0.89</ele>
        <time>2020-06-27T14:43:28Z</time>
      </trkpt>
      <trkpt lat="47.1535" lon="-1.44003">
        <ele>1.68</ele>
        <time>2020-06-27T14:43:30Z</time>
      </trkpt>
      <trkpt lat="47.15359" lon="-1.44016">
        <ele>2.41</ele>
        <time>2020-06-27T14:43:32Z</time>
      </trkpt>
      <trkpt lat="47.15369" lon="-1.44031">
        <ele>2.52</ele>
        <time>2020-06-27T14:43:34Z</time>
      </trkpt>
      <trkpt lat="47.15377" lon="-1.44047">
        <ele>2.46</ele>
        <time>2020-06-27T14:43:36Z</time>
      </trkpt>
      <trkpt lat="47.1538" lon="-1.44064">
        <ele>1.95</ele>
        <time>2020-06-27T14:43:38Z</time>
      </trkpt>
      <trkpt lat="47.15383" lon="-1.44086">
        <ele>-0.27</ele>
        <time>2020-06-27T14:43:40Z</time>
      </trkpt>
      <trkpt lat="47.15383" lon="-1.44102">
        <ele>-2.11</ele>
        <time>2020-06-27T14:43:42Z</time>
      </trkpt>
      <trkpt lat="47.1538" lon="-1.44122">
        <ele>-3.21</ele>
        <time>2020-06-27T14:43:44Z</time>
      </trkpt>
      <trkpt lat="47.15377" lon="-1.44141">
        <ele>-4.1</ele>
        <time>2020-06-27T14:43:46Z</time>
      </trkpt>
      <trkpt lat="47.15373" lon="-1.44162">
        <ele>-4.35</ele>
        <time>2020-06-27T14:43:48Z</time>
      </trkpt>
      <trkpt lat="47.15368" lon="-1.44185">
        <ele>-4.22</ele>
        <time>2020-06-27T14:43:50Z</time>
      </trkpt>
      <trkpt lat="47.15365" lon="-1.44207">
        <ele>-3.66</ele>
        <time>2020-06-27T14:43:52Z</time>
      </trkpt>
      <trkpt lat="47.15364" lon="-1.44225">
        <ele>-2.6</ele>
        <time>2020-06-27T14:43:54Z</time>
      </trkpt>
      <trkpt lat="47.15367" lon="-1.44244">
        <ele>-1</ele>
        <time>2020-06-27T14:43:56Z</time>
      </trkpt>
      <trkpt lat="47.1537" lon="-1.44263">
        <ele>-0.46</ele>
        <time>2020-06-27T14:43:58Z</time>
      </trkpt>
      <trkpt lat="47.15374" lon="-1.44282">
        <ele>-0.7</ele>
        <time>2020-06-27T14:44:00Z</time>
      </trkpt>
      <trkpt lat="47.15377" lon="-1.44301">
        <ele>-0.81</ele>
        <time>2020-06-27T14:44:02Z</time>
      </trkpt>
      <trkpt lat="47.15382" lon="-1.44315">
        <ele>-1.19</ele>
        <time>2020-06-27T14:44:04Z</time>
      </trkpt>
      <trkpt lat="47.15387" lon="-1.44328">
        <ele>-0.32</ele>
        <time>2020-06-27T14:44:06Z</time>
      </trkpt>
      <trkpt lat="47.15392" lon="-1.44343">
        <ele>-0.35</ele>
        <time>2020-06-27T14:44:08Z</time>
      </trkpt>
      <trkpt lat="47.15398" lon="-1.44357">
        <ele>0.01</ele>
        <time>2020-06-27T14:44:10Z</time>
      </trkpt>
      <trkpt lat="47.15406" lon="-1.44371">
        <ele>-1.85</ele>
        <time>2020-06-27T14:44:12Z</time>
      </trkpt>
      <trkpt lat="47.15414" lon="-1.44383">
        <ele>-2.07</ele>
        <time>2020-06-27T14:44:14Z</time>
      </trkpt>
      <trkpt lat="47.15424" lon="-1.44394">
        <ele>-1.87</ele>
        <time>2020-06-27T14:44:16Z</time>
      </trkpt>
      <trkpt lat="47.15434" lon="-1.44403">
        <ele>-1.83</ele>
        <time>2020-06-27T14:44:18Z</time>
      </trkpt>
      <trkpt lat="47.15442" lon="-1.4441">
        <ele>-1.58</ele>
        <time>2020-06-27T14:44:20Z</time>
      </trkpt>
      <trkpt lat="47.15453" lon="-1.44417">
        <ele>-0.73</ele>
        <time>2020-06-27T14:44:22Z</time>
      </trkpt>
      <trkpt lat="47.15465" lon="-1.44423">
        <ele>0.1</ele>
        <time>2020-06-27T14:44:24Z</time>
      </trkpt>
      <trkpt lat="47.15476" lon="-1.44425">
        <ele>1.25</ele>
        <time>2020-06-27T14:44:26Z</time>
      </trkpt>
      <trkpt lat="47.15488" lon="-1.44427">
        <ele>2.83</ele>
        <time>2020-06-27T14:44:28Z</time>
      </trkpt>
      <trkpt lat="47.15499" lon="-1.44428">
        <ele>3.81</ele>
        <time>2020-06-27T14:44:30Z</time>
      </trkpt>
      <trkpt lat="47.15509" lon="-1.44429">
        <ele>4.4</ele>
        <time>2020-06-27T14:44:32Z</time>
      </trkpt>
      <trkpt lat="47.1552" lon="-1.44429">
        <ele>5.25</ele>
        <time>2020-06-27T14:44:34Z</time>
      </trkpt>
      <trkpt lat="47.1553" lon="-1.4443">
        <ele>5.68</ele>
        <time>2020-06-27T14:44:36Z</time>
      </trkpt>
      <trkpt lat="47.15545" lon="-1.44429">
        <ele>7.13</ele>
        <time>2020-06-27T14:44:39Z</time>
      </trkpt>
      <trkpt lat="47.15556" lon="-1.44427">
        <ele>8.13</ele>
        <time>2020-06-27T14:44:41Z</time>
      </trkpt>
      <trkpt lat="47.15567" lon="-1.44426">
        <ele>8.46</ele>
        <time>2020-06-27T14:44:43Z</time>
      </trkpt>
      <trkpt lat="47.15577" lon="-1.44424">
        <ele>8.89</ele>
        <time>2020-06-27T14:44:45Z</time>
      </trkpt>
      <trkpt lat="47.15587" lon="-1.4442">
        <ele>9.5</ele>
        <time>2020-06-27T14:44:47Z</time>
      </trkpt>
      <trkpt lat="47.15597" lon="-1.44417">
        <ele>10.27</ele>
        <time>2020-06-27T14:44:49Z</time>
      </trkpt>
      <trkpt lat="47.15606" lon="-1.44414">
        <ele>11.5</ele>
        <time>2020-06-27T14:44:51Z</time>
      </trkpt>
      <trkpt lat="47.15617" lon="-1.44409">
        <ele>13.25</ele>
        <time>2020-06-27T14:44:53Z</time>
      </trkpt>
      <trkpt lat="47.15627" lon="-1.44404">
        <ele>14.61</ele>
        <time>2020-06-27T14:44:55Z</time>
      </trkpt>
      <trkpt lat="47.15638" lon="-1.44398">
        <ele>15.87</ele>
        <time>2020-06-27T14:44:57Z</time>
      </trkpt>
      <trkpt lat="47.15648" lon="-1.44393">
        <ele>16.74</ele>
        <time>2020-06-27T14:44:59Z</time>
      </trkpt>
      <trkpt lat="47.15658" lon="-1.44388">
        <ele>17.71</ele>
        <time>2020-06-27T14:45:01Z</time>
      </trkpt>
      <trkpt lat="47.15668" lon="-1.44382">
        <ele>18.33</ele>
        <time>2020-06-27T14:45:03Z</time>
      </trkpt>
      <trkpt lat="47.15678" lon="-1.44378">
        <ele>18.67</ele>
        <time>2020-06-27T14:45:05Z</time>
      </trkpt>
      <trkpt lat="47.15687" lon="-1.44375">
        <ele>19.11</ele>
        <time>2020-06-27T14:45:07Z</time>
      </trkpt>
      <trkpt lat="47.15696" lon="-1.44372">
        <ele>19.34</ele>
        <time>2020-06-27T14:45:09Z</time>
      </trkpt>
      <trkpt lat="47.15706" lon="-1.44369">
        <ele>19.32</ele>
        <time>2020-06-27T14:45:11Z</time>
      </trkpt>
      <trkpt lat="47.15715" lon="-1.44367">
        <ele>20.67</ele>
        <time>2020-06-27T14:45:13Z</time>
      </trkpt>
      <trkpt lat="47.15724" lon="-1.44364">
        <ele>21.64</ele>
        <time>2020-06-27T14:45:15Z</time>
      </trkpt>
      <trkpt lat="47.15735" lon="-1.44359">
        <ele>22.35</ele>
        <time>2020-06-27T14:45:17Z</time>
      </trkpt>
      <trkpt lat="47.15745" lon="-1.44356">
        <ele>23.29</ele>
        <time>2020-06-27T14:45:19Z</time>
      </trkpt>
      <trkpt lat="47.15759" lon="-1.44352">
        <ele>23.11</ele>
        <time>2020-06-27T14:45:22Z</time>
      </trkpt>
      <trkpt lat="47.15769" lon="-1.44348">
        <ele>21.79</ele>
        <time>2020-06-27T14:45:24Z</time>
      </trkpt>
      <trkpt lat="47.15778" lon="-1.44345">
        <ele>21.51</ele>
        <time>2020-06-27T14:45:26Z</time>
      </trkpt>
      <trkpt lat="47.1579" lon="-1.44341">
        <ele>21.52</ele>
        <time>2020-06-27T14:45:28Z</time>
      </trkpt>
      <trkpt lat="47.15799" lon="-1.4434">
        <ele>20.73</ele>
        <time>2020-06-27T14:45:30Z</time>
      </trkpt>
      <trkpt lat="47.15811" lon="-1.44347">
        <ele>18.37</ele>
        <time>2020-06-27T14:45:33Z</time>
      </trkpt>
      <trkpt lat="47.1582" lon="-1.44357">
        <ele>17.73</ele>
        <time>2020-06-27T14:45:35Z</time>
      </trkpt>
      <trkpt lat="47.15827" lon="-1.44369">
        <ele>16.91</ele>
        <time>2020-06-27T14:45:37Z</time>
      </trkpt>
      <trkpt lat="47.15834" lon="-1.44385">
        <ele>17.58</ele>
        <time>2020-06-27T14:45:40Z</time>
      </trkpt>
      <trkpt lat="47.15841" lon="-1.44402">
        <ele>17.06</ele>
        <time>2020-06-27T14:45:43Z</time>
      </trkpt>
      <trkpt lat="47.15845" lon="-1.44415">
        <ele>16.79</ele>
        <time>2020-06-27T14:45:45Z</time>
      </trkpt>
      <trkpt lat="47.15851" lon="-1.4443">
        <ele>17.98</ele>
        <time>2020-06-27T14:45:48Z</time>
      </trkpt>
      <trkpt lat="47.15856" lon="-1.44442">
        <ele>17.81</ele>
        <time>2020-06-27T14:45:50Z</time>
      </trkpt>
      <trkpt lat="47.15862" lon="-1.44458">
        <ele>18.35</ele>
        <time>2020-06-27T14:45:53Z</time>
      </trkpt>
      <trkpt lat="47.15867" lon="-1.4447">
        <ele>18.38</ele>
        <time>2020-06-27T14:45:55Z</time>
      </trkpt>
      <trkpt lat="47.15872" lon="-1.44483">
        <ele>17.4</ele>
        <time>2020-06-27T14:45:57Z</time>
      </trkpt>
      <trkpt lat="47.15877" lon="-1.44495">
        <ele>16.9</ele>
        <time>2020-06-27T14:45:59Z</time>
      </trkpt>
      <trkpt lat="47.15882" lon="-1.44512">
        <ele>16.89</ele>
        <time>2020-06-27T14:46:02Z</time>
      </trkpt>
      <trkpt lat="47.15887" lon="-1.44523">
        <ele>18.48</ele>
        <time>2020-06-27T14:46:04Z</time>
      </trkpt>
      <trkpt lat="47.15892" lon="-1.44535">
        <ele>19.78</ele>
        <time>2020-06-27T14:46:07Z</time>
      </trkpt>
      <trkpt lat="47.15897" lon="-1.44549">
        <ele>19.39</ele>
        <time>2020-06-27T14:46:09Z</time>
      </trkpt>
      <trkpt lat="47.15901" lon="-1.44562">
        <ele>19.69</ele>
        <time>2020-06-27T14:46:11Z</time>
      </trkpt>
      <trkpt lat="47.15908" lon="-1.4458">
        <ele>21.43</ele>
        <time>2020-06-27T14:46:14Z</time>
      </trkpt>
      <trkpt lat="47.15914" lon="-1.44597">
        <ele>22.9</ele>
        <time>2020-06-27T14:46:17Z</time>
      </trkpt>
      <trkpt lat="47.15919" lon="-1.44613">
        <ele>23.47</ele>
        <time>2020-06-27T14:46:20Z</time>
      </trkpt>
      <trkpt lat="47.15923" lon="-1.44625">
        <ele>23.19</ele>
        <time>2020-06-27T14:46:22Z</time>
      </trkpt>
      <trkpt lat="47.15929" lon="-1.44643">
        <ele>22.95</ele>
        <time>2020-06-27T14:46:25Z</time>
      </trkpt>
      <trkpt lat="47.15934" lon="-1.44659">
        <ele>22.79</ele>
        <time>2020-06-27T14:46:28Z</time>
      </trkpt>
      <trkpt lat="47.15938" lon="-1.44674">
        <ele>24.78</ele>
        <time>2020-06-27T14:46:31Z</time>
      </trkpt>
      <trkpt lat="47.15944" lon="-1.44693">
        <ele>24.64</ele>
        <time>2020-06-27T14:46:34Z</time>
      </trkpt>
      <trkpt lat="47.1595" lon="-1.4471">
        <ele>23.95</ele>
        <time>2020-06-27T14:46:37Z</time>
      </trkpt>
      <trkpt lat="47.15953" lon="-1.44723">
        <ele>25.18</ele>
        <time>2020-06-27T14:46:39Z</time>
      </trkpt>
      <trkpt lat="47.15958" lon="-1.44739">
        <ele>27.62</ele>
        <time>2020-06-27T14:46:42Z</time>
      </trkpt>
      <trkpt lat="47.15962" lon="-1.44752">
        <ele>28.59</ele>
        <time>2020-06-27T14:46:44Z</time>
      </trkpt>
      <trkpt lat="47.15965" lon="-1.44765">
        <ele>28.59</ele>
        <time>2020-06-27T14:46:46Z</time>
      </trkpt>
      <trkpt lat="47.15969" lon="-1.44778">
        <ele>27.32</ele>
        <time>2020-06-27T14:46:48Z</time>
      </trkpt>
      <trkpt lat="47.15973" lon="-1.44792">
        <ele>25.62</ele>
        <time>2020-06-27T14:46:50Z</time>
      </trkpt>
      <trkpt lat="47.15978" lon="-1.44807">
        <ele>24.86</ele>
        <time>2020-06-27T14:46:52Z</time>
      </trkpt>
      <trkpt lat="47.15984" lon="-1.4482">
        <ele>26.05</ele>
        <time>2020-06-27T14:46:54Z</time>
      </trkpt>
      <trkpt lat="47.1599" lon="-1.44831">
        <ele>27.63</ele>
        <time>2020-06-27T14:46:56Z</time>
      </trkpt>
      <trkpt lat="47.15998" lon="-1.44846">
        <ele>27.93</ele>
        <time>2020-06-27T14:46:58Z</time>
      </trkpt>
      <trkpt lat="47.16007" lon="-1.4486">
        <ele>28.3</ele>
        <time>2020-06-27T14:47:00Z</time>
      </trkpt>
      <trkpt lat="47.16016" lon="-1.44874">
        <ele>28.12</ele>
        <time>2020-06-27T14:47:02Z</time>
      </trkpt>
      <trkpt lat="47.16025" lon="-1.44883">
        <ele>27.86</ele>
        <time>2020-06-27T14:47:04Z</time>
      </trkpt>
      <trkpt lat="47.16034" lon="-1.44893">
        <ele>27.31</ele>
        <time>2020-06-27T14:47:06Z</time>
      </trkpt>
      <trkpt lat="47.16043" lon="-1.44903">
        <ele>27.08</ele>
        <time>2020-06-27T14:47:08Z</time>
      </trkpt>
      <trkpt lat="47.16052" lon="-1.44913">
        <ele>26.86</ele>
        <time>2020-06-27T14:47:10Z</time>
      </trkpt>
      <trkpt lat="47.16062" lon="-1.44923">
        <ele>27.09</ele>
        <time>2020-06-27T14:47:12Z</time>
      </trkpt>
      <trkpt lat="47.1607" lon="-1.44932">
        <ele>27.6</ele>
        <time>2020-06-27T14:47:14Z</time>
      </trkpt>
      <trkpt lat="47.16079" lon="-1.44943">
        <ele>27.78</ele>
        <time>2020-06-27T14:47:16Z</time>
      </trkpt>
      <trkpt lat="47.16087" lon="-1.44957">
        <ele>27.39</ele>
        <time>2020-06-27T14:47:18Z</time>
      </trkpt>
      <trkpt lat="47.16092" lon="-1.44969">
        <ele>27.34</ele>
        <time>2020-06-27T14:47:20Z</time>
      </trkpt>
      <trkpt lat="47.16097" lon="-1.44983">
        <ele>27.59</ele>
        <time>2020-06-27T14:47:22Z</time>
      </trkpt>
      <trkpt lat="47.16103" lon="-1.44998">
        <ele>27.52</ele>
        <time>2020-06-27T14:47:24Z</time>
      </trkpt>
      <trkpt lat="47.16108" lon="-1.45013">
        <ele>26.85</ele>
        <time>2020-06-27T14:47:26Z</time>
      </trkpt>
      <trkpt lat="47.16113" lon="-1.45027">
        <ele>26.65</ele>
        <time>2020-06-27T14:47:28Z</time>
      </trkpt>
      <trkpt lat="47.16119" lon="-1.45042">
        <ele>26.8</ele>
        <time>2020-06-27T14:47:30Z</time>
      </trkpt>
      <trkpt lat="47.16124" lon="-1.45058">
        <ele>27.52</ele>
        <time>2020-06-27T14:47:32Z</time>
      </trkpt>
      <trkpt lat="47.16129" lon="-1.45077">
        <ele>26.69</ele>
        <time>2020-06-27T14:47:35Z</time>
      </trkpt>
      <trkpt lat="47.16133" lon="-1.45092">
        <ele>26.34</ele>
        <time>2020-06-27T14:47:37Z</time>
      </trkpt>
      <trkpt lat="47.16136" lon="-1.45105">
        <ele>25.36</ele>
        <time>2020-06-27T14:47:39Z</time>
      </trkpt>
      <trkpt lat="47.1614" lon="-1.45121">
        <ele>24.59</ele>
        <time>2020-06-27T14:47:41Z</time>
      </trkpt>
      <trkpt lat="47.16144" lon="-1.4514">
        <ele>24.58</ele>
        <time>2020-06-27T14:47:44Z</time>
      </trkpt>
      <trkpt lat="47.16149" lon="-1.45153">
        <ele>25.51</ele>
        <time>2020-06-27T14:47:46Z</time>
      </trkpt>
      <trkpt lat="47.16158" lon="-1.45165">
        <ele>25.94</ele>
        <time>2020-06-27T14:47:48Z</time>
      </trkpt>
      <trkpt lat="47.16169" lon="-1.45172">
        <ele>26.41</ele>
        <time>2020-06-27T14:47:50Z</time>
      </trkpt>
      <trkpt lat="47.16179" lon="-1.45178">
        <ele>26.85</ele>
        <time>2020-06-27T14:47:52Z</time>
      </trkpt>
      <trkpt lat="47.1619" lon="-1.45183">
        <ele>27.78</ele>
        <time>2020-06-27T14:47:54Z</time>
      </trkpt>
      <trkpt lat="47.162" lon="-1.45189">
        <ele>27.93</ele>
        <time>2020-06-27T14:47:56Z</time>
      </trkpt>
      <trkpt lat="47.1621" lon="-1.45194">
        <ele>28.79</ele>
        <time>2020-06-27T14:47:58Z</time>
      </trkpt>
      <trkpt lat="47.1622" lon="-1.45199">
        <ele>28.6</ele>
        <time>2020-06-27T14:48:00Z</time>
      </trkpt>
      <trkpt lat="47.1623" lon="-1.45206">
        <ele>28.16</ele>
        <time>2020-06-27T14:48:02Z</time>
      </trkpt>
      <trkpt lat="47.16238" lon="-1.45215">
        <ele>27.39</ele>
        <time>2020-06-27T14:48:04Z</time>
      </trkpt>
      <trkpt lat="47.16246" lon="-1.45225">
        <ele>27.29</ele>
        <time>2020-06-27T14:48:06Z</time>
      </trkpt>
      <trkpt lat="47.16253" lon="-1.45237">
        <ele>27.06</ele>
        <time>2020-06-27T14:48:08Z</time>
      </trkpt>
      <trkpt lat="47.16259" lon="-1.4525">
        <ele>27.21</ele>
        <time>2020-06-27T14:48:10Z</time>
      </trkpt>
      <trkpt lat="47.16264" lon="-1.45266">
        <ele>28.21</ele>
        <time>2020-06-27T14:48:12Z</time>
      </trkpt>
      <trkpt lat="47.16268" lon="-1.45282">
        <ele>29.07</ele>
        <time>2020-06-27T14:48:14Z</time>
      </trkpt>
      <trkpt lat="47.16273" lon="-1.45296">
        <ele>29.63</ele>
        <time>2020-06-27T14:48:16Z</time>
      </trkpt>
      <trkpt lat="47.16279" lon="-1.45316">
        <ele>29.57</ele>
        <time>2020-06-27T14:48:19Z</time>
      </trkpt>
      <trkpt lat="47.16284" lon="-1.4533">
        <ele>29.71</ele>
        <time>2020-06-27T14:48:21Z</time>
      </trkpt>
      <trkpt lat="47.16289" lon="-1.45348">
        <ele>29.06</ele>
        <time>2020-06-27T14:48:23Z</time>
      </trkpt>
      <trkpt lat="47.16291" lon="-1.45361">
        <ele>28.51</ele>
        <time>2020-06-27T14:48:24Z</time>
      </trkpt>
      <trkpt lat="47.16293" lon="-1.45381">
        <ele>27.75</ele>
        <time>2020-06-27T14:48:26Z</time>
      </trkpt>
      <trkpt lat="47.16295" lon="-1.45403">
        <ele>27.47</ele>
        <time>2020-06-27T14:48:28Z</time>
      </trkpt>
      <trkpt lat="47.163" lon="-1.45425">
        <ele>26.81</ele>
        <time>2020-06-27T14:48:30Z</time>
      </trkpt>
      <trkpt lat="47.16308" lon="-1.45445">
        <ele>26.02</ele>
        <time>2020-06-27T14:48:32Z</time>
      </trkpt>
      <trkpt lat="47.16316" lon="-1.45464">
        <ele>24.31</ele>
        <time>2020-06-27T14:48:34Z</time>
      </trkpt>
      <trkpt lat="47.16325" lon="-1.45482">
        <ele>23.34</ele>
        <time>2020-06-27T14:48:36Z</time>
      </trkpt>
      <trkpt lat="47.16335" lon="-1.45498">
        <ele>22.51</ele>
        <time>2020-06-27T14:48:38Z</time>
      </trkpt>
      <trkpt lat="47.16345" lon="-1.45518">
        <ele>21.85</ele>
        <time>2020-06-27T14:48:40Z</time>
      </trkpt>
      <trkpt lat="47.16355" lon="-1.45535">
        <ele>22.35</ele>
        <time>2020-06-27T14:48:42Z</time>
      </trkpt>
      <trkpt lat="47.16361" lon="-1.45545">
        <ele>22.85</ele>
        <time>2020-06-27T14:48:43Z</time>
      </trkpt>
      <trkpt lat="47.1637" lon="-1.45561">
        <ele>23.23</ele>
        <time>2020-06-27T14:48:45Z</time>
      </trkpt>
      <trkpt lat="47.16378" lon="-1.45576">
        <ele>23.36</ele>
        <time>2020-06-27T14:48:47Z</time>
      </trkpt>
      <trkpt lat="47.16386" lon="-1.45592">
        <ele>23.3</ele>
        <time>2020-06-27T14:48:49Z</time>
      </trkpt>
      <trkpt lat="47.16395" lon="-1.45608">
        <ele>23.73</ele>
        <time>2020-06-27T14:48:51Z</time>
      </trkpt>
      <trkpt lat="47.16402" lon="-1.45626">
        <ele>23.47</ele>
        <time>2020-06-27T14:48:53Z</time>
      </trkpt>
      <trkpt lat="47.16409" lon="-1.45644">
        <ele>23.82</ele>
        <time>2020-06-27T14:48:55Z</time>
      </trkpt>
      <trkpt lat="47.16416" lon="-1.45664">
        <ele>23.18</ele>
        <time>2020-06-27T14:48:57Z</time>
      </trkpt>
      <trkpt lat="47.1642" lon="-1.45683">
        <ele>21.08</ele>
        <time>2020-06-27T14:48:59Z</time>
      </trkpt>
      <trkpt lat="47.16425" lon="-1.45702">
        <ele>20.06</ele>
        <time>2020-06-27T14:49:01Z</time>
      </trkpt>
      <trkpt lat="47.16429" lon="-1.45717">
        <ele>19.63</ele>
        <time>2020-06-27T14:49:03Z</time>
      </trkpt>
      <trkpt lat="47.16432" lon="-1.45732">
        <ele>18.44</ele>
        <time>2020-06-27T14:49:05Z</time>
      </trkpt>
      <trkpt lat="47.16435" lon="-1.45749">
        <ele>19.08</ele>
        <time>2020-06-27T14:49:07Z</time>
      </trkpt>
      <trkpt lat="47.16439" lon="-1.45767">
        <ele>19.59</ele>
        <time>2020-06-27T14:49:09Z</time>
      </trkpt>
      <trkpt lat="47.16443" lon="-1.45784">
        <ele>19.22</ele>
        <time>2020-06-27T14:49:11Z</time>
      </trkpt>
      <trkpt lat="47.16448" lon="-1.45801">
        <ele>19.16</ele>
        <time>2020-06-27T14:49:13Z</time>
      </trkpt>
      <trkpt lat="47.16453" lon="-1.4582">
        <ele>19.19</ele>
        <time>2020-06-27T14:49:15Z</time>
      </trkpt>
      <trkpt lat="47.16458" lon="-1.4584">
        <ele>19.88</ele>
        <time>2020-06-27T14:49:17Z</time>
      </trkpt>
      <trkpt lat="47.16462" lon="-1.45858">
        <ele>21.35</ele>
        <time>2020-06-27T14:49:19Z</time>
      </trkpt>
      <trkpt lat="47.16467" lon="-1.45873">
        <ele>21.95</ele>
        <time>2020-06-27T14:49:21Z</time>
      </trkpt>
      <trkpt lat="47.16471" lon="-1.45887">
        <ele>21.68</ele>
        <time>2020-06-27T14:49:23Z</time>
      </trkpt>
      <trkpt lat="47.16475" lon="-1.45902">
        <ele>22.3</ele>
        <time>2020-06-27T14:49:25Z</time>
      </trkpt>
      <trkpt lat="47.16479" lon="-1.45918">
        <ele>22.18</ele>
        <time>2020-06-27T14:49:27Z</time>
      </trkpt>
      <trkpt lat="47.16485" lon="-1.45935">
        <ele>21.94</ele>
        <time>2020-06-27T14:49:29Z</time>
      </trkpt>
      <trkpt lat="47.1649" lon="-1.4595">
        <ele>22.15</ele>
        <time>2020-06-27T14:49:31Z</time>
      </trkpt>
      <trkpt lat="47.16495" lon="-1.45967">
        <ele>22.91</ele>
        <time>2020-06-27T14:49:33Z</time>
      </trkpt>
      <trkpt lat="47.165" lon="-1.45983">
        <ele>23.88</ele>
        <time>2020-06-27T14:49:35Z</time>
      </trkpt>
      <trkpt lat="47.16505" lon="-1.45997">
        <ele>25.17</ele>
        <time>2020-06-27T14:49:37Z</time>
      </trkpt>
      <trkpt lat="47.16511" lon="-1.46009">
        <ele>26.66</ele>
        <time>2020-06-27T14:49:39Z</time>
      </trkpt>
      <trkpt lat="47.16516" lon="-1.46024">
        <ele>26.86</ele>
        <time>2020-06-27T14:49:41Z</time>
      </trkpt>
      <trkpt lat="47.16524" lon="-1.46036">
        <ele>26.24</ele>
        <time>2020-06-27T14:49:43Z</time>
      </trkpt>
      <trkpt lat="47.16533" lon="-1.46041">
        <ele>26.15</ele>
        <time>2020-06-27T14:49:45Z</time>
      </trkpt>
      <trkpt lat="47.16544" lon="-1.46049">
        <ele>25.59</ele>
        <time>2020-06-27T14:49:47Z</time>
      </trkpt>
      <trkpt lat="47.1655" lon="-1.46066">
        <ele>26.25</ele>
        <time>2020-06-27T14:49:50Z</time>
      </trkpt>
      <trkpt lat="47.1655" lon="-1.46083">
        <ele>26.68</ele>
        <time>2020-06-27T14:49:52Z</time>
      </trkpt>
      <trkpt lat="47.1655" lon="-1.46097">
        <ele>27.42</ele>
        <time>2020-06-27T14:49:54Z</time>
      </trkpt>
      <trkpt lat="47.16552" lon="-1.46111">
        <ele>29.93</ele>
        <time>2020-06-27T14:49:57Z</time>
      </trkpt>
      <trkpt lat="47.16557" lon="-1.46125">
        <ele>31</ele>
        <time>2020-06-27T14:49:59Z</time>
      </trkpt>
      <trkpt lat="47.16563" lon="-1.46138">
        <ele>32.05</ele>
        <time>2020-06-27T14:50:02Z</time>
      </trkpt>
      <trkpt lat="47.16569" lon="-1.46153">
        <ele>32.04</ele>
        <time>2020-06-27T14:50:05Z</time>
      </trkpt>
      <trkpt lat="47.16575" lon="-1.46167">
        <ele>32.15</ele>
        <time>2020-06-27T14:50:08Z</time>
      </trkpt>
      <trkpt lat="47.16582" lon="-1.46179">
        <ele>33.58</ele>
        <time>2020-06-27T14:50:10Z</time>
      </trkpt>
      <trkpt lat="47.16588" lon="-1.46191">
        <ele>34.11</ele>
        <time>2020-06-27T14:50:12Z</time>
      </trkpt>
      <trkpt lat="47.16597" lon="-1.46205">
        <ele>33.74</ele>
        <time>2020-06-27T14:50:14Z</time>
      </trkpt>
      <trkpt lat="47.16605" lon="-1.46214">
        <ele>33.79</ele>
        <time>2020-06-27T14:50:16Z</time>
      </trkpt>
      <trkpt lat="47.16615" lon="-1.46222">
        <ele>32.51</ele>
        <time>2020-06-27T14:50:19Z</time>
      </trkpt>
      <trkpt lat="47.16623" lon="-1.46238">
        <ele>30.52</ele>
        <time>2020-06-27T14:50:22Z</time>
      </trkpt>
      <trkpt lat="47.16628" lon="-1.46256">
        <ele>30.37</ele>
        <time>2020-06-27T14:50:24Z</time>
      </trkpt>
      <trkpt lat="47.16632" lon="-1.46268">
        <ele>31.35</ele>
        <time>2020-06-27T14:50:26Z</time>
      </trkpt>
      <trkpt lat="47.16639" lon="-1.46281">
        <ele>31.47</ele>
        <time>2020-06-27T14:50:28Z</time>
      </trkpt>
      <trkpt lat="47.16646" lon="-1.46294">
        <ele>32.66</ele>
        <time>2020-06-27T14:50:30Z</time>
      </trkpt>
      <trkpt lat="47.16654" lon="-1.46308">
        <ele>33.73</ele>
        <time>2020-06-27T14:50:32Z</time>
      </trkpt>
      <trkpt lat="47.16661" lon="-1.46322">
        <ele>34.39</ele>
        <time>2020-06-27T14:50:34Z</time>
      </trkpt>
      <trkpt lat="47.16669" lon="-1.46336">
        <ele>33.88</ele>
        <time>2020-06-27T14:50:36Z</time>
      </trkpt>
      <trkpt lat="47.16678" lon="-1.4635">
        <ele>33.53</ele>
        <time>2020-06-27T14:50:39Z</time>
      </trkpt>
      <trkpt lat="47.16685" lon="-1.46363">
        <ele>32.98</ele>
        <time>2020-06-27T14:50:40Z</time>
      </trkpt>
      <trkpt lat="47.16691" lon="-1.46374">
        <ele>33.07</ele>
        <time>2020-06-27T14:50:43Z</time>
      </trkpt>
      <trkpt lat="47.16698" lon="-1.46387">
        <ele>32.86</ele>
        <time>2020-06-27T14:50:45Z</time>
      </trkpt>
      <trkpt lat="47.16706" lon="-1.46402">
        <ele>32</ele>
        <time>2020-06-27T14:50:47Z</time>
      </trkpt>
      <trkpt lat="47.16713" lon="-1.46416">
        <ele>31.02</ele>
        <time>2020-06-27T14:50:49Z</time>
      </trkpt>
      <trkpt lat="47.16722" lon="-1.4643">
        <ele>29.02</ele>
        <time>2020-06-27T14:50:52Z</time>
      </trkpt>
      <trkpt lat="47.16731" lon="-1.46444">
        <ele>28.29</ele>
        <time>2020-06-27T14:50:54Z</time>
      </trkpt>
      <trkpt lat="47.16739" lon="-1.46456">
        <ele>28.04</ele>
        <time>2020-06-27T14:50:56Z</time>
      </trkpt>
      <trkpt lat="47.16747" lon="-1.46467">
        <ele>28.9</ele>
        <time>2020-06-27T14:50:58Z</time>
      </trkpt>
      <trkpt lat="47.16757" lon="-1.46482">
        <ele>28.69</ele>
        <time>2020-06-27T14:51:00Z</time>
      </trkpt>
      <trkpt lat="47.16764" lon="-1.46492">
        <ele>28.36</ele>
        <time>2020-06-27T14:51:02Z</time>
      </trkpt>
      <trkpt lat="47.16774" lon="-1.46505">
        <ele>28.59</ele>
        <time>2020-06-27T14:51:04Z</time>
      </trkpt>
      <trkpt lat="47.16784" lon="-1.46517">
        <ele>28.86</ele>
        <time>2020-06-27T14:51:06Z</time>
      </trkpt>
      <trkpt lat="47.16795" lon="-1.46529">
        <ele>28.57</ele>
        <time>2020-06-27T14:51:08Z</time>
      </trkpt>
      <trkpt lat="47.16807" lon="-1.46543">
        <ele>27.26</ele>
        <time>2020-06-27T14:51:10Z</time>
      </trkpt>
      <trkpt lat="47.16818" lon="-1.46554">
        <ele>25.32</ele>
        <time>2020-06-27T14:51:12Z</time>
      </trkpt>
      <trkpt lat="47.16829" lon="-1.46566">
        <ele>25.12</ele>
        <time>2020-06-27T14:51:14Z</time>
      </trkpt>
      <trkpt lat="47.16838" lon="-1.46575">
        <ele>24.67</ele>
        <time>2020-06-27T14:51:16Z</time>
      </trkpt>
      <trkpt lat="47.16849" lon="-1.46585">
        <ele>23.65</ele>
        <time>2020-06-27T14:51:18Z</time>
      </trkpt>
      <trkpt lat="47.1686" lon="-1.46597">
        <ele>23.09</ele>
        <time>2020-06-27T14:51:20Z</time>
      </trkpt>
      <trkpt lat="47.16871" lon="-1.46606">
        <ele>23.82</ele>
        <time>2020-06-27T14:51:22Z</time>
      </trkpt>
      <trkpt lat="47.16883" lon="-1.46616">
        <ele>25.14</ele>
        <time>2020-06-27T14:51:24Z</time>
      </trkpt>
      <trkpt lat="47.16895" lon="-1.46625">
        <ele>25.23</ele>
        <time>2020-06-27T14:51:26Z</time>
      </trkpt>
      <trkpt lat="47.16908" lon="-1.46635">
        <ele>24.51</ele>
        <time>2020-06-27T14:51:28Z</time>
      </trkpt>
      <trkpt lat="47.16918" lon="-1.46643">
        <ele>23.86</ele>
        <time>2020-06-27T14:51:30Z</time>
      </trkpt>
      <trkpt lat="47.16929" lon="-1.46653">
        <ele>22.85</ele>
        <time>2020-06-27T14:51:32Z</time>
      </trkpt>
      <trkpt lat="47.1694" lon="-1.46661">
        <ele>22.43</ele>
        <time>2020-06-27T14:51:34Z</time>
      </trkpt>
      <trkpt lat="47.16953" lon="-1.46668">
        <ele>21.38</ele>
        <time>2020-06-27T14:51:36Z</time>
      </trkpt>
      <trkpt lat="47.16966" lon="-1.46672">
        <ele>21.27</ele>
        <time>2020-06-27T14:51:38Z</time>
      </trkpt>
      <trkpt lat="47.16975" lon="-1.46681">
        <ele>21.16</ele>
        <time>2020-06-27T14:51:40Z</time>
      </trkpt>
      <trkpt lat="47.16987" lon="-1.46695">
        <ele>21.59</ele>
        <time>2020-06-27T14:51:42Z</time>
      </trkpt>
      <trkpt lat="47.16996" lon="-1.46707">
        <ele>21.36</ele>
        <time>2020-06-27T14:51:44Z</time>
      </trkpt>
      <trkpt lat="47.17006" lon="-1.46718">
        <ele>21.65</ele>
        <time>2020-06-27T14:51:46Z</time>
      </trkpt>
      <trkpt lat="47.1702" lon="-1.4673">
        <ele>21.78</ele>
        <time>2020-06-27T14:51:48Z</time>
      </trkpt>
      <trkpt lat="47.17031" lon="-1.46739">
        <ele>21.39</ele>
        <time>2020-06-27T14:51:50Z</time>
      </trkpt>
      <trkpt lat="47.17044" lon="-1.46748">
        <ele>21.82</ele>
        <time>2020-06-27T14:51:52Z</time>
      </trkpt>
      <trkpt lat="47.17058" lon="-1.46759">
        <ele>21.99</ele>
        <time>2020-06-27T14:51:54Z</time>
      </trkpt>
      <trkpt lat="47.17071" lon="-1.46771">
        <ele>21.53</ele>
        <time>2020-06-27T14:51:56Z</time>
      </trkpt>
      <trkpt lat="47.17079" lon="-1.46778">
        <ele>20.89</ele>
        <time>2020-06-27T14:51:57Z</time>
      </trkpt>
      <trkpt lat="47.17093" lon="-1.46792">
        <ele>19.88</ele>
        <time>2020-06-27T14:51:59Z</time>
      </trkpt>
      <trkpt lat="47.17106" lon="-1.46805">
        <ele>19.57</ele>
        <time>2020-06-27T14:52:01Z</time>
      </trkpt>
      <trkpt lat="47.17116" lon="-1.46814">
        <ele>18.41</ele>
        <time>2020-06-27T14:52:03Z</time>
      </trkpt>
      <trkpt lat="47.17128" lon="-1.46823">
        <ele>17.26</ele>
        <time>2020-06-27T14:52:05Z</time>
      </trkpt>
      <trkpt lat="47.1714" lon="-1.46839">
        <ele>16.67</ele>
        <time>2020-06-27T14:52:07Z</time>
      </trkpt>
      <trkpt lat="47.1715" lon="-1.46856">
        <ele>15.48</ele>
        <time>2020-06-27T14:52:09Z</time>
      </trkpt>
      <trkpt lat="47.17158" lon="-1.46868">
        <ele>14.33</ele>
        <time>2020-06-27T14:52:11Z</time>
      </trkpt>
      <trkpt lat="47.17164" lon="-1.46882">
        <ele>14.15</ele>
        <time>2020-06-27T14:52:13Z</time>
      </trkpt>
      <trkpt lat="47.17171" lon="-1.46897">
        <ele>13.21</ele>
        <time>2020-06-27T14:52:15Z</time>
      </trkpt>
      <trkpt lat="47.17179" lon="-1.46915">
        <ele>11.67</ele>
        <time>2020-06-27T14:52:17Z</time>
      </trkpt>
      <trkpt lat="47.17185" lon="-1.4693">
        <ele>12.19</ele>
        <time>2020-06-27T14:52:19Z</time>
      </trkpt>
      <trkpt lat="47.17192" lon="-1.46946">
        <ele>13.17</ele>
        <time>2020-06-27T14:52:21Z</time>
      </trkpt>
      <trkpt lat="47.172" lon="-1.46962">
        <ele>13.85</ele>
        <time>2020-06-27T14:52:23Z</time>
      </trkpt>
      <trkpt lat="47.17209" lon="-1.46979">
        <ele>14.35</ele>
        <time>2020-06-27T14:52:25Z</time>
      </trkpt>
      <trkpt lat="47.17216" lon="-1.46996">
        <ele>14.11</ele>
        <time>2020-06-27T14:52:27Z</time>
      </trkpt>
      <trkpt lat="47.17223" lon="-1.47011">
        <ele>14.5</ele>
        <time>2020-06-27T14:52:29Z</time>
      </trkpt>
      <trkpt lat="47.17229" lon="-1.47027">
        <ele>15.58</ele>
        <time>2020-06-27T14:52:31Z</time>
      </trkpt>
      <trkpt lat="47.17235" lon="-1.47045">
        <ele>15.13</ele>
        <time>2020-06-27T14:52:33Z</time>
      </trkpt>
      <trkpt lat="47.17241" lon="-1.47064">
        <ele>14.74</ele>
        <time>2020-06-27T14:52:35Z</time>
      </trkpt>
      <trkpt lat="47.17246" lon="-1.47082">
        <ele>13.72</ele>
        <time>2020-06-27T14:52:37Z</time>
      </trkpt>
      <trkpt lat="47.17251" lon="-1.47101">
        <ele>12.4</ele>
        <time>2020-06-27T14:52:39Z</time>
      </trkpt>
      <trkpt lat="47.17256" lon="-1.4712">
        <ele>10.63</ele>
        <time>2020-06-27T14:52:41Z</time>
      </trkpt>
      <trkpt lat="47.1726" lon="-1.47137">
        <ele>8.72</ele>
        <time>2020-06-27T14:52:43Z</time>
      </trkpt>
      <trkpt lat="47.17263" lon="-1.47156">
        <ele>6.92</ele>
        <time>2020-06-27T14:52:45Z</time>
      </trkpt>
      <trkpt lat="47.17267" lon="-1.47175">
        <ele>5.66</ele>
        <time>2020-06-27T14:52:47Z</time>
      </trkpt>
      <trkpt lat="47.1727" lon="-1.47193">
        <ele>5.03</ele>
        <time>2020-06-27T14:52:49Z</time>
      </trkpt>
      <trkpt lat="47.17274" lon="-1.47213">
        <ele>4.84</ele>
        <time>2020-06-27T14:52:51Z</time>
      </trkpt>
      <trkpt lat="47.17276" lon="-1.47231">
        <ele>4.41</ele>
        <time>2020-06-27T14:52:53Z</time>
      </trkpt>
      <trkpt lat="47.1728" lon="-1.47249">
        <ele>5.11</ele>
        <time>2020-06-27T14:52:55Z</time>
      </trkpt>
      <trkpt lat="47.17283" lon="-1.47269">
        <ele>6.55</ele>
        <time>2020-06-27T14:52:57Z</time>
      </trkpt>
      <trkpt lat="47.17287" lon="-1.47289">
        <ele>7.69</ele>
        <time>2020-06-27T14:52:59Z</time>
      </trkpt>
      <trkpt lat="47.1729" lon="-1.47307">
        <ele>8.58</ele>
        <time>2020-06-27T14:53:01Z</time>
      </trkpt>
      <trkpt lat="47.17294" lon="-1.47324">
        <ele>8.16</ele>
        <time>2020-06-27T14:53:03Z</time>
      </trkpt>
      <trkpt lat="47.17296" lon="-1.47343">
        <ele>8.49</ele>
        <time>2020-06-27T14:53:05Z</time>
      </trkpt>
      <trkpt lat="47.17299" lon="-1.47359">
        <ele>8.79</ele>
        <time>2020-06-27T14:53:07Z</time>
      </trkpt>
      <trkpt lat="47.17305" lon="-1.47372">
        <ele>8.52</ele>
        <time>2020-06-27T14:53:09Z</time>
      </trkpt>
      <trkpt lat="47.17316" lon="-1.47375">
        <ele>7.86</ele>
        <time>2020-06-27T14:53:11Z</time>
      </trkpt>
      <trkpt lat="47.17331" lon="-1.47375">
        <ele>7.17</ele>
        <time>2020-06-27T14:53:13Z</time>
      </trkpt>
      <trkpt lat="47.17345" lon="-1.47373">
        <ele>7.77</ele>
        <time>2020-06-27T14:53:15Z</time>
      </trkpt>
      <trkpt lat="47.17359" lon="-1.47369">
        <ele>9.03</ele>
        <time>2020-06-27T14:53:17Z</time>
      </trkpt>
      <trkpt lat="47.17373" lon="-1.47366">
        <ele>10.32</ele>
        <time>2020-06-27T14:53:19Z</time>
      </trkpt>
      <trkpt lat="47.17384" lon="-1.47363">
        <ele>9.15</ele>
        <time>2020-06-27T14:53:21Z</time>
      </trkpt>
      <trkpt lat="47.17397" lon="-1.47361">
        <ele>6.61</ele>
        <time>2020-06-27T14:53:23Z</time>
      </trkpt>
      <trkpt lat="47.17411" lon="-1.47359">
        <ele>4.99</ele>
        <time>2020-06-27T14:53:25Z</time>
      </trkpt>
      <trkpt lat="47.17423" lon="-1.47358">
        <ele>3.6</ele>
        <time>2020-06-27T14:53:27Z</time>
      </trkpt>
      <trkpt lat="47.17437" lon="-1.47356">
        <ele>4.05</ele>
        <time>2020-06-27T14:53:29Z</time>
      </trkpt>
      <trkpt lat="47.1745" lon="-1.47356">
        <ele>3.19</ele>
        <time>2020-06-27T14:53:31Z</time>
      </trkpt>
      <trkpt lat="47.17464" lon="-1.47356">
        <ele>2.02</ele>
        <time>2020-06-27T14:53:33Z</time>
      </trkpt>
      <trkpt lat="47.17479" lon="-1.47356">
        <ele>0.97</ele>
        <time>2020-06-27T14:53:35Z</time>
      </trkpt>
      <trkpt lat="47.17493" lon="-1.47357">
        <ele>0.54</ele>
        <time>2020-06-27T14:53:37Z</time>
      </trkpt>
      <trkpt lat="47.17507" lon="-1.47358">
        <ele>0.13</ele>
        <time>2020-06-27T14:53:39Z</time>
      </trkpt>
      <trkpt lat="47.17521" lon="-1.47358">
        <ele>0.33</ele>
        <time>2020-06-27T14:53:41Z</time>
      </trkpt>
      <trkpt lat="47.17536" lon="-1.47358">
        <ele>0.46</ele>
        <time>2020-06-27T14:53:43Z</time>
      </trkpt>
      <trkpt lat="47.17552" lon="-1.47359">
        <ele>0.11</ele>
        <time>2020-06-27T14:53:45Z</time>
      </trkpt>
      <trkpt lat="47.17564" lon="-1.4736">
        <ele>-0.32</ele>
        <time>2020-06-27T14:53:47Z</time>
      </trkpt>
      <trkpt lat="47.17578" lon="-1.47362">
        <ele>-0.55</ele>
        <time>2020-06-27T14:53:49Z</time>
      </trkpt>
      <trkpt lat="47.17594" lon="-1.47365">
        <ele>-1.06</ele>
        <time>2020-06-27T14:53:51Z</time>
      </trkpt>
      <trkpt lat="47.17608" lon="-1.47368">
        <ele>-1.52</ele>
        <time>2020-06-27T14:53:53Z</time>
      </trkpt>
      <trkpt lat="47.17621" lon="-1.47372">
        <ele>-1.66</ele>
        <time>2020-06-27T14:53:55Z</time>
      </trkpt>
      <trkpt lat="47.17636" lon="-1.47376">
        <ele>-1.97</ele>
        <time>2020-06-27T14:53:57Z</time>
      </trkpt>
      <trkpt lat="47.17647" lon="-1.47379">
        <ele>-1.83</ele>
        <time>2020-06-27T14:53:59Z</time>
      </trkpt>
      <trkpt lat="47.17658" lon="-1.47385">
        <ele>-1.56</ele>
        <time>2020-06-27T14:54:01Z</time>
      </trkpt>
      <trkpt lat="47.1767" lon="-1.47392">
        <ele>-0.9</ele>
        <time>2020-06-27T14:54:03Z</time>
      </trkpt>
      <trkpt lat="47.17681" lon="-1.47398">
        <ele>-1.25</ele>
        <time>2020-06-27T14:54:05Z</time>
      </trkpt>
      <trkpt lat="47.17693" lon="-1.47405">
        <ele>-0.72</ele>
        <time>2020-06-27T14:54:07Z</time>
      </trkpt>
      <trkpt lat="47.17705" lon="-1.47411">
        <ele>-0.01</ele>
        <time>2020-06-27T14:54:09Z</time>
      </trkpt>
      <trkpt lat="47.17718" lon="-1.47418">
        <ele>0.08</ele>
        <time>2020-06-27T14:54:11Z</time>
      </trkpt>
      <trkpt lat="47.17731" lon="-1.47424">
        <ele>-0.35</ele>
        <time>2020-06-27T14:54:13Z</time>
      </trkpt>
      <trkpt lat="47.17743" lon="-1.47431">
        <ele>-0.73</ele>
        <time>2020-06-27T14:54:15Z</time>
      </trkpt>
      <trkpt lat="47.17753" lon="-1.47436">
        <ele>-0.31</ele>
        <time>2020-06-27T14:54:17Z</time>
      </trkpt>
      <trkpt lat="47.17764" lon="-1.47442">
        <ele>-0.24</ele>
        <time>2020-06-27T14:54:19Z</time>
      </trkpt>
      <trkpt lat="47.17778" lon="-1.47449">
        <ele>0.33</ele>
        <time>2020-06-27T14:54:21Z</time>
      </trkpt>
      <trkpt lat="47.17789" lon="-1.47455">
        <ele>0.96</ele>
        <time>2020-06-27T14:54:23Z</time>
      </trkpt>
      <trkpt lat="47.17802" lon="-1.4746">
        <ele>2.13</ele>
        <time>2020-06-27T14:54:25Z</time>
      </trkpt>
      <trkpt lat="47.17815" lon="-1.47465">
        <ele>3.4</ele>
        <time>2020-06-27T14:54:27Z</time>
      </trkpt>
      <trkpt lat="47.17828" lon="-1.4747">
        <ele>3.56</ele>
        <time>2020-06-27T14:54:29Z</time>
      </trkpt>
      <trkpt lat="47.17842" lon="-1.47474">
        <ele>3.17</ele>
        <time>2020-06-27T14:54:31Z</time>
      </trkpt>
      <trkpt lat="47.17854" lon="-1.47479">
        <ele>2.98</ele>
        <time>2020-06-27T14:54:33Z</time>
      </trkpt>
      <trkpt lat="47.17868" lon="-1.47482">
        <ele>3.28</ele>
        <time>2020-06-27T14:54:35Z</time>
      </trkpt>
      <trkpt lat="47.17881" lon="-1.47483">
        <ele>2.86</ele>
        <time>2020-06-27T14:54:37Z</time>
      </trkpt>
      <trkpt lat="47.17893" lon="-1.47479">
        <ele>2.64</ele>
        <time>2020-06-27T14:54:39Z</time>
      </trkpt>
      <trkpt lat="47.17906" lon="-1.47473">
        <ele>2.73</ele>
        <time>2020-06-27T14:54:41Z</time>
      </trkpt>
      <trkpt lat="47.17918" lon="-1.47475">
        <ele>1.92</ele>
        <time>2020-06-27T14:54:43Z</time>
      </trkpt>
      <trkpt lat="47.17929" lon="-1.47488">
        <ele>1.03</ele>
        <time>2020-06-27T14:54:45Z</time>
      </trkpt>
      <trkpt lat="47.17939" lon="-1.47496">
        <ele>1.44</ele>
        <time>2020-06-27T14:54:47Z</time>
      </trkpt>
      <trkpt lat="47.17951" lon="-1.475">
        <ele>1.62</ele>
        <time>2020-06-27T14:54:49Z</time>
      </trkpt>
      <trkpt lat="47.17963" lon="-1.47503">
        <ele>1.08</ele>
        <time>2020-06-27T14:54:51Z</time>
      </trkpt>
      <trkpt lat="47.17975" lon="-1.47507">
        <ele>1.15</ele>
        <time>2020-06-27T14:54:53Z</time>
      </trkpt>
      <trkpt lat="47.17986" lon="-1.4751">
        <ele>1.65</ele>
        <time>2020-06-27T14:54:55Z</time>
      </trkpt>
      <trkpt lat="47.17997" lon="-1.47512">
        <ele>1.88</ele>
        <time>2020-06-27T14:54:57Z</time>
      </trkpt>
      <trkpt lat="47.18011" lon="-1.47515">
        <ele>1.95</ele>
        <time>2020-06-27T14:54:59Z</time>
      </trkpt>
      <trkpt lat="47.18024" lon="-1.47518">
        <ele>2.3</ele>
        <time>2020-06-27T14:55:01Z</time>
      </trkpt>
      <trkpt lat="47.18037" lon="-1.4752">
        <ele>2.87</ele>
        <time>2020-06-27T14:55:03Z</time>
      </trkpt>
      <trkpt lat="47.18052" lon="-1.47524">
        <ele>3.05</ele>
        <time>2020-06-27T14:55:05Z</time>
      </trkpt>
      <trkpt lat="47.18064" lon="-1.47529">
        <ele>3.13</ele>
        <time>2020-06-27T14:55:07Z</time>
      </trkpt>
      <trkpt lat="47.18076" lon="-1.47532">
        <ele>2.97</ele>
        <time>2020-06-27T14:55:09Z</time>
      </trkpt>
      <trkpt lat="47.18088" lon="-1.47535">
        <ele>2.48</ele>
        <time>2020-06-27T14:55:11Z</time>
      </trkpt>
      <trkpt lat="47.18099" lon="-1.47538">
        <ele>2.29</ele>
        <time>2020-06-27T14:55:13Z</time>
      </trkpt>
      <trkpt lat="47.18113" lon="-1.47543">
        <ele>2.63</ele>
        <time>2020-06-27T14:55:15Z</time>
      </trkpt>
      <trkpt lat="47.18123" lon="-1.47546">
        <ele>3.3</ele>
        <time>2020-06-27T14:55:17Z</time>
      </trkpt>
      <trkpt lat="47.18136" lon="-1.47548">
        <ele>3.8</ele>
        <time>2020-06-27T14:55:19Z</time>
      </trkpt>
      <trkpt lat="47.18146" lon="-1.47549">
        <ele>3.95</ele>
        <time>2020-06-27T14:55:21Z</time>
      </trkpt>
      <trkpt lat="47.18159" lon="-1.47552">
        <ele>4.35</ele>
        <time>2020-06-27T14:55:23Z</time>
      </trkpt>
      <trkpt lat="47.18171" lon="-1.47556">
        <ele>4.83</ele>
        <time>2020-06-27T14:55:25Z</time>
      </trkpt>
      <trkpt lat="47.18181" lon="-1.47559">
        <ele>5.31</ele>
        <time>2020-06-27T14:55:27Z</time>
      </trkpt>
      <trkpt lat="47.18191" lon="-1.47562">
        <ele>5.35</ele>
        <time>2020-06-27T14:55:29Z</time>
      </trkpt>
      <trkpt lat="47.18202" lon="-1.47565">
        <ele>4.88</ele>
        <time>2020-06-27T14:55:31Z</time>
      </trkpt>
      <trkpt lat="47.18213" lon="-1.47566">
        <ele>4.5</ele>
        <time>2020-06-27T14:55:33Z</time>
      </trkpt>
      <trkpt lat="47.18225" lon="-1.4757">
        <ele>3.43</ele>
        <time>2020-06-27T14:55:35Z</time>
      </trkpt>
      <trkpt lat="47.18237" lon="-1.47573">
        <ele>3.76</ele>
        <time>2020-06-27T14:55:37Z</time>
      </trkpt>
      <trkpt lat="47.18248" lon="-1.47576">
        <ele>4.91</ele>
        <time>2020-06-27T14:55:39Z</time>
      </trkpt>
      <trkpt lat="47.1826" lon="-1.47581">
        <ele>5.59</ele>
        <time>2020-06-27T14:55:41Z</time>
      </trkpt>
      <trkpt lat="47.18271" lon="-1.47583">
        <ele>6.68</ele>
        <time>2020-06-27T14:55:43Z</time>
      </trkpt>
      <trkpt lat="47.18281" lon="-1.47584">
        <ele>7.21</ele>
        <time>2020-06-27T14:55:45Z</time>
      </trkpt>
      <trkpt lat="47.18291" lon="-1.47586">
        <ele>6.92</ele>
        <time>2020-06-27T14:55:47Z</time>
      </trkpt>
      <trkpt lat="47.18303" lon="-1.4759">
        <ele>6.81</ele>
        <time>2020-06-27T14:55:49Z</time>
      </trkpt>
      <trkpt lat="47.18313" lon="-1.47595">
        <ele>6.95</ele>
        <time>2020-06-27T14:55:51Z</time>
      </trkpt>
      <trkpt lat="47.18322" lon="-1.47598">
        <ele>6.9</ele>
        <time>2020-06-27T14:55:53Z</time>
      </trkpt>
      <trkpt lat="47.18333" lon="-1.47601">
        <ele>7.94</ele>
        <time>2020-06-27T14:55:55Z</time>
      </trkpt>
      <trkpt lat="47.18344" lon="-1.47604">
        <ele>8.82</ele>
        <time>2020-06-27T14:55:57Z</time>
      </trkpt>
      <trkpt lat="47.18357" lon="-1.47608">
        <ele>10.4</ele>
        <time>2020-06-27T14:56:00Z</time>
      </trkpt>
      <trkpt lat="47.18371" lon="-1.47609">
        <ele>12.1</ele>
        <time>2020-06-27T14:56:03Z</time>
      </trkpt>
      <trkpt lat="47.18381" lon="-1.4761">
        <ele>12.29</ele>
        <time>2020-06-27T14:56:07Z</time>
      </trkpt>
      <trkpt lat="47.1839" lon="-1.47612">
        <ele>12.01</ele>
        <time>2020-06-27T14:56:17Z</time>
      </trkpt>
      <trkpt lat="47.18399" lon="-1.47613">
        <ele>11.59</ele>
        <time>2020-06-27T14:56:31Z</time>
      </trkpt>
      <trkpt lat="47.18412" lon="-1.47618">
        <ele>12.66</ele>
        <time>2020-06-27T14:56:34Z</time>
      </trkpt>
      <trkpt lat="47.18423" lon="-1.47622">
        <ele>14.07</ele>
        <time>2020-06-27T14:56:36Z</time>
      </trkpt>
      <trkpt lat="47.18432" lon="-1.47624">
        <ele>13.54</ele>
        <time>2020-06-27T14:56:38Z</time>
      </trkpt>
      <trkpt lat="47.18445" lon="-1.47628">
        <ele>11.99</ele>
        <time>2020-06-27T14:56:40Z</time>
      </trkpt>
      <trkpt lat="47.18455" lon="-1.47632">
        <ele>11.37</ele>
        <time>2020-06-27T14:56:42Z</time>
      </trkpt>
      <trkpt lat="47.18464" lon="-1.47636">
        <ele>11.95</ele>
        <time>2020-06-27T14:56:44Z</time>
      </trkpt>
      <trkpt lat="47.18474" lon="-1.4764">
        <ele>13.83</ele>
        <time>2020-06-27T14:56:46Z</time>
      </trkpt>
      <trkpt lat="47.18488" lon="-1.47644">
        <ele>15.27</ele>
        <time>2020-06-27T14:56:49Z</time>
      </trkpt>
      <trkpt lat="47.18497" lon="-1.47647">
        <ele>16.65</ele>
        <time>2020-06-27T14:56:51Z</time>
      </trkpt>
      <trkpt lat="47.18506" lon="-1.47649">
        <ele>18.18</ele>
        <time>2020-06-27T14:56:53Z</time>
      </trkpt>
      <trkpt lat="47.18516" lon="-1.47652">
        <ele>19.13</ele>
        <time>2020-06-27T14:56:55Z</time>
      </trkpt>
      <trkpt lat="47.18529" lon="-1.47653">
        <ele>19.59</ele>
        <time>2020-06-27T14:56:58Z</time>
      </trkpt>
      <trkpt lat="47.1854" lon="-1.47657">
        <ele>19.25</ele>
        <time>2020-06-27T14:57:01Z</time>
      </trkpt>
      <trkpt lat="47.1855" lon="-1.47659">
        <ele>20.22</ele>
        <time>2020-06-27T14:57:03Z</time>
      </trkpt>
      <trkpt lat="47.18563" lon="-1.47662">
        <ele>21.81</ele>
        <time>2020-06-27T14:57:06Z</time>
      </trkpt>
      <trkpt lat="47.18576" lon="-1.47665">
        <ele>22</ele>
        <time>2020-06-27T14:57:09Z</time>
      </trkpt>
      <trkpt lat="47.1859" lon="-1.4767">
        <ele>22.39</ele>
        <time>2020-06-27T14:57:12Z</time>
      </trkpt>
      <trkpt lat="47.18604" lon="-1.47672">
        <ele>21.3</ele>
        <time>2020-06-27T14:57:15Z</time>
      </trkpt>
      <trkpt lat="47.18614" lon="-1.47673">
        <ele>21.43</ele>
        <time>2020-06-27T14:57:17Z</time>
      </trkpt>
      <trkpt lat="47.18625" lon="-1.47674">
        <ele>21.19</ele>
        <time>2020-06-27T14:57:19Z</time>
      </trkpt>
      <trkpt lat="47.18635" lon="-1.47676">
        <ele>21.05</ele>
        <time>2020-06-27T14:57:21Z</time>
      </trkpt>
      <trkpt lat="47.18644" lon="-1.4768">
        <ele>21.74</ele>
        <time>2020-06-27T14:57:23Z</time>
      </trkpt>
      <trkpt lat="47.18657" lon="-1.47685">
        <ele>23.76</ele>
        <time>2020-06-27T14:57:26Z</time>
      </trkpt>
      <trkpt lat="47.18666" lon="-1.47687">
        <ele>24.1</ele>
        <time>2020-06-27T14:57:28Z</time>
      </trkpt>
      <trkpt lat="47.18677" lon="-1.47688">
        <ele>23.95</ele>
        <time>2020-06-27T14:57:32Z</time>
      </trkpt>
      <trkpt lat="47.18687" lon="-1.47689">
        <ele>25.3</ele>
        <time>2020-06-27T14:58:01Z</time>
      </trkpt>
      <trkpt lat="47.18698" lon="-1.47687">
        <ele>25.53</ele>
        <time>2020-06-27T14:58:03Z</time>
      </trkpt>
      <trkpt lat="47.18709" lon="-1.47681">
        <ele>25.06</ele>
        <time>2020-06-27T14:58:05Z</time>
      </trkpt>
      <trkpt lat="47.18716" lon="-1.4767">
        <ele>25.66</ele>
        <time>2020-06-27T14:58:07Z</time>
      </trkpt>
      <trkpt lat="47.18724" lon="-1.47652">
        <ele>25.69</ele>
        <time>2020-06-27T14:58:09Z</time>
      </trkpt>
      <trkpt lat="47.18732" lon="-1.47634">
        <ele>26.35</ele>
        <time>2020-06-27T14:58:11Z</time>
      </trkpt>
      <trkpt lat="47.18741" lon="-1.47615">
        <ele>26.16</ele>
        <time>2020-06-27T14:58:13Z</time>
      </trkpt>
      <trkpt lat="47.18748" lon="-1.47601">
        <ele>25.6</ele>
        <time>2020-06-27T14:58:15Z</time>
      </trkpt>
      <trkpt lat="47.18754" lon="-1.47589">
        <ele>25.69</ele>
        <time>2020-06-27T14:58:17Z</time>
      </trkpt>
      <trkpt lat="47.1876" lon="-1.47573">
        <ele>26</ele>
        <time>2020-06-27T14:58:19Z</time>
      </trkpt>
      <trkpt lat="47.18767" lon="-1.47557">
        <ele>26.46</ele>
        <time>2020-06-27T14:58:21Z</time>
      </trkpt>
      <trkpt lat="47.18774" lon="-1.47543">
        <ele>27.33</ele>
        <time>2020-06-27T14:58:23Z</time>
      </trkpt>
      <trkpt lat="47.18781" lon="-1.47527">
        <ele>28.65</ele>
        <time>2020-06-27T14:58:25Z</time>
      </trkpt>
      <trkpt lat="47.18787" lon="-1.47514">
        <ele>30.29</ele>
        <time>2020-06-27T14:58:27Z</time>
      </trkpt>
      <trkpt lat="47.18793" lon="-1.475">
        <ele>31.51</ele>
        <time>2020-06-27T14:58:29Z</time>
      </trkpt>
      <trkpt lat="47.188" lon="-1.47483">
        <ele>32.05</ele>
        <time>2020-06-27T14:58:31Z</time>
      </trkpt>
      <trkpt lat="47.18807" lon="-1.47468">
        <ele>32.12</ele>
        <time>2020-06-27T14:58:33Z</time>
      </trkpt>
      <trkpt lat="47.18813" lon="-1.47457">
        <ele>31.17</ele>
        <time>2020-06-27T14:58:35Z</time>
      </trkpt>
      <trkpt lat="47.18821" lon="-1.47441">
        <ele>30.46</ele>
        <time>2020-06-27T14:58:37Z</time>
      </trkpt>
      <trkpt lat="47.18829" lon="-1.47426">
        <ele>30.99</ele>
        <time>2020-06-27T14:58:39Z</time>
      </trkpt>
      <trkpt lat="47.18837" lon="-1.47407">
        <ele>31.14</ele>
        <time>2020-06-27T14:58:41Z</time>
      </trkpt>
      <trkpt lat="47.18843" lon="-1.47392">
        <ele>30.47</ele>
        <time>2020-06-27T14:58:43Z</time>
      </trkpt>
      <trkpt lat="47.18851" lon="-1.47376">
        <ele>31.02</ele>
        <time>2020-06-27T14:58:45Z</time>
      </trkpt>
      <trkpt lat="47.1886" lon="-1.4736">
        <ele>30.62</ele>
        <time>2020-06-27T14:58:47Z</time>
      </trkpt>
      <trkpt lat="47.18869" lon="-1.47344">
        <ele>30.37</ele>
        <time>2020-06-27T14:58:49Z</time>
      </trkpt>
      <trkpt lat="47.18876" lon="-1.47329">
        <ele>28.62</ele>
        <time>2020-06-27T14:58:51Z</time>
      </trkpt>
      <trkpt lat="47.18882" lon="-1.47315">
        <ele>27.37</ele>
        <time>2020-06-27T14:58:53Z</time>
      </trkpt>
      <trkpt lat="47.18889" lon="-1.47301">
        <ele>26.69</ele>
        <time>2020-06-27T14:58:55Z</time>
      </trkpt>
      <trkpt lat="47.18896" lon="-1.47286">
        <ele>27.16</ele>
        <time>2020-06-27T14:58:57Z</time>
      </trkpt>
      <trkpt lat="47.18903" lon="-1.47273">
        <ele>28.46</ele>
        <time>2020-06-27T14:58:59Z</time>
      </trkpt>
      <trkpt lat="47.18909" lon="-1.4726">
        <ele>29.6</ele>
        <time>2020-06-27T14:59:01Z</time>
      </trkpt>
      <trkpt lat="47.18915" lon="-1.47247">
        <ele>29.84</ele>
        <time>2020-06-27T14:59:03Z</time>
      </trkpt>
      <trkpt lat="47.18921" lon="-1.4723">
        <ele>29.89</ele>
        <time>2020-06-27T14:59:05Z</time>
      </trkpt>
      <trkpt lat="47.18925" lon="-1.47213">
        <ele>28.61</ele>
        <time>2020-06-27T14:59:07Z</time>
      </trkpt>
      <trkpt lat="47.18929" lon="-1.47194">
        <ele>27.6</ele>
        <time>2020-06-27T14:59:09Z</time>
      </trkpt>
      <trkpt lat="47.18937" lon="-1.47178">
        <ele>27.12</ele>
        <time>2020-06-27T14:59:11Z</time>
      </trkpt>
      <trkpt lat="47.18949" lon="-1.47165">
        <ele>26.67</ele>
        <time>2020-06-27T14:59:13Z</time>
      </trkpt>
      <trkpt lat="47.18958" lon="-1.47147">
        <ele>27.29</ele>
        <time>2020-06-27T14:59:15Z</time>
      </trkpt>
      <trkpt lat="47.18966" lon="-1.47131">
        <ele>27.77</ele>
        <time>2020-06-27T14:59:17Z</time>
      </trkpt>
      <trkpt lat="47.18975" lon="-1.47114">
        <ele>27.78</ele>
        <time>2020-06-27T14:59:19Z</time>
      </trkpt>
      <trkpt lat="47.18984" lon="-1.47097">
        <ele>28.29</ele>
        <time>2020-06-27T14:59:21Z</time>
      </trkpt>
      <trkpt lat="47.18994" lon="-1.47078">
        <ele>28.54</ele>
        <time>2020-06-27T14:59:23Z</time>
      </trkpt>
      <trkpt lat="47.19003" lon="-1.4706">
        <ele>27.54</ele>
        <time>2020-06-27T14:59:25Z</time>
      </trkpt>
      <trkpt lat="47.19012" lon="-1.4704">
        <ele>27.01</ele>
        <time>2020-06-27T14:59:26Z</time>
      </trkpt>
      <trkpt lat="47.19021" lon="-1.47023">
        <ele>26.06</ele>
        <time>2020-06-27T14:59:28Z</time>
      </trkpt>
      <trkpt lat="47.1903" lon="-1.47004">
        <ele>25.11</ele>
        <time>2020-06-27T14:59:30Z</time>
      </trkpt>
      <trkpt lat="47.19038" lon="-1.46985">
        <ele>23.97</ele>
        <time>2020-06-27T14:59:32Z</time>
      </trkpt>
      <trkpt lat="47.19043" lon="-1.46974">
        <ele>23.7</ele>
        <time>2020-06-27T14:59:33Z</time>
      </trkpt>
      <trkpt lat="47.19052" lon="-1.46955">
        <ele>23.33</ele>
        <time>2020-06-27T14:59:35Z</time>
      </trkpt>
      <trkpt lat="47.1906" lon="-1.4694">
        <ele>25.1</ele>
        <time>2020-06-27T14:59:37Z</time>
      </trkpt>
      <trkpt lat="47.19069" lon="-1.4692">
        <ele>26.29</ele>
        <time>2020-06-27T14:59:39Z</time>
      </trkpt>
      <trkpt lat="47.19079" lon="-1.469">
        <ele>26.82</ele>
        <time>2020-06-27T14:59:41Z</time>
      </trkpt>
      <trkpt lat="47.1909" lon="-1.46879">
        <ele>26.15</ele>
        <time>2020-06-27T14:59:43Z</time>
      </trkpt>
      <trkpt lat="47.19099" lon="-1.46861">
        <ele>25.35</ele>
        <time>2020-06-27T14:59:45Z</time>
      </trkpt>
      <trkpt lat="47.19108" lon="-1.46843">
        <ele>24.29</ele>
        <time>2020-06-27T14:59:47Z</time>
      </trkpt>
      <trkpt lat="47.19116" lon="-1.46824">
        <ele>23.61</ele>
        <time>2020-06-27T14:59:49Z</time>
      </trkpt>
      <trkpt lat="47.19123" lon="-1.46808">
        <ele>23</ele>
        <time>2020-06-27T14:59:51Z</time>
      </trkpt>
      <trkpt lat="47.19131" lon="-1.46789">
        <ele>22.82</ele>
        <time>2020-06-27T14:59:53Z</time>
      </trkpt>
      <trkpt lat="47.1914" lon="-1.46771">
        <ele>22.38</ele>
        <time>2020-06-27T14:59:55Z</time>
      </trkpt>
      <trkpt lat="47.19149" lon="-1.46752">
        <ele>22.1</ele>
        <time>2020-06-27T14:59:57Z</time>
      </trkpt>
      <trkpt lat="47.19158" lon="-1.46733">
        <ele>22.96</ele>
        <time>2020-06-27T14:59:59Z</time>
      </trkpt>
      <trkpt lat="47.19167" lon="-1.46713">
        <ele>23.72</ele>
        <time>2020-06-27T15:00:01Z</time>
      </trkpt>
      <trkpt lat="47.19177" lon="-1.46694">
        <ele>24.76</ele>
        <time>2020-06-27T15:00:03Z</time>
      </trkpt>
      <trkpt lat="47.19185" lon="-1.46676">
        <ele>25.57</ele>
        <time>2020-06-27T15:00:05Z</time>
      </trkpt>
      <trkpt lat="47.19194" lon="-1.46655">
        <ele>25.87</ele>
        <time>2020-06-27T15:00:07Z</time>
      </trkpt>
      <trkpt lat="47.19204" lon="-1.46636">
        <ele>25.71</ele>
        <time>2020-06-27T15:00:09Z</time>
      </trkpt>
      <trkpt lat="47.19213" lon="-1.46619">
        <ele>25.57</ele>
        <time>2020-06-27T15:00:11Z</time>
      </trkpt>
      <trkpt lat="47.19222" lon="-1.46599">
        <ele>25.45</ele>
        <time>2020-06-27T15:00:13Z</time>
      </trkpt>
      <trkpt lat="47.1923" lon="-1.46582">
        <ele>26.08</ele>
        <time>2020-06-27T15:00:15Z</time>
      </trkpt>
      <trkpt lat="47.19239" lon="-1.46563">
        <ele>26.74</ele>
        <time>2020-06-27T15:00:17Z</time>
      </trkpt>
      <trkpt lat="47.19248" lon="-1.46545">
        <ele>26.11</ele>
        <time>2020-06-27T15:00:19Z</time>
      </trkpt>
      <trkpt lat="47.19256" lon="-1.46528">
        <ele>25.56</ele>
        <time>2020-06-27T15:00:21Z</time>
      </trkpt>
      <trkpt lat="47.19265" lon="-1.4651">
        <ele>25.62</ele>
        <time>2020-06-27T15:00:23Z</time>
      </trkpt>
      <trkpt lat="47.19273" lon="-1.46492">
        <ele>25.4</ele>
        <time>2020-06-27T15:00:25Z</time>
      </trkpt>
      <trkpt lat="47.19281" lon="-1.46474">
        <ele>25.1</ele>
        <time>2020-06-27T15:00:27Z</time>
      </trkpt>
      <trkpt lat="47.19289" lon="-1.46456">
        <ele>24.32</ele>
        <time>2020-06-27T15:00:29Z</time>
      </trkpt>
      <trkpt lat="47.19296" lon="-1.4644">
        <ele>23.75</ele>
        <time>2020-06-27T15:00:31Z</time>
      </trkpt>
      <trkpt lat="47.19305" lon="-1.46423">
        <ele>23.85</ele>
        <time>2020-06-27T15:00:33Z</time>
      </trkpt>
      <trkpt lat="47.19314" lon="-1.46405">
        <ele>24.57</ele>
        <time>2020-06-27T15:00:35Z</time>
      </trkpt>
      <trkpt lat="47.19321" lon="-1.4639">
        <ele>25.3</ele>
        <time>2020-06-27T15:00:37Z</time>
      </trkpt>
      <trkpt lat="47.1933" lon="-1.4637">
        <ele>25.31</ele>
        <time>2020-06-27T15:00:39Z</time>
      </trkpt>
      <trkpt lat="47.19337" lon="-1.46352">
        <ele>25.1</ele>
        <time>2020-06-27T15:00:41Z</time>
      </trkpt>
      <trkpt lat="47.19345" lon="-1.46334">
        <ele>25.53</ele>
        <time>2020-06-27T15:00:43Z</time>
      </trkpt>
      <trkpt lat="47.19351" lon="-1.46315">
        <ele>25.2</ele>
        <time>2020-06-27T15:00:45Z</time>
      </trkpt>
      <trkpt lat="47.19356" lon="-1.46297">
        <ele>25.39</ele>
        <time>2020-06-27T15:00:47Z</time>
      </trkpt>
      <trkpt lat="47.19369" lon="-1.46297">
        <ele>24.77</ele>
        <time>2020-06-27T15:00:49Z</time>
      </trkpt>
      <trkpt lat="47.19382" lon="-1.4631">
        <ele>23.72</ele>
        <time>2020-06-27T15:00:51Z</time>
      </trkpt>
      <trkpt lat="47.19395" lon="-1.46323">
        <ele>22.84</ele>
        <time>2020-06-27T15:00:53Z</time>
      </trkpt>
      <trkpt lat="47.19409" lon="-1.46331">
        <ele>21.81</ele>
        <time>2020-06-27T15:00:55Z</time>
      </trkpt>
      <trkpt lat="47.19424" lon="-1.46338">
        <ele>21.58</ele>
        <time>2020-06-27T15:00:57Z</time>
      </trkpt>
      <trkpt lat="47.19439" lon="-1.46344">
        <ele>22.58</ele>
        <time>2020-06-27T15:00:59Z</time>
      </trkpt>
      <trkpt lat="47.19451" lon="-1.4635">
        <ele>21.96</ele>
        <time>2020-06-27T15:01:01Z</time>
      </trkpt>
      <trkpt lat="47.19465" lon="-1.46357">
        <ele>21.83</ele>
        <time>2020-06-27T15:01:03Z</time>
      </trkpt>
      <trkpt lat="47.19476" lon="-1.46363">
        <ele>22.3</ele>
        <time>2020-06-27T15:01:05Z</time>
      </trkpt>
      <trkpt lat="47.1949" lon="-1.46369">
        <ele>21.52</ele>
        <time>2020-06-27T15:01:07Z</time>
      </trkpt>
      <trkpt lat="47.19506" lon="-1.46377">
        <ele>21.6</ele>
        <time>2020-06-27T15:01:09Z</time>
      </trkpt>
      <trkpt lat="47.19521" lon="-1.46383">
        <ele>21.47</ele>
        <time>2020-06-27T15:01:11Z</time>
      </trkpt>
      <trkpt lat="47.19534" lon="-1.46389">
        <ele>21.74</ele>
        <time>2020-06-27T15:01:13Z</time>
      </trkpt>
      <trkpt lat="47.19548" lon="-1.46396">
        <ele>21.88</ele>
        <time>2020-06-27T15:01:15Z</time>
      </trkpt>
      <trkpt lat="47.19561" lon="-1.46402">
        <ele>20.99</ele>
        <time>2020-06-27T15:01:17Z</time>
      </trkpt>
      <trkpt lat="47.19576" lon="-1.4641">
        <ele>20.18</ele>
        <time>2020-06-27T15:01:19Z</time>
      </trkpt>
      <trkpt lat="47.1959" lon="-1.46417">
        <ele>20.61</ele>
        <time>2020-06-27T15:01:21Z</time>
      </trkpt>
      <trkpt lat="47.19603" lon="-1.46423">
        <ele>20.95</ele>
        <time>2020-06-27T15:01:23Z</time>
      </trkpt>
      <trkpt lat="47.19616" lon="-1.46429">
        <ele>21.15</ele>
        <time>2020-06-27T15:01:25Z</time>
      </trkpt>
      <trkpt lat="47.1963" lon="-1.46435">
        <ele>21.32</ele>
        <time>2020-06-27T15:01:27Z</time>
      </trkpt>
      <trkpt lat="47.19642" lon="-1.46441">
        <ele>21.52</ele>
        <time>2020-06-27T15:01:29Z</time>
      </trkpt>
      <trkpt lat="47.19654" lon="-1.46448">
        <ele>21.41</ele>
        <time>2020-06-27T15:01:31Z</time>
      </trkpt>
      <trkpt lat="47.19669" lon="-1.46455">
        <ele>20.31</ele>
        <time>2020-06-27T15:01:33Z</time>
      </trkpt>
      <trkpt lat="47.19683" lon="-1.46462">
        <ele>19.86</ele>
        <time>2020-06-27T15:01:35Z</time>
      </trkpt>
      <trkpt lat="47.19699" lon="-1.4647">
        <ele>20.32</ele>
        <time>2020-06-27T15:01:37Z</time>
      </trkpt>
      <trkpt lat="47.19715" lon="-1.46478">
        <ele>19.86</ele>
        <time>2020-06-27T15:01:39Z</time>
      </trkpt>
      <trkpt lat="47.19729" lon="-1.46485">
        <ele>19.47</ele>
        <time>2020-06-27T15:01:41Z</time>
      </trkpt>
      <trkpt lat="47.19745" lon="-1.46492">
        <ele>19.37</ele>
        <time>2020-06-27T15:01:43Z</time>
      </trkpt>
      <trkpt lat="47.19761" lon="-1.46499">
        <ele>18.9</ele>
        <time>2020-06-27T15:01:45Z</time>
      </trkpt>
      <trkpt lat="47.19776" lon="-1.46506">
        <ele>18.45</ele>
        <time>2020-06-27T15:01:47Z</time>
      </trkpt>
      <trkpt lat="47.19791" lon="-1.46513">
        <ele>17.11</ele>
        <time>2020-06-27T15:01:49Z</time>
      </trkpt>
      <trkpt lat="47.19805" lon="-1.4652">
        <ele>15.55</ele>
        <time>2020-06-27T15:01:51Z</time>
      </trkpt>
      <trkpt lat="47.19821" lon="-1.46527">
        <ele>15.82</ele>
        <time>2020-06-27T15:01:53Z</time>
      </trkpt>
      <trkpt lat="47.19835" lon="-1.46533">
        <ele>16.65</ele>
        <time>2020-06-27T15:01:55Z</time>
      </trkpt>
      <trkpt lat="47.19849" lon="-1.4654">
        <ele>17.75</ele>
        <time>2020-06-27T15:01:57Z</time>
      </trkpt>
      <trkpt lat="47.19862" lon="-1.46547">
        <ele>17.96</ele>
        <time>2020-06-27T15:01:59Z</time>
      </trkpt>
      <trkpt lat="47.19876" lon="-1.46554">
        <ele>18.36</ele>
        <time>2020-06-27T15:02:01Z</time>
      </trkpt>
      <trkpt lat="47.19889" lon="-1.4656">
        <ele>17.7</ele>
        <time>2020-06-27T15:02:03Z</time>
      </trkpt>
      <trkpt lat="47.19903" lon="-1.46567">
        <ele>17.48</ele>
        <time>2020-06-27T15:02:05Z</time>
      </trkpt>
      <trkpt lat="47.19918" lon="-1.46573">
        <ele>16.42</ele>
        <time>2020-06-27T15:02:07Z</time>
      </trkpt>
      <trkpt lat="47.19931" lon="-1.46578">
        <ele>14.85</ele>
        <time>2020-06-27T15:02:09Z</time>
      </trkpt>
      <trkpt lat="47.19946" lon="-1.46585">
        <ele>13.54</ele>
        <time>2020-06-27T15:02:11Z</time>
      </trkpt>
      <trkpt lat="47.1996" lon="-1.4659">
        <ele>13.58</ele>
        <time>2020-06-27T15:02:13Z</time>
      </trkpt>
      <trkpt lat="47.19975" lon="-1.46597">
        <ele>14.07</ele>
        <time>2020-06-27T15:02:15Z</time>
      </trkpt>
      <trkpt lat="47.1999" lon="-1.46604">
        <ele>13.93</ele>
        <time>2020-06-27T15:02:17Z</time>
      </trkpt>
      <trkpt lat="47.20004" lon="-1.4661">
        <ele>12.7</ele>
        <time>2020-06-27T15:02:19Z</time>
      </trkpt>
      <trkpt lat="47.20017" lon="-1.46616">
        <ele>12.04</ele>
        <time>2020-06-27T15:02:21Z</time>
      </trkpt>
      <trkpt lat="47.20031" lon="-1.46621">
        <ele>12.47</ele>
        <time>2020-06-27T15:02:23Z</time>
      </trkpt>
      <trkpt lat="47.20047" lon="-1.46629">
        <ele>12.51</ele>
        <time>2020-06-27T15:02:25Z</time>
      </trkpt>
      <trkpt lat="47.20062" lon="-1.46636">
        <ele>13.03</ele>
        <time>2020-06-27T15:02:27Z</time>
      </trkpt>
      <trkpt lat="47.20075" lon="-1.46642">
        <ele>14.23</ele>
        <time>2020-06-27T15:02:29Z</time>
      </trkpt>
      <trkpt lat="47.20088" lon="-1.46648">
        <ele>14.47</ele>
        <time>2020-06-27T15:02:31Z</time>
      </trkpt>
      <trkpt lat="47.201" lon="-1.46655">
        <ele>15.26</ele>
        <time>2020-06-27T15:02:33Z</time>
      </trkpt>
      <trkpt lat="47.20114" lon="-1.46663">
        <ele>15.95</ele>
        <time>2020-06-27T15:02:35Z</time>
      </trkpt>
      <trkpt lat="47.20127" lon="-1.46669">
        <ele>16.06</ele>
        <time>2020-06-27T15:02:37Z</time>
      </trkpt>
      <trkpt lat="47.20139" lon="-1.46676">
        <ele>15.35</ele>
        <time>2020-06-27T15:02:39Z</time>
      </trkpt>
      <trkpt lat="47.20152" lon="-1.46679">
        <ele>15.28</ele>
        <time>2020-06-27T15:02:41Z</time>
      </trkpt>
      <trkpt lat="47.20165" lon="-1.46681">
        <ele>15.53</ele>
        <time>2020-06-27T15:02:43Z</time>
      </trkpt>
      <trkpt lat="47.20179" lon="-1.46682">
        <ele>15.13</ele>
        <time>2020-06-27T15:02:45Z</time>
      </trkpt>
      <trkpt lat="47.20194" lon="-1.46685">
        <ele>14.78</ele>
        <time>2020-06-27T15:02:47Z</time>
      </trkpt>
      <trkpt lat="47.20207" lon="-1.46689">
        <ele>14.43</ele>
        <time>2020-06-27T15:02:49Z</time>
      </trkpt>
      <trkpt lat="47.20222" lon="-1.46694">
        <ele>13.59</ele>
        <time>2020-06-27T15:02:51Z</time>
      </trkpt>
      <trkpt lat="47.20238" lon="-1.46697">
        <ele>13.32</ele>
        <time>2020-06-27T15:02:53Z</time>
      </trkpt>
      <trkpt lat="47.20252" lon="-1.467">
        <ele>13.31</ele>
        <time>2020-06-27T15:02:55Z</time>
      </trkpt>
      <trkpt lat="47.20265" lon="-1.46704">
        <ele>13.42</ele>
        <time>2020-06-27T15:02:57Z</time>
      </trkpt>
      <trkpt lat="47.20278" lon="-1.46707">
        <ele>13.91</ele>
        <time>2020-06-27T15:02:59Z</time>
      </trkpt>
      <trkpt lat="47.20291" lon="-1.46709">
        <ele>14.63</ele>
        <time>2020-06-27T15:03:01Z</time>
      </trkpt>
      <trkpt lat="47.20304" lon="-1.46711">
        <ele>14.98</ele>
        <time>2020-06-27T15:03:03Z</time>
      </trkpt>
      <trkpt lat="47.20317" lon="-1.46713">
        <ele>14.86</ele>
        <time>2020-06-27T15:03:05Z</time>
      </trkpt>
      <trkpt lat="47.20332" lon="-1.46715">
        <ele>14.99</ele>
        <time>2020-06-27T15:03:07Z</time>
      </trkpt>
      <trkpt lat="47.20347" lon="-1.46717">
        <ele>14.95</ele>
        <time>2020-06-27T15:03:09Z</time>
      </trkpt>
      <trkpt lat="47.2036" lon="-1.46718">
        <ele>14.25</ele>
        <time>2020-06-27T15:03:11Z</time>
      </trkpt>
      <trkpt lat="47.20375" lon="-1.46719">
        <ele>13.85</ele>
        <time>2020-06-27T15:03:13Z</time>
      </trkpt>
      <trkpt lat="47.2039" lon="-1.46721">
        <ele>13.91</ele>
        <time>2020-06-27T15:03:15Z</time>
      </trkpt>
      <trkpt lat="47.20403" lon="-1.46723">
        <ele>14.24</ele>
        <time>2020-06-27T15:03:17Z</time>
      </trkpt>
      <trkpt lat="47.20414" lon="-1.46726">
        <ele>14.49</ele>
        <time>2020-06-27T15:03:19Z</time>
      </trkpt>
      <trkpt lat="47.20428" lon="-1.46728">
        <ele>14.12</ele>
        <time>2020-06-27T15:03:21Z</time>
      </trkpt>
      <trkpt lat="47.2044" lon="-1.46731">
        <ele>13.36</ele>
        <time>2020-06-27T15:03:23Z</time>
      </trkpt>
      <trkpt lat="47.20452" lon="-1.46733">
        <ele>13.08</ele>
        <time>2020-06-27T15:03:25Z</time>
      </trkpt>
      <trkpt lat="47.20465" lon="-1.46734">
        <ele>13.44</ele>
        <time>2020-06-27T15:03:27Z</time>
      </trkpt>
      <trkpt lat="47.20479" lon="-1.46737">
        <ele>14</ele>
        <time>2020-06-27T15:03:29Z</time>
      </trkpt>
      <trkpt lat="47.20492" lon="-1.46738">
        <ele>15.13</ele>
        <time>2020-06-27T15:03:31Z</time>
      </trkpt>
      <trkpt lat="47.20505" lon="-1.46739">
        <ele>15.28</ele>
        <time>2020-06-27T15:03:33Z</time>
      </trkpt>
      <trkpt lat="47.20519" lon="-1.4674">
        <ele>15.03</ele>
        <time>2020-06-27T15:03:35Z</time>
      </trkpt>
      <trkpt lat="47.20534" lon="-1.46742">
        <ele>13.72</ele>
        <time>2020-06-27T15:03:37Z</time>
      </trkpt>
      <trkpt lat="47.20548" lon="-1.46744">
        <ele>13.9</ele>
        <time>2020-06-27T15:03:39Z</time>
      </trkpt>
      <trkpt lat="47.2056" lon="-1.46745">
        <ele>14.65</ele>
        <time>2020-06-27T15:03:41Z</time>
      </trkpt>
      <trkpt lat="47.20573" lon="-1.46744">
        <ele>15.06</ele>
        <time>2020-06-27T15:03:43Z</time>
      </trkpt>
      <trkpt lat="47.20586" lon="-1.46742">
        <ele>15.71</ele>
        <time>2020-06-27T15:03:45Z</time>
      </trkpt>
      <trkpt lat="47.20601" lon="-1.4674">
        <ele>17.34</ele>
        <time>2020-06-27T15:03:47Z</time>
      </trkpt>
      <trkpt lat="47.20613" lon="-1.46737">
        <ele>18.54</ele>
        <time>2020-06-27T15:03:49Z</time>
      </trkpt>
      <trkpt lat="47.20626" lon="-1.46732">
        <ele>18.09</ele>
        <time>2020-06-27T15:03:51Z</time>
      </trkpt>
      <trkpt lat="47.20641" lon="-1.46729">
        <ele>17.51</ele>
        <time>2020-06-27T15:03:53Z</time>
      </trkpt>
      <trkpt lat="47.20656" lon="-1.46726">
        <ele>17.17</ele>
        <time>2020-06-27T15:03:55Z</time>
      </trkpt>
      <trkpt lat="47.20669" lon="-1.46724">
        <ele>17.98</ele>
        <time>2020-06-27T15:03:57Z</time>
      </trkpt>
      <trkpt lat="47.20684" lon="-1.46721">
        <ele>18.26</ele>
        <time>2020-06-27T15:03:59Z</time>
      </trkpt>
      <trkpt lat="47.20698" lon="-1.46719">
        <ele>18.69</ele>
        <time>2020-06-27T15:04:01Z</time>
      </trkpt>
      <trkpt lat="47.20712" lon="-1.46716">
        <ele>19.22</ele>
        <time>2020-06-27T15:04:03Z</time>
      </trkpt>
      <trkpt lat="47.20725" lon="-1.46714">
        <ele>19.46</ele>
        <time>2020-06-27T15:04:05Z</time>
      </trkpt>
      <trkpt lat="47.20739" lon="-1.46711">
        <ele>19.45</ele>
        <time>2020-06-27T15:04:07Z</time>
      </trkpt>
      <trkpt lat="47.20753" lon="-1.46709">
        <ele>19.43</ele>
        <time>2020-06-27T15:04:09Z</time>
      </trkpt>
      <trkpt lat="47.20766" lon="-1.46707">
        <ele>18.83</ele>
        <time>2020-06-27T15:04:11Z</time>
      </trkpt>
      <trkpt lat="47.20781" lon="-1.46705">
        <ele>18.38</ele>
        <time>2020-06-27T15:04:13Z</time>
      </trkpt>
      <trkpt lat="47.20795" lon="-1.46703">
        <ele>18.2</ele>
        <time>2020-06-27T15:04:15Z</time>
      </trkpt>
      <trkpt lat="47.20809" lon="-1.46702">
        <ele>17.39</ele>
        <time>2020-06-27T15:04:17Z</time>
      </trkpt>
      <trkpt lat="47.20825" lon="-1.46701">
        <ele>16.64</ele>
        <time>2020-06-27T15:04:19Z</time>
      </trkpt>
      <trkpt lat="47.20838" lon="-1.46699">
        <ele>16.59</ele>
        <time>2020-06-27T15:04:21Z</time>
      </trkpt>
      <trkpt lat="47.20852" lon="-1.46693">
        <ele>16.64</ele>
        <time>2020-06-27T15:04:23Z</time>
      </trkpt>
      <trkpt lat="47.20868" lon="-1.46688">
        <ele>17.21</ele>
        <time>2020-06-27T15:04:25Z</time>
      </trkpt>
      <trkpt lat="47.20882" lon="-1.46684">
        <ele>17.86</ele>
        <time>2020-06-27T15:04:27Z</time>
      </trkpt>
      <trkpt lat="47.20895" lon="-1.46677">
        <ele>17.44</ele>
        <time>2020-06-27T15:04:29Z</time>
      </trkpt>
      <trkpt lat="47.20909" lon="-1.46669">
        <ele>17.74</ele>
        <time>2020-06-27T15:04:31Z</time>
      </trkpt>
      <trkpt lat="47.20924" lon="-1.46661">
        <ele>18.5</ele>
        <time>2020-06-27T15:04:33Z</time>
      </trkpt>
      <trkpt lat="47.20938" lon="-1.46652">
        <ele>19.58</ele>
        <time>2020-06-27T15:04:35Z</time>
      </trkpt>
      <trkpt lat="47.20951" lon="-1.46642">
        <ele>19.98</ele>
        <time>2020-06-27T15:04:37Z</time>
      </trkpt>
      <trkpt lat="47.20964" lon="-1.46635">
        <ele>19.78</ele>
        <time>2020-06-27T15:04:39Z</time>
      </trkpt>
      <trkpt lat="47.20976" lon="-1.46629">
        <ele>19.53</ele>
        <time>2020-06-27T15:04:41Z</time>
      </trkpt>
      <trkpt lat="47.20989" lon="-1.46626">
        <ele>19.51</ele>
        <time>2020-06-27T15:04:43Z</time>
      </trkpt>
      <trkpt lat="47.21001" lon="-1.46623">
        <ele>18.86</ele>
        <time>2020-06-27T15:04:45Z</time>
      </trkpt>
      <trkpt lat="47.21014" lon="-1.46619">
        <ele>18.86</ele>
        <time>2020-06-27T15:04:47Z</time>
      </trkpt>
      <trkpt lat="47.21028" lon="-1.46616">
        <ele>18.79</ele>
        <time>2020-06-27T15:04:49Z</time>
      </trkpt>
      <trkpt lat="47.21043" lon="-1.46612">
        <ele>18.92</ele>
        <time>2020-06-27T15:04:51Z</time>
      </trkpt>
      <trkpt lat="47.21053" lon="-1.46598">
        <ele>18.53</ele>
        <time>2020-06-27T15:04:53Z</time>
      </trkpt>
      <trkpt lat="47.21062" lon="-1.4658">
        <ele>17.62</ele>
        <time>2020-06-27T15:04:55Z</time>
      </trkpt>
      <trkpt lat="47.2107" lon="-1.4656">
        <ele>16.3</ele>
        <time>2020-06-27T15:04:57Z</time>
      </trkpt>
      <trkpt lat="47.21079" lon="-1.46545">
        <ele>14.85</ele>
        <time>2020-06-27T15:04:59Z</time>
      </trkpt>
      <trkpt lat="47.2109" lon="-1.4654">
        <ele>13.07</ele>
        <time>2020-06-27T15:05:01Z</time>
      </trkpt>
      <trkpt lat="47.21103" lon="-1.46543">
        <ele>11.58</ele>
        <time>2020-06-27T15:05:03Z</time>
      </trkpt>
      <trkpt lat="47.21113" lon="-1.46556">
        <ele>10.03</ele>
        <time>2020-06-27T15:05:05Z</time>
      </trkpt>
      <trkpt lat="47.21124" lon="-1.46568">
        <ele>9.29</ele>
        <time>2020-06-27T15:05:07Z</time>
      </trkpt>
      <trkpt lat="47.21136" lon="-1.46581">
        <ele>10.56</ele>
        <time>2020-06-27T15:05:09Z</time>
      </trkpt>
      <trkpt lat="47.21147" lon="-1.46591">
        <ele>11.43</ele>
        <time>2020-06-27T15:05:11Z</time>
      </trkpt>
      <trkpt lat="47.2116" lon="-1.46597">
        <ele>11.71</ele>
        <time>2020-06-27T15:05:13Z</time>
      </trkpt>
      <trkpt lat="47.21175" lon="-1.46604">
        <ele>13.08</ele>
        <time>2020-06-27T15:05:15Z</time>
      </trkpt>
      <trkpt lat="47.21189" lon="-1.46613">
        <ele>14.24</ele>
        <time>2020-06-27T15:05:17Z</time>
      </trkpt>
      <trkpt lat="47.21201" lon="-1.4662">
        <ele>14.57</ele>
        <time>2020-06-27T15:05:19Z</time>
      </trkpt>
      <trkpt lat="47.21214" lon="-1.46627">
        <ele>14.44</ele>
        <time>2020-06-27T15:05:21Z</time>
      </trkpt>
      <trkpt lat="47.21227" lon="-1.46632">
        <ele>13.93</ele>
        <time>2020-06-27T15:05:23Z</time>
      </trkpt>
      <trkpt lat="47.21242" lon="-1.46636">
        <ele>13.38</ele>
        <time>2020-06-27T15:05:25Z</time>
      </trkpt>
      <trkpt lat="47.21256" lon="-1.4664">
        <ele>14.12</ele>
        <time>2020-06-27T15:05:27Z</time>
      </trkpt>
      <trkpt lat="47.21269" lon="-1.46642">
        <ele>14.79</ele>
        <time>2020-06-27T15:05:29Z</time>
      </trkpt>
      <trkpt lat="47.21284" lon="-1.46646">
        <ele>15.32</ele>
        <time>2020-06-27T15:05:31Z</time>
      </trkpt>
      <trkpt lat="47.21297" lon="-1.46648">
        <ele>16.17</ele>
        <time>2020-06-27T15:05:33Z</time>
      </trkpt>
      <trkpt lat="47.21312" lon="-1.46648">
        <ele>17.52</ele>
        <time>2020-06-27T15:05:35Z</time>
      </trkpt>
      <trkpt lat="47.21326" lon="-1.46648">
        <ele>18.61</ele>
        <time>2020-06-27T15:05:37Z</time>
      </trkpt>
      <trkpt lat="47.21342" lon="-1.46646">
        <ele>18.67</ele>
        <time>2020-06-27T15:05:39Z</time>
      </trkpt>
      <trkpt lat="47.21355" lon="-1.46644">
        <ele>17.36</ele>
        <time>2020-06-27T15:05:41Z</time>
      </trkpt>
      <trkpt lat="47.2137" lon="-1.46644">
        <ele>15.72</ele>
        <time>2020-06-27T15:05:43Z</time>
      </trkpt>
      <trkpt lat="47.21385" lon="-1.46645">
        <ele>15.14</ele>
        <time>2020-06-27T15:05:45Z</time>
      </trkpt>
      <trkpt lat="47.21399" lon="-1.46645">
        <ele>14.38</ele>
        <time>2020-06-27T15:05:47Z</time>
      </trkpt>
      <trkpt lat="47.21415" lon="-1.46647">
        <ele>13.42</ele>
        <time>2020-06-27T15:05:49Z</time>
      </trkpt>
      <trkpt lat="47.21423" lon="-1.46648">
        <ele>13.17</ele>
        <time>2020-06-27T15:05:50Z</time>
      </trkpt>
      <trkpt lat="47.21439" lon="-1.46649">
        <ele>13.4</ele>
        <time>2020-06-27T15:05:52Z</time>
      </trkpt>
      <trkpt lat="47.21453" lon="-1.46645">
        <ele>12.59</ele>
        <time>2020-06-27T15:05:54Z</time>
      </trkpt>
      <trkpt lat="47.21462" lon="-1.4664">
        <ele>11.98</ele>
        <time>2020-06-27T15:05:55Z</time>
      </trkpt>
      <trkpt lat="47.21477" lon="-1.46628">
        <ele>11.18</ele>
        <time>2020-06-27T15:05:57Z</time>
      </trkpt>
      <trkpt lat="47.21491" lon="-1.46614">
        <ele>9.92</ele>
        <time>2020-06-27T15:05:59Z</time>
      </trkpt>
      <trkpt lat="47.21504" lon="-1.46601">
        <ele>10.66</ele>
        <time>2020-06-27T15:06:01Z</time>
      </trkpt>
      <trkpt lat="47.21512" lon="-1.46588">
        <ele>11.79</ele>
        <time>2020-06-27T15:06:03Z</time>
      </trkpt>
      <trkpt lat="47.21521" lon="-1.46574">
        <ele>13.11</ele>
        <time>2020-06-27T15:06:05Z</time>
      </trkpt>
      <trkpt lat="47.21531" lon="-1.46559">
        <ele>14.08</ele>
        <time>2020-06-27T15:06:07Z</time>
      </trkpt>
      <trkpt lat="47.21544" lon="-1.46549">
        <ele>14.36</ele>
        <time>2020-06-27T15:06:09Z</time>
      </trkpt>
      <trkpt lat="47.21557" lon="-1.46543">
        <ele>14.06</ele>
        <time>2020-06-27T15:06:11Z</time>
      </trkpt>
      <trkpt lat="47.2157" lon="-1.4654">
        <ele>12.79</ele>
        <time>2020-06-27T15:06:13Z</time>
      </trkpt>
      <trkpt lat="47.21583" lon="-1.46539">
        <ele>10.53</ele>
        <time>2020-06-27T15:06:15Z</time>
      </trkpt>
      <trkpt lat="47.21596" lon="-1.46539">
        <ele>7.98</ele>
        <time>2020-06-27T15:06:17Z</time>
      </trkpt>
      <trkpt lat="47.21609" lon="-1.46538">
        <ele>5.54</ele>
        <time>2020-06-27T15:06:19Z</time>
      </trkpt>
      <trkpt lat="47.21625" lon="-1.46539">
        <ele>4.01</ele>
        <time>2020-06-27T15:06:22Z</time>
      </trkpt>
      <trkpt lat="47.21637" lon="-1.46538">
        <ele>3.73</ele>
        <time>2020-06-27T15:06:24Z</time>
      </trkpt>
      <trkpt lat="47.21648" lon="-1.46526">
        <ele>3.11</ele>
        <time>2020-06-27T15:06:26Z</time>
      </trkpt>
      <trkpt lat="47.21651" lon="-1.46502">
        <ele>2.16</ele>
        <time>2020-06-27T15:06:28Z</time>
      </trkpt>
      <trkpt lat="47.21651" lon="-1.46481">
        <ele>0.13</ele>
        <time>2020-06-27T15:06:30Z</time>
      </trkpt>
      <trkpt lat="47.21655" lon="-1.46462">
        <ele>-0.68</ele>
        <time>2020-06-27T15:06:32Z</time>
      </trkpt>
      <trkpt lat="47.21658" lon="-1.4645">
        <ele>-0.95</ele>
        <time>2020-06-27T15:06:33Z</time>
      </trkpt>
      <trkpt lat="47.2166" lon="-1.46425">
        <ele>-1.87</ele>
        <time>2020-06-27T15:06:35Z</time>
      </trkpt>
      <trkpt lat="47.2166" lon="-1.46402">
        <ele>-2.27</ele>
        <time>2020-06-27T15:06:37Z</time>
      </trkpt>
      <trkpt lat="47.2166" lon="-1.4638">
        <ele>-3.12</ele>
        <time>2020-06-27T15:06:39Z</time>
      </trkpt>
      <trkpt lat="47.21661" lon="-1.46355">
        <ele>-4.41</ele>
        <time>2020-06-27T15:06:41Z</time>
      </trkpt>
      <trkpt lat="47.21663" lon="-1.46331">
        <ele>-5.12</ele>
        <time>2020-06-27T15:06:43Z</time>
      </trkpt>
      <trkpt lat="47.21664" lon="-1.46312">
        <ele>-4.56</ele>
        <time>2020-06-27T15:06:45Z</time>
      </trkpt>
      <trkpt lat="47.21665" lon="-1.46292">
        <ele>-3.74</ele>
        <time>2020-06-27T15:06:47Z</time>
      </trkpt>
      <trkpt lat="47.21667" lon="-1.46273">
        <ele>-3.54</ele>
        <time>2020-06-27T15:06:49Z</time>
      </trkpt>
      <trkpt lat="47.21668" lon="-1.46252">
        <ele>-3.38</ele>
        <time>2020-06-27T15:06:51Z</time>
      </trkpt>
      <trkpt lat="47.21668" lon="-1.4623">
        <ele>-4.23</ele>
        <time>2020-06-27T15:06:53Z</time>
      </trkpt>
      <trkpt lat="47.21664" lon="-1.46211">
        <ele>-5.31</ele>
        <time>2020-06-27T15:06:55Z</time>
      </trkpt>
      <trkpt lat="47.21662" lon="-1.46193">
        <ele>-5.97</ele>
        <time>2020-06-27T15:06:57Z</time>
      </trkpt>
      <trkpt lat="47.21672" lon="-1.46182">
        <ele>-5.88</ele>
        <time>2020-06-27T15:06:59Z</time>
      </trkpt>
      <trkpt lat="47.21684" lon="-1.46181">
        <ele>-5.56</ele>
        <time>2020-06-27T15:07:01Z</time>
      </trkpt>
      <trkpt lat="47.21693" lon="-1.4617">
        <ele>-3.45</ele>
        <time>2020-06-27T15:07:03Z</time>
      </trkpt>
      <trkpt lat="47.21701" lon="-1.46151">
        <ele>-1.79</ele>
        <time>2020-06-27T15:07:05Z</time>
      </trkpt>
      <trkpt lat="47.21707" lon="-1.46131">
        <ele>-0.57</ele>
        <time>2020-06-27T15:07:07Z</time>
      </trkpt>
      <trkpt lat="47.21719" lon="-1.46127">
        <ele>-1.28</ele>
        <time>2020-06-27T15:07:09Z</time>
      </trkpt>
      <trkpt lat="47.21731" lon="-1.46134">
        <ele>-1.96</ele>
        <time>2020-06-27T15:07:11Z</time>
      </trkpt>
      <trkpt lat="47.21744" lon="-1.46143">
        <ele>-1.93</ele>
        <time>2020-06-27T15:07:13Z</time>
      </trkpt>
      <trkpt lat="47.21755" lon="-1.4615">
        <ele>-2.23</ele>
        <time>2020-06-27T15:07:15Z</time>
      </trkpt>
      <trkpt lat="47.21769" lon="-1.46159">
        <ele>-2.43</ele>
        <time>2020-06-27T15:07:17Z</time>
      </trkpt>
      <trkpt lat="47.21781" lon="-1.46167">
        <ele>-2.91</ele>
        <time>2020-06-27T15:07:19Z</time>
      </trkpt>
      <trkpt lat="47.21791" lon="-1.46174">
        <ele>-4</ele>
        <time>2020-06-27T15:07:21Z</time>
      </trkpt>
      <trkpt lat="47.21802" lon="-1.46178">
        <ele>-5.14</ele>
        <time>2020-06-27T15:07:23Z</time>
      </trkpt>
      <trkpt lat="47.21815" lon="-1.46184">
        <ele>-5.36</ele>
        <time>2020-06-27T15:07:25Z</time>
      </trkpt>
      <trkpt lat="47.21828" lon="-1.4619">
        <ele>-5.18</ele>
        <time>2020-06-27T15:07:27Z</time>
      </trkpt>
      <trkpt lat="47.2184" lon="-1.46196">
        <ele>-5.46</ele>
        <time>2020-06-27T15:07:29Z</time>
      </trkpt>
      <trkpt lat="47.21854" lon="-1.46202">
        <ele>-5.56</ele>
        <time>2020-06-27T15:07:31Z</time>
      </trkpt>
      <trkpt lat="47.21865" lon="-1.46208">
        <ele>-6.01</ele>
        <time>2020-06-27T15:07:33Z</time>
      </trkpt>
      <trkpt lat="47.21877" lon="-1.46216">
        <ele>-6.01</ele>
        <time>2020-06-27T15:07:35Z</time>
      </trkpt>
      <trkpt lat="47.21888" lon="-1.46221">
        <ele>-5.81</ele>
        <time>2020-06-27T15:07:37Z</time>
      </trkpt>
      <trkpt lat="47.21901" lon="-1.46228">
        <ele>-5.46</ele>
        <time>2020-06-27T15:07:39Z</time>
      </trkpt>
      <trkpt lat="47.21912" lon="-1.46234">
        <ele>-4.34</ele>
        <time>2020-06-27T15:07:41Z</time>
      </trkpt>
      <trkpt lat="47.21923" lon="-1.46239">
        <ele>-3.78</ele>
        <time>2020-06-27T15:07:43Z</time>
      </trkpt>
      <trkpt lat="47.21937" lon="-1.46246">
        <ele>-3.64</ele>
        <time>2020-06-27T15:07:45Z</time>
      </trkpt>
      <trkpt lat="47.2195" lon="-1.46253">
        <ele>-3.11</ele>
        <time>2020-06-27T15:07:47Z</time>
      </trkpt>
      <trkpt lat="47.21961" lon="-1.46259">
        <ele>-1.98</ele>
        <time>2020-06-27T15:07:49Z</time>
      </trkpt>
      <trkpt lat="47.2197" lon="-1.46265">
        <ele>-2</ele>
        <time>2020-06-27T15:07:51Z</time>
      </trkpt>
      <trkpt lat="47.21981" lon="-1.46272">
        <ele>-2.33</ele>
        <time>2020-06-27T15:07:53Z</time>
      </trkpt>
      <trkpt lat="47.21992" lon="-1.46278">
        <ele>-1.89</ele>
        <time>2020-06-27T15:07:55Z</time>
      </trkpt>
      <trkpt lat="47.22004" lon="-1.46283">
        <ele>-2.59</ele>
        <time>2020-06-27T15:07:57Z</time>
      </trkpt>
      <trkpt lat="47.22017" lon="-1.4629">
        <ele>-3.56</ele>
        <time>2020-06-27T15:07:59Z</time>
      </trkpt>
      <trkpt lat="47.22029" lon="-1.46295">
        <ele>-3.75</ele>
        <time>2020-06-27T15:08:01Z</time>
      </trkpt>
      <trkpt lat="47.2204" lon="-1.463">
        <ele>-4.5</ele>
        <time>2020-06-27T15:08:03Z</time>
      </trkpt>
      <trkpt lat="47.22053" lon="-1.46307">
        <ele>-5.66</ele>
        <time>2020-06-27T15:08:06Z</time>
      </trkpt>
      <trkpt lat="47.22066" lon="-1.46314">
        <ele>-5.54</ele>
        <time>2020-06-27T15:08:08Z</time>
      </trkpt>
      <trkpt lat="47.22079" lon="-1.4632">
        <ele>-5.05</ele>
        <time>2020-06-27T15:08:10Z</time>
      </trkpt>
      <trkpt lat="47.22092" lon="-1.46326">
        <ele>-4.57</ele>
        <time>2020-06-27T15:08:12Z</time>
      </trkpt>
      <trkpt lat="47.22102" lon="-1.46332">
        <ele>-4.39</ele>
        <time>2020-06-27T15:08:14Z</time>
      </trkpt>
      <trkpt lat="47.22114" lon="-1.46339">
        <ele>-4.73</ele>
        <time>2020-06-27T15:08:16Z</time>
      </trkpt>
      <trkpt lat="47.22128" lon="-1.46345">
        <ele>-5.82</ele>
        <time>2020-06-27T15:08:18Z</time>
      </trkpt>
      <trkpt lat="47.2214" lon="-1.46351">
        <ele>-6.17</ele>
        <time>2020-06-27T15:08:20Z</time>
      </trkpt>
      <trkpt lat="47.22152" lon="-1.46357">
        <ele>-5.45</ele>
        <time>2020-06-27T15:08:22Z</time>
      </trkpt>
      <trkpt lat="47.22163" lon="-1.46363">
        <ele>-5.09</ele>
        <time>2020-06-27T15:08:24Z</time>
      </trkpt>
      <trkpt lat="47.22175" lon="-1.46371">
        <ele>-4.55</ele>
        <time>2020-06-27T15:08:26Z</time>
      </trkpt>
      <trkpt lat="47.22187" lon="-1.46377">
        <ele>-3.81</ele>
        <time>2020-06-27T15:08:28Z</time>
      </trkpt>
      <trkpt lat="47.22199" lon="-1.46383">
        <ele>-3.6</ele>
        <time>2020-06-27T15:08:30Z</time>
      </trkpt>
      <trkpt lat="47.2221" lon="-1.4639">
        <ele>-3.2</ele>
        <time>2020-06-27T15:08:32Z</time>
      </trkpt>
      <trkpt lat="47.2222" lon="-1.46394">
        <ele>-2.72</ele>
        <time>2020-06-27T15:08:34Z</time>
      </trkpt>
      <trkpt lat="47.22232" lon="-1.464">
        <ele>-2.85</ele>
        <time>2020-06-27T15:08:36Z</time>
      </trkpt>
      <trkpt lat="47.22243" lon="-1.46405">
        <ele>-2.35</ele>
        <time>2020-06-27T15:08:38Z</time>
      </trkpt>
      <trkpt lat="47.22257" lon="-1.46412">
        <ele>-1.34</ele>
        <time>2020-06-27T15:08:40Z</time>
      </trkpt>
      <trkpt lat="47.22268" lon="-1.46418">
        <ele>-0.7</ele>
        <time>2020-06-27T15:08:42Z</time>
      </trkpt>
      <trkpt lat="47.2228" lon="-1.46424">
        <ele>-0.75</ele>
        <time>2020-06-27T15:08:44Z</time>
      </trkpt>
      <trkpt lat="47.22296" lon="-1.46431">
        <ele>-0.44</ele>
        <time>2020-06-27T15:08:47Z</time>
      </trkpt>
      <trkpt lat="47.22309" lon="-1.46438">
        <ele>-1.06</ele>
        <time>2020-06-27T15:08:49Z</time>
      </trkpt>
      <trkpt lat="47.22321" lon="-1.46444">
        <ele>-2.05</ele>
        <time>2020-06-27T15:08:51Z</time>
      </trkpt>
      <trkpt lat="47.22333" lon="-1.46453">
        <ele>-1.96</ele>
        <time>2020-06-27T15:08:53Z</time>
      </trkpt>
      <trkpt lat="47.22346" lon="-1.46464">
        <ele>-2.67</ele>
        <time>2020-06-27T15:08:55Z</time>
      </trkpt>
      <trkpt lat="47.22355" lon="-1.46474">
        <ele>-1.88</ele>
        <time>2020-06-27T15:08:57Z</time>
      </trkpt>
      <trkpt lat="47.22365" lon="-1.46485">
        <ele>-1.69</ele>
        <time>2020-06-27T15:08:59Z</time>
      </trkpt>
      <trkpt lat="47.22373" lon="-1.46495">
        <ele>-1.22</ele>
        <time>2020-06-27T15:09:01Z</time>
      </trkpt>
      <trkpt lat="47.22383" lon="-1.46508">
        <ele>-1.54</ele>
        <time>2020-06-27T15:09:03Z</time>
      </trkpt>
      <trkpt lat="47.22394" lon="-1.46523">
        <ele>-2.38</ele>
        <time>2020-06-27T15:09:05Z</time>
      </trkpt>
      <trkpt lat="47.22404" lon="-1.46538">
        <ele>-2.01</ele>
        <time>2020-06-27T15:09:07Z</time>
      </trkpt>
      <trkpt lat="47.22414" lon="-1.46552">
        <ele>-1.63</ele>
        <time>2020-06-27T15:09:09Z</time>
      </trkpt>
      <trkpt lat="47.22424" lon="-1.46566">
        <ele>-1.09</ele>
        <time>2020-06-27T15:09:11Z</time>
      </trkpt>
      <trkpt lat="47.22434" lon="-1.4658">
        <ele>0.17</ele>
        <time>2020-06-27T15:09:13Z</time>
      </trkpt>
      <trkpt lat="47.22444" lon="-1.46593">
        <ele>1.31</ele>
        <time>2020-06-27T15:09:15Z</time>
      </trkpt>
      <trkpt lat="47.22454" lon="-1.46607">
        <ele>3.3</ele>
        <time>2020-06-27T15:09:17Z</time>
      </trkpt>
      <trkpt lat="47.22464" lon="-1.46621">
        <ele>3.96</ele>
        <time>2020-06-27T15:09:19Z</time>
      </trkpt>
      <trkpt lat="47.22473" lon="-1.46634">
        <ele>2.44</ele>
        <time>2020-06-27T15:09:21Z</time>
      </trkpt>
      <trkpt lat="47.22485" lon="-1.46647">
        <ele>-0.01</ele>
        <time>2020-06-27T15:09:23Z</time>
      </trkpt>
      <trkpt lat="47.22494" lon="-1.4666">
        <ele>-1.7</ele>
        <time>2020-06-27T15:09:25Z</time>
      </trkpt>
      <trkpt lat="47.22504" lon="-1.4667">
        <ele>-3.22</ele>
        <time>2020-06-27T15:09:28Z</time>
      </trkpt>
      <trkpt lat="47.22517" lon="-1.46683">
        <ele>-4.65</ele>
        <time>2020-06-27T15:09:31Z</time>
      </trkpt>
      <trkpt lat="47.22528" lon="-1.46691">
        <ele>-4.03</ele>
        <time>2020-06-27T15:09:33Z</time>
      </trkpt>
      <trkpt lat="47.22536" lon="-1.46698">
        <ele>-3.34</ele>
        <time>2020-06-27T15:09:35Z</time>
      </trkpt>
      <trkpt lat="47.22545" lon="-1.46708">
        <ele>-4.23</ele>
        <time>2020-06-27T15:09:37Z</time>
      </trkpt>
      <trkpt lat="47.22553" lon="-1.46722">
        <ele>-4.25</ele>
        <time>2020-06-27T15:09:39Z</time>
      </trkpt>
      <trkpt lat="47.22562" lon="-1.46738">
        <ele>-3.74</ele>
        <time>2020-06-27T15:09:41Z</time>
      </trkpt>
      <trkpt lat="47.22571" lon="-1.4675">
        <ele>-2.34</ele>
        <time>2020-06-27T15:09:43Z</time>
      </trkpt>
      <trkpt lat="47.2258" lon="-1.4676">
        <ele>-2.63</ele>
        <time>2020-06-27T15:09:45Z</time>
      </trkpt>
      <trkpt lat="47.22591" lon="-1.46769">
        <ele>-3.48</ele>
        <time>2020-06-27T15:09:47Z</time>
      </trkpt>
      <trkpt lat="47.22602" lon="-1.46775">
        <ele>-3.83</ele>
        <time>2020-06-27T15:09:49Z</time>
      </trkpt>
      <trkpt lat="47.22612" lon="-1.46784">
        <ele>-4.03</ele>
        <time>2020-06-27T15:09:51Z</time>
      </trkpt>
      <trkpt lat="47.22623" lon="-1.46792">
        <ele>-4.2</ele>
        <time>2020-06-27T15:09:53Z</time>
      </trkpt>
      <trkpt lat="47.22632" lon="-1.46806">
        <ele>-3.41</ele>
        <time>2020-06-27T15:09:56Z</time>
      </trkpt>
      <trkpt lat="47.22633" lon="-1.46823">
        <ele>-2.8</ele>
        <time>2020-06-27T15:09:59Z</time>
      </trkpt>
      <trkpt lat="47.22629" lon="-1.46837">
        <ele>-2.84</ele>
        <time>2020-06-27T15:10:01Z</time>
      </trkpt>
      <trkpt lat="47.22619" lon="-1.4685">
        <ele>-3.29</ele>
        <time>2020-06-27T15:10:04Z</time>
      </trkpt>
      <trkpt lat="47.22611" lon="-1.46865">
        <ele>-3.06</ele>
        <time>2020-06-27T15:10:06Z</time>
      </trkpt>
      <trkpt lat="47.22607" lon="-1.46878">
        <ele>-2</ele>
        <time>2020-06-27T15:10:09Z</time>
      </trkpt>
      <trkpt lat="47.22606" lon="-1.46893">
        <ele>-1.65</ele>
        <time>2020-06-27T15:10:11Z</time>
      </trkpt>
      <trkpt lat="47.22605" lon="-1.46911">
        <ele>-1.95</ele>
        <time>2020-06-27T15:10:13Z</time>
      </trkpt>
      <trkpt lat="47.22605" lon="-1.46928">
        <ele>-1.58</ele>
        <time>2020-06-27T15:10:15Z</time>
      </trkpt>
      <trkpt lat="47.22606" lon="-1.46942">
        <ele>-1.88</ele>
        <time>2020-06-27T15:10:17Z</time>
      </trkpt>
      <trkpt lat="47.22609" lon="-1.46962">
        <ele>-3.58</ele>
        <time>2020-06-27T15:10:20Z</time>
      </trkpt>
      <trkpt lat="47.2261" lon="-1.46976">
        <ele>-4.42</ele>
        <time>2020-06-27T15:10:22Z</time>
      </trkpt>
      <trkpt lat="47.22609" lon="-1.46995">
        <ele>-5.78</ele>
        <time>2020-06-27T15:10:24Z</time>
      </trkpt>
      <trkpt lat="47.22607" lon="-1.47008">
        <ele>-6.99</ele>
        <time>2020-06-27T15:10:26Z</time>
      </trkpt>
      <trkpt lat="47.22605" lon="-1.47023">
        <ele>-7.51</ele>
        <time>2020-06-27T15:10:28Z</time>
      </trkpt>
      <trkpt lat="47.22603" lon="-1.47037">
        <ele>-6.07</ele>
        <time>2020-06-27T15:10:30Z</time>
      </trkpt>
      <trkpt lat="47.22598" lon="-1.47052">
        <ele>-5.71</ele>
        <time>2020-06-27T15:10:32Z</time>
      </trkpt>
      <trkpt lat="47.22592" lon="-1.47064">
        <ele>-5.18</ele>
        <time>2020-06-27T15:10:34Z</time>
      </trkpt>
      <trkpt lat="47.22586" lon="-1.47076">
        <ele>-5.06</ele>
        <time>2020-06-27T15:10:36Z</time>
      </trkpt>
      <trkpt lat="47.22577" lon="-1.4709">
        <ele>-4.08</ele>
        <time>2020-06-27T15:10:39Z</time>
      </trkpt>
      <trkpt lat="47.22569" lon="-1.47098">
        <ele>-3</ele>
        <time>2020-06-27T15:10:41Z</time>
      </trkpt>
      <trkpt lat="47.22559" lon="-1.47107">
        <ele>-1.92</ele>
        <time>2020-06-27T15:10:43Z</time>
      </trkpt>
      <trkpt lat="47.22549" lon="-1.47114">
        <ele>-1.45</ele>
        <time>2020-06-27T15:10:45Z</time>
      </trkpt>
      <trkpt lat="47.22539" lon="-1.47121">
        <ele>-0.12</ele>
        <time>2020-06-27T15:10:48Z</time>
      </trkpt>
      <trkpt lat="47.2253" lon="-1.47126">
        <ele>0.34</ele>
        <time>2020-06-27T15:10:50Z</time>
      </trkpt>
      <trkpt lat="47.22519" lon="-1.47134">
        <ele>0.44</ele>
        <time>2020-06-27T15:10:52Z</time>
      </trkpt>
      <trkpt lat="47.2251" lon="-1.47142">
        <ele>1.54</ele>
        <time>2020-06-27T15:10:54Z</time>
      </trkpt>
      <trkpt lat="47.225" lon="-1.47145">
        <ele>2.61</ele>
        <time>2020-06-27T15:10:56Z</time>
      </trkpt>
      <trkpt lat="47.2249" lon="-1.47149">
        <ele>3.44</ele>
        <time>2020-06-27T15:10:58Z</time>
      </trkpt>
      <trkpt lat="47.22478" lon="-1.47154">
        <ele>3.59</ele>
        <time>2020-06-27T15:11:00Z</time>
      </trkpt>
      <trkpt lat="47.22467" lon="-1.47161">
        <ele>2.89</ele>
        <time>2020-06-27T15:11:02Z</time>
      </trkpt>
      <trkpt lat="47.22458" lon="-1.47168">
        <ele>2.09</ele>
        <time>2020-06-27T15:11:04Z</time>
      </trkpt>
      <trkpt lat="47.22449" lon="-1.47176">
        <ele>2.15</ele>
        <time>2020-06-27T15:11:06Z</time>
      </trkpt>
      <trkpt lat="47.22439" lon="-1.47185">
        <ele>2.94</ele>
        <time>2020-06-27T15:11:08Z</time>
      </trkpt>
      <trkpt lat="47.2243" lon="-1.47193">
        <ele>3.01</ele>
        <time>2020-06-27T15:11:10Z</time>
      </trkpt>
      <trkpt lat="47.22419" lon="-1.47205">
        <ele>2.1</ele>
        <time>2020-06-27T15:11:12Z</time>
      </trkpt>
      <trkpt lat="47.2241" lon="-1.47216">
        <ele>1.05</ele>
        <time>2020-06-27T15:11:14Z</time>
      </trkpt>
      <trkpt lat="47.22399" lon="-1.47227">
        <ele>0.11</ele>
        <time>2020-06-27T15:11:16Z</time>
      </trkpt>
      <trkpt lat="47.22389" lon="-1.47237">
        <ele>-1</ele>
        <time>2020-06-27T15:11:18Z</time>
      </trkpt>
      <trkpt lat="47.22379" lon="-1.47249">
        <ele>-1.63</ele>
        <time>2020-06-27T15:11:20Z</time>
      </trkpt>
      <trkpt lat="47.22368" lon="-1.4726">
        <ele>-1.1</ele>
        <time>2020-06-27T15:11:22Z</time>
      </trkpt>
      <trkpt lat="47.22355" lon="-1.47272">
        <ele>-0.43</ele>
        <time>2020-06-27T15:11:24Z</time>
      </trkpt>
      <trkpt lat="47.22344" lon="-1.47283">
        <ele>0.79</ele>
        <time>2020-06-27T15:11:26Z</time>
      </trkpt>
      <trkpt lat="47.22333" lon="-1.47294">
        <ele>1.5</ele>
        <time>2020-06-27T15:11:28Z</time>
      </trkpt>
      <trkpt lat="47.22321" lon="-1.47303">
        <ele>1.6</ele>
        <time>2020-06-27T15:11:30Z</time>
      </trkpt>
      <trkpt lat="47.2231" lon="-1.47312">
        <ele>1.2</ele>
        <time>2020-06-27T15:11:32Z</time>
      </trkpt>
      <trkpt lat="47.223" lon="-1.47321">
        <ele>1.74</ele>
        <time>2020-06-27T15:11:34Z</time>
      </trkpt>
      <trkpt lat="47.22287" lon="-1.47331">
        <ele>2.09</ele>
        <time>2020-06-27T15:11:36Z</time>
      </trkpt>
      <trkpt lat="47.22275" lon="-1.47341">
        <ele>2.88</ele>
        <time>2020-06-27T15:11:38Z</time>
      </trkpt>
      <trkpt lat="47.22264" lon="-1.47349">
        <ele>3.23</ele>
        <time>2020-06-27T15:11:40Z</time>
      </trkpt>
      <trkpt lat="47.22251" lon="-1.47359">
        <ele>2.59</ele>
        <time>2020-06-27T15:11:42Z</time>
      </trkpt>
      <trkpt lat="47.22238" lon="-1.47368">
        <ele>1.86</ele>
        <time>2020-06-27T15:11:44Z</time>
      </trkpt>
      <trkpt lat="47.22227" lon="-1.47375">
        <ele>1.47</ele>
        <time>2020-06-27T15:11:46Z</time>
      </trkpt>
      <trkpt lat="47.22216" lon="-1.47382">
        <ele>0.69</ele>
        <time>2020-06-27T15:11:48Z</time>
      </trkpt>
      <trkpt lat="47.22203" lon="-1.4739">
        <ele>0.16</ele>
        <time>2020-06-27T15:11:50Z</time>
      </trkpt>
      <trkpt lat="47.2219" lon="-1.474">
        <ele>-0.25</ele>
        <time>2020-06-27T15:11:52Z</time>
      </trkpt>
      <trkpt lat="47.22179" lon="-1.47408">
        <ele>-0.88</ele>
        <time>2020-06-27T15:11:54Z</time>
      </trkpt>
      <trkpt lat="47.22167" lon="-1.47418">
        <ele>-0.8</ele>
        <time>2020-06-27T15:11:56Z</time>
      </trkpt>
      <trkpt lat="47.22154" lon="-1.47428">
        <ele>-0.92</ele>
        <time>2020-06-27T15:11:58Z</time>
      </trkpt>
      <trkpt lat="47.22142" lon="-1.47438">
        <ele>-1.14</ele>
        <time>2020-06-27T15:12:00Z</time>
      </trkpt>
      <trkpt lat="47.2213" lon="-1.47449">
        <ele>-0.58</ele>
        <time>2020-06-27T15:12:02Z</time>
      </trkpt>
      <trkpt lat="47.2212" lon="-1.47459">
        <ele>-0.54</ele>
        <time>2020-06-27T15:12:04Z</time>
      </trkpt>
      <trkpt lat="47.22108" lon="-1.4747">
        <ele>0.29</ele>
        <time>2020-06-27T15:12:06Z</time>
      </trkpt>
      <trkpt lat="47.22096" lon="-1.47481">
        <ele>0.34</ele>
        <time>2020-06-27T15:12:08Z</time>
      </trkpt>
      <trkpt lat="47.22084" lon="-1.47491">
        <ele>-0.5</ele>
        <time>2020-06-27T15:12:10Z</time>
      </trkpt>
      <trkpt lat="47.22074" lon="-1.47501">
        <ele>-0.52</ele>
        <time>2020-06-27T15:12:12Z</time>
      </trkpt>
      <trkpt lat="47.22064" lon="-1.47509">
        <ele>-0.28</ele>
        <time>2020-06-27T15:12:14Z</time>
      </trkpt>
      <trkpt lat="47.22053" lon="-1.47519">
        <ele>-0.38</ele>
        <time>2020-06-27T15:12:16Z</time>
      </trkpt>
      <trkpt lat="47.22041" lon="-1.4753">
        <ele>-0.39</ele>
        <time>2020-06-27T15:12:18Z</time>
      </trkpt>
      <trkpt lat="47.22029" lon="-1.4754">
        <ele>0.24</ele>
        <time>2020-06-27T15:12:20Z</time>
      </trkpt>
      <trkpt lat="47.22018" lon="-1.4755">
        <ele>0.66</ele>
        <time>2020-06-27T15:12:22Z</time>
      </trkpt>
      <trkpt lat="47.22009" lon="-1.47559">
        <ele>0.98</ele>
        <time>2020-06-27T15:12:24Z</time>
      </trkpt>
      <trkpt lat="47.21998" lon="-1.47567">
        <ele>0.67</ele>
        <time>2020-06-27T15:12:26Z</time>
      </trkpt>
      <trkpt lat="47.21986" lon="-1.47578">
        <ele>-0.35</ele>
        <time>2020-06-27T15:12:28Z</time>
      </trkpt>
      <trkpt lat="47.21977" lon="-1.47587">
        <ele>-0.4</ele>
        <time>2020-06-27T15:12:30Z</time>
      </trkpt>
      <trkpt lat="47.21966" lon="-1.47596">
        <ele>-1.35</ele>
        <time>2020-06-27T15:12:32Z</time>
      </trkpt>
      <trkpt lat="47.21955" lon="-1.47606">
        <ele>-2.49</ele>
        <time>2020-06-27T15:12:34Z</time>
      </trkpt>
      <trkpt lat="47.21944" lon="-1.47614">
        <ele>-2.77</ele>
        <time>2020-06-27T15:12:36Z</time>
      </trkpt>
      <trkpt lat="47.21935" lon="-1.47623">
        <ele>-1.97</ele>
        <time>2020-06-27T15:12:38Z</time>
      </trkpt>
      <trkpt lat="47.21924" lon="-1.47633">
        <ele>-2.26</ele>
        <time>2020-06-27T15:12:40Z</time>
      </trkpt>
      <trkpt lat="47.21914" lon="-1.47644">
        <ele>-1.72</ele>
        <time>2020-06-27T15:12:42Z</time>
      </trkpt>
      <trkpt lat="47.21905" lon="-1.47653">
        <ele>0.47</ele>
        <time>2020-06-27T15:12:44Z</time>
      </trkpt>
      <trkpt lat="47.21894" lon="-1.47664">
        <ele>0.61</ele>
        <time>2020-06-27T15:12:46Z</time>
      </trkpt>
      <trkpt lat="47.21885" lon="-1.47674">
        <ele>-0.48</ele>
        <time>2020-06-27T15:12:48Z</time>
      </trkpt>
      <trkpt lat="47.21875" lon="-1.47684">
        <ele>-1.02</ele>
        <time>2020-06-27T15:12:50Z</time>
      </trkpt>
      <trkpt lat="47.21864" lon="-1.47693">
        <ele>-0.84</ele>
        <time>2020-06-27T15:12:52Z</time>
      </trkpt>
      <trkpt lat="47.21855" lon="-1.47701">
        <ele>0.41</ele>
        <time>2020-06-27T15:12:54Z</time>
      </trkpt>
      <trkpt lat="47.21845" lon="-1.47709">
        <ele>0.06</ele>
        <time>2020-06-27T15:12:56Z</time>
      </trkpt>
      <trkpt lat="47.21836" lon="-1.47717">
        <ele>0.84</ele>
        <time>2020-06-27T15:12:58Z</time>
      </trkpt>
      <trkpt lat="47.21824" lon="-1.47726">
        <ele>1.56</ele>
        <time>2020-06-27T15:13:00Z</time>
      </trkpt>
      <trkpt lat="47.21815" lon="-1.47734">
        <ele>1.54</ele>
        <time>2020-06-27T15:13:02Z</time>
      </trkpt>
      <trkpt lat="47.21806" lon="-1.47741">
        <ele>1.87</ele>
        <time>2020-06-27T15:13:04Z</time>
      </trkpt>
      <trkpt lat="47.21796" lon="-1.47748">
        <ele>1.38</ele>
        <time>2020-06-27T15:13:06Z</time>
      </trkpt>
      <trkpt lat="47.21785" lon="-1.47755">
        <ele>0.79</ele>
        <time>2020-06-27T15:13:08Z</time>
      </trkpt>
      <trkpt lat="47.21773" lon="-1.47764">
        <ele>0.68</ele>
        <time>2020-06-27T15:13:10Z</time>
      </trkpt>
      <trkpt lat="47.21762" lon="-1.47772">
        <ele>0.16</ele>
        <time>2020-06-27T15:13:12Z</time>
      </trkpt>
      <trkpt lat="47.21751" lon="-1.47781">
        <ele>-0.26</ele>
        <time>2020-06-27T15:13:14Z</time>
      </trkpt>
      <trkpt lat="47.21743" lon="-1.47788">
        <ele>-0.49</ele>
        <time>2020-06-27T15:13:16Z</time>
      </trkpt>
      <trkpt lat="47.21734" lon="-1.47795">
        <ele>-0.39</ele>
        <time>2020-06-27T15:13:18Z</time>
      </trkpt>
      <trkpt lat="47.21724" lon="-1.47805">
        <ele>-1.21</ele>
        <time>2020-06-27T15:13:20Z</time>
      </trkpt>
      <trkpt lat="47.21714" lon="-1.47816">
        <ele>-1.81</ele>
        <time>2020-06-27T15:13:22Z</time>
      </trkpt>
      <trkpt lat="47.21703" lon="-1.47828">
        <ele>-1.86</ele>
        <time>2020-06-27T15:13:24Z</time>
      </trkpt>
      <trkpt lat="47.21693" lon="-1.47838">
        <ele>-2.38</ele>
        <time>2020-06-27T15:13:26Z</time>
      </trkpt>
      <trkpt lat="47.21683" lon="-1.47846">
        <ele>-2.71</ele>
        <time>2020-06-27T15:13:28Z</time>
      </trkpt>
      <trkpt lat="47.21675" lon="-1.47853">
        <ele>-3.42</ele>
        <time>2020-06-27T15:13:30Z</time>
      </trkpt>
      <trkpt lat="47.21665" lon="-1.47862">
        <ele>-3.65</ele>
        <time>2020-06-27T15:13:32Z</time>
      </trkpt>
      <trkpt lat="47.21656" lon="-1.4787">
        <ele>-2.84</ele>
        <time>2020-06-27T15:13:34Z</time>
      </trkpt>
      <trkpt lat="47.21646" lon="-1.47879">
        <ele>-1.49</ele>
        <time>2020-06-27T15:13:36Z</time>
      </trkpt>
      <trkpt lat="47.21636" lon="-1.47888">
        <ele>-0.5</ele>
        <time>2020-06-27T15:13:38Z</time>
      </trkpt>
      <trkpt lat="47.21628" lon="-1.47896">
        <ele>0.63</ele>
        <time>2020-06-27T15:13:40Z</time>
      </trkpt>
      <trkpt lat="47.21619" lon="-1.47903">
        <ele>1.89</ele>
        <time>2020-06-27T15:13:42Z</time>
      </trkpt>
      <trkpt lat="47.2161" lon="-1.4791">
        <ele>3.14</ele>
        <time>2020-06-27T15:13:44Z</time>
      </trkpt>
      <trkpt lat="47.21599" lon="-1.47921">
        <ele>3.93</ele>
        <time>2020-06-27T15:13:46Z</time>
      </trkpt>
      <trkpt lat="47.21589" lon="-1.47931">
        <ele>3.66</ele>
        <time>2020-06-27T15:13:48Z</time>
      </trkpt>
      <trkpt lat="47.21579" lon="-1.4794">
        <ele>3.34</ele>
        <time>2020-06-27T15:13:50Z</time>
      </trkpt>
      <trkpt lat="47.2157" lon="-1.47948">
        <ele>2.16</ele>
        <time>2020-06-27T15:13:52Z</time>
      </trkpt>
      <trkpt lat="47.21561" lon="-1.47957">
        <ele>1.98</ele>
        <time>2020-06-27T15:13:54Z</time>
      </trkpt>
      <trkpt lat="47.21551" lon="-1.47968">
        <ele>1.57</ele>
        <time>2020-06-27T15:13:56Z</time>
      </trkpt>
      <trkpt lat="47.21541" lon="-1.47977">
        <ele>0.79</ele>
        <time>2020-06-27T15:13:58Z</time>
      </trkpt>
      <trkpt lat="47.21532" lon="-1.47987">
        <ele>0.6</ele>
        <time>2020-06-27T15:14:00Z</time>
      </trkpt>
      <trkpt lat="47.21523" lon="-1.47997">
        <ele>0.34</ele>
        <time>2020-06-27T15:14:02Z</time>
      </trkpt>
      <trkpt lat="47.21513" lon="-1.48008">
        <ele>-0.73</ele>
        <time>2020-06-27T15:14:04Z</time>
      </trkpt>
      <trkpt lat="47.21501" lon="-1.48021">
        <ele>-1.14</ele>
        <time>2020-06-27T15:14:06Z</time>
      </trkpt>
      <trkpt lat="47.2149" lon="-1.48034">
        <ele>-1.37</ele>
        <time>2020-06-27T15:14:08Z</time>
      </trkpt>
      <trkpt lat="47.21479" lon="-1.48047">
        <ele>-2.11</ele>
        <time>2020-06-27T15:14:10Z</time>
      </trkpt>
      <trkpt lat="47.21468" lon="-1.48059">
        <ele>-2.58</ele>
        <time>2020-06-27T15:14:12Z</time>
      </trkpt>
      <trkpt lat="47.21459" lon="-1.48071">
        <ele>-2.9</ele>
        <time>2020-06-27T15:14:14Z</time>
      </trkpt>
      <trkpt lat="47.21451" lon="-1.48083">
        <ele>-2.03</ele>
        <time>2020-06-27T15:14:16Z</time>
      </trkpt>
      <trkpt lat="47.21442" lon="-1.48097">
        <ele>-1.53</ele>
        <time>2020-06-27T15:14:18Z</time>
      </trkpt>
      <trkpt lat="47.21432" lon="-1.48112">
        <ele>-1.31</ele>
        <time>2020-06-27T15:14:20Z</time>
      </trkpt>
      <trkpt lat="47.21424" lon="-1.48126">
        <ele>-2.2</ele>
        <time>2020-06-27T15:14:22Z</time>
      </trkpt>
      <trkpt lat="47.21416" lon="-1.48142">
        <ele>-3.54</ele>
        <time>2020-06-27T15:14:24Z</time>
      </trkpt>
      <trkpt lat="47.21409" lon="-1.48157">
        <ele>-3.44</ele>
        <time>2020-06-27T15:14:26Z</time>
      </trkpt>
      <trkpt lat="47.21403" lon="-1.48171">
        <ele>-2.82</ele>
        <time>2020-06-27T15:14:28Z</time>
      </trkpt>
      <trkpt lat="47.21397" lon="-1.48186">
        <ele>-1.76</ele>
        <time>2020-06-27T15:14:30Z</time>
      </trkpt>
      <trkpt lat="47.21391" lon="-1.48201">
        <ele>-1</ele>
        <time>2020-06-27T15:14:32Z</time>
      </trkpt>
      <trkpt lat="47.21384" lon="-1.48218">
        <ele>-1.8</ele>
        <time>2020-06-27T15:14:34Z</time>
      </trkpt>
      <trkpt lat="47.21378" lon="-1.48235">
        <ele>-2.94</ele>
        <time>2020-06-27T15:14:36Z</time>
      </trkpt>
      <trkpt lat="47.21372" lon="-1.48251">
        <ele>-4.23</ele>
        <time>2020-06-27T15:14:38Z</time>
      </trkpt>
      <trkpt lat="47.21366" lon="-1.48269">
        <ele>-5.86</ele>
        <time>2020-06-27T15:14:40Z</time>
      </trkpt>
      <trkpt lat="47.21361" lon="-1.48285">
        <ele>-5.71</ele>
        <time>2020-06-27T15:14:42Z</time>
      </trkpt>
      <trkpt lat="47.21356" lon="-1.48303">
        <ele>-5.17</ele>
        <time>2020-06-27T15:14:44Z</time>
      </trkpt>
      <trkpt lat="47.21351" lon="-1.48321">
        <ele>-4.84</ele>
        <time>2020-06-27T15:14:46Z</time>
      </trkpt>
      <trkpt lat="47.21346" lon="-1.48335">
        <ele>-5.02</ele>
        <time>2020-06-27T15:14:48Z</time>
      </trkpt>
      <trkpt lat="47.21342" lon="-1.48347">
        <ele>-5.54</ele>
        <time>2020-06-27T15:14:50Z</time>
      </trkpt>
      <trkpt lat="47.21337" lon="-1.48365">
        <ele>-6.05</ele>
        <time>2020-06-27T15:14:52Z</time>
      </trkpt>
      <trkpt lat="47.21332" lon="-1.48382">
        <ele>-6.57</ele>
        <time>2020-06-27T15:14:54Z</time>
      </trkpt>
      <trkpt lat="47.21328" lon="-1.48397">
        <ele>-6</ele>
        <time>2020-06-27T15:14:56Z</time>
      </trkpt>
      <trkpt lat="47.21322" lon="-1.48413">
        <ele>-5.35</ele>
        <time>2020-06-27T15:14:58Z</time>
      </trkpt>
      <trkpt lat="47.21316" lon="-1.48432">
        <ele>-3.77</ele>
        <time>2020-06-27T15:15:00Z</time>
      </trkpt>
      <trkpt lat="47.21311" lon="-1.48447">
        <ele>-3.19</ele>
        <time>2020-06-27T15:15:02Z</time>
      </trkpt>
      <trkpt lat="47.21308" lon="-1.4846">
        <ele>-2.7</ele>
        <time>2020-06-27T15:15:04Z</time>
      </trkpt>
      <trkpt lat="47.21303" lon="-1.48478">
        <ele>-2.75</ele>
        <time>2020-06-27T15:15:06Z</time>
      </trkpt>
      <trkpt lat="47.21299" lon="-1.48495">
        <ele>-2.29</ele>
        <time>2020-06-27T15:15:08Z</time>
      </trkpt>
      <trkpt lat="47.21296" lon="-1.48515">
        <ele>-1.82</ele>
        <time>2020-06-27T15:15:10Z</time>
      </trkpt>
      <trkpt lat="47.2129" lon="-1.48528">
        <ele>-0.46</ele>
        <time>2020-06-27T15:15:12Z</time>
      </trkpt>
      <trkpt lat="47.21279" lon="-1.48531">
        <ele>0.32</ele>
        <time>2020-06-27T15:15:14Z</time>
      </trkpt>
      <trkpt lat="47.21269" lon="-1.48533">
        <ele>1.05</ele>
        <time>2020-06-27T15:15:16Z</time>
      </trkpt>
      <trkpt lat="47.21262" lon="-1.4855">
        <ele>0.23</ele>
        <time>2020-06-27T15:15:19Z</time>
      </trkpt>
      <trkpt lat="47.21257" lon="-1.48567">
        <ele>0.02</ele>
        <time>2020-06-27T15:15:21Z</time>
      </trkpt>
      <trkpt lat="47.21253" lon="-1.48584">
        <ele>-0.1</ele>
        <time>2020-06-27T15:15:23Z</time>
      </trkpt>
      <trkpt lat="47.2125" lon="-1.48599">
        <ele>-0.94</ele>
        <time>2020-06-27T15:15:25Z</time>
      </trkpt>
      <trkpt lat="47.21246" lon="-1.48618">
        <ele>-0.93</ele>
        <time>2020-06-27T15:15:27Z</time>
      </trkpt>
      <trkpt lat="47.21242" lon="-1.48635">
        <ele>-0.71</ele>
        <time>2020-06-27T15:15:29Z</time>
      </trkpt>
      <trkpt lat="47.21237" lon="-1.48655">
        <ele>-1.46</ele>
        <time>2020-06-27T15:15:32Z</time>
      </trkpt>
      <trkpt lat="47.21234" lon="-1.48671">
        <ele>-2.11</ele>
        <time>2020-06-27T15:15:34Z</time>
      </trkpt>
      <trkpt lat="47.21229" lon="-1.48687">
        <ele>-3.28</ele>
        <time>2020-06-27T15:15:36Z</time>
      </trkpt>
      <trkpt lat="47.21225" lon="-1.48703">
        <ele>-3.01</ele>
        <time>2020-06-27T15:15:38Z</time>
      </trkpt>
      <trkpt lat="47.21221" lon="-1.48718">
        <ele>-2.99</ele>
        <time>2020-06-27T15:15:40Z</time>
      </trkpt>
      <trkpt lat="47.21218" lon="-1.48731">
        <ele>-4.95</ele>
        <time>2020-06-27T15:15:42Z</time>
      </trkpt>
      <trkpt lat="47.21214" lon="-1.4875">
        <ele>-5.9</ele>
        <time>2020-06-27T15:15:44Z</time>
      </trkpt>
      <trkpt lat="47.2121" lon="-1.48766">
        <ele>-7.44</ele>
        <time>2020-06-27T15:15:46Z</time>
      </trkpt>
      <trkpt lat="47.21206" lon="-1.48786">
        <ele>-9.48</ele>
        <time>2020-06-27T15:15:48Z</time>
      </trkpt>
      <trkpt lat="47.21203" lon="-1.48802">
        <ele>-11.07</ele>
        <time>2020-06-27T15:15:50Z</time>
      </trkpt>
      <trkpt lat="47.21198" lon="-1.48823">
        <ele>-11.96</ele>
        <time>2020-06-27T15:15:52Z</time>
      </trkpt>
      <trkpt lat="47.21196" lon="-1.48841">
        <ele>-12.09</ele>
        <time>2020-06-27T15:15:54Z</time>
      </trkpt>
      <trkpt lat="47.21193" lon="-1.48858">
        <ele>-12.21</ele>
        <time>2020-06-27T15:15:56Z</time>
      </trkpt>
      <trkpt lat="47.21193" lon="-1.48874">
        <ele>-12.02</ele>
        <time>2020-06-27T15:15:58Z</time>
      </trkpt>
      <trkpt lat="47.21192" lon="-1.4889">
        <ele>-11.58</ele>
        <time>2020-06-27T15:16:00Z</time>
      </trkpt>
      <trkpt lat="47.21187" lon="-1.48907">
        <ele>-10.77</ele>
        <time>2020-06-27T15:16:02Z</time>
      </trkpt>
      <trkpt lat="47.21181" lon="-1.48921">
        <ele>-10.06</ele>
        <time>2020-06-27T15:16:04Z</time>
      </trkpt>
      <trkpt lat="47.21177" lon="-1.48936">
        <ele>-9.67</ele>
        <time>2020-06-27T15:16:06Z</time>
      </trkpt>
      <trkpt lat="47.21175" lon="-1.48954">
        <ele>-8.81</ele>
        <time>2020-06-27T15:16:09Z</time>
      </trkpt>
      <trkpt lat="47.21172" lon="-1.48969">
        <ele>-7.28</ele>
        <time>2020-06-27T15:16:11Z</time>
      </trkpt>
      <trkpt lat="47.21169" lon="-1.48985">
        <ele>-5.32</ele>
        <time>2020-06-27T15:16:13Z</time>
      </trkpt>
      <trkpt lat="47.21165" lon="-1.49003">
        <ele>-4.33</ele>
        <time>2020-06-27T15:16:15Z</time>
      </trkpt>
      <trkpt lat="47.21161" lon="-1.49018">
        <ele>-3.8</ele>
        <time>2020-06-27T15:16:17Z</time>
      </trkpt>
      <trkpt lat="47.21158" lon="-1.49037">
        <ele>-1.92</ele>
        <time>2020-06-27T15:16:20Z</time>
      </trkpt>
      <trkpt lat="47.21157" lon="-1.49052">
        <ele>0.23</ele>
        <time>2020-06-27T15:16:22Z</time>
      </trkpt>
      <trkpt lat="47.2116" lon="-1.49069">
        <ele>1.98</ele>
        <time>2020-06-27T15:16:24Z</time>
      </trkpt>
      <trkpt lat="47.21162" lon="-1.49085">
        <ele>2.88</ele>
        <time>2020-06-27T15:16:26Z</time>
      </trkpt>
      <trkpt lat="47.21159" lon="-1.49104">
        <ele>2.64</ele>
        <time>2020-06-27T15:16:28Z</time>
      </trkpt>
      <trkpt lat="47.21154" lon="-1.49115">
        <ele>2.73</ele>
        <time>2020-06-27T15:16:30Z</time>
      </trkpt>
      <trkpt lat="47.21152" lon="-1.49129">
        <ele>3.21</ele>
        <time>2020-06-27T15:16:32Z</time>
      </trkpt>
      <trkpt lat="47.21149" lon="-1.49146">
        <ele>3.26</ele>
        <time>2020-06-27T15:16:34Z</time>
      </trkpt>
      <trkpt lat="47.21146" lon="-1.49167">
        <ele>2.97</ele>
        <time>2020-06-27T15:16:36Z</time>
      </trkpt>
      <trkpt lat="47.21144" lon="-1.49181">
        <ele>2.13</ele>
        <time>2020-06-27T15:16:38Z</time>
      </trkpt>
      <trkpt lat="47.21142" lon="-1.49198">
        <ele>1.58</ele>
        <time>2020-06-27T15:16:40Z</time>
      </trkpt>
      <trkpt lat="47.2114" lon="-1.49217">
        <ele>0.06</ele>
        <time>2020-06-27T15:16:41Z</time>
      </trkpt>
      <trkpt lat="47.21138" lon="-1.49234">
        <ele>-0.71</ele>
        <time>2020-06-27T15:16:43Z</time>
      </trkpt>
      <trkpt lat="47.21137" lon="-1.49251">
        <ele>-1.56</ele>
        <time>2020-06-27T15:16:45Z</time>
      </trkpt>
      <trkpt lat="47.21137" lon="-1.4927">
        <ele>-2.03</ele>
        <time>2020-06-27T15:16:47Z</time>
      </trkpt>
      <trkpt lat="47.21136" lon="-1.49288">
        <ele>-2.05</ele>
        <time>2020-06-27T15:16:49Z</time>
      </trkpt>
      <trkpt lat="47.21136" lon="-1.49305">
        <ele>-3.38</ele>
        <time>2020-06-27T15:16:51Z</time>
      </trkpt>
      <trkpt lat="47.21135" lon="-1.49321">
        <ele>-3.85</ele>
        <time>2020-06-27T15:16:53Z</time>
      </trkpt>
      <trkpt lat="47.21134" lon="-1.49339">
        <ele>-4.18</ele>
        <time>2020-06-27T15:16:55Z</time>
      </trkpt>
      <trkpt lat="47.21135" lon="-1.49354">
        <ele>-4.54</ele>
        <time>2020-06-27T15:16:57Z</time>
      </trkpt>
      <trkpt lat="47.21134" lon="-1.49372">
        <ele>-6.97</ele>
        <time>2020-06-27T15:16:59Z</time>
      </trkpt>
      <trkpt lat="47.21134" lon="-1.49387">
        <ele>-8.49</ele>
        <time>2020-06-27T15:17:01Z</time>
      </trkpt>
      <trkpt lat="47.21134" lon="-1.49406">
        <ele>-9.44</ele>
        <time>2020-06-27T15:17:03Z</time>
      </trkpt>
      <trkpt lat="47.21133" lon="-1.49421">
        <ele>-8.99</ele>
        <time>2020-06-27T15:17:05Z</time>
      </trkpt>
      <trkpt lat="47.21132" lon="-1.49438">
        <ele>-8.1</ele>
        <time>2020-06-27T15:17:07Z</time>
      </trkpt>
      <trkpt lat="47.21131" lon="-1.49456">
        <ele>-6.94</ele>
        <time>2020-06-27T15:17:09Z</time>
      </trkpt>
      <trkpt lat="47.21131" lon="-1.49474">
        <ele>-6.37</ele>
        <time>2020-06-27T15:17:11Z</time>
      </trkpt>
      <trkpt lat="47.2113" lon="-1.49488">
        <ele>-5.59</ele>
        <time>2020-06-27T15:17:13Z</time>
      </trkpt>
      <trkpt lat="47.21129" lon="-1.49505">
        <ele>-5.64</ele>
        <time>2020-06-27T15:17:15Z</time>
      </trkpt>
      <trkpt lat="47.21129" lon="-1.49524">
        <ele>-5.63</ele>
        <time>2020-06-27T15:17:17Z</time>
      </trkpt>
      <trkpt lat="47.21129" lon="-1.49543">
        <ele>-4.78</ele>
        <time>2020-06-27T15:17:19Z</time>
      </trkpt>
      <trkpt lat="47.21132" lon="-1.49561">
        <ele>-3.82</ele>
        <time>2020-06-27T15:17:21Z</time>
      </trkpt>
      <trkpt lat="47.21136" lon="-1.49575">
        <ele>-2.75</ele>
        <time>2020-06-27T15:17:23Z</time>
      </trkpt>
      <trkpt lat="47.21138" lon="-1.4959">
        <ele>-1.72</ele>
        <time>2020-06-27T15:17:25Z</time>
      </trkpt>
      <trkpt lat="47.21132" lon="-1.49604">
        <ele>-0.34</ele>
        <time>2020-06-27T15:17:27Z</time>
      </trkpt>
      <trkpt lat="47.21126" lon="-1.49618">
        <ele>0.29</ele>
        <time>2020-06-27T15:17:29Z</time>
      </trkpt>
      <trkpt lat="47.21123" lon="-1.49633">
        <ele>1.08</ele>
        <time>2020-06-27T15:17:31Z</time>
      </trkpt>
      <trkpt lat="47.21121" lon="-1.49648">
        <ele>1.41</ele>
        <time>2020-06-27T15:17:33Z</time>
      </trkpt>
      <trkpt lat="47.21119" lon="-1.49668">
        <ele>2.17</ele>
        <time>2020-06-27T15:17:35Z</time>
      </trkpt>
      <trkpt lat="47.21119" lon="-1.49681">
        <ele>2.14</ele>
        <time>2020-06-27T15:17:37Z</time>
      </trkpt>
      <trkpt lat="47.21118" lon="-1.49697">
        <ele>2.46</ele>
        <time>2020-06-27T15:17:39Z</time>
      </trkpt>
      <trkpt lat="47.21116" lon="-1.49716">
        <ele>1.84</ele>
        <time>2020-06-27T15:17:41Z</time>
      </trkpt>
      <trkpt lat="47.21115" lon="-1.49732">
        <ele>-0.4</ele>
        <time>2020-06-27T15:17:43Z</time>
      </trkpt>
      <trkpt lat="47.21114" lon="-1.49749">
        <ele>-2.98</ele>
        <time>2020-06-27T15:17:45Z</time>
      </trkpt>
      <trkpt lat="47.21114" lon="-1.49766">
        <ele>-3.57</ele>
        <time>2020-06-27T15:17:47Z</time>
      </trkpt>
      <trkpt lat="47.21112" lon="-1.49784">
        <ele>-3.96</ele>
        <time>2020-06-27T15:17:49Z</time>
      </trkpt>
      <trkpt lat="47.21109" lon="-1.49803">
        <ele>-4.93</ele>
        <time>2020-06-27T15:17:51Z</time>
      </trkpt>
      <trkpt lat="47.21105" lon="-1.49825">
        <ele>-4.49</ele>
        <time>2020-06-27T15:17:53Z</time>
      </trkpt>
      <trkpt lat="47.21102" lon="-1.49839">
        <ele>-2.15</ele>
        <time>2020-06-27T15:17:55Z</time>
      </trkpt>
      <trkpt lat="47.21099" lon="-1.49856">
        <ele>-0.37</ele>
        <time>2020-06-27T15:17:57Z</time>
      </trkpt>
      <trkpt lat="47.21097" lon="-1.49869">
        <ele>0.28</ele>
        <time>2020-06-27T15:17:59Z</time>
      </trkpt>
      <trkpt lat="47.21097" lon="-1.49883">
        <ele>0.3</ele>
        <time>2020-06-27T15:18:01Z</time>
      </trkpt>
      <trkpt lat="47.21093" lon="-1.49895">
        <ele>1.26</ele>
        <time>2020-06-27T15:18:03Z</time>
      </trkpt>
      <trkpt lat="47.21089" lon="-1.49909">
        <ele>2.3</ele>
        <time>2020-06-27T15:18:05Z</time>
      </trkpt>
      <trkpt lat="47.21084" lon="-1.49926">
        <ele>2.8</ele>
        <time>2020-06-27T15:18:07Z</time>
      </trkpt>
      <trkpt lat="47.2108" lon="-1.49939">
        <ele>3.68</ele>
        <time>2020-06-27T15:18:09Z</time>
      </trkpt>
      <trkpt lat="47.21075" lon="-1.49954">
        <ele>4.02</ele>
        <time>2020-06-27T15:18:11Z</time>
      </trkpt>
      <trkpt lat="47.21071" lon="-1.49969">
        <ele>4.6</ele>
        <time>2020-06-27T15:18:13Z</time>
      </trkpt>
      <trkpt lat="47.21067" lon="-1.49986">
        <ele>5.42</ele>
        <time>2020-06-27T15:18:15Z</time>
      </trkpt>
      <trkpt lat="47.21063" lon="-1.50002">
        <ele>3.76</ele>
        <time>2020-06-27T15:18:17Z</time>
      </trkpt>
      <trkpt lat="47.21059" lon="-1.5002">
        <ele>1.98</ele>
        <time>2020-06-27T15:18:19Z</time>
      </trkpt>
      <trkpt lat="47.21056" lon="-1.50035">
        <ele>2.08</ele>
        <time>2020-06-27T15:18:21Z</time>
      </trkpt>
      <trkpt lat="47.21053" lon="-1.50049">
        <ele>1.37</ele>
        <time>2020-06-27T15:18:23Z</time>
      </trkpt>
      <trkpt lat="47.21049" lon="-1.50063">
        <ele>1.02</ele>
        <time>2020-06-27T15:18:25Z</time>
      </trkpt>
      <trkpt lat="47.21045" lon="-1.50077">
        <ele>0.8</ele>
        <time>2020-06-27T15:18:27Z</time>
      </trkpt>
      <trkpt lat="47.2104" lon="-1.50094">
        <ele>1.24</ele>
        <time>2020-06-27T15:18:29Z</time>
      </trkpt>
      <trkpt lat="47.21036" lon="-1.50106">
        <ele>0.56</ele>
        <time>2020-06-27T15:18:31Z</time>
      </trkpt>
      <trkpt lat="47.21032" lon="-1.50122">
        <ele>-1.75</ele>
        <time>2020-06-27T15:18:33Z</time>
      </trkpt>
      <trkpt lat="47.21028" lon="-1.50138">
        <ele>-3.78</ele>
        <time>2020-06-27T15:18:35Z</time>
      </trkpt>
      <trkpt lat="47.21025" lon="-1.50154">
        <ele>-4.9</ele>
        <time>2020-06-27T15:18:37Z</time>
      </trkpt>
      <trkpt lat="47.21022" lon="-1.5017">
        <ele>-5.18</ele>
        <time>2020-06-27T15:18:39Z</time>
      </trkpt>
      <trkpt lat="47.2102" lon="-1.50184">
        <ele>-6.61</ele>
        <time>2020-06-27T15:18:41Z</time>
      </trkpt>
      <trkpt lat="47.21017" lon="-1.502">
        <ele>-7.1</ele>
        <time>2020-06-27T15:18:43Z</time>
      </trkpt>
      <trkpt lat="47.21016" lon="-1.50215">
        <ele>-7.25</ele>
        <time>2020-06-27T15:18:45Z</time>
      </trkpt>
      <trkpt lat="47.21018" lon="-1.50232">
        <ele>-5.67</ele>
        <time>2020-06-27T15:18:47Z</time>
      </trkpt>
      <trkpt lat="47.21016" lon="-1.50248">
        <ele>-3.57</ele>
        <time>2020-06-27T15:18:49Z</time>
      </trkpt>
      <trkpt lat="47.2101" lon="-1.50263">
        <ele>-1.21</ele>
        <time>2020-06-27T15:18:51Z</time>
      </trkpt>
      <trkpt lat="47.21004" lon="-1.50277">
        <ele>0.58</ele>
        <time>2020-06-27T15:18:53Z</time>
      </trkpt>
      <trkpt lat="47.21002" lon="-1.50294">
        <ele>1.45</ele>
        <time>2020-06-27T15:18:55Z</time>
      </trkpt>
      <trkpt lat="47.21001" lon="-1.5031">
        <ele>1.95</ele>
        <time>2020-06-27T15:18:57Z</time>
      </trkpt>
      <trkpt lat="47.20999" lon="-1.50326">
        <ele>2.15</ele>
        <time>2020-06-27T15:18:59Z</time>
      </trkpt>
      <trkpt lat="47.20998" lon="-1.50346">
        <ele>2.36</ele>
        <time>2020-06-27T15:19:01Z</time>
      </trkpt>
      <trkpt lat="47.20998" lon="-1.50365">
        <ele>2.34</ele>
        <time>2020-06-27T15:19:03Z</time>
      </trkpt>
      <trkpt lat="47.20999" lon="-1.50384">
        <ele>2.06</ele>
        <time>2020-06-27T15:19:05Z</time>
      </trkpt>
      <trkpt lat="47.21" lon="-1.50405">
        <ele>1.23</ele>
        <time>2020-06-27T15:19:07Z</time>
      </trkpt>
      <trkpt lat="47.21001" lon="-1.50426">
        <ele>0.38</ele>
        <time>2020-06-27T15:19:09Z</time>
      </trkpt>
      <trkpt lat="47.21001" lon="-1.50444">
        <ele>0.06</ele>
        <time>2020-06-27T15:19:11Z</time>
      </trkpt>
      <trkpt lat="47.21002" lon="-1.50464">
        <ele>0.5</ele>
        <time>2020-06-27T15:19:13Z</time>
      </trkpt>
      <trkpt lat="47.21002" lon="-1.50482">
        <ele>0.64</ele>
        <time>2020-06-27T15:19:15Z</time>
      </trkpt>
      <trkpt lat="47.21002" lon="-1.505">
        <ele>0.47</ele>
        <time>2020-06-27T15:19:17Z</time>
      </trkpt>
      <trkpt lat="47.21002" lon="-1.50516">
        <ele>0.29</ele>
        <time>2020-06-27T15:19:19Z</time>
      </trkpt>
      <trkpt lat="47.21002" lon="-1.50536">
        <ele>-0.68</ele>
        <time>2020-06-27T15:19:21Z</time>
      </trkpt>
      <trkpt lat="47.21002" lon="-1.50556">
        <ele>-2.13</ele>
        <time>2020-06-27T15:19:23Z</time>
      </trkpt>
      <trkpt lat="47.21003" lon="-1.50575">
        <ele>-3.23</ele>
        <time>2020-06-27T15:19:25Z</time>
      </trkpt>
      <trkpt lat="47.21003" lon="-1.50596">
        <ele>-4.28</ele>
        <time>2020-06-27T15:19:27Z</time>
      </trkpt>
      <trkpt lat="47.21004" lon="-1.50615">
        <ele>-5.11</ele>
        <time>2020-06-27T15:19:29Z</time>
      </trkpt>
      <trkpt lat="47.21003" lon="-1.50634">
        <ele>-5.95</ele>
        <time>2020-06-27T15:19:31Z</time>
      </trkpt>
      <trkpt lat="47.21003" lon="-1.50653">
        <ele>-6.39</ele>
        <time>2020-06-27T15:19:33Z</time>
      </trkpt>
      <trkpt lat="47.21002" lon="-1.50671">
        <ele>-7.02</ele>
        <time>2020-06-27T15:19:35Z</time>
      </trkpt>
      <trkpt lat="47.21002" lon="-1.5069">
        <ele>-8</ele>
        <time>2020-06-27T15:19:37Z</time>
      </trkpt>
      <trkpt lat="47.21001" lon="-1.50708">
        <ele>-8.99</ele>
        <time>2020-06-27T15:19:39Z</time>
      </trkpt>
      <trkpt lat="47.21" lon="-1.50726">
        <ele>-8.64</ele>
        <time>2020-06-27T15:19:41Z</time>
      </trkpt>
      <trkpt lat="47.20999" lon="-1.50743">
        <ele>-7.09</ele>
        <time>2020-06-27T15:19:43Z</time>
      </trkpt>
      <trkpt lat="47.20997" lon="-1.5076">
        <ele>-4.25</ele>
        <time>2020-06-27T15:19:45Z</time>
      </trkpt>
      <trkpt lat="47.20995" lon="-1.50778">
        <ele>-2.79</ele>
        <time>2020-06-27T15:19:47Z</time>
      </trkpt>
      <trkpt lat="47.20993" lon="-1.50794">
        <ele>-2.53</ele>
        <time>2020-06-27T15:19:49Z</time>
      </trkpt>
      <trkpt lat="47.20991" lon="-1.5081">
        <ele>-2.12</ele>
        <time>2020-06-27T15:19:51Z</time>
      </trkpt>
      <trkpt lat="47.20989" lon="-1.50829">
        <ele>-3.52</ele>
        <time>2020-06-27T15:19:53Z</time>
      </trkpt>
      <trkpt lat="47.20987" lon="-1.50846">
        <ele>-3.67</ele>
        <time>2020-06-27T15:19:55Z</time>
      </trkpt>
      <trkpt lat="47.20984" lon="-1.50863">
        <ele>-3.92</ele>
        <time>2020-06-27T15:19:57Z</time>
      </trkpt>
      <trkpt lat="47.20982" lon="-1.50879">
        <ele>-3.86</ele>
        <time>2020-06-27T15:19:59Z</time>
      </trkpt>
      <trkpt lat="47.20979" lon="-1.50898">
        <ele>-4.44</ele>
        <time>2020-06-27T15:20:01Z</time>
      </trkpt>
      <trkpt lat="47.20977" lon="-1.50916">
        <ele>-4.53</ele>
        <time>2020-06-27T15:20:03Z</time>
      </trkpt>
      <trkpt lat="47.20976" lon="-1.50931">
        <ele>-5.23</ele>
        <time>2020-06-27T15:20:05Z</time>
      </trkpt>
      <trkpt lat="47.20975" lon="-1.50949">
        <ele>-5.86</ele>
        <time>2020-06-27T15:20:07Z</time>
      </trkpt>
      <trkpt lat="47.20973" lon="-1.50965">
        <ele>-7.47</ele>
        <time>2020-06-27T15:20:09Z</time>
      </trkpt>
      <trkpt lat="47.20972" lon="-1.50982">
        <ele>-7.67</ele>
        <time>2020-06-27T15:20:11Z</time>
      </trkpt>
      <trkpt lat="47.20971" lon="-1.50999">
        <ele>-7.94</ele>
        <time>2020-06-27T15:20:13Z</time>
      </trkpt>
      <trkpt lat="47.20968" lon="-1.51013">
        <ele>-7.56</ele>
        <time>2020-06-27T15:20:15Z</time>
      </trkpt>
      <trkpt lat="47.20963" lon="-1.51028">
        <ele>-6.66</ele>
        <time>2020-06-27T15:20:17Z</time>
      </trkpt>
      <trkpt lat="47.20958" lon="-1.51044">
        <ele>-6.29</ele>
        <time>2020-06-27T15:20:19Z</time>
      </trkpt>
      <trkpt lat="47.20954" lon="-1.51062">
        <ele>-6.13</ele>
        <time>2020-06-27T15:20:21Z</time>
      </trkpt>
      <trkpt lat="47.20952" lon="-1.5108">
        <ele>-6.08</ele>
        <time>2020-06-27T15:20:23Z</time>
      </trkpt>
      <trkpt lat="47.20949" lon="-1.51097">
        <ele>-6.09</ele>
        <time>2020-06-27T15:20:25Z</time>
      </trkpt>
      <trkpt lat="47.20945" lon="-1.51116">
        <ele>-6.26</ele>
        <time>2020-06-27T15:20:27Z</time>
      </trkpt>
      <trkpt lat="47.2094" lon="-1.51132">
        <ele>-6.72</ele>
        <time>2020-06-27T15:20:29Z</time>
      </trkpt>
      <trkpt lat="47.20934" lon="-1.51146">
        <ele>-6.3</ele>
        <time>2020-06-27T15:20:31Z</time>
      </trkpt>
      <trkpt lat="47.20929" lon="-1.5116">
        <ele>-6.48</ele>
        <time>2020-06-27T15:20:33Z</time>
      </trkpt>
      <trkpt lat="47.20924" lon="-1.51176">
        <ele>-6.73</ele>
        <time>2020-06-27T15:20:35Z</time>
      </trkpt>
      <trkpt lat="47.20919" lon="-1.51192">
        <ele>-7.15</ele>
        <time>2020-06-27T15:20:37Z</time>
      </trkpt>
      <trkpt lat="47.20914" lon="-1.51206">
        <ele>-8.09</ele>
        <time>2020-06-27T15:20:39Z</time>
      </trkpt>
      <trkpt lat="47.20908" lon="-1.51221">
        <ele>-8.62</ele>
        <time>2020-06-27T15:20:41Z</time>
      </trkpt>
      <trkpt lat="47.20903" lon="-1.51237">
        <ele>-9.09</ele>
        <time>2020-06-27T15:20:43Z</time>
      </trkpt>
      <trkpt lat="47.20896" lon="-1.51253">
        <ele>-9.8</ele>
        <time>2020-06-27T15:20:45Z</time>
      </trkpt>
      <trkpt lat="47.20891" lon="-1.51267">
        <ele>-9.91</ele>
        <time>2020-06-27T15:20:47Z</time>
      </trkpt>
      <trkpt lat="47.20884" lon="-1.51282">
        <ele>-11.1</ele>
        <time>2020-06-27T15:20:49Z</time>
      </trkpt>
      <trkpt lat="47.20878" lon="-1.51298">
        <ele>-12.21</ele>
        <time>2020-06-27T15:20:51Z</time>
      </trkpt>
      <trkpt lat="47.2087" lon="-1.51314">
        <ele>-12.04</ele>
        <time>2020-06-27T15:20:53Z</time>
      </trkpt>
      <trkpt lat="47.20863" lon="-1.51331">
        <ele>-12.55</ele>
        <time>2020-06-27T15:20:55Z</time>
      </trkpt>
      <trkpt lat="47.20856" lon="-1.51346">
        <ele>-12.66</ele>
        <time>2020-06-27T15:20:57Z</time>
      </trkpt>
      <trkpt lat="47.20851" lon="-1.5136">
        <ele>-11.92</ele>
        <time>2020-06-27T15:20:59Z</time>
      </trkpt>
      <trkpt lat="47.20846" lon="-1.51376">
        <ele>-10.95</ele>
        <time>2020-06-27T15:21:01Z</time>
      </trkpt>
      <trkpt lat="47.20841" lon="-1.51393">
        <ele>-10.86</ele>
        <time>2020-06-27T15:21:03Z</time>
      </trkpt>
      <trkpt lat="47.20838" lon="-1.5141">
        <ele>-10.23</ele>
        <time>2020-06-27T15:21:05Z</time>
      </trkpt>
      <trkpt lat="47.20834" lon="-1.51426">
        <ele>-10.01</ele>
        <time>2020-06-27T15:21:07Z</time>
      </trkpt>
      <trkpt lat="47.2083" lon="-1.51442">
        <ele>-10.19</ele>
        <time>2020-06-27T15:21:09Z</time>
      </trkpt>
      <trkpt lat="47.20828" lon="-1.51457">
        <ele>-9.83</ele>
        <time>2020-06-27T15:21:11Z</time>
      </trkpt>
      <trkpt lat="47.20826" lon="-1.51473">
        <ele>-7.85</ele>
        <time>2020-06-27T15:21:13Z</time>
      </trkpt>
      <trkpt lat="47.20824" lon="-1.51489">
        <ele>-5.58</ele>
        <time>2020-06-27T15:21:15Z</time>
      </trkpt>
      <trkpt lat="47.2082" lon="-1.5151">
        <ele>-3.48</ele>
        <time>2020-06-27T15:21:17Z</time>
      </trkpt>
      <trkpt lat="47.20818" lon="-1.51527">
        <ele>-2.51</ele>
        <time>2020-06-27T15:21:19Z</time>
      </trkpt>
      <trkpt lat="47.20815" lon="-1.51542">
        <ele>-2.76</ele>
        <time>2020-06-27T15:21:21Z</time>
      </trkpt>
      <trkpt lat="47.20812" lon="-1.51561">
        <ele>-3.57</ele>
        <time>2020-06-27T15:21:23Z</time>
      </trkpt>
      <trkpt lat="47.2081" lon="-1.51578">
        <ele>-3.17</ele>
        <time>2020-06-27T15:21:25Z</time>
      </trkpt>
      <trkpt lat="47.20808" lon="-1.51595">
        <ele>-2.15</ele>
        <time>2020-06-27T15:21:27Z</time>
      </trkpt>
      <trkpt lat="47.20807" lon="-1.51614">
        <ele>-1.96</ele>
        <time>2020-06-27T15:21:29Z</time>
      </trkpt>
      <trkpt lat="47.20805" lon="-1.51632">
        <ele>-1.49</ele>
        <time>2020-06-27T15:21:31Z</time>
      </trkpt>
      <trkpt lat="47.20802" lon="-1.51646">
        <ele>-2.35</ele>
        <time>2020-06-27T15:21:33Z</time>
      </trkpt>
      <trkpt lat="47.20799" lon="-1.51665">
        <ele>-4.38</ele>
        <time>2020-06-27T15:21:35Z</time>
      </trkpt>
      <trkpt lat="47.20795" lon="-1.51686">
        <ele>-5.2</ele>
        <time>2020-06-27T15:21:37Z</time>
      </trkpt>
      <trkpt lat="47.20793" lon="-1.51699">
        <ele>-6.68</ele>
        <time>2020-06-27T15:21:39Z</time>
      </trkpt>
      <trkpt lat="47.2079" lon="-1.51717">
        <ele>-6.39</ele>
        <time>2020-06-27T15:21:41Z</time>
      </trkpt>
      <trkpt lat="47.20787" lon="-1.5173">
        <ele>-5.51</ele>
        <time>2020-06-27T15:21:43Z</time>
      </trkpt>
      <trkpt lat="47.20782" lon="-1.51749">
        <ele>-5.94</ele>
        <time>2020-06-27T15:21:45Z</time>
      </trkpt>
      <trkpt lat="47.20777" lon="-1.51767">
        <ele>-6.21</ele>
        <time>2020-06-27T15:21:47Z</time>
      </trkpt>
      <trkpt lat="47.20773" lon="-1.51781">
        <ele>-6.32</ele>
        <time>2020-06-27T15:21:49Z</time>
      </trkpt>
      <trkpt lat="47.2077" lon="-1.51796">
        <ele>-5.59</ele>
        <time>2020-06-27T15:21:51Z</time>
      </trkpt>
      <trkpt lat="47.20766" lon="-1.51812">
        <ele>-5.27</ele>
        <time>2020-06-27T15:21:53Z</time>
      </trkpt>
      <trkpt lat="47.20763" lon="-1.5183">
        <ele>-5.8</ele>
        <time>2020-06-27T15:21:55Z</time>
      </trkpt>
      <trkpt lat="47.20759" lon="-1.51844">
        <ele>-5.29</ele>
        <time>2020-06-27T15:21:57Z</time>
      </trkpt>
      <trkpt lat="47.20754" lon="-1.51859">
        <ele>-4.45</ele>
        <time>2020-06-27T15:21:59Z</time>
      </trkpt>
      <trkpt lat="47.20747" lon="-1.51878">
        <ele>-4.14</ele>
        <time>2020-06-27T15:22:01Z</time>
      </trkpt>
      <trkpt lat="47.2074" lon="-1.51894">
        <ele>-4.5</ele>
        <time>2020-06-27T15:22:03Z</time>
      </trkpt>
      <trkpt lat="47.20734" lon="-1.51909">
        <ele>-5.03</ele>
        <time>2020-06-27T15:22:05Z</time>
      </trkpt>
      <trkpt lat="47.20727" lon="-1.51922">
        <ele>-5.55</ele>
        <time>2020-06-27T15:22:07Z</time>
      </trkpt>
      <trkpt lat="47.20719" lon="-1.51939">
        <ele>-4.9</ele>
        <time>2020-06-27T15:22:09Z</time>
      </trkpt>
      <trkpt lat="47.20711" lon="-1.51954">
        <ele>-4.72</ele>
        <time>2020-06-27T15:22:11Z</time>
      </trkpt>
      <trkpt lat="47.20703" lon="-1.51968">
        <ele>-4.98</ele>
        <time>2020-06-27T15:22:13Z</time>
      </trkpt>
      <trkpt lat="47.20693" lon="-1.51981">
        <ele>-4.01</ele>
        <time>2020-06-27T15:22:15Z</time>
      </trkpt>
      <trkpt lat="47.20684" lon="-1.51995">
        <ele>-3.52</ele>
        <time>2020-06-27T15:22:17Z</time>
      </trkpt>
      <trkpt lat="47.20676" lon="-1.52009">
        <ele>-2.68</ele>
        <time>2020-06-27T15:22:19Z</time>
      </trkpt>
      <trkpt lat="47.20669" lon="-1.52022">
        <ele>-1.13</ele>
        <time>2020-06-27T15:22:21Z</time>
      </trkpt>
      <trkpt lat="47.20661" lon="-1.52035">
        <ele>-0.97</ele>
        <time>2020-06-27T15:22:23Z</time>
      </trkpt>
      <trkpt lat="47.20653" lon="-1.52047">
        <ele>-1.11</ele>
        <time>2020-06-27T15:22:25Z</time>
      </trkpt>
      <trkpt lat="47.20644" lon="-1.5206">
        <ele>-0.94</ele>
        <time>2020-06-27T15:22:27Z</time>
      </trkpt>
      <trkpt lat="47.20636" lon="-1.52073">
        <ele>-0.46</ele>
        <time>2020-06-27T15:22:29Z</time>
      </trkpt>
      <trkpt lat="47.20629" lon="-1.52086">
        <ele>-1.17</ele>
        <time>2020-06-27T15:22:31Z</time>
      </trkpt>
      <trkpt lat="47.20619" lon="-1.52102">
        <ele>-0.95</ele>
        <time>2020-06-27T15:22:33Z</time>
      </trkpt>
      <trkpt lat="47.20611" lon="-1.52115">
        <ele>-0.97</ele>
        <time>2020-06-27T15:22:35Z</time>
      </trkpt>
      <trkpt lat="47.20603" lon="-1.52128">
        <ele>-1.37</ele>
        <time>2020-06-27T15:22:37Z</time>
      </trkpt>
      <trkpt lat="47.20597" lon="-1.52141">
        <ele>-0.83</ele>
        <time>2020-06-27T15:22:39Z</time>
      </trkpt>
      <trkpt lat="47.2059" lon="-1.52154">
        <ele>-2.32</ele>
        <time>2020-06-27T15:22:41Z</time>
      </trkpt>
      <trkpt lat="47.20582" lon="-1.52169">
        <ele>-3.45</ele>
        <time>2020-06-27T15:22:43Z</time>
      </trkpt>
      <trkpt lat="47.20575" lon="-1.52183">
        <ele>-3.34</ele>
        <time>2020-06-27T15:22:45Z</time>
      </trkpt>
      <trkpt lat="47.20567" lon="-1.52195">
        <ele>-3.59</ele>
        <time>2020-06-27T15:22:47Z</time>
      </trkpt>
      <trkpt lat="47.2056" lon="-1.52207">
        <ele>-3.68</ele>
        <time>2020-06-27T15:22:49Z</time>
      </trkpt>
      <trkpt lat="47.20552" lon="-1.52221">
        <ele>-4.29</ele>
        <time>2020-06-27T15:22:51Z</time>
      </trkpt>
      <trkpt lat="47.20545" lon="-1.52233">
        <ele>-5.09</ele>
        <time>2020-06-27T15:22:53Z</time>
      </trkpt>
      <trkpt lat="47.20537" lon="-1.52247">
        <ele>-5.19</ele>
        <time>2020-06-27T15:22:55Z</time>
      </trkpt>
      <trkpt lat="47.20531" lon="-1.5226">
        <ele>-4.02</ele>
        <time>2020-06-27T15:22:57Z</time>
      </trkpt>
      <trkpt lat="47.20524" lon="-1.52273">
        <ele>-2.57</ele>
        <time>2020-06-27T15:22:59Z</time>
      </trkpt>
      <trkpt lat="47.20519" lon="-1.52286">
        <ele>-1.42</ele>
        <time>2020-06-27T15:23:01Z</time>
      </trkpt>
      <trkpt lat="47.20518" lon="-1.52306">
        <ele>0.09</ele>
        <time>2020-06-27T15:23:04Z</time>
      </trkpt>
      <trkpt lat="47.20516" lon="-1.52322">
        <ele>0.54</ele>
        <time>2020-06-27T15:23:06Z</time>
      </trkpt>
      <trkpt lat="47.20512" lon="-1.52339">
        <ele>-0.88</ele>
        <time>2020-06-27T15:23:08Z</time>
      </trkpt>
      <trkpt lat="47.20506" lon="-1.52356">
        <ele>-2.68</ele>
        <time>2020-06-27T15:23:10Z</time>
      </trkpt>
      <trkpt lat="47.20501" lon="-1.52373">
        <ele>-3.58</ele>
        <time>2020-06-27T15:23:12Z</time>
      </trkpt>
      <trkpt lat="47.20496" lon="-1.52387">
        <ele>-5.56</ele>
        <time>2020-06-27T15:23:14Z</time>
      </trkpt>
      <trkpt lat="47.20492" lon="-1.52402">
        <ele>-5.85</ele>
        <time>2020-06-27T15:23:16Z</time>
      </trkpt>
      <trkpt lat="47.20488" lon="-1.52414">
        <ele>-7.16</ele>
        <time>2020-06-27T15:23:18Z</time>
      </trkpt>
      <trkpt lat="47.20481" lon="-1.52432">
        <ele>-7.47</ele>
        <time>2020-06-27T15:23:20Z</time>
      </trkpt>
      <trkpt lat="47.20476" lon="-1.52445">
        <ele>-8.3</ele>
        <time>2020-06-27T15:23:22Z</time>
      </trkpt>
      <trkpt lat="47.20469" lon="-1.5246">
        <ele>-8.82</ele>
        <time>2020-06-27T15:23:24Z</time>
      </trkpt>
      <trkpt lat="47.20463" lon="-1.52474">
        <ele>-7.97</ele>
        <time>2020-06-27T15:23:26Z</time>
      </trkpt>
      <trkpt lat="47.20458" lon="-1.52491">
        <ele>-6</ele>
        <time>2020-06-27T15:23:28Z</time>
      </trkpt>
      <trkpt lat="47.20455" lon="-1.52505">
        <ele>-3.48</ele>
        <time>2020-06-27T15:23:30Z</time>
      </trkpt>
      <trkpt lat="47.20449" lon="-1.52522">
        <ele>-0.91</ele>
        <time>2020-06-27T15:23:33Z</time>
      </trkpt>
      <trkpt lat="47.20442" lon="-1.52536">
        <ele>-1.8</ele>
        <time>2020-06-27T15:23:35Z</time>
      </trkpt>
      <trkpt lat="47.20436" lon="-1.5255">
        <ele>-1.91</ele>
        <time>2020-06-27T15:23:37Z</time>
      </trkpt>
      <trkpt lat="47.20429" lon="-1.52565">
        <ele>-1.89</ele>
        <time>2020-06-27T15:23:39Z</time>
      </trkpt>
      <trkpt lat="47.20425" lon="-1.5258">
        <ele>-2.01</ele>
        <time>2020-06-27T15:23:41Z</time>
      </trkpt>
      <trkpt lat="47.20421" lon="-1.52596">
        <ele>-1.94</ele>
        <time>2020-06-27T15:23:43Z</time>
      </trkpt>
      <trkpt lat="47.20417" lon="-1.52611">
        <ele>-2.17</ele>
        <time>2020-06-27T15:23:45Z</time>
      </trkpt>
      <trkpt lat="47.20413" lon="-1.52625">
        <ele>-2.21</ele>
        <time>2020-06-27T15:23:47Z</time>
      </trkpt>
      <trkpt lat="47.20408" lon="-1.52642">
        <ele>-2.25</ele>
        <time>2020-06-27T15:23:49Z</time>
      </trkpt>
      <trkpt lat="47.20402" lon="-1.52658">
        <ele>-2.27</ele>
        <time>2020-06-27T15:23:51Z</time>
      </trkpt>
      <trkpt lat="47.20397" lon="-1.52671">
        <ele>-2.66</ele>
        <time>2020-06-27T15:23:53Z</time>
      </trkpt>
      <trkpt lat="47.20389" lon="-1.52687">
        <ele>-3.37</ele>
        <time>2020-06-27T15:23:56Z</time>
      </trkpt>
      <trkpt lat="47.20382" lon="-1.52702">
        <ele>-3.96</ele>
        <time>2020-06-27T15:23:58Z</time>
      </trkpt>
      <trkpt lat="47.20374" lon="-1.52714">
        <ele>-4.96</ele>
        <time>2020-06-27T15:24:00Z</time>
      </trkpt>
      <trkpt lat="47.20368" lon="-1.52727">
        <ele>-6.2</ele>
        <time>2020-06-27T15:24:02Z</time>
      </trkpt>
      <trkpt lat="47.20361" lon="-1.52739">
        <ele>-7.56</ele>
        <time>2020-06-27T15:24:04Z</time>
      </trkpt>
      <trkpt lat="47.20353" lon="-1.52754">
        <ele>-7.98</ele>
        <time>2020-06-27T15:24:06Z</time>
      </trkpt>
      <trkpt lat="47.20346" lon="-1.52769">
        <ele>-8.21</ele>
        <time>2020-06-27T15:24:08Z</time>
      </trkpt>
      <trkpt lat="47.20339" lon="-1.52785">
        <ele>-9.07</ele>
        <time>2020-06-27T15:24:10Z</time>
      </trkpt>
      <trkpt lat="47.20333" lon="-1.52798">
        <ele>-10.04</ele>
        <time>2020-06-27T15:24:12Z</time>
      </trkpt>
      <trkpt lat="47.20326" lon="-1.52814">
        <ele>-10.62</ele>
        <time>2020-06-27T15:24:14Z</time>
      </trkpt>
      <trkpt lat="47.20318" lon="-1.52832">
        <ele>-11.64</ele>
        <time>2020-06-27T15:24:16Z</time>
      </trkpt>
      <trkpt lat="47.20311" lon="-1.52846">
        <ele>-13.65</ele>
        <time>2020-06-27T15:24:18Z</time>
      </trkpt>
      <trkpt lat="47.20304" lon="-1.52864">
        <ele>-14.12</ele>
        <time>2020-06-27T15:24:20Z</time>
      </trkpt>
      <trkpt lat="47.20297" lon="-1.52878">
        <ele>-14.43</ele>
        <time>2020-06-27T15:24:22Z</time>
      </trkpt>
      <trkpt lat="47.2029" lon="-1.52894">
        <ele>-13.98</ele>
        <time>2020-06-27T15:24:24Z</time>
      </trkpt>
      <trkpt lat="47.20284" lon="-1.5291">
        <ele>-13.51</ele>
        <time>2020-06-27T15:24:26Z</time>
      </trkpt>
      <trkpt lat="47.20277" lon="-1.52924">
        <ele>-11.49</ele>
        <time>2020-06-27T15:24:28Z</time>
      </trkpt>
      <trkpt lat="47.2027" lon="-1.52939">
        <ele>-8.12</ele>
        <time>2020-06-27T15:24:30Z</time>
      </trkpt>
      <trkpt lat="47.20263" lon="-1.52952">
        <ele>-5</ele>
        <time>2020-06-27T15:24:32Z</time>
      </trkpt>
      <trkpt lat="47.20256" lon="-1.52964">
        <ele>-2.37</ele>
        <time>2020-06-27T15:24:34Z</time>
      </trkpt>
      <trkpt lat="47.20245" lon="-1.52978">
        <ele>0.23</ele>
        <time>2020-06-27T15:24:36Z</time>
      </trkpt>
      <trkpt lat="47.20236" lon="-1.52992">
        <ele>2.1</ele>
        <time>2020-06-27T15:24:38Z</time>
      </trkpt>
      <trkpt lat="47.20227" lon="-1.53005">
        <ele>2.95</ele>
        <time>2020-06-27T15:24:40Z</time>
      </trkpt>
      <trkpt lat="47.20218" lon="-1.53018">
        <ele>4.3</ele>
        <time>2020-06-27T15:24:42Z</time>
      </trkpt>
      <trkpt lat="47.2021" lon="-1.5303">
        <ele>4.05</ele>
        <time>2020-06-27T15:24:44Z</time>
      </trkpt>
      <trkpt lat="47.20201" lon="-1.53039">
        <ele>4.56</ele>
        <time>2020-06-27T15:24:46Z</time>
      </trkpt>
      <trkpt lat="47.20192" lon="-1.53049">
        <ele>6.13</ele>
        <time>2020-06-27T15:24:48Z</time>
      </trkpt>
      <trkpt lat="47.20181" lon="-1.53062">
        <ele>6.77</ele>
        <time>2020-06-27T15:24:50Z</time>
      </trkpt>
      <trkpt lat="47.20174" lon="-1.53074">
        <ele>6.71</ele>
        <time>2020-06-27T15:24:52Z</time>
      </trkpt>
      <trkpt lat="47.20166" lon="-1.53087">
        <ele>5.85</ele>
        <time>2020-06-27T15:24:54Z</time>
      </trkpt>
      <trkpt lat="47.20157" lon="-1.53103">
        <ele>5.73</ele>
        <time>2020-06-27T15:24:56Z</time>
      </trkpt>
      <trkpt lat="47.2015" lon="-1.53118">
        <ele>5.08</ele>
        <time>2020-06-27T15:24:58Z</time>
      </trkpt>
      <trkpt lat="47.20143" lon="-1.53133">
        <ele>4.17</ele>
        <time>2020-06-27T15:25:00Z</time>
      </trkpt>
      <trkpt lat="47.20136" lon="-1.53148">
        <ele>3.47</ele>
        <time>2020-06-27T15:25:02Z</time>
      </trkpt>
      <trkpt lat="47.2013" lon="-1.53162">
        <ele>3.03</ele>
        <time>2020-06-27T15:25:04Z</time>
      </trkpt>
      <trkpt lat="47.20126" lon="-1.53175">
        <ele>3.38</ele>
        <time>2020-06-27T15:25:06Z</time>
      </trkpt>
      <trkpt lat="47.20122" lon="-1.53191">
        <ele>3.37</ele>
        <time>2020-06-27T15:25:08Z</time>
      </trkpt>
      <trkpt lat="47.20121" lon="-1.53208">
        <ele>3.74</ele>
        <time>2020-06-27T15:25:10Z</time>
      </trkpt>
      <trkpt lat="47.20119" lon="-1.53224">
        <ele>4.08</ele>
        <time>2020-06-27T15:25:12Z</time>
      </trkpt>
      <trkpt lat="47.20116" lon="-1.53245">
        <ele>3.48</ele>
        <time>2020-06-27T15:25:14Z</time>
      </trkpt>
      <trkpt lat="47.20112" lon="-1.53263">
        <ele>2.33</ele>
        <time>2020-06-27T15:25:16Z</time>
      </trkpt>
      <trkpt lat="47.20109" lon="-1.53277">
        <ele>0.61</ele>
        <time>2020-06-27T15:25:18Z</time>
      </trkpt>
      <trkpt lat="47.20103" lon="-1.53295">
        <ele>0.61</ele>
        <time>2020-06-27T15:25:20Z</time>
      </trkpt>
      <trkpt lat="47.20098" lon="-1.5331">
        <ele>-0.48</ele>
        <time>2020-06-27T15:25:23Z</time>
      </trkpt>
      <trkpt lat="47.20093" lon="-1.53321">
        <ele>-2.27</ele>
        <time>2020-06-27T15:25:25Z</time>
      </trkpt>
      <trkpt lat="47.20088" lon="-1.53334">
        <ele>-2.9</ele>
        <time>2020-06-27T15:25:27Z</time>
      </trkpt>
      <trkpt lat="47.20082" lon="-1.53348">
        <ele>-3.17</ele>
        <time>2020-06-27T15:25:29Z</time>
      </trkpt>
      <trkpt lat="47.20077" lon="-1.53362">
        <ele>-2.9</ele>
        <time>2020-06-27T15:25:31Z</time>
      </trkpt>
      <trkpt lat="47.20072" lon="-1.53375">
        <ele>-2.23</ele>
        <time>2020-06-27T15:25:33Z</time>
      </trkpt>
      <trkpt lat="47.20066" lon="-1.5339">
        <ele>-0.92</ele>
        <time>2020-06-27T15:25:35Z</time>
      </trkpt>
      <trkpt lat="47.20059" lon="-1.53406">
        <ele>-0.86</ele>
        <time>2020-06-27T15:25:37Z</time>
      </trkpt>
      <trkpt lat="47.20054" lon="-1.53418">
        <ele>-1.84</ele>
        <time>2020-06-27T15:25:39Z</time>
      </trkpt>
      <trkpt lat="47.20049" lon="-1.53431">
        <ele>-3.41</ele>
        <time>2020-06-27T15:25:41Z</time>
      </trkpt>
      <trkpt lat="47.20043" lon="-1.53446">
        <ele>-3.25</ele>
        <time>2020-06-27T15:25:43Z</time>
      </trkpt>
      <trkpt lat="47.20038" lon="-1.53459">
        <ele>-4.01</ele>
        <time>2020-06-27T15:25:45Z</time>
      </trkpt>
      <trkpt lat="47.20034" lon="-1.53472">
        <ele>-2.61</ele>
        <time>2020-06-27T15:25:47Z</time>
      </trkpt>
      <trkpt lat="47.20029" lon="-1.53489">
        <ele>-2.01</ele>
        <time>2020-06-27T15:25:50Z</time>
      </trkpt>
      <trkpt lat="47.20022" lon="-1.53502">
        <ele>-3.21</ele>
        <time>2020-06-27T15:25:52Z</time>
      </trkpt>
      <trkpt lat="47.20012" lon="-1.53514">
        <ele>-4.38</ele>
        <time>2020-06-27T15:25:54Z</time>
      </trkpt>
      <trkpt lat="47.20003" lon="-1.53524">
        <ele>-5.52</ele>
        <time>2020-06-27T15:25:56Z</time>
      </trkpt>
      <trkpt lat="47.1999" lon="-1.53536">
        <ele>-2.59</ele>
        <time>2020-06-27T15:25:58Z</time>
      </trkpt>
      <trkpt lat="47.19985" lon="-1.53547">
        <ele>1.42</ele>
        <time>2020-06-27T15:26:00Z</time>
      </trkpt>
      <trkpt lat="47.19981" lon="-1.53565">
        <ele>5.83</ele>
        <time>2020-06-27T15:26:03Z</time>
      </trkpt>
      <trkpt lat="47.19978" lon="-1.53579">
        <ele>6.41</ele>
        <time>2020-06-27T15:26:05Z</time>
      </trkpt>
      <trkpt lat="47.19975" lon="-1.53595">
        <ele>5.9</ele>
        <time>2020-06-27T15:26:07Z</time>
      </trkpt>
      <trkpt lat="47.19972" lon="-1.53609">
        <ele>5.13</ele>
        <time>2020-06-27T15:26:09Z</time>
      </trkpt>
      <trkpt lat="47.19969" lon="-1.53627">
        <ele>4.97</ele>
        <time>2020-06-27T15:26:11Z</time>
      </trkpt>
      <trkpt lat="47.19965" lon="-1.53645">
        <ele>6.2</ele>
        <time>2020-06-27T15:26:13Z</time>
      </trkpt>
      <trkpt lat="47.19961" lon="-1.53663">
        <ele>6.68</ele>
        <time>2020-06-27T15:26:15Z</time>
      </trkpt>
      <trkpt lat="47.19957" lon="-1.53681">
        <ele>6.39</ele>
        <time>2020-06-27T15:26:17Z</time>
      </trkpt>
      <trkpt lat="47.19954" lon="-1.53694">
        <ele>5.82</ele>
        <time>2020-06-27T15:26:19Z</time>
      </trkpt>
      <trkpt lat="47.1995" lon="-1.53712">
        <ele>6.1</ele>
        <time>2020-06-27T15:26:21Z</time>
      </trkpt>
      <trkpt lat="47.19947" lon="-1.53727">
        <ele>7.36</ele>
        <time>2020-06-27T15:26:23Z</time>
      </trkpt>
      <trkpt lat="47.19943" lon="-1.53743">
        <ele>6.41</ele>
        <time>2020-06-27T15:26:25Z</time>
      </trkpt>
      <trkpt lat="47.1994" lon="-1.5376">
        <ele>6.54</ele>
        <time>2020-06-27T15:26:27Z</time>
      </trkpt>
      <trkpt lat="47.19936" lon="-1.53777">
        <ele>7.05</ele>
        <time>2020-06-27T15:26:29Z</time>
      </trkpt>
      <trkpt lat="47.19932" lon="-1.53793">
        <ele>6.09</ele>
        <time>2020-06-27T15:26:31Z</time>
      </trkpt>
      <trkpt lat="47.19929" lon="-1.5381">
        <ele>5.77</ele>
        <time>2020-06-27T15:26:33Z</time>
      </trkpt>
      <trkpt lat="47.19926" lon="-1.53825">
        <ele>5.46</ele>
        <time>2020-06-27T15:26:35Z</time>
      </trkpt>
      <trkpt lat="47.19923" lon="-1.53842">
        <ele>5.06</ele>
        <time>2020-06-27T15:26:37Z</time>
      </trkpt>
      <trkpt lat="47.19919" lon="-1.53859">
        <ele>5.48</ele>
        <time>2020-06-27T15:26:39Z</time>
      </trkpt>
      <trkpt lat="47.19915" lon="-1.53875">
        <ele>5.43</ele>
        <time>2020-06-27T15:26:41Z</time>
      </trkpt>
      <trkpt lat="47.19911" lon="-1.53888">
        <ele>5.27</ele>
        <time>2020-06-27T15:26:43Z</time>
      </trkpt>
      <trkpt lat="47.19907" lon="-1.53904">
        <ele>3.86</ele>
        <time>2020-06-27T15:26:45Z</time>
      </trkpt>
      <trkpt lat="47.19903" lon="-1.53922">
        <ele>2.78</ele>
        <time>2020-06-27T15:26:48Z</time>
      </trkpt>
      <trkpt lat="47.19899" lon="-1.5394">
        <ele>4.06</ele>
        <time>2020-06-27T15:26:50Z</time>
      </trkpt>
      <trkpt lat="47.19896" lon="-1.53954">
        <ele>4.32</ele>
        <time>2020-06-27T15:26:52Z</time>
      </trkpt>
      <trkpt lat="47.1989" lon="-1.53972">
        <ele>4.95</ele>
        <time>2020-06-27T15:26:54Z</time>
      </trkpt>
      <trkpt lat="47.19886" lon="-1.53989">
        <ele>6.53</ele>
        <time>2020-06-27T15:26:56Z</time>
      </trkpt>
      <trkpt lat="47.19882" lon="-1.54003">
        <ele>7.82</ele>
        <time>2020-06-27T15:26:58Z</time>
      </trkpt>
      <trkpt lat="47.19877" lon="-1.54015">
        <ele>6.58</ele>
        <time>2020-06-27T15:27:00Z</time>
      </trkpt>
      <trkpt lat="47.19872" lon="-1.5403">
        <ele>5.76</ele>
        <time>2020-06-27T15:27:02Z</time>
      </trkpt>
      <trkpt lat="47.19868" lon="-1.54042">
        <ele>5.11</ele>
        <time>2020-06-27T15:27:04Z</time>
      </trkpt>
      <trkpt lat="47.19862" lon="-1.54062">
        <ele>4.92</ele>
        <time>2020-06-27T15:27:07Z</time>
      </trkpt>
      <trkpt lat="47.19856" lon="-1.5408">
        <ele>5.53</ele>
        <time>2020-06-27T15:27:09Z</time>
      </trkpt>
      <trkpt lat="47.19851" lon="-1.54095">
        <ele>5.37</ele>
        <time>2020-06-27T15:27:11Z</time>
      </trkpt>
      <trkpt lat="47.19845" lon="-1.54107">
        <ele>4.55</ele>
        <time>2020-06-27T15:27:13Z</time>
      </trkpt>
      <trkpt lat="47.19839" lon="-1.54121">
        <ele>3.58</ele>
        <time>2020-06-27T15:27:15Z</time>
      </trkpt>
      <trkpt lat="47.19834" lon="-1.54134">
        <ele>3.44</ele>
        <time>2020-06-27T15:27:17Z</time>
      </trkpt>
      <trkpt lat="47.1983" lon="-1.54146">
        <ele>3.29</ele>
        <time>2020-06-27T15:27:19Z</time>
      </trkpt>
      <trkpt lat="47.19823" lon="-1.54159">
        <ele>4.29</ele>
        <time>2020-06-27T15:27:21Z</time>
      </trkpt>
      <trkpt lat="47.19816" lon="-1.54171">
        <ele>5.36</ele>
        <time>2020-06-27T15:27:23Z</time>
      </trkpt>
      <trkpt lat="47.1981" lon="-1.54185">
        <ele>5.28</ele>
        <time>2020-06-27T15:27:26Z</time>
      </trkpt>
      <trkpt lat="47.19805" lon="-1.54199">
        <ele>5.23</ele>
        <time>2020-06-27T15:27:29Z</time>
      </trkpt>
      <trkpt lat="47.19801" lon="-1.54211">
        <ele>5.05</ele>
        <time>2020-06-27T15:27:36Z</time>
      </trkpt>
      <trkpt lat="47.19798" lon="-1.54226">
        <ele>3.57</ele>
        <time>2020-06-27T15:27:55Z</time>
      </trkpt>
      <trkpt lat="47.19791" lon="-1.54245">
        <ele>2.63</ele>
        <time>2020-06-27T15:27:58Z</time>
      </trkpt>
      <trkpt lat="47.19783" lon="-1.5426">
        <ele>3.39</ele>
        <time>2020-06-27T15:28:00Z</time>
      </trkpt>
      <trkpt lat="47.1977" lon="-1.54274">
        <ele>3.43</ele>
        <time>2020-06-27T15:28:02Z</time>
      </trkpt>
      <trkpt lat="47.1976" lon="-1.54286">
        <ele>3.24</ele>
        <time>2020-06-27T15:28:04Z</time>
      </trkpt>
      <trkpt lat="47.19747" lon="-1.543">
        <ele>4.6</ele>
        <time>2020-06-27T15:28:06Z</time>
      </trkpt>
      <trkpt lat="47.19734" lon="-1.5431">
        <ele>6.16</ele>
        <time>2020-06-27T15:28:08Z</time>
      </trkpt>
      <trkpt lat="47.19723" lon="-1.54317">
        <ele>7.33</ele>
        <time>2020-06-27T15:28:10Z</time>
      </trkpt>
      <trkpt lat="47.1971" lon="-1.54327">
        <ele>7.86</ele>
        <time>2020-06-27T15:28:12Z</time>
      </trkpt>
      <trkpt lat="47.19698" lon="-1.54335">
        <ele>9.57</ele>
        <time>2020-06-27T15:28:14Z</time>
      </trkpt>
      <trkpt lat="47.19686" lon="-1.54344">
        <ele>10.89</ele>
        <time>2020-06-27T15:28:16Z</time>
      </trkpt>
      <trkpt lat="47.19673" lon="-1.54352">
        <ele>10.7</ele>
        <time>2020-06-27T15:28:18Z</time>
      </trkpt>
      <trkpt lat="47.19662" lon="-1.54361">
        <ele>10.55</ele>
        <time>2020-06-27T15:28:20Z</time>
      </trkpt>
      <trkpt lat="47.19651" lon="-1.54371">
        <ele>10.48</ele>
        <time>2020-06-27T15:28:22Z</time>
      </trkpt>
      <trkpt lat="47.19639" lon="-1.5438">
        <ele>10.62</ele>
        <time>2020-06-27T15:28:24Z</time>
      </trkpt>
      <trkpt lat="47.19629" lon="-1.54387">
        <ele>11.34</ele>
        <time>2020-06-27T15:28:26Z</time>
      </trkpt>
      <trkpt lat="47.19619" lon="-1.54395">
        <ele>12.88</ele>
        <time>2020-06-27T15:28:28Z</time>
      </trkpt>
      <trkpt lat="47.19608" lon="-1.54405">
        <ele>15.13</ele>
        <time>2020-06-27T15:28:30Z</time>
      </trkpt>
      <trkpt lat="47.19597" lon="-1.54415">
        <ele>16.2</ele>
        <time>2020-06-27T15:28:32Z</time>
      </trkpt>
      <trkpt lat="47.19587" lon="-1.54426">
        <ele>15.21</ele>
        <time>2020-06-27T15:28:34Z</time>
      </trkpt>
      <trkpt lat="47.19576" lon="-1.54437">
        <ele>14.55</ele>
        <time>2020-06-27T15:28:36Z</time>
      </trkpt>
      <trkpt lat="47.19567" lon="-1.54447">
        <ele>13.89</ele>
        <time>2020-06-27T15:28:38Z</time>
      </trkpt>
      <trkpt lat="47.19557" lon="-1.5446">
        <ele>13.62</ele>
        <time>2020-06-27T15:28:40Z</time>
      </trkpt>
      <trkpt lat="47.19548" lon="-1.5447">
        <ele>13</ele>
        <time>2020-06-27T15:28:42Z</time>
      </trkpt>
      <trkpt lat="47.19538" lon="-1.54479">
        <ele>12.81</ele>
        <time>2020-06-27T15:28:44Z</time>
      </trkpt>
      <trkpt lat="47.19529" lon="-1.54488">
        <ele>12.81</ele>
        <time>2020-06-27T15:28:46Z</time>
      </trkpt>
      <trkpt lat="47.1952" lon="-1.54495">
        <ele>12.52</ele>
        <time>2020-06-27T15:28:48Z</time>
      </trkpt>
      <trkpt lat="47.19507" lon="-1.54507">
        <ele>12.28</ele>
        <time>2020-06-27T15:28:50Z</time>
      </trkpt>
      <trkpt lat="47.19497" lon="-1.54514">
        <ele>11.78</ele>
        <time>2020-06-27T15:28:52Z</time>
      </trkpt>
      <trkpt lat="47.19487" lon="-1.54522">
        <ele>12.54</ele>
        <time>2020-06-27T15:28:54Z</time>
      </trkpt>
      <trkpt lat="47.19479" lon="-1.54529">
        <ele>13.24</ele>
        <time>2020-06-27T15:28:56Z</time>
      </trkpt>
      <trkpt lat="47.19473" lon="-1.54543">
        <ele>12.47</ele>
        <time>2020-06-27T15:28:58Z</time>
      </trkpt>
      <trkpt lat="47.19469" lon="-1.54558">
        <ele>11.55</ele>
        <time>2020-06-27T15:29:00Z</time>
      </trkpt>
      <trkpt lat="47.19468" lon="-1.54577">
        <ele>10.6</ele>
        <time>2020-06-27T15:29:02Z</time>
      </trkpt>
      <trkpt lat="47.19474" lon="-1.54596">
        <ele>9.68</ele>
        <time>2020-06-27T15:29:04Z</time>
      </trkpt>
      <trkpt lat="47.19472" lon="-1.54615">
        <ele>8.81</ele>
        <time>2020-06-27T15:29:06Z</time>
      </trkpt>
      <trkpt lat="47.19467" lon="-1.54629">
        <ele>7.9</ele>
        <time>2020-06-27T15:29:08Z</time>
      </trkpt>
      <trkpt lat="47.19457" lon="-1.54639">
        <ele>7.57</ele>
        <time>2020-06-27T15:29:10Z</time>
      </trkpt>
      <trkpt lat="47.19447" lon="-1.54647">
        <ele>7.66</ele>
        <time>2020-06-27T15:29:12Z</time>
      </trkpt>
      <trkpt lat="47.19441" lon="-1.54659">
        <ele>8.12</ele>
        <time>2020-06-27T15:29:14Z</time>
      </trkpt>
      <trkpt lat="47.19438" lon="-1.54675">
        <ele>8.17</ele>
        <time>2020-06-27T15:29:16Z</time>
      </trkpt>
      <trkpt lat="47.19434" lon="-1.54691">
        <ele>7.1</ele>
        <time>2020-06-27T15:29:18Z</time>
      </trkpt>
      <trkpt lat="47.1943" lon="-1.54711">
        <ele>5.72</ele>
        <time>2020-06-27T15:29:20Z</time>
      </trkpt>
      <trkpt lat="47.19425" lon="-1.54728">
        <ele>4.01</ele>
        <time>2020-06-27T15:29:22Z</time>
      </trkpt>
      <trkpt lat="47.1942" lon="-1.54745">
        <ele>1.64</ele>
        <time>2020-06-27T15:29:24Z</time>
      </trkpt>
      <trkpt lat="47.19417" lon="-1.54761">
        <ele>-0.35</ele>
        <time>2020-06-27T15:29:26Z</time>
      </trkpt>
      <trkpt lat="47.19413" lon="-1.54774">
        <ele>-0.5</ele>
        <time>2020-06-27T15:29:28Z</time>
      </trkpt>
      <trkpt lat="47.19409" lon="-1.54788">
        <ele>0.86</ele>
        <time>2020-06-27T15:29:30Z</time>
      </trkpt>
      <trkpt lat="47.19405" lon="-1.54801">
        <ele>1.74</ele>
        <time>2020-06-27T15:29:32Z</time>
      </trkpt>
      <trkpt lat="47.19402" lon="-1.54813">
        <ele>2.5</ele>
        <time>2020-06-27T15:29:34Z</time>
      </trkpt>
      <trkpt lat="47.19398" lon="-1.54826">
        <ele>4.1</ele>
        <time>2020-06-27T15:29:36Z</time>
      </trkpt>
      <trkpt lat="47.19395" lon="-1.5484">
        <ele>5.96</ele>
        <time>2020-06-27T15:29:38Z</time>
      </trkpt>
      <trkpt lat="47.19391" lon="-1.54854">
        <ele>6.93</ele>
        <time>2020-06-27T15:29:40Z</time>
      </trkpt>
      <trkpt lat="47.19387" lon="-1.54868">
        <ele>7.06</ele>
        <time>2020-06-27T15:29:42Z</time>
      </trkpt>
      <trkpt lat="47.19384" lon="-1.54881">
        <ele>6.46</ele>
        <time>2020-06-27T15:29:44Z</time>
      </trkpt>
      <trkpt lat="47.19381" lon="-1.54895">
        <ele>6.07</ele>
        <time>2020-06-27T15:29:46Z</time>
      </trkpt>
      <trkpt lat="47.19377" lon="-1.54914">
        <ele>5.38</ele>
        <time>2020-06-27T15:29:49Z</time>
      </trkpt>
      <trkpt lat="47.19374" lon="-1.54927">
        <ele>3.91</ele>
        <time>2020-06-27T15:29:51Z</time>
      </trkpt>
      <trkpt lat="47.1937" lon="-1.54946">
        <ele>2.71</ele>
        <time>2020-06-27T15:29:54Z</time>
      </trkpt>
      <trkpt lat="47.19367" lon="-1.54959">
        <ele>3.17</ele>
        <time>2020-06-27T15:29:56Z</time>
      </trkpt>
      <trkpt lat="47.19363" lon="-1.54973">
        <ele>3.81</ele>
        <time>2020-06-27T15:29:58Z</time>
      </trkpt>
      <trkpt lat="47.19359" lon="-1.54992">
        <ele>5.67</ele>
        <time>2020-06-27T15:30:01Z</time>
      </trkpt>
      <trkpt lat="47.19356" lon="-1.55005">
        <ele>6.7</ele>
        <time>2020-06-27T15:30:03Z</time>
      </trkpt>
      <trkpt lat="47.19353" lon="-1.55019">
        <ele>6.85</ele>
        <time>2020-06-27T15:30:05Z</time>
      </trkpt>
      <trkpt lat="47.19351" lon="-1.55033">
        <ele>7.18</ele>
        <time>2020-06-27T15:30:07Z</time>
      </trkpt>
      <trkpt lat="47.19347" lon="-1.55047">
        <ele>7.78</ele>
        <time>2020-06-27T15:30:09Z</time>
      </trkpt>
      <trkpt lat="47.19345" lon="-1.5506">
        <ele>6.57</ele>
        <time>2020-06-27T15:30:11Z</time>
      </trkpt>
      <trkpt lat="47.19341" lon="-1.55077">
        <ele>5.98</ele>
        <time>2020-06-27T15:30:13Z</time>
      </trkpt>
      <trkpt lat="47.19335" lon="-1.55098">
        <ele>5.77</ele>
        <time>2020-06-27T15:30:15Z</time>
      </trkpt>
      <trkpt lat="47.19331" lon="-1.55116">
        <ele>6.45</ele>
        <time>2020-06-27T15:30:17Z</time>
      </trkpt>
      <trkpt lat="47.19328" lon="-1.55131">
        <ele>7.22</ele>
        <time>2020-06-27T15:30:19Z</time>
      </trkpt>
      <trkpt lat="47.19324" lon="-1.55149">
        <ele>8.76</ele>
        <time>2020-06-27T15:30:21Z</time>
      </trkpt>
      <trkpt lat="47.19318" lon="-1.55169">
        <ele>9.25</ele>
        <time>2020-06-27T15:30:23Z</time>
      </trkpt>
      <trkpt lat="47.19313" lon="-1.55186">
        <ele>9.39</ele>
        <time>2020-06-27T15:30:25Z</time>
      </trkpt>
      <trkpt lat="47.19307" lon="-1.55206">
        <ele>8.68</ele>
        <time>2020-06-27T15:30:27Z</time>
      </trkpt>
      <trkpt lat="47.19302" lon="-1.55224">
        <ele>8.71</ele>
        <time>2020-06-27T15:30:29Z</time>
      </trkpt>
      <trkpt lat="47.19297" lon="-1.55241">
        <ele>7.75</ele>
        <time>2020-06-27T15:30:31Z</time>
      </trkpt>
      <trkpt lat="47.19291" lon="-1.55261">
        <ele>6.29</ele>
        <time>2020-06-27T15:30:33Z</time>
      </trkpt>
      <trkpt lat="47.19287" lon="-1.55279">
        <ele>5.72</ele>
        <time>2020-06-27T15:30:35Z</time>
      </trkpt>
      <trkpt lat="47.19283" lon="-1.55297">
        <ele>5.34</ele>
        <time>2020-06-27T15:30:37Z</time>
      </trkpt>
      <trkpt lat="47.19279" lon="-1.55315">
        <ele>4.9</ele>
        <time>2020-06-27T15:30:39Z</time>
      </trkpt>
      <trkpt lat="47.19276" lon="-1.55328">
        <ele>5.31</ele>
        <time>2020-06-27T15:30:41Z</time>
      </trkpt>
      <trkpt lat="47.19274" lon="-1.55342">
        <ele>6.14</ele>
        <time>2020-06-27T15:30:43Z</time>
      </trkpt>
      <trkpt lat="47.19269" lon="-1.5536">
        <ele>6.95</ele>
        <time>2020-06-27T15:30:45Z</time>
      </trkpt>
      <trkpt lat="47.19266" lon="-1.55378">
        <ele>7.1</ele>
        <time>2020-06-27T15:30:48Z</time>
      </trkpt>
      <trkpt lat="47.19261" lon="-1.55393">
        <ele>7.03</ele>
        <time>2020-06-27T15:30:50Z</time>
      </trkpt>
      <trkpt lat="47.19256" lon="-1.55408">
        <ele>6.26</ele>
        <time>2020-06-27T15:30:53Z</time>
      </trkpt>
      <trkpt lat="47.19257" lon="-1.55424">
        <ele>5.79</ele>
        <time>2020-06-27T15:30:55Z</time>
      </trkpt>
      <trkpt lat="47.19258" lon="-1.55441">
        <ele>5.91</ele>
        <time>2020-06-27T15:30:57Z</time>
      </trkpt>
      <trkpt lat="47.19255" lon="-1.55457">
        <ele>5.88</ele>
        <time>2020-06-27T15:30:59Z</time>
      </trkpt>
      <trkpt lat="47.1925" lon="-1.55472">
        <ele>6.96</ele>
        <time>2020-06-27T15:31:01Z</time>
      </trkpt>
      <trkpt lat="47.19246" lon="-1.55489">
        <ele>5.9</ele>
        <time>2020-06-27T15:31:04Z</time>
      </trkpt>
      <trkpt lat="47.19246" lon="-1.55507">
        <ele>4.49</ele>
        <time>2020-06-27T15:31:06Z</time>
      </trkpt>
      <trkpt lat="47.19246" lon="-1.55522">
        <ele>2.82</ele>
        <time>2020-06-27T15:31:08Z</time>
      </trkpt>
      <trkpt lat="47.19247" lon="-1.55536">
        <ele>1.02</ele>
        <time>2020-06-27T15:31:10Z</time>
      </trkpt>
      <trkpt lat="47.19246" lon="-1.55555">
        <ele>-0.41</ele>
        <time>2020-06-27T15:31:13Z</time>
      </trkpt>
      <trkpt lat="47.19244" lon="-1.5557">
        <ele>-1.03</ele>
        <time>2020-06-27T15:31:15Z</time>
      </trkpt>
      <trkpt lat="47.19243" lon="-1.55584">
        <ele>-2.25</ele>
        <time>2020-06-27T15:31:17Z</time>
      </trkpt>
      <trkpt lat="47.19242" lon="-1.55599">
        <ele>-4.34</ele>
        <time>2020-06-27T15:31:19Z</time>
      </trkpt>
      <trkpt lat="47.19242" lon="-1.55615">
        <ele>-5.94</ele>
        <time>2020-06-27T15:31:21Z</time>
      </trkpt>
      <trkpt lat="47.1924" lon="-1.55629">
        <ele>-5.78</ele>
        <time>2020-06-27T15:31:23Z</time>
      </trkpt>
      <trkpt lat="47.1924" lon="-1.55643">
        <ele>-5.43</ele>
        <time>2020-06-27T15:31:25Z</time>
      </trkpt>
      <trkpt lat="47.19239" lon="-1.55662">
        <ele>-4.41</ele>
        <time>2020-06-27T15:31:28Z</time>
      </trkpt>
      <trkpt lat="47.19239" lon="-1.55679">
        <ele>-3.75</ele>
        <time>2020-06-27T15:31:30Z</time>
      </trkpt>
      <trkpt lat="47.19239" lon="-1.55692">
        <ele>-3.88</ele>
        <time>2020-06-27T15:31:32Z</time>
      </trkpt>
      <trkpt lat="47.19239" lon="-1.55714">
        <ele>-3.41</ele>
        <time>2020-06-27T15:31:35Z</time>
      </trkpt>
      <trkpt lat="47.19239" lon="-1.55733">
        <ele>-5.26</ele>
        <time>2020-06-27T15:31:38Z</time>
      </trkpt>
      <trkpt lat="47.19239" lon="-1.55747">
        <ele>-4.6</ele>
        <time>2020-06-27T15:31:40Z</time>
      </trkpt>
      <trkpt lat="47.19239" lon="-1.55761">
        <ele>-3.96</ele>
        <time>2020-06-27T15:31:42Z</time>
      </trkpt>
      <trkpt lat="47.19239" lon="-1.5578">
        <ele>-3.12</ele>
        <time>2020-06-27T15:31:44Z</time>
      </trkpt>
      <trkpt lat="47.1924" lon="-1.55801">
        <ele>0.12</ele>
        <time>2020-06-27T15:31:47Z</time>
      </trkpt>
      <trkpt lat="47.1924" lon="-1.55814">
        <ele>1.09</ele>
        <time>2020-06-27T15:31:49Z</time>
      </trkpt>
      <trkpt lat="47.19242" lon="-1.55835">
        <ele>2.68</ele>
        <time>2020-06-27T15:31:52Z</time>
      </trkpt>
      <trkpt lat="47.19242" lon="-1.55852">
        <ele>3.06</ele>
        <time>2020-06-27T15:31:54Z</time>
      </trkpt>
      <trkpt lat="47.19242" lon="-1.55866">
        <ele>2.7</ele>
        <time>2020-06-27T15:31:56Z</time>
      </trkpt>
      <trkpt lat="47.19243" lon="-1.5588">
        <ele>2.84</ele>
        <time>2020-06-27T15:31:58Z</time>
      </trkpt>
      <trkpt lat="47.19244" lon="-1.55895">
        <ele>3.17</ele>
        <time>2020-06-27T15:32:00Z</time>
      </trkpt>
      <trkpt lat="47.19245" lon="-1.55915">
        <ele>3.87</ele>
        <time>2020-06-27T15:32:03Z</time>
      </trkpt>
      <trkpt lat="47.19245" lon="-1.55931">
        <ele>4.28</ele>
        <time>2020-06-27T15:32:05Z</time>
      </trkpt>
      <trkpt lat="47.19246" lon="-1.55947">
        <ele>3.42</ele>
        <time>2020-06-27T15:32:07Z</time>
      </trkpt>
      <trkpt lat="47.19248" lon="-1.55962">
        <ele>4</ele>
        <time>2020-06-27T15:32:09Z</time>
      </trkpt>
      <trkpt lat="47.19249" lon="-1.5598">
        <ele>6.05</ele>
        <time>2020-06-27T15:32:12Z</time>
      </trkpt>
      <trkpt lat="47.1925" lon="-1.55994">
        <ele>5.82</ele>
        <time>2020-06-27T15:32:14Z</time>
      </trkpt>
      <trkpt lat="47.19251" lon="-1.5601">
        <ele>6.49</ele>
        <time>2020-06-27T15:32:16Z</time>
      </trkpt>
      <trkpt lat="47.19254" lon="-1.56026">
        <ele>5.99</ele>
        <time>2020-06-27T15:32:18Z</time>
      </trkpt>
      <trkpt lat="47.19255" lon="-1.5604">
        <ele>5.06</ele>
        <time>2020-06-27T15:32:20Z</time>
      </trkpt>
      <trkpt lat="47.19256" lon="-1.56056">
        <ele>4.43</ele>
        <time>2020-06-27T15:32:22Z</time>
      </trkpt>
      <trkpt lat="47.19259" lon="-1.56075">
        <ele>3.58</ele>
        <time>2020-06-27T15:32:25Z</time>
      </trkpt>
      <trkpt lat="47.1926" lon="-1.56092">
        <ele>3.82</ele>
        <time>2020-06-27T15:32:27Z</time>
      </trkpt>
      <trkpt lat="47.1926" lon="-1.56109">
        <ele>3.48</ele>
        <time>2020-06-27T15:32:29Z</time>
      </trkpt>
      <trkpt lat="47.19262" lon="-1.56126">
        <ele>2.32</ele>
        <time>2020-06-27T15:32:32Z</time>
      </trkpt>
      <trkpt lat="47.19263" lon="-1.5614">
        <ele>1.82</ele>
        <time>2020-06-27T15:32:34Z</time>
      </trkpt>
      <trkpt lat="47.19265" lon="-1.56156">
        <ele>1.97</ele>
        <time>2020-06-27T15:32:36Z</time>
      </trkpt>
      <trkpt lat="47.19265" lon="-1.56169">
        <ele>2.73</ele>
        <time>2020-06-27T15:32:38Z</time>
      </trkpt>
      <trkpt lat="47.19266" lon="-1.56185">
        <ele>4.01</ele>
        <time>2020-06-27T15:32:40Z</time>
      </trkpt>
      <trkpt lat="47.19267" lon="-1.562">
        <ele>6.44</ele>
        <time>2020-06-27T15:32:42Z</time>
      </trkpt>
      <trkpt lat="47.19267" lon="-1.56214">
        <ele>7.3</ele>
        <time>2020-06-27T15:32:44Z</time>
      </trkpt>
      <trkpt lat="47.19268" lon="-1.56229">
        <ele>7.18</ele>
        <time>2020-06-27T15:32:46Z</time>
      </trkpt>
      <trkpt lat="47.19271" lon="-1.56243">
        <ele>6.34</ele>
        <time>2020-06-27T15:32:48Z</time>
      </trkpt>
      <trkpt lat="47.19278" lon="-1.56257">
        <ele>6.56</ele>
        <time>2020-06-27T15:32:50Z</time>
      </trkpt>
      <trkpt lat="47.19286" lon="-1.5627">
        <ele>6.86</ele>
        <time>2020-06-27T15:32:52Z</time>
      </trkpt>
      <trkpt lat="47.19291" lon="-1.56285">
        <ele>7.38</ele>
        <time>2020-06-27T15:32:54Z</time>
      </trkpt>
      <trkpt lat="47.19291" lon="-1.56305">
        <ele>7.21</ele>
        <time>2020-06-27T15:32:56Z</time>
      </trkpt>
      <trkpt lat="47.19288" lon="-1.56318">
        <ele>6.83</ele>
        <time>2020-06-27T15:32:58Z</time>
      </trkpt>
      <trkpt lat="47.19283" lon="-1.56332">
        <ele>6.55</ele>
        <time>2020-06-27T15:33:00Z</time>
      </trkpt>
      <trkpt lat="47.19282" lon="-1.56347">
        <ele>5.04</ele>
        <time>2020-06-27T15:33:02Z</time>
      </trkpt>
      <trkpt lat="47.19285" lon="-1.56367">
        <ele>4.21</ele>
        <time>2020-06-27T15:33:04Z</time>
      </trkpt>
      <trkpt lat="47.19287" lon="-1.56387">
        <ele>3.83</ele>
        <time>2020-06-27T15:33:06Z</time>
      </trkpt>
      <trkpt lat="47.19288" lon="-1.56404">
        <ele>3.87</ele>
        <time>2020-06-27T15:33:08Z</time>
      </trkpt>
      <trkpt lat="47.19289" lon="-1.56421">
        <ele>4.49</ele>
        <time>2020-06-27T15:33:10Z</time>
      </trkpt>
      <trkpt lat="47.1929" lon="-1.56437">
        <ele>4.37</ele>
        <time>2020-06-27T15:33:12Z</time>
      </trkpt>
      <trkpt lat="47.19291" lon="-1.56451">
        <ele>3.48</ele>
        <time>2020-06-27T15:33:14Z</time>
      </trkpt>
      <trkpt lat="47.19292" lon="-1.56465">
        <ele>4.8</ele>
        <time>2020-06-27T15:33:16Z</time>
      </trkpt>
      <trkpt lat="47.19293" lon="-1.5648">
        <ele>4.55</ele>
        <time>2020-06-27T15:33:18Z</time>
      </trkpt>
      <trkpt lat="47.19295" lon="-1.56498">
        <ele>3.82</ele>
        <time>2020-06-27T15:33:20Z</time>
      </trkpt>
      <trkpt lat="47.19296" lon="-1.56517">
        <ele>3.54</ele>
        <time>2020-06-27T15:33:22Z</time>
      </trkpt>
      <trkpt lat="47.19298" lon="-1.56531">
        <ele>2.83</ele>
        <time>2020-06-27T15:33:24Z</time>
      </trkpt>
      <trkpt lat="47.193" lon="-1.56546">
        <ele>2.84</ele>
        <time>2020-06-27T15:33:26Z</time>
      </trkpt>
      <trkpt lat="47.19302" lon="-1.5656">
        <ele>3.71</ele>
        <time>2020-06-27T15:33:28Z</time>
      </trkpt>
      <trkpt lat="47.19304" lon="-1.56576">
        <ele>3.71</ele>
        <time>2020-06-27T15:33:30Z</time>
      </trkpt>
      <trkpt lat="47.19306" lon="-1.5659">
        <ele>3.04</ele>
        <time>2020-06-27T15:33:32Z</time>
      </trkpt>
      <trkpt lat="47.19308" lon="-1.56605">
        <ele>2.6</ele>
        <time>2020-06-27T15:33:34Z</time>
      </trkpt>
      <trkpt lat="47.19309" lon="-1.56621">
        <ele>2.32</ele>
        <time>2020-06-27T15:33:36Z</time>
      </trkpt>
      <trkpt lat="47.1931" lon="-1.56635">
        <ele>3.1</ele>
        <time>2020-06-27T15:33:38Z</time>
      </trkpt>
      <trkpt lat="47.19312" lon="-1.56651">
        <ele>4.65</ele>
        <time>2020-06-27T15:33:40Z</time>
      </trkpt>
      <trkpt lat="47.19313" lon="-1.56666">
        <ele>5.01</ele>
        <time>2020-06-27T15:33:42Z</time>
      </trkpt>
      <trkpt lat="47.19314" lon="-1.5668">
        <ele>5.63</ele>
        <time>2020-06-27T15:33:44Z</time>
      </trkpt>
      <trkpt lat="47.19315" lon="-1.56695">
        <ele>5.56</ele>
        <time>2020-06-27T15:33:46Z</time>
      </trkpt>
      <trkpt lat="47.19316" lon="-1.5671">
        <ele>5.87</ele>
        <time>2020-06-27T15:33:48Z</time>
      </trkpt>
      <trkpt lat="47.19317" lon="-1.56726">
        <ele>6.55</ele>
        <time>2020-06-27T15:33:50Z</time>
      </trkpt>
      <trkpt lat="47.19319" lon="-1.56741">
        <ele>6.8</ele>
        <time>2020-06-27T15:33:52Z</time>
      </trkpt>
      <trkpt lat="47.19321" lon="-1.56762">
        <ele>6.6</ele>
        <time>2020-06-27T15:33:55Z</time>
      </trkpt>
      <trkpt lat="47.19322" lon="-1.56778">
        <ele>6.57</ele>
        <time>2020-06-27T15:33:57Z</time>
      </trkpt>
      <trkpt lat="47.19324" lon="-1.56792">
        <ele>6.39</ele>
        <time>2020-06-27T15:33:58Z</time>
      </trkpt>
      <trkpt lat="47.19326" lon="-1.56813">
        <ele>6.13</ele>
        <time>2020-06-27T15:34:01Z</time>
      </trkpt>
      <trkpt lat="47.19328" lon="-1.56829">
        <ele>5.28</ele>
        <time>2020-06-27T15:34:03Z</time>
      </trkpt>
      <trkpt lat="47.19329" lon="-1.56848">
        <ele>4.95</ele>
        <time>2020-06-27T15:34:06Z</time>
      </trkpt>
      <trkpt lat="47.1933" lon="-1.56864">
        <ele>6.65</ele>
        <time>2020-06-27T15:34:08Z</time>
      </trkpt>
      <trkpt lat="47.19331" lon="-1.56879">
        <ele>7.71</ele>
        <time>2020-06-27T15:34:10Z</time>
      </trkpt>
      <trkpt lat="47.19332" lon="-1.56895">
        <ele>7.8</ele>
        <time>2020-06-27T15:34:12Z</time>
      </trkpt>
      <trkpt lat="47.19332" lon="-1.56909">
        <ele>8.17</ele>
        <time>2020-06-27T15:34:14Z</time>
      </trkpt>
      <trkpt lat="47.19333" lon="-1.56924">
        <ele>8.68</ele>
        <time>2020-06-27T15:34:16Z</time>
      </trkpt>
      <trkpt lat="47.19332" lon="-1.56941">
        <ele>7.95</ele>
        <time>2020-06-27T15:34:18Z</time>
      </trkpt>
      <trkpt lat="47.19332" lon="-1.56955">
        <ele>7.34</ele>
        <time>2020-06-27T15:34:20Z</time>
      </trkpt>
      <trkpt lat="47.1933" lon="-1.5697">
        <ele>6.8</ele>
        <time>2020-06-27T15:34:23Z</time>
      </trkpt>
      <trkpt lat="47.1933" lon="-1.56985">
        <ele>5.58</ele>
        <time>2020-06-27T15:34:25Z</time>
      </trkpt>
      <trkpt lat="47.19327" lon="-1.57005">
        <ele>4.98</ele>
        <time>2020-06-27T15:34:28Z</time>
      </trkpt>
      <trkpt lat="47.19327" lon="-1.5702">
        <ele>4.03</ele>
        <time>2020-06-27T15:34:30Z</time>
      </trkpt>
      <trkpt lat="47.19325" lon="-1.57035">
        <ele>2.9</ele>
        <time>2020-06-27T15:34:32Z</time>
      </trkpt>
      <trkpt lat="47.19334" lon="-1.57047">
        <ele>2.83</ele>
        <time>2020-06-27T15:34:35Z</time>
      </trkpt>
      <trkpt lat="47.19343" lon="-1.57059">
        <ele>3.4</ele>
        <time>2020-06-27T15:34:38Z</time>
      </trkpt>
      <trkpt lat="47.19339" lon="-1.57078">
        <ele>4.07</ele>
        <time>2020-06-27T15:34:40Z</time>
      </trkpt>
      <trkpt lat="47.19327" lon="-1.57086">
        <ele>3.8</ele>
        <time>2020-06-27T15:34:42Z</time>
      </trkpt>
      <trkpt lat="47.19318" lon="-1.57098">
        <ele>2.92</ele>
        <time>2020-06-27T15:34:44Z</time>
      </trkpt>
      <trkpt lat="47.19315" lon="-1.57116">
        <ele>3.03</ele>
        <time>2020-06-27T15:34:46Z</time>
      </trkpt>
      <trkpt lat="47.19312" lon="-1.57134">
        <ele>4.03</ele>
        <time>2020-06-27T15:34:48Z</time>
      </trkpt>
      <trkpt lat="47.1931" lon="-1.57151">
        <ele>5.3</ele>
        <time>2020-06-27T15:34:50Z</time>
      </trkpt>
      <trkpt lat="47.19308" lon="-1.57166">
        <ele>6.95</ele>
        <time>2020-06-27T15:34:52Z</time>
      </trkpt>
      <trkpt lat="47.19306" lon="-1.57182">
        <ele>8.57</ele>
        <time>2020-06-27T15:34:54Z</time>
      </trkpt>
      <trkpt lat="47.19304" lon="-1.57199">
        <ele>9.84</ele>
        <time>2020-06-27T15:34:56Z</time>
      </trkpt>
      <trkpt lat="47.19301" lon="-1.57215">
        <ele>10.47</ele>
        <time>2020-06-27T15:34:58Z</time>
      </trkpt>
      <trkpt lat="47.19297" lon="-1.57229">
        <ele>10.34</ele>
        <time>2020-06-27T15:35:00Z</time>
      </trkpt>
      <trkpt lat="47.19293" lon="-1.57243">
        <ele>10.52</ele>
        <time>2020-06-27T15:35:02Z</time>
      </trkpt>
      <trkpt lat="47.19288" lon="-1.57262">
        <ele>11.1</ele>
        <time>2020-06-27T15:35:05Z</time>
      </trkpt>
      <trkpt lat="47.19283" lon="-1.57276">
        <ele>10.76</ele>
        <time>2020-06-27T15:35:07Z</time>
      </trkpt>
      <trkpt lat="47.19278" lon="-1.5729">
        <ele>9.92</ele>
        <time>2020-06-27T15:35:09Z</time>
      </trkpt>
      <trkpt lat="47.19274" lon="-1.57305">
        <ele>9.7</ele>
        <time>2020-06-27T15:35:11Z</time>
      </trkpt>
      <trkpt lat="47.19269" lon="-1.57321">
        <ele>8.45</ele>
        <time>2020-06-27T15:35:13Z</time>
      </trkpt>
      <trkpt lat="47.19265" lon="-1.57334">
        <ele>8.77</ele>
        <time>2020-06-27T15:35:15Z</time>
      </trkpt>
      <trkpt lat="47.1926" lon="-1.57347">
        <ele>8.32</ele>
        <time>2020-06-27T15:35:17Z</time>
      </trkpt>
      <trkpt lat="47.19256" lon="-1.57359">
        <ele>8</ele>
        <time>2020-06-27T15:35:19Z</time>
      </trkpt>
      <trkpt lat="47.19251" lon="-1.57374">
        <ele>6.78</ele>
        <time>2020-06-27T15:35:21Z</time>
      </trkpt>
      <trkpt lat="47.19247" lon="-1.57387">
        <ele>7.49</ele>
        <time>2020-06-27T15:35:23Z</time>
      </trkpt>
      <trkpt lat="47.19242" lon="-1.57402">
        <ele>10.19</ele>
        <time>2020-06-27T15:35:25Z</time>
      </trkpt>
      <trkpt lat="47.19235" lon="-1.57421">
        <ele>11.76</ele>
        <time>2020-06-27T15:35:28Z</time>
      </trkpt>
      <trkpt lat="47.19229" lon="-1.57437">
        <ele>10.63</ele>
        <time>2020-06-27T15:35:30Z</time>
      </trkpt>
      <trkpt lat="47.19223" lon="-1.57451">
        <ele>8.28</ele>
        <time>2020-06-27T15:35:32Z</time>
      </trkpt>
      <trkpt lat="47.19218" lon="-1.57467">
        <ele>5.58</ele>
        <time>2020-06-27T15:35:34Z</time>
      </trkpt>
      <trkpt lat="47.19212" lon="-1.57484">
        <ele>5.32</ele>
        <time>2020-06-27T15:35:36Z</time>
      </trkpt>
      <trkpt lat="47.19207" lon="-1.57498">
        <ele>5.62</ele>
        <time>2020-06-27T15:35:38Z</time>
      </trkpt>
      <trkpt lat="47.19199" lon="-1.57515">
        <ele>6.01</ele>
        <time>2020-06-27T15:35:41Z</time>
      </trkpt>
      <trkpt lat="47.19194" lon="-1.5753">
        <ele>4.9</ele>
        <time>2020-06-27T15:35:43Z</time>
      </trkpt>
      <trkpt lat="47.19189" lon="-1.57543">
        <ele>5.98</ele>
        <time>2020-06-27T15:35:45Z</time>
      </trkpt>
      <trkpt lat="47.19183" lon="-1.57557">
        <ele>6.97</ele>
        <time>2020-06-27T15:35:48Z</time>
      </trkpt>
      <trkpt lat="47.19179" lon="-1.57568">
        <ele>6.2</ele>
        <time>2020-06-27T15:35:50Z</time>
      </trkpt>
      <trkpt lat="47.19174" lon="-1.57582">
        <ele>5.26</ele>
        <time>2020-06-27T15:35:52Z</time>
      </trkpt>
      <trkpt lat="47.1917" lon="-1.57598">
        <ele>4.41</ele>
        <time>2020-06-27T15:35:54Z</time>
      </trkpt>
      <trkpt lat="47.19166" lon="-1.57611">
        <ele>3.35</ele>
        <time>2020-06-27T15:35:56Z</time>
      </trkpt>
      <trkpt lat="47.19163" lon="-1.57624">
        <ele>3.37</ele>
        <time>2020-06-27T15:35:58Z</time>
      </trkpt>
      <trkpt lat="47.19159" lon="-1.57638">
        <ele>2.83</ele>
        <time>2020-06-27T15:36:00Z</time>
      </trkpt>
      <trkpt lat="47.19156" lon="-1.57651">
        <ele>2.85</ele>
        <time>2020-06-27T15:36:02Z</time>
      </trkpt>
      <trkpt lat="47.19149" lon="-1.57666">
        <ele>2.89</ele>
        <time>2020-06-27T15:36:04Z</time>
      </trkpt>
      <trkpt lat="47.19144" lon="-1.5768">
        <ele>3.67</ele>
        <time>2020-06-27T15:36:06Z</time>
      </trkpt>
      <trkpt lat="47.19138" lon="-1.57696">
        <ele>2.71</ele>
        <time>2020-06-27T15:36:08Z</time>
      </trkpt>
      <trkpt lat="47.19133" lon="-1.57711">
        <ele>1.2</ele>
        <time>2020-06-27T15:36:10Z</time>
      </trkpt>
      <trkpt lat="47.19128" lon="-1.57726">
        <ele>0.93</ele>
        <time>2020-06-27T15:36:12Z</time>
      </trkpt>
      <trkpt lat="47.19124" lon="-1.57741">
        <ele>1.83</ele>
        <time>2020-06-27T15:36:14Z</time>
      </trkpt>
      <trkpt lat="47.19119" lon="-1.57757">
        <ele>1.24</ele>
        <time>2020-06-27T15:36:16Z</time>
      </trkpt>
      <trkpt lat="47.19114" lon="-1.57771">
        <ele>-0.33</ele>
        <time>2020-06-27T15:36:18Z</time>
      </trkpt>
      <trkpt lat="47.1911" lon="-1.57783">
        <ele>-1.83</ele>
        <time>2020-06-27T15:36:20Z</time>
      </trkpt>
      <trkpt lat="47.19104" lon="-1.57798">
        <ele>-2.65</ele>
        <time>2020-06-27T15:36:22Z</time>
      </trkpt>
      <trkpt lat="47.191" lon="-1.57811">
        <ele>-4.46</ele>
        <time>2020-06-27T15:36:24Z</time>
      </trkpt>
      <trkpt lat="47.19095" lon="-1.57827">
        <ele>-5.71</ele>
        <time>2020-06-27T15:36:26Z</time>
      </trkpt>
      <trkpt lat="47.19091" lon="-1.5784">
        <ele>-7.01</ele>
        <time>2020-06-27T15:36:28Z</time>
      </trkpt>
      <trkpt lat="47.19087" lon="-1.57852">
        <ele>-7.48</ele>
        <time>2020-06-27T15:36:30Z</time>
      </trkpt>
      <trkpt lat="47.19082" lon="-1.57867">
        <ele>-7.15</ele>
        <time>2020-06-27T15:36:32Z</time>
      </trkpt>
      <trkpt lat="47.19077" lon="-1.57883">
        <ele>-7.21</ele>
        <time>2020-06-27T15:36:34Z</time>
      </trkpt>
      <trkpt lat="47.19072" lon="-1.57899">
        <ele>-6.4</ele>
        <time>2020-06-27T15:36:36Z</time>
      </trkpt>
      <trkpt lat="47.19067" lon="-1.57914">
        <ele>-5.5</ele>
        <time>2020-06-27T15:36:38Z</time>
      </trkpt>
      <trkpt lat="47.19061" lon="-1.57927">
        <ele>-6.37</ele>
        <time>2020-06-27T15:36:40Z</time>
      </trkpt>
      <trkpt lat="47.19054" lon="-1.57944">
        <ele>-5.87</ele>
        <time>2020-06-27T15:36:42Z</time>
      </trkpt>
      <trkpt lat="47.19048" lon="-1.5796">
        <ele>-4.63</ele>
        <time>2020-06-27T15:36:44Z</time>
      </trkpt>
      <trkpt lat="47.19041" lon="-1.57976">
        <ele>-3.61</ele>
        <time>2020-06-27T15:36:46Z</time>
      </trkpt>
      <trkpt lat="47.19035" lon="-1.57989">
        <ele>-2.01</ele>
        <time>2020-06-27T15:36:48Z</time>
      </trkpt>
      <trkpt lat="47.19028" lon="-1.58008">
        <ele>-0.41</ele>
        <time>2020-06-27T15:36:50Z</time>
      </trkpt>
      <trkpt lat="47.19022" lon="-1.58023">
        <ele>0.56</ele>
        <time>2020-06-27T15:36:52Z</time>
      </trkpt>
      <trkpt lat="47.19017" lon="-1.58037">
        <ele>2.03</ele>
        <time>2020-06-27T15:36:54Z</time>
      </trkpt>
      <trkpt lat="47.1901" lon="-1.58053">
        <ele>3.67</ele>
        <time>2020-06-27T15:36:56Z</time>
      </trkpt>
      <trkpt lat="47.19004" lon="-1.5807">
        <ele>5.25</ele>
        <time>2020-06-27T15:36:58Z</time>
      </trkpt>
      <trkpt lat="47.18998" lon="-1.58085">
        <ele>7.11</ele>
        <time>2020-06-27T15:37:00Z</time>
      </trkpt>
      <trkpt lat="47.18991" lon="-1.58104">
        <ele>8.26</ele>
        <time>2020-06-27T15:37:02Z</time>
      </trkpt>
      <trkpt lat="47.18985" lon="-1.58119">
        <ele>8.48</ele>
        <time>2020-06-27T15:37:04Z</time>
      </trkpt>
      <trkpt lat="47.18981" lon="-1.58134">
        <ele>9.43</ele>
        <time>2020-06-27T15:37:06Z</time>
      </trkpt>
      <trkpt lat="47.18975" lon="-1.58149">
        <ele>9.87</ele>
        <time>2020-06-27T15:37:08Z</time>
      </trkpt>
      <trkpt lat="47.18969" lon="-1.58164">
        <ele>10.84</ele>
        <time>2020-06-27T15:37:10Z</time>
      </trkpt>
      <trkpt lat="47.18964" lon="-1.5818">
        <ele>10.94</ele>
        <time>2020-06-27T15:37:12Z</time>
      </trkpt>
      <trkpt lat="47.18958" lon="-1.58197">
        <ele>10.98</ele>
        <time>2020-06-27T15:37:14Z</time>
      </trkpt>
      <trkpt lat="47.18953" lon="-1.58211">
        <ele>12.34</ele>
        <time>2020-06-27T15:37:16Z</time>
      </trkpt>
      <trkpt lat="47.18948" lon="-1.58226">
        <ele>13.22</ele>
        <time>2020-06-27T15:37:18Z</time>
      </trkpt>
      <trkpt lat="47.18942" lon="-1.58243">
        <ele>13.36</ele>
        <time>2020-06-27T15:37:20Z</time>
      </trkpt>
      <trkpt lat="47.18937" lon="-1.58259">
        <ele>13.72</ele>
        <time>2020-06-27T15:37:22Z</time>
      </trkpt>
      <trkpt lat="47.18932" lon="-1.58273">
        <ele>12.13</ele>
        <time>2020-06-27T15:37:24Z</time>
      </trkpt>
      <trkpt lat="47.18927" lon="-1.58289">
        <ele>9.83</ele>
        <time>2020-06-27T15:37:26Z</time>
      </trkpt>
      <trkpt lat="47.18923" lon="-1.58303">
        <ele>7.23</ele>
        <time>2020-06-27T15:37:28Z</time>
      </trkpt>
      <trkpt lat="47.18917" lon="-1.58321">
        <ele>6.15</ele>
        <time>2020-06-27T15:37:30Z</time>
      </trkpt>
      <trkpt lat="47.18911" lon="-1.58336">
        <ele>4.27</ele>
        <time>2020-06-27T15:37:32Z</time>
      </trkpt>
      <trkpt lat="47.18906" lon="-1.58352">
        <ele>3.23</ele>
        <time>2020-06-27T15:37:34Z</time>
      </trkpt>
      <trkpt lat="47.18899" lon="-1.5837">
        <ele>2.45</ele>
        <time>2020-06-27T15:37:36Z</time>
      </trkpt>
      <trkpt lat="47.18894" lon="-1.58385">
        <ele>2.96</ele>
        <time>2020-06-27T15:37:38Z</time>
      </trkpt>
      <trkpt lat="47.18888" lon="-1.58401">
        <ele>5.13</ele>
        <time>2020-06-27T15:37:40Z</time>
      </trkpt>
      <trkpt lat="47.18884" lon="-1.58414">
        <ele>6.62</ele>
        <time>2020-06-27T15:37:42Z</time>
      </trkpt>
      <trkpt lat="47.18879" lon="-1.58431">
        <ele>7.69</ele>
        <time>2020-06-27T15:37:44Z</time>
      </trkpt>
      <trkpt lat="47.18875" lon="-1.58447">
        <ele>7.54</ele>
        <time>2020-06-27T15:37:46Z</time>
      </trkpt>
      <trkpt lat="47.1887" lon="-1.58462">
        <ele>8.53</ele>
        <time>2020-06-27T15:37:48Z</time>
      </trkpt>
      <trkpt lat="47.18865" lon="-1.58477">
        <ele>9.72</ele>
        <time>2020-06-27T15:37:50Z</time>
      </trkpt>
      <trkpt lat="47.18859" lon="-1.58497">
        <ele>10.28</ele>
        <time>2020-06-27T15:37:52Z</time>
      </trkpt>
      <trkpt lat="47.18855" lon="-1.58512">
        <ele>9.88</ele>
        <time>2020-06-27T15:37:54Z</time>
      </trkpt>
      <trkpt lat="47.1885" lon="-1.58529">
        <ele>9.42</ele>
        <time>2020-06-27T15:37:57Z</time>
      </trkpt>
      <trkpt lat="47.18845" lon="-1.58544">
        <ele>8.72</ele>
        <time>2020-06-27T15:37:59Z</time>
      </trkpt>
      <trkpt lat="47.1884" lon="-1.58561">
        <ele>8.17</ele>
        <time>2020-06-27T15:38:01Z</time>
      </trkpt>
      <trkpt lat="47.18837" lon="-1.58575">
        <ele>7.69</ele>
        <time>2020-06-27T15:38:03Z</time>
      </trkpt>
      <trkpt lat="47.18832" lon="-1.58594">
        <ele>8.31</ele>
        <time>2020-06-27T15:38:05Z</time>
      </trkpt>
      <trkpt lat="47.18829" lon="-1.58611">
        <ele>8.87</ele>
        <time>2020-06-27T15:38:07Z</time>
      </trkpt>
      <trkpt lat="47.18825" lon="-1.58628">
        <ele>8.55</ele>
        <time>2020-06-27T15:38:09Z</time>
      </trkpt>
      <trkpt lat="47.18821" lon="-1.58648">
        <ele>7.63</ele>
        <time>2020-06-27T15:38:12Z</time>
      </trkpt>
      <trkpt lat="47.18817" lon="-1.58666">
        <ele>7.72</ele>
        <time>2020-06-27T15:38:14Z</time>
      </trkpt>
      <trkpt lat="47.18815" lon="-1.5868">
        <ele>8.46</ele>
        <time>2020-06-27T15:38:16Z</time>
      </trkpt>
      <trkpt lat="47.18813" lon="-1.58698">
        <ele>8.19</ele>
        <time>2020-06-27T15:38:19Z</time>
      </trkpt>
      <trkpt lat="47.18813" lon="-1.58715">
        <ele>8.97</ele>
        <time>2020-06-27T15:38:22Z</time>
      </trkpt>
      <trkpt lat="47.18823" lon="-1.58725">
        <ele>8.62</ele>
        <time>2020-06-27T15:38:26Z</time>
      </trkpt>
      <trkpt lat="47.18829" lon="-1.58742">
        <ele>8.05</ele>
        <time>2020-06-27T15:38:28Z</time>
      </trkpt>
      <trkpt lat="47.18831" lon="-1.58764">
        <ele>7.17</ele>
        <time>2020-06-27T15:38:30Z</time>
      </trkpt>
      <trkpt lat="47.18825" lon="-1.58783">
        <ele>6.78</ele>
        <time>2020-06-27T15:38:32Z</time>
      </trkpt>
      <trkpt lat="47.18814" lon="-1.588">
        <ele>7.32</ele>
        <time>2020-06-27T15:38:34Z</time>
      </trkpt>
      <trkpt lat="47.188" lon="-1.58811">
        <ele>8.15</ele>
        <time>2020-06-27T15:38:36Z</time>
      </trkpt>
      <trkpt lat="47.18792" lon="-1.58819">
        <ele>8.22</ele>
        <time>2020-06-27T15:38:38Z</time>
      </trkpt>
      <trkpt lat="47.18786" lon="-1.58841">
        <ele>8.18</ele>
        <time>2020-06-27T15:38:40Z</time>
      </trkpt>
      <trkpt lat="47.18783" lon="-1.58861">
        <ele>8.69</ele>
        <time>2020-06-27T15:38:42Z</time>
      </trkpt>
      <trkpt lat="47.1878" lon="-1.58879">
        <ele>9.42</ele>
        <time>2020-06-27T15:38:44Z</time>
      </trkpt>
      <trkpt lat="47.18777" lon="-1.58901">
        <ele>10.01</ele>
        <time>2020-06-27T15:38:46Z</time>
      </trkpt>
      <trkpt lat="47.18773" lon="-1.58923">
        <ele>9.35</ele>
        <time>2020-06-27T15:38:48Z</time>
      </trkpt>
      <trkpt lat="47.18771" lon="-1.58945">
        <ele>9.27</ele>
        <time>2020-06-27T15:38:50Z</time>
      </trkpt>
      <trkpt lat="47.18769" lon="-1.58963">
        <ele>9.47</ele>
        <time>2020-06-27T15:38:52Z</time>
      </trkpt>
      <trkpt lat="47.18766" lon="-1.5898">
        <ele>9.28</ele>
        <time>2020-06-27T15:38:54Z</time>
      </trkpt>
      <trkpt lat="47.18764" lon="-1.59">
        <ele>10.25</ele>
        <time>2020-06-27T15:38:56Z</time>
      </trkpt>
      <trkpt lat="47.18762" lon="-1.59017">
        <ele>10.72</ele>
        <time>2020-06-27T15:38:58Z</time>
      </trkpt>
      <trkpt lat="47.1876" lon="-1.59035">
        <ele>11.79</ele>
        <time>2020-06-27T15:39:00Z</time>
      </trkpt>
      <trkpt lat="47.18758" lon="-1.59052">
        <ele>10.87</ele>
        <time>2020-06-27T15:39:02Z</time>
      </trkpt>
      <trkpt lat="47.18757" lon="-1.59069">
        <ele>10.01</ele>
        <time>2020-06-27T15:39:04Z</time>
      </trkpt>
      <trkpt lat="47.18756" lon="-1.59086">
        <ele>9.64</ele>
        <time>2020-06-27T15:39:06Z</time>
      </trkpt>
      <trkpt lat="47.18754" lon="-1.59102">
        <ele>9.66</ele>
        <time>2020-06-27T15:39:08Z</time>
      </trkpt>
      <trkpt lat="47.18752" lon="-1.5912">
        <ele>8.31</ele>
        <time>2020-06-27T15:39:10Z</time>
      </trkpt>
      <trkpt lat="47.18751" lon="-1.59135">
        <ele>7.43</ele>
        <time>2020-06-27T15:39:12Z</time>
      </trkpt>
      <trkpt lat="47.1875" lon="-1.59151">
        <ele>7.46</ele>
        <time>2020-06-27T15:39:14Z</time>
      </trkpt>
      <trkpt lat="47.18748" lon="-1.59167">
        <ele>6.68</ele>
        <time>2020-06-27T15:39:16Z</time>
      </trkpt>
      <trkpt lat="47.18746" lon="-1.59187">
        <ele>6.94</ele>
        <time>2020-06-27T15:39:18Z</time>
      </trkpt>
      <trkpt lat="47.18744" lon="-1.59206">
        <ele>6.27</ele>
        <time>2020-06-27T15:39:20Z</time>
      </trkpt>
      <trkpt lat="47.18743" lon="-1.59221">
        <ele>5.47</ele>
        <time>2020-06-27T15:39:22Z</time>
      </trkpt>
      <trkpt lat="47.1874" lon="-1.59242">
        <ele>6.29</ele>
        <time>2020-06-27T15:39:25Z</time>
      </trkpt>
      <trkpt lat="47.18739" lon="-1.59262">
        <ele>6.54</ele>
        <time>2020-06-27T15:39:27Z</time>
      </trkpt>
      <trkpt lat="47.18737" lon="-1.59281">
        <ele>6.37</ele>
        <time>2020-06-27T15:39:29Z</time>
      </trkpt>
      <trkpt lat="47.18735" lon="-1.59295">
        <ele>5.23</ele>
        <time>2020-06-27T15:39:31Z</time>
      </trkpt>
      <trkpt lat="47.18733" lon="-1.5931">
        <ele>4.11</ele>
        <time>2020-06-27T15:39:33Z</time>
      </trkpt>
      <trkpt lat="47.18731" lon="-1.59324">
        <ele>5.13</ele>
        <time>2020-06-27T15:39:35Z</time>
      </trkpt>
      <trkpt lat="47.1873" lon="-1.59337">
        <ele>5.8</ele>
        <time>2020-06-27T15:39:37Z</time>
      </trkpt>
      <trkpt lat="47.18729" lon="-1.59352">
        <ele>6.01</ele>
        <time>2020-06-27T15:39:39Z</time>
      </trkpt>
      <trkpt lat="47.18728" lon="-1.59367">
        <ele>5.66</ele>
        <time>2020-06-27T15:39:41Z</time>
      </trkpt>
      <trkpt lat="47.18726" lon="-1.59387">
        <ele>5.43</ele>
        <time>2020-06-27T15:39:44Z</time>
      </trkpt>
      <trkpt lat="47.18724" lon="-1.59402">
        <ele>5.87</ele>
        <time>2020-06-27T15:39:46Z</time>
      </trkpt>
      <trkpt lat="47.18723" lon="-1.59416">
        <ele>6.67</ele>
        <time>2020-06-27T15:39:48Z</time>
      </trkpt>
      <trkpt lat="47.18722" lon="-1.5943">
        <ele>8.22</ele>
        <time>2020-06-27T15:39:50Z</time>
      </trkpt>
      <trkpt lat="47.18721" lon="-1.59444">
        <ele>9.46</ele>
        <time>2020-06-27T15:39:52Z</time>
      </trkpt>
      <trkpt lat="47.18719" lon="-1.59458">
        <ele>8.87</ele>
        <time>2020-06-27T15:39:54Z</time>
      </trkpt>
      <trkpt lat="47.18717" lon="-1.59472">
        <ele>8.22</ele>
        <time>2020-06-27T15:39:56Z</time>
      </trkpt>
      <trkpt lat="47.18714" lon="-1.59486">
        <ele>7.93</ele>
        <time>2020-06-27T15:40:04Z</time>
      </trkpt>
      <trkpt lat="47.18713" lon="-1.59505">
        <ele>7.74</ele>
        <time>2020-06-27T15:40:07Z</time>
      </trkpt>
      <trkpt lat="47.18711" lon="-1.59525">
        <ele>6.85</ele>
        <time>2020-06-27T15:40:10Z</time>
      </trkpt>
      <trkpt lat="47.18708" lon="-1.59546">
        <ele>7.94</ele>
        <time>2020-06-27T15:40:13Z</time>
      </trkpt>
      <trkpt lat="47.18707" lon="-1.59559">
        <ele>8.57</ele>
        <time>2020-06-27T15:40:15Z</time>
      </trkpt>
      <trkpt lat="47.18705" lon="-1.59576">
        <ele>8.23</ele>
        <time>2020-06-27T15:40:18Z</time>
      </trkpt>
      <trkpt lat="47.18703" lon="-1.59591">
        <ele>8.79</ele>
        <time>2020-06-27T15:40:20Z</time>
      </trkpt>
      <trkpt lat="47.18701" lon="-1.59604">
        <ele>9.5</ele>
        <time>2020-06-27T15:40:22Z</time>
      </trkpt>
      <trkpt lat="47.187" lon="-1.5962">
        <ele>8.89</ele>
        <time>2020-06-27T15:40:24Z</time>
      </trkpt>
      <trkpt lat="47.18698" lon="-1.59636">
        <ele>9.09</ele>
        <time>2020-06-27T15:40:26Z</time>
      </trkpt>
      <trkpt lat="47.18696" lon="-1.59651">
        <ele>9.05</ele>
        <time>2020-06-27T15:40:28Z</time>
      </trkpt>
      <trkpt lat="47.18692" lon="-1.5967">
        <ele>7.38</ele>
        <time>2020-06-27T15:40:31Z</time>
      </trkpt>
      <trkpt lat="47.18689" lon="-1.59686">
        <ele>6.89</ele>
        <time>2020-06-27T15:40:33Z</time>
      </trkpt>
      <trkpt lat="47.18687" lon="-1.597">
        <ele>6.22</ele>
        <time>2020-06-27T15:40:35Z</time>
      </trkpt>
      <trkpt lat="47.18686" lon="-1.59716">
        <ele>4.73</ele>
        <time>2020-06-27T15:40:37Z</time>
      </trkpt>
      <trkpt lat="47.18685" lon="-1.59732">
        <ele>3.46</ele>
        <time>2020-06-27T15:40:39Z</time>
      </trkpt>
      <trkpt lat="47.18684" lon="-1.59748">
        <ele>2.64</ele>
        <time>2020-06-27T15:40:41Z</time>
      </trkpt>
      <trkpt lat="47.18684" lon="-1.59767">
        <ele>2.23</ele>
        <time>2020-06-27T15:40:44Z</time>
      </trkpt>
      <trkpt lat="47.18688" lon="-1.59786">
        <ele>2.22</ele>
        <time>2020-06-27T15:40:47Z</time>
      </trkpt>
      <trkpt lat="47.18692" lon="-1.59805">
        <ele>2.36</ele>
        <time>2020-06-27T15:40:50Z</time>
      </trkpt>
      <trkpt lat="47.18692" lon="-1.5982">
        <ele>2.49</ele>
        <time>2020-06-27T15:40:52Z</time>
      </trkpt>
      <trkpt lat="47.18689" lon="-1.59833">
        <ele>3.05</ele>
        <time>2020-06-27T15:40:54Z</time>
      </trkpt>
      <trkpt lat="47.1868" lon="-1.59846">
        <ele>3.06</ele>
        <time>2020-06-27T15:40:57Z</time>
      </trkpt>
      <trkpt lat="47.18671" lon="-1.59852">
        <ele>2.76</ele>
        <time>2020-06-27T15:40:59Z</time>
      </trkpt>
      <trkpt lat="47.18659" lon="-1.59855">
        <ele>2.9</ele>
        <time>2020-06-27T15:41:01Z</time>
      </trkpt>
      <trkpt lat="47.18644" lon="-1.59849">
        <ele>3.86</ele>
        <time>2020-06-27T15:41:03Z</time>
      </trkpt>
      <trkpt lat="47.18633" lon="-1.59837">
        <ele>5.62</ele>
        <time>2020-06-27T15:41:05Z</time>
      </trkpt>
      <trkpt lat="47.1862" lon="-1.59833">
        <ele>7.39</ele>
        <time>2020-06-27T15:41:07Z</time>
      </trkpt>
      <trkpt lat="47.18618" lon="-1.59847">
        <ele>9.93</ele>
        <time>2020-06-27T15:41:09Z</time>
      </trkpt>
      <trkpt lat="47.18623" lon="-1.59866">
        <ele>10.12</ele>
        <time>2020-06-27T15:41:11Z</time>
      </trkpt>
      <trkpt lat="47.18623" lon="-1.59887">
        <ele>8.81</ele>
        <time>2020-06-27T15:41:13Z</time>
      </trkpt>
      <trkpt lat="47.1862" lon="-1.59902">
        <ele>6.94</ele>
        <time>2020-06-27T15:41:15Z</time>
      </trkpt>
      <trkpt lat="47.18616" lon="-1.59917">
        <ele>5.4</ele>
        <time>2020-06-27T15:41:17Z</time>
      </trkpt>
      <trkpt lat="47.18612" lon="-1.59929">
        <ele>4.88</ele>
        <time>2020-06-27T15:41:19Z</time>
      </trkpt>
      <trkpt lat="47.18607" lon="-1.59947">
        <ele>5.01</ele>
        <time>2020-06-27T15:41:22Z</time>
      </trkpt>
      <trkpt lat="47.18604" lon="-1.5996">
        <ele>5.52</ele>
        <time>2020-06-27T15:41:24Z</time>
      </trkpt>
      <trkpt lat="47.186" lon="-1.59973">
        <ele>5.92</ele>
        <time>2020-06-27T15:41:26Z</time>
      </trkpt>
      <trkpt lat="47.18595" lon="-1.59987">
        <ele>5.81</ele>
        <time>2020-06-27T15:41:28Z</time>
      </trkpt>
      <trkpt lat="47.18591" lon="-1.60002">
        <ele>6.91</ele>
        <time>2020-06-27T15:41:30Z</time>
      </trkpt>
      <trkpt lat="47.18587" lon="-1.60016">
        <ele>7.66</ele>
        <time>2020-06-27T15:41:32Z</time>
      </trkpt>
      <trkpt lat="47.18583" lon="-1.60029">
        <ele>6.86</ele>
        <time>2020-06-27T15:41:34Z</time>
      </trkpt>
      <trkpt lat="47.18578" lon="-1.60044">
        <ele>5.8</ele>
        <time>2020-06-27T15:41:36Z</time>
      </trkpt>
      <trkpt lat="47.18573" lon="-1.60058">
        <ele>4.17</ele>
        <time>2020-06-27T15:41:38Z</time>
      </trkpt>
      <trkpt lat="47.18569" lon="-1.6007">
        <ele>3.66</ele>
        <time>2020-06-27T15:41:40Z</time>
      </trkpt>
      <trkpt lat="47.18563" lon="-1.60083">
        <ele>2.98</ele>
        <time>2020-06-27T15:41:42Z</time>
      </trkpt>
      <trkpt lat="47.18558" lon="-1.60096">
        <ele>1.55</ele>
        <time>2020-06-27T15:41:44Z</time>
      </trkpt>
      <trkpt lat="47.18551" lon="-1.60114">
        <ele>1.58</ele>
        <time>2020-06-27T15:41:47Z</time>
      </trkpt>
      <trkpt lat="47.18546" lon="-1.60126">
        <ele>1.63</ele>
        <time>2020-06-27T15:41:49Z</time>
      </trkpt>
      <trkpt lat="47.18539" lon="-1.6014">
        <ele>0.87</ele>
        <time>2020-06-27T15:41:51Z</time>
      </trkpt>
      <trkpt lat="47.18533" lon="-1.60153">
        <ele>1.82</ele>
        <time>2020-06-27T15:41:53Z</time>
      </trkpt>
      <trkpt lat="47.18527" lon="-1.60166">
        <ele>2.89</ele>
        <time>2020-06-27T15:41:55Z</time>
      </trkpt>
      <trkpt lat="47.18518" lon="-1.60181">
        <ele>4.3</ele>
        <time>2020-06-27T15:41:58Z</time>
      </trkpt>
      <trkpt lat="47.18512" lon="-1.60193">
        <ele>6.01</ele>
        <time>2020-06-27T15:42:00Z</time>
      </trkpt>
      <trkpt lat="47.18504" lon="-1.60208">
        <ele>8.61</ele>
        <time>2020-06-27T15:42:03Z</time>
      </trkpt>
      <trkpt lat="47.18496" lon="-1.6022">
        <ele>9.27</ele>
        <time>2020-06-27T15:42:05Z</time>
      </trkpt>
      <trkpt lat="47.1849" lon="-1.60233">
        <ele>9.38</ele>
        <time>2020-06-27T15:42:07Z</time>
      </trkpt>
      <trkpt lat="47.18482" lon="-1.60247">
        <ele>9.5</ele>
        <time>2020-06-27T15:42:10Z</time>
      </trkpt>
      <trkpt lat="47.18475" lon="-1.60258">
        <ele>8.77</ele>
        <time>2020-06-27T15:42:12Z</time>
      </trkpt>
      <trkpt lat="47.18468" lon="-1.60271">
        <ele>7.85</ele>
        <time>2020-06-27T15:42:14Z</time>
      </trkpt>
      <trkpt lat="47.18458" lon="-1.60287">
        <ele>5.08</ele>
        <time>2020-06-27T15:42:17Z</time>
      </trkpt>
      <trkpt lat="47.18451" lon="-1.60299">
        <ele>2.83</ele>
        <time>2020-06-27T15:42:19Z</time>
      </trkpt>
      <trkpt lat="47.18444" lon="-1.60312">
        <ele>2.05</ele>
        <time>2020-06-27T15:42:21Z</time>
      </trkpt>
      <trkpt lat="47.18437" lon="-1.60323">
        <ele>1.44</ele>
        <time>2020-06-27T15:42:23Z</time>
      </trkpt>
      <trkpt lat="47.18431" lon="-1.60334">
        <ele>-0.36</ele>
        <time>2020-06-27T15:42:25Z</time>
      </trkpt>
      <trkpt lat="47.18423" lon="-1.60347">
        <ele>-0.72</ele>
        <time>2020-06-27T15:42:27Z</time>
      </trkpt>
      <trkpt lat="47.18416" lon="-1.60357">
        <ele>-1.63</ele>
        <time>2020-06-27T15:42:29Z</time>
      </trkpt>
      <trkpt lat="47.18408" lon="-1.60369">
        <ele>-2.44</ele>
        <time>2020-06-27T15:42:31Z</time>
      </trkpt>
      <trkpt lat="47.18398" lon="-1.60382">
        <ele>-2.48</ele>
        <time>2020-06-27T15:42:33Z</time>
      </trkpt>
      <trkpt lat="47.1839" lon="-1.60393">
        <ele>-3.1</ele>
        <time>2020-06-27T15:42:36Z</time>
      </trkpt>
      <trkpt lat="47.18381" lon="-1.60405">
        <ele>-5.57</ele>
        <time>2020-06-27T15:42:38Z</time>
      </trkpt>
      <trkpt lat="47.18372" lon="-1.60418">
        <ele>-8.34</ele>
        <time>2020-06-27T15:42:40Z</time>
      </trkpt>
      <trkpt lat="47.18364" lon="-1.6043">
        <ele>-9.54</ele>
        <time>2020-06-27T15:42:43Z</time>
      </trkpt>
      <trkpt lat="47.18357" lon="-1.6044">
        <ele>-9.56</ele>
        <time>2020-06-27T15:42:45Z</time>
      </trkpt>
      <trkpt lat="47.18349" lon="-1.60451">
        <ele>-9.66</ele>
        <time>2020-06-27T15:42:47Z</time>
      </trkpt>
      <trkpt lat="47.18341" lon="-1.60462">
        <ele>-8.73</ele>
        <time>2020-06-27T15:42:49Z</time>
      </trkpt>
      <trkpt lat="47.18331" lon="-1.60474">
        <ele>-8.2</ele>
        <time>2020-06-27T15:42:51Z</time>
      </trkpt>
      <trkpt lat="47.18324" lon="-1.60483">
        <ele>-8.39</ele>
        <time>2020-06-27T15:42:53Z</time>
      </trkpt>
      <trkpt lat="47.18317" lon="-1.60493">
        <ele>-10.12</ele>
        <time>2020-06-27T15:42:55Z</time>
      </trkpt>
      <trkpt lat="47.1831" lon="-1.60503">
        <ele>-11.81</ele>
        <time>2020-06-27T15:42:57Z</time>
      </trkpt>
      <trkpt lat="47.183" lon="-1.60514">
        <ele>-12.85</ele>
        <time>2020-06-27T15:42:59Z</time>
      </trkpt>
      <trkpt lat="47.1829" lon="-1.60525">
        <ele>-13.15</ele>
        <time>2020-06-27T15:43:01Z</time>
      </trkpt>
      <trkpt lat="47.18279" lon="-1.60535">
        <ele>-13.25</ele>
        <time>2020-06-27T15:43:04Z</time>
      </trkpt>
      <trkpt lat="47.18269" lon="-1.60544">
        <ele>-12.51</ele>
        <time>2020-06-27T15:43:06Z</time>
      </trkpt>
      <trkpt lat="47.1826" lon="-1.60551">
        <ele>-11.16</ele>
        <time>2020-06-27T15:43:08Z</time>
      </trkpt>
      <trkpt lat="47.1825" lon="-1.60558">
        <ele>-10.29</ele>
        <time>2020-06-27T15:43:10Z</time>
      </trkpt>
      <trkpt lat="47.18239" lon="-1.60565">
        <ele>-8.19</ele>
        <time>2020-06-27T15:43:13Z</time>
      </trkpt>
      <trkpt lat="47.18226" lon="-1.6057">
        <ele>-6.26</ele>
        <time>2020-06-27T15:43:16Z</time>
      </trkpt>
      <trkpt lat="47.18217" lon="-1.60574">
        <ele>-5.9</ele>
        <time>2020-06-27T15:43:18Z</time>
      </trkpt>
      <trkpt lat="47.18205" lon="-1.60579">
        <ele>-5.87</ele>
        <time>2020-06-27T15:43:21Z</time>
      </trkpt>
      <trkpt lat="47.18195" lon="-1.60582">
        <ele>-4.93</ele>
        <time>2020-06-27T15:43:23Z</time>
      </trkpt>
      <trkpt lat="47.1819" lon="-1.60594">
        <ele>-4.31</ele>
        <time>2020-06-27T15:43:26Z</time>
      </trkpt>
      <trkpt lat="47.18181" lon="-1.60603">
        <ele>-2.86</ele>
        <time>2020-06-27T15:43:29Z</time>
      </trkpt>
      <trkpt lat="47.18167" lon="-1.60605">
        <ele>-0.38</ele>
        <time>2020-06-27T15:43:32Z</time>
      </trkpt>
      <trkpt lat="47.18156" lon="-1.60605">
        <ele>1.96</ele>
        <time>2020-06-27T15:43:34Z</time>
      </trkpt>
      <trkpt lat="47.18143" lon="-1.60605">
        <ele>3.66</ele>
        <time>2020-06-27T15:43:36Z</time>
      </trkpt>
      <trkpt lat="47.18132" lon="-1.60604">
        <ele>4.24</ele>
        <time>2020-06-27T15:43:38Z</time>
      </trkpt>
      <trkpt lat="47.1812" lon="-1.606">
        <ele>4.54</ele>
        <time>2020-06-27T15:43:40Z</time>
      </trkpt>
      <trkpt lat="47.1811" lon="-1.60596">
        <ele>5.53</ele>
        <time>2020-06-27T15:43:42Z</time>
      </trkpt>
      <trkpt lat="47.181" lon="-1.60592">
        <ele>5.44</ele>
        <time>2020-06-27T15:43:44Z</time>
      </trkpt>
      <trkpt lat="47.18087" lon="-1.60586">
        <ele>4.13</ele>
        <time>2020-06-27T15:43:46Z</time>
      </trkpt>
      <trkpt lat="47.18076" lon="-1.60579">
        <ele>4.14</ele>
        <time>2020-06-27T15:43:48Z</time>
      </trkpt>
      <trkpt lat="47.18066" lon="-1.60574">
        <ele>4.13</ele>
        <time>2020-06-27T15:43:50Z</time>
      </trkpt>
      <trkpt lat="47.18057" lon="-1.60569">
        <ele>4.05</ele>
        <time>2020-06-27T15:43:52Z</time>
      </trkpt>
      <trkpt lat="47.18047" lon="-1.60562">
        <ele>3.82</ele>
        <time>2020-06-27T15:43:54Z</time>
      </trkpt>
      <trkpt lat="47.18035" lon="-1.60556">
        <ele>3.47</ele>
        <time>2020-06-27T15:43:56Z</time>
      </trkpt>
      <trkpt lat="47.18025" lon="-1.60554">
        <ele>3.52</ele>
        <time>2020-06-27T15:43:58Z</time>
      </trkpt>
      <trkpt lat="47.18015" lon="-1.60555">
        <ele>4.22</ele>
        <time>2020-06-27T15:44:00Z</time>
      </trkpt>
      <trkpt lat="47.18005" lon="-1.60557">
        <ele>4.85</ele>
        <time>2020-06-27T15:44:02Z</time>
      </trkpt>
      <trkpt lat="47.17995" lon="-1.6056">
        <ele>5.55</ele>
        <time>2020-06-27T15:44:04Z</time>
      </trkpt>
      <trkpt lat="47.17986" lon="-1.60563">
        <ele>5.39</ele>
        <time>2020-06-27T15:44:06Z</time>
      </trkpt>
      <trkpt lat="47.17977" lon="-1.60568">
        <ele>5.52</ele>
        <time>2020-06-27T15:44:08Z</time>
      </trkpt>
      <trkpt lat="47.17968" lon="-1.60574">
        <ele>5.3</ele>
        <time>2020-06-27T15:44:10Z</time>
      </trkpt>
      <trkpt lat="47.17958" lon="-1.60579">
        <ele>4.81</ele>
        <time>2020-06-27T15:44:12Z</time>
      </trkpt>
      <trkpt lat="47.17945" lon="-1.60584">
        <ele>5.06</ele>
        <time>2020-06-27T15:44:15Z</time>
      </trkpt>
      <trkpt lat="47.17935" lon="-1.60589">
        <ele>6.53</ele>
        <time>2020-06-27T15:44:17Z</time>
      </trkpt>
      <trkpt lat="47.17925" lon="-1.60589">
        <ele>7.04</ele>
        <time>2020-06-27T15:44:20Z</time>
      </trkpt>
      <trkpt lat="47.17917" lon="-1.606">
        <ele>2.08</ele>
        <time>2020-06-27T15:44:44Z</time>
      </trkpt>
      <trkpt lat="47.1791" lon="-1.60614">
        <ele>-1.75</ele>
        <time>2020-06-27T15:44:46Z</time>
      </trkpt>
      <trkpt lat="47.17905" lon="-1.60627">
        <ele>-3.8</ele>
        <time>2020-06-27T15:44:48Z</time>
      </trkpt>
      <trkpt lat="47.179" lon="-1.60642">
        <ele>-4.59</ele>
        <time>2020-06-27T15:44:50Z</time>
      </trkpt>
      <trkpt lat="47.17895" lon="-1.60656">
        <ele>-4.06</ele>
        <time>2020-06-27T15:44:52Z</time>
      </trkpt>
      <trkpt lat="47.1789" lon="-1.60672">
        <ele>-3.9</ele>
        <time>2020-06-27T15:44:54Z</time>
      </trkpt>
      <trkpt lat="47.17884" lon="-1.60688">
        <ele>-3.51</ele>
        <time>2020-06-27T15:44:56Z</time>
      </trkpt>
      <trkpt lat="47.17877" lon="-1.60707">
        <ele>-3.39</ele>
        <time>2020-06-27T15:44:58Z</time>
      </trkpt>
      <trkpt lat="47.17872" lon="-1.60722">
        <ele>-3.9</ele>
        <time>2020-06-27T15:45:00Z</time>
      </trkpt>
      <trkpt lat="47.17868" lon="-1.60739">
        <ele>-3.02</ele>
        <time>2020-06-27T15:45:02Z</time>
      </trkpt>
      <trkpt lat="47.17863" lon="-1.60757">
        <ele>-1.14</ele>
        <time>2020-06-27T15:45:04Z</time>
      </trkpt>
      <trkpt lat="47.1786" lon="-1.60772">
        <ele>0.34</ele>
        <time>2020-06-27T15:45:06Z</time>
      </trkpt>
      <trkpt lat="47.17857" lon="-1.60787">
        <ele>1.87</ele>
        <time>2020-06-27T15:45:08Z</time>
      </trkpt>
      <trkpt lat="47.17854" lon="-1.60803">
        <ele>2.55</ele>
        <time>2020-06-27T15:45:10Z</time>
      </trkpt>
      <trkpt lat="47.1785" lon="-1.60818">
        <ele>2.82</ele>
        <time>2020-06-27T15:45:12Z</time>
      </trkpt>
      <trkpt lat="47.17845" lon="-1.60835">
        <ele>3.33</ele>
        <time>2020-06-27T15:45:14Z</time>
      </trkpt>
      <trkpt lat="47.17841" lon="-1.60848">
        <ele>3.7</ele>
        <time>2020-06-27T15:45:16Z</time>
      </trkpt>
      <trkpt lat="47.17836" lon="-1.60861">
        <ele>3.35</ele>
        <time>2020-06-27T15:45:18Z</time>
      </trkpt>
      <trkpt lat="47.1783" lon="-1.60873">
        <ele>2.64</ele>
        <time>2020-06-27T15:45:20Z</time>
      </trkpt>
      <trkpt lat="47.17823" lon="-1.60884">
        <ele>1.59</ele>
        <time>2020-06-27T15:45:22Z</time>
      </trkpt>
      <trkpt lat="47.17814" lon="-1.60896">
        <ele>-0.41</ele>
        <time>2020-06-27T15:45:24Z</time>
      </trkpt>
      <trkpt lat="47.17804" lon="-1.60907">
        <ele>-2.51</ele>
        <time>2020-06-27T15:45:26Z</time>
      </trkpt>
      <trkpt lat="47.17794" lon="-1.60915">
        <ele>-4.84</ele>
        <time>2020-06-27T15:45:28Z</time>
      </trkpt>
      <trkpt lat="47.17783" lon="-1.60923">
        <ele>-7.7</ele>
        <time>2020-06-27T15:45:30Z</time>
      </trkpt>
      <trkpt lat="47.17774" lon="-1.6093">
        <ele>-8.83</ele>
        <time>2020-06-27T15:45:32Z</time>
      </trkpt>
      <trkpt lat="47.17764" lon="-1.60937">
        <ele>-10.32</ele>
        <time>2020-06-27T15:45:34Z</time>
      </trkpt>
      <trkpt lat="47.17755" lon="-1.60945">
        <ele>-10.97</ele>
        <time>2020-06-27T15:45:36Z</time>
      </trkpt>
      <trkpt lat="47.17745" lon="-1.60954">
        <ele>-11.54</ele>
        <time>2020-06-27T15:45:38Z</time>
      </trkpt>
      <trkpt lat="47.17736" lon="-1.60961">
        <ele>-12.58</ele>
        <time>2020-06-27T15:45:40Z</time>
      </trkpt>
      <trkpt lat="47.17726" lon="-1.60969">
        <ele>-13.73</ele>
        <time>2020-06-27T15:45:42Z</time>
      </trkpt>
      <trkpt lat="47.17716" lon="-1.60977">
        <ele>-15.27</ele>
        <time>2020-06-27T15:45:44Z</time>
      </trkpt>
      <trkpt lat="47.17706" lon="-1.60983">
        <ele>-15.18</ele>
        <time>2020-06-27T15:45:46Z</time>
      </trkpt>
      <trkpt lat="47.17696" lon="-1.60986">
        <ele>-15.55</ele>
        <time>2020-06-27T15:45:48Z</time>
      </trkpt>
      <trkpt lat="47.17685" lon="-1.60985">
        <ele>-14.45</ele>
        <time>2020-06-27T15:45:50Z</time>
      </trkpt>
      <trkpt lat="47.17672" lon="-1.60984">
        <ele>-13.77</ele>
        <time>2020-06-27T15:45:52Z</time>
      </trkpt>
      <trkpt lat="47.17659" lon="-1.60987">
        <ele>-12.23</ele>
        <time>2020-06-27T15:45:54Z</time>
      </trkpt>
      <trkpt lat="47.17649" lon="-1.60993">
        <ele>-10.26</ele>
        <time>2020-06-27T15:45:56Z</time>
      </trkpt>
      <trkpt lat="47.17638" lon="-1.61001">
        <ele>-9.61</ele>
        <time>2020-06-27T15:45:58Z</time>
      </trkpt>
      <trkpt lat="47.17628" lon="-1.61009">
        <ele>-8.26</ele>
        <time>2020-06-27T15:46:00Z</time>
      </trkpt>
      <trkpt lat="47.17619" lon="-1.61017">
        <ele>-6.53</ele>
        <time>2020-06-27T15:46:02Z</time>
      </trkpt>
      <trkpt lat="47.17611" lon="-1.61025">
        <ele>-5.04</ele>
        <time>2020-06-27T15:46:04Z</time>
      </trkpt>
      <trkpt lat="47.17599" lon="-1.61036">
        <ele>-5.04</ele>
        <time>2020-06-27T15:46:06Z</time>
      </trkpt>
      <trkpt lat="47.17588" lon="-1.61045">
        <ele>-4.77</ele>
        <time>2020-06-27T15:46:08Z</time>
      </trkpt>
      <trkpt lat="47.17578" lon="-1.61052">
        <ele>-4.64</ele>
        <time>2020-06-27T15:46:10Z</time>
      </trkpt>
      <trkpt lat="47.17569" lon="-1.6106">
        <ele>-6.46</ele>
        <time>2020-06-27T15:46:12Z</time>
      </trkpt>
      <trkpt lat="47.17559" lon="-1.61069">
        <ele>-8.09</ele>
        <time>2020-06-27T15:46:14Z</time>
      </trkpt>
      <trkpt lat="47.1755" lon="-1.61079">
        <ele>-8.18</ele>
        <time>2020-06-27T15:46:16Z</time>
      </trkpt>
      <trkpt lat="47.17541" lon="-1.61086">
        <ele>-8.07</ele>
        <time>2020-06-27T15:46:18Z</time>
      </trkpt>
      <trkpt lat="47.17531" lon="-1.61095">
        <ele>-8.18</ele>
        <time>2020-06-27T15:46:20Z</time>
      </trkpt>
      <trkpt lat="47.17522" lon="-1.61104">
        <ele>-6.74</ele>
        <time>2020-06-27T15:46:22Z</time>
      </trkpt>
      <trkpt lat="47.17513" lon="-1.6111">
        <ele>-4.85</ele>
        <time>2020-06-27T15:46:24Z</time>
      </trkpt>
      <trkpt lat="47.17502" lon="-1.61112">
        <ele>-2.15</ele>
        <time>2020-06-27T15:46:26Z</time>
      </trkpt>
      <trkpt lat="47.1749" lon="-1.61111">
        <ele>-0.74</ele>
        <time>2020-06-27T15:46:28Z</time>
      </trkpt>
      <trkpt lat="47.17478" lon="-1.61109">
        <ele>0.58</ele>
        <time>2020-06-27T15:46:30Z</time>
      </trkpt>
      <trkpt lat="47.17469" lon="-1.61102">
        <ele>1.62</ele>
        <time>2020-06-27T15:46:32Z</time>
      </trkpt>
      <trkpt lat="47.17457" lon="-1.61089">
        <ele>0.28</ele>
        <time>2020-06-27T15:46:35Z</time>
      </trkpt>
      <trkpt lat="47.17448" lon="-1.61078">
        <ele>-1.07</ele>
        <time>2020-06-27T15:46:37Z</time>
      </trkpt>
      <trkpt lat="47.1744" lon="-1.61064">
        <ele>-1.77</ele>
        <time>2020-06-27T15:46:39Z</time>
      </trkpt>
      <trkpt lat="47.17436" lon="-1.61051">
        <ele>-1.86</ele>
        <time>2020-06-27T15:46:41Z</time>
      </trkpt>
      <trkpt lat="47.17431" lon="-1.61037">
        <ele>-1.61</ele>
        <time>2020-06-27T15:46:43Z</time>
      </trkpt>
      <trkpt lat="47.17428" lon="-1.61023">
        <ele>-1.71</ele>
        <time>2020-06-27T15:46:46Z</time>
      </trkpt>
      <trkpt lat="47.17425" lon="-1.61042">
        <ele>-1.53</ele>
        <time>2020-06-27T15:46:51Z</time>
      </trkpt>
      <trkpt lat="47.17428" lon="-1.61057">
        <ele>-0.8</ele>
        <time>2020-06-27T15:46:53Z</time>
      </trkpt>
      <trkpt lat="47.17432" lon="-1.6107">
        <ele>0.72</ele>
        <time>2020-06-27T15:46:55Z</time>
      </trkpt>
      <trkpt lat="47.17436" lon="-1.61082">
        <ele>2.57</ele>
        <time>2020-06-27T15:46:57Z</time>
      </trkpt>
      <trkpt lat="47.17442" lon="-1.61095">
        <ele>3.8</ele>
        <time>2020-06-27T15:46:59Z</time>
      </trkpt>
      <trkpt lat="47.17449" lon="-1.61112">
        <ele>5.02</ele>
        <time>2020-06-27T15:47:02Z</time>
      </trkpt>
      <trkpt lat="47.17455" lon="-1.61125">
        <ele>4.26</ele>
        <time>2020-06-27T15:47:04Z</time>
      </trkpt>
      <trkpt lat="47.17461" lon="-1.61137">
        <ele>3.35</ele>
        <time>2020-06-27T15:47:06Z</time>
      </trkpt>
      <trkpt lat="47.17467" lon="-1.61153">
        <ele>1.92</ele>
        <time>2020-06-27T15:47:09Z</time>
      </trkpt>
      <trkpt lat="47.17471" lon="-1.61166">
        <ele>1.4</ele>
        <time>2020-06-27T15:47:11Z</time>
      </trkpt>
      <trkpt lat="47.17476" lon="-1.6118">
        <ele>3.28</ele>
        <time>2020-06-27T15:47:13Z</time>
      </trkpt>
      <trkpt lat="47.17483" lon="-1.61195">
        <ele>5.22</ele>
        <time>2020-06-27T15:47:16Z</time>
      </trkpt>
      <trkpt lat="47.17489" lon="-1.61207">
        <ele>4.99</ele>
        <time>2020-06-27T15:47:18Z</time>
      </trkpt>
      <trkpt lat="47.17496" lon="-1.61222">
        <ele>5.87</ele>
        <time>2020-06-27T15:47:21Z</time>
      </trkpt>
      <trkpt lat="47.17504" lon="-1.61239">
        <ele>7.79</ele>
        <time>2020-06-27T15:47:24Z</time>
      </trkpt>
      <trkpt lat="47.17509" lon="-1.6125">
        <ele>9.37</ele>
        <time>2020-06-27T15:47:26Z</time>
      </trkpt>
      <trkpt lat="47.17515" lon="-1.61262">
        <ele>10.02</ele>
        <time>2020-06-27T15:47:28Z</time>
      </trkpt>
      <trkpt lat="47.17522" lon="-1.61275">
        <ele>10.49</ele>
        <time>2020-06-27T15:47:30Z</time>
      </trkpt>
      <trkpt lat="47.17532" lon="-1.61287">
        <ele>10.38</ele>
        <time>2020-06-27T15:47:33Z</time>
      </trkpt>
      <trkpt lat="47.17542" lon="-1.6129">
        <ele>10.67</ele>
        <time>2020-06-27T15:47:35Z</time>
      </trkpt>
      <trkpt lat="47.17553" lon="-1.61293">
        <ele>10.93</ele>
        <time>2020-06-27T15:47:37Z</time>
      </trkpt>
      <trkpt lat="47.17561" lon="-1.61302">
        <ele>10.34</ele>
        <time>2020-06-27T15:47:39Z</time>
      </trkpt>
      <trkpt lat="47.17568" lon="-1.61319">
        <ele>9.79</ele>
        <time>2020-06-27T15:47:41Z</time>
      </trkpt>
      <trkpt lat="47.17567" lon="-1.61341">
        <ele>9.64</ele>
        <time>2020-06-27T15:47:43Z</time>
      </trkpt>
      <trkpt lat="47.1756" lon="-1.61353">
        <ele>10.2</ele>
        <time>2020-06-27T15:47:45Z</time>
      </trkpt>
      <trkpt lat="47.1755" lon="-1.61359">
        <ele>10.94</ele>
        <time>2020-06-27T15:47:47Z</time>
      </trkpt>
      <trkpt lat="47.1754" lon="-1.61368">
        <ele>11.9</ele>
        <time>2020-06-27T15:47:49Z</time>
      </trkpt>
      <trkpt lat="47.17533" lon="-1.61383">
        <ele>11.44</ele>
        <time>2020-06-27T15:47:51Z</time>
      </trkpt>
      <trkpt lat="47.17528" lon="-1.614">
        <ele>10.73</ele>
        <time>2020-06-27T15:47:53Z</time>
      </trkpt>
      <trkpt lat="47.17524" lon="-1.61417">
        <ele>11.47</ele>
        <time>2020-06-27T15:47:55Z</time>
      </trkpt>
      <trkpt lat="47.17521" lon="-1.61432">
        <ele>12.01</ele>
        <time>2020-06-27T15:47:57Z</time>
      </trkpt>
      <trkpt lat="47.17518" lon="-1.61449">
        <ele>13.16</ele>
        <time>2020-06-27T15:47:59Z</time>
      </trkpt>
      <trkpt lat="47.17516" lon="-1.61464">
        <ele>14.39</ele>
        <time>2020-06-27T15:48:01Z</time>
      </trkpt>
      <trkpt lat="47.17509" lon="-1.61472">
        <ele>14.27</ele>
        <time>2020-06-27T15:48:03Z</time>
      </trkpt>
      <trkpt lat="47.17497" lon="-1.61477">
        <ele>13.51</ele>
        <time>2020-06-27T15:48:05Z</time>
      </trkpt>
      <trkpt lat="47.17488" lon="-1.6148">
        <ele>12.78</ele>
        <time>2020-06-27T15:48:07Z</time>
      </trkpt>
      <trkpt lat="47.17476" lon="-1.61485">
        <ele>12.26</ele>
        <time>2020-06-27T15:48:09Z</time>
      </trkpt>
      <trkpt lat="47.17467" lon="-1.61488">
        <ele>11.52</ele>
        <time>2020-06-27T15:48:11Z</time>
      </trkpt>
      <trkpt lat="47.17457" lon="-1.61492">
        <ele>11.84</ele>
        <time>2020-06-27T15:48:13Z</time>
      </trkpt>
      <trkpt lat="47.17447" lon="-1.61496">
        <ele>12.8</ele>
        <time>2020-06-27T15:48:15Z</time>
      </trkpt>
      <trkpt lat="47.17437" lon="-1.61501">
        <ele>14.09</ele>
        <time>2020-06-27T15:48:17Z</time>
      </trkpt>
      <trkpt lat="47.17426" lon="-1.61508">
        <ele>15.59</ele>
        <time>2020-06-27T15:48:20Z</time>
      </trkpt>
      <trkpt lat="47.17417" lon="-1.61514">
        <ele>16.54</ele>
        <time>2020-06-27T15:48:22Z</time>
      </trkpt>
      <trkpt lat="47.17408" lon="-1.6152">
        <ele>18.2</ele>
        <time>2020-06-27T15:48:24Z</time>
      </trkpt>
      <trkpt lat="47.17399" lon="-1.61527">
        <ele>18.84</ele>
        <time>2020-06-27T15:48:26Z</time>
      </trkpt>
      <trkpt lat="47.17392" lon="-1.61534">
        <ele>19.09</ele>
        <time>2020-06-27T15:48:28Z</time>
      </trkpt>
      <trkpt lat="47.17382" lon="-1.61544">
        <ele>19.85</ele>
        <time>2020-06-27T15:48:31Z</time>
      </trkpt>
      <trkpt lat="47.17372" lon="-1.61554">
        <ele>19.57</ele>
        <time>2020-06-27T15:48:33Z</time>
      </trkpt>
      <trkpt lat="47.17363" lon="-1.61563">
        <ele>18.01</ele>
        <time>2020-06-27T15:48:35Z</time>
      </trkpt>
      <trkpt lat="47.17355" lon="-1.61571">
        <ele>15.96</ele>
        <time>2020-06-27T15:48:37Z</time>
      </trkpt>
      <trkpt lat="47.17344" lon="-1.61584">
        <ele>12.43</ele>
        <time>2020-06-27T15:48:40Z</time>
      </trkpt>
      <trkpt lat="47.17335" lon="-1.61595">
        <ele>10.17</ele>
        <time>2020-06-27T15:48:42Z</time>
      </trkpt>
      <trkpt lat="47.17326" lon="-1.61608">
        <ele>7.51</ele>
        <time>2020-06-27T15:48:45Z</time>
      </trkpt>
      <trkpt lat="47.17319" lon="-1.61618">
        <ele>6.73</ele>
        <time>2020-06-27T15:48:47Z</time>
      </trkpt>
      <trkpt lat="47.17313" lon="-1.61628">
        <ele>7.37</ele>
        <time>2020-06-27T15:48:49Z</time>
      </trkpt>
      <trkpt lat="47.17306" lon="-1.61639">
        <ele>7.88</ele>
        <time>2020-06-27T15:48:51Z</time>
      </trkpt>
      <trkpt lat="47.17299" lon="-1.61651">
        <ele>7.48</ele>
        <time>2020-06-27T15:48:53Z</time>
      </trkpt>
      <trkpt lat="47.17294" lon="-1.61663">
        <ele>6.21</ele>
        <time>2020-06-27T15:48:55Z</time>
      </trkpt>
      <trkpt lat="47.17287" lon="-1.61674">
        <ele>4.57</ele>
        <time>2020-06-27T15:48:57Z</time>
      </trkpt>
      <trkpt lat="47.1728" lon="-1.61688">
        <ele>3.19</ele>
        <time>2020-06-27T15:48:59Z</time>
      </trkpt>
      <trkpt lat="47.17274" lon="-1.61701">
        <ele>2.01</ele>
        <time>2020-06-27T15:49:01Z</time>
      </trkpt>
      <trkpt lat="47.17268" lon="-1.61713">
        <ele>0.97</ele>
        <time>2020-06-27T15:49:03Z</time>
      </trkpt>
      <trkpt lat="47.17262" lon="-1.61725">
        <ele>0.83</ele>
        <time>2020-06-27T15:49:05Z</time>
      </trkpt>
      <trkpt lat="47.17256" lon="-1.61743">
        <ele>1.9</ele>
        <time>2020-06-27T15:49:08Z</time>
      </trkpt>
      <trkpt lat="47.17251" lon="-1.61757">
        <ele>2.23</ele>
        <time>2020-06-27T15:49:10Z</time>
      </trkpt>
      <trkpt lat="47.17249" lon="-1.61772">
        <ele>1.72</ele>
        <time>2020-06-27T15:49:12Z</time>
      </trkpt>
      <trkpt lat="47.17246" lon="-1.61787">
        <ele>1.83</ele>
        <time>2020-06-27T15:49:14Z</time>
      </trkpt>
      <trkpt lat="47.17235" lon="-1.61795">
        <ele>4.94</ele>
        <time>2020-06-27T15:49:17Z</time>
      </trkpt>
      <trkpt lat="47.17225" lon="-1.61802">
        <ele>7.23</ele>
        <time>2020-06-27T15:49:19Z</time>
      </trkpt>
      <trkpt lat="47.17216" lon="-1.61809">
        <ele>8.4</ele>
        <time>2020-06-27T15:49:21Z</time>
      </trkpt>
      <trkpt lat="47.17206" lon="-1.61817">
        <ele>10.14</ele>
        <time>2020-06-27T15:49:23Z</time>
      </trkpt>
      <trkpt lat="47.17197" lon="-1.61825">
        <ele>11.12</ele>
        <time>2020-06-27T15:49:25Z</time>
      </trkpt>
      <trkpt lat="47.17189" lon="-1.61833">
        <ele>12.62</ele>
        <time>2020-06-27T15:49:27Z</time>
      </trkpt>
      <trkpt lat="47.1718" lon="-1.61841">
        <ele>14.16</ele>
        <time>2020-06-27T15:49:29Z</time>
      </trkpt>
      <trkpt lat="47.17168" lon="-1.61853">
        <ele>15.53</ele>
        <time>2020-06-27T15:49:32Z</time>
      </trkpt>
      <trkpt lat="47.1716" lon="-1.61861">
        <ele>17.5</ele>
        <time>2020-06-27T15:49:34Z</time>
      </trkpt>
      <trkpt lat="47.17152" lon="-1.61869">
        <ele>18.37</ele>
        <time>2020-06-27T15:49:36Z</time>
      </trkpt>
      <trkpt lat="47.17142" lon="-1.61878">
        <ele>17.06</ele>
        <time>2020-06-27T15:49:38Z</time>
      </trkpt>
      <trkpt lat="47.17132" lon="-1.61887">
        <ele>15.88</ele>
        <time>2020-06-27T15:49:40Z</time>
      </trkpt>
      <trkpt lat="47.17124" lon="-1.61895">
        <ele>13.91</ele>
        <time>2020-06-27T15:49:42Z</time>
      </trkpt>
      <trkpt lat="47.17115" lon="-1.61903">
        <ele>12.76</ele>
        <time>2020-06-27T15:49:44Z</time>
      </trkpt>
      <trkpt lat="47.17107" lon="-1.61911">
        <ele>12.46</ele>
        <time>2020-06-27T15:49:46Z</time>
      </trkpt>
      <trkpt lat="47.17098" lon="-1.6192">
        <ele>13.35</ele>
        <time>2020-06-27T15:49:48Z</time>
      </trkpt>
      <trkpt lat="47.17089" lon="-1.61929">
        <ele>13.74</ele>
        <time>2020-06-27T15:49:50Z</time>
      </trkpt>
      <trkpt lat="47.1708" lon="-1.61938">
        <ele>12.98</ele>
        <time>2020-06-27T15:49:52Z</time>
      </trkpt>
      <trkpt lat="47.17071" lon="-1.61946">
        <ele>12.32</ele>
        <time>2020-06-27T15:49:54Z</time>
      </trkpt>
      <trkpt lat="47.17064" lon="-1.61955">
        <ele>10.88</ele>
        <time>2020-06-27T15:49:56Z</time>
      </trkpt>
      <trkpt lat="47.17056" lon="-1.61966">
        <ele>9.57</ele>
        <time>2020-06-27T15:49:58Z</time>
      </trkpt>
      <trkpt lat="47.17049" lon="-1.61978">
        <ele>8.2</ele>
        <time>2020-06-27T15:50:00Z</time>
      </trkpt>
      <trkpt lat="47.17043" lon="-1.61987">
        <ele>7.12</ele>
        <time>2020-06-27T15:50:02Z</time>
      </trkpt>
      <trkpt lat="47.17037" lon="-1.61999">
        <ele>6.99</ele>
        <time>2020-06-27T15:50:04Z</time>
      </trkpt>
      <trkpt lat="47.1703" lon="-1.62012">
        <ele>5.65</ele>
        <time>2020-06-27T15:50:06Z</time>
      </trkpt>
      <trkpt lat="47.17023" lon="-1.62023">
        <ele>4.58</ele>
        <time>2020-06-27T15:50:08Z</time>
      </trkpt>
      <trkpt lat="47.17016" lon="-1.62035">
        <ele>3.09</ele>
        <time>2020-06-27T15:50:10Z</time>
      </trkpt>
      <trkpt lat="47.17009" lon="-1.62047">
        <ele>1.52</ele>
        <time>2020-06-27T15:50:12Z</time>
      </trkpt>
      <trkpt lat="47.17003" lon="-1.6206">
        <ele>1.09</ele>
        <time>2020-06-27T15:50:14Z</time>
      </trkpt>
      <trkpt lat="47.16996" lon="-1.62075">
        <ele>1.42</ele>
        <time>2020-06-27T15:50:16Z</time>
      </trkpt>
      <trkpt lat="47.1699" lon="-1.62087">
        <ele>2.17</ele>
        <time>2020-06-27T15:50:18Z</time>
      </trkpt>
      <trkpt lat="47.16982" lon="-1.621">
        <ele>2.7</ele>
        <time>2020-06-27T15:50:20Z</time>
      </trkpt>
      <trkpt lat="47.16975" lon="-1.62112">
        <ele>2.44</ele>
        <time>2020-06-27T15:50:22Z</time>
      </trkpt>
      <trkpt lat="47.16968" lon="-1.62124">
        <ele>1.71</ele>
        <time>2020-06-27T15:50:24Z</time>
      </trkpt>
      <trkpt lat="47.16962" lon="-1.62137">
        <ele>1.39</ele>
        <time>2020-06-27T15:50:26Z</time>
      </trkpt>
      <trkpt lat="47.16954" lon="-1.62153">
        <ele>0.29</ele>
        <time>2020-06-27T15:50:28Z</time>
      </trkpt>
      <trkpt lat="47.16947" lon="-1.62167">
        <ele>-0.35</ele>
        <time>2020-06-27T15:50:30Z</time>
      </trkpt>
      <trkpt lat="47.16942" lon="-1.62178">
        <ele>-0.08</ele>
        <time>2020-06-27T15:50:32Z</time>
      </trkpt>
      <trkpt lat="47.16936" lon="-1.62191">
        <ele>0.54</ele>
        <time>2020-06-27T15:50:34Z</time>
      </trkpt>
      <trkpt lat="47.1693" lon="-1.62203">
        <ele>1.72</ele>
        <time>2020-06-27T15:50:36Z</time>
      </trkpt>
      <trkpt lat="47.16924" lon="-1.62215">
        <ele>2.39</ele>
        <time>2020-06-27T15:50:38Z</time>
      </trkpt>
      <trkpt lat="47.16915" lon="-1.62227">
        <ele>3.61</ele>
        <time>2020-06-27T15:50:41Z</time>
      </trkpt>
      <trkpt lat="47.16907" lon="-1.62237">
        <ele>4.6</ele>
        <time>2020-06-27T15:50:43Z</time>
      </trkpt>
      <trkpt lat="47.16898" lon="-1.62249">
        <ele>4.99</ele>
        <time>2020-06-27T15:50:45Z</time>
      </trkpt>
      <trkpt lat="47.16891" lon="-1.62257">
        <ele>4.22</ele>
        <time>2020-06-27T15:50:47Z</time>
      </trkpt>
      <trkpt lat="47.16883" lon="-1.62267">
        <ele>4.37</ele>
        <time>2020-06-27T15:50:49Z</time>
      </trkpt>
      <trkpt lat="47.16875" lon="-1.62277">
        <ele>5.07</ele>
        <time>2020-06-27T15:50:51Z</time>
      </trkpt>
      <trkpt lat="47.16866" lon="-1.62286">
        <ele>5.42</ele>
        <time>2020-06-27T15:50:53Z</time>
      </trkpt>
      <trkpt lat="47.16859" lon="-1.62295">
        <ele>6.34</ele>
        <time>2020-06-27T15:50:55Z</time>
      </trkpt>
      <trkpt lat="47.1685" lon="-1.62303">
        <ele>6.39</ele>
        <time>2020-06-27T15:50:57Z</time>
      </trkpt>
      <trkpt lat="47.16837" lon="-1.62315">
        <ele>6.49</ele>
        <time>2020-06-27T15:51:00Z</time>
      </trkpt>
      <trkpt lat="47.16828" lon="-1.62323">
        <ele>7.06</ele>
        <time>2020-06-27T15:51:02Z</time>
      </trkpt>
      <trkpt lat="47.1682" lon="-1.6233">
        <ele>7.06</ele>
        <time>2020-06-27T15:51:04Z</time>
      </trkpt>
      <trkpt lat="47.16811" lon="-1.62334">
        <ele>6.34</ele>
        <time>2020-06-27T15:51:06Z</time>
      </trkpt>
      <trkpt lat="47.16802" lon="-1.62338">
        <ele>6.83</ele>
        <time>2020-06-27T15:51:08Z</time>
      </trkpt>
      <trkpt lat="47.16793" lon="-1.62343">
        <ele>8.21</ele>
        <time>2020-06-27T15:51:10Z</time>
      </trkpt>
      <trkpt lat="47.16781" lon="-1.6235">
        <ele>11.8</ele>
        <time>2020-06-27T15:51:13Z</time>
      </trkpt>
      <trkpt lat="47.1677" lon="-1.62357">
        <ele>12.28</ele>
        <time>2020-06-27T15:51:14Z</time>
      </trkpt>
      <trkpt lat="47.1676" lon="-1.62363">
        <ele>11.51</ele>
        <time>2020-06-27T15:51:16Z</time>
      </trkpt>
      <trkpt lat="47.1675" lon="-1.62371">
        <ele>10.76</ele>
        <time>2020-06-27T15:51:18Z</time>
      </trkpt>
      <trkpt lat="47.16742" lon="-1.6238">
        <ele>10.2</ele>
        <time>2020-06-27T15:51:20Z</time>
      </trkpt>
      <trkpt lat="47.16736" lon="-1.62394">
        <ele>10.45</ele>
        <time>2020-06-27T15:51:22Z</time>
      </trkpt>
      <trkpt lat="47.16732" lon="-1.62408">
        <ele>9.8</ele>
        <time>2020-06-27T15:51:24Z</time>
      </trkpt>
      <trkpt lat="47.1673" lon="-1.62422">
        <ele>9.76</ele>
        <time>2020-06-27T15:51:26Z</time>
      </trkpt>
      <trkpt lat="47.16729" lon="-1.6244">
        <ele>13.16</ele>
        <time>2020-06-27T15:51:29Z</time>
      </trkpt>
      <trkpt lat="47.16726" lon="-1.62453">
        <ele>15.53</ele>
        <time>2020-06-27T15:51:31Z</time>
      </trkpt>
      <trkpt lat="47.16723" lon="-1.62467">
        <ele>17.49</ele>
        <time>2020-06-27T15:51:33Z</time>
      </trkpt>
      <trkpt lat="47.1672" lon="-1.62481">
        <ele>18.85</ele>
        <time>2020-06-27T15:51:35Z</time>
      </trkpt>
      <trkpt lat="47.16721" lon="-1.625">
        <ele>20.87</ele>
        <time>2020-06-27T15:51:38Z</time>
      </trkpt>
      <trkpt lat="47.1673" lon="-1.62504">
        <ele>20.58</ele>
        <time>2020-06-27T15:51:40Z</time>
      </trkpt>
      <trkpt lat="47.1674" lon="-1.62509">
        <ele>20.08</ele>
        <time>2020-06-27T15:51:45Z</time>
      </trkpt>
      <trkpt lat="47.1675" lon="-1.62514">
        <ele>18.99</ele>
        <time>2020-06-27T15:51:48Z</time>
      </trkpt>
      <trkpt lat="47.16763" lon="-1.62519">
        <ele>16.46</ele>
        <time>2020-06-27T15:51:51Z</time>
      </trkpt>
      <trkpt lat="47.16773" lon="-1.62525">
        <ele>15.05</ele>
        <time>2020-06-27T15:51:53Z</time>
      </trkpt>
      <trkpt lat="47.16783" lon="-1.62532">
        <ele>14.66</ele>
        <time>2020-06-27T15:51:55Z</time>
      </trkpt>
      <trkpt lat="47.16792" lon="-1.62539">
        <ele>15.88</ele>
        <time>2020-06-27T15:51:57Z</time>
      </trkpt>
      <trkpt lat="47.16805" lon="-1.62548">
        <ele>14.75</ele>
        <time>2020-06-27T15:52:00Z</time>
      </trkpt>
      <trkpt lat="47.16813" lon="-1.62555">
        <ele>13.93</ele>
        <time>2020-06-27T15:52:02Z</time>
      </trkpt>
      <trkpt lat="47.16821" lon="-1.62564">
        <ele>13.47</ele>
        <time>2020-06-27T15:52:04Z</time>
      </trkpt>
      <trkpt lat="47.16831" lon="-1.62575">
        <ele>14.45</ele>
        <time>2020-06-27T15:52:06Z</time>
      </trkpt>
      <trkpt lat="47.16833" lon="-1.6259">
        <ele>16.62</ele>
        <time>2020-06-27T15:52:09Z</time>
      </trkpt>
      <trkpt lat="47.16826" lon="-1.62599">
        <ele>17.99</ele>
        <time>2020-06-27T15:52:11Z</time>
      </trkpt>
      <trkpt lat="47.16818" lon="-1.6261">
        <ele>18.47</ele>
        <time>2020-06-27T15:52:13Z</time>
      </trkpt>
      <trkpt lat="47.16809" lon="-1.62628">
        <ele>18.45</ele>
        <time>2020-06-27T15:52:16Z</time>
      </trkpt>
      <trkpt lat="47.16801" lon="-1.62642">
        <ele>18.59</ele>
        <time>2020-06-27T15:52:19Z</time>
      </trkpt>
      <trkpt lat="47.16794" lon="-1.62654">
        <ele>18.51</ele>
        <time>2020-06-27T15:52:22Z</time>
      </trkpt>
      <trkpt lat="47.16785" lon="-1.62664">
        <ele>18.46</ele>
        <time>2020-06-27T15:52:25Z</time>
      </trkpt>
      <trkpt lat="47.16778" lon="-1.62656">
        <ele>18.47</ele>
        <time>2020-06-27T15:52:32Z</time>
      </trkpt>
    </trkseg>
  </trk>
</gpx>